<?xml version="1.0" encoding="UTF-8" standalone="no" ?>
<gpx xmlns="http://www.topografix.com/GPX/1/1" xmlns:xsi="http://www.w3.org/2001/XMLSchema-instance" xsi:schemaLocation="http://www.topografix.com/GPX/1/1 http://www.topografix.com/GPX/1/1/gpx.xsd" version="1.1" creator="VisuGPX - https://www.visugpx.com">
  <metadata>
    <name>Champagnat Cyclisme</name>
  </metadata>
  <trk>
    <name><![CDATA[Champagnat Cyclisme]]></name>
    <trkseg>
      <trkpt lat="46.48273" lon="5.36829">
        <ele>262.60000610352</ele>
        <time>2021-03-08T13:10:52.000Z</time>
      </trkpt>
      <trkpt lat="46.48253" lon="5.36809">
        <ele>261.60000610352</ele>
        <time>2021-03-08T13:10:54.000Z</time>
      </trkpt>
      <trkpt lat="46.48232" lon="5.36791">
        <ele>260</ele>
        <time>2021-03-08T13:10:56.000Z</time>
      </trkpt>
      <trkpt lat="46.48221" lon="5.36783">
        <ele>258</ele>
        <time>2021-03-08T13:10:57.000Z</time>
      </trkpt>
      <trkpt lat="46.4821" lon="5.36773">
        <ele>257.20001220703</ele>
        <time>2021-03-08T13:10:58.000Z</time>
      </trkpt>
      <trkpt lat="46.48199" lon="5.36764">
        <ele>256.39999389648</ele>
        <time>2021-03-08T13:10:59.000Z</time>
      </trkpt>
      <trkpt lat="46.48188" lon="5.36756">
        <ele>255.60000610352</ele>
        <time>2021-03-08T13:11:00.000Z</time>
      </trkpt>
      <trkpt lat="46.48177" lon="5.36747">
        <ele>255.19999694824</ele>
        <time>2021-03-08T13:11:01.000Z</time>
      </trkpt>
      <trkpt lat="46.48165" lon="5.36738">
        <ele>254.60000610352</ele>
        <time>2021-03-08T13:11:02.000Z</time>
      </trkpt>
      <trkpt lat="46.48143" lon="5.36721">
        <ele>253.80000305176</ele>
        <time>2021-03-08T13:11:04.000Z</time>
      </trkpt>
      <trkpt lat="46.48125" lon="5.36707">
        <ele>252.39999389648</ele>
        <time>2021-03-08T13:11:06.000Z</time>
      </trkpt>
      <trkpt lat="46.48118" lon="5.36702">
        <ele>251.60000610352</ele>
        <time>2021-03-08T13:11:07.000Z</time>
      </trkpt>
      <trkpt lat="46.48115" lon="5.36694">
        <ele>250.80000305176</ele>
        <time>2021-03-08T13:11:08.000Z</time>
      </trkpt>
      <trkpt lat="46.48114" lon="5.36686">
        <ele>250.39999389648</ele>
        <time>2021-03-08T13:11:09.000Z</time>
      </trkpt>
      <trkpt lat="46.48117" lon="5.36678">
        <ele>249.60000610352</ele>
        <time>2021-03-08T13:11:10.000Z</time>
      </trkpt>
      <trkpt lat="46.48127" lon="5.36665">
        <ele>248.80000305176</ele>
        <time>2021-03-08T13:11:12.000Z</time>
      </trkpt>
      <trkpt lat="46.48134" lon="5.3666">
        <ele>248.60000610352</ele>
        <time>2021-03-08T13:11:13.000Z</time>
      </trkpt>
      <trkpt lat="46.4814" lon="5.36654">
        <ele>248.39999389648</ele>
        <time>2021-03-08T13:11:14.000Z</time>
      </trkpt>
      <trkpt lat="46.48153" lon="5.36641">
        <ele>247.80000305176</ele>
        <time>2021-03-08T13:11:16.000Z</time>
      </trkpt>
      <trkpt lat="46.48157" lon="5.36631">
        <ele>247.60000610352</ele>
        <time>2021-03-08T13:11:17.000Z</time>
      </trkpt>
      <trkpt lat="46.48162" lon="5.36624">
        <ele>247.19999694824</ele>
        <time>2021-03-08T13:11:18.000Z</time>
      </trkpt>
      <trkpt lat="46.48173" lon="5.36612">
        <ele>245.60000610352</ele>
        <time>2021-03-08T13:11:20.000Z</time>
      </trkpt>
      <trkpt lat="46.48179" lon="5.36607">
        <ele>245.19999694824</ele>
        <time>2021-03-08T13:11:21.000Z</time>
      </trkpt>
      <trkpt lat="46.48185" lon="5.36604">
        <ele>244.60000610352</ele>
        <time>2021-03-08T13:11:22.000Z</time>
      </trkpt>
      <trkpt lat="46.48201" lon="5.366">
        <ele>244</ele>
        <time>2021-03-08T13:11:24.000Z</time>
      </trkpt>
      <trkpt lat="46.48214" lon="5.36592">
        <ele>243.60000610352</ele>
        <time>2021-03-08T13:11:26.000Z</time>
      </trkpt>
      <trkpt lat="46.48218" lon="5.36585">
        <ele>243.60000610352</ele>
        <time>2021-03-08T13:11:27.000Z</time>
      </trkpt>
      <trkpt lat="46.48221" lon="5.36575">
        <ele>243.60000610352</ele>
        <time>2021-03-08T13:11:28.000Z</time>
      </trkpt>
      <trkpt lat="46.48228" lon="5.36558">
        <ele>243.39999389648</ele>
        <time>2021-03-08T13:11:30.000Z</time>
      </trkpt>
      <trkpt lat="46.4824" lon="5.36545">
        <ele>243.39999389648</ele>
        <time>2021-03-08T13:11:32.000Z</time>
      </trkpt>
      <trkpt lat="46.48252" lon="5.36532">
        <ele>243.39999389648</ele>
        <time>2021-03-08T13:11:34.000Z</time>
      </trkpt>
      <trkpt lat="46.48258" lon="5.36526">
        <ele>243.39999389648</ele>
        <time>2021-03-08T13:11:35.000Z</time>
      </trkpt>
      <trkpt lat="46.48263" lon="5.3652">
        <ele>243.39999389648</ele>
        <time>2021-03-08T13:11:36.000Z</time>
      </trkpt>
      <trkpt lat="46.48275" lon="5.36508">
        <ele>243.19999694824</ele>
        <time>2021-03-08T13:11:38.000Z</time>
      </trkpt>
      <trkpt lat="46.48287" lon="5.36495">
        <ele>242.80000305176</ele>
        <time>2021-03-08T13:11:40.000Z</time>
      </trkpt>
      <trkpt lat="46.48293" lon="5.36489">
        <ele>242.39999389648</ele>
        <time>2021-03-08T13:11:41.000Z</time>
      </trkpt>
      <trkpt lat="46.48299" lon="5.36483">
        <ele>242.19999694824</ele>
        <time>2021-03-08T13:11:42.000Z</time>
      </trkpt>
      <trkpt lat="46.4831" lon="5.3647">
        <ele>241.80000305176</ele>
        <time>2021-03-08T13:11:44.000Z</time>
      </trkpt>
      <trkpt lat="46.48322" lon="5.36458">
        <ele>241.60000610352</ele>
        <time>2021-03-08T13:11:46.000Z</time>
      </trkpt>
      <trkpt lat="46.48328" lon="5.36451">
        <ele>241.19999694824</ele>
        <time>2021-03-08T13:11:47.000Z</time>
      </trkpt>
      <trkpt lat="46.48334" lon="5.36445">
        <ele>240.60000610352</ele>
        <time>2021-03-08T13:11:48.000Z</time>
      </trkpt>
      <trkpt lat="46.4834" lon="5.36438">
        <ele>240</ele>
        <time>2021-03-08T13:11:49.000Z</time>
      </trkpt>
      <trkpt lat="46.48346" lon="5.36432">
        <ele>239.80000305176</ele>
        <time>2021-03-08T13:11:50.000Z</time>
      </trkpt>
      <trkpt lat="46.48358" lon="5.36419">
        <ele>239.39999389648</ele>
        <time>2021-03-08T13:11:52.000Z</time>
      </trkpt>
      <trkpt lat="46.4837" lon="5.36406">
        <ele>238.60000610352</ele>
        <time>2021-03-08T13:11:54.000Z</time>
      </trkpt>
      <trkpt lat="46.48376" lon="5.36399">
        <ele>238.19999694824</ele>
        <time>2021-03-08T13:11:55.000Z</time>
      </trkpt>
      <trkpt lat="46.48382" lon="5.36393">
        <ele>238.19999694824</ele>
        <time>2021-03-08T13:11:56.000Z</time>
      </trkpt>
      <trkpt lat="46.48393" lon="5.36381">
        <ele>237.80000305176</ele>
        <time>2021-03-08T13:11:58.000Z</time>
      </trkpt>
      <trkpt lat="46.48406" lon="5.3637">
        <ele>237.39999389648</ele>
        <time>2021-03-08T13:12:00.000Z</time>
      </trkpt>
      <trkpt lat="46.48418" lon="5.36361">
        <ele>237.19999694824</ele>
        <time>2021-03-08T13:12:02.000Z</time>
      </trkpt>
      <trkpt lat="46.48431" lon="5.36355">
        <ele>237.19999694824</ele>
        <time>2021-03-08T13:12:04.000Z</time>
      </trkpt>
      <trkpt lat="46.48444" lon="5.36352">
        <ele>237</ele>
        <time>2021-03-08T13:12:06.000Z</time>
      </trkpt>
      <trkpt lat="46.48451" lon="5.36351">
        <ele>236.80000305176</ele>
        <time>2021-03-08T13:12:07.000Z</time>
      </trkpt>
      <trkpt lat="46.48457" lon="5.3635">
        <ele>236.60000610352</ele>
        <time>2021-03-08T13:12:08.000Z</time>
      </trkpt>
      <trkpt lat="46.48469" lon="5.36348">
        <ele>236.60000610352</ele>
        <time>2021-03-08T13:12:10.000Z</time>
      </trkpt>
      <trkpt lat="46.48476" lon="5.36347">
        <ele>236.39999389648</ele>
        <time>2021-03-08T13:12:11.000Z</time>
      </trkpt>
      <trkpt lat="46.48481" lon="5.36346">
        <ele>236.39999389648</ele>
        <time>2021-03-08T13:12:12.000Z</time>
      </trkpt>
      <trkpt lat="46.48493" lon="5.36344">
        <ele>236.39999389648</ele>
        <time>2021-03-08T13:12:14.000Z</time>
      </trkpt>
      <trkpt lat="46.48505" lon="5.36342">
        <ele>236.19999694824</ele>
        <time>2021-03-08T13:12:16.000Z</time>
      </trkpt>
      <trkpt lat="46.48517" lon="5.3634">
        <ele>236.19999694824</ele>
        <time>2021-03-08T13:12:18.000Z</time>
      </trkpt>
      <trkpt lat="46.48528" lon="5.36338">
        <ele>236.19999694824</ele>
        <time>2021-03-08T13:12:20.000Z</time>
      </trkpt>
      <trkpt lat="46.4854" lon="5.36335">
        <ele>236.19999694824</ele>
        <time>2021-03-08T13:12:22.000Z</time>
      </trkpt>
      <trkpt lat="46.48551" lon="5.36333">
        <ele>236</ele>
        <time>2021-03-08T13:12:24.000Z</time>
      </trkpt>
      <trkpt lat="46.48563" lon="5.3633">
        <ele>236</ele>
        <time>2021-03-08T13:12:26.000Z</time>
      </trkpt>
      <trkpt lat="46.48575" lon="5.36329">
        <ele>236</ele>
        <time>2021-03-08T13:12:28.000Z</time>
      </trkpt>
      <trkpt lat="46.48588" lon="5.36327">
        <ele>235.80000305176</ele>
        <time>2021-03-08T13:12:30.000Z</time>
      </trkpt>
      <trkpt lat="46.48601" lon="5.36325">
        <ele>235.39999389648</ele>
        <time>2021-03-08T13:12:32.000Z</time>
      </trkpt>
      <trkpt lat="46.48615" lon="5.36321">
        <ele>235</ele>
        <time>2021-03-08T13:12:34.000Z</time>
      </trkpt>
      <trkpt lat="46.48621" lon="5.36316">
        <ele>234.60000610352</ele>
        <time>2021-03-08T13:12:35.000Z</time>
      </trkpt>
      <trkpt lat="46.48627" lon="5.36309">
        <ele>234.39999389648</ele>
        <time>2021-03-08T13:12:36.000Z</time>
      </trkpt>
      <trkpt lat="46.48635" lon="5.36289">
        <ele>233.60000610352</ele>
        <time>2021-03-08T13:12:38.000Z</time>
      </trkpt>
      <trkpt lat="46.48638" lon="5.36266">
        <ele>233.39999389648</ele>
        <time>2021-03-08T13:12:40.000Z</time>
      </trkpt>
      <trkpt lat="46.48641" lon="5.36242">
        <ele>233</ele>
        <time>2021-03-08T13:12:42.000Z</time>
      </trkpt>
      <trkpt lat="46.48644" lon="5.36218">
        <ele>232.80000305176</ele>
        <time>2021-03-08T13:12:44.000Z</time>
      </trkpt>
      <trkpt lat="46.48645" lon="5.36195">
        <ele>232.19999694824</ele>
        <time>2021-03-08T13:12:46.000Z</time>
      </trkpt>
      <trkpt lat="46.48647" lon="5.36172">
        <ele>231.80000305176</ele>
        <time>2021-03-08T13:12:48.000Z</time>
      </trkpt>
      <trkpt lat="46.48649" lon="5.36149">
        <ele>231.19999694824</ele>
        <time>2021-03-08T13:12:50.000Z</time>
      </trkpt>
      <trkpt lat="46.48653" lon="5.36126">
        <ele>230.39999389648</ele>
        <time>2021-03-08T13:12:52.000Z</time>
      </trkpt>
      <trkpt lat="46.48655" lon="5.36116">
        <ele>230.39999389648</ele>
        <time>2021-03-08T13:12:53.000Z</time>
      </trkpt>
      <trkpt lat="46.48657" lon="5.36105">
        <ele>230.19999694824</ele>
        <time>2021-03-08T13:12:54.000Z</time>
      </trkpt>
      <trkpt lat="46.48662" lon="5.36084">
        <ele>230.19999694824</ele>
        <time>2021-03-08T13:12:56.000Z</time>
      </trkpt>
      <trkpt lat="46.48666" lon="5.36065">
        <ele>230</ele>
        <time>2021-03-08T13:12:58.000Z</time>
      </trkpt>
      <trkpt lat="46.4867" lon="5.36047">
        <ele>230</ele>
        <time>2021-03-08T13:13:00.000Z</time>
      </trkpt>
      <trkpt lat="46.48674" lon="5.3603">
        <ele>230</ele>
        <time>2021-03-08T13:13:02.000Z</time>
      </trkpt>
      <trkpt lat="46.48677" lon="5.36013">
        <ele>230.19999694824</ele>
        <time>2021-03-08T13:13:04.000Z</time>
      </trkpt>
      <trkpt lat="46.48679" lon="5.35998">
        <ele>230.80000305176</ele>
        <time>2021-03-08T13:13:06.000Z</time>
      </trkpt>
      <trkpt lat="46.4868" lon="5.3599">
        <ele>231.19999694824</ele>
        <time>2021-03-08T13:13:07.000Z</time>
      </trkpt>
      <trkpt lat="46.48681" lon="5.35982">
        <ele>231.39999389648</ele>
        <time>2021-03-08T13:13:08.000Z</time>
      </trkpt>
      <trkpt lat="46.48683" lon="5.35965">
        <ele>231.80000305176</ele>
        <time>2021-03-08T13:13:10.000Z</time>
      </trkpt>
      <trkpt lat="46.48686" lon="5.35947">
        <ele>232.19999694824</ele>
        <time>2021-03-08T13:13:12.000Z</time>
      </trkpt>
      <trkpt lat="46.48688" lon="5.35937">
        <ele>232.19999694824</ele>
        <time>2021-03-08T13:13:13.000Z</time>
      </trkpt>
      <trkpt lat="46.48689" lon="5.35927">
        <ele>232.60000610352</ele>
        <time>2021-03-08T13:13:14.000Z</time>
      </trkpt>
      <trkpt lat="46.48694" lon="5.35908">
        <ele>232.60000610352</ele>
        <time>2021-03-08T13:13:16.000Z</time>
      </trkpt>
      <trkpt lat="46.48701" lon="5.35889">
        <ele>232.80000305176</ele>
        <time>2021-03-08T13:13:18.000Z</time>
      </trkpt>
      <trkpt lat="46.48709" lon="5.3587">
        <ele>232.80000305176</ele>
        <time>2021-03-08T13:13:20.000Z</time>
      </trkpt>
      <trkpt lat="46.48717" lon="5.3585">
        <ele>232.80000305176</ele>
        <time>2021-03-08T13:13:22.000Z</time>
      </trkpt>
      <trkpt lat="46.48726" lon="5.3583">
        <ele>232.39999389648</ele>
        <time>2021-03-08T13:13:24.000Z</time>
      </trkpt>
      <trkpt lat="46.48734" lon="5.3581">
        <ele>231.60000610352</ele>
        <time>2021-03-08T13:13:26.000Z</time>
      </trkpt>
      <trkpt lat="46.48738" lon="5.358">
        <ele>231.19999694824</ele>
        <time>2021-03-08T13:13:27.000Z</time>
      </trkpt>
      <trkpt lat="46.48743" lon="5.3579">
        <ele>230.80000305176</ele>
        <time>2021-03-08T13:13:28.000Z</time>
      </trkpt>
      <trkpt lat="46.48751" lon="5.35771">
        <ele>230</ele>
        <time>2021-03-08T13:13:30.000Z</time>
      </trkpt>
      <trkpt lat="46.48759" lon="5.35751">
        <ele>229.80000305176</ele>
        <time>2021-03-08T13:13:32.000Z</time>
      </trkpt>
      <trkpt lat="46.48767" lon="5.35731">
        <ele>229.19999694824</ele>
        <time>2021-03-08T13:13:34.000Z</time>
      </trkpt>
      <trkpt lat="46.48771" lon="5.35722">
        <ele>229</ele>
        <time>2021-03-08T13:13:35.000Z</time>
      </trkpt>
      <trkpt lat="46.48775" lon="5.35713">
        <ele>229</ele>
        <time>2021-03-08T13:13:36.000Z</time>
      </trkpt>
      <trkpt lat="46.48783" lon="5.35695">
        <ele>228.80000305176</ele>
        <time>2021-03-08T13:13:38.000Z</time>
      </trkpt>
      <trkpt lat="46.4879" lon="5.35678">
        <ele>228.60000610352</ele>
        <time>2021-03-08T13:13:40.000Z</time>
      </trkpt>
      <trkpt lat="46.48794" lon="5.35669">
        <ele>228.60000610352</ele>
        <time>2021-03-08T13:13:41.000Z</time>
      </trkpt>
      <trkpt lat="46.48798" lon="5.35661">
        <ele>228.60000610352</ele>
        <time>2021-03-08T13:13:42.000Z</time>
      </trkpt>
      <trkpt lat="46.48805" lon="5.35644">
        <ele>228.60000610352</ele>
        <time>2021-03-08T13:13:44.000Z</time>
      </trkpt>
      <trkpt lat="46.48813" lon="5.35627">
        <ele>228.80000305176</ele>
        <time>2021-03-08T13:13:46.000Z</time>
      </trkpt>
      <trkpt lat="46.48821" lon="5.3561">
        <ele>229.19999694824</ele>
        <time>2021-03-08T13:13:48.000Z</time>
      </trkpt>
      <trkpt lat="46.48824" lon="5.35602">
        <ele>229.19999694824</ele>
        <time>2021-03-08T13:13:49.000Z</time>
      </trkpt>
      <trkpt lat="46.48827" lon="5.35593">
        <ele>229.39999389648</ele>
        <time>2021-03-08T13:13:50.000Z</time>
      </trkpt>
      <trkpt lat="46.48834" lon="5.35576">
        <ele>229.39999389648</ele>
        <time>2021-03-08T13:13:52.000Z</time>
      </trkpt>
      <trkpt lat="46.48841" lon="5.3556">
        <ele>229.39999389648</ele>
        <time>2021-03-08T13:13:54.000Z</time>
      </trkpt>
      <trkpt lat="46.48849" lon="5.35544">
        <ele>229.39999389648</ele>
        <time>2021-03-08T13:13:56.000Z</time>
      </trkpt>
      <trkpt lat="46.48856" lon="5.35528">
        <ele>229.39999389648</ele>
        <time>2021-03-08T13:13:58.000Z</time>
      </trkpt>
      <trkpt lat="46.48863" lon="5.35512">
        <ele>229.19999694824</ele>
        <time>2021-03-08T13:14:00.000Z</time>
      </trkpt>
      <trkpt lat="46.4887" lon="5.35495">
        <ele>229.19999694824</ele>
        <time>2021-03-08T13:14:02.000Z</time>
      </trkpt>
      <trkpt lat="46.48878" lon="5.35478">
        <ele>229.19999694824</ele>
        <time>2021-03-08T13:14:04.000Z</time>
      </trkpt>
      <trkpt lat="46.48881" lon="5.3547">
        <ele>229.19999694824</ele>
        <time>2021-03-08T13:14:05.000Z</time>
      </trkpt>
      <trkpt lat="46.48885" lon="5.35462">
        <ele>229.19999694824</ele>
        <time>2021-03-08T13:14:06.000Z</time>
      </trkpt>
      <trkpt lat="46.48893" lon="5.35445">
        <ele>229</ele>
        <time>2021-03-08T13:14:08.000Z</time>
      </trkpt>
      <trkpt lat="46.489" lon="5.35428">
        <ele>228.60000610352</ele>
        <time>2021-03-08T13:14:10.000Z</time>
      </trkpt>
      <trkpt lat="46.48907" lon="5.35411">
        <ele>228.19999694824</ele>
        <time>2021-03-08T13:14:12.000Z</time>
      </trkpt>
      <trkpt lat="46.48915" lon="5.35394">
        <ele>228</ele>
        <time>2021-03-08T13:14:14.000Z</time>
      </trkpt>
      <trkpt lat="46.48918" lon="5.35385">
        <ele>227.80000305176</ele>
        <time>2021-03-08T13:14:15.000Z</time>
      </trkpt>
      <trkpt lat="46.48922" lon="5.35376">
        <ele>227.80000305176</ele>
        <time>2021-03-08T13:14:16.000Z</time>
      </trkpt>
      <trkpt lat="46.4893" lon="5.35358">
        <ele>227.60000610352</ele>
        <time>2021-03-08T13:14:18.000Z</time>
      </trkpt>
      <trkpt lat="46.48937" lon="5.35341">
        <ele>227.39999389648</ele>
        <time>2021-03-08T13:14:20.000Z</time>
      </trkpt>
      <trkpt lat="46.48945" lon="5.35324">
        <ele>227</ele>
        <time>2021-03-08T13:14:22.000Z</time>
      </trkpt>
      <trkpt lat="46.48952" lon="5.35308">
        <ele>227</ele>
        <time>2021-03-08T13:14:24.000Z</time>
      </trkpt>
      <trkpt lat="46.48959" lon="5.35292">
        <ele>227</ele>
        <time>2021-03-08T13:14:26.000Z</time>
      </trkpt>
      <trkpt lat="46.48966" lon="5.35276">
        <ele>226.80000305176</ele>
        <time>2021-03-08T13:14:28.000Z</time>
      </trkpt>
      <trkpt lat="46.48972" lon="5.35262">
        <ele>227</ele>
        <time>2021-03-08T13:14:30.000Z</time>
      </trkpt>
      <trkpt lat="46.48975" lon="5.35255">
        <ele>227</ele>
        <time>2021-03-08T13:14:31.000Z</time>
      </trkpt>
      <trkpt lat="46.48978" lon="5.35247">
        <ele>227</ele>
        <time>2021-03-08T13:14:32.000Z</time>
      </trkpt>
      <trkpt lat="46.48984" lon="5.35232">
        <ele>227</ele>
        <time>2021-03-08T13:14:34.000Z</time>
      </trkpt>
      <trkpt lat="46.4899" lon="5.35216">
        <ele>227.19999694824</ele>
        <time>2021-03-08T13:14:36.000Z</time>
      </trkpt>
      <trkpt lat="46.48993" lon="5.35209">
        <ele>227.19999694824</ele>
        <time>2021-03-08T13:14:37.000Z</time>
      </trkpt>
      <trkpt lat="46.48996" lon="5.35202">
        <ele>227.19999694824</ele>
        <time>2021-03-08T13:14:38.000Z</time>
      </trkpt>
      <trkpt lat="46.49002" lon="5.35188">
        <ele>227.60000610352</ele>
        <time>2021-03-08T13:14:40.000Z</time>
      </trkpt>
      <trkpt lat="46.49007" lon="5.35174">
        <ele>228.39999389648</ele>
        <time>2021-03-08T13:14:42.000Z</time>
      </trkpt>
      <trkpt lat="46.49013" lon="5.3516">
        <ele>228.60000610352</ele>
        <time>2021-03-08T13:14:44.000Z</time>
      </trkpt>
      <trkpt lat="46.49016" lon="5.35154">
        <ele>228.80000305176</ele>
        <time>2021-03-08T13:14:45.000Z</time>
      </trkpt>
      <trkpt lat="46.49019" lon="5.35147">
        <ele>228.80000305176</ele>
        <time>2021-03-08T13:14:46.000Z</time>
      </trkpt>
      <trkpt lat="46.49026" lon="5.35133">
        <ele>229.19999694824</ele>
        <time>2021-03-08T13:14:48.000Z</time>
      </trkpt>
      <trkpt lat="46.49029" lon="5.35127">
        <ele>229.39999389648</ele>
        <time>2021-03-08T13:14:49.000Z</time>
      </trkpt>
      <trkpt lat="46.49033" lon="5.35121">
        <ele>229.19999694824</ele>
        <time>2021-03-08T13:14:50.000Z</time>
      </trkpt>
      <trkpt lat="46.49038" lon="5.35116">
        <ele>229.39999389648</ele>
        <time>2021-03-08T13:14:51.000Z</time>
      </trkpt>
      <trkpt lat="46.49043" lon="5.35111">
        <ele>229.60000610352</ele>
        <time>2021-03-08T13:14:52.000Z</time>
      </trkpt>
      <trkpt lat="46.49048" lon="5.35107">
        <ele>229.60000610352</ele>
        <time>2021-03-08T13:14:53.000Z</time>
      </trkpt>
      <trkpt lat="46.49053" lon="5.35103">
        <ele>229.80000305176</ele>
        <time>2021-03-08T13:14:54.000Z</time>
      </trkpt>
      <trkpt lat="46.49064" lon="5.35094">
        <ele>230</ele>
        <time>2021-03-08T13:14:56.000Z</time>
      </trkpt>
      <trkpt lat="46.49069" lon="5.3509">
        <ele>230</ele>
        <time>2021-03-08T13:14:57.000Z</time>
      </trkpt>
      <trkpt lat="46.49075" lon="5.35085">
        <ele>230</ele>
        <time>2021-03-08T13:14:58.000Z</time>
      </trkpt>
      <trkpt lat="46.49087" lon="5.35076">
        <ele>230</ele>
        <time>2021-03-08T13:15:00.000Z</time>
      </trkpt>
      <trkpt lat="46.49093" lon="5.35071">
        <ele>229.80000305176</ele>
        <time>2021-03-08T13:15:01.000Z</time>
      </trkpt>
      <trkpt lat="46.49099" lon="5.35066">
        <ele>229.80000305176</ele>
        <time>2021-03-08T13:15:02.000Z</time>
      </trkpt>
      <trkpt lat="46.49105" lon="5.3506">
        <ele>229.80000305176</ele>
        <time>2021-03-08T13:15:03.000Z</time>
      </trkpt>
      <trkpt lat="46.49111" lon="5.35055">
        <ele>229.60000610352</ele>
        <time>2021-03-08T13:15:04.000Z</time>
      </trkpt>
      <trkpt lat="46.49123" lon="5.35045">
        <ele>229.39999389648</ele>
        <time>2021-03-08T13:15:06.000Z</time>
      </trkpt>
      <trkpt lat="46.49135" lon="5.35035">
        <ele>229.19999694824</ele>
        <time>2021-03-08T13:15:08.000Z</time>
      </trkpt>
      <trkpt lat="46.49142" lon="5.35029">
        <ele>228.80000305176</ele>
        <time>2021-03-08T13:15:09.000Z</time>
      </trkpt>
      <trkpt lat="46.49148" lon="5.35024">
        <ele>228.39999389648</ele>
        <time>2021-03-08T13:15:10.000Z</time>
      </trkpt>
      <trkpt lat="46.49161" lon="5.35014">
        <ele>228</ele>
        <time>2021-03-08T13:15:12.000Z</time>
      </trkpt>
      <trkpt lat="46.49173" lon="5.35002">
        <ele>227.80000305176</ele>
        <time>2021-03-08T13:15:14.000Z</time>
      </trkpt>
      <trkpt lat="46.49185" lon="5.3499">
        <ele>227.60000610352</ele>
        <time>2021-03-08T13:15:16.000Z</time>
      </trkpt>
      <trkpt lat="46.4919" lon="5.34983">
        <ele>227.60000610352</ele>
        <time>2021-03-08T13:15:17.000Z</time>
      </trkpt>
      <trkpt lat="46.49195" lon="5.34975">
        <ele>227.60000610352</ele>
        <time>2021-03-08T13:15:18.000Z</time>
      </trkpt>
      <trkpt lat="46.49205" lon="5.34961">
        <ele>227.39999389648</ele>
        <time>2021-03-08T13:15:20.000Z</time>
      </trkpt>
      <trkpt lat="46.4921" lon="5.34953">
        <ele>227.39999389648</ele>
        <time>2021-03-08T13:15:21.000Z</time>
      </trkpt>
      <trkpt lat="46.49215" lon="5.34946">
        <ele>227.39999389648</ele>
        <time>2021-03-08T13:15:22.000Z</time>
      </trkpt>
      <trkpt lat="46.49225" lon="5.34931">
        <ele>227.39999389648</ele>
        <time>2021-03-08T13:15:24.000Z</time>
      </trkpt>
      <trkpt lat="46.49235" lon="5.34917">
        <ele>227.19999694824</ele>
        <time>2021-03-08T13:15:26.000Z</time>
      </trkpt>
      <trkpt lat="46.4924" lon="5.3491">
        <ele>227.19999694824</ele>
        <time>2021-03-08T13:15:27.000Z</time>
      </trkpt>
      <trkpt lat="46.49245" lon="5.34903">
        <ele>227.19999694824</ele>
        <time>2021-03-08T13:15:28.000Z</time>
      </trkpt>
      <trkpt lat="46.49253" lon="5.34888">
        <ele>227.19999694824</ele>
        <time>2021-03-08T13:15:30.000Z</time>
      </trkpt>
      <trkpt lat="46.49263" lon="5.34874">
        <ele>227</ele>
        <time>2021-03-08T13:15:32.000Z</time>
      </trkpt>
      <trkpt lat="46.49274" lon="5.34862">
        <ele>226.80000305176</ele>
        <time>2021-03-08T13:15:34.000Z</time>
      </trkpt>
      <trkpt lat="46.49286" lon="5.34853">
        <ele>226.80000305176</ele>
        <time>2021-03-08T13:15:36.000Z</time>
      </trkpt>
      <trkpt lat="46.49292" lon="5.34849">
        <ele>226.60000610352</ele>
        <time>2021-03-08T13:15:37.000Z</time>
      </trkpt>
      <trkpt lat="46.49299" lon="5.34847">
        <ele>226.60000610352</ele>
        <time>2021-03-08T13:15:38.000Z</time>
      </trkpt>
      <trkpt lat="46.49306" lon="5.34844">
        <ele>226.60000610352</ele>
        <time>2021-03-08T13:15:39.000Z</time>
      </trkpt>
      <trkpt lat="46.49312" lon="5.34842">
        <ele>226.39999389648</ele>
        <time>2021-03-08T13:15:40.000Z</time>
      </trkpt>
      <trkpt lat="46.49326" lon="5.3484">
        <ele>226.39999389648</ele>
        <time>2021-03-08T13:15:42.000Z</time>
      </trkpt>
      <trkpt lat="46.49332" lon="5.34838">
        <ele>226.39999389648</ele>
        <time>2021-03-08T13:15:43.000Z</time>
      </trkpt>
      <trkpt lat="46.49339" lon="5.34837">
        <ele>226.39999389648</ele>
        <time>2021-03-08T13:15:44.000Z</time>
      </trkpt>
      <trkpt lat="46.49352" lon="5.34835">
        <ele>226.39999389648</ele>
        <time>2021-03-08T13:15:46.000Z</time>
      </trkpt>
      <trkpt lat="46.49364" lon="5.34833">
        <ele>226.39999389648</ele>
        <time>2021-03-08T13:15:48.000Z</time>
      </trkpt>
      <trkpt lat="46.49371" lon="5.34832">
        <ele>226.39999389648</ele>
        <time>2021-03-08T13:15:49.000Z</time>
      </trkpt>
      <trkpt lat="46.49377" lon="5.3483">
        <ele>226.19999694824</ele>
        <time>2021-03-08T13:15:50.000Z</time>
      </trkpt>
      <trkpt lat="46.49389" lon="5.34825">
        <ele>226.39999389648</ele>
        <time>2021-03-08T13:15:52.000Z</time>
      </trkpt>
      <trkpt lat="46.49401" lon="5.34819">
        <ele>226.80000305176</ele>
        <time>2021-03-08T13:15:54.000Z</time>
      </trkpt>
      <trkpt lat="46.49413" lon="5.34811">
        <ele>227</ele>
        <time>2021-03-08T13:15:56.000Z</time>
      </trkpt>
      <trkpt lat="46.49424" lon="5.34803">
        <ele>227.19999694824</ele>
        <time>2021-03-08T13:15:58.000Z</time>
      </trkpt>
      <trkpt lat="46.49436" lon="5.34791">
        <ele>227.19999694824</ele>
        <time>2021-03-08T13:16:00.000Z</time>
      </trkpt>
      <trkpt lat="46.49448" lon="5.34779">
        <ele>227.19999694824</ele>
        <time>2021-03-08T13:16:02.000Z</time>
      </trkpt>
      <trkpt lat="46.49461" lon="5.34767">
        <ele>227.19999694824</ele>
        <time>2021-03-08T13:16:04.000Z</time>
      </trkpt>
      <trkpt lat="46.49475" lon="5.34754">
        <ele>226.80000305176</ele>
        <time>2021-03-08T13:16:06.000Z</time>
      </trkpt>
      <trkpt lat="46.49482" lon="5.34746">
        <ele>226.39999389648</ele>
        <time>2021-03-08T13:16:07.000Z</time>
      </trkpt>
      <trkpt lat="46.49489" lon="5.34738">
        <ele>226</ele>
        <time>2021-03-08T13:16:08.000Z</time>
      </trkpt>
      <trkpt lat="46.49504" lon="5.34721">
        <ele>225.39999389648</ele>
        <time>2021-03-08T13:16:10.000Z</time>
      </trkpt>
      <trkpt lat="46.49511" lon="5.34712">
        <ele>225</ele>
        <time>2021-03-08T13:16:11.000Z</time>
      </trkpt>
      <trkpt lat="46.49519" lon="5.34703">
        <ele>224.39999389648</ele>
        <time>2021-03-08T13:16:12.000Z</time>
      </trkpt>
      <trkpt lat="46.49526" lon="5.34694">
        <ele>223.80000305176</ele>
        <time>2021-03-08T13:16:13.000Z</time>
      </trkpt>
      <trkpt lat="46.49533" lon="5.34686">
        <ele>223.19999694824</ele>
        <time>2021-03-08T13:16:14.000Z</time>
      </trkpt>
      <trkpt lat="46.49541" lon="5.34677">
        <ele>222.39999389648</ele>
        <time>2021-03-08T13:16:15.000Z</time>
      </trkpt>
      <trkpt lat="46.49548" lon="5.34668">
        <ele>221.60000610352</ele>
        <time>2021-03-08T13:16:16.000Z</time>
      </trkpt>
      <trkpt lat="46.49555" lon="5.34658">
        <ele>220.80000305176</ele>
        <time>2021-03-08T13:16:17.000Z</time>
      </trkpt>
      <trkpt lat="46.49563" lon="5.34649">
        <ele>219.80000305176</ele>
        <time>2021-03-08T13:16:18.000Z</time>
      </trkpt>
      <trkpt lat="46.49571" lon="5.3464">
        <ele>219</ele>
        <time>2021-03-08T13:16:19.000Z</time>
      </trkpt>
      <trkpt lat="46.49578" lon="5.3463">
        <ele>218.60000610352</ele>
        <time>2021-03-08T13:16:20.000Z</time>
      </trkpt>
      <trkpt lat="46.49585" lon="5.34621">
        <ele>217.80000305176</ele>
        <time>2021-03-08T13:16:21.000Z</time>
      </trkpt>
      <trkpt lat="46.49592" lon="5.3461">
        <ele>217.39999389648</ele>
        <time>2021-03-08T13:16:22.000Z</time>
      </trkpt>
      <trkpt lat="46.49604" lon="5.34591">
        <ele>217</ele>
        <time>2021-03-08T13:16:24.000Z</time>
      </trkpt>
      <trkpt lat="46.4961" lon="5.34581">
        <ele>216.60000610352</ele>
        <time>2021-03-08T13:16:25.000Z</time>
      </trkpt>
      <trkpt lat="46.49616" lon="5.34572">
        <ele>216</ele>
        <time>2021-03-08T13:16:26.000Z</time>
      </trkpt>
      <trkpt lat="46.49622" lon="5.34564">
        <ele>215.39999389648</ele>
        <time>2021-03-08T13:16:27.000Z</time>
      </trkpt>
      <trkpt lat="46.49628" lon="5.34557">
        <ele>215</ele>
        <time>2021-03-08T13:16:28.000Z</time>
      </trkpt>
      <trkpt lat="46.49635" lon="5.34552">
        <ele>214.80000305176</ele>
        <time>2021-03-08T13:16:29.000Z</time>
      </trkpt>
      <trkpt lat="46.4964" lon="5.34548">
        <ele>214.80000305176</ele>
        <time>2021-03-08T13:16:30.000Z</time>
      </trkpt>
      <trkpt lat="46.49648" lon="5.3454">
        <ele>214.80000305176</ele>
        <time>2021-03-08T13:16:32.000Z</time>
      </trkpt>
      <trkpt lat="46.49655" lon="5.34529">
        <ele>214.80000305176</ele>
        <time>2021-03-08T13:16:34.000Z</time>
      </trkpt>
      <trkpt lat="46.49657" lon="5.34522">
        <ele>214.80000305176</ele>
        <time>2021-03-08T13:16:35.000Z</time>
      </trkpt>
      <trkpt lat="46.49659" lon="5.34514">
        <ele>214.80000305176</ele>
        <time>2021-03-08T13:16:36.000Z</time>
      </trkpt>
      <trkpt lat="46.49663" lon="5.34499">
        <ele>215</ele>
        <time>2021-03-08T13:16:38.000Z</time>
      </trkpt>
      <trkpt lat="46.49668" lon="5.34483">
        <ele>215.39999389648</ele>
        <time>2021-03-08T13:16:40.000Z</time>
      </trkpt>
      <trkpt lat="46.49671" lon="5.34468">
        <ele>215.60000610352</ele>
        <time>2021-03-08T13:16:42.000Z</time>
      </trkpt>
      <trkpt lat="46.49676" lon="5.34454">
        <ele>216</ele>
        <time>2021-03-08T13:16:44.000Z</time>
      </trkpt>
      <trkpt lat="46.4968" lon="5.34438">
        <ele>216.19999694824</ele>
        <time>2021-03-08T13:16:46.000Z</time>
      </trkpt>
      <trkpt lat="46.49684" lon="5.34423">
        <ele>216.39999389648</ele>
        <time>2021-03-08T13:16:48.000Z</time>
      </trkpt>
      <trkpt lat="46.49688" lon="5.34408">
        <ele>216.60000610352</ele>
        <time>2021-03-08T13:16:50.000Z</time>
      </trkpt>
      <trkpt lat="46.4969" lon="5.34401">
        <ele>216.60000610352</ele>
        <time>2021-03-08T13:16:51.000Z</time>
      </trkpt>
      <trkpt lat="46.49691" lon="5.34393">
        <ele>216.60000610352</ele>
        <time>2021-03-08T13:16:52.000Z</time>
      </trkpt>
      <trkpt lat="46.49695" lon="5.34379">
        <ele>216.60000610352</ele>
        <time>2021-03-08T13:16:54.000Z</time>
      </trkpt>
      <trkpt lat="46.49698" lon="5.34366">
        <ele>217.19999694824</ele>
        <time>2021-03-08T13:16:56.000Z</time>
      </trkpt>
      <trkpt lat="46.49702" lon="5.34353">
        <ele>218.19999694824</ele>
        <time>2021-03-08T13:16:58.000Z</time>
      </trkpt>
      <trkpt lat="46.49704" lon="5.34346">
        <ele>218.60000610352</ele>
        <time>2021-03-08T13:16:59.000Z</time>
      </trkpt>
      <trkpt lat="46.49706" lon="5.3434">
        <ele>218.80000305176</ele>
        <time>2021-03-08T13:17:00.000Z</time>
      </trkpt>
      <trkpt lat="46.49711" lon="5.34327">
        <ele>219.39999389648</ele>
        <time>2021-03-08T13:17:02.000Z</time>
      </trkpt>
      <trkpt lat="46.49713" lon="5.34321">
        <ele>219.60000610352</ele>
        <time>2021-03-08T13:17:03.000Z</time>
      </trkpt>
      <trkpt lat="46.49716" lon="5.34313">
        <ele>219.80000305176</ele>
        <time>2021-03-08T13:17:04.000Z</time>
      </trkpt>
      <trkpt lat="46.49723" lon="5.343">
        <ele>219.80000305176</ele>
        <time>2021-03-08T13:17:06.000Z</time>
      </trkpt>
      <trkpt lat="46.4973" lon="5.34287">
        <ele>220</ele>
        <time>2021-03-08T13:17:08.000Z</time>
      </trkpt>
      <trkpt lat="46.49737" lon="5.34273">
        <ele>220</ele>
        <time>2021-03-08T13:17:10.000Z</time>
      </trkpt>
      <trkpt lat="46.49745" lon="5.3426">
        <ele>220</ele>
        <time>2021-03-08T13:17:12.000Z</time>
      </trkpt>
      <trkpt lat="46.49752" lon="5.34247">
        <ele>220</ele>
        <time>2021-03-08T13:17:14.000Z</time>
      </trkpt>
      <trkpt lat="46.4976" lon="5.34234">
        <ele>220.19999694824</ele>
        <time>2021-03-08T13:17:16.000Z</time>
      </trkpt>
      <trkpt lat="46.49768" lon="5.34221">
        <ele>220.19999694824</ele>
        <time>2021-03-08T13:17:18.000Z</time>
      </trkpt>
      <trkpt lat="46.49775" lon="5.34208">
        <ele>220.19999694824</ele>
        <time>2021-03-08T13:17:20.000Z</time>
      </trkpt>
      <trkpt lat="46.49783" lon="5.34196">
        <ele>220.19999694824</ele>
        <time>2021-03-08T13:17:22.000Z</time>
      </trkpt>
      <trkpt lat="46.49791" lon="5.34185">
        <ele>220.60000610352</ele>
        <time>2021-03-08T13:17:24.000Z</time>
      </trkpt>
      <trkpt lat="46.49795" lon="5.34179">
        <ele>220.60000610352</ele>
        <time>2021-03-08T13:17:25.000Z</time>
      </trkpt>
      <trkpt lat="46.49798" lon="5.34172">
        <ele>220.80000305176</ele>
        <time>2021-03-08T13:17:26.000Z</time>
      </trkpt>
      <trkpt lat="46.49806" lon="5.34159">
        <ele>220.80000305176</ele>
        <time>2021-03-08T13:17:28.000Z</time>
      </trkpt>
      <trkpt lat="46.49813" lon="5.34146">
        <ele>220.80000305176</ele>
        <time>2021-03-08T13:17:30.000Z</time>
      </trkpt>
      <trkpt lat="46.49822" lon="5.34133">
        <ele>220.80000305176</ele>
        <time>2021-03-08T13:17:32.000Z</time>
      </trkpt>
      <trkpt lat="46.4983" lon="5.3412">
        <ele>220.80000305176</ele>
        <time>2021-03-08T13:17:34.000Z</time>
      </trkpt>
      <trkpt lat="46.49838" lon="5.34107">
        <ele>220.80000305176</ele>
        <time>2021-03-08T13:17:36.000Z</time>
      </trkpt>
      <trkpt lat="46.49842" lon="5.341">
        <ele>220.80000305176</ele>
        <time>2021-03-08T13:17:37.000Z</time>
      </trkpt>
      <trkpt lat="46.49847" lon="5.34094">
        <ele>220.80000305176</ele>
        <time>2021-03-08T13:17:38.000Z</time>
      </trkpt>
      <trkpt lat="46.49856" lon="5.3408">
        <ele>220.80000305176</ele>
        <time>2021-03-08T13:17:40.000Z</time>
      </trkpt>
      <trkpt lat="46.49867" lon="5.34066">
        <ele>220.60000610352</ele>
        <time>2021-03-08T13:17:42.000Z</time>
      </trkpt>
      <trkpt lat="46.49877" lon="5.34053">
        <ele>220</ele>
        <time>2021-03-08T13:17:44.000Z</time>
      </trkpt>
      <trkpt lat="46.49888" lon="5.34041">
        <ele>220</ele>
        <time>2021-03-08T13:17:46.000Z</time>
      </trkpt>
      <trkpt lat="46.49898" lon="5.3403">
        <ele>220</ele>
        <time>2021-03-08T13:17:48.000Z</time>
      </trkpt>
      <trkpt lat="46.49907" lon="5.3402">
        <ele>220</ele>
        <time>2021-03-08T13:17:50.000Z</time>
      </trkpt>
      <trkpt lat="46.49911" lon="5.34015">
        <ele>220</ele>
        <time>2021-03-08T13:17:51.000Z</time>
      </trkpt>
      <trkpt lat="46.49916" lon="5.3401">
        <ele>220</ele>
        <time>2021-03-08T13:17:52.000Z</time>
      </trkpt>
      <trkpt lat="46.4992" lon="5.34006">
        <ele>220</ele>
        <time>2021-03-08T13:17:53.000Z</time>
      </trkpt>
      <trkpt lat="46.49925" lon="5.34002">
        <ele>220.19999694824</ele>
        <time>2021-03-08T13:17:54.000Z</time>
      </trkpt>
      <trkpt lat="46.49933" lon="5.33992">
        <ele>220.19999694824</ele>
        <time>2021-03-08T13:17:56.000Z</time>
      </trkpt>
      <trkpt lat="46.49937" lon="5.33988">
        <ele>220.19999694824</ele>
        <time>2021-03-08T13:17:57.000Z</time>
      </trkpt>
      <trkpt lat="46.49941" lon="5.33984">
        <ele>220.39999389648</ele>
        <time>2021-03-08T13:17:58.000Z</time>
      </trkpt>
      <trkpt lat="46.4995" lon="5.33975">
        <ele>221</ele>
        <time>2021-03-08T13:18:00.000Z</time>
      </trkpt>
      <trkpt lat="46.49958" lon="5.33967">
        <ele>221.60000610352</ele>
        <time>2021-03-08T13:18:02.000Z</time>
      </trkpt>
      <trkpt lat="46.49965" lon="5.33961">
        <ele>222.19999694824</ele>
        <time>2021-03-08T13:18:04.000Z</time>
      </trkpt>
      <trkpt lat="46.49974" lon="5.33952">
        <ele>222.60000610352</ele>
        <time>2021-03-08T13:18:06.000Z</time>
      </trkpt>
      <trkpt lat="46.49978" lon="5.33948">
        <ele>222.80000305176</ele>
        <time>2021-03-08T13:18:07.000Z</time>
      </trkpt>
      <trkpt lat="46.49982" lon="5.33944">
        <ele>222.80000305176</ele>
        <time>2021-03-08T13:18:08.000Z</time>
      </trkpt>
      <trkpt lat="46.49991" lon="5.33935">
        <ele>222.80000305176</ele>
        <time>2021-03-08T13:18:10.000Z</time>
      </trkpt>
      <trkpt lat="46.50001" lon="5.33924">
        <ele>222.80000305176</ele>
        <time>2021-03-08T13:18:12.000Z</time>
      </trkpt>
      <trkpt lat="46.5001" lon="5.33914">
        <ele>222.80000305176</ele>
        <time>2021-03-08T13:18:14.000Z</time>
      </trkpt>
      <trkpt lat="46.50019" lon="5.33903">
        <ele>222.80000305176</ele>
        <time>2021-03-08T13:18:16.000Z</time>
      </trkpt>
      <trkpt lat="46.50029" lon="5.33892">
        <ele>222.60000610352</ele>
        <time>2021-03-08T13:18:18.000Z</time>
      </trkpt>
      <trkpt lat="46.50039" lon="5.33881">
        <ele>222.60000610352</ele>
        <time>2021-03-08T13:18:20.000Z</time>
      </trkpt>
      <trkpt lat="46.5005" lon="5.33869">
        <ele>222.60000610352</ele>
        <time>2021-03-08T13:18:22.000Z</time>
      </trkpt>
      <trkpt lat="46.50062" lon="5.33856">
        <ele>222.60000610352</ele>
        <time>2021-03-08T13:18:24.000Z</time>
      </trkpt>
      <trkpt lat="46.50069" lon="5.33849">
        <ele>222.39999389648</ele>
        <time>2021-03-08T13:18:25.000Z</time>
      </trkpt>
      <trkpt lat="46.50075" lon="5.33842">
        <ele>222.39999389648</ele>
        <time>2021-03-08T13:18:26.000Z</time>
      </trkpt>
      <trkpt lat="46.50088" lon="5.33829">
        <ele>222.39999389648</ele>
        <time>2021-03-08T13:18:28.000Z</time>
      </trkpt>
      <trkpt lat="46.501" lon="5.33815">
        <ele>222.19999694824</ele>
        <time>2021-03-08T13:18:30.000Z</time>
      </trkpt>
      <trkpt lat="46.50112" lon="5.33802">
        <ele>221.80000305176</ele>
        <time>2021-03-08T13:18:32.000Z</time>
      </trkpt>
      <trkpt lat="46.50119" lon="5.33795">
        <ele>221.39999389648</ele>
        <time>2021-03-08T13:18:33.000Z</time>
      </trkpt>
      <trkpt lat="46.50125" lon="5.33789">
        <ele>221</ele>
        <time>2021-03-08T13:18:34.000Z</time>
      </trkpt>
      <trkpt lat="46.50131" lon="5.33782">
        <ele>220.39999389648</ele>
        <time>2021-03-08T13:18:35.000Z</time>
      </trkpt>
      <trkpt lat="46.50137" lon="5.33776">
        <ele>220.39999389648</ele>
        <time>2021-03-08T13:18:36.000Z</time>
      </trkpt>
      <trkpt lat="46.50148" lon="5.33764">
        <ele>220.19999694824</ele>
        <time>2021-03-08T13:18:38.000Z</time>
      </trkpt>
      <trkpt lat="46.5016" lon="5.33753">
        <ele>220.19999694824</ele>
        <time>2021-03-08T13:18:40.000Z</time>
      </trkpt>
      <trkpt lat="46.50171" lon="5.33743">
        <ele>220.19999694824</ele>
        <time>2021-03-08T13:18:42.000Z</time>
      </trkpt>
      <trkpt lat="46.50181" lon="5.33732">
        <ele>220.19999694824</ele>
        <time>2021-03-08T13:18:44.000Z</time>
      </trkpt>
      <trkpt lat="46.50191" lon="5.33721">
        <ele>220.39999389648</ele>
        <time>2021-03-08T13:18:46.000Z</time>
      </trkpt>
      <trkpt lat="46.50201" lon="5.33709">
        <ele>220.60000610352</ele>
        <time>2021-03-08T13:18:48.000Z</time>
      </trkpt>
      <trkpt lat="46.50211" lon="5.33697">
        <ele>220.60000610352</ele>
        <time>2021-03-08T13:18:50.000Z</time>
      </trkpt>
      <trkpt lat="46.50221" lon="5.33685">
        <ele>220.80000305176</ele>
        <time>2021-03-08T13:18:52.000Z</time>
      </trkpt>
      <trkpt lat="46.50231" lon="5.33673">
        <ele>220.80000305176</ele>
        <time>2021-03-08T13:18:54.000Z</time>
      </trkpt>
      <trkpt lat="46.50242" lon="5.3366">
        <ele>220.80000305176</ele>
        <time>2021-03-08T13:18:56.000Z</time>
      </trkpt>
      <trkpt lat="46.50253" lon="5.33648">
        <ele>220.80000305176</ele>
        <time>2021-03-08T13:18:58.000Z</time>
      </trkpt>
      <trkpt lat="46.50265" lon="5.33635">
        <ele>220.80000305176</ele>
        <time>2021-03-08T13:19:00.000Z</time>
      </trkpt>
      <trkpt lat="46.50277" lon="5.33623">
        <ele>220.80000305176</ele>
        <time>2021-03-08T13:19:02.000Z</time>
      </trkpt>
      <trkpt lat="46.50289" lon="5.3361">
        <ele>220.39999389648</ele>
        <time>2021-03-08T13:19:04.000Z</time>
      </trkpt>
      <trkpt lat="46.50301" lon="5.33598">
        <ele>220.19999694824</ele>
        <time>2021-03-08T13:19:06.000Z</time>
      </trkpt>
      <trkpt lat="46.50312" lon="5.33585">
        <ele>219.80000305176</ele>
        <time>2021-03-08T13:19:08.000Z</time>
      </trkpt>
      <trkpt lat="46.50318" lon="5.33578">
        <ele>219.80000305176</ele>
        <time>2021-03-08T13:19:09.000Z</time>
      </trkpt>
      <trkpt lat="46.50323" lon="5.33572">
        <ele>219.60000610352</ele>
        <time>2021-03-08T13:19:10.000Z</time>
      </trkpt>
      <trkpt lat="46.50329" lon="5.33565">
        <ele>219.39999389648</ele>
        <time>2021-03-08T13:19:11.000Z</time>
      </trkpt>
      <trkpt lat="46.50335" lon="5.33559">
        <ele>219.39999389648</ele>
        <time>2021-03-08T13:19:12.000Z</time>
      </trkpt>
      <trkpt lat="46.50346" lon="5.33547">
        <ele>219.19999694824</ele>
        <time>2021-03-08T13:19:14.000Z</time>
      </trkpt>
      <trkpt lat="46.50358" lon="5.33536">
        <ele>219</ele>
        <time>2021-03-08T13:19:16.000Z</time>
      </trkpt>
      <trkpt lat="46.5037" lon="5.33525">
        <ele>219</ele>
        <time>2021-03-08T13:19:18.000Z</time>
      </trkpt>
      <trkpt lat="46.50381" lon="5.33513">
        <ele>219</ele>
        <time>2021-03-08T13:19:20.000Z</time>
      </trkpt>
      <trkpt lat="46.50392" lon="5.335">
        <ele>219</ele>
        <time>2021-03-08T13:19:22.000Z</time>
      </trkpt>
      <trkpt lat="46.50404" lon="5.33488">
        <ele>218.80000305176</ele>
        <time>2021-03-08T13:19:24.000Z</time>
      </trkpt>
      <trkpt lat="46.50416" lon="5.33475">
        <ele>218.80000305176</ele>
        <time>2021-03-08T13:19:26.000Z</time>
      </trkpt>
      <trkpt lat="46.50422" lon="5.33469">
        <ele>218.60000610352</ele>
        <time>2021-03-08T13:19:27.000Z</time>
      </trkpt>
      <trkpt lat="46.50428" lon="5.33462">
        <ele>218.39999389648</ele>
        <time>2021-03-08T13:19:28.000Z</time>
      </trkpt>
      <trkpt lat="46.50439" lon="5.33445">
        <ele>218.39999389648</ele>
        <time>2021-03-08T13:19:30.000Z</time>
      </trkpt>
      <trkpt lat="46.5045" lon="5.33426">
        <ele>218.19999694824</ele>
        <time>2021-03-08T13:19:32.000Z</time>
      </trkpt>
      <trkpt lat="46.50455" lon="5.33416">
        <ele>218</ele>
        <time>2021-03-08T13:19:33.000Z</time>
      </trkpt>
      <trkpt lat="46.50459" lon="5.33406">
        <ele>217.80000305176</ele>
        <time>2021-03-08T13:19:34.000Z</time>
      </trkpt>
      <trkpt lat="46.50461" lon="5.33396">
        <ele>217.80000305176</ele>
        <time>2021-03-08T13:19:35.000Z</time>
      </trkpt>
      <trkpt lat="46.50464" lon="5.33385">
        <ele>217.60000610352</ele>
        <time>2021-03-08T13:19:36.000Z</time>
      </trkpt>
      <trkpt lat="46.50466" lon="5.33364">
        <ele>217.19999694824</ele>
        <time>2021-03-08T13:19:38.000Z</time>
      </trkpt>
      <trkpt lat="46.50467" lon="5.33353">
        <ele>217.19999694824</ele>
        <time>2021-03-08T13:19:39.000Z</time>
      </trkpt>
      <trkpt lat="46.50468" lon="5.33343">
        <ele>217</ele>
        <time>2021-03-08T13:19:40.000Z</time>
      </trkpt>
      <trkpt lat="46.50469" lon="5.33332">
        <ele>217</ele>
        <time>2021-03-08T13:19:41.000Z</time>
      </trkpt>
      <trkpt lat="46.50469" lon="5.33322">
        <ele>217</ele>
        <time>2021-03-08T13:19:42.000Z</time>
      </trkpt>
      <trkpt lat="46.5047" lon="5.33301">
        <ele>217</ele>
        <time>2021-03-08T13:19:44.000Z</time>
      </trkpt>
      <trkpt lat="46.5047" lon="5.33281">
        <ele>217</ele>
        <time>2021-03-08T13:19:46.000Z</time>
      </trkpt>
      <trkpt lat="46.50471" lon="5.33271">
        <ele>217</ele>
        <time>2021-03-08T13:19:47.000Z</time>
      </trkpt>
      <trkpt lat="46.50471" lon="5.33261">
        <ele>217.19999694824</ele>
        <time>2021-03-08T13:19:48.000Z</time>
      </trkpt>
      <trkpt lat="46.50472" lon="5.33242">
        <ele>217.19999694824</ele>
        <time>2021-03-08T13:19:50.000Z</time>
      </trkpt>
      <trkpt lat="46.50472" lon="5.33222">
        <ele>217.19999694824</ele>
        <time>2021-03-08T13:19:52.000Z</time>
      </trkpt>
      <trkpt lat="46.50472" lon="5.33201">
        <ele>217.19999694824</ele>
        <time>2021-03-08T13:19:54.000Z</time>
      </trkpt>
      <trkpt lat="46.50472" lon="5.33179">
        <ele>217.19999694824</ele>
        <time>2021-03-08T13:19:56.000Z</time>
      </trkpt>
      <trkpt lat="46.50471" lon="5.33158">
        <ele>217.19999694824</ele>
        <time>2021-03-08T13:19:58.000Z</time>
      </trkpt>
      <trkpt lat="46.50471" lon="5.33136">
        <ele>217.19999694824</ele>
        <time>2021-03-08T13:20:00.000Z</time>
      </trkpt>
      <trkpt lat="46.50471" lon="5.33112">
        <ele>217.19999694824</ele>
        <time>2021-03-08T13:20:02.000Z</time>
      </trkpt>
      <trkpt lat="46.50471" lon="5.33088">
        <ele>217</ele>
        <time>2021-03-08T13:20:04.000Z</time>
      </trkpt>
      <trkpt lat="46.50471" lon="5.33061">
        <ele>216.80000305176</ele>
        <time>2021-03-08T13:20:06.000Z</time>
      </trkpt>
      <trkpt lat="46.50472" lon="5.33035">
        <ele>215.80000305176</ele>
        <time>2021-03-08T13:20:08.000Z</time>
      </trkpt>
      <trkpt lat="46.50473" lon="5.33006">
        <ele>215.39999389648</ele>
        <time>2021-03-08T13:20:10.000Z</time>
      </trkpt>
      <trkpt lat="46.50473" lon="5.32992">
        <ele>215</ele>
        <time>2021-03-08T13:20:11.000Z</time>
      </trkpt>
      <trkpt lat="46.50473" lon="5.32976">
        <ele>214</ele>
        <time>2021-03-08T13:20:12.000Z</time>
      </trkpt>
      <trkpt lat="46.50474" lon="5.32946">
        <ele>212.80000305176</ele>
        <time>2021-03-08T13:20:14.000Z</time>
      </trkpt>
      <trkpt lat="46.50474" lon="5.32917">
        <ele>212</ele>
        <time>2021-03-08T13:20:16.000Z</time>
      </trkpt>
      <trkpt lat="46.50474" lon="5.32902">
        <ele>211.60000610352</ele>
        <time>2021-03-08T13:20:17.000Z</time>
      </trkpt>
      <trkpt lat="46.50474" lon="5.32887">
        <ele>211</ele>
        <time>2021-03-08T13:20:18.000Z</time>
      </trkpt>
      <trkpt lat="46.50475" lon="5.32872">
        <ele>210.39999389648</ele>
        <time>2021-03-08T13:20:19.000Z</time>
      </trkpt>
      <trkpt lat="46.50475" lon="5.32857">
        <ele>209.80000305176</ele>
        <time>2021-03-08T13:20:20.000Z</time>
      </trkpt>
      <trkpt lat="46.50475" lon="5.32828">
        <ele>208.80000305176</ele>
        <time>2021-03-08T13:20:22.000Z</time>
      </trkpt>
      <trkpt lat="46.50476" lon="5.328">
        <ele>207.19999694824</ele>
        <time>2021-03-08T13:20:24.000Z</time>
      </trkpt>
      <trkpt lat="46.50476" lon="5.32772">
        <ele>205.80000305176</ele>
        <time>2021-03-08T13:20:26.000Z</time>
      </trkpt>
      <trkpt lat="46.50476" lon="5.32745">
        <ele>204.60000610352</ele>
        <time>2021-03-08T13:20:28.000Z</time>
      </trkpt>
      <trkpt lat="46.50477" lon="5.32732">
        <ele>204.39999389648</ele>
        <time>2021-03-08T13:20:29.000Z</time>
      </trkpt>
      <trkpt lat="46.50477" lon="5.32719">
        <ele>204</ele>
        <time>2021-03-08T13:20:30.000Z</time>
      </trkpt>
      <trkpt lat="46.50477" lon="5.32693">
        <ele>203.60000610352</ele>
        <time>2021-03-08T13:20:32.000Z</time>
      </trkpt>
      <trkpt lat="46.50478" lon="5.32668">
        <ele>203.39999389648</ele>
        <time>2021-03-08T13:20:34.000Z</time>
      </trkpt>
      <trkpt lat="46.50478" lon="5.32643">
        <ele>203.39999389648</ele>
        <time>2021-03-08T13:20:36.000Z</time>
      </trkpt>
      <trkpt lat="46.50478" lon="5.3262">
        <ele>203.19999694824</ele>
        <time>2021-03-08T13:20:38.000Z</time>
      </trkpt>
      <trkpt lat="46.50477" lon="5.32595">
        <ele>202.60000610352</ele>
        <time>2021-03-08T13:20:40.000Z</time>
      </trkpt>
      <trkpt lat="46.50477" lon="5.32583">
        <ele>202.39999389648</ele>
        <time>2021-03-08T13:20:41.000Z</time>
      </trkpt>
      <trkpt lat="46.50477" lon="5.32571">
        <ele>202.39999389648</ele>
        <time>2021-03-08T13:20:42.000Z</time>
      </trkpt>
      <trkpt lat="46.50476" lon="5.32546">
        <ele>202.19999694824</ele>
        <time>2021-03-08T13:20:44.000Z</time>
      </trkpt>
      <trkpt lat="46.50474" lon="5.32521">
        <ele>202</ele>
        <time>2021-03-08T13:20:46.000Z</time>
      </trkpt>
      <trkpt lat="46.50473" lon="5.32497">
        <ele>201.80000305176</ele>
        <time>2021-03-08T13:20:48.000Z</time>
      </trkpt>
      <trkpt lat="46.50471" lon="5.32473">
        <ele>201.80000305176</ele>
        <time>2021-03-08T13:20:50.000Z</time>
      </trkpt>
      <trkpt lat="46.50469" lon="5.3245">
        <ele>201.39999389648</ele>
        <time>2021-03-08T13:20:52.000Z</time>
      </trkpt>
      <trkpt lat="46.50465" lon="5.32426">
        <ele>201.19999694824</ele>
        <time>2021-03-08T13:20:54.000Z</time>
      </trkpt>
      <trkpt lat="46.50463" lon="5.32414">
        <ele>201</ele>
        <time>2021-03-08T13:20:55.000Z</time>
      </trkpt>
      <trkpt lat="46.50461" lon="5.32402">
        <ele>201</ele>
        <time>2021-03-08T13:20:56.000Z</time>
      </trkpt>
      <trkpt lat="46.50456" lon="5.32379">
        <ele>200.80000305176</ele>
        <time>2021-03-08T13:20:58.000Z</time>
      </trkpt>
      <trkpt lat="46.50451" lon="5.32357">
        <ele>200.80000305176</ele>
        <time>2021-03-08T13:21:00.000Z</time>
      </trkpt>
      <trkpt lat="46.50446" lon="5.32335">
        <ele>200.60000610352</ele>
        <time>2021-03-08T13:21:02.000Z</time>
      </trkpt>
      <trkpt lat="46.50441" lon="5.32314">
        <ele>200.60000610352</ele>
        <time>2021-03-08T13:21:04.000Z</time>
      </trkpt>
      <trkpt lat="46.50438" lon="5.32294">
        <ele>200.80000305176</ele>
        <time>2021-03-08T13:21:06.000Z</time>
      </trkpt>
      <trkpt lat="46.50435" lon="5.32273">
        <ele>200.80000305176</ele>
        <time>2021-03-08T13:21:08.000Z</time>
      </trkpt>
      <trkpt lat="46.50433" lon="5.32252">
        <ele>200.60000610352</ele>
        <time>2021-03-08T13:21:10.000Z</time>
      </trkpt>
      <trkpt lat="46.50432" lon="5.32242">
        <ele>200.60000610352</ele>
        <time>2021-03-08T13:21:11.000Z</time>
      </trkpt>
      <trkpt lat="46.50432" lon="5.32231">
        <ele>200.39999389648</ele>
        <time>2021-03-08T13:21:12.000Z</time>
      </trkpt>
      <trkpt lat="46.50432" lon="5.32211">
        <ele>200.60000610352</ele>
        <time>2021-03-08T13:21:14.000Z</time>
      </trkpt>
      <trkpt lat="46.50434" lon="5.32202">
        <ele>200.60000610352</ele>
        <time>2021-03-08T13:21:15.000Z</time>
      </trkpt>
      <trkpt lat="46.50437" lon="5.32194">
        <ele>200.60000610352</ele>
        <time>2021-03-08T13:21:16.000Z</time>
      </trkpt>
      <trkpt lat="46.50447" lon="5.32185">
        <ele>200.60000610352</ele>
        <time>2021-03-08T13:21:18.000Z</time>
      </trkpt>
      <trkpt lat="46.50456" lon="5.32174">
        <ele>200.39999389648</ele>
        <time>2021-03-08T13:21:20.000Z</time>
      </trkpt>
      <trkpt lat="46.5046" lon="5.32167">
        <ele>200.39999389648</ele>
        <time>2021-03-08T13:21:21.000Z</time>
      </trkpt>
      <trkpt lat="46.50463" lon="5.32159">
        <ele>200.19999694824</ele>
        <time>2021-03-08T13:21:22.000Z</time>
      </trkpt>
      <trkpt lat="46.50468" lon="5.32143">
        <ele>200.19999694824</ele>
        <time>2021-03-08T13:21:24.000Z</time>
      </trkpt>
      <trkpt lat="46.50474" lon="5.32127">
        <ele>200</ele>
        <time>2021-03-08T13:21:26.000Z</time>
      </trkpt>
      <trkpt lat="46.50479" lon="5.32111">
        <ele>200</ele>
        <time>2021-03-08T13:21:28.000Z</time>
      </trkpt>
      <trkpt lat="46.50485" lon="5.32096">
        <ele>200</ele>
        <time>2021-03-08T13:21:30.000Z</time>
      </trkpt>
      <trkpt lat="46.50492" lon="5.32081">
        <ele>199.80000305176</ele>
        <time>2021-03-08T13:21:32.000Z</time>
      </trkpt>
      <trkpt lat="46.505" lon="5.32066">
        <ele>199.80000305176</ele>
        <time>2021-03-08T13:21:34.000Z</time>
      </trkpt>
      <trkpt lat="46.50508" lon="5.32051">
        <ele>199.80000305176</ele>
        <time>2021-03-08T13:21:36.000Z</time>
      </trkpt>
      <trkpt lat="46.50516" lon="5.32037">
        <ele>199.80000305176</ele>
        <time>2021-03-08T13:21:38.000Z</time>
      </trkpt>
      <trkpt lat="46.50521" lon="5.32031">
        <ele>199.80000305176</ele>
        <time>2021-03-08T13:21:39.000Z</time>
      </trkpt>
      <trkpt lat="46.50525" lon="5.32025">
        <ele>199.80000305176</ele>
        <time>2021-03-08T13:21:40.000Z</time>
      </trkpt>
      <trkpt lat="46.50533" lon="5.32014">
        <ele>199.80000305176</ele>
        <time>2021-03-08T13:21:42.000Z</time>
      </trkpt>
      <trkpt lat="46.50541" lon="5.32003">
        <ele>199.80000305176</ele>
        <time>2021-03-08T13:21:44.000Z</time>
      </trkpt>
      <trkpt lat="46.50544" lon="5.31998">
        <ele>199.80000305176</ele>
        <time>2021-03-08T13:21:45.000Z</time>
      </trkpt>
      <trkpt lat="46.50548" lon="5.31993">
        <ele>200</ele>
        <time>2021-03-08T13:21:46.000Z</time>
      </trkpt>
      <trkpt lat="46.50553" lon="5.31982">
        <ele>200</ele>
        <time>2021-03-08T13:21:48.000Z</time>
      </trkpt>
      <trkpt lat="46.50558" lon="5.31971">
        <ele>200.19999694824</ele>
        <time>2021-03-08T13:21:50.000Z</time>
      </trkpt>
      <trkpt lat="46.5056" lon="5.31965">
        <ele>200.60000610352</ele>
        <time>2021-03-08T13:21:51.000Z</time>
      </trkpt>
      <trkpt lat="46.50562" lon="5.31959">
        <ele>201.39999389648</ele>
        <time>2021-03-08T13:21:52.000Z</time>
      </trkpt>
      <trkpt lat="46.50564" lon="5.31954">
        <ele>202</ele>
        <time>2021-03-08T13:21:53.000Z</time>
      </trkpt>
      <trkpt lat="46.50566" lon="5.31948">
        <ele>202.39999389648</ele>
        <time>2021-03-08T13:21:54.000Z</time>
      </trkpt>
      <trkpt lat="46.50571" lon="5.31938">
        <ele>203</ele>
        <time>2021-03-08T13:21:56.000Z</time>
      </trkpt>
      <trkpt lat="46.50574" lon="5.31927">
        <ele>203.60000610352</ele>
        <time>2021-03-08T13:21:58.000Z</time>
      </trkpt>
      <trkpt lat="46.50578" lon="5.31917">
        <ele>204.39999389648</ele>
        <time>2021-03-08T13:22:00.000Z</time>
      </trkpt>
      <trkpt lat="46.50581" lon="5.31912">
        <ele>204.80000305176</ele>
        <time>2021-03-08T13:22:01.000Z</time>
      </trkpt>
      <trkpt lat="46.50582" lon="5.31907">
        <ele>205</ele>
        <time>2021-03-08T13:22:02.000Z</time>
      </trkpt>
      <trkpt lat="46.50586" lon="5.31897">
        <ele>205.60000610352</ele>
        <time>2021-03-08T13:22:04.000Z</time>
      </trkpt>
      <trkpt lat="46.50588" lon="5.31892">
        <ele>206</ele>
        <time>2021-03-08T13:22:05.000Z</time>
      </trkpt>
      <trkpt lat="46.50589" lon="5.31887">
        <ele>206.19999694824</ele>
        <time>2021-03-08T13:22:06.000Z</time>
      </trkpt>
      <trkpt lat="46.50591" lon="5.31882">
        <ele>206.19999694824</ele>
        <time>2021-03-08T13:22:07.000Z</time>
      </trkpt>
      <trkpt lat="46.50593" lon="5.31877">
        <ele>206.60000610352</ele>
        <time>2021-03-08T13:22:08.000Z</time>
      </trkpt>
      <trkpt lat="46.50597" lon="5.31867">
        <ele>207</ele>
        <time>2021-03-08T13:22:10.000Z</time>
      </trkpt>
      <trkpt lat="46.50601" lon="5.31857">
        <ele>207.19999694824</ele>
        <time>2021-03-08T13:22:12.000Z</time>
      </trkpt>
      <trkpt lat="46.50604" lon="5.31847">
        <ele>207.39999389648</ele>
        <time>2021-03-08T13:22:14.000Z</time>
      </trkpt>
      <trkpt lat="46.50606" lon="5.31842">
        <ele>207.60000610352</ele>
        <time>2021-03-08T13:22:15.000Z</time>
      </trkpt>
      <trkpt lat="46.50608" lon="5.31837">
        <ele>207.80000305176</ele>
        <time>2021-03-08T13:22:16.000Z</time>
      </trkpt>
      <trkpt lat="46.50612" lon="5.31828">
        <ele>208</ele>
        <time>2021-03-08T13:22:18.000Z</time>
      </trkpt>
      <trkpt lat="46.50615" lon="5.31818">
        <ele>208.39999389648</ele>
        <time>2021-03-08T13:22:20.000Z</time>
      </trkpt>
      <trkpt lat="46.50619" lon="5.31808">
        <ele>208.60000610352</ele>
        <time>2021-03-08T13:22:22.000Z</time>
      </trkpt>
      <trkpt lat="46.50621" lon="5.31803">
        <ele>209</ele>
        <time>2021-03-08T13:22:23.000Z</time>
      </trkpt>
      <trkpt lat="46.50623" lon="5.31797">
        <ele>209.19999694824</ele>
        <time>2021-03-08T13:22:24.000Z</time>
      </trkpt>
      <trkpt lat="46.50627" lon="5.31786">
        <ele>209.39999389648</ele>
        <time>2021-03-08T13:22:26.000Z</time>
      </trkpt>
      <trkpt lat="46.50629" lon="5.31779">
        <ele>209.39999389648</ele>
        <time>2021-03-08T13:22:27.000Z</time>
      </trkpt>
      <trkpt lat="46.50631" lon="5.31773">
        <ele>209.60000610352</ele>
        <time>2021-03-08T13:22:28.000Z</time>
      </trkpt>
      <trkpt lat="46.50635" lon="5.3176">
        <ele>210</ele>
        <time>2021-03-08T13:22:30.000Z</time>
      </trkpt>
      <trkpt lat="46.50641" lon="5.31748">
        <ele>210.19999694824</ele>
        <time>2021-03-08T13:22:32.000Z</time>
      </trkpt>
      <trkpt lat="46.50648" lon="5.31736">
        <ele>210.39999389648</ele>
        <time>2021-03-08T13:22:34.000Z</time>
      </trkpt>
      <trkpt lat="46.50651" lon="5.3173">
        <ele>210.39999389648</ele>
        <time>2021-03-08T13:22:35.000Z</time>
      </trkpt>
      <trkpt lat="46.50656" lon="5.31726">
        <ele>210.39999389648</ele>
        <time>2021-03-08T13:22:36.000Z</time>
      </trkpt>
      <trkpt lat="46.50666" lon="5.31719">
        <ele>210.60000610352</ele>
        <time>2021-03-08T13:22:38.000Z</time>
      </trkpt>
      <trkpt lat="46.50677" lon="5.31716">
        <ele>210.60000610352</ele>
        <time>2021-03-08T13:22:40.000Z</time>
      </trkpt>
      <trkpt lat="46.50688" lon="5.31714">
        <ele>210.60000610352</ele>
        <time>2021-03-08T13:22:42.000Z</time>
      </trkpt>
      <trkpt lat="46.507" lon="5.31712">
        <ele>210.60000610352</ele>
        <time>2021-03-08T13:22:44.000Z</time>
      </trkpt>
      <trkpt lat="46.50712" lon="5.31711">
        <ele>210.60000610352</ele>
        <time>2021-03-08T13:22:46.000Z</time>
      </trkpt>
      <trkpt lat="46.50718" lon="5.3171">
        <ele>210.60000610352</ele>
        <time>2021-03-08T13:22:47.000Z</time>
      </trkpt>
      <trkpt lat="46.50724" lon="5.31709">
        <ele>210.60000610352</ele>
        <time>2021-03-08T13:22:48.000Z</time>
      </trkpt>
      <trkpt lat="46.50736" lon="5.31707">
        <ele>210.60000610352</ele>
        <time>2021-03-08T13:22:50.000Z</time>
      </trkpt>
      <trkpt lat="46.50748" lon="5.31705">
        <ele>210.39999389648</ele>
        <time>2021-03-08T13:22:52.000Z</time>
      </trkpt>
      <trkpt lat="46.5076" lon="5.31705">
        <ele>210.39999389648</ele>
        <time>2021-03-08T13:22:54.000Z</time>
      </trkpt>
      <trkpt lat="46.50771" lon="5.31707">
        <ele>210.19999694824</ele>
        <time>2021-03-08T13:22:56.000Z</time>
      </trkpt>
      <trkpt lat="46.50783" lon="5.31713">
        <ele>210.19999694824</ele>
        <time>2021-03-08T13:22:58.000Z</time>
      </trkpt>
      <trkpt lat="46.50793" lon="5.31721">
        <ele>210.19999694824</ele>
        <time>2021-03-08T13:23:00.000Z</time>
      </trkpt>
      <trkpt lat="46.50798" lon="5.31725">
        <ele>210.19999694824</ele>
        <time>2021-03-08T13:23:01.000Z</time>
      </trkpt>
      <trkpt lat="46.50803" lon="5.31729">
        <ele>210.19999694824</ele>
        <time>2021-03-08T13:23:02.000Z</time>
      </trkpt>
      <trkpt lat="46.50814" lon="5.31737">
        <ele>210.19999694824</ele>
        <time>2021-03-08T13:23:04.000Z</time>
      </trkpt>
      <trkpt lat="46.50824" lon="5.31743">
        <ele>210.39999389648</ele>
        <time>2021-03-08T13:23:06.000Z</time>
      </trkpt>
      <trkpt lat="46.5083" lon="5.31746">
        <ele>210.39999389648</ele>
        <time>2021-03-08T13:23:07.000Z</time>
      </trkpt>
      <trkpt lat="46.50836" lon="5.31747">
        <ele>210.39999389648</ele>
        <time>2021-03-08T13:23:08.000Z</time>
      </trkpt>
      <trkpt lat="46.50846" lon="5.31745">
        <ele>210.80000305176</ele>
        <time>2021-03-08T13:23:10.000Z</time>
      </trkpt>
      <trkpt lat="46.50855" lon="5.31739">
        <ele>210.80000305176</ele>
        <time>2021-03-08T13:23:12.000Z</time>
      </trkpt>
      <trkpt lat="46.50863" lon="5.3173">
        <ele>211</ele>
        <time>2021-03-08T13:23:14.000Z</time>
      </trkpt>
      <trkpt lat="46.50868" lon="5.31726">
        <ele>211</ele>
        <time>2021-03-08T13:23:15.000Z</time>
      </trkpt>
      <trkpt lat="46.50872" lon="5.31721">
        <ele>211.19999694824</ele>
        <time>2021-03-08T13:23:16.000Z</time>
      </trkpt>
      <trkpt lat="46.50881" lon="5.31711">
        <ele>211.19999694824</ele>
        <time>2021-03-08T13:23:18.000Z</time>
      </trkpt>
      <trkpt lat="46.5089" lon="5.31702">
        <ele>211.19999694824</ele>
        <time>2021-03-08T13:23:20.000Z</time>
      </trkpt>
      <trkpt lat="46.509" lon="5.31693">
        <ele>211.19999694824</ele>
        <time>2021-03-08T13:23:22.000Z</time>
      </trkpt>
      <trkpt lat="46.5091" lon="5.31684">
        <ele>211.19999694824</ele>
        <time>2021-03-08T13:23:24.000Z</time>
      </trkpt>
      <trkpt lat="46.50915" lon="5.31678">
        <ele>211.19999694824</ele>
        <time>2021-03-08T13:23:25.000Z</time>
      </trkpt>
      <trkpt lat="46.5092" lon="5.31673">
        <ele>211</ele>
        <time>2021-03-08T13:23:26.000Z</time>
      </trkpt>
      <trkpt lat="46.50932" lon="5.31661">
        <ele>211</ele>
        <time>2021-03-08T13:23:28.000Z</time>
      </trkpt>
      <trkpt lat="46.50945" lon="5.31648">
        <ele>210.80000305176</ele>
        <time>2021-03-08T13:23:30.000Z</time>
      </trkpt>
      <trkpt lat="46.50951" lon="5.31642">
        <ele>210.60000610352</ele>
        <time>2021-03-08T13:23:31.000Z</time>
      </trkpt>
      <trkpt lat="46.50957" lon="5.31636">
        <ele>210.39999389648</ele>
        <time>2021-03-08T13:23:32.000Z</time>
      </trkpt>
      <trkpt lat="46.50969" lon="5.31623">
        <ele>210.19999694824</ele>
        <time>2021-03-08T13:23:34.000Z</time>
      </trkpt>
      <trkpt lat="46.50981" lon="5.31612">
        <ele>209.39999389648</ele>
        <time>2021-03-08T13:23:36.000Z</time>
      </trkpt>
      <trkpt lat="46.50992" lon="5.31601">
        <ele>209.19999694824</ele>
        <time>2021-03-08T13:23:38.000Z</time>
      </trkpt>
      <trkpt lat="46.51002" lon="5.3159">
        <ele>209</ele>
        <time>2021-03-08T13:23:40.000Z</time>
      </trkpt>
      <trkpt lat="46.51012" lon="5.3158">
        <ele>209</ele>
        <time>2021-03-08T13:23:42.000Z</time>
      </trkpt>
      <trkpt lat="46.51022" lon="5.31569">
        <ele>209</ele>
        <time>2021-03-08T13:23:44.000Z</time>
      </trkpt>
      <trkpt lat="46.51032" lon="5.31556">
        <ele>209.19999694824</ele>
        <time>2021-03-08T13:23:46.000Z</time>
      </trkpt>
      <trkpt lat="46.51036" lon="5.31548">
        <ele>209.39999389648</ele>
        <time>2021-03-08T13:23:47.000Z</time>
      </trkpt>
      <trkpt lat="46.51039" lon="5.3154">
        <ele>209.39999389648</ele>
        <time>2021-03-08T13:23:48.000Z</time>
      </trkpt>
      <trkpt lat="46.51044" lon="5.3152">
        <ele>209.39999389648</ele>
        <time>2021-03-08T13:23:50.000Z</time>
      </trkpt>
      <trkpt lat="46.51047" lon="5.3151">
        <ele>209.60000610352</ele>
        <time>2021-03-08T13:23:51.000Z</time>
      </trkpt>
      <trkpt lat="46.51049" lon="5.31499">
        <ele>209.60000610352</ele>
        <time>2021-03-08T13:23:52.000Z</time>
      </trkpt>
      <trkpt lat="46.51054" lon="5.31476">
        <ele>209.60000610352</ele>
        <time>2021-03-08T13:23:54.000Z</time>
      </trkpt>
      <trkpt lat="46.51059" lon="5.31453">
        <ele>209.60000610352</ele>
        <time>2021-03-08T13:23:56.000Z</time>
      </trkpt>
      <trkpt lat="46.51065" lon="5.31428">
        <ele>209.39999389648</ele>
        <time>2021-03-08T13:23:58.000Z</time>
      </trkpt>
      <trkpt lat="46.51069" lon="5.31404">
        <ele>208.80000305176</ele>
        <time>2021-03-08T13:24:00.000Z</time>
      </trkpt>
      <trkpt lat="46.51072" lon="5.31378">
        <ele>208</ele>
        <time>2021-03-08T13:24:02.000Z</time>
      </trkpt>
      <trkpt lat="46.51071" lon="5.31353">
        <ele>207.19999694824</ele>
        <time>2021-03-08T13:24:04.000Z</time>
      </trkpt>
      <trkpt lat="46.5107" lon="5.3134">
        <ele>206.80000305176</ele>
        <time>2021-03-08T13:24:05.000Z</time>
      </trkpt>
      <trkpt lat="46.5107" lon="5.31327">
        <ele>206.60000610352</ele>
        <time>2021-03-08T13:24:06.000Z</time>
      </trkpt>
      <trkpt lat="46.51077" lon="5.31304">
        <ele>206.19999694824</ele>
        <time>2021-03-08T13:24:08.000Z</time>
      </trkpt>
      <trkpt lat="46.51083" lon="5.31294">
        <ele>205.80000305176</ele>
        <time>2021-03-08T13:24:09.000Z</time>
      </trkpt>
      <trkpt lat="46.51089" lon="5.31285">
        <ele>205.19999694824</ele>
        <time>2021-03-08T13:24:10.000Z</time>
      </trkpt>
      <trkpt lat="46.51103" lon="5.31268">
        <ele>204.80000305176</ele>
        <time>2021-03-08T13:24:12.000Z</time>
      </trkpt>
      <trkpt lat="46.51117" lon="5.31252">
        <ele>204.39999389648</ele>
        <time>2021-03-08T13:24:14.000Z</time>
      </trkpt>
      <trkpt lat="46.51124" lon="5.31243">
        <ele>204</ele>
        <time>2021-03-08T13:24:15.000Z</time>
      </trkpt>
      <trkpt lat="46.51132" lon="5.31235">
        <ele>203.39999389648</ele>
        <time>2021-03-08T13:24:16.000Z</time>
      </trkpt>
      <trkpt lat="46.51139" lon="5.31228">
        <ele>202.80000305176</ele>
        <time>2021-03-08T13:24:17.000Z</time>
      </trkpt>
      <trkpt lat="46.51146" lon="5.3122">
        <ele>202</ele>
        <time>2021-03-08T13:24:18.000Z</time>
      </trkpt>
      <trkpt lat="46.51153" lon="5.31212">
        <ele>201.19999694824</ele>
        <time>2021-03-08T13:24:19.000Z</time>
      </trkpt>
      <trkpt lat="46.5116" lon="5.31205">
        <ele>200.39999389648</ele>
        <time>2021-03-08T13:24:20.000Z</time>
      </trkpt>
      <trkpt lat="46.51166" lon="5.31197">
        <ele>200</ele>
        <time>2021-03-08T13:24:21.000Z</time>
      </trkpt>
      <trkpt lat="46.51172" lon="5.31189">
        <ele>199.60000610352</ele>
        <time>2021-03-08T13:24:22.000Z</time>
      </trkpt>
      <trkpt lat="46.51184" lon="5.31173">
        <ele>199.19999694824</ele>
        <time>2021-03-08T13:24:24.000Z</time>
      </trkpt>
      <trkpt lat="46.51197" lon="5.31159">
        <ele>199</ele>
        <time>2021-03-08T13:24:26.000Z</time>
      </trkpt>
      <trkpt lat="46.51203" lon="5.31152">
        <ele>198.80000305176</ele>
        <time>2021-03-08T13:24:27.000Z</time>
      </trkpt>
      <trkpt lat="46.51209" lon="5.31145">
        <ele>198.39999389648</ele>
        <time>2021-03-08T13:24:28.000Z</time>
      </trkpt>
      <trkpt lat="46.51222" lon="5.3113">
        <ele>198.39999389648</ele>
        <time>2021-03-08T13:24:30.000Z</time>
      </trkpt>
      <trkpt lat="46.51236" lon="5.31115">
        <ele>198.19999694824</ele>
        <time>2021-03-08T13:24:32.000Z</time>
      </trkpt>
      <trkpt lat="46.5125" lon="5.31101">
        <ele>198.19999694824</ele>
        <time>2021-03-08T13:24:34.000Z</time>
      </trkpt>
      <trkpt lat="46.51266" lon="5.31093">
        <ele>197.80000305176</ele>
        <time>2021-03-08T13:24:36.000Z</time>
      </trkpt>
      <trkpt lat="46.51274" lon="5.31092">
        <ele>197.19999694824</ele>
        <time>2021-03-08T13:24:37.000Z</time>
      </trkpt>
      <trkpt lat="46.51282" lon="5.31091">
        <ele>196.80000305176</ele>
        <time>2021-03-08T13:24:38.000Z</time>
      </trkpt>
      <trkpt lat="46.51289" lon="5.31091">
        <ele>196.60000610352</ele>
        <time>2021-03-08T13:24:39.000Z</time>
      </trkpt>
      <trkpt lat="46.51297" lon="5.31089">
        <ele>196.60000610352</ele>
        <time>2021-03-08T13:24:40.000Z</time>
      </trkpt>
      <trkpt lat="46.51311" lon="5.31087">
        <ele>196.39999389648</ele>
        <time>2021-03-08T13:24:42.000Z</time>
      </trkpt>
      <trkpt lat="46.51325" lon="5.31086">
        <ele>196.39999389648</ele>
        <time>2021-03-08T13:24:44.000Z</time>
      </trkpt>
      <trkpt lat="46.51339" lon="5.31085">
        <ele>196.39999389648</ele>
        <time>2021-03-08T13:24:46.000Z</time>
      </trkpt>
      <trkpt lat="46.51352" lon="5.31083">
        <ele>196.39999389648</ele>
        <time>2021-03-08T13:24:48.000Z</time>
      </trkpt>
      <trkpt lat="46.51365" lon="5.31082">
        <ele>196.39999389648</ele>
        <time>2021-03-08T13:24:50.000Z</time>
      </trkpt>
      <trkpt lat="46.51378" lon="5.31081">
        <ele>196.39999389648</ele>
        <time>2021-03-08T13:24:52.000Z</time>
      </trkpt>
      <trkpt lat="46.51391" lon="5.3108">
        <ele>196.80000305176</ele>
        <time>2021-03-08T13:24:54.000Z</time>
      </trkpt>
      <trkpt lat="46.51404" lon="5.31078">
        <ele>197</ele>
        <time>2021-03-08T13:24:56.000Z</time>
      </trkpt>
      <trkpt lat="46.51417" lon="5.31078">
        <ele>197.19999694824</ele>
        <time>2021-03-08T13:24:58.000Z</time>
      </trkpt>
      <trkpt lat="46.51429" lon="5.31077">
        <ele>197.19999694824</ele>
        <time>2021-03-08T13:25:00.000Z</time>
      </trkpt>
      <trkpt lat="46.51441" lon="5.31076">
        <ele>197.19999694824</ele>
        <time>2021-03-08T13:25:02.000Z</time>
      </trkpt>
      <trkpt lat="46.51453" lon="5.31075">
        <ele>197</ele>
        <time>2021-03-08T13:25:04.000Z</time>
      </trkpt>
      <trkpt lat="46.51465" lon="5.31074">
        <ele>197</ele>
        <time>2021-03-08T13:25:06.000Z</time>
      </trkpt>
      <trkpt lat="46.51478" lon="5.31075">
        <ele>197</ele>
        <time>2021-03-08T13:25:08.000Z</time>
      </trkpt>
      <trkpt lat="46.5149" lon="5.31075">
        <ele>197</ele>
        <time>2021-03-08T13:25:10.000Z</time>
      </trkpt>
      <trkpt lat="46.51496" lon="5.31075">
        <ele>197</ele>
        <time>2021-03-08T13:25:11.000Z</time>
      </trkpt>
      <trkpt lat="46.51502" lon="5.31076">
        <ele>197</ele>
        <time>2021-03-08T13:25:12.000Z</time>
      </trkpt>
      <trkpt lat="46.51513" lon="5.31077">
        <ele>197</ele>
        <time>2021-03-08T13:25:14.000Z</time>
      </trkpt>
      <trkpt lat="46.51525" lon="5.31077">
        <ele>197</ele>
        <time>2021-03-08T13:25:16.000Z</time>
      </trkpt>
      <trkpt lat="46.51537" lon="5.31078">
        <ele>197.19999694824</ele>
        <time>2021-03-08T13:25:18.000Z</time>
      </trkpt>
      <trkpt lat="46.51548" lon="5.31079">
        <ele>197.60000610352</ele>
        <time>2021-03-08T13:25:20.000Z</time>
      </trkpt>
      <trkpt lat="46.51554" lon="5.31079">
        <ele>197.60000610352</ele>
        <time>2021-03-08T13:25:21.000Z</time>
      </trkpt>
      <trkpt lat="46.5156" lon="5.31079">
        <ele>197.80000305176</ele>
        <time>2021-03-08T13:25:22.000Z</time>
      </trkpt>
      <trkpt lat="46.51572" lon="5.31081">
        <ele>197.80000305176</ele>
        <time>2021-03-08T13:25:24.000Z</time>
      </trkpt>
      <trkpt lat="46.51583" lon="5.31083">
        <ele>197.80000305176</ele>
        <time>2021-03-08T13:25:26.000Z</time>
      </trkpt>
      <trkpt lat="46.51595" lon="5.31087">
        <ele>197.80000305176</ele>
        <time>2021-03-08T13:25:28.000Z</time>
      </trkpt>
      <trkpt lat="46.51606" lon="5.31092">
        <ele>197.80000305176</ele>
        <time>2021-03-08T13:25:30.000Z</time>
      </trkpt>
      <trkpt lat="46.51615" lon="5.31097">
        <ele>197.80000305176</ele>
        <time>2021-03-08T13:25:32.000Z</time>
      </trkpt>
      <trkpt lat="46.51623" lon="5.31102">
        <ele>197.80000305176</ele>
        <time>2021-03-08T13:25:34.000Z</time>
      </trkpt>
      <trkpt lat="46.51631" lon="5.31106">
        <ele>198</ele>
        <time>2021-03-08T13:25:36.000Z</time>
      </trkpt>
      <trkpt lat="46.51636" lon="5.31107">
        <ele>198.19999694824</ele>
        <time>2021-03-08T13:25:37.000Z</time>
      </trkpt>
      <trkpt lat="46.5164" lon="5.31107">
        <ele>198.19999694824</ele>
        <time>2021-03-08T13:25:38.000Z</time>
      </trkpt>
      <trkpt lat="46.51649" lon="5.31105">
        <ele>198.80000305176</ele>
        <time>2021-03-08T13:25:40.000Z</time>
      </trkpt>
      <trkpt lat="46.51659" lon="5.31104">
        <ele>199.80000305176</ele>
        <time>2021-03-08T13:25:42.000Z</time>
      </trkpt>
      <trkpt lat="46.51663" lon="5.31106">
        <ele>200.19999694824</ele>
        <time>2021-03-08T13:25:43.000Z</time>
      </trkpt>
      <trkpt lat="46.51667" lon="5.31109">
        <ele>200.60000610352</ele>
        <time>2021-03-08T13:25:44.000Z</time>
      </trkpt>
      <trkpt lat="46.51674" lon="5.31121">
        <ele>200.60000610352</ele>
        <time>2021-03-08T13:25:46.000Z</time>
      </trkpt>
      <trkpt lat="46.51677" lon="5.31127">
        <ele>200.80000305176</ele>
        <time>2021-03-08T13:25:47.000Z</time>
      </trkpt>
      <trkpt lat="46.51681" lon="5.31134">
        <ele>200.80000305176</ele>
        <time>2021-03-08T13:25:48.000Z</time>
      </trkpt>
      <trkpt lat="46.51689" lon="5.31147">
        <ele>200.80000305176</ele>
        <time>2021-03-08T13:25:50.000Z</time>
      </trkpt>
      <trkpt lat="46.51699" lon="5.31158">
        <ele>200.80000305176</ele>
        <time>2021-03-08T13:25:52.000Z</time>
      </trkpt>
      <trkpt lat="46.51704" lon="5.31164">
        <ele>200.80000305176</ele>
        <time>2021-03-08T13:25:53.000Z</time>
      </trkpt>
      <trkpt lat="46.5171" lon="5.31168">
        <ele>200.60000610352</ele>
        <time>2021-03-08T13:25:54.000Z</time>
      </trkpt>
      <trkpt lat="46.51722" lon="5.31176">
        <ele>200.39999389648</ele>
        <time>2021-03-08T13:25:56.000Z</time>
      </trkpt>
      <trkpt lat="46.51737" lon="5.31181">
        <ele>200</ele>
        <time>2021-03-08T13:25:58.000Z</time>
      </trkpt>
      <trkpt lat="46.51752" lon="5.31183">
        <ele>200</ele>
        <time>2021-03-08T13:26:00.000Z</time>
      </trkpt>
      <trkpt lat="46.51768" lon="5.31183">
        <ele>199.60000610352</ele>
        <time>2021-03-08T13:26:02.000Z</time>
      </trkpt>
      <trkpt lat="46.51777" lon="5.31183">
        <ele>199.39999389648</ele>
        <time>2021-03-08T13:26:03.000Z</time>
      </trkpt>
      <trkpt lat="46.51785" lon="5.31184">
        <ele>199.39999389648</ele>
        <time>2021-03-08T13:26:04.000Z</time>
      </trkpt>
      <trkpt lat="46.51802" lon="5.31184">
        <ele>198.39999389648</ele>
        <time>2021-03-08T13:26:06.000Z</time>
      </trkpt>
      <trkpt lat="46.5182" lon="5.31187">
        <ele>196.80000305176</ele>
        <time>2021-03-08T13:26:08.000Z</time>
      </trkpt>
      <trkpt lat="46.51837" lon="5.31193">
        <ele>195.60000610352</ele>
        <time>2021-03-08T13:26:10.000Z</time>
      </trkpt>
      <trkpt lat="46.51853" lon="5.31203">
        <ele>194.60000610352</ele>
        <time>2021-03-08T13:26:12.000Z</time>
      </trkpt>
      <trkpt lat="46.5186" lon="5.31209">
        <ele>194</ele>
        <time>2021-03-08T13:26:13.000Z</time>
      </trkpt>
      <trkpt lat="46.51867" lon="5.31217">
        <ele>193.60000610352</ele>
        <time>2021-03-08T13:26:14.000Z</time>
      </trkpt>
      <trkpt lat="46.51878" lon="5.31232">
        <ele>192.60000610352</ele>
        <time>2021-03-08T13:26:16.000Z</time>
      </trkpt>
      <trkpt lat="46.51889" lon="5.31248">
        <ele>192</ele>
        <time>2021-03-08T13:26:18.000Z</time>
      </trkpt>
      <trkpt lat="46.51899" lon="5.31264">
        <ele>191.80000305176</ele>
        <time>2021-03-08T13:26:20.000Z</time>
      </trkpt>
      <trkpt lat="46.5191" lon="5.31279">
        <ele>191.80000305176</ele>
        <time>2021-03-08T13:26:22.000Z</time>
      </trkpt>
      <trkpt lat="46.5192" lon="5.31295">
        <ele>191.80000305176</ele>
        <time>2021-03-08T13:26:24.000Z</time>
      </trkpt>
      <trkpt lat="46.5193" lon="5.31311">
        <ele>192</ele>
        <time>2021-03-08T13:26:26.000Z</time>
      </trkpt>
      <trkpt lat="46.5194" lon="5.31326">
        <ele>192.19999694824</ele>
        <time>2021-03-08T13:26:28.000Z</time>
      </trkpt>
      <trkpt lat="46.5195" lon="5.3134">
        <ele>192.39999389648</ele>
        <time>2021-03-08T13:26:30.000Z</time>
      </trkpt>
      <trkpt lat="46.5196" lon="5.31355">
        <ele>192.60000610352</ele>
        <time>2021-03-08T13:26:32.000Z</time>
      </trkpt>
      <trkpt lat="46.51969" lon="5.31369">
        <ele>192.60000610352</ele>
        <time>2021-03-08T13:26:34.000Z</time>
      </trkpt>
      <trkpt lat="46.51978" lon="5.31383">
        <ele>192.80000305176</ele>
        <time>2021-03-08T13:26:36.000Z</time>
      </trkpt>
      <trkpt lat="46.51983" lon="5.31389">
        <ele>192.80000305176</ele>
        <time>2021-03-08T13:26:37.000Z</time>
      </trkpt>
      <trkpt lat="46.51987" lon="5.31396">
        <ele>192.80000305176</ele>
        <time>2021-03-08T13:26:38.000Z</time>
      </trkpt>
      <trkpt lat="46.51996" lon="5.31409">
        <ele>192.80000305176</ele>
        <time>2021-03-08T13:26:40.000Z</time>
      </trkpt>
      <trkpt lat="46.52004" lon="5.31422">
        <ele>193.19999694824</ele>
        <time>2021-03-08T13:26:42.000Z</time>
      </trkpt>
      <trkpt lat="46.52013" lon="5.31434">
        <ele>193.39999389648</ele>
        <time>2021-03-08T13:26:44.000Z</time>
      </trkpt>
      <trkpt lat="46.52017" lon="5.31441">
        <ele>193.60000610352</ele>
        <time>2021-03-08T13:26:45.000Z</time>
      </trkpt>
      <trkpt lat="46.52021" lon="5.31447">
        <ele>193.60000610352</ele>
        <time>2021-03-08T13:26:46.000Z</time>
      </trkpt>
      <trkpt lat="46.52029" lon="5.31459">
        <ele>193.80000305176</ele>
        <time>2021-03-08T13:26:48.000Z</time>
      </trkpt>
      <trkpt lat="46.52037" lon="5.3147">
        <ele>194</ele>
        <time>2021-03-08T13:26:50.000Z</time>
      </trkpt>
      <trkpt lat="46.52044" lon="5.31481">
        <ele>194.19999694824</ele>
        <time>2021-03-08T13:26:52.000Z</time>
      </trkpt>
      <trkpt lat="46.52048" lon="5.31487">
        <ele>194.39999389648</ele>
        <time>2021-03-08T13:26:53.000Z</time>
      </trkpt>
      <trkpt lat="46.52051" lon="5.31492">
        <ele>194.39999389648</ele>
        <time>2021-03-08T13:26:54.000Z</time>
      </trkpt>
      <trkpt lat="46.52058" lon="5.31503">
        <ele>194.39999389648</ele>
        <time>2021-03-08T13:26:56.000Z</time>
      </trkpt>
      <trkpt lat="46.52064" lon="5.31512">
        <ele>194.60000610352</ele>
        <time>2021-03-08T13:26:58.000Z</time>
      </trkpt>
      <trkpt lat="46.52071" lon="5.31523">
        <ele>195.19999694824</ele>
        <time>2021-03-08T13:27:00.000Z</time>
      </trkpt>
      <trkpt lat="46.52078" lon="5.31533">
        <ele>195.60000610352</ele>
        <time>2021-03-08T13:27:02.000Z</time>
      </trkpt>
      <trkpt lat="46.52084" lon="5.31543">
        <ele>196.39999389648</ele>
        <time>2021-03-08T13:27:04.000Z</time>
      </trkpt>
      <trkpt lat="46.52088" lon="5.31548">
        <ele>196.80000305176</ele>
        <time>2021-03-08T13:27:05.000Z</time>
      </trkpt>
      <trkpt lat="46.52091" lon="5.31552">
        <ele>197</ele>
        <time>2021-03-08T13:27:06.000Z</time>
      </trkpt>
      <trkpt lat="46.52097" lon="5.31561">
        <ele>197.19999694824</ele>
        <time>2021-03-08T13:27:08.000Z</time>
      </trkpt>
      <trkpt lat="46.52104" lon="5.31571">
        <ele>197.39999389648</ele>
        <time>2021-03-08T13:27:10.000Z</time>
      </trkpt>
      <trkpt lat="46.52109" lon="5.3158">
        <ele>197.80000305176</ele>
        <time>2021-03-08T13:27:12.000Z</time>
      </trkpt>
      <trkpt lat="46.52115" lon="5.3159">
        <ele>198.19999694824</ele>
        <time>2021-03-08T13:27:14.000Z</time>
      </trkpt>
      <trkpt lat="46.52121" lon="5.31599">
        <ele>198.39999389648</ele>
        <time>2021-03-08T13:27:16.000Z</time>
      </trkpt>
      <trkpt lat="46.52128" lon="5.31609">
        <ele>198.80000305176</ele>
        <time>2021-03-08T13:27:18.000Z</time>
      </trkpt>
      <trkpt lat="46.52137" lon="5.3162">
        <ele>199</ele>
        <time>2021-03-08T13:27:20.000Z</time>
      </trkpt>
      <trkpt lat="46.52145" lon="5.31632">
        <ele>199.39999389648</ele>
        <time>2021-03-08T13:27:22.000Z</time>
      </trkpt>
      <trkpt lat="46.52149" lon="5.31637">
        <ele>199.80000305176</ele>
        <time>2021-03-08T13:27:23.000Z</time>
      </trkpt>
      <trkpt lat="46.52154" lon="5.31643">
        <ele>200</ele>
        <time>2021-03-08T13:27:24.000Z</time>
      </trkpt>
      <trkpt lat="46.52163" lon="5.31653">
        <ele>200.39999389648</ele>
        <time>2021-03-08T13:27:26.000Z</time>
      </trkpt>
      <trkpt lat="46.52171" lon="5.31662">
        <ele>200.60000610352</ele>
        <time>2021-03-08T13:27:28.000Z</time>
      </trkpt>
      <trkpt lat="46.52174" lon="5.31667">
        <ele>200.80000305176</ele>
        <time>2021-03-08T13:27:29.000Z</time>
      </trkpt>
      <trkpt lat="46.52177" lon="5.31672">
        <ele>200.80000305176</ele>
        <time>2021-03-08T13:27:30.000Z</time>
      </trkpt>
      <trkpt lat="46.52183" lon="5.31683">
        <ele>201.19999694824</ele>
        <time>2021-03-08T13:27:32.000Z</time>
      </trkpt>
      <trkpt lat="46.5219" lon="5.31693">
        <ele>201.60000610352</ele>
        <time>2021-03-08T13:27:34.000Z</time>
      </trkpt>
      <trkpt lat="46.52197" lon="5.31703">
        <ele>202</ele>
        <time>2021-03-08T13:27:36.000Z</time>
      </trkpt>
      <trkpt lat="46.52205" lon="5.31714">
        <ele>202.19999694824</ele>
        <time>2021-03-08T13:27:38.000Z</time>
      </trkpt>
      <trkpt lat="46.52213" lon="5.31724">
        <ele>202.39999389648</ele>
        <time>2021-03-08T13:27:40.000Z</time>
      </trkpt>
      <trkpt lat="46.5222" lon="5.31735">
        <ele>202.80000305176</ele>
        <time>2021-03-08T13:27:42.000Z</time>
      </trkpt>
      <trkpt lat="46.52223" lon="5.3174">
        <ele>203</ele>
        <time>2021-03-08T13:27:43.000Z</time>
      </trkpt>
      <trkpt lat="46.52226" lon="5.31745">
        <ele>203.19999694824</ele>
        <time>2021-03-08T13:27:44.000Z</time>
      </trkpt>
      <trkpt lat="46.52234" lon="5.31756">
        <ele>203.39999389648</ele>
        <time>2021-03-08T13:27:46.000Z</time>
      </trkpt>
      <trkpt lat="46.52241" lon="5.31766">
        <ele>203.39999389648</ele>
        <time>2021-03-08T13:27:48.000Z</time>
      </trkpt>
      <trkpt lat="46.52249" lon="5.31776">
        <ele>203.60000610352</ele>
        <time>2021-03-08T13:27:50.000Z</time>
      </trkpt>
      <trkpt lat="46.52253" lon="5.31781">
        <ele>203.60000610352</ele>
        <time>2021-03-08T13:27:51.000Z</time>
      </trkpt>
      <trkpt lat="46.52256" lon="5.31785">
        <ele>203.60000610352</ele>
        <time>2021-03-08T13:27:52.000Z</time>
      </trkpt>
      <trkpt lat="46.52263" lon="5.31796">
        <ele>203.80000305176</ele>
        <time>2021-03-08T13:27:54.000Z</time>
      </trkpt>
      <trkpt lat="46.5227" lon="5.31805">
        <ele>204</ele>
        <time>2021-03-08T13:27:56.000Z</time>
      </trkpt>
      <trkpt lat="46.52277" lon="5.31815">
        <ele>205</ele>
        <time>2021-03-08T13:27:58.000Z</time>
      </trkpt>
      <trkpt lat="46.5228" lon="5.3182">
        <ele>205.60000610352</ele>
        <time>2021-03-08T13:27:59.000Z</time>
      </trkpt>
      <trkpt lat="46.52283" lon="5.31825">
        <ele>205.80000305176</ele>
        <time>2021-03-08T13:28:00.000Z</time>
      </trkpt>
      <trkpt lat="46.52287" lon="5.31829">
        <ele>205.80000305176</ele>
        <time>2021-03-08T13:28:01.000Z</time>
      </trkpt>
      <trkpt lat="46.5229" lon="5.31834">
        <ele>206</ele>
        <time>2021-03-08T13:28:02.000Z</time>
      </trkpt>
      <trkpt lat="46.52297" lon="5.31844">
        <ele>206</ele>
        <time>2021-03-08T13:28:04.000Z</time>
      </trkpt>
      <trkpt lat="46.52304" lon="5.31853">
        <ele>206.19999694824</ele>
        <time>2021-03-08T13:28:06.000Z</time>
      </trkpt>
      <trkpt lat="46.5231" lon="5.31863">
        <ele>206.39999389648</ele>
        <time>2021-03-08T13:28:08.000Z</time>
      </trkpt>
      <trkpt lat="46.52313" lon="5.31867">
        <ele>206.80000305176</ele>
        <time>2021-03-08T13:28:09.000Z</time>
      </trkpt>
      <trkpt lat="46.52316" lon="5.31872">
        <ele>207</ele>
        <time>2021-03-08T13:28:10.000Z</time>
      </trkpt>
      <trkpt lat="46.52319" lon="5.31877">
        <ele>207.19999694824</ele>
        <time>2021-03-08T13:28:11.000Z</time>
      </trkpt>
      <trkpt lat="46.52323" lon="5.31881">
        <ele>207.19999694824</ele>
        <time>2021-03-08T13:28:12.000Z</time>
      </trkpt>
      <trkpt lat="46.5233" lon="5.31891">
        <ele>207.19999694824</ele>
        <time>2021-03-08T13:28:14.000Z</time>
      </trkpt>
      <trkpt lat="46.52337" lon="5.31901">
        <ele>207.39999389648</ele>
        <time>2021-03-08T13:28:16.000Z</time>
      </trkpt>
      <trkpt lat="46.52344" lon="5.31911">
        <ele>207.80000305176</ele>
        <time>2021-03-08T13:28:18.000Z</time>
      </trkpt>
      <trkpt lat="46.52348" lon="5.31917">
        <ele>208</ele>
        <time>2021-03-08T13:28:19.000Z</time>
      </trkpt>
      <trkpt lat="46.52352" lon="5.31922">
        <ele>208.19999694824</ele>
        <time>2021-03-08T13:28:20.000Z</time>
      </trkpt>
      <trkpt lat="46.5236" lon="5.31934">
        <ele>208.39999389648</ele>
        <time>2021-03-08T13:28:22.000Z</time>
      </trkpt>
      <trkpt lat="46.52369" lon="5.31946">
        <ele>208.60000610352</ele>
        <time>2021-03-08T13:28:24.000Z</time>
      </trkpt>
      <trkpt lat="46.52379" lon="5.31959">
        <ele>208.60000610352</ele>
        <time>2021-03-08T13:28:26.000Z</time>
      </trkpt>
      <trkpt lat="46.52389" lon="5.31974">
        <ele>208.60000610352</ele>
        <time>2021-03-08T13:28:28.000Z</time>
      </trkpt>
      <trkpt lat="46.524" lon="5.31989">
        <ele>208.19999694824</ele>
        <time>2021-03-08T13:28:30.000Z</time>
      </trkpt>
      <trkpt lat="46.52411" lon="5.32005">
        <ele>208.19999694824</ele>
        <time>2021-03-08T13:28:32.000Z</time>
      </trkpt>
      <trkpt lat="46.52417" lon="5.32013">
        <ele>208.19999694824</ele>
        <time>2021-03-08T13:28:33.000Z</time>
      </trkpt>
      <trkpt lat="46.52423" lon="5.32021">
        <ele>208</ele>
        <time>2021-03-08T13:28:34.000Z</time>
      </trkpt>
      <trkpt lat="46.52435" lon="5.32037">
        <ele>207</ele>
        <time>2021-03-08T13:28:36.000Z</time>
      </trkpt>
      <trkpt lat="46.52441" lon="5.32045">
        <ele>206.39999389648</ele>
        <time>2021-03-08T13:28:37.000Z</time>
      </trkpt>
      <trkpt lat="46.52447" lon="5.32054">
        <ele>205.80000305176</ele>
        <time>2021-03-08T13:28:38.000Z</time>
      </trkpt>
      <trkpt lat="46.52453" lon="5.32062">
        <ele>205.19999694824</ele>
        <time>2021-03-08T13:28:39.000Z</time>
      </trkpt>
      <trkpt lat="46.52459" lon="5.3207">
        <ele>204.80000305176</ele>
        <time>2021-03-08T13:28:40.000Z</time>
      </trkpt>
      <trkpt lat="46.52472" lon="5.32087">
        <ele>204.19999694824</ele>
        <time>2021-03-08T13:28:42.000Z</time>
      </trkpt>
      <trkpt lat="46.52483" lon="5.32104">
        <ele>204</ele>
        <time>2021-03-08T13:28:44.000Z</time>
      </trkpt>
      <trkpt lat="46.52495" lon="5.32121">
        <ele>203.80000305176</ele>
        <time>2021-03-08T13:28:46.000Z</time>
      </trkpt>
      <trkpt lat="46.52506" lon="5.32137">
        <ele>203</ele>
        <time>2021-03-08T13:28:48.000Z</time>
      </trkpt>
      <trkpt lat="46.52518" lon="5.32153">
        <ele>201.80000305176</ele>
        <time>2021-03-08T13:28:50.000Z</time>
      </trkpt>
      <trkpt lat="46.52524" lon="5.32161">
        <ele>201.39999389648</ele>
        <time>2021-03-08T13:28:51.000Z</time>
      </trkpt>
      <trkpt lat="46.5253" lon="5.32168">
        <ele>201</ele>
        <time>2021-03-08T13:28:52.000Z</time>
      </trkpt>
      <trkpt lat="46.52537" lon="5.32175">
        <ele>200.80000305176</ele>
        <time>2021-03-08T13:28:53.000Z</time>
      </trkpt>
      <trkpt lat="46.52544" lon="5.32181">
        <ele>200.60000610352</ele>
        <time>2021-03-08T13:28:54.000Z</time>
      </trkpt>
      <trkpt lat="46.52558" lon="5.32191">
        <ele>200</ele>
        <time>2021-03-08T13:28:56.000Z</time>
      </trkpt>
      <trkpt lat="46.52565" lon="5.32191">
        <ele>199.80000305176</ele>
        <time>2021-03-08T13:28:57.000Z</time>
      </trkpt>
      <trkpt lat="46.5257" lon="5.32187">
        <ele>199.39999389648</ele>
        <time>2021-03-08T13:28:58.000Z</time>
      </trkpt>
      <trkpt lat="46.52579" lon="5.32174">
        <ele>198.19999694824</ele>
        <time>2021-03-08T13:29:00.000Z</time>
      </trkpt>
      <trkpt lat="46.52586" lon="5.32159">
        <ele>197.80000305176</ele>
        <time>2021-03-08T13:29:02.000Z</time>
      </trkpt>
      <trkpt lat="46.52593" lon="5.32143">
        <ele>197.60000610352</ele>
        <time>2021-03-08T13:29:04.000Z</time>
      </trkpt>
      <trkpt lat="46.52599" lon="5.32129">
        <ele>197.60000610352</ele>
        <time>2021-03-08T13:29:06.000Z</time>
      </trkpt>
      <trkpt lat="46.52605" lon="5.32116">
        <ele>197.60000610352</ele>
        <time>2021-03-08T13:29:08.000Z</time>
      </trkpt>
      <trkpt lat="46.52607" lon="5.32109">
        <ele>197.60000610352</ele>
        <time>2021-03-08T13:29:09.000Z</time>
      </trkpt>
      <trkpt lat="46.5261" lon="5.32103">
        <ele>197.60000610352</ele>
        <time>2021-03-08T13:29:10.000Z</time>
      </trkpt>
      <trkpt lat="46.52616" lon="5.3209">
        <ele>198</ele>
        <time>2021-03-08T13:29:12.000Z</time>
      </trkpt>
      <trkpt lat="46.5262" lon="5.32079">
        <ele>198.80000305176</ele>
        <time>2021-03-08T13:29:14.000Z</time>
      </trkpt>
      <trkpt lat="46.52624" lon="5.32067">
        <ele>199.19999694824</ele>
        <time>2021-03-08T13:29:16.000Z</time>
      </trkpt>
      <trkpt lat="46.52629" lon="5.32056">
        <ele>199.60000610352</ele>
        <time>2021-03-08T13:29:18.000Z</time>
      </trkpt>
      <trkpt lat="46.52632" lon="5.32045">
        <ele>200</ele>
        <time>2021-03-08T13:29:20.000Z</time>
      </trkpt>
      <trkpt lat="46.52635" lon="5.32035">
        <ele>200.60000610352</ele>
        <time>2021-03-08T13:29:22.000Z</time>
      </trkpt>
      <trkpt lat="46.52637" lon="5.32029">
        <ele>201.19999694824</ele>
        <time>2021-03-08T13:29:23.000Z</time>
      </trkpt>
      <trkpt lat="46.52639" lon="5.32024">
        <ele>201.60000610352</ele>
        <time>2021-03-08T13:29:24.000Z</time>
      </trkpt>
      <trkpt lat="46.52641" lon="5.32019">
        <ele>202.19999694824</ele>
        <time>2021-03-08T13:29:25.000Z</time>
      </trkpt>
      <trkpt lat="46.52643" lon="5.32014">
        <ele>202.39999389648</ele>
        <time>2021-03-08T13:29:26.000Z</time>
      </trkpt>
      <trkpt lat="46.52646" lon="5.32003">
        <ele>202.60000610352</ele>
        <time>2021-03-08T13:29:28.000Z</time>
      </trkpt>
      <trkpt lat="46.52649" lon="5.3199">
        <ele>203.19999694824</ele>
        <time>2021-03-08T13:29:30.000Z</time>
      </trkpt>
      <trkpt lat="46.52651" lon="5.31984">
        <ele>203.60000610352</ele>
        <time>2021-03-08T13:29:31.000Z</time>
      </trkpt>
      <trkpt lat="46.52653" lon="5.31979">
        <ele>204</ele>
        <time>2021-03-08T13:29:32.000Z</time>
      </trkpt>
      <trkpt lat="46.52656" lon="5.31968">
        <ele>204.60000610352</ele>
        <time>2021-03-08T13:29:34.000Z</time>
      </trkpt>
      <trkpt lat="46.52659" lon="5.31957">
        <ele>205.39999389648</ele>
        <time>2021-03-08T13:29:36.000Z</time>
      </trkpt>
      <trkpt lat="46.52662" lon="5.31946">
        <ele>205.60000610352</ele>
        <time>2021-03-08T13:29:38.000Z</time>
      </trkpt>
      <trkpt lat="46.52664" lon="5.31935">
        <ele>206</ele>
        <time>2021-03-08T13:29:40.000Z</time>
      </trkpt>
      <trkpt lat="46.52667" lon="5.31924">
        <ele>206.60000610352</ele>
        <time>2021-03-08T13:29:42.000Z</time>
      </trkpt>
      <trkpt lat="46.52668" lon="5.31919">
        <ele>206.80000305176</ele>
        <time>2021-03-08T13:29:43.000Z</time>
      </trkpt>
      <trkpt lat="46.5267" lon="5.31914">
        <ele>207.19999694824</ele>
        <time>2021-03-08T13:29:44.000Z</time>
      </trkpt>
      <trkpt lat="46.52673" lon="5.31903">
        <ele>208</ele>
        <time>2021-03-08T13:29:46.000Z</time>
      </trkpt>
      <trkpt lat="46.52676" lon="5.31893">
        <ele>208.80000305176</ele>
        <time>2021-03-08T13:29:48.000Z</time>
      </trkpt>
      <trkpt lat="46.52677" lon="5.31888">
        <ele>209.19999694824</ele>
        <time>2021-03-08T13:29:49.000Z</time>
      </trkpt>
      <trkpt lat="46.52679" lon="5.31883">
        <ele>209.39999389648</ele>
        <time>2021-03-08T13:29:50.000Z</time>
      </trkpt>
      <trkpt lat="46.52682" lon="5.31872">
        <ele>209.80000305176</ele>
        <time>2021-03-08T13:29:52.000Z</time>
      </trkpt>
      <trkpt lat="46.52685" lon="5.31862">
        <ele>210.39999389648</ele>
        <time>2021-03-08T13:29:54.000Z</time>
      </trkpt>
      <trkpt lat="46.52688" lon="5.31852">
        <ele>211</ele>
        <time>2021-03-08T13:29:56.000Z</time>
      </trkpt>
      <trkpt lat="46.5269" lon="5.31847">
        <ele>211.39999389648</ele>
        <time>2021-03-08T13:29:57.000Z</time>
      </trkpt>
      <trkpt lat="46.52692" lon="5.31841">
        <ele>211.60000610352</ele>
        <time>2021-03-08T13:29:58.000Z</time>
      </trkpt>
      <trkpt lat="46.52697" lon="5.31831">
        <ele>211.80000305176</ele>
        <time>2021-03-08T13:30:00.000Z</time>
      </trkpt>
      <trkpt lat="46.52703" lon="5.31822">
        <ele>212.19999694824</ele>
        <time>2021-03-08T13:30:02.000Z</time>
      </trkpt>
      <trkpt lat="46.52707" lon="5.31817">
        <ele>212</ele>
        <time>2021-03-08T13:30:03.000Z</time>
      </trkpt>
      <trkpt lat="46.5271" lon="5.31813">
        <ele>212.19999694824</ele>
        <time>2021-03-08T13:30:04.000Z</time>
      </trkpt>
      <trkpt lat="46.52713" lon="5.31809">
        <ele>212.39999389648</ele>
        <time>2021-03-08T13:30:05.000Z</time>
      </trkpt>
      <trkpt lat="46.52717" lon="5.31805">
        <ele>212.60000610352</ele>
        <time>2021-03-08T13:30:06.000Z</time>
      </trkpt>
      <trkpt lat="46.52726" lon="5.31799">
        <ele>212.80000305176</ele>
        <time>2021-03-08T13:30:08.000Z</time>
      </trkpt>
      <trkpt lat="46.5273" lon="5.31796">
        <ele>213</ele>
        <time>2021-03-08T13:30:09.000Z</time>
      </trkpt>
      <trkpt lat="46.52735" lon="5.31794">
        <ele>213</ele>
        <time>2021-03-08T13:30:10.000Z</time>
      </trkpt>
      <trkpt lat="46.52745" lon="5.31789">
        <ele>213</ele>
        <time>2021-03-08T13:30:12.000Z</time>
      </trkpt>
      <trkpt lat="46.52754" lon="5.31784">
        <ele>213.19999694824</ele>
        <time>2021-03-08T13:30:14.000Z</time>
      </trkpt>
      <trkpt lat="46.52764" lon="5.31779">
        <ele>213.19999694824</ele>
        <time>2021-03-08T13:30:16.000Z</time>
      </trkpt>
      <trkpt lat="46.52774" lon="5.31775">
        <ele>213.19999694824</ele>
        <time>2021-03-08T13:30:18.000Z</time>
      </trkpt>
      <trkpt lat="46.52779" lon="5.31773">
        <ele>213.19999694824</ele>
        <time>2021-03-08T13:30:19.000Z</time>
      </trkpt>
      <trkpt lat="46.52783" lon="5.31772">
        <ele>213.19999694824</ele>
        <time>2021-03-08T13:30:20.000Z</time>
      </trkpt>
      <trkpt lat="46.52793" lon="5.31768">
        <ele>213.19999694824</ele>
        <time>2021-03-08T13:30:22.000Z</time>
      </trkpt>
      <trkpt lat="46.52803" lon="5.31765">
        <ele>213.19999694824</ele>
        <time>2021-03-08T13:30:24.000Z</time>
      </trkpt>
      <trkpt lat="46.52808" lon="5.31763">
        <ele>213.19999694824</ele>
        <time>2021-03-08T13:30:25.000Z</time>
      </trkpt>
      <trkpt lat="46.52813" lon="5.3176">
        <ele>213.39999389648</ele>
        <time>2021-03-08T13:30:26.000Z</time>
      </trkpt>
      <trkpt lat="46.52823" lon="5.31756">
        <ele>213.39999389648</ele>
        <time>2021-03-08T13:30:28.000Z</time>
      </trkpt>
      <trkpt lat="46.52834" lon="5.31752">
        <ele>213.19999694824</ele>
        <time>2021-03-08T13:30:30.000Z</time>
      </trkpt>
      <trkpt lat="46.52844" lon="5.31746">
        <ele>213.19999694824</ele>
        <time>2021-03-08T13:30:32.000Z</time>
      </trkpt>
      <trkpt lat="46.52855" lon="5.31741">
        <ele>213.19999694824</ele>
        <time>2021-03-08T13:30:34.000Z</time>
      </trkpt>
      <trkpt lat="46.52867" lon="5.31737">
        <ele>213.19999694824</ele>
        <time>2021-03-08T13:30:36.000Z</time>
      </trkpt>
      <trkpt lat="46.52881" lon="5.31734">
        <ele>212.80000305176</ele>
        <time>2021-03-08T13:30:38.000Z</time>
      </trkpt>
      <trkpt lat="46.52887" lon="5.31733">
        <ele>212.80000305176</ele>
        <time>2021-03-08T13:30:39.000Z</time>
      </trkpt>
      <trkpt lat="46.52893" lon="5.31734">
        <ele>212.60000610352</ele>
        <time>2021-03-08T13:30:40.000Z</time>
      </trkpt>
      <trkpt lat="46.52904" lon="5.31738">
        <ele>212.39999389648</ele>
        <time>2021-03-08T13:30:42.000Z</time>
      </trkpt>
      <trkpt lat="46.52915" lon="5.31746">
        <ele>212.19999694824</ele>
        <time>2021-03-08T13:30:44.000Z</time>
      </trkpt>
      <trkpt lat="46.52926" lon="5.31754">
        <ele>212.19999694824</ele>
        <time>2021-03-08T13:30:46.000Z</time>
      </trkpt>
      <trkpt lat="46.52932" lon="5.31759">
        <ele>212.19999694824</ele>
        <time>2021-03-08T13:30:47.000Z</time>
      </trkpt>
      <trkpt lat="46.52937" lon="5.31763">
        <ele>212.19999694824</ele>
        <time>2021-03-08T13:30:48.000Z</time>
      </trkpt>
      <trkpt lat="46.52948" lon="5.31773">
        <ele>212</ele>
        <time>2021-03-08T13:30:50.000Z</time>
      </trkpt>
      <trkpt lat="46.5296" lon="5.31781">
        <ele>212</ele>
        <time>2021-03-08T13:30:52.000Z</time>
      </trkpt>
      <trkpt lat="46.52967" lon="5.31783">
        <ele>211.80000305176</ele>
        <time>2021-03-08T13:30:53.000Z</time>
      </trkpt>
      <trkpt lat="46.52973" lon="5.31785">
        <ele>211.60000610352</ele>
        <time>2021-03-08T13:30:54.000Z</time>
      </trkpt>
      <trkpt lat="46.52987" lon="5.31782">
        <ele>211.60000610352</ele>
        <time>2021-03-08T13:30:56.000Z</time>
      </trkpt>
      <trkpt lat="46.52994" lon="5.31779">
        <ele>211.39999389648</ele>
        <time>2021-03-08T13:30:57.000Z</time>
      </trkpt>
      <trkpt lat="46.53" lon="5.31773">
        <ele>211.39999389648</ele>
        <time>2021-03-08T13:30:58.000Z</time>
      </trkpt>
      <trkpt lat="46.53005" lon="5.31768">
        <ele>211.19999694824</ele>
        <time>2021-03-08T13:30:59.000Z</time>
      </trkpt>
      <trkpt lat="46.5301" lon="5.31761">
        <ele>211.19999694824</ele>
        <time>2021-03-08T13:31:00.000Z</time>
      </trkpt>
      <trkpt lat="46.53016" lon="5.31746">
        <ele>211</ele>
        <time>2021-03-08T13:31:02.000Z</time>
      </trkpt>
      <trkpt lat="46.53019" lon="5.31737">
        <ele>211</ele>
        <time>2021-03-08T13:31:03.000Z</time>
      </trkpt>
      <trkpt lat="46.53023" lon="5.31729">
        <ele>211</ele>
        <time>2021-03-08T13:31:04.000Z</time>
      </trkpt>
      <trkpt lat="46.53029" lon="5.3171">
        <ele>210.80000305176</ele>
        <time>2021-03-08T13:31:06.000Z</time>
      </trkpt>
      <trkpt lat="46.53037" lon="5.31691">
        <ele>210.39999389648</ele>
        <time>2021-03-08T13:31:08.000Z</time>
      </trkpt>
      <trkpt lat="46.53041" lon="5.31682">
        <ele>210.19999694824</ele>
        <time>2021-03-08T13:31:09.000Z</time>
      </trkpt>
      <trkpt lat="46.53045" lon="5.31672">
        <ele>210</ele>
        <time>2021-03-08T13:31:10.000Z</time>
      </trkpt>
      <trkpt lat="46.53058" lon="5.31656">
        <ele>209.60000610352</ele>
        <time>2021-03-08T13:31:12.000Z</time>
      </trkpt>
      <trkpt lat="46.53066" lon="5.31651">
        <ele>209.39999389648</ele>
        <time>2021-03-08T13:31:13.000Z</time>
      </trkpt>
      <trkpt lat="46.53074" lon="5.31647">
        <ele>209.19999694824</ele>
        <time>2021-03-08T13:31:14.000Z</time>
      </trkpt>
      <trkpt lat="46.53082" lon="5.31643">
        <ele>209</ele>
        <time>2021-03-08T13:31:15.000Z</time>
      </trkpt>
      <trkpt lat="46.53091" lon="5.31639">
        <ele>208.80000305176</ele>
        <time>2021-03-08T13:31:16.000Z</time>
      </trkpt>
      <trkpt lat="46.53109" lon="5.31633">
        <ele>208.39999389648</ele>
        <time>2021-03-08T13:31:18.000Z</time>
      </trkpt>
      <trkpt lat="46.53118" lon="5.3163">
        <ele>207.60000610352</ele>
        <time>2021-03-08T13:31:19.000Z</time>
      </trkpt>
      <trkpt lat="46.53126" lon="5.31626">
        <ele>206.39999389648</ele>
        <time>2021-03-08T13:31:20.000Z</time>
      </trkpt>
      <trkpt lat="46.53134" lon="5.31623">
        <ele>205.19999694824</ele>
        <time>2021-03-08T13:31:21.000Z</time>
      </trkpt>
      <trkpt lat="46.53142" lon="5.31619">
        <ele>203.60000610352</ele>
        <time>2021-03-08T13:31:22.000Z</time>
      </trkpt>
      <trkpt lat="46.53159" lon="5.31612">
        <ele>202.60000610352</ele>
        <time>2021-03-08T13:31:24.000Z</time>
      </trkpt>
      <trkpt lat="46.53167" lon="5.31608">
        <ele>202.19999694824</ele>
        <time>2021-03-08T13:31:25.000Z</time>
      </trkpt>
      <trkpt lat="46.53175" lon="5.31605">
        <ele>201.80000305176</ele>
        <time>2021-03-08T13:31:26.000Z</time>
      </trkpt>
      <trkpt lat="46.53183" lon="5.31603">
        <ele>201.19999694824</ele>
        <time>2021-03-08T13:31:27.000Z</time>
      </trkpt>
      <trkpt lat="46.53192" lon="5.31599">
        <ele>200.80000305176</ele>
        <time>2021-03-08T13:31:28.000Z</time>
      </trkpt>
      <trkpt lat="46.53209" lon="5.31592">
        <ele>200.19999694824</ele>
        <time>2021-03-08T13:31:30.000Z</time>
      </trkpt>
      <trkpt lat="46.53218" lon="5.31588">
        <ele>199.60000610352</ele>
        <time>2021-03-08T13:31:31.000Z</time>
      </trkpt>
      <trkpt lat="46.53226" lon="5.31584">
        <ele>199.39999389648</ele>
        <time>2021-03-08T13:31:32.000Z</time>
      </trkpt>
      <trkpt lat="46.53234" lon="5.31579">
        <ele>198.80000305176</ele>
        <time>2021-03-08T13:31:33.000Z</time>
      </trkpt>
      <trkpt lat="46.53243" lon="5.31573">
        <ele>198.39999389648</ele>
        <time>2021-03-08T13:31:34.000Z</time>
      </trkpt>
      <trkpt lat="46.53251" lon="5.31567">
        <ele>197.80000305176</ele>
        <time>2021-03-08T13:31:35.000Z</time>
      </trkpt>
      <trkpt lat="46.53259" lon="5.3156">
        <ele>197.39999389648</ele>
        <time>2021-03-08T13:31:36.000Z</time>
      </trkpt>
      <trkpt lat="46.53267" lon="5.31553">
        <ele>197</ele>
        <time>2021-03-08T13:31:37.000Z</time>
      </trkpt>
      <trkpt lat="46.53276" lon="5.31545">
        <ele>196.60000610352</ele>
        <time>2021-03-08T13:31:38.000Z</time>
      </trkpt>
      <trkpt lat="46.53293" lon="5.31531">
        <ele>195.80000305176</ele>
        <time>2021-03-08T13:31:40.000Z</time>
      </trkpt>
      <trkpt lat="46.53302" lon="5.31524">
        <ele>195.39999389648</ele>
        <time>2021-03-08T13:31:41.000Z</time>
      </trkpt>
      <trkpt lat="46.5331" lon="5.31516">
        <ele>195</ele>
        <time>2021-03-08T13:31:42.000Z</time>
      </trkpt>
      <trkpt lat="46.53317" lon="5.31509">
        <ele>194.39999389648</ele>
        <time>2021-03-08T13:31:43.000Z</time>
      </trkpt>
      <trkpt lat="46.53325" lon="5.31502">
        <ele>193.80000305176</ele>
        <time>2021-03-08T13:31:44.000Z</time>
      </trkpt>
      <trkpt lat="46.53339" lon="5.31489">
        <ele>192.80000305176</ele>
        <time>2021-03-08T13:31:46.000Z</time>
      </trkpt>
      <trkpt lat="46.53352" lon="5.31478">
        <ele>191.80000305176</ele>
        <time>2021-03-08T13:31:48.000Z</time>
      </trkpt>
      <trkpt lat="46.53358" lon="5.31472">
        <ele>191.19999694824</ele>
        <time>2021-03-08T13:31:49.000Z</time>
      </trkpt>
      <trkpt lat="46.53364" lon="5.31467">
        <ele>191</ele>
        <time>2021-03-08T13:31:50.000Z</time>
      </trkpt>
      <trkpt lat="46.53373" lon="5.31456">
        <ele>190.80000305176</ele>
        <time>2021-03-08T13:31:52.000Z</time>
      </trkpt>
      <trkpt lat="46.53377" lon="5.3145">
        <ele>190.80000305176</ele>
        <time>2021-03-08T13:31:53.000Z</time>
      </trkpt>
      <trkpt lat="46.5338" lon="5.31443">
        <ele>190.80000305176</ele>
        <time>2021-03-08T13:31:54.000Z</time>
      </trkpt>
      <trkpt lat="46.53387" lon="5.31429">
        <ele>190.80000305176</ele>
        <time>2021-03-08T13:31:56.000Z</time>
      </trkpt>
      <trkpt lat="46.53393" lon="5.31416">
        <ele>191</ele>
        <time>2021-03-08T13:31:58.000Z</time>
      </trkpt>
      <trkpt lat="46.534" lon="5.31402">
        <ele>191.60000610352</ele>
        <time>2021-03-08T13:32:00.000Z</time>
      </trkpt>
      <trkpt lat="46.53407" lon="5.31388">
        <ele>192</ele>
        <time>2021-03-08T13:32:02.000Z</time>
      </trkpt>
      <trkpt lat="46.53414" lon="5.31373">
        <ele>192</ele>
        <time>2021-03-08T13:32:04.000Z</time>
      </trkpt>
      <trkpt lat="46.53421" lon="5.31359">
        <ele>192</ele>
        <time>2021-03-08T13:32:06.000Z</time>
      </trkpt>
      <trkpt lat="46.53429" lon="5.31342">
        <ele>192</ele>
        <time>2021-03-08T13:32:08.000Z</time>
      </trkpt>
      <trkpt lat="46.53433" lon="5.31333">
        <ele>192</ele>
        <time>2021-03-08T13:32:09.000Z</time>
      </trkpt>
      <trkpt lat="46.53437" lon="5.31324">
        <ele>192</ele>
        <time>2021-03-08T13:32:10.000Z</time>
      </trkpt>
      <trkpt lat="46.53445" lon="5.31306">
        <ele>191.80000305176</ele>
        <time>2021-03-08T13:32:12.000Z</time>
      </trkpt>
      <trkpt lat="46.53453" lon="5.31288">
        <ele>191.60000610352</ele>
        <time>2021-03-08T13:32:14.000Z</time>
      </trkpt>
      <trkpt lat="46.53461" lon="5.31272">
        <ele>191.39999389648</ele>
        <time>2021-03-08T13:32:16.000Z</time>
      </trkpt>
      <trkpt lat="46.53468" lon="5.31255">
        <ele>191.19999694824</ele>
        <time>2021-03-08T13:32:18.000Z</time>
      </trkpt>
      <trkpt lat="46.53471" lon="5.31248">
        <ele>191.19999694824</ele>
        <time>2021-03-08T13:32:19.000Z</time>
      </trkpt>
      <trkpt lat="46.53474" lon="5.3124">
        <ele>191.19999694824</ele>
        <time>2021-03-08T13:32:20.000Z</time>
      </trkpt>
      <trkpt lat="46.5348" lon="5.31226">
        <ele>191.19999694824</ele>
        <time>2021-03-08T13:32:22.000Z</time>
      </trkpt>
      <trkpt lat="46.53484" lon="5.31212">
        <ele>191.19999694824</ele>
        <time>2021-03-08T13:32:24.000Z</time>
      </trkpt>
      <trkpt lat="46.53485" lon="5.31204">
        <ele>191.19999694824</ele>
        <time>2021-03-08T13:32:25.000Z</time>
      </trkpt>
      <trkpt lat="46.53487" lon="5.31197">
        <ele>191.19999694824</ele>
        <time>2021-03-08T13:32:26.000Z</time>
      </trkpt>
      <trkpt lat="46.53489" lon="5.31182">
        <ele>191.80000305176</ele>
        <time>2021-03-08T13:32:28.000Z</time>
      </trkpt>
      <trkpt lat="46.5349" lon="5.31175">
        <ele>192.39999389648</ele>
        <time>2021-03-08T13:32:29.000Z</time>
      </trkpt>
      <trkpt lat="46.5349" lon="5.31168">
        <ele>193</ele>
        <time>2021-03-08T13:32:30.000Z</time>
      </trkpt>
      <trkpt lat="46.53492" lon="5.31154">
        <ele>193.39999389648</ele>
        <time>2021-03-08T13:32:32.000Z</time>
      </trkpt>
      <trkpt lat="46.53493" lon="5.31148">
        <ele>193.60000610352</ele>
        <time>2021-03-08T13:32:33.000Z</time>
      </trkpt>
      <trkpt lat="46.53495" lon="5.31141">
        <ele>193.80000305176</ele>
        <time>2021-03-08T13:32:34.000Z</time>
      </trkpt>
      <trkpt lat="46.53496" lon="5.31135">
        <ele>194.19999694824</ele>
        <time>2021-03-08T13:32:35.000Z</time>
      </trkpt>
      <trkpt lat="46.53498" lon="5.3113">
        <ele>194.39999389648</ele>
        <time>2021-03-08T13:32:36.000Z</time>
      </trkpt>
      <trkpt lat="46.53501" lon="5.31125">
        <ele>194.60000610352</ele>
        <time>2021-03-08T13:32:37.000Z</time>
      </trkpt>
      <trkpt lat="46.53504" lon="5.3112">
        <ele>194.80000305176</ele>
        <time>2021-03-08T13:32:38.000Z</time>
      </trkpt>
      <trkpt lat="46.5351" lon="5.31112">
        <ele>195.19999694824</ele>
        <time>2021-03-08T13:32:40.000Z</time>
      </trkpt>
      <trkpt lat="46.53514" lon="5.31108">
        <ele>195.60000610352</ele>
        <time>2021-03-08T13:32:41.000Z</time>
      </trkpt>
      <trkpt lat="46.53518" lon="5.31105">
        <ele>195.80000305176</ele>
        <time>2021-03-08T13:32:42.000Z</time>
      </trkpt>
      <trkpt lat="46.53522" lon="5.31102">
        <ele>196</ele>
        <time>2021-03-08T13:32:43.000Z</time>
      </trkpt>
      <trkpt lat="46.53526" lon="5.31099">
        <ele>196.19999694824</ele>
        <time>2021-03-08T13:32:44.000Z</time>
      </trkpt>
      <trkpt lat="46.53534" lon="5.31094">
        <ele>196.60000610352</ele>
        <time>2021-03-08T13:32:46.000Z</time>
      </trkpt>
      <trkpt lat="46.53542" lon="5.3109">
        <ele>197</ele>
        <time>2021-03-08T13:32:48.000Z</time>
      </trkpt>
      <trkpt lat="46.53551" lon="5.31085">
        <ele>197.19999694824</ele>
        <time>2021-03-08T13:32:50.000Z</time>
      </trkpt>
      <trkpt lat="46.53559" lon="5.3108">
        <ele>197.39999389648</ele>
        <time>2021-03-08T13:32:52.000Z</time>
      </trkpt>
      <trkpt lat="46.53568" lon="5.31075">
        <ele>197.39999389648</ele>
        <time>2021-03-08T13:32:54.000Z</time>
      </trkpt>
      <trkpt lat="46.53578" lon="5.31069">
        <ele>197.60000610352</ele>
        <time>2021-03-08T13:32:56.000Z</time>
      </trkpt>
      <trkpt lat="46.53588" lon="5.31064">
        <ele>197.60000610352</ele>
        <time>2021-03-08T13:32:58.000Z</time>
      </trkpt>
      <trkpt lat="46.53597" lon="5.31057">
        <ele>197.60000610352</ele>
        <time>2021-03-08T13:33:00.000Z</time>
      </trkpt>
      <trkpt lat="46.53607" lon="5.31051">
        <ele>197.60000610352</ele>
        <time>2021-03-08T13:33:02.000Z</time>
      </trkpt>
      <trkpt lat="46.53617" lon="5.31045">
        <ele>197.60000610352</ele>
        <time>2021-03-08T13:33:04.000Z</time>
      </trkpt>
      <trkpt lat="46.53627" lon="5.31039">
        <ele>197.39999389648</ele>
        <time>2021-03-08T13:33:06.000Z</time>
      </trkpt>
      <trkpt lat="46.53637" lon="5.31033">
        <ele>197</ele>
        <time>2021-03-08T13:33:08.000Z</time>
      </trkpt>
      <trkpt lat="46.53647" lon="5.31028">
        <ele>196.80000305176</ele>
        <time>2021-03-08T13:33:10.000Z</time>
      </trkpt>
      <trkpt lat="46.53658" lon="5.31025">
        <ele>196.80000305176</ele>
        <time>2021-03-08T13:33:12.000Z</time>
      </trkpt>
      <trkpt lat="46.53664" lon="5.31025">
        <ele>196.80000305176</ele>
        <time>2021-03-08T13:33:13.000Z</time>
      </trkpt>
      <trkpt lat="46.53669" lon="5.31025">
        <ele>196.80000305176</ele>
        <time>2021-03-08T13:33:14.000Z</time>
      </trkpt>
      <trkpt lat="46.53675" lon="5.31025">
        <ele>196.80000305176</ele>
        <time>2021-03-08T13:33:15.000Z</time>
      </trkpt>
      <trkpt lat="46.5368" lon="5.31026">
        <ele>196.80000305176</ele>
        <time>2021-03-08T13:33:16.000Z</time>
      </trkpt>
      <trkpt lat="46.53691" lon="5.31029">
        <ele>196.80000305176</ele>
        <time>2021-03-08T13:33:18.000Z</time>
      </trkpt>
      <trkpt lat="46.53703" lon="5.31031">
        <ele>196.80000305176</ele>
        <time>2021-03-08T13:33:20.000Z</time>
      </trkpt>
      <trkpt lat="46.53714" lon="5.31032">
        <ele>196.80000305176</ele>
        <time>2021-03-08T13:33:22.000Z</time>
      </trkpt>
      <trkpt lat="46.53719" lon="5.31032">
        <ele>196.80000305176</ele>
        <time>2021-03-08T13:33:23.000Z</time>
      </trkpt>
      <trkpt lat="46.53725" lon="5.31032">
        <ele>196.80000305176</ele>
        <time>2021-03-08T13:33:24.000Z</time>
      </trkpt>
      <trkpt lat="46.53731" lon="5.31032">
        <ele>196.80000305176</ele>
        <time>2021-03-08T13:33:25.000Z</time>
      </trkpt>
      <trkpt lat="46.53736" lon="5.31031">
        <ele>196.80000305176</ele>
        <time>2021-03-08T13:33:26.000Z</time>
      </trkpt>
      <trkpt lat="46.53748" lon="5.31027">
        <ele>196.80000305176</ele>
        <time>2021-03-08T13:33:28.000Z</time>
      </trkpt>
      <trkpt lat="46.5376" lon="5.31023">
        <ele>196.80000305176</ele>
        <time>2021-03-08T13:33:30.000Z</time>
      </trkpt>
      <trkpt lat="46.53773" lon="5.31019">
        <ele>196.80000305176</ele>
        <time>2021-03-08T13:33:32.000Z</time>
      </trkpt>
      <trkpt lat="46.53787" lon="5.31015">
        <ele>196.60000610352</ele>
        <time>2021-03-08T13:33:34.000Z</time>
      </trkpt>
      <trkpt lat="46.53793" lon="5.31011">
        <ele>196.39999389648</ele>
        <time>2021-03-08T13:33:35.000Z</time>
      </trkpt>
      <trkpt lat="46.538" lon="5.31005">
        <ele>196.19999694824</ele>
        <time>2021-03-08T13:33:36.000Z</time>
      </trkpt>
      <trkpt lat="46.53809" lon="5.30989">
        <ele>196.19999694824</ele>
        <time>2021-03-08T13:33:38.000Z</time>
      </trkpt>
      <trkpt lat="46.53813" lon="5.30979">
        <ele>196.19999694824</ele>
        <time>2021-03-08T13:33:39.000Z</time>
      </trkpt>
      <trkpt lat="46.53817" lon="5.3097">
        <ele>196</ele>
        <time>2021-03-08T13:33:40.000Z</time>
      </trkpt>
      <trkpt lat="46.53821" lon="5.3096">
        <ele>195.60000610352</ele>
        <time>2021-03-08T13:33:41.000Z</time>
      </trkpt>
      <trkpt lat="46.53825" lon="5.30951">
        <ele>195.19999694824</ele>
        <time>2021-03-08T13:33:42.000Z</time>
      </trkpt>
      <trkpt lat="46.53832" lon="5.30932">
        <ele>194.39999389648</ele>
        <time>2021-03-08T13:33:44.000Z</time>
      </trkpt>
      <trkpt lat="46.5384" lon="5.30915">
        <ele>194</ele>
        <time>2021-03-08T13:33:46.000Z</time>
      </trkpt>
      <trkpt lat="46.53847" lon="5.30898">
        <ele>194</ele>
        <time>2021-03-08T13:33:48.000Z</time>
      </trkpt>
      <trkpt lat="46.53854" lon="5.30881">
        <ele>193.80000305176</ele>
        <time>2021-03-08T13:33:50.000Z</time>
      </trkpt>
      <trkpt lat="46.5386" lon="5.30865">
        <ele>193.80000305176</ele>
        <time>2021-03-08T13:33:52.000Z</time>
      </trkpt>
      <trkpt lat="46.53864" lon="5.30857">
        <ele>193.80000305176</ele>
        <time>2021-03-08T13:33:53.000Z</time>
      </trkpt>
      <trkpt lat="46.53867" lon="5.3085">
        <ele>193.80000305176</ele>
        <time>2021-03-08T13:33:54.000Z</time>
      </trkpt>
      <trkpt lat="46.53872" lon="5.30836">
        <ele>194</ele>
        <time>2021-03-08T13:33:56.000Z</time>
      </trkpt>
      <trkpt lat="46.53877" lon="5.30823">
        <ele>194.39999389648</ele>
        <time>2021-03-08T13:33:58.000Z</time>
      </trkpt>
      <trkpt lat="46.53881" lon="5.30811">
        <ele>194.19999694824</ele>
        <time>2021-03-08T13:34:00.000Z</time>
      </trkpt>
      <trkpt lat="46.53885" lon="5.30799">
        <ele>194.80000305176</ele>
        <time>2021-03-08T13:34:02.000Z</time>
      </trkpt>
      <trkpt lat="46.53888" lon="5.30786">
        <ele>195.19999694824</ele>
        <time>2021-03-08T13:34:04.000Z</time>
      </trkpt>
      <trkpt lat="46.5389" lon="5.3078">
        <ele>195.60000610352</ele>
        <time>2021-03-08T13:34:05.000Z</time>
      </trkpt>
      <trkpt lat="46.53891" lon="5.30774">
        <ele>196</ele>
        <time>2021-03-08T13:34:06.000Z</time>
      </trkpt>
      <trkpt lat="46.53892" lon="5.30768">
        <ele>196.39999389648</ele>
        <time>2021-03-08T13:34:07.000Z</time>
      </trkpt>
      <trkpt lat="46.53892" lon="5.30762">
        <ele>196.80000305176</ele>
        <time>2021-03-08T13:34:08.000Z</time>
      </trkpt>
      <trkpt lat="46.53893" lon="5.3075">
        <ele>197.19999694824</ele>
        <time>2021-03-08T13:34:10.000Z</time>
      </trkpt>
      <trkpt lat="46.53894" lon="5.30744">
        <ele>197.80000305176</ele>
        <time>2021-03-08T13:34:11.000Z</time>
      </trkpt>
      <trkpt lat="46.53894" lon="5.30738">
        <ele>198.19999694824</ele>
        <time>2021-03-08T13:34:12.000Z</time>
      </trkpt>
      <trkpt lat="46.53894" lon="5.30726">
        <ele>198.60000610352</ele>
        <time>2021-03-08T13:34:14.000Z</time>
      </trkpt>
      <trkpt lat="46.53895" lon="5.3072">
        <ele>199</ele>
        <time>2021-03-08T13:34:15.000Z</time>
      </trkpt>
      <trkpt lat="46.53895" lon="5.30714">
        <ele>199.19999694824</ele>
        <time>2021-03-08T13:34:16.000Z</time>
      </trkpt>
      <trkpt lat="46.53896" lon="5.30701">
        <ele>200</ele>
        <time>2021-03-08T13:34:18.000Z</time>
      </trkpt>
      <trkpt lat="46.53896" lon="5.30695">
        <ele>200.19999694824</ele>
        <time>2021-03-08T13:34:19.000Z</time>
      </trkpt>
      <trkpt lat="46.53897" lon="5.30688">
        <ele>200.60000610352</ele>
        <time>2021-03-08T13:34:20.000Z</time>
      </trkpt>
      <trkpt lat="46.53899" lon="5.30674">
        <ele>201.19999694824</ele>
        <time>2021-03-08T13:34:22.000Z</time>
      </trkpt>
      <trkpt lat="46.539" lon="5.30667">
        <ele>201.19999694824</ele>
        <time>2021-03-08T13:34:23.000Z</time>
      </trkpt>
      <trkpt lat="46.53901" lon="5.30661">
        <ele>201.39999389648</ele>
        <time>2021-03-08T13:34:24.000Z</time>
      </trkpt>
      <trkpt lat="46.53904" lon="5.30648">
        <ele>202</ele>
        <time>2021-03-08T13:34:26.000Z</time>
      </trkpt>
      <trkpt lat="46.53908" lon="5.30635">
        <ele>202</ele>
        <time>2021-03-08T13:34:28.000Z</time>
      </trkpt>
      <trkpt lat="46.53912" lon="5.30623">
        <ele>202.19999694824</ele>
        <time>2021-03-08T13:34:30.000Z</time>
      </trkpt>
      <trkpt lat="46.53916" lon="5.30611">
        <ele>202.19999694824</ele>
        <time>2021-03-08T13:34:32.000Z</time>
      </trkpt>
      <trkpt lat="46.53919" lon="5.30605">
        <ele>202.39999389648</ele>
        <time>2021-03-08T13:34:33.000Z</time>
      </trkpt>
      <trkpt lat="46.53921" lon="5.306">
        <ele>202.39999389648</ele>
        <time>2021-03-08T13:34:34.000Z</time>
      </trkpt>
      <trkpt lat="46.53925" lon="5.30589">
        <ele>202.60000610352</ele>
        <time>2021-03-08T13:34:36.000Z</time>
      </trkpt>
      <trkpt lat="46.5393" lon="5.30579">
        <ele>202.80000305176</ele>
        <time>2021-03-08T13:34:38.000Z</time>
      </trkpt>
      <trkpt lat="46.53936" lon="5.30569">
        <ele>203</ele>
        <time>2021-03-08T13:34:40.000Z</time>
      </trkpt>
      <trkpt lat="46.53939" lon="5.30565">
        <ele>203.19999694824</ele>
        <time>2021-03-08T13:34:41.000Z</time>
      </trkpt>
      <trkpt lat="46.53942" lon="5.30561">
        <ele>203.19999694824</ele>
        <time>2021-03-08T13:34:42.000Z</time>
      </trkpt>
      <trkpt lat="46.53948" lon="5.30554">
        <ele>203.80000305176</ele>
        <time>2021-03-08T13:34:44.000Z</time>
      </trkpt>
      <trkpt lat="46.53954" lon="5.30549">
        <ele>204.80000305176</ele>
        <time>2021-03-08T13:34:46.000Z</time>
      </trkpt>
      <trkpt lat="46.53958" lon="5.30547">
        <ele>205.19999694824</ele>
        <time>2021-03-08T13:34:47.000Z</time>
      </trkpt>
      <trkpt lat="46.53961" lon="5.30545">
        <ele>205.19999694824</ele>
        <time>2021-03-08T13:34:48.000Z</time>
      </trkpt>
      <trkpt lat="46.53968" lon="5.30541">
        <ele>205.39999389648</ele>
        <time>2021-03-08T13:34:50.000Z</time>
      </trkpt>
      <trkpt lat="46.53975" lon="5.30538">
        <ele>205.80000305176</ele>
        <time>2021-03-08T13:34:52.000Z</time>
      </trkpt>
      <trkpt lat="46.53982" lon="5.30534">
        <ele>206</ele>
        <time>2021-03-08T13:34:54.000Z</time>
      </trkpt>
      <trkpt lat="46.53989" lon="5.3053">
        <ele>206.39999389648</ele>
        <time>2021-03-08T13:34:56.000Z</time>
      </trkpt>
      <trkpt lat="46.53996" lon="5.30525">
        <ele>206.60000610352</ele>
        <time>2021-03-08T13:34:58.000Z</time>
      </trkpt>
      <trkpt lat="46.54003" lon="5.3052">
        <ele>207.19999694824</ele>
        <time>2021-03-08T13:35:00.000Z</time>
      </trkpt>
      <trkpt lat="46.5401" lon="5.30515">
        <ele>207.60000610352</ele>
        <time>2021-03-08T13:35:02.000Z</time>
      </trkpt>
      <trkpt lat="46.54017" lon="5.3051">
        <ele>208.19999694824</ele>
        <time>2021-03-08T13:35:04.000Z</time>
      </trkpt>
      <trkpt lat="46.54023" lon="5.30502">
        <ele>208.60000610352</ele>
        <time>2021-03-08T13:35:06.000Z</time>
      </trkpt>
      <trkpt lat="46.5403" lon="5.30493">
        <ele>209.19999694824</ele>
        <time>2021-03-08T13:35:08.000Z</time>
      </trkpt>
      <trkpt lat="46.54036" lon="5.30484">
        <ele>209.39999389648</ele>
        <time>2021-03-08T13:35:10.000Z</time>
      </trkpt>
      <trkpt lat="46.54039" lon="5.30478">
        <ele>209.39999389648</ele>
        <time>2021-03-08T13:35:11.000Z</time>
      </trkpt>
      <trkpt lat="46.54045" lon="5.30467">
        <ele>209.60000610352</ele>
        <time>2021-03-08T13:35:13.000Z</time>
      </trkpt>
      <trkpt lat="46.54048" lon="5.3046">
        <ele>209.80000305176</ele>
        <time>2021-03-08T13:35:14.000Z</time>
      </trkpt>
      <trkpt lat="46.54051" lon="5.30453">
        <ele>209.80000305176</ele>
        <time>2021-03-08T13:35:15.000Z</time>
      </trkpt>
      <trkpt lat="46.54055" lon="5.30438">
        <ele>209.80000305176</ele>
        <time>2021-03-08T13:35:17.000Z</time>
      </trkpt>
      <trkpt lat="46.54058" lon="5.30423">
        <ele>209.80000305176</ele>
        <time>2021-03-08T13:35:19.000Z</time>
      </trkpt>
      <trkpt lat="46.5406" lon="5.30416">
        <ele>209.80000305176</ele>
        <time>2021-03-08T13:35:20.000Z</time>
      </trkpt>
      <trkpt lat="46.54062" lon="5.30408">
        <ele>209.80000305176</ele>
        <time>2021-03-08T13:35:21.000Z</time>
      </trkpt>
      <trkpt lat="46.54065" lon="5.30393">
        <ele>210</ele>
        <time>2021-03-08T13:35:23.000Z</time>
      </trkpt>
      <trkpt lat="46.54069" lon="5.30377">
        <ele>210</ele>
        <time>2021-03-08T13:35:25.000Z</time>
      </trkpt>
      <trkpt lat="46.54073" lon="5.30362">
        <ele>210</ele>
        <time>2021-03-08T13:35:27.000Z</time>
      </trkpt>
      <trkpt lat="46.54077" lon="5.30347">
        <ele>210</ele>
        <time>2021-03-08T13:35:29.000Z</time>
      </trkpt>
      <trkpt lat="46.54081" lon="5.30331">
        <ele>210</ele>
        <time>2021-03-08T13:35:31.000Z</time>
      </trkpt>
      <trkpt lat="46.54086" lon="5.30317">
        <ele>210</ele>
        <time>2021-03-08T13:35:33.000Z</time>
      </trkpt>
      <trkpt lat="46.5409" lon="5.30302">
        <ele>210</ele>
        <time>2021-03-08T13:35:35.000Z</time>
      </trkpt>
      <trkpt lat="46.54095" lon="5.30286">
        <ele>210</ele>
        <time>2021-03-08T13:35:37.000Z</time>
      </trkpt>
      <trkpt lat="46.541" lon="5.30272">
        <ele>210.19999694824</ele>
        <time>2021-03-08T13:35:39.000Z</time>
      </trkpt>
      <trkpt lat="46.54105" lon="5.30258">
        <ele>210.19999694824</ele>
        <time>2021-03-08T13:35:41.000Z</time>
      </trkpt>
      <trkpt lat="46.5411" lon="5.30245">
        <ele>210.19999694824</ele>
        <time>2021-03-08T13:35:43.000Z</time>
      </trkpt>
      <trkpt lat="46.54115" lon="5.30228">
        <ele>210.19999694824</ele>
        <time>2021-03-08T13:35:45.000Z</time>
      </trkpt>
      <trkpt lat="46.54121" lon="5.30213">
        <ele>210.19999694824</ele>
        <time>2021-03-08T13:35:47.000Z</time>
      </trkpt>
      <trkpt lat="46.54125" lon="5.30196">
        <ele>210.19999694824</ele>
        <time>2021-03-08T13:35:49.000Z</time>
      </trkpt>
      <trkpt lat="46.54128" lon="5.30188">
        <ele>210.19999694824</ele>
        <time>2021-03-08T13:35:50.000Z</time>
      </trkpt>
      <trkpt lat="46.54131" lon="5.3018">
        <ele>210.19999694824</ele>
        <time>2021-03-08T13:35:51.000Z</time>
      </trkpt>
      <trkpt lat="46.54136" lon="5.30164">
        <ele>210.19999694824</ele>
        <time>2021-03-08T13:35:53.000Z</time>
      </trkpt>
      <trkpt lat="46.54141" lon="5.30148">
        <ele>210.19999694824</ele>
        <time>2021-03-08T13:35:55.000Z</time>
      </trkpt>
      <trkpt lat="46.54146" lon="5.30132">
        <ele>210.19999694824</ele>
        <time>2021-03-08T13:35:57.000Z</time>
      </trkpt>
      <trkpt lat="46.54148" lon="5.30124">
        <ele>210.19999694824</ele>
        <time>2021-03-08T13:35:58.000Z</time>
      </trkpt>
      <trkpt lat="46.54152" lon="5.30117">
        <ele>210.19999694824</ele>
        <time>2021-03-08T13:35:59.000Z</time>
      </trkpt>
      <trkpt lat="46.54162" lon="5.30108">
        <ele>210.19999694824</ele>
        <time>2021-03-08T13:36:01.000Z</time>
      </trkpt>
      <trkpt lat="46.54173" lon="5.30104">
        <ele>210.19999694824</ele>
        <time>2021-03-08T13:36:03.000Z</time>
      </trkpt>
      <trkpt lat="46.54185" lon="5.30099">
        <ele>210.19999694824</ele>
        <time>2021-03-08T13:36:05.000Z</time>
      </trkpt>
      <trkpt lat="46.54197" lon="5.30096">
        <ele>210</ele>
        <time>2021-03-08T13:36:07.000Z</time>
      </trkpt>
      <trkpt lat="46.54209" lon="5.30095">
        <ele>209.60000610352</ele>
        <time>2021-03-08T13:36:09.000Z</time>
      </trkpt>
      <trkpt lat="46.54221" lon="5.30095">
        <ele>209</ele>
        <time>2021-03-08T13:36:11.000Z</time>
      </trkpt>
      <trkpt lat="46.54233" lon="5.30097">
        <ele>208.39999389648</ele>
        <time>2021-03-08T13:36:13.000Z</time>
      </trkpt>
      <trkpt lat="46.54239" lon="5.30097">
        <ele>207.80000305176</ele>
        <time>2021-03-08T13:36:14.000Z</time>
      </trkpt>
      <trkpt lat="46.54245" lon="5.30098">
        <ele>207.80000305176</ele>
        <time>2021-03-08T13:36:15.000Z</time>
      </trkpt>
      <trkpt lat="46.54252" lon="5.30099">
        <ele>207.60000610352</ele>
        <time>2021-03-08T13:36:16.000Z</time>
      </trkpt>
      <trkpt lat="46.54264" lon="5.30102">
        <ele>207.60000610352</ele>
        <time>2021-03-08T13:36:18.000Z</time>
      </trkpt>
      <trkpt lat="46.54277" lon="5.30104">
        <ele>207.39999389648</ele>
        <time>2021-03-08T13:36:20.000Z</time>
      </trkpt>
      <trkpt lat="46.54283" lon="5.30104">
        <ele>207.39999389648</ele>
        <time>2021-03-08T13:36:21.000Z</time>
      </trkpt>
      <trkpt lat="46.54296" lon="5.30105">
        <ele>207.39999389648</ele>
        <time>2021-03-08T13:36:23.000Z</time>
      </trkpt>
      <trkpt lat="46.54308" lon="5.30106">
        <ele>207.39999389648</ele>
        <time>2021-03-08T13:36:25.000Z</time>
      </trkpt>
      <trkpt lat="46.54322" lon="5.30109">
        <ele>207</ele>
        <time>2021-03-08T13:36:27.000Z</time>
      </trkpt>
      <trkpt lat="46.54328" lon="5.30112">
        <ele>206.80000305176</ele>
        <time>2021-03-08T13:36:28.000Z</time>
      </trkpt>
      <trkpt lat="46.54335" lon="5.30114">
        <ele>206.60000610352</ele>
        <time>2021-03-08T13:36:29.000Z</time>
      </trkpt>
      <trkpt lat="46.54349" lon="5.3012">
        <ele>206.39999389648</ele>
        <time>2021-03-08T13:36:31.000Z</time>
      </trkpt>
      <trkpt lat="46.54364" lon="5.30126">
        <ele>206.19999694824</ele>
        <time>2021-03-08T13:36:33.000Z</time>
      </trkpt>
      <trkpt lat="46.54379" lon="5.30133">
        <ele>206.19999694824</ele>
        <time>2021-03-08T13:36:35.000Z</time>
      </trkpt>
      <trkpt lat="46.54394" lon="5.30139">
        <ele>205.39999389648</ele>
        <time>2021-03-08T13:36:37.000Z</time>
      </trkpt>
      <trkpt lat="46.5441" lon="5.30144">
        <ele>205</ele>
        <time>2021-03-08T13:36:39.000Z</time>
      </trkpt>
      <trkpt lat="46.54417" lon="5.30146">
        <ele>204.39999389648</ele>
        <time>2021-03-08T13:36:40.000Z</time>
      </trkpt>
      <trkpt lat="46.54425" lon="5.30147">
        <ele>203.80000305176</ele>
        <time>2021-03-08T13:36:41.000Z</time>
      </trkpt>
      <trkpt lat="46.54433" lon="5.30147">
        <ele>203.60000610352</ele>
        <time>2021-03-08T13:36:42.000Z</time>
      </trkpt>
      <trkpt lat="46.54441" lon="5.30148">
        <ele>202.80000305176</ele>
        <time>2021-03-08T13:36:43.000Z</time>
      </trkpt>
      <trkpt lat="46.54458" lon="5.30146">
        <ele>202</ele>
        <time>2021-03-08T13:36:45.000Z</time>
      </trkpt>
      <trkpt lat="46.54466" lon="5.30144">
        <ele>201.60000610352</ele>
        <time>2021-03-08T13:36:46.000Z</time>
      </trkpt>
      <trkpt lat="46.54474" lon="5.30142">
        <ele>201.39999389648</ele>
        <time>2021-03-08T13:36:47.000Z</time>
      </trkpt>
      <trkpt lat="46.5449" lon="5.30135">
        <ele>201</ele>
        <time>2021-03-08T13:36:49.000Z</time>
      </trkpt>
      <trkpt lat="46.54498" lon="5.30132">
        <ele>200.60000610352</ele>
        <time>2021-03-08T13:36:50.000Z</time>
      </trkpt>
      <trkpt lat="46.54506" lon="5.30127">
        <ele>200.39999389648</ele>
        <time>2021-03-08T13:36:51.000Z</time>
      </trkpt>
      <trkpt lat="46.54522" lon="5.30118">
        <ele>199.80000305176</ele>
        <time>2021-03-08T13:36:53.000Z</time>
      </trkpt>
      <trkpt lat="46.54538" lon="5.30108">
        <ele>199.19999694824</ele>
        <time>2021-03-08T13:36:55.000Z</time>
      </trkpt>
      <trkpt lat="46.54555" lon="5.30099">
        <ele>198.19999694824</ele>
        <time>2021-03-08T13:36:57.000Z</time>
      </trkpt>
      <trkpt lat="46.54571" lon="5.30088">
        <ele>197</ele>
        <time>2021-03-08T13:36:59.000Z</time>
      </trkpt>
      <trkpt lat="46.54588" lon="5.30078">
        <ele>196.19999694824</ele>
        <time>2021-03-08T13:37:01.000Z</time>
      </trkpt>
      <trkpt lat="46.54596" lon="5.30073">
        <ele>195.60000610352</ele>
        <time>2021-03-08T13:37:02.000Z</time>
      </trkpt>
      <trkpt lat="46.54604" lon="5.30068">
        <ele>195</ele>
        <time>2021-03-08T13:37:03.000Z</time>
      </trkpt>
      <trkpt lat="46.54621" lon="5.30058">
        <ele>194.19999694824</ele>
        <time>2021-03-08T13:37:05.000Z</time>
      </trkpt>
      <trkpt lat="46.54638" lon="5.30047">
        <ele>193.60000610352</ele>
        <time>2021-03-08T13:37:07.000Z</time>
      </trkpt>
      <trkpt lat="46.54647" lon="5.30042">
        <ele>193.19999694824</ele>
        <time>2021-03-08T13:37:08.000Z</time>
      </trkpt>
      <trkpt lat="46.54655" lon="5.30036">
        <ele>192.80000305176</ele>
        <time>2021-03-08T13:37:09.000Z</time>
      </trkpt>
      <trkpt lat="46.54673" lon="5.30026">
        <ele>191.80000305176</ele>
        <time>2021-03-08T13:37:11.000Z</time>
      </trkpt>
      <trkpt lat="46.54681" lon="5.30021">
        <ele>190.80000305176</ele>
        <time>2021-03-08T13:37:12.000Z</time>
      </trkpt>
      <trkpt lat="46.5469" lon="5.30015">
        <ele>190.39999389648</ele>
        <time>2021-03-08T13:37:13.000Z</time>
      </trkpt>
      <trkpt lat="46.54707" lon="5.30004">
        <ele>189.19999694824</ele>
        <time>2021-03-08T13:37:15.000Z</time>
      </trkpt>
      <trkpt lat="46.54723" lon="5.29992">
        <ele>188</ele>
        <time>2021-03-08T13:37:17.000Z</time>
      </trkpt>
      <trkpt lat="46.54738" lon="5.29979">
        <ele>187</ele>
        <time>2021-03-08T13:37:19.000Z</time>
      </trkpt>
      <trkpt lat="46.54753" lon="5.29967">
        <ele>186.19999694824</ele>
        <time>2021-03-08T13:37:21.000Z</time>
      </trkpt>
      <trkpt lat="46.54767" lon="5.29955">
        <ele>185.80000305176</ele>
        <time>2021-03-08T13:37:23.000Z</time>
      </trkpt>
      <trkpt lat="46.5478" lon="5.29942">
        <ele>185.60000610352</ele>
        <time>2021-03-08T13:37:25.000Z</time>
      </trkpt>
      <trkpt lat="46.54793" lon="5.29929">
        <ele>185.19999694824</ele>
        <time>2021-03-08T13:37:27.000Z</time>
      </trkpt>
      <trkpt lat="46.54804" lon="5.29915">
        <ele>184.80000305176</ele>
        <time>2021-03-08T13:37:29.000Z</time>
      </trkpt>
      <trkpt lat="46.5481" lon="5.29908">
        <ele>184.60000610352</ele>
        <time>2021-03-08T13:37:30.000Z</time>
      </trkpt>
      <trkpt lat="46.54816" lon="5.29901">
        <ele>184.60000610352</ele>
        <time>2021-03-08T13:37:31.000Z</time>
      </trkpt>
      <trkpt lat="46.54827" lon="5.29887">
        <ele>184.19999694824</ele>
        <time>2021-03-08T13:37:33.000Z</time>
      </trkpt>
      <trkpt lat="46.54838" lon="5.29873">
        <ele>184</ele>
        <time>2021-03-08T13:37:35.000Z</time>
      </trkpt>
      <trkpt lat="46.54848" lon="5.29859">
        <ele>184</ele>
        <time>2021-03-08T13:37:37.000Z</time>
      </trkpt>
      <trkpt lat="46.54858" lon="5.29846">
        <ele>184</ele>
        <time>2021-03-08T13:37:39.000Z</time>
      </trkpt>
      <trkpt lat="46.54868" lon="5.29832">
        <ele>184.19999694824</ele>
        <time>2021-03-08T13:37:41.000Z</time>
      </trkpt>
      <trkpt lat="46.54873" lon="5.29826">
        <ele>184.19999694824</ele>
        <time>2021-03-08T13:37:42.000Z</time>
      </trkpt>
      <trkpt lat="46.54877" lon="5.2982">
        <ele>184.19999694824</ele>
        <time>2021-03-08T13:37:43.000Z</time>
      </trkpt>
      <trkpt lat="46.54887" lon="5.29808">
        <ele>184.60000610352</ele>
        <time>2021-03-08T13:37:45.000Z</time>
      </trkpt>
      <trkpt lat="46.54896" lon="5.29794">
        <ele>185</ele>
        <time>2021-03-08T13:37:47.000Z</time>
      </trkpt>
      <trkpt lat="46.54906" lon="5.2978">
        <ele>185.19999694824</ele>
        <time>2021-03-08T13:37:49.000Z</time>
      </trkpt>
      <trkpt lat="46.54915" lon="5.29764">
        <ele>185.39999389648</ele>
        <time>2021-03-08T13:37:51.000Z</time>
      </trkpt>
      <trkpt lat="46.54924" lon="5.29749">
        <ele>185.39999389648</ele>
        <time>2021-03-08T13:37:53.000Z</time>
      </trkpt>
      <trkpt lat="46.54933" lon="5.29732">
        <ele>185.39999389648</ele>
        <time>2021-03-08T13:37:55.000Z</time>
      </trkpt>
      <trkpt lat="46.54941" lon="5.29715">
        <ele>185.39999389648</ele>
        <time>2021-03-08T13:37:57.000Z</time>
      </trkpt>
      <trkpt lat="46.54947" lon="5.29698">
        <ele>185.39999389648</ele>
        <time>2021-03-08T13:37:59.000Z</time>
      </trkpt>
      <trkpt lat="46.54952" lon="5.2968">
        <ele>185.39999389648</ele>
        <time>2021-03-08T13:38:01.000Z</time>
      </trkpt>
      <trkpt lat="46.54954" lon="5.29671">
        <ele>185.39999389648</ele>
        <time>2021-03-08T13:38:02.000Z</time>
      </trkpt>
      <trkpt lat="46.54955" lon="5.29662">
        <ele>185.39999389648</ele>
        <time>2021-03-08T13:38:03.000Z</time>
      </trkpt>
      <trkpt lat="46.54958" lon="5.29645">
        <ele>185.39999389648</ele>
        <time>2021-03-08T13:38:05.000Z</time>
      </trkpt>
      <trkpt lat="46.54961" lon="5.29629">
        <ele>185.39999389648</ele>
        <time>2021-03-08T13:38:07.000Z</time>
      </trkpt>
      <trkpt lat="46.54963" lon="5.29622">
        <ele>185.39999389648</ele>
        <time>2021-03-08T13:38:08.000Z</time>
      </trkpt>
      <trkpt lat="46.54964" lon="5.29614">
        <ele>185.39999389648</ele>
        <time>2021-03-08T13:38:09.000Z</time>
      </trkpt>
      <trkpt lat="46.54969" lon="5.29601">
        <ele>185.80000305176</ele>
        <time>2021-03-08T13:38:11.000Z</time>
      </trkpt>
      <trkpt lat="46.54974" lon="5.29589">
        <ele>186.39999389648</ele>
        <time>2021-03-08T13:38:13.000Z</time>
      </trkpt>
      <trkpt lat="46.54979" lon="5.29578">
        <ele>187</ele>
        <time>2021-03-08T13:38:15.000Z</time>
      </trkpt>
      <trkpt lat="46.54985" lon="5.29568">
        <ele>187.39999389648</ele>
        <time>2021-03-08T13:38:17.000Z</time>
      </trkpt>
      <trkpt lat="46.54991" lon="5.29559">
        <ele>188</ele>
        <time>2021-03-08T13:38:19.000Z</time>
      </trkpt>
      <trkpt lat="46.54998" lon="5.29549">
        <ele>188.80000305176</ele>
        <time>2021-03-08T13:38:21.000Z</time>
      </trkpt>
      <trkpt lat="46.55001" lon="5.29544">
        <ele>189.19999694824</ele>
        <time>2021-03-08T13:38:22.000Z</time>
      </trkpt>
      <trkpt lat="46.55004" lon="5.29539">
        <ele>189.39999389648</ele>
        <time>2021-03-08T13:38:23.000Z</time>
      </trkpt>
      <trkpt lat="46.5501" lon="5.2953">
        <ele>189.80000305176</ele>
        <time>2021-03-08T13:38:25.000Z</time>
      </trkpt>
      <trkpt lat="46.55017" lon="5.29522">
        <ele>190</ele>
        <time>2021-03-08T13:38:27.000Z</time>
      </trkpt>
      <trkpt lat="46.55024" lon="5.29514">
        <ele>190.19999694824</ele>
        <time>2021-03-08T13:38:29.000Z</time>
      </trkpt>
      <trkpt lat="46.55027" lon="5.29511">
        <ele>190.19999694824</ele>
        <time>2021-03-08T13:38:30.000Z</time>
      </trkpt>
      <trkpt lat="46.55031" lon="5.29508">
        <ele>190.39999389648</ele>
        <time>2021-03-08T13:38:31.000Z</time>
      </trkpt>
      <trkpt lat="46.55038" lon="5.29504">
        <ele>190.39999389648</ele>
        <time>2021-03-08T13:38:33.000Z</time>
      </trkpt>
      <trkpt lat="46.55042" lon="5.29502">
        <ele>190.60000610352</ele>
        <time>2021-03-08T13:38:34.000Z</time>
      </trkpt>
      <trkpt lat="46.55046" lon="5.29501">
        <ele>190.80000305176</ele>
        <time>2021-03-08T13:38:35.000Z</time>
      </trkpt>
      <trkpt lat="46.55053" lon="5.29499">
        <ele>191.19999694824</ele>
        <time>2021-03-08T13:38:37.000Z</time>
      </trkpt>
      <trkpt lat="46.55056" lon="5.29499">
        <ele>191.39999389648</ele>
        <time>2021-03-08T13:38:38.000Z</time>
      </trkpt>
      <trkpt lat="46.5506" lon="5.29498">
        <ele>191.60000610352</ele>
        <time>2021-03-08T13:38:39.000Z</time>
      </trkpt>
      <trkpt lat="46.55067" lon="5.29499">
        <ele>192.60000610352</ele>
        <time>2021-03-08T13:38:41.000Z</time>
      </trkpt>
      <trkpt lat="46.55073" lon="5.295">
        <ele>193</ele>
        <time>2021-03-08T13:38:43.000Z</time>
      </trkpt>
      <trkpt lat="46.55081" lon="5.29503">
        <ele>193.80000305176</ele>
        <time>2021-03-08T13:38:45.000Z</time>
      </trkpt>
      <trkpt lat="46.55089" lon="5.29507">
        <ele>194.39999389648</ele>
        <time>2021-03-08T13:38:47.000Z</time>
      </trkpt>
      <trkpt lat="46.55097" lon="5.2951">
        <ele>194.80000305176</ele>
        <time>2021-03-08T13:38:49.000Z</time>
      </trkpt>
      <trkpt lat="46.55106" lon="5.29513">
        <ele>195.19999694824</ele>
        <time>2021-03-08T13:38:51.000Z</time>
      </trkpt>
      <trkpt lat="46.55114" lon="5.29517">
        <ele>195.60000610352</ele>
        <time>2021-03-08T13:38:53.000Z</time>
      </trkpt>
      <trkpt lat="46.55123" lon="5.29521">
        <ele>195.80000305176</ele>
        <time>2021-03-08T13:38:55.000Z</time>
      </trkpt>
      <trkpt lat="46.55127" lon="5.29522">
        <ele>195.80000305176</ele>
        <time>2021-03-08T13:38:56.000Z</time>
      </trkpt>
      <trkpt lat="46.55132" lon="5.29524">
        <ele>196</ele>
        <time>2021-03-08T13:38:57.000Z</time>
      </trkpt>
      <trkpt lat="46.5514" lon="5.29527">
        <ele>196.19999694824</ele>
        <time>2021-03-08T13:38:59.000Z</time>
      </trkpt>
      <trkpt lat="46.55149" lon="5.29531">
        <ele>196.39999389648</ele>
        <time>2021-03-08T13:39:01.000Z</time>
      </trkpt>
      <trkpt lat="46.55158" lon="5.29535">
        <ele>196.80000305176</ele>
        <time>2021-03-08T13:39:03.000Z</time>
      </trkpt>
      <trkpt lat="46.55166" lon="5.29538">
        <ele>196.80000305176</ele>
        <time>2021-03-08T13:39:05.000Z</time>
      </trkpt>
      <trkpt lat="46.55175" lon="5.29541">
        <ele>197</ele>
        <time>2021-03-08T13:39:07.000Z</time>
      </trkpt>
      <trkpt lat="46.55179" lon="5.29541">
        <ele>197</ele>
        <time>2021-03-08T13:39:08.000Z</time>
      </trkpt>
      <trkpt lat="46.55184" lon="5.29542">
        <ele>197.19999694824</ele>
        <time>2021-03-08T13:39:09.000Z</time>
      </trkpt>
      <trkpt lat="46.55192" lon="5.29541">
        <ele>197.39999389648</ele>
        <time>2021-03-08T13:39:11.000Z</time>
      </trkpt>
      <trkpt lat="46.55197" lon="5.29541">
        <ele>197.60000610352</ele>
        <time>2021-03-08T13:39:12.000Z</time>
      </trkpt>
      <trkpt lat="46.55201" lon="5.29539">
        <ele>197.60000610352</ele>
        <time>2021-03-08T13:39:13.000Z</time>
      </trkpt>
      <trkpt lat="46.55209" lon="5.29536">
        <ele>198</ele>
        <time>2021-03-08T13:39:15.000Z</time>
      </trkpt>
      <trkpt lat="46.55216" lon="5.29531">
        <ele>198</ele>
        <time>2021-03-08T13:39:17.000Z</time>
      </trkpt>
      <trkpt lat="46.55224" lon="5.29527">
        <ele>198.19999694824</ele>
        <time>2021-03-08T13:39:19.000Z</time>
      </trkpt>
      <trkpt lat="46.55231" lon="5.29522">
        <ele>198.60000610352</ele>
        <time>2021-03-08T13:39:21.000Z</time>
      </trkpt>
      <trkpt lat="46.55239" lon="5.29517">
        <ele>198.80000305176</ele>
        <time>2021-03-08T13:39:23.000Z</time>
      </trkpt>
      <trkpt lat="46.55243" lon="5.29514">
        <ele>199.19999694824</ele>
        <time>2021-03-08T13:39:24.000Z</time>
      </trkpt>
      <trkpt lat="46.55247" lon="5.29511">
        <ele>199.60000610352</ele>
        <time>2021-03-08T13:39:25.000Z</time>
      </trkpt>
      <trkpt lat="46.55255" lon="5.29505">
        <ele>200</ele>
        <time>2021-03-08T13:39:27.000Z</time>
      </trkpt>
      <trkpt lat="46.5526" lon="5.29503">
        <ele>200.19999694824</ele>
        <time>2021-03-08T13:39:28.000Z</time>
      </trkpt>
      <trkpt lat="46.55264" lon="5.295">
        <ele>200.39999389648</ele>
        <time>2021-03-08T13:39:29.000Z</time>
      </trkpt>
      <trkpt lat="46.55273" lon="5.29497">
        <ele>200.60000610352</ele>
        <time>2021-03-08T13:39:31.000Z</time>
      </trkpt>
      <trkpt lat="46.55278" lon="5.29496">
        <ele>200.80000305176</ele>
        <time>2021-03-08T13:39:32.000Z</time>
      </trkpt>
      <trkpt lat="46.55284" lon="5.29497">
        <ele>200.80000305176</ele>
        <time>2021-03-08T13:39:33.000Z</time>
      </trkpt>
      <trkpt lat="46.55295" lon="5.29502">
        <ele>200.80000305176</ele>
        <time>2021-03-08T13:39:35.000Z</time>
      </trkpt>
      <trkpt lat="46.55301" lon="5.29505">
        <ele>200.80000305176</ele>
        <time>2021-03-08T13:39:36.000Z</time>
      </trkpt>
      <trkpt lat="46.55307" lon="5.29507">
        <ele>200.80000305176</ele>
        <time>2021-03-08T13:39:37.000Z</time>
      </trkpt>
      <trkpt lat="46.55319" lon="5.2951">
        <ele>200.80000305176</ele>
        <time>2021-03-08T13:39:39.000Z</time>
      </trkpt>
      <trkpt lat="46.55325" lon="5.29511">
        <ele>200.80000305176</ele>
        <time>2021-03-08T13:39:40.000Z</time>
      </trkpt>
      <trkpt lat="46.55332" lon="5.29511">
        <ele>200.60000610352</ele>
        <time>2021-03-08T13:39:41.000Z</time>
      </trkpt>
      <trkpt lat="46.55345" lon="5.29513">
        <ele>200</ele>
        <time>2021-03-08T13:39:43.000Z</time>
      </trkpt>
      <trkpt lat="46.55358" lon="5.29516">
        <ele>199.19999694824</ele>
        <time>2021-03-08T13:39:45.000Z</time>
      </trkpt>
      <trkpt lat="46.55371" lon="5.2952">
        <ele>198.19999694824</ele>
        <time>2021-03-08T13:39:47.000Z</time>
      </trkpt>
      <trkpt lat="46.55377" lon="5.29522">
        <ele>197.80000305176</ele>
        <time>2021-03-08T13:39:48.000Z</time>
      </trkpt>
      <trkpt lat="46.55383" lon="5.29525">
        <ele>197.80000305176</ele>
        <time>2021-03-08T13:39:49.000Z</time>
      </trkpt>
      <trkpt lat="46.55395" lon="5.2953">
        <ele>197.60000610352</ele>
        <time>2021-03-08T13:39:51.000Z</time>
      </trkpt>
      <trkpt lat="46.55406" lon="5.29536">
        <ele>197.60000610352</ele>
        <time>2021-03-08T13:39:53.000Z</time>
      </trkpt>
      <trkpt lat="46.55417" lon="5.29543">
        <ele>197.60000610352</ele>
        <time>2021-03-08T13:39:55.000Z</time>
      </trkpt>
      <trkpt lat="46.55422" lon="5.29546">
        <ele>197.39999389648</ele>
        <time>2021-03-08T13:39:56.000Z</time>
      </trkpt>
      <trkpt lat="46.55428" lon="5.2955">
        <ele>197.39999389648</ele>
        <time>2021-03-08T13:39:57.000Z</time>
      </trkpt>
      <trkpt lat="46.55439" lon="5.29558">
        <ele>197.39999389648</ele>
        <time>2021-03-08T13:39:59.000Z</time>
      </trkpt>
      <trkpt lat="46.5545" lon="5.29565">
        <ele>197.39999389648</ele>
        <time>2021-03-08T13:40:01.000Z</time>
      </trkpt>
      <trkpt lat="46.5546" lon="5.29573">
        <ele>197.60000610352</ele>
        <time>2021-03-08T13:40:03.000Z</time>
      </trkpt>
      <trkpt lat="46.55471" lon="5.29581">
        <ele>197.60000610352</ele>
        <time>2021-03-08T13:40:05.000Z</time>
      </trkpt>
      <trkpt lat="46.55481" lon="5.29589">
        <ele>197.60000610352</ele>
        <time>2021-03-08T13:40:07.000Z</time>
      </trkpt>
      <trkpt lat="46.55491" lon="5.29597">
        <ele>197.60000610352</ele>
        <time>2021-03-08T13:40:09.000Z</time>
      </trkpt>
      <trkpt lat="46.55502" lon="5.29604">
        <ele>197.60000610352</ele>
        <time>2021-03-08T13:40:11.000Z</time>
      </trkpt>
      <trkpt lat="46.55512" lon="5.29612">
        <ele>197.80000305176</ele>
        <time>2021-03-08T13:40:13.000Z</time>
      </trkpt>
      <trkpt lat="46.55522" lon="5.29619">
        <ele>197.80000305176</ele>
        <time>2021-03-08T13:40:15.000Z</time>
      </trkpt>
      <trkpt lat="46.55527" lon="5.29622">
        <ele>197.80000305176</ele>
        <time>2021-03-08T13:40:16.000Z</time>
      </trkpt>
      <trkpt lat="46.55532" lon="5.29626">
        <ele>198</ele>
        <time>2021-03-08T13:40:17.000Z</time>
      </trkpt>
      <trkpt lat="46.55541" lon="5.29632">
        <ele>198</ele>
        <time>2021-03-08T13:40:19.000Z</time>
      </trkpt>
      <trkpt lat="46.55551" lon="5.29639">
        <ele>198</ele>
        <time>2021-03-08T13:40:21.000Z</time>
      </trkpt>
      <trkpt lat="46.5556" lon="5.29646">
        <ele>198</ele>
        <time>2021-03-08T13:40:23.000Z</time>
      </trkpt>
      <trkpt lat="46.5557" lon="5.29653">
        <ele>198</ele>
        <time>2021-03-08T13:40:25.000Z</time>
      </trkpt>
      <trkpt lat="46.5558" lon="5.29659">
        <ele>198.19999694824</ele>
        <time>2021-03-08T13:40:27.000Z</time>
      </trkpt>
      <trkpt lat="46.55589" lon="5.29664">
        <ele>198.39999389648</ele>
        <time>2021-03-08T13:40:29.000Z</time>
      </trkpt>
      <trkpt lat="46.55599" lon="5.29669">
        <ele>198.60000610352</ele>
        <time>2021-03-08T13:40:31.000Z</time>
      </trkpt>
      <trkpt lat="46.55609" lon="5.29674">
        <ele>198.60000610352</ele>
        <time>2021-03-08T13:40:33.000Z</time>
      </trkpt>
      <trkpt lat="46.55614" lon="5.29676">
        <ele>198.80000305176</ele>
        <time>2021-03-08T13:40:34.000Z</time>
      </trkpt>
      <trkpt lat="46.55619" lon="5.29679">
        <ele>199</ele>
        <time>2021-03-08T13:40:35.000Z</time>
      </trkpt>
      <trkpt lat="46.55629" lon="5.29684">
        <ele>199.19999694824</ele>
        <time>2021-03-08T13:40:37.000Z</time>
      </trkpt>
      <trkpt lat="46.55639" lon="5.29688">
        <ele>199.39999389648</ele>
        <time>2021-03-08T13:40:39.000Z</time>
      </trkpt>
      <trkpt lat="46.55649" lon="5.29692">
        <ele>199.60000610352</ele>
        <time>2021-03-08T13:40:41.000Z</time>
      </trkpt>
      <trkpt lat="46.55654" lon="5.29693">
        <ele>199.60000610352</ele>
        <time>2021-03-08T13:40:42.000Z</time>
      </trkpt>
      <trkpt lat="46.55659" lon="5.29695">
        <ele>199.60000610352</ele>
        <time>2021-03-08T13:40:43.000Z</time>
      </trkpt>
      <trkpt lat="46.55669" lon="5.29697">
        <ele>199.80000305176</ele>
        <time>2021-03-08T13:40:45.000Z</time>
      </trkpt>
      <trkpt lat="46.55679" lon="5.29697">
        <ele>199.80000305176</ele>
        <time>2021-03-08T13:40:47.000Z</time>
      </trkpt>
      <trkpt lat="46.55684" lon="5.29697">
        <ele>200</ele>
        <time>2021-03-08T13:40:48.000Z</time>
      </trkpt>
      <trkpt lat="46.55689" lon="5.29697">
        <ele>200</ele>
        <time>2021-03-08T13:40:49.000Z</time>
      </trkpt>
      <trkpt lat="46.55698" lon="5.29697">
        <ele>200</ele>
        <time>2021-03-08T13:40:51.000Z</time>
      </trkpt>
      <trkpt lat="46.55707" lon="5.29698">
        <ele>200.19999694824</ele>
        <time>2021-03-08T13:40:53.000Z</time>
      </trkpt>
      <trkpt lat="46.55715" lon="5.29699">
        <ele>200.39999389648</ele>
        <time>2021-03-08T13:40:55.000Z</time>
      </trkpt>
      <trkpt lat="46.55719" lon="5.297">
        <ele>200.60000610352</ele>
        <time>2021-03-08T13:40:56.000Z</time>
      </trkpt>
      <trkpt lat="46.55723" lon="5.29702">
        <ele>200.80000305176</ele>
        <time>2021-03-08T13:40:57.000Z</time>
      </trkpt>
      <trkpt lat="46.55727" lon="5.29703">
        <ele>201</ele>
        <time>2021-03-08T13:40:58.000Z</time>
      </trkpt>
      <trkpt lat="46.55731" lon="5.29705">
        <ele>201.19999694824</ele>
        <time>2021-03-08T13:40:59.000Z</time>
      </trkpt>
      <trkpt lat="46.55739" lon="5.29709">
        <ele>201.80000305176</ele>
        <time>2021-03-08T13:41:01.000Z</time>
      </trkpt>
      <trkpt lat="46.55743" lon="5.29711">
        <ele>202</ele>
        <time>2021-03-08T13:41:02.000Z</time>
      </trkpt>
      <trkpt lat="46.55746" lon="5.29713">
        <ele>202.39999389648</ele>
        <time>2021-03-08T13:41:03.000Z</time>
      </trkpt>
      <trkpt lat="46.5575" lon="5.29715">
        <ele>202.60000610352</ele>
        <time>2021-03-08T13:41:04.000Z</time>
      </trkpt>
      <trkpt lat="46.55754" lon="5.29718">
        <ele>203.19999694824</ele>
        <time>2021-03-08T13:41:05.000Z</time>
      </trkpt>
      <trkpt lat="46.55761" lon="5.29724">
        <ele>203.60000610352</ele>
        <time>2021-03-08T13:41:07.000Z</time>
      </trkpt>
      <trkpt lat="46.55768" lon="5.29732">
        <ele>204.39999389648</ele>
        <time>2021-03-08T13:41:09.000Z</time>
      </trkpt>
      <trkpt lat="46.55774" lon="5.2974">
        <ele>205</ele>
        <time>2021-03-08T13:41:11.000Z</time>
      </trkpt>
      <trkpt lat="46.55778" lon="5.29744">
        <ele>205.39999389648</ele>
        <time>2021-03-08T13:41:12.000Z</time>
      </trkpt>
      <trkpt lat="46.55781" lon="5.29749">
        <ele>205.60000610352</ele>
        <time>2021-03-08T13:41:13.000Z</time>
      </trkpt>
      <trkpt lat="46.55788" lon="5.29759">
        <ele>205.80000305176</ele>
        <time>2021-03-08T13:41:15.000Z</time>
      </trkpt>
      <trkpt lat="46.55795" lon="5.29769">
        <ele>206</ele>
        <time>2021-03-08T13:41:17.000Z</time>
      </trkpt>
      <trkpt lat="46.55802" lon="5.29779">
        <ele>206.19999694824</ele>
        <time>2021-03-08T13:41:19.000Z</time>
      </trkpt>
      <trkpt lat="46.55809" lon="5.29789">
        <ele>206.19999694824</ele>
        <time>2021-03-08T13:41:21.000Z</time>
      </trkpt>
      <trkpt lat="46.55812" lon="5.29793">
        <ele>206.39999389648</ele>
        <time>2021-03-08T13:41:22.000Z</time>
      </trkpt>
      <trkpt lat="46.55816" lon="5.29798">
        <ele>206.39999389648</ele>
        <time>2021-03-08T13:41:23.000Z</time>
      </trkpt>
      <trkpt lat="46.55819" lon="5.29803">
        <ele>206.39999389648</ele>
        <time>2021-03-08T13:41:24.000Z</time>
      </trkpt>
      <trkpt lat="46.55823" lon="5.29808">
        <ele>206.39999389648</ele>
        <time>2021-03-08T13:41:25.000Z</time>
      </trkpt>
      <trkpt lat="46.5583" lon="5.29818">
        <ele>206.60000610352</ele>
        <time>2021-03-08T13:41:27.000Z</time>
      </trkpt>
      <trkpt lat="46.55837" lon="5.29828">
        <ele>206.80000305176</ele>
        <time>2021-03-08T13:41:29.000Z</time>
      </trkpt>
      <trkpt lat="46.55845" lon="5.29838">
        <ele>206.80000305176</ele>
        <time>2021-03-08T13:41:31.000Z</time>
      </trkpt>
      <trkpt lat="46.55849" lon="5.29843">
        <ele>206.80000305176</ele>
        <time>2021-03-08T13:41:32.000Z</time>
      </trkpt>
      <trkpt lat="46.55853" lon="5.29849">
        <ele>206.80000305176</ele>
        <time>2021-03-08T13:41:33.000Z</time>
      </trkpt>
      <trkpt lat="46.55862" lon="5.29861">
        <ele>206.80000305176</ele>
        <time>2021-03-08T13:41:35.000Z</time>
      </trkpt>
      <trkpt lat="46.55872" lon="5.29874">
        <ele>206.80000305176</ele>
        <time>2021-03-08T13:41:37.000Z</time>
      </trkpt>
      <trkpt lat="46.55877" lon="5.29881">
        <ele>206.80000305176</ele>
        <time>2021-03-08T13:41:38.000Z</time>
      </trkpt>
      <trkpt lat="46.55883" lon="5.29888">
        <ele>206.80000305176</ele>
        <time>2021-03-08T13:41:39.000Z</time>
      </trkpt>
      <trkpt lat="46.55894" lon="5.29902">
        <ele>206.80000305176</ele>
        <time>2021-03-08T13:41:41.000Z</time>
      </trkpt>
      <trkpt lat="46.55905" lon="5.29918">
        <ele>206.60000610352</ele>
        <time>2021-03-08T13:41:43.000Z</time>
      </trkpt>
      <trkpt lat="46.55917" lon="5.29933">
        <ele>205.19999694824</ele>
        <time>2021-03-08T13:41:45.000Z</time>
      </trkpt>
      <trkpt lat="46.55923" lon="5.29941">
        <ele>204.80000305176</ele>
        <time>2021-03-08T13:41:46.000Z</time>
      </trkpt>
      <trkpt lat="46.55929" lon="5.29948">
        <ele>204.39999389648</ele>
        <time>2021-03-08T13:41:47.000Z</time>
      </trkpt>
      <trkpt lat="46.55935" lon="5.29956">
        <ele>204</ele>
        <time>2021-03-08T13:41:48.000Z</time>
      </trkpt>
      <trkpt lat="46.55941" lon="5.29964">
        <ele>203.80000305176</ele>
        <time>2021-03-08T13:41:49.000Z</time>
      </trkpt>
      <trkpt lat="46.55952" lon="5.29982">
        <ele>203.39999389648</ele>
        <time>2021-03-08T13:41:51.000Z</time>
      </trkpt>
      <trkpt lat="46.55958" lon="5.2999">
        <ele>203</ele>
        <time>2021-03-08T13:41:52.000Z</time>
      </trkpt>
      <trkpt lat="46.55964" lon="5.29998">
        <ele>202.60000610352</ele>
        <time>2021-03-08T13:41:53.000Z</time>
      </trkpt>
      <trkpt lat="46.55975" lon="5.30012">
        <ele>202</ele>
        <time>2021-03-08T13:41:55.000Z</time>
      </trkpt>
      <trkpt lat="46.5598" lon="5.30019">
        <ele>202</ele>
        <time>2021-03-08T13:41:56.000Z</time>
      </trkpt>
      <trkpt lat="46.55985" lon="5.30026">
        <ele>201.80000305176</ele>
        <time>2021-03-08T13:41:57.000Z</time>
      </trkpt>
      <trkpt lat="46.55994" lon="5.30038">
        <ele>201.80000305176</ele>
        <time>2021-03-08T13:41:59.000Z</time>
      </trkpt>
      <trkpt lat="46.56003" lon="5.3005">
        <ele>201.80000305176</ele>
        <time>2021-03-08T13:42:01.000Z</time>
      </trkpt>
      <trkpt lat="46.56011" lon="5.30061">
        <ele>202</ele>
        <time>2021-03-08T13:42:03.000Z</time>
      </trkpt>
      <trkpt lat="46.56019" lon="5.30072">
        <ele>202.19999694824</ele>
        <time>2021-03-08T13:42:05.000Z</time>
      </trkpt>
      <trkpt lat="46.56026" lon="5.30082">
        <ele>203.19999694824</ele>
        <time>2021-03-08T13:42:07.000Z</time>
      </trkpt>
      <trkpt lat="46.56033" lon="5.30091">
        <ele>204.19999694824</ele>
        <time>2021-03-08T13:42:09.000Z</time>
      </trkpt>
      <trkpt lat="46.56036" lon="5.30096">
        <ele>204.60000610352</ele>
        <time>2021-03-08T13:42:10.000Z</time>
      </trkpt>
      <trkpt lat="46.56039" lon="5.30101">
        <ele>204.80000305176</ele>
        <time>2021-03-08T13:42:11.000Z</time>
      </trkpt>
      <trkpt lat="46.56046" lon="5.30111">
        <ele>205.19999694824</ele>
        <time>2021-03-08T13:42:13.000Z</time>
      </trkpt>
      <trkpt lat="46.56054" lon="5.3012">
        <ele>205.39999389648</ele>
        <time>2021-03-08T13:42:15.000Z</time>
      </trkpt>
      <trkpt lat="46.56061" lon="5.30129">
        <ele>205.80000305176</ele>
        <time>2021-03-08T13:42:17.000Z</time>
      </trkpt>
      <trkpt lat="46.56068" lon="5.30139">
        <ele>206.39999389648</ele>
        <time>2021-03-08T13:42:19.000Z</time>
      </trkpt>
      <trkpt lat="46.56075" lon="5.30149">
        <ele>206.80000305176</ele>
        <time>2021-03-08T13:42:21.000Z</time>
      </trkpt>
      <trkpt lat="46.56079" lon="5.30155">
        <ele>207.19999694824</ele>
        <time>2021-03-08T13:42:22.000Z</time>
      </trkpt>
      <trkpt lat="46.56083" lon="5.3016">
        <ele>207.39999389648</ele>
        <time>2021-03-08T13:42:23.000Z</time>
      </trkpt>
      <trkpt lat="46.56091" lon="5.3017">
        <ele>207.80000305176</ele>
        <time>2021-03-08T13:42:25.000Z</time>
      </trkpt>
      <trkpt lat="46.56099" lon="5.30181">
        <ele>207.80000305176</ele>
        <time>2021-03-08T13:42:27.000Z</time>
      </trkpt>
      <trkpt lat="46.56103" lon="5.30186">
        <ele>207.80000305176</ele>
        <time>2021-03-08T13:42:28.000Z</time>
      </trkpt>
      <trkpt lat="46.56107" lon="5.30191">
        <ele>207.80000305176</ele>
        <time>2021-03-08T13:42:29.000Z</time>
      </trkpt>
      <trkpt lat="46.56111" lon="5.30197">
        <ele>207.80000305176</ele>
        <time>2021-03-08T13:42:30.000Z</time>
      </trkpt>
      <trkpt lat="46.56115" lon="5.30202">
        <ele>208</ele>
        <time>2021-03-08T13:42:31.000Z</time>
      </trkpt>
      <trkpt lat="46.56123" lon="5.30213">
        <ele>208</ele>
        <time>2021-03-08T13:42:33.000Z</time>
      </trkpt>
      <trkpt lat="46.56131" lon="5.30224">
        <ele>208</ele>
        <time>2021-03-08T13:42:35.000Z</time>
      </trkpt>
      <trkpt lat="46.56139" lon="5.30235">
        <ele>208</ele>
        <time>2021-03-08T13:42:37.000Z</time>
      </trkpt>
      <trkpt lat="46.56147" lon="5.30246">
        <ele>208.19999694824</ele>
        <time>2021-03-08T13:42:39.000Z</time>
      </trkpt>
      <trkpt lat="46.56151" lon="5.30252">
        <ele>208.19999694824</ele>
        <time>2021-03-08T13:42:40.000Z</time>
      </trkpt>
      <trkpt lat="46.56155" lon="5.30258">
        <ele>208.19999694824</ele>
        <time>2021-03-08T13:42:41.000Z</time>
      </trkpt>
      <trkpt lat="46.56163" lon="5.30269">
        <ele>208.19999694824</ele>
        <time>2021-03-08T13:42:43.000Z</time>
      </trkpt>
      <trkpt lat="46.56171" lon="5.3028">
        <ele>208.19999694824</ele>
        <time>2021-03-08T13:42:45.000Z</time>
      </trkpt>
      <trkpt lat="46.5618" lon="5.30292">
        <ele>208.19999694824</ele>
        <time>2021-03-08T13:42:47.000Z</time>
      </trkpt>
      <trkpt lat="46.56189" lon="5.30305">
        <ele>208.19999694824</ele>
        <time>2021-03-08T13:42:49.000Z</time>
      </trkpt>
      <trkpt lat="46.56197" lon="5.30318">
        <ele>208.19999694824</ele>
        <time>2021-03-08T13:42:51.000Z</time>
      </trkpt>
      <trkpt lat="46.56205" lon="5.30331">
        <ele>208.19999694824</ele>
        <time>2021-03-08T13:42:53.000Z</time>
      </trkpt>
      <trkpt lat="46.56212" lon="5.30345">
        <ele>208</ele>
        <time>2021-03-08T13:42:55.000Z</time>
      </trkpt>
      <trkpt lat="46.56215" lon="5.30352">
        <ele>208</ele>
        <time>2021-03-08T13:42:56.000Z</time>
      </trkpt>
      <trkpt lat="46.56219" lon="5.30359">
        <ele>208</ele>
        <time>2021-03-08T13:42:57.000Z</time>
      </trkpt>
      <trkpt lat="46.56227" lon="5.30373">
        <ele>208</ele>
        <time>2021-03-08T13:42:59.000Z</time>
      </trkpt>
      <trkpt lat="46.56235" lon="5.30386">
        <ele>208</ele>
        <time>2021-03-08T13:43:01.000Z</time>
      </trkpt>
      <trkpt lat="46.56244" lon="5.30399">
        <ele>208</ele>
        <time>2021-03-08T13:43:03.000Z</time>
      </trkpt>
      <trkpt lat="46.56249" lon="5.30405">
        <ele>208.19999694824</ele>
        <time>2021-03-08T13:43:04.000Z</time>
      </trkpt>
      <trkpt lat="46.56253" lon="5.30411">
        <ele>208.39999389648</ele>
        <time>2021-03-08T13:43:05.000Z</time>
      </trkpt>
      <trkpt lat="46.56262" lon="5.30424">
        <ele>208.60000610352</ele>
        <time>2021-03-08T13:43:07.000Z</time>
      </trkpt>
      <trkpt lat="46.56271" lon="5.30436">
        <ele>208.60000610352</ele>
        <time>2021-03-08T13:43:09.000Z</time>
      </trkpt>
      <trkpt lat="46.5628" lon="5.30448">
        <ele>208.80000305176</ele>
        <time>2021-03-08T13:43:11.000Z</time>
      </trkpt>
      <trkpt lat="46.56288" lon="5.3046">
        <ele>208.80000305176</ele>
        <time>2021-03-08T13:43:13.000Z</time>
      </trkpt>
      <trkpt lat="46.56293" lon="5.30467">
        <ele>208.80000305176</ele>
        <time>2021-03-08T13:43:14.000Z</time>
      </trkpt>
      <trkpt lat="46.56298" lon="5.30473">
        <ele>208.80000305176</ele>
        <time>2021-03-08T13:43:15.000Z</time>
      </trkpt>
      <trkpt lat="46.56307" lon="5.30485">
        <ele>208.80000305176</ele>
        <time>2021-03-08T13:43:17.000Z</time>
      </trkpt>
      <trkpt lat="46.56316" lon="5.30497">
        <ele>208.80000305176</ele>
        <time>2021-03-08T13:43:19.000Z</time>
      </trkpt>
      <trkpt lat="46.56325" lon="5.3051">
        <ele>208.80000305176</ele>
        <time>2021-03-08T13:43:21.000Z</time>
      </trkpt>
      <trkpt lat="46.56333" lon="5.30522">
        <ele>208.80000305176</ele>
        <time>2021-03-08T13:43:23.000Z</time>
      </trkpt>
      <trkpt lat="46.56338" lon="5.30528">
        <ele>208.80000305176</ele>
        <time>2021-03-08T13:43:24.000Z</time>
      </trkpt>
      <trkpt lat="46.56342" lon="5.30534">
        <ele>208.80000305176</ele>
        <time>2021-03-08T13:43:25.000Z</time>
      </trkpt>
      <trkpt lat="46.56351" lon="5.30547">
        <ele>208.80000305176</ele>
        <time>2021-03-08T13:43:27.000Z</time>
      </trkpt>
      <trkpt lat="46.56361" lon="5.3056">
        <ele>208.80000305176</ele>
        <time>2021-03-08T13:43:29.000Z</time>
      </trkpt>
      <trkpt lat="46.5637" lon="5.30573">
        <ele>208.60000610352</ele>
        <time>2021-03-08T13:43:31.000Z</time>
      </trkpt>
      <trkpt lat="46.56379" lon="5.30585">
        <ele>208.60000610352</ele>
        <time>2021-03-08T13:43:33.000Z</time>
      </trkpt>
      <trkpt lat="46.56384" lon="5.30591">
        <ele>208.60000610352</ele>
        <time>2021-03-08T13:43:34.000Z</time>
      </trkpt>
      <trkpt lat="46.56388" lon="5.30597">
        <ele>208.39999389648</ele>
        <time>2021-03-08T13:43:35.000Z</time>
      </trkpt>
      <trkpt lat="46.56397" lon="5.3061">
        <ele>208.19999694824</ele>
        <time>2021-03-08T13:43:37.000Z</time>
      </trkpt>
      <trkpt lat="46.56403" lon="5.3062">
        <ele>208</ele>
        <time>2021-03-08T13:43:39.000Z</time>
      </trkpt>
      <trkpt lat="46.56405" lon="5.30623">
        <ele>207.80000305176</ele>
        <time>2021-03-08T13:43:40.000Z</time>
      </trkpt>
      <trkpt lat="46.56407" lon="5.30626">
        <ele>207.80000305176</ele>
        <time>2021-03-08T13:43:41.000Z</time>
      </trkpt>
      <trkpt lat="46.5641" lon="5.30628">
        <ele>207.80000305176</ele>
        <time>2021-03-08T13:43:42.000Z</time>
      </trkpt>
      <trkpt lat="46.56414" lon="5.30629">
        <ele>207.80000305176</ele>
        <time>2021-03-08T13:43:43.000Z</time>
      </trkpt>
      <trkpt lat="46.56424" lon="5.30629">
        <ele>207.80000305176</ele>
        <time>2021-03-08T13:43:45.000Z</time>
      </trkpt>
      <trkpt lat="46.56437" lon="5.3063">
        <ele>207.60000610352</ele>
        <time>2021-03-08T13:43:47.000Z</time>
      </trkpt>
      <trkpt lat="46.5645" lon="5.30626">
        <ele>207.60000610352</ele>
        <time>2021-03-08T13:43:49.000Z</time>
      </trkpt>
      <trkpt lat="46.56463" lon="5.30622">
        <ele>207.60000610352</ele>
        <time>2021-03-08T13:43:51.000Z</time>
      </trkpt>
      <trkpt lat="46.5647" lon="5.3062">
        <ele>207.39999389648</ele>
        <time>2021-03-08T13:43:52.000Z</time>
      </trkpt>
      <trkpt lat="46.56476" lon="5.30619">
        <ele>207.39999389648</ele>
        <time>2021-03-08T13:43:53.000Z</time>
      </trkpt>
      <trkpt lat="46.56489" lon="5.30616">
        <ele>207</ele>
        <time>2021-03-08T13:43:55.000Z</time>
      </trkpt>
      <trkpt lat="46.56502" lon="5.30613">
        <ele>206.60000610352</ele>
        <time>2021-03-08T13:43:57.000Z</time>
      </trkpt>
      <trkpt lat="46.56515" lon="5.30611">
        <ele>206.39999389648</ele>
        <time>2021-03-08T13:43:59.000Z</time>
      </trkpt>
      <trkpt lat="46.56528" lon="5.30608">
        <ele>206</ele>
        <time>2021-03-08T13:44:01.000Z</time>
      </trkpt>
      <trkpt lat="46.5654" lon="5.30606">
        <ele>205.80000305176</ele>
        <time>2021-03-08T13:44:03.000Z</time>
      </trkpt>
      <trkpt lat="46.56553" lon="5.30604">
        <ele>205.80000305176</ele>
        <time>2021-03-08T13:44:05.000Z</time>
      </trkpt>
      <trkpt lat="46.56565" lon="5.30603">
        <ele>205.80000305176</ele>
        <time>2021-03-08T13:44:07.000Z</time>
      </trkpt>
      <trkpt lat="46.56578" lon="5.30602">
        <ele>205.80000305176</ele>
        <time>2021-03-08T13:44:09.000Z</time>
      </trkpt>
      <trkpt lat="46.56591" lon="5.30602">
        <ele>205.80000305176</ele>
        <time>2021-03-08T13:44:11.000Z</time>
      </trkpt>
      <trkpt lat="46.56604" lon="5.30603">
        <ele>206</ele>
        <time>2021-03-08T13:44:13.000Z</time>
      </trkpt>
      <trkpt lat="46.56616" lon="5.30605">
        <ele>206</ele>
        <time>2021-03-08T13:44:15.000Z</time>
      </trkpt>
      <trkpt lat="46.56629" lon="5.30608">
        <ele>206</ele>
        <time>2021-03-08T13:44:17.000Z</time>
      </trkpt>
      <trkpt lat="46.56635" lon="5.3061">
        <ele>206.19999694824</ele>
        <time>2021-03-08T13:44:18.000Z</time>
      </trkpt>
      <trkpt lat="46.56642" lon="5.30612">
        <ele>206.19999694824</ele>
        <time>2021-03-08T13:44:19.000Z</time>
      </trkpt>
      <trkpt lat="46.56654" lon="5.30617">
        <ele>206.19999694824</ele>
        <time>2021-03-08T13:44:21.000Z</time>
      </trkpt>
      <trkpt lat="46.56667" lon="5.30624">
        <ele>206.19999694824</ele>
        <time>2021-03-08T13:44:23.000Z</time>
      </trkpt>
      <trkpt lat="46.56679" lon="5.30633">
        <ele>206.19999694824</ele>
        <time>2021-03-08T13:44:25.000Z</time>
      </trkpt>
      <trkpt lat="46.56691" lon="5.30643">
        <ele>206.39999389648</ele>
        <time>2021-03-08T13:44:27.000Z</time>
      </trkpt>
      <trkpt lat="46.56702" lon="5.30654">
        <ele>206.39999389648</ele>
        <time>2021-03-08T13:44:29.000Z</time>
      </trkpt>
      <trkpt lat="46.56713" lon="5.30667">
        <ele>206.39999389648</ele>
        <time>2021-03-08T13:44:31.000Z</time>
      </trkpt>
      <trkpt lat="46.56724" lon="5.30681">
        <ele>206.19999694824</ele>
        <time>2021-03-08T13:44:33.000Z</time>
      </trkpt>
      <trkpt lat="46.56734" lon="5.30696">
        <ele>206.19999694824</ele>
        <time>2021-03-08T13:44:35.000Z</time>
      </trkpt>
      <trkpt lat="46.56743" lon="5.30713">
        <ele>205.80000305176</ele>
        <time>2021-03-08T13:44:37.000Z</time>
      </trkpt>
      <trkpt lat="46.56747" lon="5.30722">
        <ele>205.39999389648</ele>
        <time>2021-03-08T13:44:38.000Z</time>
      </trkpt>
      <trkpt lat="46.56751" lon="5.30731">
        <ele>205.19999694824</ele>
        <time>2021-03-08T13:44:39.000Z</time>
      </trkpt>
      <trkpt lat="46.56756" lon="5.3074">
        <ele>205</ele>
        <time>2021-03-08T13:44:40.000Z</time>
      </trkpt>
      <trkpt lat="46.5676" lon="5.30749">
        <ele>204.60000610352</ele>
        <time>2021-03-08T13:44:41.000Z</time>
      </trkpt>
      <trkpt lat="46.56764" lon="5.30758">
        <ele>204.39999389648</ele>
        <time>2021-03-08T13:44:42.000Z</time>
      </trkpt>
      <trkpt lat="46.56769" lon="5.30767">
        <ele>204.19999694824</ele>
        <time>2021-03-08T13:44:43.000Z</time>
      </trkpt>
      <trkpt lat="46.56777" lon="5.30786">
        <ele>203.80000305176</ele>
        <time>2021-03-08T13:44:45.000Z</time>
      </trkpt>
      <trkpt lat="46.56785" lon="5.30806">
        <ele>203.39999389648</ele>
        <time>2021-03-08T13:44:47.000Z</time>
      </trkpt>
      <trkpt lat="46.56789" lon="5.30817">
        <ele>203.39999389648</ele>
        <time>2021-03-08T13:44:48.000Z</time>
      </trkpt>
      <trkpt lat="46.56791" lon="5.30828">
        <ele>203.19999694824</ele>
        <time>2021-03-08T13:44:49.000Z</time>
      </trkpt>
      <trkpt lat="46.56797" lon="5.3085">
        <ele>203.19999694824</ele>
        <time>2021-03-08T13:44:51.000Z</time>
      </trkpt>
      <trkpt lat="46.568" lon="5.30872">
        <ele>202.80000305176</ele>
        <time>2021-03-08T13:44:53.000Z</time>
      </trkpt>
      <trkpt lat="46.56803" lon="5.30894">
        <ele>202.19999694824</ele>
        <time>2021-03-08T13:44:55.000Z</time>
      </trkpt>
      <trkpt lat="46.56806" lon="5.30915">
        <ele>202</ele>
        <time>2021-03-08T13:44:57.000Z</time>
      </trkpt>
      <trkpt lat="46.56808" lon="5.30937">
        <ele>201.80000305176</ele>
        <time>2021-03-08T13:44:59.000Z</time>
      </trkpt>
      <trkpt lat="46.56808" lon="5.30948">
        <ele>201.80000305176</ele>
        <time>2021-03-08T13:45:00.000Z</time>
      </trkpt>
      <trkpt lat="46.56808" lon="5.30959">
        <ele>201.60000610352</ele>
        <time>2021-03-08T13:45:01.000Z</time>
      </trkpt>
      <trkpt lat="46.56808" lon="5.3098">
        <ele>201.60000610352</ele>
        <time>2021-03-08T13:45:03.000Z</time>
      </trkpt>
      <trkpt lat="46.56807" lon="5.31">
        <ele>201.60000610352</ele>
        <time>2021-03-08T13:45:05.000Z</time>
      </trkpt>
      <trkpt lat="46.56806" lon="5.3101">
        <ele>201.60000610352</ele>
        <time>2021-03-08T13:45:06.000Z</time>
      </trkpt>
      <trkpt lat="46.56806" lon="5.3102">
        <ele>201.60000610352</ele>
        <time>2021-03-08T13:45:07.000Z</time>
      </trkpt>
      <trkpt lat="46.56806" lon="5.31029">
        <ele>201.80000305176</ele>
        <time>2021-03-08T13:45:08.000Z</time>
      </trkpt>
      <trkpt lat="46.56806" lon="5.31048">
        <ele>201.80000305176</ele>
        <time>2021-03-08T13:45:10.000Z</time>
      </trkpt>
      <trkpt lat="46.56808" lon="5.31066">
        <ele>201.80000305176</ele>
        <time>2021-03-08T13:45:12.000Z</time>
      </trkpt>
      <trkpt lat="46.56813" lon="5.31084">
        <ele>202</ele>
        <time>2021-03-08T13:45:14.000Z</time>
      </trkpt>
      <trkpt lat="46.56819" lon="5.31101">
        <ele>202.19999694824</ele>
        <time>2021-03-08T13:45:16.000Z</time>
      </trkpt>
      <trkpt lat="46.56823" lon="5.31109">
        <ele>202.19999694824</ele>
        <time>2021-03-08T13:45:17.000Z</time>
      </trkpt>
      <trkpt lat="46.56826" lon="5.31116">
        <ele>202.39999389648</ele>
        <time>2021-03-08T13:45:18.000Z</time>
      </trkpt>
      <trkpt lat="46.56835" lon="5.3113">
        <ele>202.60000610352</ele>
        <time>2021-03-08T13:45:20.000Z</time>
      </trkpt>
      <trkpt lat="46.56846" lon="5.31141">
        <ele>202.80000305176</ele>
        <time>2021-03-08T13:45:22.000Z</time>
      </trkpt>
      <trkpt lat="46.56857" lon="5.31149">
        <ele>202.80000305176</ele>
        <time>2021-03-08T13:45:24.000Z</time>
      </trkpt>
      <trkpt lat="46.56863" lon="5.31153">
        <ele>202.80000305176</ele>
        <time>2021-03-08T13:45:25.000Z</time>
      </trkpt>
      <trkpt lat="46.56869" lon="5.31157">
        <ele>202.80000305176</ele>
        <time>2021-03-08T13:45:26.000Z</time>
      </trkpt>
      <trkpt lat="46.56875" lon="5.31159">
        <ele>202.80000305176</ele>
        <time>2021-03-08T13:45:27.000Z</time>
      </trkpt>
      <trkpt lat="46.56881" lon="5.31161">
        <ele>202.80000305176</ele>
        <time>2021-03-08T13:45:28.000Z</time>
      </trkpt>
      <trkpt lat="46.56892" lon="5.31162">
        <ele>202.80000305176</ele>
        <time>2021-03-08T13:45:30.000Z</time>
      </trkpt>
      <trkpt lat="46.56904" lon="5.31163">
        <ele>202.80000305176</ele>
        <time>2021-03-08T13:45:32.000Z</time>
      </trkpt>
      <trkpt lat="46.56915" lon="5.31164">
        <ele>202.80000305176</ele>
        <time>2021-03-08T13:45:34.000Z</time>
      </trkpt>
      <trkpt lat="46.56927" lon="5.31167">
        <ele>202.80000305176</ele>
        <time>2021-03-08T13:45:36.000Z</time>
      </trkpt>
      <trkpt lat="46.56938" lon="5.31172">
        <ele>202.80000305176</ele>
        <time>2021-03-08T13:45:38.000Z</time>
      </trkpt>
      <trkpt lat="46.56948" lon="5.3118">
        <ele>203</ele>
        <time>2021-03-08T13:45:40.000Z</time>
      </trkpt>
      <trkpt lat="46.56958" lon="5.31188">
        <ele>203</ele>
        <time>2021-03-08T13:45:42.000Z</time>
      </trkpt>
      <trkpt lat="46.56968" lon="5.31197">
        <ele>203.19999694824</ele>
        <time>2021-03-08T13:45:44.000Z</time>
      </trkpt>
      <trkpt lat="46.56973" lon="5.31201">
        <ele>203.39999389648</ele>
        <time>2021-03-08T13:45:45.000Z</time>
      </trkpt>
      <trkpt lat="46.56978" lon="5.31206">
        <ele>203.39999389648</ele>
        <time>2021-03-08T13:45:46.000Z</time>
      </trkpt>
      <trkpt lat="46.56988" lon="5.31215">
        <ele>203.39999389648</ele>
        <time>2021-03-08T13:45:48.000Z</time>
      </trkpt>
      <trkpt lat="46.56998" lon="5.31224">
        <ele>203.60000610352</ele>
        <time>2021-03-08T13:45:50.000Z</time>
      </trkpt>
      <trkpt lat="46.57007" lon="5.31233">
        <ele>203.80000305176</ele>
        <time>2021-03-08T13:45:52.000Z</time>
      </trkpt>
      <trkpt lat="46.57017" lon="5.31242">
        <ele>203.80000305176</ele>
        <time>2021-03-08T13:45:54.000Z</time>
      </trkpt>
      <trkpt lat="46.57026" lon="5.31251">
        <ele>204</ele>
        <time>2021-03-08T13:45:56.000Z</time>
      </trkpt>
      <trkpt lat="46.57036" lon="5.31259">
        <ele>204</ele>
        <time>2021-03-08T13:45:58.000Z</time>
      </trkpt>
      <trkpt lat="46.57046" lon="5.31268">
        <ele>204</ele>
        <time>2021-03-08T13:46:00.000Z</time>
      </trkpt>
      <trkpt lat="46.57056" lon="5.31276">
        <ele>204</ele>
        <time>2021-03-08T13:46:02.000Z</time>
      </trkpt>
      <trkpt lat="46.57066" lon="5.31284">
        <ele>204.19999694824</ele>
        <time>2021-03-08T13:46:04.000Z</time>
      </trkpt>
      <trkpt lat="46.57071" lon="5.31288">
        <ele>204.39999389648</ele>
        <time>2021-03-08T13:46:05.000Z</time>
      </trkpt>
      <trkpt lat="46.57076" lon="5.31292">
        <ele>204.39999389648</ele>
        <time>2021-03-08T13:46:06.000Z</time>
      </trkpt>
      <trkpt lat="46.57081" lon="5.31294">
        <ele>204.60000610352</ele>
        <time>2021-03-08T13:46:07.000Z</time>
      </trkpt>
      <trkpt lat="46.57086" lon="5.31296">
        <ele>204.60000610352</ele>
        <time>2021-03-08T13:46:08.000Z</time>
      </trkpt>
      <trkpt lat="46.57092" lon="5.31297">
        <ele>204.80000305176</ele>
        <time>2021-03-08T13:46:09.000Z</time>
      </trkpt>
      <trkpt lat="46.57097" lon="5.31299">
        <ele>205</ele>
        <time>2021-03-08T13:46:10.000Z</time>
      </trkpt>
      <trkpt lat="46.57108" lon="5.31301">
        <ele>205.39999389648</ele>
        <time>2021-03-08T13:46:12.000Z</time>
      </trkpt>
      <trkpt lat="46.57118" lon="5.31302">
        <ele>205.60000610352</ele>
        <time>2021-03-08T13:46:14.000Z</time>
      </trkpt>
      <trkpt lat="46.57128" lon="5.31303">
        <ele>205.60000610352</ele>
        <time>2021-03-08T13:46:16.000Z</time>
      </trkpt>
      <trkpt lat="46.57137" lon="5.31303">
        <ele>205.80000305176</ele>
        <time>2021-03-08T13:46:18.000Z</time>
      </trkpt>
      <trkpt lat="46.57146" lon="5.31304">
        <ele>205.80000305176</ele>
        <time>2021-03-08T13:46:20.000Z</time>
      </trkpt>
      <trkpt lat="46.57156" lon="5.31304">
        <ele>206.39999389648</ele>
        <time>2021-03-08T13:46:22.000Z</time>
      </trkpt>
      <trkpt lat="46.5716" lon="5.31305">
        <ele>206.60000610352</ele>
        <time>2021-03-08T13:46:23.000Z</time>
      </trkpt>
      <trkpt lat="46.57165" lon="5.31307">
        <ele>206.80000305176</ele>
        <time>2021-03-08T13:46:24.000Z</time>
      </trkpt>
      <trkpt lat="46.5717" lon="5.3131">
        <ele>207</ele>
        <time>2021-03-08T13:46:25.000Z</time>
      </trkpt>
      <trkpt lat="46.57174" lon="5.31313">
        <ele>207.39999389648</ele>
        <time>2021-03-08T13:46:26.000Z</time>
      </trkpt>
      <trkpt lat="46.57178" lon="5.31316">
        <ele>207.80000305176</ele>
        <time>2021-03-08T13:46:27.000Z</time>
      </trkpt>
      <trkpt lat="46.57182" lon="5.3132">
        <ele>208</ele>
        <time>2021-03-08T13:46:28.000Z</time>
      </trkpt>
      <trkpt lat="46.57186" lon="5.31324">
        <ele>208.39999389648</ele>
        <time>2021-03-08T13:46:29.000Z</time>
      </trkpt>
      <trkpt lat="46.57189" lon="5.31328">
        <ele>208.60000610352</ele>
        <time>2021-03-08T13:46:30.000Z</time>
      </trkpt>
      <trkpt lat="46.57193" lon="5.31333">
        <ele>208.80000305176</ele>
        <time>2021-03-08T13:46:31.000Z</time>
      </trkpt>
      <trkpt lat="46.57196" lon="5.31337">
        <ele>208.80000305176</ele>
        <time>2021-03-08T13:46:32.000Z</time>
      </trkpt>
      <trkpt lat="46.57202" lon="5.31346">
        <ele>209.39999389648</ele>
        <time>2021-03-08T13:46:34.000Z</time>
      </trkpt>
      <trkpt lat="46.57209" lon="5.31357">
        <ele>209.60000610352</ele>
        <time>2021-03-08T13:46:36.000Z</time>
      </trkpt>
      <trkpt lat="46.57215" lon="5.31369">
        <ele>209.80000305176</ele>
        <time>2021-03-08T13:46:38.000Z</time>
      </trkpt>
      <trkpt lat="46.57218" lon="5.31375">
        <ele>209.80000305176</ele>
        <time>2021-03-08T13:46:39.000Z</time>
      </trkpt>
      <trkpt lat="46.57221" lon="5.31382">
        <ele>209.80000305176</ele>
        <time>2021-03-08T13:46:40.000Z</time>
      </trkpt>
      <trkpt lat="46.57225" lon="5.31395">
        <ele>210</ele>
        <time>2021-03-08T13:46:42.000Z</time>
      </trkpt>
      <trkpt lat="46.57228" lon="5.31409">
        <ele>210.60000610352</ele>
        <time>2021-03-08T13:46:44.000Z</time>
      </trkpt>
      <trkpt lat="46.5723" lon="5.31416">
        <ele>210.80000305176</ele>
        <time>2021-03-08T13:46:45.000Z</time>
      </trkpt>
      <trkpt lat="46.57232" lon="5.31423">
        <ele>211</ele>
        <time>2021-03-08T13:46:46.000Z</time>
      </trkpt>
      <trkpt lat="46.57235" lon="5.31437">
        <ele>211.39999389648</ele>
        <time>2021-03-08T13:46:48.000Z</time>
      </trkpt>
      <trkpt lat="46.5724" lon="5.31451">
        <ele>211.80000305176</ele>
        <time>2021-03-08T13:46:50.000Z</time>
      </trkpt>
      <trkpt lat="46.57242" lon="5.31458">
        <ele>212</ele>
        <time>2021-03-08T13:46:51.000Z</time>
      </trkpt>
      <trkpt lat="46.57245" lon="5.31464">
        <ele>212.39999389648</ele>
        <time>2021-03-08T13:46:52.000Z</time>
      </trkpt>
      <trkpt lat="46.57251" lon="5.31477">
        <ele>212.60000610352</ele>
        <time>2021-03-08T13:46:54.000Z</time>
      </trkpt>
      <trkpt lat="46.57258" lon="5.31489">
        <ele>212.60000610352</ele>
        <time>2021-03-08T13:46:56.000Z</time>
      </trkpt>
      <trkpt lat="46.57266" lon="5.31501">
        <ele>212.60000610352</ele>
        <time>2021-03-08T13:46:58.000Z</time>
      </trkpt>
      <trkpt lat="46.57274" lon="5.31513">
        <ele>212.80000305176</ele>
        <time>2021-03-08T13:47:00.000Z</time>
      </trkpt>
      <trkpt lat="46.57282" lon="5.31525">
        <ele>213</ele>
        <time>2021-03-08T13:47:02.000Z</time>
      </trkpt>
      <trkpt lat="46.5729" lon="5.31537">
        <ele>213</ele>
        <time>2021-03-08T13:47:04.000Z</time>
      </trkpt>
      <trkpt lat="46.57294" lon="5.31544">
        <ele>213</ele>
        <time>2021-03-08T13:47:05.000Z</time>
      </trkpt>
      <trkpt lat="46.57298" lon="5.3155">
        <ele>213.19999694824</ele>
        <time>2021-03-08T13:47:06.000Z</time>
      </trkpt>
      <trkpt lat="46.57307" lon="5.31563">
        <ele>213</ele>
        <time>2021-03-08T13:47:08.000Z</time>
      </trkpt>
      <trkpt lat="46.57316" lon="5.31577">
        <ele>213</ele>
        <time>2021-03-08T13:47:10.000Z</time>
      </trkpt>
      <trkpt lat="46.5732" lon="5.31584">
        <ele>212.80000305176</ele>
        <time>2021-03-08T13:47:11.000Z</time>
      </trkpt>
      <trkpt lat="46.57325" lon="5.3159">
        <ele>212.80000305176</ele>
        <time>2021-03-08T13:47:12.000Z</time>
      </trkpt>
      <trkpt lat="46.5733" lon="5.31596">
        <ele>212.80000305176</ele>
        <time>2021-03-08T13:47:13.000Z</time>
      </trkpt>
      <trkpt lat="46.57335" lon="5.31601">
        <ele>212.80000305176</ele>
        <time>2021-03-08T13:47:14.000Z</time>
      </trkpt>
      <trkpt lat="46.57346" lon="5.31611">
        <ele>212.80000305176</ele>
        <time>2021-03-08T13:47:16.000Z</time>
      </trkpt>
      <trkpt lat="46.57359" lon="5.31617">
        <ele>212.60000610352</ele>
        <time>2021-03-08T13:47:18.000Z</time>
      </trkpt>
      <trkpt lat="46.57371" lon="5.3162">
        <ele>212.60000610352</ele>
        <time>2021-03-08T13:47:20.000Z</time>
      </trkpt>
      <trkpt lat="46.57378" lon="5.31621">
        <ele>212.39999389648</ele>
        <time>2021-03-08T13:47:21.000Z</time>
      </trkpt>
      <trkpt lat="46.57384" lon="5.31621">
        <ele>212.19999694824</ele>
        <time>2021-03-08T13:47:22.000Z</time>
      </trkpt>
      <trkpt lat="46.57397" lon="5.31622">
        <ele>212</ele>
        <time>2021-03-08T13:47:24.000Z</time>
      </trkpt>
      <trkpt lat="46.57409" lon="5.31621">
        <ele>211.80000305176</ele>
        <time>2021-03-08T13:47:26.000Z</time>
      </trkpt>
      <trkpt lat="46.57422" lon="5.31621">
        <ele>211.60000610352</ele>
        <time>2021-03-08T13:47:28.000Z</time>
      </trkpt>
      <trkpt lat="46.57435" lon="5.3162">
        <ele>211.39999389648</ele>
        <time>2021-03-08T13:47:30.000Z</time>
      </trkpt>
      <trkpt lat="46.57447" lon="5.31619">
        <ele>211.19999694824</ele>
        <time>2021-03-08T13:47:32.000Z</time>
      </trkpt>
      <trkpt lat="46.57459" lon="5.31618">
        <ele>211</ele>
        <time>2021-03-08T13:47:34.000Z</time>
      </trkpt>
      <trkpt lat="46.57471" lon="5.31617">
        <ele>211</ele>
        <time>2021-03-08T13:47:36.000Z</time>
      </trkpt>
      <trkpt lat="46.57483" lon="5.31617">
        <ele>211</ele>
        <time>2021-03-08T13:47:38.000Z</time>
      </trkpt>
      <trkpt lat="46.57495" lon="5.31616">
        <ele>211</ele>
        <time>2021-03-08T13:47:40.000Z</time>
      </trkpt>
      <trkpt lat="46.57507" lon="5.31615">
        <ele>211.19999694824</ele>
        <time>2021-03-08T13:47:42.000Z</time>
      </trkpt>
      <trkpt lat="46.57518" lon="5.31612">
        <ele>211</ele>
        <time>2021-03-08T13:47:44.000Z</time>
      </trkpt>
      <trkpt lat="46.5753" lon="5.3161">
        <ele>211</ele>
        <time>2021-03-08T13:47:46.000Z</time>
      </trkpt>
      <trkpt lat="46.57541" lon="5.31608">
        <ele>211.19999694824</ele>
        <time>2021-03-08T13:47:48.000Z</time>
      </trkpt>
      <trkpt lat="46.57553" lon="5.31606">
        <ele>211.39999389648</ele>
        <time>2021-03-08T13:47:50.000Z</time>
      </trkpt>
      <trkpt lat="46.57566" lon="5.31604">
        <ele>211.60000610352</ele>
        <time>2021-03-08T13:47:52.000Z</time>
      </trkpt>
      <trkpt lat="46.57578" lon="5.31603">
        <ele>211.60000610352</ele>
        <time>2021-03-08T13:47:54.000Z</time>
      </trkpt>
      <trkpt lat="46.5759" lon="5.31601">
        <ele>211.39999389648</ele>
        <time>2021-03-08T13:47:56.000Z</time>
      </trkpt>
      <trkpt lat="46.57603" lon="5.31599">
        <ele>211.39999389648</ele>
        <time>2021-03-08T13:47:58.000Z</time>
      </trkpt>
      <trkpt lat="46.57609" lon="5.31598">
        <ele>211.39999389648</ele>
        <time>2021-03-08T13:47:59.000Z</time>
      </trkpt>
      <trkpt lat="46.57615" lon="5.31597">
        <ele>211.39999389648</ele>
        <time>2021-03-08T13:48:00.000Z</time>
      </trkpt>
      <trkpt lat="46.57628" lon="5.31595">
        <ele>211.60000610352</ele>
        <time>2021-03-08T13:48:02.000Z</time>
      </trkpt>
      <trkpt lat="46.5764" lon="5.31593">
        <ele>211.60000610352</ele>
        <time>2021-03-08T13:48:04.000Z</time>
      </trkpt>
      <trkpt lat="46.57653" lon="5.31591">
        <ele>211.39999389648</ele>
        <time>2021-03-08T13:48:06.000Z</time>
      </trkpt>
      <trkpt lat="46.57666" lon="5.31589">
        <ele>211.39999389648</ele>
        <time>2021-03-08T13:48:08.000Z</time>
      </trkpt>
      <trkpt lat="46.57679" lon="5.31587">
        <ele>211.39999389648</ele>
        <time>2021-03-08T13:48:10.000Z</time>
      </trkpt>
      <trkpt lat="46.57692" lon="5.31584">
        <ele>211.39999389648</ele>
        <time>2021-03-08T13:48:12.000Z</time>
      </trkpt>
      <trkpt lat="46.57705" lon="5.31579">
        <ele>211.39999389648</ele>
        <time>2021-03-08T13:48:14.000Z</time>
      </trkpt>
      <trkpt lat="46.57711" lon="5.31576">
        <ele>211.39999389648</ele>
        <time>2021-03-08T13:48:15.000Z</time>
      </trkpt>
      <trkpt lat="46.57718" lon="5.31573">
        <ele>211.39999389648</ele>
        <time>2021-03-08T13:48:16.000Z</time>
      </trkpt>
      <trkpt lat="46.57731" lon="5.31565">
        <ele>211.39999389648</ele>
        <time>2021-03-08T13:48:18.000Z</time>
      </trkpt>
      <trkpt lat="46.57743" lon="5.31555">
        <ele>211.39999389648</ele>
        <time>2021-03-08T13:48:20.000Z</time>
      </trkpt>
      <trkpt lat="46.5775" lon="5.3155">
        <ele>211.39999389648</ele>
        <time>2021-03-08T13:48:21.000Z</time>
      </trkpt>
      <trkpt lat="46.57756" lon="5.31545">
        <ele>211.39999389648</ele>
        <time>2021-03-08T13:48:22.000Z</time>
      </trkpt>
      <trkpt lat="46.57769" lon="5.31535">
        <ele>211.39999389648</ele>
        <time>2021-03-08T13:48:24.000Z</time>
      </trkpt>
      <trkpt lat="46.57783" lon="5.31524">
        <ele>211.39999389648</ele>
        <time>2021-03-08T13:48:26.000Z</time>
      </trkpt>
      <trkpt lat="46.57796" lon="5.31514">
        <ele>211.19999694824</ele>
        <time>2021-03-08T13:48:28.000Z</time>
      </trkpt>
      <trkpt lat="46.5781" lon="5.31505">
        <ele>210.80000305176</ele>
        <time>2021-03-08T13:48:30.000Z</time>
      </trkpt>
      <trkpt lat="46.57825" lon="5.31497">
        <ele>210.19999694824</ele>
        <time>2021-03-08T13:48:32.000Z</time>
      </trkpt>
      <trkpt lat="46.57832" lon="5.31493">
        <ele>209.60000610352</ele>
        <time>2021-03-08T13:48:33.000Z</time>
      </trkpt>
      <trkpt lat="46.57839" lon="5.3149">
        <ele>209.39999389648</ele>
        <time>2021-03-08T13:48:34.000Z</time>
      </trkpt>
      <trkpt lat="46.57853" lon="5.31485">
        <ele>209</ele>
        <time>2021-03-08T13:48:36.000Z</time>
      </trkpt>
      <trkpt lat="46.5786" lon="5.31482">
        <ele>208.80000305176</ele>
        <time>2021-03-08T13:48:37.000Z</time>
      </trkpt>
      <trkpt lat="46.57867" lon="5.3148">
        <ele>208.60000610352</ele>
        <time>2021-03-08T13:48:38.000Z</time>
      </trkpt>
      <trkpt lat="46.57881" lon="5.31476">
        <ele>208.39999389648</ele>
        <time>2021-03-08T13:48:40.000Z</time>
      </trkpt>
      <trkpt lat="46.57894" lon="5.31471">
        <ele>207.60000610352</ele>
        <time>2021-03-08T13:48:42.000Z</time>
      </trkpt>
      <trkpt lat="46.57901" lon="5.31469">
        <ele>207.60000610352</ele>
        <time>2021-03-08T13:48:43.000Z</time>
      </trkpt>
      <trkpt lat="46.57908" lon="5.31467">
        <ele>207.19999694824</ele>
        <time>2021-03-08T13:48:44.000Z</time>
      </trkpt>
      <trkpt lat="46.57921" lon="5.31463">
        <ele>206.80000305176</ele>
        <time>2021-03-08T13:48:46.000Z</time>
      </trkpt>
      <trkpt lat="46.57934" lon="5.31459">
        <ele>206.39999389648</ele>
        <time>2021-03-08T13:48:48.000Z</time>
      </trkpt>
      <trkpt lat="46.57941" lon="5.31457">
        <ele>206.39999389648</ele>
        <time>2021-03-08T13:48:49.000Z</time>
      </trkpt>
      <trkpt lat="46.57947" lon="5.31455">
        <ele>206.39999389648</ele>
        <time>2021-03-08T13:48:50.000Z</time>
      </trkpt>
      <trkpt lat="46.57961" lon="5.31451">
        <ele>206.19999694824</ele>
        <time>2021-03-08T13:48:52.000Z</time>
      </trkpt>
      <trkpt lat="46.57974" lon="5.31447">
        <ele>206.19999694824</ele>
        <time>2021-03-08T13:48:54.000Z</time>
      </trkpt>
      <trkpt lat="46.57987" lon="5.31443">
        <ele>206</ele>
        <time>2021-03-08T13:48:56.000Z</time>
      </trkpt>
      <trkpt lat="46.57999" lon="5.31439">
        <ele>206</ele>
        <time>2021-03-08T13:48:58.000Z</time>
      </trkpt>
      <trkpt lat="46.58006" lon="5.31438">
        <ele>206</ele>
        <time>2021-03-08T13:48:59.000Z</time>
      </trkpt>
      <trkpt lat="46.58012" lon="5.31436">
        <ele>205.80000305176</ele>
        <time>2021-03-08T13:49:00.000Z</time>
      </trkpt>
      <trkpt lat="46.58024" lon="5.31432">
        <ele>205.80000305176</ele>
        <time>2021-03-08T13:49:02.000Z</time>
      </trkpt>
      <trkpt lat="46.58036" lon="5.3143">
        <ele>205.80000305176</ele>
        <time>2021-03-08T13:49:04.000Z</time>
      </trkpt>
      <trkpt lat="46.58049" lon="5.31429">
        <ele>206</ele>
        <time>2021-03-08T13:49:06.000Z</time>
      </trkpt>
      <trkpt lat="46.58055" lon="5.31429">
        <ele>206</ele>
        <time>2021-03-08T13:49:07.000Z</time>
      </trkpt>
      <trkpt lat="46.58061" lon="5.3143">
        <ele>205.80000305176</ele>
        <time>2021-03-08T13:49:08.000Z</time>
      </trkpt>
      <trkpt lat="46.58073" lon="5.3143">
        <ele>205.80000305176</ele>
        <time>2021-03-08T13:49:10.000Z</time>
      </trkpt>
      <trkpt lat="46.58085" lon="5.31432">
        <ele>206</ele>
        <time>2021-03-08T13:49:12.000Z</time>
      </trkpt>
      <trkpt lat="46.58097" lon="5.31433">
        <ele>206</ele>
        <time>2021-03-08T13:49:14.000Z</time>
      </trkpt>
      <trkpt lat="46.58109" lon="5.31434">
        <ele>206</ele>
        <time>2021-03-08T13:49:16.000Z</time>
      </trkpt>
      <trkpt lat="46.58122" lon="5.31434">
        <ele>206.19999694824</ele>
        <time>2021-03-08T13:49:18.000Z</time>
      </trkpt>
      <trkpt lat="46.58128" lon="5.31433">
        <ele>206.19999694824</ele>
        <time>2021-03-08T13:49:19.000Z</time>
      </trkpt>
      <trkpt lat="46.58133" lon="5.31431">
        <ele>206.19999694824</ele>
        <time>2021-03-08T13:49:20.000Z</time>
      </trkpt>
      <trkpt lat="46.58139" lon="5.31429">
        <ele>206.19999694824</ele>
        <time>2021-03-08T13:49:21.000Z</time>
      </trkpt>
      <trkpt lat="46.58145" lon="5.31425">
        <ele>206.19999694824</ele>
        <time>2021-03-08T13:49:22.000Z</time>
      </trkpt>
      <trkpt lat="46.5815" lon="5.31422">
        <ele>206.19999694824</ele>
        <time>2021-03-08T13:49:23.000Z</time>
      </trkpt>
      <trkpt lat="46.58156" lon="5.31418">
        <ele>206.19999694824</ele>
        <time>2021-03-08T13:49:24.000Z</time>
      </trkpt>
      <trkpt lat="46.58167" lon="5.3141">
        <ele>206.19999694824</ele>
        <time>2021-03-08T13:49:26.000Z</time>
      </trkpt>
      <trkpt lat="46.58172" lon="5.31405">
        <ele>206.19999694824</ele>
        <time>2021-03-08T13:49:27.000Z</time>
      </trkpt>
      <trkpt lat="46.58178" lon="5.314">
        <ele>206.19999694824</ele>
        <time>2021-03-08T13:49:28.000Z</time>
      </trkpt>
      <trkpt lat="46.58189" lon="5.31391">
        <ele>206.19999694824</ele>
        <time>2021-03-08T13:49:30.000Z</time>
      </trkpt>
      <trkpt lat="46.58201" lon="5.31382">
        <ele>206</ele>
        <time>2021-03-08T13:49:32.000Z</time>
      </trkpt>
      <trkpt lat="46.58212" lon="5.31373">
        <ele>205.80000305176</ele>
        <time>2021-03-08T13:49:34.000Z</time>
      </trkpt>
      <trkpt lat="46.58224" lon="5.31363">
        <ele>205.60000610352</ele>
        <time>2021-03-08T13:49:36.000Z</time>
      </trkpt>
      <trkpt lat="46.5823" lon="5.31359">
        <ele>205.39999389648</ele>
        <time>2021-03-08T13:49:37.000Z</time>
      </trkpt>
      <trkpt lat="46.58236" lon="5.31354">
        <ele>205.19999694824</ele>
        <time>2021-03-08T13:49:38.000Z</time>
      </trkpt>
      <trkpt lat="46.58247" lon="5.31345">
        <ele>205</ele>
        <time>2021-03-08T13:49:40.000Z</time>
      </trkpt>
      <trkpt lat="46.58259" lon="5.31335">
        <ele>204.60000610352</ele>
        <time>2021-03-08T13:49:42.000Z</time>
      </trkpt>
      <trkpt lat="46.58265" lon="5.31331">
        <ele>204.39999389648</ele>
        <time>2021-03-08T13:49:43.000Z</time>
      </trkpt>
      <trkpt lat="46.58271" lon="5.31326">
        <ele>204.19999694824</ele>
        <time>2021-03-08T13:49:44.000Z</time>
      </trkpt>
      <trkpt lat="46.58277" lon="5.31321">
        <ele>204</ele>
        <time>2021-03-08T13:49:45.000Z</time>
      </trkpt>
      <trkpt lat="46.58282" lon="5.31317">
        <ele>203.80000305176</ele>
        <time>2021-03-08T13:49:46.000Z</time>
      </trkpt>
      <trkpt lat="46.58294" lon="5.31307">
        <ele>203.60000610352</ele>
        <time>2021-03-08T13:49:48.000Z</time>
      </trkpt>
      <trkpt lat="46.58305" lon="5.31298">
        <ele>203.39999389648</ele>
        <time>2021-03-08T13:49:50.000Z</time>
      </trkpt>
      <trkpt lat="46.58317" lon="5.31289">
        <ele>203.39999389648</ele>
        <time>2021-03-08T13:49:52.000Z</time>
      </trkpt>
      <trkpt lat="46.58329" lon="5.3128">
        <ele>203.39999389648</ele>
        <time>2021-03-08T13:49:54.000Z</time>
      </trkpt>
      <trkpt lat="46.58336" lon="5.31276">
        <ele>203.39999389648</ele>
        <time>2021-03-08T13:49:55.000Z</time>
      </trkpt>
      <trkpt lat="46.58342" lon="5.31272">
        <ele>203.39999389648</ele>
        <time>2021-03-08T13:49:56.000Z</time>
      </trkpt>
      <trkpt lat="46.58348" lon="5.31269">
        <ele>203.39999389648</ele>
        <time>2021-03-08T13:49:57.000Z</time>
      </trkpt>
      <trkpt lat="46.58355" lon="5.31266">
        <ele>203.39999389648</ele>
        <time>2021-03-08T13:49:58.000Z</time>
      </trkpt>
      <trkpt lat="46.58367" lon="5.3126">
        <ele>203.39999389648</ele>
        <time>2021-03-08T13:50:00.000Z</time>
      </trkpt>
      <trkpt lat="46.5838" lon="5.31254">
        <ele>203.39999389648</ele>
        <time>2021-03-08T13:50:02.000Z</time>
      </trkpt>
      <trkpt lat="46.58393" lon="5.31249">
        <ele>203.39999389648</ele>
        <time>2021-03-08T13:50:04.000Z</time>
      </trkpt>
      <trkpt lat="46.58405" lon="5.31243">
        <ele>203.39999389648</ele>
        <time>2021-03-08T13:50:06.000Z</time>
      </trkpt>
      <trkpt lat="46.58418" lon="5.31238">
        <ele>203.39999389648</ele>
        <time>2021-03-08T13:50:08.000Z</time>
      </trkpt>
      <trkpt lat="46.5843" lon="5.31233">
        <ele>203.39999389648</ele>
        <time>2021-03-08T13:50:10.000Z</time>
      </trkpt>
      <trkpt lat="46.58436" lon="5.3123">
        <ele>203.39999389648</ele>
        <time>2021-03-08T13:50:11.000Z</time>
      </trkpt>
      <trkpt lat="46.58442" lon="5.31227">
        <ele>203.39999389648</ele>
        <time>2021-03-08T13:50:12.000Z</time>
      </trkpt>
      <trkpt lat="46.58454" lon="5.31222">
        <ele>203.39999389648</ele>
        <time>2021-03-08T13:50:14.000Z</time>
      </trkpt>
      <trkpt lat="46.58467" lon="5.31217">
        <ele>203.39999389648</ele>
        <time>2021-03-08T13:50:16.000Z</time>
      </trkpt>
      <trkpt lat="46.58479" lon="5.31212">
        <ele>203.39999389648</ele>
        <time>2021-03-08T13:50:18.000Z</time>
      </trkpt>
      <trkpt lat="46.58491" lon="5.31206">
        <ele>203.39999389648</ele>
        <time>2021-03-08T13:50:20.000Z</time>
      </trkpt>
      <trkpt lat="46.58503" lon="5.31201">
        <ele>203.39999389648</ele>
        <time>2021-03-08T13:50:22.000Z</time>
      </trkpt>
      <trkpt lat="46.58516" lon="5.31195">
        <ele>203.39999389648</ele>
        <time>2021-03-08T13:50:24.000Z</time>
      </trkpt>
      <trkpt lat="46.58528" lon="5.31189">
        <ele>203.39999389648</ele>
        <time>2021-03-08T13:50:26.000Z</time>
      </trkpt>
      <trkpt lat="46.5854" lon="5.31182">
        <ele>203.39999389648</ele>
        <time>2021-03-08T13:50:28.000Z</time>
      </trkpt>
      <trkpt lat="46.58552" lon="5.31174">
        <ele>203.19999694824</ele>
        <time>2021-03-08T13:50:30.000Z</time>
      </trkpt>
      <trkpt lat="46.58563" lon="5.31165">
        <ele>202.80000305176</ele>
        <time>2021-03-08T13:50:32.000Z</time>
      </trkpt>
      <trkpt lat="46.58575" lon="5.31155">
        <ele>202.60000610352</ele>
        <time>2021-03-08T13:50:34.000Z</time>
      </trkpt>
      <trkpt lat="46.58586" lon="5.31143">
        <ele>202.60000610352</ele>
        <time>2021-03-08T13:50:36.000Z</time>
      </trkpt>
      <trkpt lat="46.58598" lon="5.31132">
        <ele>202.60000610352</ele>
        <time>2021-03-08T13:50:38.000Z</time>
      </trkpt>
      <trkpt lat="46.58609" lon="5.3112">
        <ele>202.39999389648</ele>
        <time>2021-03-08T13:50:40.000Z</time>
      </trkpt>
      <trkpt lat="46.5862" lon="5.31109">
        <ele>202.39999389648</ele>
        <time>2021-03-08T13:50:42.000Z</time>
      </trkpt>
      <trkpt lat="46.58632" lon="5.31097">
        <ele>202.19999694824</ele>
        <time>2021-03-08T13:50:44.000Z</time>
      </trkpt>
      <trkpt lat="46.58643" lon="5.31086">
        <ele>202</ele>
        <time>2021-03-08T13:50:46.000Z</time>
      </trkpt>
      <trkpt lat="46.58654" lon="5.31075">
        <ele>201.60000610352</ele>
        <time>2021-03-08T13:50:48.000Z</time>
      </trkpt>
      <trkpt lat="46.58664" lon="5.31064">
        <ele>201.60000610352</ele>
        <time>2021-03-08T13:50:50.000Z</time>
      </trkpt>
      <trkpt lat="46.5867" lon="5.31058">
        <ele>201.39999389648</ele>
        <time>2021-03-08T13:50:51.000Z</time>
      </trkpt>
      <trkpt lat="46.58675" lon="5.31052">
        <ele>201.39999389648</ele>
        <time>2021-03-08T13:50:52.000Z</time>
      </trkpt>
      <trkpt lat="46.58685" lon="5.31042">
        <ele>201.39999389648</ele>
        <time>2021-03-08T13:50:54.000Z</time>
      </trkpt>
      <trkpt lat="46.5869" lon="5.31037">
        <ele>201.39999389648</ele>
        <time>2021-03-08T13:50:55.000Z</time>
      </trkpt>
      <trkpt lat="46.58695" lon="5.31031">
        <ele>201.19999694824</ele>
        <time>2021-03-08T13:50:56.000Z</time>
      </trkpt>
      <trkpt lat="46.58705" lon="5.31021">
        <ele>201.19999694824</ele>
        <time>2021-03-08T13:50:58.000Z</time>
      </trkpt>
      <trkpt lat="46.58715" lon="5.31011">
        <ele>201.19999694824</ele>
        <time>2021-03-08T13:51:00.000Z</time>
      </trkpt>
      <trkpt lat="46.58725" lon="5.31001">
        <ele>201.39999389648</ele>
        <time>2021-03-08T13:51:02.000Z</time>
      </trkpt>
      <trkpt lat="46.58734" lon="5.30991">
        <ele>201.39999389648</ele>
        <time>2021-03-08T13:51:04.000Z</time>
      </trkpt>
      <trkpt lat="46.58743" lon="5.30982">
        <ele>201.80000305176</ele>
        <time>2021-03-08T13:51:06.000Z</time>
      </trkpt>
      <trkpt lat="46.58751" lon="5.30973">
        <ele>202.19999694824</ele>
        <time>2021-03-08T13:51:08.000Z</time>
      </trkpt>
      <trkpt lat="46.5876" lon="5.30964">
        <ele>202.60000610352</ele>
        <time>2021-03-08T13:51:10.000Z</time>
      </trkpt>
      <trkpt lat="46.58769" lon="5.30955">
        <ele>203</ele>
        <time>2021-03-08T13:51:12.000Z</time>
      </trkpt>
      <trkpt lat="46.58777" lon="5.30945">
        <ele>203.19999694824</ele>
        <time>2021-03-08T13:51:14.000Z</time>
      </trkpt>
      <trkpt lat="46.58782" lon="5.3094">
        <ele>203.60000610352</ele>
        <time>2021-03-08T13:51:15.000Z</time>
      </trkpt>
      <trkpt lat="46.58786" lon="5.30936">
        <ele>203.80000305176</ele>
        <time>2021-03-08T13:51:16.000Z</time>
      </trkpt>
      <trkpt lat="46.58794" lon="5.30927">
        <ele>204.39999389648</ele>
        <time>2021-03-08T13:51:18.000Z</time>
      </trkpt>
      <trkpt lat="46.58803" lon="5.3092">
        <ele>204.60000610352</ele>
        <time>2021-03-08T13:51:20.000Z</time>
      </trkpt>
      <trkpt lat="46.58813" lon="5.30913">
        <ele>204.80000305176</ele>
        <time>2021-03-08T13:51:22.000Z</time>
      </trkpt>
      <trkpt lat="46.58818" lon="5.3091">
        <ele>205</ele>
        <time>2021-03-08T13:51:23.000Z</time>
      </trkpt>
      <trkpt lat="46.58823" lon="5.30908">
        <ele>205.19999694824</ele>
        <time>2021-03-08T13:51:24.000Z</time>
      </trkpt>
      <trkpt lat="46.58833" lon="5.30905">
        <ele>205.39999389648</ele>
        <time>2021-03-08T13:51:26.000Z</time>
      </trkpt>
      <trkpt lat="46.58844" lon="5.30902">
        <ele>205.39999389648</ele>
        <time>2021-03-08T13:51:28.000Z</time>
      </trkpt>
      <trkpt lat="46.5885" lon="5.30901">
        <ele>205.60000610352</ele>
        <time>2021-03-08T13:51:29.000Z</time>
      </trkpt>
      <trkpt lat="46.58856" lon="5.309">
        <ele>205.60000610352</ele>
        <time>2021-03-08T13:51:30.000Z</time>
      </trkpt>
      <trkpt lat="46.58867" lon="5.30899">
        <ele>205.60000610352</ele>
        <time>2021-03-08T13:51:32.000Z</time>
      </trkpt>
      <trkpt lat="46.58878" lon="5.30897">
        <ele>205.80000305176</ele>
        <time>2021-03-08T13:51:34.000Z</time>
      </trkpt>
      <trkpt lat="46.58884" lon="5.30896">
        <ele>206</ele>
        <time>2021-03-08T13:51:35.000Z</time>
      </trkpt>
      <trkpt lat="46.58889" lon="5.30895">
        <ele>206</ele>
        <time>2021-03-08T13:51:36.000Z</time>
      </trkpt>
      <trkpt lat="46.58901" lon="5.30894">
        <ele>206.19999694824</ele>
        <time>2021-03-08T13:51:38.000Z</time>
      </trkpt>
      <trkpt lat="46.58913" lon="5.30892">
        <ele>206.19999694824</ele>
        <time>2021-03-08T13:51:40.000Z</time>
      </trkpt>
      <trkpt lat="46.58925" lon="5.30891">
        <ele>206.39999389648</ele>
        <time>2021-03-08T13:51:42.000Z</time>
      </trkpt>
      <trkpt lat="46.58937" lon="5.30889">
        <ele>206</ele>
        <time>2021-03-08T13:51:44.000Z</time>
      </trkpt>
      <trkpt lat="46.5895" lon="5.30888">
        <ele>205.80000305176</ele>
        <time>2021-03-08T13:51:46.000Z</time>
      </trkpt>
      <trkpt lat="46.58964" lon="5.30886">
        <ele>205.60000610352</ele>
        <time>2021-03-08T13:51:48.000Z</time>
      </trkpt>
      <trkpt lat="46.58977" lon="5.30885">
        <ele>205.39999389648</ele>
        <time>2021-03-08T13:51:50.000Z</time>
      </trkpt>
      <trkpt lat="46.58992" lon="5.30883">
        <ele>205.19999694824</ele>
        <time>2021-03-08T13:51:52.000Z</time>
      </trkpt>
      <trkpt lat="46.59007" lon="5.30881">
        <ele>204.80000305176</ele>
        <time>2021-03-08T13:51:54.000Z</time>
      </trkpt>
      <trkpt lat="46.59022" lon="5.30879">
        <ele>204.39999389648</ele>
        <time>2021-03-08T13:51:56.000Z</time>
      </trkpt>
      <trkpt lat="46.59037" lon="5.30877">
        <ele>204.19999694824</ele>
        <time>2021-03-08T13:51:58.000Z</time>
      </trkpt>
      <trkpt lat="46.59045" lon="5.30876">
        <ele>204</ele>
        <time>2021-03-08T13:51:59.000Z</time>
      </trkpt>
      <trkpt lat="46.59053" lon="5.30875">
        <ele>203.80000305176</ele>
        <time>2021-03-08T13:52:00.000Z</time>
      </trkpt>
      <trkpt lat="46.59069" lon="5.30872">
        <ele>202.80000305176</ele>
        <time>2021-03-08T13:52:02.000Z</time>
      </trkpt>
      <trkpt lat="46.59078" lon="5.30871">
        <ele>202</ele>
        <time>2021-03-08T13:52:03.000Z</time>
      </trkpt>
      <trkpt lat="46.59086" lon="5.3087">
        <ele>201.19999694824</ele>
        <time>2021-03-08T13:52:04.000Z</time>
      </trkpt>
      <trkpt lat="46.59094" lon="5.30869">
        <ele>200.60000610352</ele>
        <time>2021-03-08T13:52:05.000Z</time>
      </trkpt>
      <trkpt lat="46.59103" lon="5.30868">
        <ele>200</ele>
        <time>2021-03-08T13:52:06.000Z</time>
      </trkpt>
      <trkpt lat="46.59111" lon="5.30867">
        <ele>199.80000305176</ele>
        <time>2021-03-08T13:52:07.000Z</time>
      </trkpt>
      <trkpt lat="46.59119" lon="5.30866">
        <ele>199.19999694824</ele>
        <time>2021-03-08T13:52:08.000Z</time>
      </trkpt>
      <trkpt lat="46.59136" lon="5.30864">
        <ele>198.60000610352</ele>
        <time>2021-03-08T13:52:10.000Z</time>
      </trkpt>
      <trkpt lat="46.59144" lon="5.30862">
        <ele>198</ele>
        <time>2021-03-08T13:52:11.000Z</time>
      </trkpt>
      <trkpt lat="46.59153" lon="5.30861">
        <ele>197.39999389648</ele>
        <time>2021-03-08T13:52:12.000Z</time>
      </trkpt>
      <trkpt lat="46.59161" lon="5.3086">
        <ele>197</ele>
        <time>2021-03-08T13:52:13.000Z</time>
      </trkpt>
      <trkpt lat="46.59169" lon="5.30859">
        <ele>196.60000610352</ele>
        <time>2021-03-08T13:52:14.000Z</time>
      </trkpt>
      <trkpt lat="46.59178" lon="5.30858">
        <ele>196</ele>
        <time>2021-03-08T13:52:15.000Z</time>
      </trkpt>
      <trkpt lat="46.59186" lon="5.30857">
        <ele>195.39999389648</ele>
        <time>2021-03-08T13:52:16.000Z</time>
      </trkpt>
      <trkpt lat="46.59194" lon="5.30856">
        <ele>195.19999694824</ele>
        <time>2021-03-08T13:52:17.000Z</time>
      </trkpt>
      <trkpt lat="46.59202" lon="5.30855">
        <ele>195</ele>
        <time>2021-03-08T13:52:18.000Z</time>
      </trkpt>
      <trkpt lat="46.59211" lon="5.30854">
        <ele>194.80000305176</ele>
        <time>2021-03-08T13:52:19.000Z</time>
      </trkpt>
      <trkpt lat="46.59219" lon="5.30853">
        <ele>194.60000610352</ele>
        <time>2021-03-08T13:52:20.000Z</time>
      </trkpt>
      <trkpt lat="46.59235" lon="5.30851">
        <ele>194.39999389648</ele>
        <time>2021-03-08T13:52:22.000Z</time>
      </trkpt>
      <trkpt lat="46.59252" lon="5.30849">
        <ele>194.19999694824</ele>
        <time>2021-03-08T13:52:24.000Z</time>
      </trkpt>
      <trkpt lat="46.5926" lon="5.30848">
        <ele>193.80000305176</ele>
        <time>2021-03-08T13:52:25.000Z</time>
      </trkpt>
      <trkpt lat="46.59268" lon="5.30846">
        <ele>193.39999389648</ele>
        <time>2021-03-08T13:52:26.000Z</time>
      </trkpt>
      <trkpt lat="46.59277" lon="5.30845">
        <ele>192.60000610352</ele>
        <time>2021-03-08T13:52:27.000Z</time>
      </trkpt>
      <trkpt lat="46.59285" lon="5.30844">
        <ele>192.19999694824</ele>
        <time>2021-03-08T13:52:28.000Z</time>
      </trkpt>
      <trkpt lat="46.59302" lon="5.30843">
        <ele>191.60000610352</ele>
        <time>2021-03-08T13:52:30.000Z</time>
      </trkpt>
      <trkpt lat="46.59318" lon="5.30841">
        <ele>191.19999694824</ele>
        <time>2021-03-08T13:52:32.000Z</time>
      </trkpt>
      <trkpt lat="46.59335" lon="5.30838">
        <ele>190.39999389648</ele>
        <time>2021-03-08T13:52:34.000Z</time>
      </trkpt>
      <trkpt lat="46.59351" lon="5.30836">
        <ele>189.80000305176</ele>
        <time>2021-03-08T13:52:36.000Z</time>
      </trkpt>
      <trkpt lat="46.59359" lon="5.30835">
        <ele>189.39999389648</ele>
        <time>2021-03-08T13:52:37.000Z</time>
      </trkpt>
      <trkpt lat="46.59367" lon="5.30834">
        <ele>189.19999694824</ele>
        <time>2021-03-08T13:52:38.000Z</time>
      </trkpt>
      <trkpt lat="46.59384" lon="5.30832">
        <ele>188.19999694824</ele>
        <time>2021-03-08T13:52:40.000Z</time>
      </trkpt>
      <trkpt lat="46.594" lon="5.30829">
        <ele>187.39999389648</ele>
        <time>2021-03-08T13:52:42.000Z</time>
      </trkpt>
      <trkpt lat="46.59408" lon="5.30828">
        <ele>187.19999694824</ele>
        <time>2021-03-08T13:52:43.000Z</time>
      </trkpt>
      <trkpt lat="46.59416" lon="5.30827">
        <ele>186.80000305176</ele>
        <time>2021-03-08T13:52:44.000Z</time>
      </trkpt>
      <trkpt lat="46.59432" lon="5.30825">
        <ele>186.60000610352</ele>
        <time>2021-03-08T13:52:46.000Z</time>
      </trkpt>
      <trkpt lat="46.59448" lon="5.30823">
        <ele>186.19999694824</ele>
        <time>2021-03-08T13:52:48.000Z</time>
      </trkpt>
      <trkpt lat="46.59455" lon="5.30822">
        <ele>186</ele>
        <time>2021-03-08T13:52:49.000Z</time>
      </trkpt>
      <trkpt lat="46.59463" lon="5.30821">
        <ele>185.60000610352</ele>
        <time>2021-03-08T13:52:50.000Z</time>
      </trkpt>
      <trkpt lat="46.59477" lon="5.30819">
        <ele>185</ele>
        <time>2021-03-08T13:52:52.000Z</time>
      </trkpt>
      <trkpt lat="46.59491" lon="5.30817">
        <ele>184.39999389648</ele>
        <time>2021-03-08T13:52:54.000Z</time>
      </trkpt>
      <trkpt lat="46.59505" lon="5.30815">
        <ele>184.19999694824</ele>
        <time>2021-03-08T13:52:56.000Z</time>
      </trkpt>
      <trkpt lat="46.59519" lon="5.30814">
        <ele>184.19999694824</ele>
        <time>2021-03-08T13:52:58.000Z</time>
      </trkpt>
      <trkpt lat="46.59532" lon="5.30812">
        <ele>184.19999694824</ele>
        <time>2021-03-08T13:53:00.000Z</time>
      </trkpt>
      <trkpt lat="46.59544" lon="5.3081">
        <ele>184.19999694824</ele>
        <time>2021-03-08T13:53:02.000Z</time>
      </trkpt>
      <trkpt lat="46.59556" lon="5.30808">
        <ele>184.19999694824</ele>
        <time>2021-03-08T13:53:04.000Z</time>
      </trkpt>
      <trkpt lat="46.59563" lon="5.30807">
        <ele>184.39999389648</ele>
        <time>2021-03-08T13:53:05.000Z</time>
      </trkpt>
      <trkpt lat="46.59569" lon="5.30807">
        <ele>184.39999389648</ele>
        <time>2021-03-08T13:53:06.000Z</time>
      </trkpt>
      <trkpt lat="46.59582" lon="5.30805">
        <ele>184.60000610352</ele>
        <time>2021-03-08T13:53:08.000Z</time>
      </trkpt>
      <trkpt lat="46.59595" lon="5.30803">
        <ele>184.60000610352</ele>
        <time>2021-03-08T13:53:10.000Z</time>
      </trkpt>
      <trkpt lat="46.59607" lon="5.30802">
        <ele>184.80000305176</ele>
        <time>2021-03-08T13:53:12.000Z</time>
      </trkpt>
      <trkpt lat="46.5962" lon="5.30799">
        <ele>184.80000305176</ele>
        <time>2021-03-08T13:53:14.000Z</time>
      </trkpt>
      <trkpt lat="46.59626" lon="5.30798">
        <ele>185</ele>
        <time>2021-03-08T13:53:15.000Z</time>
      </trkpt>
      <trkpt lat="46.59632" lon="5.30798">
        <ele>185</ele>
        <time>2021-03-08T13:53:16.000Z</time>
      </trkpt>
      <trkpt lat="46.59644" lon="5.30797">
        <ele>185</ele>
        <time>2021-03-08T13:53:18.000Z</time>
      </trkpt>
      <trkpt lat="46.5965" lon="5.30796">
        <ele>185</ele>
        <time>2021-03-08T13:53:19.000Z</time>
      </trkpt>
      <trkpt lat="46.59656" lon="5.30796">
        <ele>185</ele>
        <time>2021-03-08T13:53:20.000Z</time>
      </trkpt>
      <trkpt lat="46.59667" lon="5.30794">
        <ele>185</ele>
        <time>2021-03-08T13:53:22.000Z</time>
      </trkpt>
      <trkpt lat="46.59677" lon="5.30793">
        <ele>185</ele>
        <time>2021-03-08T13:53:24.000Z</time>
      </trkpt>
      <trkpt lat="46.59686" lon="5.30792">
        <ele>185</ele>
        <time>2021-03-08T13:53:26.000Z</time>
      </trkpt>
      <trkpt lat="46.59695" lon="5.30792">
        <ele>185.80000305176</ele>
        <time>2021-03-08T13:53:28.000Z</time>
      </trkpt>
      <trkpt lat="46.597" lon="5.30792">
        <ele>186</ele>
        <time>2021-03-08T13:53:29.000Z</time>
      </trkpt>
      <trkpt lat="46.59704" lon="5.30791">
        <ele>186.19999694824</ele>
        <time>2021-03-08T13:53:30.000Z</time>
      </trkpt>
      <trkpt lat="46.59712" lon="5.30791">
        <ele>186.60000610352</ele>
        <time>2021-03-08T13:53:32.000Z</time>
      </trkpt>
      <trkpt lat="46.59716" lon="5.30791">
        <ele>186.80000305176</ele>
        <time>2021-03-08T13:53:33.000Z</time>
      </trkpt>
      <trkpt lat="46.5972" lon="5.30791">
        <ele>187.19999694824</ele>
        <time>2021-03-08T13:53:34.000Z</time>
      </trkpt>
      <trkpt lat="46.59728" lon="5.3079">
        <ele>187.60000610352</ele>
        <time>2021-03-08T13:53:36.000Z</time>
      </trkpt>
      <trkpt lat="46.59732" lon="5.3079">
        <ele>188.39999389648</ele>
        <time>2021-03-08T13:53:37.000Z</time>
      </trkpt>
      <trkpt lat="46.59736" lon="5.3079">
        <ele>188.60000610352</ele>
        <time>2021-03-08T13:53:38.000Z</time>
      </trkpt>
      <trkpt lat="46.59744" lon="5.3079">
        <ele>189.19999694824</ele>
        <time>2021-03-08T13:53:40.000Z</time>
      </trkpt>
      <trkpt lat="46.59748" lon="5.30789">
        <ele>189.60000610352</ele>
        <time>2021-03-08T13:53:41.000Z</time>
      </trkpt>
      <trkpt lat="46.59752" lon="5.30789">
        <ele>189.60000610352</ele>
        <time>2021-03-08T13:53:42.000Z</time>
      </trkpt>
      <trkpt lat="46.59759" lon="5.30788">
        <ele>189.80000305176</ele>
        <time>2021-03-08T13:53:44.000Z</time>
      </trkpt>
      <trkpt lat="46.59767" lon="5.30788">
        <ele>190.19999694824</ele>
        <time>2021-03-08T13:53:46.000Z</time>
      </trkpt>
      <trkpt lat="46.59775" lon="5.30789">
        <ele>190.60000610352</ele>
        <time>2021-03-08T13:53:48.000Z</time>
      </trkpt>
      <trkpt lat="46.59779" lon="5.30789">
        <ele>191</ele>
        <time>2021-03-08T13:53:49.000Z</time>
      </trkpt>
      <trkpt lat="46.59783" lon="5.3079">
        <ele>191.39999389648</ele>
        <time>2021-03-08T13:53:50.000Z</time>
      </trkpt>
      <trkpt lat="46.59791" lon="5.30793">
        <ele>191.80000305176</ele>
        <time>2021-03-08T13:53:52.000Z</time>
      </trkpt>
      <trkpt lat="46.59795" lon="5.30794">
        <ele>192.19999694824</ele>
        <time>2021-03-08T13:53:53.000Z</time>
      </trkpt>
      <trkpt lat="46.59799" lon="5.30796">
        <ele>192.39999389648</ele>
        <time>2021-03-08T13:53:54.000Z</time>
      </trkpt>
      <trkpt lat="46.59807" lon="5.308">
        <ele>192.80000305176</ele>
        <time>2021-03-08T13:53:56.000Z</time>
      </trkpt>
      <trkpt lat="46.59811" lon="5.30802">
        <ele>193</ele>
        <time>2021-03-08T13:53:57.000Z</time>
      </trkpt>
      <trkpt lat="46.59816" lon="5.30804">
        <ele>193.19999694824</ele>
        <time>2021-03-08T13:53:58.000Z</time>
      </trkpt>
      <trkpt lat="46.59824" lon="5.30808">
        <ele>193.19999694824</ele>
        <time>2021-03-08T13:54:00.000Z</time>
      </trkpt>
      <trkpt lat="46.59832" lon="5.30811">
        <ele>193.60000610352</ele>
        <time>2021-03-08T13:54:02.000Z</time>
      </trkpt>
      <trkpt lat="46.59841" lon="5.30814">
        <ele>193.80000305176</ele>
        <time>2021-03-08T13:54:04.000Z</time>
      </trkpt>
      <trkpt lat="46.5985" lon="5.30817">
        <ele>194.19999694824</ele>
        <time>2021-03-08T13:54:06.000Z</time>
      </trkpt>
      <trkpt lat="46.59859" lon="5.3082">
        <ele>194.39999389648</ele>
        <time>2021-03-08T13:54:08.000Z</time>
      </trkpt>
      <trkpt lat="46.59863" lon="5.30821">
        <ele>194.39999389648</ele>
        <time>2021-03-08T13:54:09.000Z</time>
      </trkpt>
      <trkpt lat="46.59868" lon="5.30822">
        <ele>194.60000610352</ele>
        <time>2021-03-08T13:54:10.000Z</time>
      </trkpt>
      <trkpt lat="46.59877" lon="5.30824">
        <ele>194.60000610352</ele>
        <time>2021-03-08T13:54:12.000Z</time>
      </trkpt>
      <trkpt lat="46.59886" lon="5.30826">
        <ele>194.80000305176</ele>
        <time>2021-03-08T13:54:14.000Z</time>
      </trkpt>
      <trkpt lat="46.59895" lon="5.30828">
        <ele>195.19999694824</ele>
        <time>2021-03-08T13:54:16.000Z</time>
      </trkpt>
      <trkpt lat="46.59904" lon="5.3083">
        <ele>195.39999389648</ele>
        <time>2021-03-08T13:54:18.000Z</time>
      </trkpt>
      <trkpt lat="46.59913" lon="5.30831">
        <ele>195.80000305176</ele>
        <time>2021-03-08T13:54:20.000Z</time>
      </trkpt>
      <trkpt lat="46.59923" lon="5.30833">
        <ele>196</ele>
        <time>2021-03-08T13:54:22.000Z</time>
      </trkpt>
      <trkpt lat="46.59932" lon="5.30834">
        <ele>196.19999694824</ele>
        <time>2021-03-08T13:54:24.000Z</time>
      </trkpt>
      <trkpt lat="46.59941" lon="5.30836">
        <ele>196.39999389648</ele>
        <time>2021-03-08T13:54:26.000Z</time>
      </trkpt>
      <trkpt lat="46.5995" lon="5.30838">
        <ele>196.39999389648</ele>
        <time>2021-03-08T13:54:28.000Z</time>
      </trkpt>
      <trkpt lat="46.59959" lon="5.30842">
        <ele>196.60000610352</ele>
        <time>2021-03-08T13:54:30.000Z</time>
      </trkpt>
      <trkpt lat="46.59963" lon="5.30844">
        <ele>196.80000305176</ele>
        <time>2021-03-08T13:54:31.000Z</time>
      </trkpt>
      <trkpt lat="46.59967" lon="5.30847">
        <ele>197</ele>
        <time>2021-03-08T13:54:32.000Z</time>
      </trkpt>
      <trkpt lat="46.59975" lon="5.30855">
        <ele>197.19999694824</ele>
        <time>2021-03-08T13:54:34.000Z</time>
      </trkpt>
      <trkpt lat="46.59982" lon="5.30864">
        <ele>197.39999389648</ele>
        <time>2021-03-08T13:54:36.000Z</time>
      </trkpt>
      <trkpt lat="46.59989" lon="5.30872">
        <ele>197.60000610352</ele>
        <time>2021-03-08T13:54:38.000Z</time>
      </trkpt>
      <trkpt lat="46.59996" lon="5.30879">
        <ele>197.60000610352</ele>
        <time>2021-03-08T13:54:40.000Z</time>
      </trkpt>
      <trkpt lat="46.60003" lon="5.30887">
        <ele>198</ele>
        <time>2021-03-08T13:54:42.000Z</time>
      </trkpt>
      <trkpt lat="46.6001" lon="5.30895">
        <ele>198.19999694824</ele>
        <time>2021-03-08T13:54:44.000Z</time>
      </trkpt>
      <trkpt lat="46.60013" lon="5.309">
        <ele>198.39999389648</ele>
        <time>2021-03-08T13:54:45.000Z</time>
      </trkpt>
      <trkpt lat="46.60017" lon="5.30904">
        <ele>198.39999389648</ele>
        <time>2021-03-08T13:54:46.000Z</time>
      </trkpt>
      <trkpt lat="46.60021" lon="5.30908">
        <ele>198.80000305176</ele>
        <time>2021-03-08T13:54:47.000Z</time>
      </trkpt>
      <trkpt lat="46.60025" lon="5.30912">
        <ele>199</ele>
        <time>2021-03-08T13:54:48.000Z</time>
      </trkpt>
      <trkpt lat="46.60032" lon="5.3092">
        <ele>199.39999389648</ele>
        <time>2021-03-08T13:54:50.000Z</time>
      </trkpt>
      <trkpt lat="46.60036" lon="5.30925">
        <ele>199.60000610352</ele>
        <time>2021-03-08T13:54:51.000Z</time>
      </trkpt>
      <trkpt lat="46.6004" lon="5.30929">
        <ele>200.19999694824</ele>
        <time>2021-03-08T13:54:52.000Z</time>
      </trkpt>
      <trkpt lat="46.60047" lon="5.30937">
        <ele>200.80000305176</ele>
        <time>2021-03-08T13:54:54.000Z</time>
      </trkpt>
      <trkpt lat="46.60051" lon="5.30942">
        <ele>201</ele>
        <time>2021-03-08T13:54:55.000Z</time>
      </trkpt>
      <trkpt lat="46.60055" lon="5.30946">
        <ele>201.19999694824</ele>
        <time>2021-03-08T13:54:56.000Z</time>
      </trkpt>
      <trkpt lat="46.60062" lon="5.30955">
        <ele>201.19999694824</ele>
        <time>2021-03-08T13:54:58.000Z</time>
      </trkpt>
      <trkpt lat="46.60069" lon="5.30963">
        <ele>201.39999389648</ele>
        <time>2021-03-08T13:55:00.000Z</time>
      </trkpt>
      <trkpt lat="46.60077" lon="5.30972">
        <ele>201.39999389648</ele>
        <time>2021-03-08T13:55:02.000Z</time>
      </trkpt>
      <trkpt lat="46.60084" lon="5.3098">
        <ele>201.60000610352</ele>
        <time>2021-03-08T13:55:04.000Z</time>
      </trkpt>
      <trkpt lat="46.60088" lon="5.30984">
        <ele>201.60000610352</ele>
        <time>2021-03-08T13:55:05.000Z</time>
      </trkpt>
      <trkpt lat="46.60091" lon="5.30988">
        <ele>201.80000305176</ele>
        <time>2021-03-08T13:55:06.000Z</time>
      </trkpt>
      <trkpt lat="46.60095" lon="5.30992">
        <ele>201.80000305176</ele>
        <time>2021-03-08T13:55:07.000Z</time>
      </trkpt>
      <trkpt lat="46.60098" lon="5.30996">
        <ele>202</ele>
        <time>2021-03-08T13:55:08.000Z</time>
      </trkpt>
      <trkpt lat="46.60103" lon="5.31003">
        <ele>202.19999694824</ele>
        <time>2021-03-08T13:55:10.000Z</time>
      </trkpt>
      <trkpt lat="46.60104" lon="5.31006">
        <ele>202.19999694824</ele>
        <time>2021-03-08T13:55:11.000Z</time>
      </trkpt>
      <trkpt lat="46.60105" lon="5.31009">
        <ele>202.19999694824</ele>
        <time>2021-03-08T13:55:12.000Z</time>
      </trkpt>
      <trkpt lat="46.60106" lon="5.31014">
        <ele>202.39999389648</ele>
        <time>2021-03-08T13:55:14.000Z</time>
      </trkpt>
      <trkpt lat="46.60109" lon="5.31014">
        <ele>202.60000610352</ele>
        <time>2021-03-08T13:55:15.000Z</time>
      </trkpt>
      <trkpt lat="46.60112" lon="5.31014">
        <ele>202.60000610352</ele>
        <time>2021-03-08T13:55:16.000Z</time>
      </trkpt>
      <trkpt lat="46.60122" lon="5.31014">
        <ele>202.60000610352</ele>
        <time>2021-03-08T13:55:18.000Z</time>
      </trkpt>
      <trkpt lat="46.60127" lon="5.31015">
        <ele>202.80000305176</ele>
        <time>2021-03-08T13:55:19.000Z</time>
      </trkpt>
      <trkpt lat="46.60133" lon="5.31017">
        <ele>202.80000305176</ele>
        <time>2021-03-08T13:55:20.000Z</time>
      </trkpt>
      <trkpt lat="46.60145" lon="5.3102">
        <ele>202.80000305176</ele>
        <time>2021-03-08T13:55:22.000Z</time>
      </trkpt>
      <trkpt lat="46.60157" lon="5.31024">
        <ele>202.80000305176</ele>
        <time>2021-03-08T13:55:24.000Z</time>
      </trkpt>
      <trkpt lat="46.60169" lon="5.31027">
        <ele>202</ele>
        <time>2021-03-08T13:55:26.000Z</time>
      </trkpt>
      <trkpt lat="46.60181" lon="5.31031">
        <ele>201.60000610352</ele>
        <time>2021-03-08T13:55:28.000Z</time>
      </trkpt>
      <trkpt lat="46.60194" lon="5.31035">
        <ele>201.39999389648</ele>
        <time>2021-03-08T13:55:30.000Z</time>
      </trkpt>
      <trkpt lat="46.60206" lon="5.31038">
        <ele>201</ele>
        <time>2021-03-08T13:55:32.000Z</time>
      </trkpt>
      <trkpt lat="46.60218" lon="5.31043">
        <ele>200.80000305176</ele>
        <time>2021-03-08T13:55:34.000Z</time>
      </trkpt>
      <trkpt lat="46.60224" lon="5.31045">
        <ele>200.80000305176</ele>
        <time>2021-03-08T13:55:35.000Z</time>
      </trkpt>
      <trkpt lat="46.60231" lon="5.31047">
        <ele>200.80000305176</ele>
        <time>2021-03-08T13:55:36.000Z</time>
      </trkpt>
      <trkpt lat="46.60244" lon="5.31053">
        <ele>200.80000305176</ele>
        <time>2021-03-08T13:55:38.000Z</time>
      </trkpt>
      <trkpt lat="46.60257" lon="5.31059">
        <ele>200.60000610352</ele>
        <time>2021-03-08T13:55:40.000Z</time>
      </trkpt>
      <trkpt lat="46.60271" lon="5.31066">
        <ele>200.39999389648</ele>
        <time>2021-03-08T13:55:42.000Z</time>
      </trkpt>
      <trkpt lat="46.60284" lon="5.31073">
        <ele>199.80000305176</ele>
        <time>2021-03-08T13:55:44.000Z</time>
      </trkpt>
      <trkpt lat="46.60297" lon="5.31081">
        <ele>199.39999389648</ele>
        <time>2021-03-08T13:55:46.000Z</time>
      </trkpt>
      <trkpt lat="46.60309" lon="5.31088">
        <ele>198.80000305176</ele>
        <time>2021-03-08T13:55:48.000Z</time>
      </trkpt>
      <trkpt lat="46.60315" lon="5.31092">
        <ele>198.39999389648</ele>
        <time>2021-03-08T13:55:49.000Z</time>
      </trkpt>
      <trkpt lat="46.60321" lon="5.31096">
        <ele>198</ele>
        <time>2021-03-08T13:55:50.000Z</time>
      </trkpt>
      <trkpt lat="46.60327" lon="5.31101">
        <ele>197.80000305176</ele>
        <time>2021-03-08T13:55:51.000Z</time>
      </trkpt>
      <trkpt lat="46.60333" lon="5.31106">
        <ele>197.80000305176</ele>
        <time>2021-03-08T13:55:52.000Z</time>
      </trkpt>
      <trkpt lat="46.60343" lon="5.31118">
        <ele>197.80000305176</ele>
        <time>2021-03-08T13:55:54.000Z</time>
      </trkpt>
      <trkpt lat="46.60353" lon="5.31133">
        <ele>197.80000305176</ele>
        <time>2021-03-08T13:55:56.000Z</time>
      </trkpt>
      <trkpt lat="46.6036" lon="5.3115">
        <ele>197.80000305176</ele>
        <time>2021-03-08T13:55:58.000Z</time>
      </trkpt>
      <trkpt lat="46.60363" lon="5.31159">
        <ele>197.80000305176</ele>
        <time>2021-03-08T13:55:59.000Z</time>
      </trkpt>
      <trkpt lat="46.60366" lon="5.31168">
        <ele>197.80000305176</ele>
        <time>2021-03-08T13:56:00.000Z</time>
      </trkpt>
      <trkpt lat="46.60368" lon="5.31177">
        <ele>197.80000305176</ele>
        <time>2021-03-08T13:56:01.000Z</time>
      </trkpt>
      <trkpt lat="46.60371" lon="5.31186">
        <ele>197.80000305176</ele>
        <time>2021-03-08T13:56:02.000Z</time>
      </trkpt>
      <trkpt lat="46.60373" lon="5.31206">
        <ele>197.80000305176</ele>
        <time>2021-03-08T13:56:04.000Z</time>
      </trkpt>
      <trkpt lat="46.60373" lon="5.31216">
        <ele>197.80000305176</ele>
        <time>2021-03-08T13:56:05.000Z</time>
      </trkpt>
      <trkpt lat="46.60373" lon="5.31225">
        <ele>197.80000305176</ele>
        <time>2021-03-08T13:56:06.000Z</time>
      </trkpt>
      <trkpt lat="46.60372" lon="5.31245">
        <ele>197.80000305176</ele>
        <time>2021-03-08T13:56:08.000Z</time>
      </trkpt>
      <trkpt lat="46.6037" lon="5.31265">
        <ele>198</ele>
        <time>2021-03-08T13:56:10.000Z</time>
      </trkpt>
      <trkpt lat="46.60368" lon="5.31283">
        <ele>198.19999694824</ele>
        <time>2021-03-08T13:56:12.000Z</time>
      </trkpt>
      <trkpt lat="46.60366" lon="5.31301">
        <ele>198.19999694824</ele>
        <time>2021-03-08T13:56:14.000Z</time>
      </trkpt>
      <trkpt lat="46.60365" lon="5.3132">
        <ele>198.60000610352</ele>
        <time>2021-03-08T13:56:16.000Z</time>
      </trkpt>
      <trkpt lat="46.60363" lon="5.31338">
        <ele>199</ele>
        <time>2021-03-08T13:56:18.000Z</time>
      </trkpt>
      <trkpt lat="46.60363" lon="5.31356">
        <ele>199</ele>
        <time>2021-03-08T13:56:20.000Z</time>
      </trkpt>
      <trkpt lat="46.60364" lon="5.31375">
        <ele>199.39999389648</ele>
        <time>2021-03-08T13:56:22.000Z</time>
      </trkpt>
      <trkpt lat="46.60368" lon="5.31394">
        <ele>199.80000305176</ele>
        <time>2021-03-08T13:56:24.000Z</time>
      </trkpt>
      <trkpt lat="46.60375" lon="5.31411">
        <ele>199.80000305176</ele>
        <time>2021-03-08T13:56:26.000Z</time>
      </trkpt>
      <trkpt lat="46.60386" lon="5.31424">
        <ele>199.80000305176</ele>
        <time>2021-03-08T13:56:28.000Z</time>
      </trkpt>
      <trkpt lat="46.60397" lon="5.31438">
        <ele>199.80000305176</ele>
        <time>2021-03-08T13:56:30.000Z</time>
      </trkpt>
      <trkpt lat="46.60409" lon="5.3145">
        <ele>199.39999389648</ele>
        <time>2021-03-08T13:56:32.000Z</time>
      </trkpt>
      <trkpt lat="46.60421" lon="5.31463">
        <ele>198.39999389648</ele>
        <time>2021-03-08T13:56:34.000Z</time>
      </trkpt>
      <trkpt lat="46.60426" lon="5.31469">
        <ele>198.19999694824</ele>
        <time>2021-03-08T13:56:35.000Z</time>
      </trkpt>
      <trkpt lat="46.60432" lon="5.31476">
        <ele>198</ele>
        <time>2021-03-08T13:56:36.000Z</time>
      </trkpt>
      <trkpt lat="46.60437" lon="5.31483">
        <ele>197.80000305176</ele>
        <time>2021-03-08T13:56:37.000Z</time>
      </trkpt>
      <trkpt lat="46.60441" lon="5.31491">
        <ele>197.60000610352</ele>
        <time>2021-03-08T13:56:38.000Z</time>
      </trkpt>
      <trkpt lat="46.6045" lon="5.31505">
        <ele>197.39999389648</ele>
        <time>2021-03-08T13:56:40.000Z</time>
      </trkpt>
      <trkpt lat="46.60459" lon="5.31519">
        <ele>197.39999389648</ele>
        <time>2021-03-08T13:56:42.000Z</time>
      </trkpt>
      <trkpt lat="46.60467" lon="5.31532">
        <ele>197.39999389648</ele>
        <time>2021-03-08T13:56:44.000Z</time>
      </trkpt>
      <trkpt lat="46.60476" lon="5.31544">
        <ele>197.39999389648</ele>
        <time>2021-03-08T13:56:46.000Z</time>
      </trkpt>
      <trkpt lat="46.60486" lon="5.31554">
        <ele>197.39999389648</ele>
        <time>2021-03-08T13:56:48.000Z</time>
      </trkpt>
      <trkpt lat="46.60496" lon="5.31563">
        <ele>197.60000610352</ele>
        <time>2021-03-08T13:56:50.000Z</time>
      </trkpt>
      <trkpt lat="46.60506" lon="5.31572">
        <ele>197.80000305176</ele>
        <time>2021-03-08T13:56:52.000Z</time>
      </trkpt>
      <trkpt lat="46.60516" lon="5.31581">
        <ele>198</ele>
        <time>2021-03-08T13:56:54.000Z</time>
      </trkpt>
      <trkpt lat="46.60526" lon="5.3159">
        <ele>198.39999389648</ele>
        <time>2021-03-08T13:56:56.000Z</time>
      </trkpt>
      <trkpt lat="46.60535" lon="5.31599">
        <ele>198.60000610352</ele>
        <time>2021-03-08T13:56:58.000Z</time>
      </trkpt>
      <trkpt lat="46.60545" lon="5.31607">
        <ele>199.19999694824</ele>
        <time>2021-03-08T13:57:00.000Z</time>
      </trkpt>
      <trkpt lat="46.60554" lon="5.31616">
        <ele>199.80000305176</ele>
        <time>2021-03-08T13:57:02.000Z</time>
      </trkpt>
      <trkpt lat="46.60564" lon="5.31624">
        <ele>200.39999389648</ele>
        <time>2021-03-08T13:57:04.000Z</time>
      </trkpt>
      <trkpt lat="46.60568" lon="5.31629">
        <ele>200.60000610352</ele>
        <time>2021-03-08T13:57:05.000Z</time>
      </trkpt>
      <trkpt lat="46.60573" lon="5.31633">
        <ele>200.60000610352</ele>
        <time>2021-03-08T13:57:06.000Z</time>
      </trkpt>
      <trkpt lat="46.60583" lon="5.31641">
        <ele>201.19999694824</ele>
        <time>2021-03-08T13:57:08.000Z</time>
      </trkpt>
      <trkpt lat="46.60592" lon="5.31649">
        <ele>201.39999389648</ele>
        <time>2021-03-08T13:57:10.000Z</time>
      </trkpt>
      <trkpt lat="46.60597" lon="5.31652">
        <ele>201.60000610352</ele>
        <time>2021-03-08T13:57:11.000Z</time>
      </trkpt>
      <trkpt lat="46.60603" lon="5.31656">
        <ele>201.80000305176</ele>
        <time>2021-03-08T13:57:12.000Z</time>
      </trkpt>
      <trkpt lat="46.60614" lon="5.31663">
        <ele>202</ele>
        <time>2021-03-08T13:57:14.000Z</time>
      </trkpt>
      <trkpt lat="46.60625" lon="5.31669">
        <ele>202.39999389648</ele>
        <time>2021-03-08T13:57:16.000Z</time>
      </trkpt>
      <trkpt lat="46.60637" lon="5.31674">
        <ele>202.60000610352</ele>
        <time>2021-03-08T13:57:18.000Z</time>
      </trkpt>
      <trkpt lat="46.60649" lon="5.31679">
        <ele>202.80000305176</ele>
        <time>2021-03-08T13:57:20.000Z</time>
      </trkpt>
      <trkpt lat="46.60661" lon="5.31684">
        <ele>202.80000305176</ele>
        <time>2021-03-08T13:57:22.000Z</time>
      </trkpt>
      <trkpt lat="46.60673" lon="5.31688">
        <ele>202.80000305176</ele>
        <time>2021-03-08T13:57:24.000Z</time>
      </trkpt>
      <trkpt lat="46.60686" lon="5.31693">
        <ele>202.80000305176</ele>
        <time>2021-03-08T13:57:26.000Z</time>
      </trkpt>
      <trkpt lat="46.60692" lon="5.31696">
        <ele>202.80000305176</ele>
        <time>2021-03-08T13:57:27.000Z</time>
      </trkpt>
      <trkpt lat="46.60699" lon="5.31698">
        <ele>202.80000305176</ele>
        <time>2021-03-08T13:57:28.000Z</time>
      </trkpt>
      <trkpt lat="46.60711" lon="5.31703">
        <ele>202.60000610352</ele>
        <time>2021-03-08T13:57:30.000Z</time>
      </trkpt>
      <trkpt lat="46.60724" lon="5.3171">
        <ele>202.39999389648</ele>
        <time>2021-03-08T13:57:32.000Z</time>
      </trkpt>
      <trkpt lat="46.60735" lon="5.31719">
        <ele>202.19999694824</ele>
        <time>2021-03-08T13:57:34.000Z</time>
      </trkpt>
      <trkpt lat="46.60746" lon="5.31728">
        <ele>202</ele>
        <time>2021-03-08T13:57:36.000Z</time>
      </trkpt>
      <trkpt lat="46.60755" lon="5.31739">
        <ele>201.80000305176</ele>
        <time>2021-03-08T13:57:38.000Z</time>
      </trkpt>
      <trkpt lat="46.6076" lon="5.31746">
        <ele>201.80000305176</ele>
        <time>2021-03-08T13:57:39.000Z</time>
      </trkpt>
      <trkpt lat="46.60765" lon="5.31752">
        <ele>201.80000305176</ele>
        <time>2021-03-08T13:57:40.000Z</time>
      </trkpt>
      <trkpt lat="46.60774" lon="5.31768">
        <ele>201.80000305176</ele>
        <time>2021-03-08T13:57:42.000Z</time>
      </trkpt>
      <trkpt lat="46.60782" lon="5.31786">
        <ele>201.80000305176</ele>
        <time>2021-03-08T13:57:44.000Z</time>
      </trkpt>
      <trkpt lat="46.6079" lon="5.31806">
        <ele>201.80000305176</ele>
        <time>2021-03-08T13:57:46.000Z</time>
      </trkpt>
      <trkpt lat="46.60797" lon="5.31826">
        <ele>201.60000610352</ele>
        <time>2021-03-08T13:57:48.000Z</time>
      </trkpt>
      <trkpt lat="46.60803" lon="5.31845">
        <ele>201.60000610352</ele>
        <time>2021-03-08T13:57:50.000Z</time>
      </trkpt>
      <trkpt lat="46.60807" lon="5.31864">
        <ele>200.60000610352</ele>
        <time>2021-03-08T13:57:52.000Z</time>
      </trkpt>
      <trkpt lat="46.60813" lon="5.31883">
        <ele>199.80000305176</ele>
        <time>2021-03-08T13:57:54.000Z</time>
      </trkpt>
      <trkpt lat="46.60816" lon="5.31901">
        <ele>199.80000305176</ele>
        <time>2021-03-08T13:57:56.000Z</time>
      </trkpt>
      <trkpt lat="46.6082" lon="5.31918">
        <ele>199.60000610352</ele>
        <time>2021-03-08T13:57:58.000Z</time>
      </trkpt>
      <trkpt lat="46.60822" lon="5.31935">
        <ele>199.60000610352</ele>
        <time>2021-03-08T13:58:00.000Z</time>
      </trkpt>
      <trkpt lat="46.60824" lon="5.31952">
        <ele>199.60000610352</ele>
        <time>2021-03-08T13:58:02.000Z</time>
      </trkpt>
      <trkpt lat="46.60825" lon="5.31961">
        <ele>199.80000305176</ele>
        <time>2021-03-08T13:58:03.000Z</time>
      </trkpt>
      <trkpt lat="46.60826" lon="5.3197">
        <ele>200.19999694824</ele>
        <time>2021-03-08T13:58:04.000Z</time>
      </trkpt>
      <trkpt lat="46.60827" lon="5.31989">
        <ele>201</ele>
        <time>2021-03-08T13:58:06.000Z</time>
      </trkpt>
      <trkpt lat="46.60828" lon="5.32008">
        <ele>201.39999389648</ele>
        <time>2021-03-08T13:58:08.000Z</time>
      </trkpt>
      <trkpt lat="46.6083" lon="5.32029">
        <ele>201.60000610352</ele>
        <time>2021-03-08T13:58:10.000Z</time>
      </trkpt>
      <trkpt lat="46.60831" lon="5.3204">
        <ele>201.60000610352</ele>
        <time>2021-03-08T13:58:11.000Z</time>
      </trkpt>
      <trkpt lat="46.60832" lon="5.32051">
        <ele>201.60000610352</ele>
        <time>2021-03-08T13:58:12.000Z</time>
      </trkpt>
      <trkpt lat="46.60835" lon="5.32073">
        <ele>201.60000610352</ele>
        <time>2021-03-08T13:58:14.000Z</time>
      </trkpt>
      <trkpt lat="46.60837" lon="5.32083">
        <ele>201.60000610352</ele>
        <time>2021-03-08T13:58:15.000Z</time>
      </trkpt>
      <trkpt lat="46.60841" lon="5.32093">
        <ele>201.60000610352</ele>
        <time>2021-03-08T13:58:16.000Z</time>
      </trkpt>
      <trkpt lat="46.6085" lon="5.3211">
        <ele>201.39999389648</ele>
        <time>2021-03-08T13:58:18.000Z</time>
      </trkpt>
      <trkpt lat="46.60859" lon="5.32125">
        <ele>200.80000305176</ele>
        <time>2021-03-08T13:58:20.000Z</time>
      </trkpt>
      <trkpt lat="46.60864" lon="5.32131">
        <ele>200.39999389648</ele>
        <time>2021-03-08T13:58:21.000Z</time>
      </trkpt>
      <trkpt lat="46.6087" lon="5.32137">
        <ele>200.19999694824</ele>
        <time>2021-03-08T13:58:22.000Z</time>
      </trkpt>
      <trkpt lat="46.6088" lon="5.32149">
        <ele>200</ele>
        <time>2021-03-08T13:58:24.000Z</time>
      </trkpt>
      <trkpt lat="46.60889" lon="5.32161">
        <ele>199.80000305176</ele>
        <time>2021-03-08T13:58:26.000Z</time>
      </trkpt>
      <trkpt lat="46.60898" lon="5.32172">
        <ele>199.80000305176</ele>
        <time>2021-03-08T13:58:28.000Z</time>
      </trkpt>
      <trkpt lat="46.60907" lon="5.32183">
        <ele>199.80000305176</ele>
        <time>2021-03-08T13:58:30.000Z</time>
      </trkpt>
      <trkpt lat="46.60916" lon="5.32193">
        <ele>200</ele>
        <time>2021-03-08T13:58:32.000Z</time>
      </trkpt>
      <trkpt lat="46.60921" lon="5.32197">
        <ele>200.39999389648</ele>
        <time>2021-03-08T13:58:33.000Z</time>
      </trkpt>
      <trkpt lat="46.60926" lon="5.32202">
        <ele>200.60000610352</ele>
        <time>2021-03-08T13:58:34.000Z</time>
      </trkpt>
      <trkpt lat="46.60935" lon="5.3221">
        <ele>200.80000305176</ele>
        <time>2021-03-08T13:58:36.000Z</time>
      </trkpt>
      <trkpt lat="46.60945" lon="5.32217">
        <ele>201.19999694824</ele>
        <time>2021-03-08T13:58:38.000Z</time>
      </trkpt>
      <trkpt lat="46.60951" lon="5.32219">
        <ele>201.39999389648</ele>
        <time>2021-03-08T13:58:39.000Z</time>
      </trkpt>
      <trkpt lat="46.60957" lon="5.32221">
        <ele>201.60000610352</ele>
        <time>2021-03-08T13:58:40.000Z</time>
      </trkpt>
      <trkpt lat="46.60969" lon="5.32223">
        <ele>202</ele>
        <time>2021-03-08T13:58:42.000Z</time>
      </trkpt>
      <trkpt lat="46.60975" lon="5.32223">
        <ele>202.19999694824</ele>
        <time>2021-03-08T13:58:43.000Z</time>
      </trkpt>
      <trkpt lat="46.60981" lon="5.32223">
        <ele>202.19999694824</ele>
        <time>2021-03-08T13:58:44.000Z</time>
      </trkpt>
      <trkpt lat="46.60988" lon="5.32223">
        <ele>202.39999389648</ele>
        <time>2021-03-08T13:58:45.000Z</time>
      </trkpt>
      <trkpt lat="46.60995" lon="5.32223">
        <ele>202.39999389648</ele>
        <time>2021-03-08T13:58:46.000Z</time>
      </trkpt>
      <trkpt lat="46.61008" lon="5.32224">
        <ele>202.39999389648</ele>
        <time>2021-03-08T13:58:48.000Z</time>
      </trkpt>
      <trkpt lat="46.61022" lon="5.32224">
        <ele>202.39999389648</ele>
        <time>2021-03-08T13:58:50.000Z</time>
      </trkpt>
      <trkpt lat="46.61037" lon="5.32224">
        <ele>202.39999389648</ele>
        <time>2021-03-08T13:58:52.000Z</time>
      </trkpt>
      <trkpt lat="46.61051" lon="5.32224">
        <ele>202.39999389648</ele>
        <time>2021-03-08T13:58:54.000Z</time>
      </trkpt>
      <trkpt lat="46.61066" lon="5.32224">
        <ele>202</ele>
        <time>2021-03-08T13:58:56.000Z</time>
      </trkpt>
      <trkpt lat="46.6108" lon="5.32225">
        <ele>201.39999389648</ele>
        <time>2021-03-08T13:58:58.000Z</time>
      </trkpt>
      <trkpt lat="46.61088" lon="5.32225">
        <ele>201</ele>
        <time>2021-03-08T13:58:59.000Z</time>
      </trkpt>
      <trkpt lat="46.61095" lon="5.32225">
        <ele>200.80000305176</ele>
        <time>2021-03-08T13:59:00.000Z</time>
      </trkpt>
      <trkpt lat="46.6111" lon="5.32225">
        <ele>200.39999389648</ele>
        <time>2021-03-08T13:59:02.000Z</time>
      </trkpt>
      <trkpt lat="46.61117" lon="5.32225">
        <ele>199.80000305176</ele>
        <time>2021-03-08T13:59:03.000Z</time>
      </trkpt>
      <trkpt lat="46.61125" lon="5.32225">
        <ele>199.19999694824</ele>
        <time>2021-03-08T13:59:04.000Z</time>
      </trkpt>
      <trkpt lat="46.61139" lon="5.32224">
        <ele>198.80000305176</ele>
        <time>2021-03-08T13:59:06.000Z</time>
      </trkpt>
      <trkpt lat="46.61154" lon="5.32223">
        <ele>198.60000610352</ele>
        <time>2021-03-08T13:59:08.000Z</time>
      </trkpt>
      <trkpt lat="46.61168" lon="5.32221">
        <ele>198.39999389648</ele>
        <time>2021-03-08T13:59:10.000Z</time>
      </trkpt>
      <trkpt lat="46.61174" lon="5.32219">
        <ele>198.39999389648</ele>
        <time>2021-03-08T13:59:11.000Z</time>
      </trkpt>
      <trkpt lat="46.61181" lon="5.32217">
        <ele>198.39999389648</ele>
        <time>2021-03-08T13:59:12.000Z</time>
      </trkpt>
      <trkpt lat="46.61192" lon="5.32209">
        <ele>198.39999389648</ele>
        <time>2021-03-08T13:59:14.000Z</time>
      </trkpt>
      <trkpt lat="46.61197" lon="5.32204">
        <ele>198.60000610352</ele>
        <time>2021-03-08T13:59:15.000Z</time>
      </trkpt>
      <trkpt lat="46.61203" lon="5.32199">
        <ele>198.60000610352</ele>
        <time>2021-03-08T13:59:16.000Z</time>
      </trkpt>
      <trkpt lat="46.61213" lon="5.3219">
        <ele>198.60000610352</ele>
        <time>2021-03-08T13:59:18.000Z</time>
      </trkpt>
      <trkpt lat="46.61225" lon="5.32182">
        <ele>199</ele>
        <time>2021-03-08T13:59:20.000Z</time>
      </trkpt>
      <trkpt lat="46.6123" lon="5.3218">
        <ele>199.19999694824</ele>
        <time>2021-03-08T13:59:21.000Z</time>
      </trkpt>
      <trkpt lat="46.61236" lon="5.32177">
        <ele>199.39999389648</ele>
        <time>2021-03-08T13:59:22.000Z</time>
      </trkpt>
      <trkpt lat="46.61249" lon="5.32174">
        <ele>199.80000305176</ele>
        <time>2021-03-08T13:59:24.000Z</time>
      </trkpt>
      <trkpt lat="46.61262" lon="5.32173">
        <ele>199.80000305176</ele>
        <time>2021-03-08T13:59:26.000Z</time>
      </trkpt>
      <trkpt lat="46.61268" lon="5.32174">
        <ele>199.80000305176</ele>
        <time>2021-03-08T13:59:27.000Z</time>
      </trkpt>
      <trkpt lat="46.61275" lon="5.32175">
        <ele>199.80000305176</ele>
        <time>2021-03-08T13:59:28.000Z</time>
      </trkpt>
      <trkpt lat="46.61281" lon="5.32177">
        <ele>199.80000305176</ele>
        <time>2021-03-08T13:59:29.000Z</time>
      </trkpt>
      <trkpt lat="46.61288" lon="5.32178">
        <ele>199.80000305176</ele>
        <time>2021-03-08T13:59:30.000Z</time>
      </trkpt>
      <trkpt lat="46.61302" lon="5.32184">
        <ele>199.80000305176</ele>
        <time>2021-03-08T13:59:32.000Z</time>
      </trkpt>
      <trkpt lat="46.61316" lon="5.32189">
        <ele>199.80000305176</ele>
        <time>2021-03-08T13:59:34.000Z</time>
      </trkpt>
      <trkpt lat="46.6133" lon="5.32196">
        <ele>199.19999694824</ele>
        <time>2021-03-08T13:59:36.000Z</time>
      </trkpt>
      <trkpt lat="46.61344" lon="5.32202">
        <ele>198.60000610352</ele>
        <time>2021-03-08T13:59:38.000Z</time>
      </trkpt>
      <trkpt lat="46.61352" lon="5.32204">
        <ele>198.39999389648</ele>
        <time>2021-03-08T13:59:39.000Z</time>
      </trkpt>
      <trkpt lat="46.61359" lon="5.32205">
        <ele>198.19999694824</ele>
        <time>2021-03-08T13:59:40.000Z</time>
      </trkpt>
      <trkpt lat="46.61374" lon="5.32205">
        <ele>197.60000610352</ele>
        <time>2021-03-08T13:59:42.000Z</time>
      </trkpt>
      <trkpt lat="46.61381" lon="5.32204">
        <ele>197</ele>
        <time>2021-03-08T13:59:43.000Z</time>
      </trkpt>
      <trkpt lat="46.61389" lon="5.32203">
        <ele>196.80000305176</ele>
        <time>2021-03-08T13:59:44.000Z</time>
      </trkpt>
      <trkpt lat="46.61403" lon="5.32198">
        <ele>196.39999389648</ele>
        <time>2021-03-08T13:59:46.000Z</time>
      </trkpt>
      <trkpt lat="46.61417" lon="5.32191">
        <ele>196</ele>
        <time>2021-03-08T13:59:48.000Z</time>
      </trkpt>
      <trkpt lat="46.6143" lon="5.32183">
        <ele>195.19999694824</ele>
        <time>2021-03-08T13:59:50.000Z</time>
      </trkpt>
      <trkpt lat="46.61443" lon="5.32173">
        <ele>194.60000610352</ele>
        <time>2021-03-08T13:59:52.000Z</time>
      </trkpt>
      <trkpt lat="46.61456" lon="5.32163">
        <ele>194.19999694824</ele>
        <time>2021-03-08T13:59:54.000Z</time>
      </trkpt>
      <trkpt lat="46.6147" lon="5.32156">
        <ele>193.80000305176</ele>
        <time>2021-03-08T13:59:56.000Z</time>
      </trkpt>
      <trkpt lat="46.61485" lon="5.32151">
        <ele>193.80000305176</ele>
        <time>2021-03-08T13:59:58.000Z</time>
      </trkpt>
      <trkpt lat="46.61499" lon="5.32152">
        <ele>193.60000610352</ele>
        <time>2021-03-08T14:00:00.000Z</time>
      </trkpt>
      <trkpt lat="46.61514" lon="5.32156">
        <ele>193</ele>
        <time>2021-03-08T14:00:02.000Z</time>
      </trkpt>
      <trkpt lat="46.61526" lon="5.32165">
        <ele>192.60000610352</ele>
        <time>2021-03-08T14:00:04.000Z</time>
      </trkpt>
      <trkpt lat="46.61537" lon="5.32178">
        <ele>192.19999694824</ele>
        <time>2021-03-08T14:00:06.000Z</time>
      </trkpt>
      <trkpt lat="46.61546" lon="5.32192">
        <ele>192</ele>
        <time>2021-03-08T14:00:08.000Z</time>
      </trkpt>
      <trkpt lat="46.61554" lon="5.32206">
        <ele>191.80000305176</ele>
        <time>2021-03-08T14:00:10.000Z</time>
      </trkpt>
      <trkpt lat="46.61562" lon="5.32221">
        <ele>191.80000305176</ele>
        <time>2021-03-08T14:00:12.000Z</time>
      </trkpt>
      <trkpt lat="46.61566" lon="5.32227">
        <ele>191.80000305176</ele>
        <time>2021-03-08T14:00:13.000Z</time>
      </trkpt>
      <trkpt lat="46.6157" lon="5.32234">
        <ele>191.80000305176</ele>
        <time>2021-03-08T14:00:14.000Z</time>
      </trkpt>
      <trkpt lat="46.61578" lon="5.32248">
        <ele>191.80000305176</ele>
        <time>2021-03-08T14:00:16.000Z</time>
      </trkpt>
      <trkpt lat="46.61585" lon="5.32261">
        <ele>191.80000305176</ele>
        <time>2021-03-08T14:00:18.000Z</time>
      </trkpt>
      <trkpt lat="46.61592" lon="5.32274">
        <ele>191.80000305176</ele>
        <time>2021-03-08T14:00:20.000Z</time>
      </trkpt>
      <trkpt lat="46.61594" lon="5.32282">
        <ele>192</ele>
        <time>2021-03-08T14:00:21.000Z</time>
      </trkpt>
      <trkpt lat="46.61596" lon="5.32289">
        <ele>192</ele>
        <time>2021-03-08T14:00:22.000Z</time>
      </trkpt>
      <trkpt lat="46.616" lon="5.32305">
        <ele>192.19999694824</ele>
        <time>2021-03-08T14:00:24.000Z</time>
      </trkpt>
      <trkpt lat="46.61602" lon="5.32321">
        <ele>192.19999694824</ele>
        <time>2021-03-08T14:00:26.000Z</time>
      </trkpt>
      <trkpt lat="46.61603" lon="5.32329">
        <ele>192.39999389648</ele>
        <time>2021-03-08T14:00:27.000Z</time>
      </trkpt>
      <trkpt lat="46.61604" lon="5.32337">
        <ele>192.80000305176</ele>
        <time>2021-03-08T14:00:28.000Z</time>
      </trkpt>
      <trkpt lat="46.61606" lon="5.32344">
        <ele>193.39999389648</ele>
        <time>2021-03-08T14:00:29.000Z</time>
      </trkpt>
      <trkpt lat="46.61607" lon="5.32352">
        <ele>193.60000610352</ele>
        <time>2021-03-08T14:00:30.000Z</time>
      </trkpt>
      <trkpt lat="46.61608" lon="5.3236">
        <ele>194</ele>
        <time>2021-03-08T14:00:31.000Z</time>
      </trkpt>
      <trkpt lat="46.6161" lon="5.32367">
        <ele>194.19999694824</ele>
        <time>2021-03-08T14:00:32.000Z</time>
      </trkpt>
      <trkpt lat="46.61613" lon="5.32374">
        <ele>194.39999389648</ele>
        <time>2021-03-08T14:00:33.000Z</time>
      </trkpt>
      <trkpt lat="46.61616" lon="5.32381">
        <ele>194.60000610352</ele>
        <time>2021-03-08T14:00:34.000Z</time>
      </trkpt>
      <trkpt lat="46.61623" lon="5.32394">
        <ele>194.80000305176</ele>
        <time>2021-03-08T14:00:36.000Z</time>
      </trkpt>
      <trkpt lat="46.61627" lon="5.32399">
        <ele>194.80000305176</ele>
        <time>2021-03-08T14:00:37.000Z</time>
      </trkpt>
      <trkpt lat="46.61631" lon="5.32405">
        <ele>194.80000305176</ele>
        <time>2021-03-08T14:00:38.000Z</time>
      </trkpt>
      <trkpt lat="46.61635" lon="5.3241">
        <ele>194.80000305176</ele>
        <time>2021-03-08T14:00:39.000Z</time>
      </trkpt>
      <trkpt lat="46.61639" lon="5.32415">
        <ele>195</ele>
        <time>2021-03-08T14:00:40.000Z</time>
      </trkpt>
      <trkpt lat="46.61643" lon="5.32419">
        <ele>195</ele>
        <time>2021-03-08T14:00:41.000Z</time>
      </trkpt>
      <trkpt lat="46.61648" lon="5.32423">
        <ele>195</ele>
        <time>2021-03-08T14:00:42.000Z</time>
      </trkpt>
      <trkpt lat="46.61657" lon="5.3243">
        <ele>195</ele>
        <time>2021-03-08T14:00:44.000Z</time>
      </trkpt>
      <trkpt lat="46.61666" lon="5.32436">
        <ele>195</ele>
        <time>2021-03-08T14:00:46.000Z</time>
      </trkpt>
      <trkpt lat="46.61675" lon="5.32441">
        <ele>195</ele>
        <time>2021-03-08T14:00:48.000Z</time>
      </trkpt>
      <trkpt lat="46.61685" lon="5.32445">
        <ele>195</ele>
        <time>2021-03-08T14:00:50.000Z</time>
      </trkpt>
      <trkpt lat="46.61694" lon="5.3245">
        <ele>195.19999694824</ele>
        <time>2021-03-08T14:00:52.000Z</time>
      </trkpt>
      <trkpt lat="46.61699" lon="5.32453">
        <ele>195.19999694824</ele>
        <time>2021-03-08T14:00:53.000Z</time>
      </trkpt>
      <trkpt lat="46.61703" lon="5.32455">
        <ele>195.19999694824</ele>
        <time>2021-03-08T14:00:54.000Z</time>
      </trkpt>
      <trkpt lat="46.61712" lon="5.3246">
        <ele>195.39999389648</ele>
        <time>2021-03-08T14:00:56.000Z</time>
      </trkpt>
      <trkpt lat="46.61721" lon="5.32465">
        <ele>195.80000305176</ele>
        <time>2021-03-08T14:00:58.000Z</time>
      </trkpt>
      <trkpt lat="46.6173" lon="5.3247">
        <ele>196.60000610352</ele>
        <time>2021-03-08T14:01:00.000Z</time>
      </trkpt>
      <trkpt lat="46.61739" lon="5.32475">
        <ele>197.19999694824</ele>
        <time>2021-03-08T14:01:02.000Z</time>
      </trkpt>
      <trkpt lat="46.61744" lon="5.32478">
        <ele>197.60000610352</ele>
        <time>2021-03-08T14:01:03.000Z</time>
      </trkpt>
      <trkpt lat="46.61748" lon="5.32481">
        <ele>197.80000305176</ele>
        <time>2021-03-08T14:01:04.000Z</time>
      </trkpt>
      <trkpt lat="46.61757" lon="5.32487">
        <ele>197.80000305176</ele>
        <time>2021-03-08T14:01:06.000Z</time>
      </trkpt>
      <trkpt lat="46.61765" lon="5.32493">
        <ele>198</ele>
        <time>2021-03-08T14:01:08.000Z</time>
      </trkpt>
      <trkpt lat="46.61774" lon="5.32499">
        <ele>198.19999694824</ele>
        <time>2021-03-08T14:01:10.000Z</time>
      </trkpt>
      <trkpt lat="46.61782" lon="5.32506">
        <ele>198.60000610352</ele>
        <time>2021-03-08T14:01:12.000Z</time>
      </trkpt>
      <trkpt lat="46.61786" lon="5.32509">
        <ele>198.80000305176</ele>
        <time>2021-03-08T14:01:13.000Z</time>
      </trkpt>
      <trkpt lat="46.6179" lon="5.32513">
        <ele>199</ele>
        <time>2021-03-08T14:01:14.000Z</time>
      </trkpt>
      <trkpt lat="46.61798" lon="5.3252">
        <ele>199.19999694824</ele>
        <time>2021-03-08T14:01:16.000Z</time>
      </trkpt>
      <trkpt lat="46.61806" lon="5.32528">
        <ele>199.80000305176</ele>
        <time>2021-03-08T14:01:18.000Z</time>
      </trkpt>
      <trkpt lat="46.61814" lon="5.32535">
        <ele>200.60000610352</ele>
        <time>2021-03-08T14:01:20.000Z</time>
      </trkpt>
      <trkpt lat="46.61818" lon="5.32539">
        <ele>200.60000610352</ele>
        <time>2021-03-08T14:01:21.000Z</time>
      </trkpt>
      <trkpt lat="46.61822" lon="5.32543">
        <ele>200.80000305176</ele>
        <time>2021-03-08T14:01:22.000Z</time>
      </trkpt>
      <trkpt lat="46.61826" lon="5.32546">
        <ele>200.80000305176</ele>
        <time>2021-03-08T14:01:23.000Z</time>
      </trkpt>
      <trkpt lat="46.6183" lon="5.3255">
        <ele>201</ele>
        <time>2021-03-08T14:01:24.000Z</time>
      </trkpt>
      <trkpt lat="46.61837" lon="5.32556">
        <ele>201</ele>
        <time>2021-03-08T14:01:26.000Z</time>
      </trkpt>
      <trkpt lat="46.61845" lon="5.32563">
        <ele>201</ele>
        <time>2021-03-08T14:01:28.000Z</time>
      </trkpt>
      <trkpt lat="46.61853" lon="5.3257">
        <ele>201.19999694824</ele>
        <time>2021-03-08T14:01:30.000Z</time>
      </trkpt>
      <trkpt lat="46.61861" lon="5.32577">
        <ele>201.39999389648</ele>
        <time>2021-03-08T14:01:32.000Z</time>
      </trkpt>
      <trkpt lat="46.61869" lon="5.32584">
        <ele>201.60000610352</ele>
        <time>2021-03-08T14:01:34.000Z</time>
      </trkpt>
      <trkpt lat="46.61877" lon="5.32592">
        <ele>201.80000305176</ele>
        <time>2021-03-08T14:01:36.000Z</time>
      </trkpt>
      <trkpt lat="46.61881" lon="5.32597">
        <ele>201.80000305176</ele>
        <time>2021-03-08T14:01:37.000Z</time>
      </trkpt>
      <trkpt lat="46.61884" lon="5.32601">
        <ele>201.80000305176</ele>
        <time>2021-03-08T14:01:38.000Z</time>
      </trkpt>
      <trkpt lat="46.61888" lon="5.32606">
        <ele>202</ele>
        <time>2021-03-08T14:01:39.000Z</time>
      </trkpt>
      <trkpt lat="46.61892" lon="5.32611">
        <ele>202</ele>
        <time>2021-03-08T14:01:40.000Z</time>
      </trkpt>
      <trkpt lat="46.619" lon="5.32621">
        <ele>202.19999694824</ele>
        <time>2021-03-08T14:01:42.000Z</time>
      </trkpt>
      <trkpt lat="46.61907" lon="5.32631">
        <ele>202.60000610352</ele>
        <time>2021-03-08T14:01:44.000Z</time>
      </trkpt>
      <trkpt lat="46.61915" lon="5.32642">
        <ele>202.80000305176</ele>
        <time>2021-03-08T14:01:46.000Z</time>
      </trkpt>
      <trkpt lat="46.61919" lon="5.32647">
        <ele>202.80000305176</ele>
        <time>2021-03-08T14:01:47.000Z</time>
      </trkpt>
      <trkpt lat="46.61923" lon="5.32653">
        <ele>202.80000305176</ele>
        <time>2021-03-08T14:01:48.000Z</time>
      </trkpt>
      <trkpt lat="46.61927" lon="5.32658">
        <ele>203</ele>
        <time>2021-03-08T14:01:49.000Z</time>
      </trkpt>
      <trkpt lat="46.61932" lon="5.32664">
        <ele>203</ele>
        <time>2021-03-08T14:01:50.000Z</time>
      </trkpt>
      <trkpt lat="46.6194" lon="5.32676">
        <ele>203</ele>
        <time>2021-03-08T14:01:52.000Z</time>
      </trkpt>
      <trkpt lat="46.61948" lon="5.32688">
        <ele>203</ele>
        <time>2021-03-08T14:01:54.000Z</time>
      </trkpt>
      <trkpt lat="46.61957" lon="5.327">
        <ele>203</ele>
        <time>2021-03-08T14:01:56.000Z</time>
      </trkpt>
      <trkpt lat="46.61965" lon="5.32713">
        <ele>202.80000305176</ele>
        <time>2021-03-08T14:01:58.000Z</time>
      </trkpt>
      <trkpt lat="46.61974" lon="5.32726">
        <ele>202.80000305176</ele>
        <time>2021-03-08T14:02:00.000Z</time>
      </trkpt>
      <trkpt lat="46.61982" lon="5.32738">
        <ele>202.39999389648</ele>
        <time>2021-03-08T14:02:02.000Z</time>
      </trkpt>
      <trkpt lat="46.6199" lon="5.32751">
        <ele>202.19999694824</ele>
        <time>2021-03-08T14:02:04.000Z</time>
      </trkpt>
      <trkpt lat="46.61998" lon="5.32764">
        <ele>202.19999694824</ele>
        <time>2021-03-08T14:02:06.000Z</time>
      </trkpt>
      <trkpt lat="46.62006" lon="5.32776">
        <ele>202.19999694824</ele>
        <time>2021-03-08T14:02:08.000Z</time>
      </trkpt>
      <trkpt lat="46.62013" lon="5.32787">
        <ele>202.19999694824</ele>
        <time>2021-03-08T14:02:10.000Z</time>
      </trkpt>
      <trkpt lat="46.6202" lon="5.32798">
        <ele>202.19999694824</ele>
        <time>2021-03-08T14:02:12.000Z</time>
      </trkpt>
      <trkpt lat="46.62023" lon="5.32804">
        <ele>202.19999694824</ele>
        <time>2021-03-08T14:02:13.000Z</time>
      </trkpt>
      <trkpt lat="46.62027" lon="5.32809">
        <ele>202.39999389648</ele>
        <time>2021-03-08T14:02:14.000Z</time>
      </trkpt>
      <trkpt lat="46.62034" lon="5.32821">
        <ele>202.60000610352</ele>
        <time>2021-03-08T14:02:16.000Z</time>
      </trkpt>
      <trkpt lat="46.62041" lon="5.32832">
        <ele>203</ele>
        <time>2021-03-08T14:02:18.000Z</time>
      </trkpt>
      <trkpt lat="46.62049" lon="5.32844">
        <ele>203.80000305176</ele>
        <time>2021-03-08T14:02:20.000Z</time>
      </trkpt>
      <trkpt lat="46.62056" lon="5.32856">
        <ele>204</ele>
        <time>2021-03-08T14:02:22.000Z</time>
      </trkpt>
      <trkpt lat="46.6206" lon="5.32861">
        <ele>204.19999694824</ele>
        <time>2021-03-08T14:02:23.000Z</time>
      </trkpt>
      <trkpt lat="46.62064" lon="5.32867">
        <ele>204.19999694824</ele>
        <time>2021-03-08T14:02:24.000Z</time>
      </trkpt>
      <trkpt lat="46.62072" lon="5.32879">
        <ele>204.60000610352</ele>
        <time>2021-03-08T14:02:26.000Z</time>
      </trkpt>
      <trkpt lat="46.62081" lon="5.32889">
        <ele>204.60000610352</ele>
        <time>2021-03-08T14:02:28.000Z</time>
      </trkpt>
      <trkpt lat="46.62091" lon="5.32898">
        <ele>204.60000610352</ele>
        <time>2021-03-08T14:02:30.000Z</time>
      </trkpt>
      <trkpt lat="46.62102" lon="5.32906">
        <ele>204.60000610352</ele>
        <time>2021-03-08T14:02:32.000Z</time>
      </trkpt>
      <trkpt lat="46.62113" lon="5.32913">
        <ele>204.60000610352</ele>
        <time>2021-03-08T14:02:34.000Z</time>
      </trkpt>
      <trkpt lat="46.62123" lon="5.3292">
        <ele>204.60000610352</ele>
        <time>2021-03-08T14:02:36.000Z</time>
      </trkpt>
      <trkpt lat="46.62134" lon="5.32926">
        <ele>204.60000610352</ele>
        <time>2021-03-08T14:02:38.000Z</time>
      </trkpt>
      <trkpt lat="46.62144" lon="5.32933">
        <ele>204.39999389648</ele>
        <time>2021-03-08T14:02:40.000Z</time>
      </trkpt>
      <trkpt lat="46.62156" lon="5.32938">
        <ele>204.19999694824</ele>
        <time>2021-03-08T14:02:42.000Z</time>
      </trkpt>
      <trkpt lat="46.62168" lon="5.32939">
        <ele>204</ele>
        <time>2021-03-08T14:02:44.000Z</time>
      </trkpt>
      <trkpt lat="46.6218" lon="5.32936">
        <ele>204</ele>
        <time>2021-03-08T14:02:46.000Z</time>
      </trkpt>
      <trkpt lat="46.62193" lon="5.32929">
        <ele>204</ele>
        <time>2021-03-08T14:02:48.000Z</time>
      </trkpt>
      <trkpt lat="46.62206" lon="5.32923">
        <ele>203.60000610352</ele>
        <time>2021-03-08T14:02:50.000Z</time>
      </trkpt>
      <trkpt lat="46.62214" lon="5.32921">
        <ele>203.60000610352</ele>
        <time>2021-03-08T14:02:51.000Z</time>
      </trkpt>
      <trkpt lat="46.62221" lon="5.3292">
        <ele>203.39999389648</ele>
        <time>2021-03-08T14:02:52.000Z</time>
      </trkpt>
      <trkpt lat="46.62237" lon="5.32919">
        <ele>203</ele>
        <time>2021-03-08T14:02:54.000Z</time>
      </trkpt>
      <trkpt lat="46.62253" lon="5.32918">
        <ele>202.60000610352</ele>
        <time>2021-03-08T14:02:56.000Z</time>
      </trkpt>
      <trkpt lat="46.62261" lon="5.32918">
        <ele>202.19999694824</ele>
        <time>2021-03-08T14:02:57.000Z</time>
      </trkpt>
      <trkpt lat="46.62269" lon="5.32917">
        <ele>201.80000305176</ele>
        <time>2021-03-08T14:02:58.000Z</time>
      </trkpt>
      <trkpt lat="46.62286" lon="5.32916">
        <ele>200.80000305176</ele>
        <time>2021-03-08T14:03:00.000Z</time>
      </trkpt>
      <trkpt lat="46.62294" lon="5.32916">
        <ele>200.19999694824</ele>
        <time>2021-03-08T14:03:01.000Z</time>
      </trkpt>
      <trkpt lat="46.62303" lon="5.32915">
        <ele>199.80000305176</ele>
        <time>2021-03-08T14:03:02.000Z</time>
      </trkpt>
      <trkpt lat="46.62311" lon="5.32915">
        <ele>199.19999694824</ele>
        <time>2021-03-08T14:03:03.000Z</time>
      </trkpt>
      <trkpt lat="46.6232" lon="5.32914">
        <ele>198.80000305176</ele>
        <time>2021-03-08T14:03:04.000Z</time>
      </trkpt>
      <trkpt lat="46.62338" lon="5.32913">
        <ele>197.80000305176</ele>
        <time>2021-03-08T14:03:06.000Z</time>
      </trkpt>
      <trkpt lat="46.62347" lon="5.32912">
        <ele>197.19999694824</ele>
        <time>2021-03-08T14:03:07.000Z</time>
      </trkpt>
      <trkpt lat="46.62356" lon="5.32911">
        <ele>196.80000305176</ele>
        <time>2021-03-08T14:03:08.000Z</time>
      </trkpt>
      <trkpt lat="46.62374" lon="5.32909">
        <ele>196.19999694824</ele>
        <time>2021-03-08T14:03:10.000Z</time>
      </trkpt>
      <trkpt lat="46.62393" lon="5.32907">
        <ele>195.39999389648</ele>
        <time>2021-03-08T14:03:12.000Z</time>
      </trkpt>
      <trkpt lat="46.62411" lon="5.32904">
        <ele>194.19999694824</ele>
        <time>2021-03-08T14:03:14.000Z</time>
      </trkpt>
      <trkpt lat="46.6243" lon="5.32901">
        <ele>193.39999389648</ele>
        <time>2021-03-08T14:03:16.000Z</time>
      </trkpt>
      <trkpt lat="46.62439" lon="5.32899">
        <ele>192.80000305176</ele>
        <time>2021-03-08T14:03:17.000Z</time>
      </trkpt>
      <trkpt lat="46.62448" lon="5.32897">
        <ele>191.60000610352</ele>
        <time>2021-03-08T14:03:18.000Z</time>
      </trkpt>
      <trkpt lat="46.62465" lon="5.32895">
        <ele>190.80000305176</ele>
        <time>2021-03-08T14:03:20.000Z</time>
      </trkpt>
      <trkpt lat="46.62483" lon="5.32893">
        <ele>190.60000610352</ele>
        <time>2021-03-08T14:03:22.000Z</time>
      </trkpt>
      <trkpt lat="46.625" lon="5.32889">
        <ele>189.60000610352</ele>
        <time>2021-03-08T14:03:24.000Z</time>
      </trkpt>
      <trkpt lat="46.62509" lon="5.32888">
        <ele>189.39999389648</ele>
        <time>2021-03-08T14:03:25.000Z</time>
      </trkpt>
      <trkpt lat="46.62517" lon="5.32886">
        <ele>189.19999694824</ele>
        <time>2021-03-08T14:03:26.000Z</time>
      </trkpt>
      <trkpt lat="46.62534" lon="5.32882">
        <ele>189</ele>
        <time>2021-03-08T14:03:28.000Z</time>
      </trkpt>
      <trkpt lat="46.6255" lon="5.32879">
        <ele>188.80000305176</ele>
        <time>2021-03-08T14:03:30.000Z</time>
      </trkpt>
      <trkpt lat="46.62565" lon="5.32876">
        <ele>188.80000305176</ele>
        <time>2021-03-08T14:03:32.000Z</time>
      </trkpt>
      <trkpt lat="46.6258" lon="5.32874">
        <ele>188.80000305176</ele>
        <time>2021-03-08T14:03:34.000Z</time>
      </trkpt>
      <trkpt lat="46.62594" lon="5.32874">
        <ele>188.60000610352</ele>
        <time>2021-03-08T14:03:36.000Z</time>
      </trkpt>
      <trkpt lat="46.62601" lon="5.32876">
        <ele>188.60000610352</ele>
        <time>2021-03-08T14:03:37.000Z</time>
      </trkpt>
      <trkpt lat="46.62608" lon="5.32881">
        <ele>188.60000610352</ele>
        <time>2021-03-08T14:03:38.000Z</time>
      </trkpt>
      <trkpt lat="46.62617" lon="5.32896">
        <ele>188.60000610352</ele>
        <time>2021-03-08T14:03:40.000Z</time>
      </trkpt>
      <trkpt lat="46.62624" lon="5.32914">
        <ele>188.60000610352</ele>
        <time>2021-03-08T14:03:42.000Z</time>
      </trkpt>
      <trkpt lat="46.6263" lon="5.32932">
        <ele>188.60000610352</ele>
        <time>2021-03-08T14:03:44.000Z</time>
      </trkpt>
      <trkpt lat="46.62637" lon="5.32947">
        <ele>188.80000305176</ele>
        <time>2021-03-08T14:03:46.000Z</time>
      </trkpt>
      <trkpt lat="46.62643" lon="5.32961">
        <ele>189.19999694824</ele>
        <time>2021-03-08T14:03:48.000Z</time>
      </trkpt>
      <trkpt lat="46.6265" lon="5.32974">
        <ele>189.80000305176</ele>
        <time>2021-03-08T14:03:50.000Z</time>
      </trkpt>
      <trkpt lat="46.62654" lon="5.32979">
        <ele>189.80000305176</ele>
        <time>2021-03-08T14:03:51.000Z</time>
      </trkpt>
      <trkpt lat="46.62658" lon="5.32984">
        <ele>190.19999694824</ele>
        <time>2021-03-08T14:03:52.000Z</time>
      </trkpt>
      <trkpt lat="46.62663" lon="5.32988">
        <ele>190.80000305176</ele>
        <time>2021-03-08T14:03:53.000Z</time>
      </trkpt>
      <trkpt lat="46.62667" lon="5.32991">
        <ele>191</ele>
        <time>2021-03-08T14:03:54.000Z</time>
      </trkpt>
      <trkpt lat="46.62676" lon="5.32995">
        <ele>191.60000610352</ele>
        <time>2021-03-08T14:03:56.000Z</time>
      </trkpt>
      <trkpt lat="46.6268" lon="5.32996">
        <ele>192</ele>
        <time>2021-03-08T14:03:57.000Z</time>
      </trkpt>
      <trkpt lat="46.62685" lon="5.32997">
        <ele>192.39999389648</ele>
        <time>2021-03-08T14:03:58.000Z</time>
      </trkpt>
      <trkpt lat="46.62694" lon="5.32997">
        <ele>193</ele>
        <time>2021-03-08T14:04:00.000Z</time>
      </trkpt>
      <trkpt lat="46.62703" lon="5.32997">
        <ele>193.60000610352</ele>
        <time>2021-03-08T14:04:02.000Z</time>
      </trkpt>
      <trkpt lat="46.62707" lon="5.32996">
        <ele>194</ele>
        <time>2021-03-08T14:04:03.000Z</time>
      </trkpt>
      <trkpt lat="46.62712" lon="5.32996">
        <ele>194.19999694824</ele>
        <time>2021-03-08T14:04:04.000Z</time>
      </trkpt>
      <trkpt lat="46.62721" lon="5.32996">
        <ele>195.19999694824</ele>
        <time>2021-03-08T14:04:06.000Z</time>
      </trkpt>
      <trkpt lat="46.6273" lon="5.32998">
        <ele>195.60000610352</ele>
        <time>2021-03-08T14:04:08.000Z</time>
      </trkpt>
      <trkpt lat="46.6274" lon="5.33001">
        <ele>196.39999389648</ele>
        <time>2021-03-08T14:04:10.000Z</time>
      </trkpt>
      <trkpt lat="46.62749" lon="5.33003">
        <ele>196.60000610352</ele>
        <time>2021-03-08T14:04:12.000Z</time>
      </trkpt>
      <trkpt lat="46.62759" lon="5.33007">
        <ele>197</ele>
        <time>2021-03-08T14:04:14.000Z</time>
      </trkpt>
      <trkpt lat="46.62767" lon="5.3301">
        <ele>197.80000305176</ele>
        <time>2021-03-08T14:04:16.000Z</time>
      </trkpt>
      <trkpt lat="46.62776" lon="5.33013">
        <ele>198</ele>
        <time>2021-03-08T14:04:18.000Z</time>
      </trkpt>
      <trkpt lat="46.62781" lon="5.33015">
        <ele>198</ele>
        <time>2021-03-08T14:04:19.000Z</time>
      </trkpt>
      <trkpt lat="46.62785" lon="5.33016">
        <ele>198</ele>
        <time>2021-03-08T14:04:20.000Z</time>
      </trkpt>
      <trkpt lat="46.62794" lon="5.33019">
        <ele>198.19999694824</ele>
        <time>2021-03-08T14:04:22.000Z</time>
      </trkpt>
      <trkpt lat="46.62803" lon="5.33022">
        <ele>198.39999389648</ele>
        <time>2021-03-08T14:04:24.000Z</time>
      </trkpt>
      <trkpt lat="46.62813" lon="5.33025">
        <ele>198.80000305176</ele>
        <time>2021-03-08T14:04:26.000Z</time>
      </trkpt>
      <trkpt lat="46.62822" lon="5.33028">
        <ele>199.39999389648</ele>
        <time>2021-03-08T14:04:28.000Z</time>
      </trkpt>
      <trkpt lat="46.62832" lon="5.33031">
        <ele>199.60000610352</ele>
        <time>2021-03-08T14:04:30.000Z</time>
      </trkpt>
      <trkpt lat="46.62842" lon="5.33034">
        <ele>200</ele>
        <time>2021-03-08T14:04:32.000Z</time>
      </trkpt>
      <trkpt lat="46.62851" lon="5.33037">
        <ele>200.19999694824</ele>
        <time>2021-03-08T14:04:34.000Z</time>
      </trkpt>
      <trkpt lat="46.62856" lon="5.33039">
        <ele>200.39999389648</ele>
        <time>2021-03-08T14:04:35.000Z</time>
      </trkpt>
      <trkpt lat="46.62861" lon="5.3304">
        <ele>200.39999389648</ele>
        <time>2021-03-08T14:04:36.000Z</time>
      </trkpt>
      <trkpt lat="46.62871" lon="5.33044">
        <ele>200.60000610352</ele>
        <time>2021-03-08T14:04:38.000Z</time>
      </trkpt>
      <trkpt lat="46.62881" lon="5.33049">
        <ele>200.80000305176</ele>
        <time>2021-03-08T14:04:40.000Z</time>
      </trkpt>
      <trkpt lat="46.62891" lon="5.33056">
        <ele>200.80000305176</ele>
        <time>2021-03-08T14:04:42.000Z</time>
      </trkpt>
      <trkpt lat="46.62896" lon="5.3306">
        <ele>201</ele>
        <time>2021-03-08T14:04:43.000Z</time>
      </trkpt>
      <trkpt lat="46.629" lon="5.33065">
        <ele>201</ele>
        <time>2021-03-08T14:04:44.000Z</time>
      </trkpt>
      <trkpt lat="46.62909" lon="5.33076">
        <ele>201.19999694824</ele>
        <time>2021-03-08T14:04:46.000Z</time>
      </trkpt>
      <trkpt lat="46.62917" lon="5.33087">
        <ele>201.39999389648</ele>
        <time>2021-03-08T14:04:48.000Z</time>
      </trkpt>
      <trkpt lat="46.62926" lon="5.33097">
        <ele>201.60000610352</ele>
        <time>2021-03-08T14:04:50.000Z</time>
      </trkpt>
      <trkpt lat="46.62936" lon="5.33105">
        <ele>201.80000305176</ele>
        <time>2021-03-08T14:04:52.000Z</time>
      </trkpt>
      <trkpt lat="46.62942" lon="5.33107">
        <ele>201.60000610352</ele>
        <time>2021-03-08T14:04:53.000Z</time>
      </trkpt>
      <trkpt lat="46.62947" lon="5.33109">
        <ele>201.60000610352</ele>
        <time>2021-03-08T14:04:54.000Z</time>
      </trkpt>
      <trkpt lat="46.62957" lon="5.33113">
        <ele>201.60000610352</ele>
        <time>2021-03-08T14:04:56.000Z</time>
      </trkpt>
      <trkpt lat="46.62967" lon="5.33116">
        <ele>201.60000610352</ele>
        <time>2021-03-08T14:04:58.000Z</time>
      </trkpt>
      <trkpt lat="46.62977" lon="5.33119">
        <ele>202</ele>
        <time>2021-03-08T14:05:00.000Z</time>
      </trkpt>
      <trkpt lat="46.62987" lon="5.33121">
        <ele>202.19999694824</ele>
        <time>2021-03-08T14:05:02.000Z</time>
      </trkpt>
      <trkpt lat="46.62991" lon="5.33122">
        <ele>202.19999694824</ele>
        <time>2021-03-08T14:05:03.000Z</time>
      </trkpt>
      <trkpt lat="46.62996" lon="5.33124">
        <ele>202.39999389648</ele>
        <time>2021-03-08T14:05:04.000Z</time>
      </trkpt>
      <trkpt lat="46.63005" lon="5.33126">
        <ele>203</ele>
        <time>2021-03-08T14:05:06.000Z</time>
      </trkpt>
      <trkpt lat="46.6301" lon="5.33128">
        <ele>203.39999389648</ele>
        <time>2021-03-08T14:05:07.000Z</time>
      </trkpt>
      <trkpt lat="46.63015" lon="5.3313">
        <ele>203.60000610352</ele>
        <time>2021-03-08T14:05:08.000Z</time>
      </trkpt>
      <trkpt lat="46.63019" lon="5.33132">
        <ele>204</ele>
        <time>2021-03-08T14:05:09.000Z</time>
      </trkpt>
      <trkpt lat="46.63024" lon="5.33134">
        <ele>204.39999389648</ele>
        <time>2021-03-08T14:05:10.000Z</time>
      </trkpt>
      <trkpt lat="46.63033" lon="5.33139">
        <ele>205.19999694824</ele>
        <time>2021-03-08T14:05:12.000Z</time>
      </trkpt>
      <trkpt lat="46.63042" lon="5.33145">
        <ele>205.39999389648</ele>
        <time>2021-03-08T14:05:14.000Z</time>
      </trkpt>
      <trkpt lat="46.6305" lon="5.33152">
        <ele>206.19999694824</ele>
        <time>2021-03-08T14:05:16.000Z</time>
      </trkpt>
      <trkpt lat="46.63059" lon="5.3316">
        <ele>206.60000610352</ele>
        <time>2021-03-08T14:05:18.000Z</time>
      </trkpt>
      <trkpt lat="46.63068" lon="5.33168">
        <ele>206.60000610352</ele>
        <time>2021-03-08T14:05:20.000Z</time>
      </trkpt>
      <trkpt lat="46.63077" lon="5.33177">
        <ele>207</ele>
        <time>2021-03-08T14:05:22.000Z</time>
      </trkpt>
      <trkpt lat="46.63082" lon="5.33181">
        <ele>207.19999694824</ele>
        <time>2021-03-08T14:05:23.000Z</time>
      </trkpt>
      <trkpt lat="46.63086" lon="5.33186">
        <ele>207.39999389648</ele>
        <time>2021-03-08T14:05:24.000Z</time>
      </trkpt>
      <trkpt lat="46.63091" lon="5.3319">
        <ele>207.60000610352</ele>
        <time>2021-03-08T14:05:25.000Z</time>
      </trkpt>
      <trkpt lat="46.63096" lon="5.33195">
        <ele>207.80000305176</ele>
        <time>2021-03-08T14:05:26.000Z</time>
      </trkpt>
      <trkpt lat="46.63105" lon="5.33204">
        <ele>208.19999694824</ele>
        <time>2021-03-08T14:05:28.000Z</time>
      </trkpt>
      <trkpt lat="46.63115" lon="5.33213">
        <ele>208.39999389648</ele>
        <time>2021-03-08T14:05:30.000Z</time>
      </trkpt>
      <trkpt lat="46.6312" lon="5.33218">
        <ele>208.39999389648</ele>
        <time>2021-03-08T14:05:31.000Z</time>
      </trkpt>
      <trkpt lat="46.63125" lon="5.33222">
        <ele>208.39999389648</ele>
        <time>2021-03-08T14:05:32.000Z</time>
      </trkpt>
      <trkpt lat="46.63135" lon="5.33232">
        <ele>208.39999389648</ele>
        <time>2021-03-08T14:05:34.000Z</time>
      </trkpt>
      <trkpt lat="46.63146" lon="5.33242">
        <ele>208.60000610352</ele>
        <time>2021-03-08T14:05:36.000Z</time>
      </trkpt>
      <trkpt lat="46.63157" lon="5.33253">
        <ele>208.60000610352</ele>
        <time>2021-03-08T14:05:38.000Z</time>
      </trkpt>
      <trkpt lat="46.63162" lon="5.33258">
        <ele>208.60000610352</ele>
        <time>2021-03-08T14:05:39.000Z</time>
      </trkpt>
      <trkpt lat="46.63168" lon="5.33263">
        <ele>208.60000610352</ele>
        <time>2021-03-08T14:05:40.000Z</time>
      </trkpt>
      <trkpt lat="46.63179" lon="5.33273">
        <ele>208.60000610352</ele>
        <time>2021-03-08T14:05:42.000Z</time>
      </trkpt>
      <trkpt lat="46.6319" lon="5.33283">
        <ele>208.60000610352</ele>
        <time>2021-03-08T14:05:44.000Z</time>
      </trkpt>
      <trkpt lat="46.63201" lon="5.33292">
        <ele>208.60000610352</ele>
        <time>2021-03-08T14:05:46.000Z</time>
      </trkpt>
      <trkpt lat="46.63212" lon="5.33301">
        <ele>208.60000610352</ele>
        <time>2021-03-08T14:05:48.000Z</time>
      </trkpt>
      <trkpt lat="46.63223" lon="5.33309">
        <ele>208.60000610352</ele>
        <time>2021-03-08T14:05:50.000Z</time>
      </trkpt>
      <trkpt lat="46.63235" lon="5.33317">
        <ele>208.60000610352</ele>
        <time>2021-03-08T14:05:52.000Z</time>
      </trkpt>
      <trkpt lat="46.63247" lon="5.33324">
        <ele>208.60000610352</ele>
        <time>2021-03-08T14:05:54.000Z</time>
      </trkpt>
      <trkpt lat="46.6326" lon="5.33331">
        <ele>208.60000610352</ele>
        <time>2021-03-08T14:05:56.000Z</time>
      </trkpt>
      <trkpt lat="46.63273" lon="5.33337">
        <ele>208.60000610352</ele>
        <time>2021-03-08T14:05:58.000Z</time>
      </trkpt>
      <trkpt lat="46.63286" lon="5.3334">
        <ele>208.80000305176</ele>
        <time>2021-03-08T14:06:00.000Z</time>
      </trkpt>
      <trkpt lat="46.63299" lon="5.33344">
        <ele>208.80000305176</ele>
        <time>2021-03-08T14:06:02.000Z</time>
      </trkpt>
      <trkpt lat="46.63313" lon="5.33347">
        <ele>208.80000305176</ele>
        <time>2021-03-08T14:06:04.000Z</time>
      </trkpt>
      <trkpt lat="46.63327" lon="5.33351">
        <ele>208.80000305176</ele>
        <time>2021-03-08T14:06:06.000Z</time>
      </trkpt>
      <trkpt lat="46.63341" lon="5.33356">
        <ele>208.60000610352</ele>
        <time>2021-03-08T14:06:08.000Z</time>
      </trkpt>
      <trkpt lat="46.63354" lon="5.33362">
        <ele>208.60000610352</ele>
        <time>2021-03-08T14:06:10.000Z</time>
      </trkpt>
      <trkpt lat="46.63368" lon="5.3337">
        <ele>208.39999389648</ele>
        <time>2021-03-08T14:06:12.000Z</time>
      </trkpt>
      <trkpt lat="46.63381" lon="5.33379">
        <ele>208</ele>
        <time>2021-03-08T14:06:14.000Z</time>
      </trkpt>
      <trkpt lat="46.63393" lon="5.3339">
        <ele>207.80000305176</ele>
        <time>2021-03-08T14:06:16.000Z</time>
      </trkpt>
      <trkpt lat="46.63406" lon="5.334">
        <ele>207.60000610352</ele>
        <time>2021-03-08T14:06:18.000Z</time>
      </trkpt>
      <trkpt lat="46.63412" lon="5.33405">
        <ele>207.60000610352</ele>
        <time>2021-03-08T14:06:19.000Z</time>
      </trkpt>
      <trkpt lat="46.63418" lon="5.3341">
        <ele>207.60000610352</ele>
        <time>2021-03-08T14:06:20.000Z</time>
      </trkpt>
      <trkpt lat="46.63431" lon="5.33421">
        <ele>207.60000610352</ele>
        <time>2021-03-08T14:06:22.000Z</time>
      </trkpt>
      <trkpt lat="46.63443" lon="5.33432">
        <ele>207.39999389648</ele>
        <time>2021-03-08T14:06:24.000Z</time>
      </trkpt>
      <trkpt lat="46.63456" lon="5.33442">
        <ele>207.39999389648</ele>
        <time>2021-03-08T14:06:26.000Z</time>
      </trkpt>
      <trkpt lat="46.63468" lon="5.33452">
        <ele>207.19999694824</ele>
        <time>2021-03-08T14:06:28.000Z</time>
      </trkpt>
      <trkpt lat="46.63481" lon="5.33463">
        <ele>207</ele>
        <time>2021-03-08T14:06:30.000Z</time>
      </trkpt>
      <trkpt lat="46.63493" lon="5.33474">
        <ele>207</ele>
        <time>2021-03-08T14:06:32.000Z</time>
      </trkpt>
      <trkpt lat="46.63506" lon="5.33485">
        <ele>207</ele>
        <time>2021-03-08T14:06:34.000Z</time>
      </trkpt>
      <trkpt lat="46.63518" lon="5.33494">
        <ele>207</ele>
        <time>2021-03-08T14:06:36.000Z</time>
      </trkpt>
      <trkpt lat="46.63524" lon="5.33498">
        <ele>207</ele>
        <time>2021-03-08T14:06:37.000Z</time>
      </trkpt>
      <trkpt lat="46.63531" lon="5.33502">
        <ele>207</ele>
        <time>2021-03-08T14:06:38.000Z</time>
      </trkpt>
      <trkpt lat="46.63544" lon="5.33508">
        <ele>207</ele>
        <time>2021-03-08T14:06:40.000Z</time>
      </trkpt>
      <trkpt lat="46.63551" lon="5.33509">
        <ele>207</ele>
        <time>2021-03-08T14:06:41.000Z</time>
      </trkpt>
      <trkpt lat="46.63557" lon="5.33511">
        <ele>207</ele>
        <time>2021-03-08T14:06:42.000Z</time>
      </trkpt>
      <trkpt lat="46.63571" lon="5.33513">
        <ele>207</ele>
        <time>2021-03-08T14:06:44.000Z</time>
      </trkpt>
      <trkpt lat="46.63585" lon="5.33515">
        <ele>207</ele>
        <time>2021-03-08T14:06:46.000Z</time>
      </trkpt>
      <trkpt lat="46.63599" lon="5.33516">
        <ele>207</ele>
        <time>2021-03-08T14:06:48.000Z</time>
      </trkpt>
      <trkpt lat="46.63613" lon="5.33518">
        <ele>207</ele>
        <time>2021-03-08T14:06:50.000Z</time>
      </trkpt>
      <trkpt lat="46.6362" lon="5.33519">
        <ele>207</ele>
        <time>2021-03-08T14:06:51.000Z</time>
      </trkpt>
      <trkpt lat="46.63628" lon="5.3352">
        <ele>207</ele>
        <time>2021-03-08T14:06:52.000Z</time>
      </trkpt>
      <trkpt lat="46.63642" lon="5.33522">
        <ele>207</ele>
        <time>2021-03-08T14:06:54.000Z</time>
      </trkpt>
      <trkpt lat="46.63656" lon="5.33526">
        <ele>207</ele>
        <time>2021-03-08T14:06:56.000Z</time>
      </trkpt>
      <trkpt lat="46.6367" lon="5.33532">
        <ele>207</ele>
        <time>2021-03-08T14:06:58.000Z</time>
      </trkpt>
      <trkpt lat="46.63684" lon="5.33538">
        <ele>206.80000305176</ele>
        <time>2021-03-08T14:07:00.000Z</time>
      </trkpt>
      <trkpt lat="46.63698" lon="5.33545">
        <ele>206.60000610352</ele>
        <time>2021-03-08T14:07:02.000Z</time>
      </trkpt>
      <trkpt lat="46.63712" lon="5.33551">
        <ele>206.60000610352</ele>
        <time>2021-03-08T14:07:04.000Z</time>
      </trkpt>
      <trkpt lat="46.63725" lon="5.33557">
        <ele>206.60000610352</ele>
        <time>2021-03-08T14:07:06.000Z</time>
      </trkpt>
      <trkpt lat="46.63739" lon="5.33564">
        <ele>206.39999389648</ele>
        <time>2021-03-08T14:07:08.000Z</time>
      </trkpt>
      <trkpt lat="46.63752" lon="5.33571">
        <ele>206.39999389648</ele>
        <time>2021-03-08T14:07:10.000Z</time>
      </trkpt>
      <trkpt lat="46.63765" lon="5.33577">
        <ele>206.19999694824</ele>
        <time>2021-03-08T14:07:12.000Z</time>
      </trkpt>
      <trkpt lat="46.63779" lon="5.33584">
        <ele>206.19999694824</ele>
        <time>2021-03-08T14:07:14.000Z</time>
      </trkpt>
      <trkpt lat="46.63793" lon="5.33591">
        <ele>206.19999694824</ele>
        <time>2021-03-08T14:07:16.000Z</time>
      </trkpt>
      <trkpt lat="46.63806" lon="5.33598">
        <ele>206</ele>
        <time>2021-03-08T14:07:18.000Z</time>
      </trkpt>
      <trkpt lat="46.63819" lon="5.33605">
        <ele>205.60000610352</ele>
        <time>2021-03-08T14:07:20.000Z</time>
      </trkpt>
      <trkpt lat="46.63826" lon="5.33608">
        <ele>205.39999389648</ele>
        <time>2021-03-08T14:07:21.000Z</time>
      </trkpt>
      <trkpt lat="46.63832" lon="5.33611">
        <ele>205.19999694824</ele>
        <time>2021-03-08T14:07:22.000Z</time>
      </trkpt>
      <trkpt lat="46.63845" lon="5.33617">
        <ele>204.80000305176</ele>
        <time>2021-03-08T14:07:24.000Z</time>
      </trkpt>
      <trkpt lat="46.63858" lon="5.33623">
        <ele>204.39999389648</ele>
        <time>2021-03-08T14:07:26.000Z</time>
      </trkpt>
      <trkpt lat="46.63864" lon="5.33626">
        <ele>204.19999694824</ele>
        <time>2021-03-08T14:07:27.000Z</time>
      </trkpt>
      <trkpt lat="46.63871" lon="5.33629">
        <ele>204</ele>
        <time>2021-03-08T14:07:28.000Z</time>
      </trkpt>
      <trkpt lat="46.63878" lon="5.33632">
        <ele>203.80000305176</ele>
        <time>2021-03-08T14:07:29.000Z</time>
      </trkpt>
      <trkpt lat="46.63885" lon="5.33636">
        <ele>203.19999694824</ele>
        <time>2021-03-08T14:07:30.000Z</time>
      </trkpt>
      <trkpt lat="46.63892" lon="5.33639">
        <ele>203</ele>
        <time>2021-03-08T14:07:31.000Z</time>
      </trkpt>
      <trkpt lat="46.63898" lon="5.33642">
        <ele>202.80000305176</ele>
        <time>2021-03-08T14:07:32.000Z</time>
      </trkpt>
      <trkpt lat="46.63912" lon="5.33648">
        <ele>202.60000610352</ele>
        <time>2021-03-08T14:07:34.000Z</time>
      </trkpt>
      <trkpt lat="46.63926" lon="5.33655">
        <ele>202.60000610352</ele>
        <time>2021-03-08T14:07:36.000Z</time>
      </trkpt>
      <trkpt lat="46.6394" lon="5.33662">
        <ele>202.39999389648</ele>
        <time>2021-03-08T14:07:38.000Z</time>
      </trkpt>
      <trkpt lat="46.63948" lon="5.33666">
        <ele>202.39999389648</ele>
        <time>2021-03-08T14:07:39.000Z</time>
      </trkpt>
      <trkpt lat="46.63955" lon="5.33669">
        <ele>202.39999389648</ele>
        <time>2021-03-08T14:07:40.000Z</time>
      </trkpt>
      <trkpt lat="46.6397" lon="5.33676">
        <ele>202.19999694824</ele>
        <time>2021-03-08T14:07:42.000Z</time>
      </trkpt>
      <trkpt lat="46.63985" lon="5.33683">
        <ele>202</ele>
        <time>2021-03-08T14:07:44.000Z</time>
      </trkpt>
      <trkpt lat="46.63993" lon="5.33687">
        <ele>201.80000305176</ele>
        <time>2021-03-08T14:07:45.000Z</time>
      </trkpt>
      <trkpt lat="46.64001" lon="5.33691">
        <ele>201.39999389648</ele>
        <time>2021-03-08T14:07:46.000Z</time>
      </trkpt>
      <trkpt lat="46.64009" lon="5.33694">
        <ele>201.39999389648</ele>
        <time>2021-03-08T14:07:47.000Z</time>
      </trkpt>
      <trkpt lat="46.64017" lon="5.33698">
        <ele>201.19999694824</ele>
        <time>2021-03-08T14:07:48.000Z</time>
      </trkpt>
      <trkpt lat="46.64034" lon="5.33706">
        <ele>201.19999694824</ele>
        <time>2021-03-08T14:07:50.000Z</time>
      </trkpt>
      <trkpt lat="46.64051" lon="5.33714">
        <ele>200.60000610352</ele>
        <time>2021-03-08T14:07:52.000Z</time>
      </trkpt>
      <trkpt lat="46.64068" lon="5.33722">
        <ele>199.80000305176</ele>
        <time>2021-03-08T14:07:54.000Z</time>
      </trkpt>
      <trkpt lat="46.64077" lon="5.33726">
        <ele>199.19999694824</ele>
        <time>2021-03-08T14:07:55.000Z</time>
      </trkpt>
      <trkpt lat="46.64085" lon="5.3373">
        <ele>198.39999389648</ele>
        <time>2021-03-08T14:07:56.000Z</time>
      </trkpt>
      <trkpt lat="46.64094" lon="5.33734">
        <ele>198.19999694824</ele>
        <time>2021-03-08T14:07:57.000Z</time>
      </trkpt>
      <trkpt lat="46.64102" lon="5.33738">
        <ele>197.19999694824</ele>
        <time>2021-03-08T14:07:58.000Z</time>
      </trkpt>
      <trkpt lat="46.64111" lon="5.33742">
        <ele>196.60000610352</ele>
        <time>2021-03-08T14:07:59.000Z</time>
      </trkpt>
      <trkpt lat="46.64119" lon="5.33746">
        <ele>196.19999694824</ele>
        <time>2021-03-08T14:08:00.000Z</time>
      </trkpt>
      <trkpt lat="46.64136" lon="5.33754">
        <ele>195.60000610352</ele>
        <time>2021-03-08T14:08:02.000Z</time>
      </trkpt>
      <trkpt lat="46.64153" lon="5.33762">
        <ele>194.80000305176</ele>
        <time>2021-03-08T14:08:04.000Z</time>
      </trkpt>
      <trkpt lat="46.64161" lon="5.33765">
        <ele>194.60000610352</ele>
        <time>2021-03-08T14:08:05.000Z</time>
      </trkpt>
      <trkpt lat="46.64169" lon="5.33769">
        <ele>194</ele>
        <time>2021-03-08T14:08:06.000Z</time>
      </trkpt>
      <trkpt lat="46.64177" lon="5.33773">
        <ele>193.39999389648</ele>
        <time>2021-03-08T14:08:07.000Z</time>
      </trkpt>
      <trkpt lat="46.64185" lon="5.33776">
        <ele>192.80000305176</ele>
        <time>2021-03-08T14:08:08.000Z</time>
      </trkpt>
      <trkpt lat="46.64193" lon="5.3378">
        <ele>192</ele>
        <time>2021-03-08T14:08:09.000Z</time>
      </trkpt>
      <trkpt lat="46.64201" lon="5.33784">
        <ele>191.39999389648</ele>
        <time>2021-03-08T14:08:10.000Z</time>
      </trkpt>
      <trkpt lat="46.64209" lon="5.33788">
        <ele>191</ele>
        <time>2021-03-08T14:08:11.000Z</time>
      </trkpt>
      <trkpt lat="46.64217" lon="5.33791">
        <ele>190.60000610352</ele>
        <time>2021-03-08T14:08:12.000Z</time>
      </trkpt>
      <trkpt lat="46.64232" lon="5.33799">
        <ele>190.39999389648</ele>
        <time>2021-03-08T14:08:14.000Z</time>
      </trkpt>
      <trkpt lat="46.64247" lon="5.33806">
        <ele>190.39999389648</ele>
        <time>2021-03-08T14:08:16.000Z</time>
      </trkpt>
      <trkpt lat="46.64254" lon="5.33809">
        <ele>190.19999694824</ele>
        <time>2021-03-08T14:08:17.000Z</time>
      </trkpt>
      <trkpt lat="46.64262" lon="5.33812">
        <ele>190.19999694824</ele>
        <time>2021-03-08T14:08:18.000Z</time>
      </trkpt>
      <trkpt lat="46.64276" lon="5.33819">
        <ele>190.19999694824</ele>
        <time>2021-03-08T14:08:20.000Z</time>
      </trkpt>
      <trkpt lat="46.6429" lon="5.33826">
        <ele>190.19999694824</ele>
        <time>2021-03-08T14:08:22.000Z</time>
      </trkpt>
      <trkpt lat="46.64303" lon="5.33832">
        <ele>190.39999389648</ele>
        <time>2021-03-08T14:08:24.000Z</time>
      </trkpt>
      <trkpt lat="46.64309" lon="5.33835">
        <ele>190.39999389648</ele>
        <time>2021-03-08T14:08:25.000Z</time>
      </trkpt>
      <trkpt lat="46.64316" lon="5.33838">
        <ele>190.39999389648</ele>
        <time>2021-03-08T14:08:26.000Z</time>
      </trkpt>
      <trkpt lat="46.64327" lon="5.33844">
        <ele>190.39999389648</ele>
        <time>2021-03-08T14:08:28.000Z</time>
      </trkpt>
      <trkpt lat="46.64339" lon="5.33849">
        <ele>190.60000610352</ele>
        <time>2021-03-08T14:08:30.000Z</time>
      </trkpt>
      <trkpt lat="46.6435" lon="5.33854">
        <ele>190.80000305176</ele>
        <time>2021-03-08T14:08:32.000Z</time>
      </trkpt>
      <trkpt lat="46.64361" lon="5.3386">
        <ele>191</ele>
        <time>2021-03-08T14:08:34.000Z</time>
      </trkpt>
      <trkpt lat="46.64371" lon="5.33865">
        <ele>191.39999389648</ele>
        <time>2021-03-08T14:08:36.000Z</time>
      </trkpt>
      <trkpt lat="46.64382" lon="5.33869">
        <ele>192</ele>
        <time>2021-03-08T14:08:38.000Z</time>
      </trkpt>
      <trkpt lat="46.64387" lon="5.33872">
        <ele>192</ele>
        <time>2021-03-08T14:08:39.000Z</time>
      </trkpt>
      <trkpt lat="46.64392" lon="5.33874">
        <ele>192.19999694824</ele>
        <time>2021-03-08T14:08:40.000Z</time>
      </trkpt>
      <trkpt lat="46.64402" lon="5.3388">
        <ele>192.60000610352</ele>
        <time>2021-03-08T14:08:42.000Z</time>
      </trkpt>
      <trkpt lat="46.64413" lon="5.33885">
        <ele>193.19999694824</ele>
        <time>2021-03-08T14:08:44.000Z</time>
      </trkpt>
      <trkpt lat="46.64423" lon="5.33889">
        <ele>193.80000305176</ele>
        <time>2021-03-08T14:08:46.000Z</time>
      </trkpt>
      <trkpt lat="46.64429" lon="5.33892">
        <ele>194</ele>
        <time>2021-03-08T14:08:47.000Z</time>
      </trkpt>
      <trkpt lat="46.64434" lon="5.33894">
        <ele>194</ele>
        <time>2021-03-08T14:08:48.000Z</time>
      </trkpt>
      <trkpt lat="46.64445" lon="5.339">
        <ele>194.19999694824</ele>
        <time>2021-03-08T14:08:50.000Z</time>
      </trkpt>
      <trkpt lat="46.64451" lon="5.33902">
        <ele>194.19999694824</ele>
        <time>2021-03-08T14:08:51.000Z</time>
      </trkpt>
      <trkpt lat="46.64456" lon="5.33905">
        <ele>194.19999694824</ele>
        <time>2021-03-08T14:08:52.000Z</time>
      </trkpt>
      <trkpt lat="46.64468" lon="5.3391">
        <ele>194.39999389648</ele>
        <time>2021-03-08T14:08:54.000Z</time>
      </trkpt>
      <trkpt lat="46.64479" lon="5.33916">
        <ele>194.39999389648</ele>
        <time>2021-03-08T14:08:56.000Z</time>
      </trkpt>
      <trkpt lat="46.64485" lon="5.33918">
        <ele>194.60000610352</ele>
        <time>2021-03-08T14:08:57.000Z</time>
      </trkpt>
      <trkpt lat="46.64491" lon="5.33921">
        <ele>194.60000610352</ele>
        <time>2021-03-08T14:08:58.000Z</time>
      </trkpt>
      <trkpt lat="46.64502" lon="5.33927">
        <ele>194.80000305176</ele>
        <time>2021-03-08T14:09:00.000Z</time>
      </trkpt>
      <trkpt lat="46.64514" lon="5.33932">
        <ele>194.80000305176</ele>
        <time>2021-03-08T14:09:02.000Z</time>
      </trkpt>
      <trkpt lat="46.64525" lon="5.33939">
        <ele>195</ele>
        <time>2021-03-08T14:09:04.000Z</time>
      </trkpt>
      <trkpt lat="46.64537" lon="5.33946">
        <ele>195</ele>
        <time>2021-03-08T14:09:06.000Z</time>
      </trkpt>
      <trkpt lat="46.6455" lon="5.33954">
        <ele>194.80000305176</ele>
        <time>2021-03-08T14:09:08.000Z</time>
      </trkpt>
      <trkpt lat="46.64562" lon="5.33963">
        <ele>194.80000305176</ele>
        <time>2021-03-08T14:09:10.000Z</time>
      </trkpt>
      <trkpt lat="46.64576" lon="5.33973">
        <ele>194.60000610352</ele>
        <time>2021-03-08T14:09:12.000Z</time>
      </trkpt>
      <trkpt lat="46.64583" lon="5.33978">
        <ele>194.39999389648</ele>
        <time>2021-03-08T14:09:13.000Z</time>
      </trkpt>
      <trkpt lat="46.6459" lon="5.33983">
        <ele>194.19999694824</ele>
        <time>2021-03-08T14:09:14.000Z</time>
      </trkpt>
      <trkpt lat="46.64605" lon="5.33992">
        <ele>193.39999389648</ele>
        <time>2021-03-08T14:09:16.000Z</time>
      </trkpt>
      <trkpt lat="46.64613" lon="5.33995">
        <ele>193.19999694824</ele>
        <time>2021-03-08T14:09:17.000Z</time>
      </trkpt>
      <trkpt lat="46.64621" lon="5.33996">
        <ele>192.60000610352</ele>
        <time>2021-03-08T14:09:18.000Z</time>
      </trkpt>
      <trkpt lat="46.64629" lon="5.33995">
        <ele>192.19999694824</ele>
        <time>2021-03-08T14:09:19.000Z</time>
      </trkpt>
      <trkpt lat="46.64636" lon="5.33993">
        <ele>191.80000305176</ele>
        <time>2021-03-08T14:09:20.000Z</time>
      </trkpt>
      <trkpt lat="46.64644" lon="5.33992">
        <ele>191.60000610352</ele>
        <time>2021-03-08T14:09:21.000Z</time>
      </trkpt>
      <trkpt lat="46.64651" lon="5.3399">
        <ele>191.39999389648</ele>
        <time>2021-03-08T14:09:22.000Z</time>
      </trkpt>
      <trkpt lat="46.64659" lon="5.3399">
        <ele>191.39999389648</ele>
        <time>2021-03-08T14:09:23.000Z</time>
      </trkpt>
      <trkpt lat="46.64666" lon="5.33992">
        <ele>191</ele>
        <time>2021-03-08T14:09:24.000Z</time>
      </trkpt>
      <trkpt lat="46.6468" lon="5.33998">
        <ele>190.60000610352</ele>
        <time>2021-03-08T14:09:26.000Z</time>
      </trkpt>
      <trkpt lat="46.64694" lon="5.34007">
        <ele>190.39999389648</ele>
        <time>2021-03-08T14:09:28.000Z</time>
      </trkpt>
      <trkpt lat="46.64707" lon="5.34017">
        <ele>190.39999389648</ele>
        <time>2021-03-08T14:09:30.000Z</time>
      </trkpt>
      <trkpt lat="46.64713" lon="5.34022">
        <ele>190.19999694824</ele>
        <time>2021-03-08T14:09:31.000Z</time>
      </trkpt>
      <trkpt lat="46.64719" lon="5.34027">
        <ele>190.19999694824</ele>
        <time>2021-03-08T14:09:32.000Z</time>
      </trkpt>
      <trkpt lat="46.64731" lon="5.34035">
        <ele>190.19999694824</ele>
        <time>2021-03-08T14:09:34.000Z</time>
      </trkpt>
      <trkpt lat="46.64743" lon="5.34041">
        <ele>190.19999694824</ele>
        <time>2021-03-08T14:09:36.000Z</time>
      </trkpt>
      <trkpt lat="46.64748" lon="5.34043">
        <ele>190.19999694824</ele>
        <time>2021-03-08T14:09:37.000Z</time>
      </trkpt>
      <trkpt lat="46.64754" lon="5.34045">
        <ele>190.19999694824</ele>
        <time>2021-03-08T14:09:38.000Z</time>
      </trkpt>
      <trkpt lat="46.64764" lon="5.34046">
        <ele>190.39999389648</ele>
        <time>2021-03-08T14:09:40.000Z</time>
      </trkpt>
      <trkpt lat="46.64774" lon="5.34047">
        <ele>190.39999389648</ele>
        <time>2021-03-08T14:09:42.000Z</time>
      </trkpt>
      <trkpt lat="46.64783" lon="5.34048">
        <ele>190.60000610352</ele>
        <time>2021-03-08T14:09:44.000Z</time>
      </trkpt>
      <trkpt lat="46.64792" lon="5.34049">
        <ele>191.39999389648</ele>
        <time>2021-03-08T14:09:46.000Z</time>
      </trkpt>
      <trkpt lat="46.64801" lon="5.3405">
        <ele>192.19999694824</ele>
        <time>2021-03-08T14:09:48.000Z</time>
      </trkpt>
      <trkpt lat="46.6481" lon="5.3405">
        <ele>192.80000305176</ele>
        <time>2021-03-08T14:09:50.000Z</time>
      </trkpt>
      <trkpt lat="46.64814" lon="5.3405">
        <ele>193.19999694824</ele>
        <time>2021-03-08T14:09:51.000Z</time>
      </trkpt>
      <trkpt lat="46.64819" lon="5.34051">
        <ele>193.60000610352</ele>
        <time>2021-03-08T14:09:52.000Z</time>
      </trkpt>
      <trkpt lat="46.64823" lon="5.34051">
        <ele>193.80000305176</ele>
        <time>2021-03-08T14:09:53.000Z</time>
      </trkpt>
      <trkpt lat="46.64828" lon="5.34051">
        <ele>194</ele>
        <time>2021-03-08T14:09:54.000Z</time>
      </trkpt>
      <trkpt lat="46.64836" lon="5.34053">
        <ele>194.19999694824</ele>
        <time>2021-03-08T14:09:56.000Z</time>
      </trkpt>
      <trkpt lat="46.64845" lon="5.34053">
        <ele>195</ele>
        <time>2021-03-08T14:09:58.000Z</time>
      </trkpt>
      <trkpt lat="46.64849" lon="5.34054">
        <ele>195.39999389648</ele>
        <time>2021-03-08T14:09:59.000Z</time>
      </trkpt>
      <trkpt lat="46.64853" lon="5.34054">
        <ele>195.39999389648</ele>
        <time>2021-03-08T14:10:00.000Z</time>
      </trkpt>
      <trkpt lat="46.64857" lon="5.34055">
        <ele>195.60000610352</ele>
        <time>2021-03-08T14:10:01.000Z</time>
      </trkpt>
      <trkpt lat="46.64861" lon="5.34055">
        <ele>195.80000305176</ele>
        <time>2021-03-08T14:10:02.000Z</time>
      </trkpt>
      <trkpt lat="46.64869" lon="5.34055">
        <ele>196.60000610352</ele>
        <time>2021-03-08T14:10:04.000Z</time>
      </trkpt>
      <trkpt lat="46.64877" lon="5.34056">
        <ele>196.80000305176</ele>
        <time>2021-03-08T14:10:06.000Z</time>
      </trkpt>
      <trkpt lat="46.64884" lon="5.34057">
        <ele>197.19999694824</ele>
        <time>2021-03-08T14:10:08.000Z</time>
      </trkpt>
      <trkpt lat="46.64892" lon="5.34058">
        <ele>197.60000610352</ele>
        <time>2021-03-08T14:10:10.000Z</time>
      </trkpt>
      <trkpt lat="46.64895" lon="5.34058">
        <ele>197.80000305176</ele>
        <time>2021-03-08T14:10:11.000Z</time>
      </trkpt>
      <trkpt lat="46.64899" lon="5.34059">
        <ele>198</ele>
        <time>2021-03-08T14:10:12.000Z</time>
      </trkpt>
      <trkpt lat="46.64906" lon="5.34059">
        <ele>198.19999694824</ele>
        <time>2021-03-08T14:10:14.000Z</time>
      </trkpt>
      <trkpt lat="46.64912" lon="5.3406">
        <ele>198.60000610352</ele>
        <time>2021-03-08T14:10:16.000Z</time>
      </trkpt>
      <trkpt lat="46.64915" lon="5.3406">
        <ele>198.80000305176</ele>
        <time>2021-03-08T14:10:17.000Z</time>
      </trkpt>
      <trkpt lat="46.64918" lon="5.3406">
        <ele>199.19999694824</ele>
        <time>2021-03-08T14:10:18.000Z</time>
      </trkpt>
      <trkpt lat="46.64924" lon="5.3406">
        <ele>199.80000305176</ele>
        <time>2021-03-08T14:10:20.000Z</time>
      </trkpt>
      <trkpt lat="46.64927" lon="5.3406">
        <ele>200</ele>
        <time>2021-03-08T14:10:21.000Z</time>
      </trkpt>
      <trkpt lat="46.64931" lon="5.3406">
        <ele>200</ele>
        <time>2021-03-08T14:10:22.000Z</time>
      </trkpt>
      <trkpt lat="46.64937" lon="5.3406">
        <ele>200.39999389648</ele>
        <time>2021-03-08T14:10:24.000Z</time>
      </trkpt>
      <trkpt lat="46.64944" lon="5.34061">
        <ele>200.60000610352</ele>
        <time>2021-03-08T14:10:26.000Z</time>
      </trkpt>
      <trkpt lat="46.64951" lon="5.34061">
        <ele>201.39999389648</ele>
        <time>2021-03-08T14:10:28.000Z</time>
      </trkpt>
      <trkpt lat="46.64958" lon="5.34061">
        <ele>202</ele>
        <time>2021-03-08T14:10:30.000Z</time>
      </trkpt>
      <trkpt lat="46.64961" lon="5.34061">
        <ele>202.39999389648</ele>
        <time>2021-03-08T14:10:31.000Z</time>
      </trkpt>
      <trkpt lat="46.64965" lon="5.34061">
        <ele>202.60000610352</ele>
        <time>2021-03-08T14:10:32.000Z</time>
      </trkpt>
      <trkpt lat="46.64972" lon="5.3406">
        <ele>203.19999694824</ele>
        <time>2021-03-08T14:10:34.000Z</time>
      </trkpt>
      <trkpt lat="46.6498" lon="5.3406">
        <ele>203.39999389648</ele>
        <time>2021-03-08T14:10:36.000Z</time>
      </trkpt>
      <trkpt lat="46.64984" lon="5.34061">
        <ele>203.60000610352</ele>
        <time>2021-03-08T14:10:37.000Z</time>
      </trkpt>
      <trkpt lat="46.64987" lon="5.34061">
        <ele>203.80000305176</ele>
        <time>2021-03-08T14:10:38.000Z</time>
      </trkpt>
      <trkpt lat="46.64995" lon="5.34061">
        <ele>204</ele>
        <time>2021-03-08T14:10:40.000Z</time>
      </trkpt>
      <trkpt lat="46.65003" lon="5.34061">
        <ele>204.19999694824</ele>
        <time>2021-03-08T14:10:42.000Z</time>
      </trkpt>
      <trkpt lat="46.65011" lon="5.3406">
        <ele>204.60000610352</ele>
        <time>2021-03-08T14:10:44.000Z</time>
      </trkpt>
      <trkpt lat="46.65019" lon="5.3406">
        <ele>204.80000305176</ele>
        <time>2021-03-08T14:10:46.000Z</time>
      </trkpt>
      <trkpt lat="46.65027" lon="5.3406">
        <ele>205</ele>
        <time>2021-03-08T14:10:48.000Z</time>
      </trkpt>
      <trkpt lat="46.65035" lon="5.34059">
        <ele>205.19999694824</ele>
        <time>2021-03-08T14:10:50.000Z</time>
      </trkpt>
      <trkpt lat="46.65044" lon="5.34058">
        <ele>205.39999389648</ele>
        <time>2021-03-08T14:10:52.000Z</time>
      </trkpt>
      <trkpt lat="46.65053" lon="5.34058">
        <ele>205.60000610352</ele>
        <time>2021-03-08T14:10:54.000Z</time>
      </trkpt>
      <trkpt lat="46.65062" lon="5.34058">
        <ele>205.80000305176</ele>
        <time>2021-03-08T14:10:56.000Z</time>
      </trkpt>
      <trkpt lat="46.65071" lon="5.34058">
        <ele>206</ele>
        <time>2021-03-08T14:10:58.000Z</time>
      </trkpt>
      <trkpt lat="46.6508" lon="5.34059">
        <ele>206</ele>
        <time>2021-03-08T14:11:00.000Z</time>
      </trkpt>
      <trkpt lat="46.65089" lon="5.3406">
        <ele>206.39999389648</ele>
        <time>2021-03-08T14:11:02.000Z</time>
      </trkpt>
      <trkpt lat="46.65099" lon="5.3406">
        <ele>206.39999389648</ele>
        <time>2021-03-08T14:11:04.000Z</time>
      </trkpt>
      <trkpt lat="46.65108" lon="5.34061">
        <ele>206.39999389648</ele>
        <time>2021-03-08T14:11:06.000Z</time>
      </trkpt>
      <trkpt lat="46.65117" lon="5.34063">
        <ele>206.39999389648</ele>
        <time>2021-03-08T14:11:08.000Z</time>
      </trkpt>
      <trkpt lat="46.65127" lon="5.34065">
        <ele>206.80000305176</ele>
        <time>2021-03-08T14:11:10.000Z</time>
      </trkpt>
      <trkpt lat="46.65136" lon="5.34067">
        <ele>206.80000305176</ele>
        <time>2021-03-08T14:11:12.000Z</time>
      </trkpt>
      <trkpt lat="46.65145" lon="5.3407">
        <ele>206.80000305176</ele>
        <time>2021-03-08T14:11:14.000Z</time>
      </trkpt>
      <trkpt lat="46.65155" lon="5.34073">
        <ele>207.19999694824</ele>
        <time>2021-03-08T14:11:16.000Z</time>
      </trkpt>
      <trkpt lat="46.65165" lon="5.34076">
        <ele>207.19999694824</ele>
        <time>2021-03-08T14:11:18.000Z</time>
      </trkpt>
      <trkpt lat="46.65176" lon="5.34079">
        <ele>207.39999389648</ele>
        <time>2021-03-08T14:11:20.000Z</time>
      </trkpt>
      <trkpt lat="46.65186" lon="5.34082">
        <ele>207.39999389648</ele>
        <time>2021-03-08T14:11:22.000Z</time>
      </trkpt>
      <trkpt lat="46.65196" lon="5.34085">
        <ele>207.60000610352</ele>
        <time>2021-03-08T14:11:24.000Z</time>
      </trkpt>
      <trkpt lat="46.65207" lon="5.34087">
        <ele>207.80000305176</ele>
        <time>2021-03-08T14:11:26.000Z</time>
      </trkpt>
      <trkpt lat="46.65216" lon="5.34089">
        <ele>208</ele>
        <time>2021-03-08T14:11:28.000Z</time>
      </trkpt>
      <trkpt lat="46.6522" lon="5.3409">
        <ele>208</ele>
        <time>2021-03-08T14:11:29.000Z</time>
      </trkpt>
      <trkpt lat="46.65224" lon="5.34092">
        <ele>208</ele>
        <time>2021-03-08T14:11:30.000Z</time>
      </trkpt>
      <trkpt lat="46.65231" lon="5.34099">
        <ele>208.19999694824</ele>
        <time>2021-03-08T14:11:32.000Z</time>
      </trkpt>
      <trkpt lat="46.65233" lon="5.34104">
        <ele>208.39999389648</ele>
        <time>2021-03-08T14:11:33.000Z</time>
      </trkpt>
      <trkpt lat="46.65234" lon="5.34111">
        <ele>208.39999389648</ele>
        <time>2021-03-08T14:11:34.000Z</time>
      </trkpt>
      <trkpt lat="46.65236" lon="5.34118">
        <ele>208.60000610352</ele>
        <time>2021-03-08T14:11:35.000Z</time>
      </trkpt>
      <trkpt lat="46.65237" lon="5.34125">
        <ele>208.60000610352</ele>
        <time>2021-03-08T14:11:36.000Z</time>
      </trkpt>
      <trkpt lat="46.65242" lon="5.34141">
        <ele>208.80000305176</ele>
        <time>2021-03-08T14:11:38.000Z</time>
      </trkpt>
      <trkpt lat="46.65244" lon="5.34149">
        <ele>209</ele>
        <time>2021-03-08T14:11:39.000Z</time>
      </trkpt>
      <trkpt lat="46.65246" lon="5.34156">
        <ele>209.19999694824</ele>
        <time>2021-03-08T14:11:40.000Z</time>
      </trkpt>
      <trkpt lat="46.65252" lon="5.34172">
        <ele>209.60000610352</ele>
        <time>2021-03-08T14:11:42.000Z</time>
      </trkpt>
      <trkpt lat="46.65258" lon="5.34186">
        <ele>209.60000610352</ele>
        <time>2021-03-08T14:11:44.000Z</time>
      </trkpt>
      <trkpt lat="46.65264" lon="5.34201">
        <ele>209.80000305176</ele>
        <time>2021-03-08T14:11:46.000Z</time>
      </trkpt>
      <trkpt lat="46.65268" lon="5.34208">
        <ele>209.80000305176</ele>
        <time>2021-03-08T14:11:47.000Z</time>
      </trkpt>
      <trkpt lat="46.65272" lon="5.34216">
        <ele>209.80000305176</ele>
        <time>2021-03-08T14:11:48.000Z</time>
      </trkpt>
      <trkpt lat="46.65279" lon="5.3423">
        <ele>209.80000305176</ele>
        <time>2021-03-08T14:11:50.000Z</time>
      </trkpt>
      <trkpt lat="46.65286" lon="5.34244">
        <ele>209.60000610352</ele>
        <time>2021-03-08T14:11:52.000Z</time>
      </trkpt>
      <trkpt lat="46.65289" lon="5.34252">
        <ele>209.60000610352</ele>
        <time>2021-03-08T14:11:53.000Z</time>
      </trkpt>
      <trkpt lat="46.6529" lon="5.34261">
        <ele>209.60000610352</ele>
        <time>2021-03-08T14:11:54.000Z</time>
      </trkpt>
      <trkpt lat="46.65285" lon="5.34277">
        <ele>209.60000610352</ele>
        <time>2021-03-08T14:11:56.000Z</time>
      </trkpt>
      <trkpt lat="46.6528" lon="5.34285">
        <ele>209.60000610352</ele>
        <time>2021-03-08T14:11:57.000Z</time>
      </trkpt>
      <trkpt lat="46.65275" lon="5.34293">
        <ele>209.60000610352</ele>
        <time>2021-03-08T14:11:58.000Z</time>
      </trkpt>
      <trkpt lat="46.65264" lon="5.34311">
        <ele>209.60000610352</ele>
        <time>2021-03-08T14:12:00.000Z</time>
      </trkpt>
      <trkpt lat="46.65252" lon="5.34331">
        <ele>209.39999389648</ele>
        <time>2021-03-08T14:12:02.000Z</time>
      </trkpt>
      <trkpt lat="46.6524" lon="5.34351">
        <ele>209.19999694824</ele>
        <time>2021-03-08T14:12:04.000Z</time>
      </trkpt>
      <trkpt lat="46.65229" lon="5.34371">
        <ele>208</ele>
        <time>2021-03-08T14:12:06.000Z</time>
      </trkpt>
      <trkpt lat="46.65223" lon="5.3438">
        <ele>207.19999694824</ele>
        <time>2021-03-08T14:12:07.000Z</time>
      </trkpt>
      <trkpt lat="46.65217" lon="5.3439">
        <ele>206.19999694824</ele>
        <time>2021-03-08T14:12:08.000Z</time>
      </trkpt>
      <trkpt lat="46.65212" lon="5.34397">
        <ele>205.19999694824</ele>
        <time>2021-03-08T14:12:09.000Z</time>
      </trkpt>
      <trkpt lat="46.65206" lon="5.34406">
        <ele>204.80000305176</ele>
        <time>2021-03-08T14:12:10.000Z</time>
      </trkpt>
      <trkpt lat="46.65194" lon="5.34426">
        <ele>204.19999694824</ele>
        <time>2021-03-08T14:12:12.000Z</time>
      </trkpt>
      <trkpt lat="46.65183" lon="5.34445">
        <ele>203.80000305176</ele>
        <time>2021-03-08T14:12:14.000Z</time>
      </trkpt>
      <trkpt lat="46.65172" lon="5.34465">
        <ele>203.80000305176</ele>
        <time>2021-03-08T14:12:16.000Z</time>
      </trkpt>
      <trkpt lat="46.65161" lon="5.34484">
        <ele>203.60000610352</ele>
        <time>2021-03-08T14:12:18.000Z</time>
      </trkpt>
      <trkpt lat="46.65155" lon="5.34494">
        <ele>203.60000610352</ele>
        <time>2021-03-08T14:12:19.000Z</time>
      </trkpt>
      <trkpt lat="46.65149" lon="5.34503">
        <ele>203.60000610352</ele>
        <time>2021-03-08T14:12:20.000Z</time>
      </trkpt>
      <trkpt lat="46.65138" lon="5.34523">
        <ele>203.39999389648</ele>
        <time>2021-03-08T14:12:22.000Z</time>
      </trkpt>
      <trkpt lat="46.65125" lon="5.34544">
        <ele>203.39999389648</ele>
        <time>2021-03-08T14:12:24.000Z</time>
      </trkpt>
      <trkpt lat="46.65113" lon="5.34566">
        <ele>203.19999694824</ele>
        <time>2021-03-08T14:12:26.000Z</time>
      </trkpt>
      <trkpt lat="46.65106" lon="5.34577">
        <ele>203</ele>
        <time>2021-03-08T14:12:27.000Z</time>
      </trkpt>
      <trkpt lat="46.651" lon="5.34588">
        <ele>202.60000610352</ele>
        <time>2021-03-08T14:12:28.000Z</time>
      </trkpt>
      <trkpt lat="46.65087" lon="5.34611">
        <ele>201.60000610352</ele>
        <time>2021-03-08T14:12:30.000Z</time>
      </trkpt>
      <trkpt lat="46.65073" lon="5.34634">
        <ele>200</ele>
        <time>2021-03-08T14:12:32.000Z</time>
      </trkpt>
      <trkpt lat="46.6506" lon="5.34657">
        <ele>198.80000305176</ele>
        <time>2021-03-08T14:12:34.000Z</time>
      </trkpt>
      <trkpt lat="46.65054" lon="5.34668">
        <ele>197.80000305176</ele>
        <time>2021-03-08T14:12:35.000Z</time>
      </trkpt>
      <trkpt lat="46.65048" lon="5.34679">
        <ele>196.80000305176</ele>
        <time>2021-03-08T14:12:36.000Z</time>
      </trkpt>
      <trkpt lat="46.65035" lon="5.34699">
        <ele>195.60000610352</ele>
        <time>2021-03-08T14:12:38.000Z</time>
      </trkpt>
      <trkpt lat="46.65023" lon="5.34719">
        <ele>195.19999694824</ele>
        <time>2021-03-08T14:12:40.000Z</time>
      </trkpt>
      <trkpt lat="46.65018" lon="5.34729">
        <ele>195.19999694824</ele>
        <time>2021-03-08T14:12:41.000Z</time>
      </trkpt>
      <trkpt lat="46.65012" lon="5.34738">
        <ele>195.19999694824</ele>
        <time>2021-03-08T14:12:42.000Z</time>
      </trkpt>
      <trkpt lat="46.65002" lon="5.34757">
        <ele>195.19999694824</ele>
        <time>2021-03-08T14:12:44.000Z</time>
      </trkpt>
      <trkpt lat="46.64992" lon="5.34774">
        <ele>195.19999694824</ele>
        <time>2021-03-08T14:12:46.000Z</time>
      </trkpt>
      <trkpt lat="46.64982" lon="5.34791">
        <ele>195.19999694824</ele>
        <time>2021-03-08T14:12:48.000Z</time>
      </trkpt>
      <trkpt lat="46.64972" lon="5.34808">
        <ele>195.60000610352</ele>
        <time>2021-03-08T14:12:50.000Z</time>
      </trkpt>
      <trkpt lat="46.64962" lon="5.34824">
        <ele>195.80000305176</ele>
        <time>2021-03-08T14:12:52.000Z</time>
      </trkpt>
      <trkpt lat="46.64952" lon="5.3484">
        <ele>196.39999389648</ele>
        <time>2021-03-08T14:12:54.000Z</time>
      </trkpt>
      <trkpt lat="46.64947" lon="5.34849">
        <ele>196.80000305176</ele>
        <time>2021-03-08T14:12:55.000Z</time>
      </trkpt>
      <trkpt lat="46.64942" lon="5.34858">
        <ele>197</ele>
        <time>2021-03-08T14:12:56.000Z</time>
      </trkpt>
      <trkpt lat="46.64931" lon="5.34875">
        <ele>198</ele>
        <time>2021-03-08T14:12:58.000Z</time>
      </trkpt>
      <trkpt lat="46.64921" lon="5.34893">
        <ele>198.39999389648</ele>
        <time>2021-03-08T14:13:00.000Z</time>
      </trkpt>
      <trkpt lat="46.64911" lon="5.3491">
        <ele>198.39999389648</ele>
        <time>2021-03-08T14:13:02.000Z</time>
      </trkpt>
      <trkpt lat="46.64905" lon="5.34919">
        <ele>198.39999389648</ele>
        <time>2021-03-08T14:13:03.000Z</time>
      </trkpt>
      <trkpt lat="46.649" lon="5.34928">
        <ele>198.39999389648</ele>
        <time>2021-03-08T14:13:04.000Z</time>
      </trkpt>
      <trkpt lat="46.64889" lon="5.34947">
        <ele>198.39999389648</ele>
        <time>2021-03-08T14:13:06.000Z</time>
      </trkpt>
      <trkpt lat="46.64878" lon="5.34966">
        <ele>198.39999389648</ele>
        <time>2021-03-08T14:13:08.000Z</time>
      </trkpt>
      <trkpt lat="46.64867" lon="5.34985">
        <ele>198.19999694824</ele>
        <time>2021-03-08T14:13:10.000Z</time>
      </trkpt>
      <trkpt lat="46.64861" lon="5.34995">
        <ele>198</ele>
        <time>2021-03-08T14:13:11.000Z</time>
      </trkpt>
      <trkpt lat="46.64855" lon="5.35005">
        <ele>197.80000305176</ele>
        <time>2021-03-08T14:13:12.000Z</time>
      </trkpt>
      <trkpt lat="46.64844" lon="5.35025">
        <ele>197.60000610352</ele>
        <time>2021-03-08T14:13:14.000Z</time>
      </trkpt>
      <trkpt lat="46.64832" lon="5.35045">
        <ele>197</ele>
        <time>2021-03-08T14:13:16.000Z</time>
      </trkpt>
      <trkpt lat="46.64826" lon="5.35055">
        <ele>196.80000305176</ele>
        <time>2021-03-08T14:13:17.000Z</time>
      </trkpt>
      <trkpt lat="46.6482" lon="5.35065">
        <ele>196.60000610352</ele>
        <time>2021-03-08T14:13:18.000Z</time>
      </trkpt>
      <trkpt lat="46.64814" lon="5.35076">
        <ele>196.39999389648</ele>
        <time>2021-03-08T14:13:19.000Z</time>
      </trkpt>
      <trkpt lat="46.64808" lon="5.35086">
        <ele>196.19999694824</ele>
        <time>2021-03-08T14:13:20.000Z</time>
      </trkpt>
      <trkpt lat="46.64796" lon="5.35107">
        <ele>195.60000610352</ele>
        <time>2021-03-08T14:13:22.000Z</time>
      </trkpt>
      <trkpt lat="46.64784" lon="5.35128">
        <ele>195.19999694824</ele>
        <time>2021-03-08T14:13:24.000Z</time>
      </trkpt>
      <trkpt lat="46.64772" lon="5.35149">
        <ele>194.80000305176</ele>
        <time>2021-03-08T14:13:26.000Z</time>
      </trkpt>
      <trkpt lat="46.64766" lon="5.35159">
        <ele>194.60000610352</ele>
        <time>2021-03-08T14:13:27.000Z</time>
      </trkpt>
      <trkpt lat="46.64759" lon="5.3517">
        <ele>194.39999389648</ele>
        <time>2021-03-08T14:13:28.000Z</time>
      </trkpt>
      <trkpt lat="46.64753" lon="5.3518">
        <ele>194</ele>
        <time>2021-03-08T14:13:29.000Z</time>
      </trkpt>
      <trkpt lat="46.64747" lon="5.35191">
        <ele>193.80000305176</ele>
        <time>2021-03-08T14:13:30.000Z</time>
      </trkpt>
      <trkpt lat="46.64735" lon="5.35211">
        <ele>193.39999389648</ele>
        <time>2021-03-08T14:13:32.000Z</time>
      </trkpt>
      <trkpt lat="46.64723" lon="5.35231">
        <ele>193.19999694824</ele>
        <time>2021-03-08T14:13:34.000Z</time>
      </trkpt>
      <trkpt lat="46.64711" lon="5.35253">
        <ele>193</ele>
        <time>2021-03-08T14:13:36.000Z</time>
      </trkpt>
      <trkpt lat="46.64699" lon="5.35273">
        <ele>192.80000305176</ele>
        <time>2021-03-08T14:13:38.000Z</time>
      </trkpt>
      <trkpt lat="46.64687" lon="5.35293">
        <ele>192.60000610352</ele>
        <time>2021-03-08T14:13:40.000Z</time>
      </trkpt>
      <trkpt lat="46.64676" lon="5.35313">
        <ele>192.39999389648</ele>
        <time>2021-03-08T14:13:42.000Z</time>
      </trkpt>
      <trkpt lat="46.6467" lon="5.35324">
        <ele>192.39999389648</ele>
        <time>2021-03-08T14:13:43.000Z</time>
      </trkpt>
      <trkpt lat="46.64664" lon="5.35334">
        <ele>192.39999389648</ele>
        <time>2021-03-08T14:13:44.000Z</time>
      </trkpt>
      <trkpt lat="46.64652" lon="5.35354">
        <ele>192.19999694824</ele>
        <time>2021-03-08T14:13:46.000Z</time>
      </trkpt>
      <trkpt lat="46.64641" lon="5.35375">
        <ele>192.19999694824</ele>
        <time>2021-03-08T14:13:48.000Z</time>
      </trkpt>
      <trkpt lat="46.64629" lon="5.35395">
        <ele>192.19999694824</ele>
        <time>2021-03-08T14:13:50.000Z</time>
      </trkpt>
      <trkpt lat="46.64618" lon="5.35416">
        <ele>192.19999694824</ele>
        <time>2021-03-08T14:13:52.000Z</time>
      </trkpt>
      <trkpt lat="46.64612" lon="5.35426">
        <ele>192.39999389648</ele>
        <time>2021-03-08T14:13:53.000Z</time>
      </trkpt>
      <trkpt lat="46.64606" lon="5.35436">
        <ele>192.39999389648</ele>
        <time>2021-03-08T14:13:54.000Z</time>
      </trkpt>
      <trkpt lat="46.64593" lon="5.35455">
        <ele>192.39999389648</ele>
        <time>2021-03-08T14:13:56.000Z</time>
      </trkpt>
      <trkpt lat="46.64582" lon="5.35475">
        <ele>192.39999389648</ele>
        <time>2021-03-08T14:13:58.000Z</time>
      </trkpt>
      <trkpt lat="46.64571" lon="5.35494">
        <ele>192.39999389648</ele>
        <time>2021-03-08T14:14:00.000Z</time>
      </trkpt>
      <trkpt lat="46.6456" lon="5.35513">
        <ele>192.60000610352</ele>
        <time>2021-03-08T14:14:02.000Z</time>
      </trkpt>
      <trkpt lat="46.64549" lon="5.35531">
        <ele>192.60000610352</ele>
        <time>2021-03-08T14:14:04.000Z</time>
      </trkpt>
      <trkpt lat="46.64539" lon="5.35548">
        <ele>192.60000610352</ele>
        <time>2021-03-08T14:14:06.000Z</time>
      </trkpt>
      <trkpt lat="46.64529" lon="5.35564">
        <ele>192.80000305176</ele>
        <time>2021-03-08T14:14:08.000Z</time>
      </trkpt>
      <trkpt lat="46.64525" lon="5.35572">
        <ele>193.19999694824</ele>
        <time>2021-03-08T14:14:09.000Z</time>
      </trkpt>
      <trkpt lat="46.6452" lon="5.3558">
        <ele>193.39999389648</ele>
        <time>2021-03-08T14:14:10.000Z</time>
      </trkpt>
      <trkpt lat="46.64515" lon="5.35588">
        <ele>193.60000610352</ele>
        <time>2021-03-08T14:14:11.000Z</time>
      </trkpt>
      <trkpt lat="46.64511" lon="5.35596">
        <ele>193.60000610352</ele>
        <time>2021-03-08T14:14:12.000Z</time>
      </trkpt>
      <trkpt lat="46.64502" lon="5.3561">
        <ele>194.39999389648</ele>
        <time>2021-03-08T14:14:14.000Z</time>
      </trkpt>
      <trkpt lat="46.64498" lon="5.35617">
        <ele>194.80000305176</ele>
        <time>2021-03-08T14:14:15.000Z</time>
      </trkpt>
      <trkpt lat="46.64494" lon="5.35624">
        <ele>195.19999694824</ele>
        <time>2021-03-08T14:14:16.000Z</time>
      </trkpt>
      <trkpt lat="46.6449" lon="5.35631">
        <ele>195.60000610352</ele>
        <time>2021-03-08T14:14:17.000Z</time>
      </trkpt>
      <trkpt lat="46.64486" lon="5.35637">
        <ele>195.80000305176</ele>
        <time>2021-03-08T14:14:18.000Z</time>
      </trkpt>
      <trkpt lat="46.64482" lon="5.35644">
        <ele>196</ele>
        <time>2021-03-08T14:14:19.000Z</time>
      </trkpt>
      <trkpt lat="46.64478" lon="5.35651">
        <ele>196.60000610352</ele>
        <time>2021-03-08T14:14:20.000Z</time>
      </trkpt>
      <trkpt lat="46.64474" lon="5.35657">
        <ele>197.19999694824</ele>
        <time>2021-03-08T14:14:21.000Z</time>
      </trkpt>
      <trkpt lat="46.64471" lon="5.35664">
        <ele>197.39999389648</ele>
        <time>2021-03-08T14:14:22.000Z</time>
      </trkpt>
      <trkpt lat="46.64463" lon="5.35677">
        <ele>197.80000305176</ele>
        <time>2021-03-08T14:14:24.000Z</time>
      </trkpt>
      <trkpt lat="46.64459" lon="5.35683">
        <ele>198.39999389648</ele>
        <time>2021-03-08T14:14:25.000Z</time>
      </trkpt>
      <trkpt lat="46.64455" lon="5.3569">
        <ele>198.60000610352</ele>
        <time>2021-03-08T14:14:26.000Z</time>
      </trkpt>
      <trkpt lat="46.64448" lon="5.35703">
        <ele>199.39999389648</ele>
        <time>2021-03-08T14:14:28.000Z</time>
      </trkpt>
      <trkpt lat="46.64444" lon="5.35709">
        <ele>199.60000610352</ele>
        <time>2021-03-08T14:14:29.000Z</time>
      </trkpt>
      <trkpt lat="46.6444" lon="5.35715">
        <ele>199.80000305176</ele>
        <time>2021-03-08T14:14:30.000Z</time>
      </trkpt>
      <trkpt lat="46.64433" lon="5.35726">
        <ele>200.39999389648</ele>
        <time>2021-03-08T14:14:32.000Z</time>
      </trkpt>
      <trkpt lat="46.64429" lon="5.35732">
        <ele>200.60000610352</ele>
        <time>2021-03-08T14:14:33.000Z</time>
      </trkpt>
      <trkpt lat="46.64426" lon="5.35738">
        <ele>201</ele>
        <time>2021-03-08T14:14:34.000Z</time>
      </trkpt>
      <trkpt lat="46.64419" lon="5.35749">
        <ele>201.39999389648</ele>
        <time>2021-03-08T14:14:36.000Z</time>
      </trkpt>
      <trkpt lat="46.64412" lon="5.35761">
        <ele>202</ele>
        <time>2021-03-08T14:14:38.000Z</time>
      </trkpt>
      <trkpt lat="46.64406" lon="5.35773">
        <ele>202.60000610352</ele>
        <time>2021-03-08T14:14:40.000Z</time>
      </trkpt>
      <trkpt lat="46.64403" lon="5.3578">
        <ele>202.80000305176</ele>
        <time>2021-03-08T14:14:41.000Z</time>
      </trkpt>
      <trkpt lat="46.64401" lon="5.35788">
        <ele>203.19999694824</ele>
        <time>2021-03-08T14:14:42.000Z</time>
      </trkpt>
      <trkpt lat="46.64397" lon="5.35803">
        <ele>203.60000610352</ele>
        <time>2021-03-08T14:14:44.000Z</time>
      </trkpt>
      <trkpt lat="46.64395" lon="5.35811">
        <ele>203.80000305176</ele>
        <time>2021-03-08T14:14:45.000Z</time>
      </trkpt>
      <trkpt lat="46.64394" lon="5.35819">
        <ele>204</ele>
        <time>2021-03-08T14:14:46.000Z</time>
      </trkpt>
      <trkpt lat="46.64392" lon="5.35837">
        <ele>204.19999694824</ele>
        <time>2021-03-08T14:14:48.000Z</time>
      </trkpt>
      <trkpt lat="46.6439" lon="5.35857">
        <ele>204.19999694824</ele>
        <time>2021-03-08T14:14:50.000Z</time>
      </trkpt>
      <trkpt lat="46.64387" lon="5.35878">
        <ele>204.19999694824</ele>
        <time>2021-03-08T14:14:52.000Z</time>
      </trkpt>
      <trkpt lat="46.64385" lon="5.359">
        <ele>204.19999694824</ele>
        <time>2021-03-08T14:14:54.000Z</time>
      </trkpt>
      <trkpt lat="46.64383" lon="5.35922">
        <ele>204.19999694824</ele>
        <time>2021-03-08T14:14:56.000Z</time>
      </trkpt>
      <trkpt lat="46.6438" lon="5.35946">
        <ele>203.60000610352</ele>
        <time>2021-03-08T14:14:58.000Z</time>
      </trkpt>
      <trkpt lat="46.64379" lon="5.35959">
        <ele>203.39999389648</ele>
        <time>2021-03-08T14:14:59.000Z</time>
      </trkpt>
      <trkpt lat="46.64377" lon="5.35972">
        <ele>203</ele>
        <time>2021-03-08T14:15:00.000Z</time>
      </trkpt>
      <trkpt lat="46.64374" lon="5.35999">
        <ele>202.39999389648</ele>
        <time>2021-03-08T14:15:02.000Z</time>
      </trkpt>
      <trkpt lat="46.64372" lon="5.36012">
        <ele>202</ele>
        <time>2021-03-08T14:15:03.000Z</time>
      </trkpt>
      <trkpt lat="46.64371" lon="5.36026">
        <ele>201.60000610352</ele>
        <time>2021-03-08T14:15:04.000Z</time>
      </trkpt>
      <trkpt lat="46.64367" lon="5.36054">
        <ele>200.39999389648</ele>
        <time>2021-03-08T14:15:06.000Z</time>
      </trkpt>
      <trkpt lat="46.64364" lon="5.36082">
        <ele>199.60000610352</ele>
        <time>2021-03-08T14:15:08.000Z</time>
      </trkpt>
      <trkpt lat="46.64362" lon="5.36096">
        <ele>199</ele>
        <time>2021-03-08T14:15:09.000Z</time>
      </trkpt>
      <trkpt lat="46.64361" lon="5.36109">
        <ele>198.39999389648</ele>
        <time>2021-03-08T14:15:10.000Z</time>
      </trkpt>
      <trkpt lat="46.64358" lon="5.36135">
        <ele>197.60000610352</ele>
        <time>2021-03-08T14:15:12.000Z</time>
      </trkpt>
      <trkpt lat="46.64354" lon="5.36161">
        <ele>196.80000305176</ele>
        <time>2021-03-08T14:15:14.000Z</time>
      </trkpt>
      <trkpt lat="46.64351" lon="5.36186">
        <ele>196.60000610352</ele>
        <time>2021-03-08T14:15:16.000Z</time>
      </trkpt>
      <trkpt lat="46.64348" lon="5.3621">
        <ele>196.19999694824</ele>
        <time>2021-03-08T14:15:18.000Z</time>
      </trkpt>
      <trkpt lat="46.64345" lon="5.36234">
        <ele>196</ele>
        <time>2021-03-08T14:15:20.000Z</time>
      </trkpt>
      <trkpt lat="46.64342" lon="5.36257">
        <ele>196</ele>
        <time>2021-03-08T14:15:22.000Z</time>
      </trkpt>
      <trkpt lat="46.6434" lon="5.36279">
        <ele>196</ele>
        <time>2021-03-08T14:15:24.000Z</time>
      </trkpt>
      <trkpt lat="46.64337" lon="5.363">
        <ele>196</ele>
        <time>2021-03-08T14:15:26.000Z</time>
      </trkpt>
      <trkpt lat="46.64335" lon="5.3631">
        <ele>196</ele>
        <time>2021-03-08T14:15:27.000Z</time>
      </trkpt>
      <trkpt lat="46.64334" lon="5.3632">
        <ele>196</ele>
        <time>2021-03-08T14:15:28.000Z</time>
      </trkpt>
      <trkpt lat="46.64331" lon="5.3634">
        <ele>196.19999694824</ele>
        <time>2021-03-08T14:15:30.000Z</time>
      </trkpt>
      <trkpt lat="46.64328" lon="5.3636">
        <ele>196.39999389648</ele>
        <time>2021-03-08T14:15:32.000Z</time>
      </trkpt>
      <trkpt lat="46.64326" lon="5.36379">
        <ele>197</ele>
        <time>2021-03-08T14:15:34.000Z</time>
      </trkpt>
      <trkpt lat="46.64323" lon="5.36396">
        <ele>197.39999389648</ele>
        <time>2021-03-08T14:15:36.000Z</time>
      </trkpt>
      <trkpt lat="46.64321" lon="5.36413">
        <ele>197.60000610352</ele>
        <time>2021-03-08T14:15:38.000Z</time>
      </trkpt>
      <trkpt lat="46.64319" lon="5.36429">
        <ele>197.80000305176</ele>
        <time>2021-03-08T14:15:40.000Z</time>
      </trkpt>
      <trkpt lat="46.64317" lon="5.36445">
        <ele>198.19999694824</ele>
        <time>2021-03-08T14:15:42.000Z</time>
      </trkpt>
      <trkpt lat="46.64316" lon="5.36453">
        <ele>198.60000610352</ele>
        <time>2021-03-08T14:15:43.000Z</time>
      </trkpt>
      <trkpt lat="46.64315" lon="5.36461">
        <ele>199</ele>
        <time>2021-03-08T14:15:44.000Z</time>
      </trkpt>
      <trkpt lat="46.64313" lon="5.36476">
        <ele>199.60000610352</ele>
        <time>2021-03-08T14:15:46.000Z</time>
      </trkpt>
      <trkpt lat="46.64312" lon="5.36484">
        <ele>199.80000305176</ele>
        <time>2021-03-08T14:15:47.000Z</time>
      </trkpt>
      <trkpt lat="46.6431" lon="5.36491">
        <ele>200</ele>
        <time>2021-03-08T14:15:48.000Z</time>
      </trkpt>
      <trkpt lat="46.64308" lon="5.36506">
        <ele>200.60000610352</ele>
        <time>2021-03-08T14:15:50.000Z</time>
      </trkpt>
      <trkpt lat="46.64307" lon="5.36513">
        <ele>201</ele>
        <time>2021-03-08T14:15:51.000Z</time>
      </trkpt>
      <trkpt lat="46.64307" lon="5.3652">
        <ele>201.19999694824</ele>
        <time>2021-03-08T14:15:52.000Z</time>
      </trkpt>
      <trkpt lat="46.64305" lon="5.36535">
        <ele>202</ele>
        <time>2021-03-08T14:15:54.000Z</time>
      </trkpt>
      <trkpt lat="46.64305" lon="5.36551">
        <ele>202.60000610352</ele>
        <time>2021-03-08T14:15:56.000Z</time>
      </trkpt>
      <trkpt lat="46.64304" lon="5.36566">
        <ele>203.19999694824</ele>
        <time>2021-03-08T14:15:58.000Z</time>
      </trkpt>
      <trkpt lat="46.64304" lon="5.36582">
        <ele>203.80000305176</ele>
        <time>2021-03-08T14:16:00.000Z</time>
      </trkpt>
      <trkpt lat="46.64304" lon="5.36599">
        <ele>204</ele>
        <time>2021-03-08T14:16:02.000Z</time>
      </trkpt>
      <trkpt lat="46.64305" lon="5.36616">
        <ele>204.39999389648</ele>
        <time>2021-03-08T14:16:04.000Z</time>
      </trkpt>
      <trkpt lat="46.64305" lon="5.36634">
        <ele>204.60000610352</ele>
        <time>2021-03-08T14:16:06.000Z</time>
      </trkpt>
      <trkpt lat="46.64306" lon="5.36653">
        <ele>204.60000610352</ele>
        <time>2021-03-08T14:16:08.000Z</time>
      </trkpt>
      <trkpt lat="46.64306" lon="5.36674">
        <ele>204.60000610352</ele>
        <time>2021-03-08T14:16:10.000Z</time>
      </trkpt>
      <trkpt lat="46.64307" lon="5.36696">
        <ele>204.60000610352</ele>
        <time>2021-03-08T14:16:12.000Z</time>
      </trkpt>
      <trkpt lat="46.64307" lon="5.36719">
        <ele>204.60000610352</ele>
        <time>2021-03-08T14:16:14.000Z</time>
      </trkpt>
      <trkpt lat="46.64307" lon="5.36742">
        <ele>204.39999389648</ele>
        <time>2021-03-08T14:16:16.000Z</time>
      </trkpt>
      <trkpt lat="46.64308" lon="5.36765">
        <ele>203.80000305176</ele>
        <time>2021-03-08T14:16:18.000Z</time>
      </trkpt>
      <trkpt lat="46.64308" lon="5.36776">
        <ele>203</ele>
        <time>2021-03-08T14:16:19.000Z</time>
      </trkpt>
      <trkpt lat="46.64308" lon="5.36787">
        <ele>202.39999389648</ele>
        <time>2021-03-08T14:16:20.000Z</time>
      </trkpt>
      <trkpt lat="46.64308" lon="5.36798">
        <ele>202</ele>
        <time>2021-03-08T14:16:21.000Z</time>
      </trkpt>
      <trkpt lat="46.64308" lon="5.36809">
        <ele>201.60000610352</ele>
        <time>2021-03-08T14:16:22.000Z</time>
      </trkpt>
      <trkpt lat="46.64308" lon="5.36831">
        <ele>201.39999389648</ele>
        <time>2021-03-08T14:16:24.000Z</time>
      </trkpt>
      <trkpt lat="46.64309" lon="5.36852">
        <ele>201.60000610352</ele>
        <time>2021-03-08T14:16:26.000Z</time>
      </trkpt>
      <trkpt lat="46.64309" lon="5.36862">
        <ele>201.39999389648</ele>
        <time>2021-03-08T14:16:27.000Z</time>
      </trkpt>
      <trkpt lat="46.64309" lon="5.36871">
        <ele>201.60000610352</ele>
        <time>2021-03-08T14:16:28.000Z</time>
      </trkpt>
      <trkpt lat="46.64309" lon="5.3689">
        <ele>201.39999389648</ele>
        <time>2021-03-08T14:16:30.000Z</time>
      </trkpt>
      <trkpt lat="46.64309" lon="5.36906">
        <ele>201.60000610352</ele>
        <time>2021-03-08T14:16:32.000Z</time>
      </trkpt>
      <trkpt lat="46.64309" lon="5.36922">
        <ele>201.80000305176</ele>
        <time>2021-03-08T14:16:34.000Z</time>
      </trkpt>
      <trkpt lat="46.64309" lon="5.36937">
        <ele>201.80000305176</ele>
        <time>2021-03-08T14:16:36.000Z</time>
      </trkpt>
      <trkpt lat="46.64309" lon="5.36952">
        <ele>202.39999389648</ele>
        <time>2021-03-08T14:16:38.000Z</time>
      </trkpt>
      <trkpt lat="46.64309" lon="5.36966">
        <ele>203.19999694824</ele>
        <time>2021-03-08T14:16:40.000Z</time>
      </trkpt>
      <trkpt lat="46.64309" lon="5.36973">
        <ele>203.60000610352</ele>
        <time>2021-03-08T14:16:41.000Z</time>
      </trkpt>
      <trkpt lat="46.64309" lon="5.3698">
        <ele>203.80000305176</ele>
        <time>2021-03-08T14:16:42.000Z</time>
      </trkpt>
      <trkpt lat="46.6431" lon="5.36987">
        <ele>204.19999694824</ele>
        <time>2021-03-08T14:16:43.000Z</time>
      </trkpt>
      <trkpt lat="46.6431" lon="5.36994">
        <ele>204.39999389648</ele>
        <time>2021-03-08T14:16:44.000Z</time>
      </trkpt>
      <trkpt lat="46.6431" lon="5.37">
        <ele>204.80000305176</ele>
        <time>2021-03-08T14:16:45.000Z</time>
      </trkpt>
      <trkpt lat="46.6431" lon="5.37007">
        <ele>205</ele>
        <time>2021-03-08T14:16:46.000Z</time>
      </trkpt>
      <trkpt lat="46.6431" lon="5.37021">
        <ele>205.60000610352</ele>
        <time>2021-03-08T14:16:48.000Z</time>
      </trkpt>
      <trkpt lat="46.6431" lon="5.37028">
        <ele>205.80000305176</ele>
        <time>2021-03-08T14:16:49.000Z</time>
      </trkpt>
      <trkpt lat="46.6431" lon="5.37035">
        <ele>206</ele>
        <time>2021-03-08T14:16:50.000Z</time>
      </trkpt>
      <trkpt lat="46.64311" lon="5.37049">
        <ele>206.80000305176</ele>
        <time>2021-03-08T14:16:52.000Z</time>
      </trkpt>
      <trkpt lat="46.64311" lon="5.37056">
        <ele>207</ele>
        <time>2021-03-08T14:16:53.000Z</time>
      </trkpt>
      <trkpt lat="46.64311" lon="5.37064">
        <ele>207.39999389648</ele>
        <time>2021-03-08T14:16:54.000Z</time>
      </trkpt>
      <trkpt lat="46.64311" lon="5.3708">
        <ele>208</ele>
        <time>2021-03-08T14:16:56.000Z</time>
      </trkpt>
      <trkpt lat="46.64311" lon="5.37096">
        <ele>208.19999694824</ele>
        <time>2021-03-08T14:16:58.000Z</time>
      </trkpt>
      <trkpt lat="46.64312" lon="5.37114">
        <ele>208.19999694824</ele>
        <time>2021-03-08T14:17:00.000Z</time>
      </trkpt>
      <trkpt lat="46.64312" lon="5.37132">
        <ele>208.19999694824</ele>
        <time>2021-03-08T14:17:02.000Z</time>
      </trkpt>
      <trkpt lat="46.64313" lon="5.3715">
        <ele>208.19999694824</ele>
        <time>2021-03-08T14:17:04.000Z</time>
      </trkpt>
      <trkpt lat="46.64313" lon="5.3717">
        <ele>208.19999694824</ele>
        <time>2021-03-08T14:17:06.000Z</time>
      </trkpt>
      <trkpt lat="46.64313" lon="5.3719">
        <ele>208</ele>
        <time>2021-03-08T14:17:08.000Z</time>
      </trkpt>
      <trkpt lat="46.64313" lon="5.37199">
        <ele>208</ele>
        <time>2021-03-08T14:17:09.000Z</time>
      </trkpt>
      <trkpt lat="46.64314" lon="5.37209">
        <ele>207.80000305176</ele>
        <time>2021-03-08T14:17:10.000Z</time>
      </trkpt>
      <trkpt lat="46.64314" lon="5.37229">
        <ele>207.60000610352</ele>
        <time>2021-03-08T14:17:12.000Z</time>
      </trkpt>
      <trkpt lat="46.64314" lon="5.37248">
        <ele>207.39999389648</ele>
        <time>2021-03-08T14:17:14.000Z</time>
      </trkpt>
      <trkpt lat="46.64315" lon="5.37267">
        <ele>207.19999694824</ele>
        <time>2021-03-08T14:17:16.000Z</time>
      </trkpt>
      <trkpt lat="46.64315" lon="5.37277">
        <ele>207.19999694824</ele>
        <time>2021-03-08T14:17:17.000Z</time>
      </trkpt>
      <trkpt lat="46.64315" lon="5.37287">
        <ele>207</ele>
        <time>2021-03-08T14:17:18.000Z</time>
      </trkpt>
      <trkpt lat="46.64315" lon="5.37307">
        <ele>206.39999389648</ele>
        <time>2021-03-08T14:17:20.000Z</time>
      </trkpt>
      <trkpt lat="46.64316" lon="5.37327">
        <ele>206.19999694824</ele>
        <time>2021-03-08T14:17:22.000Z</time>
      </trkpt>
      <trkpt lat="46.64316" lon="5.37338">
        <ele>206</ele>
        <time>2021-03-08T14:17:23.000Z</time>
      </trkpt>
      <trkpt lat="46.64316" lon="5.37348">
        <ele>205.60000610352</ele>
        <time>2021-03-08T14:17:24.000Z</time>
      </trkpt>
      <trkpt lat="46.64317" lon="5.37369">
        <ele>205.39999389648</ele>
        <time>2021-03-08T14:17:26.000Z</time>
      </trkpt>
      <trkpt lat="46.64317" lon="5.37391">
        <ele>205.19999694824</ele>
        <time>2021-03-08T14:17:28.000Z</time>
      </trkpt>
      <trkpt lat="46.64317" lon="5.37413">
        <ele>204.80000305176</ele>
        <time>2021-03-08T14:17:30.000Z</time>
      </trkpt>
      <trkpt lat="46.64317" lon="5.37436">
        <ele>204.19999694824</ele>
        <time>2021-03-08T14:17:32.000Z</time>
      </trkpt>
      <trkpt lat="46.64318" lon="5.37459">
        <ele>204</ele>
        <time>2021-03-08T14:17:34.000Z</time>
      </trkpt>
      <trkpt lat="46.64318" lon="5.37471">
        <ele>203.60000610352</ele>
        <time>2021-03-08T14:17:35.000Z</time>
      </trkpt>
      <trkpt lat="46.64318" lon="5.37482">
        <ele>203.19999694824</ele>
        <time>2021-03-08T14:17:36.000Z</time>
      </trkpt>
      <trkpt lat="46.64318" lon="5.37504">
        <ele>202.80000305176</ele>
        <time>2021-03-08T14:17:38.000Z</time>
      </trkpt>
      <trkpt lat="46.64319" lon="5.37525">
        <ele>202.80000305176</ele>
        <time>2021-03-08T14:17:40.000Z</time>
      </trkpt>
      <trkpt lat="46.64319" lon="5.37547">
        <ele>202.60000610352</ele>
        <time>2021-03-08T14:17:42.000Z</time>
      </trkpt>
      <trkpt lat="46.64319" lon="5.37568">
        <ele>202.60000610352</ele>
        <time>2021-03-08T14:17:44.000Z</time>
      </trkpt>
      <trkpt lat="46.6432" lon="5.37588">
        <ele>202.39999389648</ele>
        <time>2021-03-08T14:17:46.000Z</time>
      </trkpt>
      <trkpt lat="46.6432" lon="5.37607">
        <ele>202.60000610352</ele>
        <time>2021-03-08T14:17:48.000Z</time>
      </trkpt>
      <trkpt lat="46.6432" lon="5.37617">
        <ele>202.60000610352</ele>
        <time>2021-03-08T14:17:49.000Z</time>
      </trkpt>
      <trkpt lat="46.6432" lon="5.37626">
        <ele>202.60000610352</ele>
        <time>2021-03-08T14:17:50.000Z</time>
      </trkpt>
      <trkpt lat="46.64321" lon="5.37645">
        <ele>202.60000610352</ele>
        <time>2021-03-08T14:17:52.000Z</time>
      </trkpt>
      <trkpt lat="46.64321" lon="5.37663">
        <ele>202.80000305176</ele>
        <time>2021-03-08T14:17:54.000Z</time>
      </trkpt>
      <trkpt lat="46.64321" lon="5.37681">
        <ele>203</ele>
        <time>2021-03-08T14:17:56.000Z</time>
      </trkpt>
      <trkpt lat="46.64321" lon="5.37689">
        <ele>203.19999694824</ele>
        <time>2021-03-08T14:17:57.000Z</time>
      </trkpt>
      <trkpt lat="46.64321" lon="5.37698">
        <ele>203.39999389648</ele>
        <time>2021-03-08T14:17:58.000Z</time>
      </trkpt>
      <trkpt lat="46.64322" lon="5.37706">
        <ele>203.60000610352</ele>
        <time>2021-03-08T14:17:59.000Z</time>
      </trkpt>
      <trkpt lat="46.64322" lon="5.37715">
        <ele>203.80000305176</ele>
        <time>2021-03-08T14:18:00.000Z</time>
      </trkpt>
      <trkpt lat="46.64323" lon="5.37731">
        <ele>204.19999694824</ele>
        <time>2021-03-08T14:18:02.000Z</time>
      </trkpt>
      <trkpt lat="46.64323" lon="5.37748">
        <ele>204.60000610352</ele>
        <time>2021-03-08T14:18:04.000Z</time>
      </trkpt>
      <trkpt lat="46.64323" lon="5.37755">
        <ele>204.80000305176</ele>
        <time>2021-03-08T14:18:05.000Z</time>
      </trkpt>
      <trkpt lat="46.64324" lon="5.37763">
        <ele>204.80000305176</ele>
        <time>2021-03-08T14:18:06.000Z</time>
      </trkpt>
      <trkpt lat="46.64324" lon="5.37778">
        <ele>205.19999694824</ele>
        <time>2021-03-08T14:18:08.000Z</time>
      </trkpt>
      <trkpt lat="46.64323" lon="5.37793">
        <ele>205.60000610352</ele>
        <time>2021-03-08T14:18:10.000Z</time>
      </trkpt>
      <trkpt lat="46.64323" lon="5.378">
        <ele>205.60000610352</ele>
        <time>2021-03-08T14:18:11.000Z</time>
      </trkpt>
      <trkpt lat="46.64323" lon="5.37807">
        <ele>206</ele>
        <time>2021-03-08T14:18:12.000Z</time>
      </trkpt>
      <trkpt lat="46.64323" lon="5.37815">
        <ele>206.39999389648</ele>
        <time>2021-03-08T14:18:13.000Z</time>
      </trkpt>
      <trkpt lat="46.64324" lon="5.37822">
        <ele>206.60000610352</ele>
        <time>2021-03-08T14:18:14.000Z</time>
      </trkpt>
      <trkpt lat="46.64324" lon="5.3783">
        <ele>206.80000305176</ele>
        <time>2021-03-08T14:18:15.000Z</time>
      </trkpt>
      <trkpt lat="46.64324" lon="5.37838">
        <ele>207</ele>
        <time>2021-03-08T14:18:16.000Z</time>
      </trkpt>
      <trkpt lat="46.64324" lon="5.37855">
        <ele>207.60000610352</ele>
        <time>2021-03-08T14:18:18.000Z</time>
      </trkpt>
      <trkpt lat="46.64324" lon="5.37873">
        <ele>207.80000305176</ele>
        <time>2021-03-08T14:18:20.000Z</time>
      </trkpt>
      <trkpt lat="46.64325" lon="5.37882">
        <ele>207.80000305176</ele>
        <time>2021-03-08T14:18:21.000Z</time>
      </trkpt>
      <trkpt lat="46.64325" lon="5.37891">
        <ele>207.80000305176</ele>
        <time>2021-03-08T14:18:22.000Z</time>
      </trkpt>
      <trkpt lat="46.64325" lon="5.37909">
        <ele>207.80000305176</ele>
        <time>2021-03-08T14:18:24.000Z</time>
      </trkpt>
      <trkpt lat="46.64325" lon="5.37928">
        <ele>207.80000305176</ele>
        <time>2021-03-08T14:18:26.000Z</time>
      </trkpt>
      <trkpt lat="46.64326" lon="5.37946">
        <ele>207.80000305176</ele>
        <time>2021-03-08T14:18:28.000Z</time>
      </trkpt>
      <trkpt lat="46.64326" lon="5.37965">
        <ele>207.80000305176</ele>
        <time>2021-03-08T14:18:30.000Z</time>
      </trkpt>
      <trkpt lat="46.64326" lon="5.37974">
        <ele>208</ele>
        <time>2021-03-08T14:18:31.000Z</time>
      </trkpt>
      <trkpt lat="46.64326" lon="5.37983">
        <ele>207.80000305176</ele>
        <time>2021-03-08T14:18:32.000Z</time>
      </trkpt>
      <trkpt lat="46.64327" lon="5.38001">
        <ele>207.80000305176</ele>
        <time>2021-03-08T14:18:34.000Z</time>
      </trkpt>
      <trkpt lat="46.64327" lon="5.38018">
        <ele>207.80000305176</ele>
        <time>2021-03-08T14:18:36.000Z</time>
      </trkpt>
      <trkpt lat="46.64327" lon="5.38036">
        <ele>208</ele>
        <time>2021-03-08T14:18:38.000Z</time>
      </trkpt>
      <trkpt lat="46.64328" lon="5.38054">
        <ele>208</ele>
        <time>2021-03-08T14:18:40.000Z</time>
      </trkpt>
      <trkpt lat="46.64328" lon="5.38072">
        <ele>208</ele>
        <time>2021-03-08T14:18:42.000Z</time>
      </trkpt>
      <trkpt lat="46.64329" lon="5.38089">
        <ele>208.19999694824</ele>
        <time>2021-03-08T14:18:44.000Z</time>
      </trkpt>
      <trkpt lat="46.64329" lon="5.38106">
        <ele>208.19999694824</ele>
        <time>2021-03-08T14:18:46.000Z</time>
      </trkpt>
      <trkpt lat="46.64329" lon="5.38123">
        <ele>208.39999389648</ele>
        <time>2021-03-08T14:18:48.000Z</time>
      </trkpt>
      <trkpt lat="46.64329" lon="5.3814">
        <ele>208.39999389648</ele>
        <time>2021-03-08T14:18:50.000Z</time>
      </trkpt>
      <trkpt lat="46.6433" lon="5.38156">
        <ele>208.60000610352</ele>
        <time>2021-03-08T14:18:52.000Z</time>
      </trkpt>
      <trkpt lat="46.6433" lon="5.38173">
        <ele>209</ele>
        <time>2021-03-08T14:18:54.000Z</time>
      </trkpt>
      <trkpt lat="46.6433" lon="5.38188">
        <ele>209.19999694824</ele>
        <time>2021-03-08T14:18:56.000Z</time>
      </trkpt>
      <trkpt lat="46.6433" lon="5.38203">
        <ele>209.39999389648</ele>
        <time>2021-03-08T14:18:58.000Z</time>
      </trkpt>
      <trkpt lat="46.6433" lon="5.38211">
        <ele>209.39999389648</ele>
        <time>2021-03-08T14:18:59.000Z</time>
      </trkpt>
      <trkpt lat="46.6433" lon="5.38218">
        <ele>209.80000305176</ele>
        <time>2021-03-08T14:19:00.000Z</time>
      </trkpt>
      <trkpt lat="46.64331" lon="5.38233">
        <ele>209.80000305176</ele>
        <time>2021-03-08T14:19:02.000Z</time>
      </trkpt>
      <trkpt lat="46.64331" lon="5.3824">
        <ele>210</ele>
        <time>2021-03-08T14:19:03.000Z</time>
      </trkpt>
      <trkpt lat="46.64331" lon="5.38247">
        <ele>210.19999694824</ele>
        <time>2021-03-08T14:19:04.000Z</time>
      </trkpt>
      <trkpt lat="46.64331" lon="5.38261">
        <ele>210.39999389648</ele>
        <time>2021-03-08T14:19:06.000Z</time>
      </trkpt>
      <trkpt lat="46.64331" lon="5.38275">
        <ele>210.80000305176</ele>
        <time>2021-03-08T14:19:08.000Z</time>
      </trkpt>
      <trkpt lat="46.64331" lon="5.38282">
        <ele>211.19999694824</ele>
        <time>2021-03-08T14:19:09.000Z</time>
      </trkpt>
      <trkpt lat="46.64331" lon="5.38289">
        <ele>211.39999389648</ele>
        <time>2021-03-08T14:19:10.000Z</time>
      </trkpt>
      <trkpt lat="46.64331" lon="5.38304">
        <ele>211.80000305176</ele>
        <time>2021-03-08T14:19:12.000Z</time>
      </trkpt>
      <trkpt lat="46.64331" lon="5.38319">
        <ele>212.60000610352</ele>
        <time>2021-03-08T14:19:14.000Z</time>
      </trkpt>
      <trkpt lat="46.64331" lon="5.38333">
        <ele>214.19999694824</ele>
        <time>2021-03-08T14:19:16.000Z</time>
      </trkpt>
      <trkpt lat="46.64331" lon="5.38349">
        <ele>214.60000610352</ele>
        <time>2021-03-08T14:19:18.000Z</time>
      </trkpt>
      <trkpt lat="46.64331" lon="5.38364">
        <ele>214.80000305176</ele>
        <time>2021-03-08T14:19:20.000Z</time>
      </trkpt>
      <trkpt lat="46.64329" lon="5.38379">
        <ele>215</ele>
        <time>2021-03-08T14:19:22.000Z</time>
      </trkpt>
      <trkpt lat="46.64329" lon="5.38396">
        <ele>215</ele>
        <time>2021-03-08T14:19:24.000Z</time>
      </trkpt>
      <trkpt lat="46.64328" lon="5.38405">
        <ele>215</ele>
        <time>2021-03-08T14:19:25.000Z</time>
      </trkpt>
      <trkpt lat="46.64328" lon="5.38414">
        <ele>215</ele>
        <time>2021-03-08T14:19:26.000Z</time>
      </trkpt>
      <trkpt lat="46.64327" lon="5.38433">
        <ele>215</ele>
        <time>2021-03-08T14:19:28.000Z</time>
      </trkpt>
      <trkpt lat="46.64327" lon="5.38454">
        <ele>215</ele>
        <time>2021-03-08T14:19:30.000Z</time>
      </trkpt>
      <trkpt lat="46.64328" lon="5.38477">
        <ele>214.80000305176</ele>
        <time>2021-03-08T14:19:32.000Z</time>
      </trkpt>
      <trkpt lat="46.64329" lon="5.38501">
        <ele>214.80000305176</ele>
        <time>2021-03-08T14:19:34.000Z</time>
      </trkpt>
      <trkpt lat="46.64331" lon="5.38526">
        <ele>214.19999694824</ele>
        <time>2021-03-08T14:19:36.000Z</time>
      </trkpt>
      <trkpt lat="46.64332" lon="5.38552">
        <ele>213</ele>
        <time>2021-03-08T14:19:38.000Z</time>
      </trkpt>
      <trkpt lat="46.64333" lon="5.38578">
        <ele>211.60000610352</ele>
        <time>2021-03-08T14:19:40.000Z</time>
      </trkpt>
      <trkpt lat="46.64333" lon="5.38604">
        <ele>210.60000610352</ele>
        <time>2021-03-08T14:19:42.000Z</time>
      </trkpt>
      <trkpt lat="46.64334" lon="5.38617">
        <ele>210</ele>
        <time>2021-03-08T14:19:43.000Z</time>
      </trkpt>
      <trkpt lat="46.64335" lon="5.3863">
        <ele>209</ele>
        <time>2021-03-08T14:19:44.000Z</time>
      </trkpt>
      <trkpt lat="46.64336" lon="5.38643">
        <ele>208.80000305176</ele>
        <time>2021-03-08T14:19:45.000Z</time>
      </trkpt>
      <trkpt lat="46.64337" lon="5.38655">
        <ele>208.60000610352</ele>
        <time>2021-03-08T14:19:46.000Z</time>
      </trkpt>
      <trkpt lat="46.64343" lon="5.3868">
        <ele>207.19999694824</ele>
        <time>2021-03-08T14:19:48.000Z</time>
      </trkpt>
      <trkpt lat="46.64345" lon="5.38692">
        <ele>206</ele>
        <time>2021-03-08T14:19:49.000Z</time>
      </trkpt>
      <trkpt lat="46.64348" lon="5.38705">
        <ele>205.60000610352</ele>
        <time>2021-03-08T14:19:50.000Z</time>
      </trkpt>
      <trkpt lat="46.64354" lon="5.38731">
        <ele>205</ele>
        <time>2021-03-08T14:19:52.000Z</time>
      </trkpt>
      <trkpt lat="46.64356" lon="5.38744">
        <ele>204.80000305176</ele>
        <time>2021-03-08T14:19:53.000Z</time>
      </trkpt>
      <trkpt lat="46.64356" lon="5.38757">
        <ele>204.39999389648</ele>
        <time>2021-03-08T14:19:54.000Z</time>
      </trkpt>
      <trkpt lat="46.64355" lon="5.3877">
        <ele>204</ele>
        <time>2021-03-08T14:19:55.000Z</time>
      </trkpt>
      <trkpt lat="46.64352" lon="5.38783">
        <ele>203.39999389648</ele>
        <time>2021-03-08T14:19:56.000Z</time>
      </trkpt>
      <trkpt lat="46.64347" lon="5.38794">
        <ele>203.19999694824</ele>
        <time>2021-03-08T14:19:57.000Z</time>
      </trkpt>
      <trkpt lat="46.64342" lon="5.38804">
        <ele>202.60000610352</ele>
        <time>2021-03-08T14:19:58.000Z</time>
      </trkpt>
      <trkpt lat="46.64337" lon="5.38814">
        <ele>202.39999389648</ele>
        <time>2021-03-08T14:19:59.000Z</time>
      </trkpt>
      <trkpt lat="46.64331" lon="5.38823">
        <ele>202</ele>
        <time>2021-03-08T14:20:00.000Z</time>
      </trkpt>
      <trkpt lat="46.64326" lon="5.38832">
        <ele>201.60000610352</ele>
        <time>2021-03-08T14:20:01.000Z</time>
      </trkpt>
      <trkpt lat="46.64321" lon="5.38842">
        <ele>201.19999694824</ele>
        <time>2021-03-08T14:20:02.000Z</time>
      </trkpt>
      <trkpt lat="46.64312" lon="5.38862">
        <ele>200.80000305176</ele>
        <time>2021-03-08T14:20:04.000Z</time>
      </trkpt>
      <trkpt lat="46.64304" lon="5.38882">
        <ele>200.60000610352</ele>
        <time>2021-03-08T14:20:06.000Z</time>
      </trkpt>
      <trkpt lat="46.64296" lon="5.38901">
        <ele>200.60000610352</ele>
        <time>2021-03-08T14:20:08.000Z</time>
      </trkpt>
      <trkpt lat="46.64288" lon="5.3892">
        <ele>200.60000610352</ele>
        <time>2021-03-08T14:20:10.000Z</time>
      </trkpt>
      <trkpt lat="46.6428" lon="5.38938">
        <ele>200.60000610352</ele>
        <time>2021-03-08T14:20:12.000Z</time>
      </trkpt>
      <trkpt lat="46.64273" lon="5.38957">
        <ele>200.80000305176</ele>
        <time>2021-03-08T14:20:14.000Z</time>
      </trkpt>
      <trkpt lat="46.64266" lon="5.38977">
        <ele>201</ele>
        <time>2021-03-08T14:20:16.000Z</time>
      </trkpt>
      <trkpt lat="46.64264" lon="5.38986">
        <ele>201.19999694824</ele>
        <time>2021-03-08T14:20:17.000Z</time>
      </trkpt>
      <trkpt lat="46.64262" lon="5.38996">
        <ele>201.39999389648</ele>
        <time>2021-03-08T14:20:18.000Z</time>
      </trkpt>
      <trkpt lat="46.64258" lon="5.39016">
        <ele>201.60000610352</ele>
        <time>2021-03-08T14:20:20.000Z</time>
      </trkpt>
      <trkpt lat="46.64254" lon="5.39035">
        <ele>201.80000305176</ele>
        <time>2021-03-08T14:20:22.000Z</time>
      </trkpt>
      <trkpt lat="46.64252" lon="5.39044">
        <ele>201.80000305176</ele>
        <time>2021-03-08T14:20:23.000Z</time>
      </trkpt>
      <trkpt lat="46.6425" lon="5.39054">
        <ele>202</ele>
        <time>2021-03-08T14:20:24.000Z</time>
      </trkpt>
      <trkpt lat="46.64246" lon="5.39071">
        <ele>202.19999694824</ele>
        <time>2021-03-08T14:20:26.000Z</time>
      </trkpt>
      <trkpt lat="46.64242" lon="5.39088">
        <ele>202.39999389648</ele>
        <time>2021-03-08T14:20:28.000Z</time>
      </trkpt>
      <trkpt lat="46.6424" lon="5.39096">
        <ele>202.39999389648</ele>
        <time>2021-03-08T14:20:29.000Z</time>
      </trkpt>
      <trkpt lat="46.64239" lon="5.39104">
        <ele>202.60000610352</ele>
        <time>2021-03-08T14:20:30.000Z</time>
      </trkpt>
      <trkpt lat="46.64235" lon="5.3912">
        <ele>203</ele>
        <time>2021-03-08T14:20:32.000Z</time>
      </trkpt>
      <trkpt lat="46.64232" lon="5.39136">
        <ele>203.80000305176</ele>
        <time>2021-03-08T14:20:34.000Z</time>
      </trkpt>
      <trkpt lat="46.64228" lon="5.39151">
        <ele>204.39999389648</ele>
        <time>2021-03-08T14:20:36.000Z</time>
      </trkpt>
      <trkpt lat="46.64226" lon="5.39158">
        <ele>204.60000610352</ele>
        <time>2021-03-08T14:20:37.000Z</time>
      </trkpt>
      <trkpt lat="46.64225" lon="5.39166">
        <ele>205</ele>
        <time>2021-03-08T14:20:38.000Z</time>
      </trkpt>
      <trkpt lat="46.64221" lon="5.3918">
        <ele>205.80000305176</ele>
        <time>2021-03-08T14:20:40.000Z</time>
      </trkpt>
      <trkpt lat="46.64218" lon="5.39194">
        <ele>206.39999389648</ele>
        <time>2021-03-08T14:20:42.000Z</time>
      </trkpt>
      <trkpt lat="46.64214" lon="5.39207">
        <ele>206.80000305176</ele>
        <time>2021-03-08T14:20:44.000Z</time>
      </trkpt>
      <trkpt lat="46.6421" lon="5.39221">
        <ele>207.19999694824</ele>
        <time>2021-03-08T14:20:46.000Z</time>
      </trkpt>
      <trkpt lat="46.64208" lon="5.39227">
        <ele>207.39999389648</ele>
        <time>2021-03-08T14:20:47.000Z</time>
      </trkpt>
      <trkpt lat="46.64206" lon="5.39233">
        <ele>207.60000610352</ele>
        <time>2021-03-08T14:20:48.000Z</time>
      </trkpt>
      <trkpt lat="46.64202" lon="5.39245">
        <ele>208</ele>
        <time>2021-03-08T14:20:50.000Z</time>
      </trkpt>
      <trkpt lat="46.64199" lon="5.39256">
        <ele>208.39999389648</ele>
        <time>2021-03-08T14:20:52.000Z</time>
      </trkpt>
      <trkpt lat="46.64197" lon="5.39262">
        <ele>208.60000610352</ele>
        <time>2021-03-08T14:20:53.000Z</time>
      </trkpt>
      <trkpt lat="46.64196" lon="5.39268">
        <ele>208.80000305176</ele>
        <time>2021-03-08T14:20:54.000Z</time>
      </trkpt>
      <trkpt lat="46.64192" lon="5.39282">
        <ele>209.39999389648</ele>
        <time>2021-03-08T14:20:56.000Z</time>
      </trkpt>
      <trkpt lat="46.64188" lon="5.39296">
        <ele>209.80000305176</ele>
        <time>2021-03-08T14:20:58.000Z</time>
      </trkpt>
      <trkpt lat="46.64186" lon="5.39303">
        <ele>209.80000305176</ele>
        <time>2021-03-08T14:20:59.000Z</time>
      </trkpt>
      <trkpt lat="46.64184" lon="5.39311">
        <ele>210</ele>
        <time>2021-03-08T14:21:00.000Z</time>
      </trkpt>
      <trkpt lat="46.6418" lon="5.39327">
        <ele>210.60000610352</ele>
        <time>2021-03-08T14:21:02.000Z</time>
      </trkpt>
      <trkpt lat="46.64178" lon="5.39336">
        <ele>210.80000305176</ele>
        <time>2021-03-08T14:21:03.000Z</time>
      </trkpt>
      <trkpt lat="46.64176" lon="5.39345">
        <ele>211</ele>
        <time>2021-03-08T14:21:04.000Z</time>
      </trkpt>
      <trkpt lat="46.64173" lon="5.39354">
        <ele>211</ele>
        <time>2021-03-08T14:21:05.000Z</time>
      </trkpt>
      <trkpt lat="46.64171" lon="5.39363">
        <ele>211.19999694824</ele>
        <time>2021-03-08T14:21:06.000Z</time>
      </trkpt>
      <trkpt lat="46.64166" lon="5.39383">
        <ele>211.19999694824</ele>
        <time>2021-03-08T14:21:08.000Z</time>
      </trkpt>
      <trkpt lat="46.64161" lon="5.39402">
        <ele>211.19999694824</ele>
        <time>2021-03-08T14:21:10.000Z</time>
      </trkpt>
      <trkpt lat="46.64159" lon="5.39412">
        <ele>211.19999694824</ele>
        <time>2021-03-08T14:21:11.000Z</time>
      </trkpt>
      <trkpt lat="46.64157" lon="5.39421">
        <ele>211.19999694824</ele>
        <time>2021-03-08T14:21:12.000Z</time>
      </trkpt>
      <trkpt lat="46.64152" lon="5.39442">
        <ele>211.19999694824</ele>
        <time>2021-03-08T14:21:14.000Z</time>
      </trkpt>
      <trkpt lat="46.64146" lon="5.39463">
        <ele>211</ele>
        <time>2021-03-08T14:21:16.000Z</time>
      </trkpt>
      <trkpt lat="46.64141" lon="5.39485">
        <ele>210.19999694824</ele>
        <time>2021-03-08T14:21:18.000Z</time>
      </trkpt>
      <trkpt lat="46.64135" lon="5.39506">
        <ele>209.80000305176</ele>
        <time>2021-03-08T14:21:20.000Z</time>
      </trkpt>
      <trkpt lat="46.6413" lon="5.39528">
        <ele>209.60000610352</ele>
        <time>2021-03-08T14:21:22.000Z</time>
      </trkpt>
      <trkpt lat="46.64124" lon="5.3955">
        <ele>209</ele>
        <time>2021-03-08T14:21:24.000Z</time>
      </trkpt>
      <trkpt lat="46.64121" lon="5.39561">
        <ele>209</ele>
        <time>2021-03-08T14:21:25.000Z</time>
      </trkpt>
      <trkpt lat="46.64119" lon="5.39572">
        <ele>208.80000305176</ele>
        <time>2021-03-08T14:21:26.000Z</time>
      </trkpt>
      <trkpt lat="46.64113" lon="5.39594">
        <ele>208.39999389648</ele>
        <time>2021-03-08T14:21:28.000Z</time>
      </trkpt>
      <trkpt lat="46.64107" lon="5.39614">
        <ele>208</ele>
        <time>2021-03-08T14:21:30.000Z</time>
      </trkpt>
      <trkpt lat="46.64102" lon="5.39633">
        <ele>207.80000305176</ele>
        <time>2021-03-08T14:21:32.000Z</time>
      </trkpt>
      <trkpt lat="46.64097" lon="5.39654">
        <ele>207.80000305176</ele>
        <time>2021-03-08T14:21:34.000Z</time>
      </trkpt>
      <trkpt lat="46.64092" lon="5.39673">
        <ele>207.60000610352</ele>
        <time>2021-03-08T14:21:36.000Z</time>
      </trkpt>
      <trkpt lat="46.64087" lon="5.39692">
        <ele>207.60000610352</ele>
        <time>2021-03-08T14:21:38.000Z</time>
      </trkpt>
      <trkpt lat="46.64081" lon="5.3971">
        <ele>207.60000610352</ele>
        <time>2021-03-08T14:21:40.000Z</time>
      </trkpt>
      <trkpt lat="46.64076" lon="5.39728">
        <ele>207.60000610352</ele>
        <time>2021-03-08T14:21:42.000Z</time>
      </trkpt>
      <trkpt lat="46.6407" lon="5.39746">
        <ele>207.80000305176</ele>
        <time>2021-03-08T14:21:44.000Z</time>
      </trkpt>
      <trkpt lat="46.64068" lon="5.39756">
        <ele>208</ele>
        <time>2021-03-08T14:21:45.000Z</time>
      </trkpt>
      <trkpt lat="46.64066" lon="5.39766">
        <ele>208</ele>
        <time>2021-03-08T14:21:46.000Z</time>
      </trkpt>
      <trkpt lat="46.6406" lon="5.39785">
        <ele>208.19999694824</ele>
        <time>2021-03-08T14:21:48.000Z</time>
      </trkpt>
      <trkpt lat="46.64056" lon="5.39804">
        <ele>208.39999389648</ele>
        <time>2021-03-08T14:21:50.000Z</time>
      </trkpt>
      <trkpt lat="46.64054" lon="5.39814">
        <ele>208.60000610352</ele>
        <time>2021-03-08T14:21:51.000Z</time>
      </trkpt>
      <trkpt lat="46.64052" lon="5.39825">
        <ele>208.60000610352</ele>
        <time>2021-03-08T14:21:52.000Z</time>
      </trkpt>
      <trkpt lat="46.64051" lon="5.39836">
        <ele>208.80000305176</ele>
        <time>2021-03-08T14:21:53.000Z</time>
      </trkpt>
      <trkpt lat="46.64049" lon="5.39844">
        <ele>208.80000305176</ele>
        <time>2021-03-08T14:21:54.000Z</time>
      </trkpt>
      <trkpt lat="46.64044" lon="5.39864">
        <ele>209</ele>
        <time>2021-03-08T14:21:56.000Z</time>
      </trkpt>
      <trkpt lat="46.64041" lon="5.39874">
        <ele>209.19999694824</ele>
        <time>2021-03-08T14:21:57.000Z</time>
      </trkpt>
      <trkpt lat="46.64039" lon="5.39884">
        <ele>209.19999694824</ele>
        <time>2021-03-08T14:21:58.000Z</time>
      </trkpt>
      <trkpt lat="46.64033" lon="5.39902">
        <ele>209.39999389648</ele>
        <time>2021-03-08T14:22:00.000Z</time>
      </trkpt>
      <trkpt lat="46.64029" lon="5.39919">
        <ele>209.80000305176</ele>
        <time>2021-03-08T14:22:02.000Z</time>
      </trkpt>
      <trkpt lat="46.64024" lon="5.39933">
        <ele>210</ele>
        <time>2021-03-08T14:22:04.000Z</time>
      </trkpt>
      <trkpt lat="46.64019" lon="5.39946">
        <ele>210.19999694824</ele>
        <time>2021-03-08T14:22:06.000Z</time>
      </trkpt>
      <trkpt lat="46.64015" lon="5.3996">
        <ele>210.80000305176</ele>
        <time>2021-03-08T14:22:08.000Z</time>
      </trkpt>
      <trkpt lat="46.64012" lon="5.39974">
        <ele>211.60000610352</ele>
        <time>2021-03-08T14:22:10.000Z</time>
      </trkpt>
      <trkpt lat="46.6401" lon="5.39979">
        <ele>211.80000305176</ele>
        <time>2021-03-08T14:22:11.000Z</time>
      </trkpt>
      <trkpt lat="46.64008" lon="5.39985">
        <ele>212</ele>
        <time>2021-03-08T14:22:12.000Z</time>
      </trkpt>
      <trkpt lat="46.64003" lon="5.39998">
        <ele>212.39999389648</ele>
        <time>2021-03-08T14:22:14.000Z</time>
      </trkpt>
      <trkpt lat="46.63999" lon="5.4001">
        <ele>213.19999694824</ele>
        <time>2021-03-08T14:22:16.000Z</time>
      </trkpt>
      <trkpt lat="46.63997" lon="5.40017">
        <ele>213.39999389648</ele>
        <time>2021-03-08T14:22:17.000Z</time>
      </trkpt>
      <trkpt lat="46.63996" lon="5.40024">
        <ele>214</ele>
        <time>2021-03-08T14:22:18.000Z</time>
      </trkpt>
      <trkpt lat="46.63994" lon="5.40031">
        <ele>214.19999694824</ele>
        <time>2021-03-08T14:22:19.000Z</time>
      </trkpt>
      <trkpt lat="46.63992" lon="5.4004">
        <ele>214.60000610352</ele>
        <time>2021-03-08T14:22:20.000Z</time>
      </trkpt>
      <trkpt lat="46.63988" lon="5.40057">
        <ele>215</ele>
        <time>2021-03-08T14:22:22.000Z</time>
      </trkpt>
      <trkpt lat="46.63987" lon="5.40066">
        <ele>215.19999694824</ele>
        <time>2021-03-08T14:22:23.000Z</time>
      </trkpt>
      <trkpt lat="46.63985" lon="5.40077">
        <ele>215.19999694824</ele>
        <time>2021-03-08T14:22:24.000Z</time>
      </trkpt>
      <trkpt lat="46.63981" lon="5.40097">
        <ele>215.19999694824</ele>
        <time>2021-03-08T14:22:26.000Z</time>
      </trkpt>
      <trkpt lat="46.63976" lon="5.40119">
        <ele>215.19999694824</ele>
        <time>2021-03-08T14:22:28.000Z</time>
      </trkpt>
      <trkpt lat="46.63971" lon="5.40141">
        <ele>215.19999694824</ele>
        <time>2021-03-08T14:22:30.000Z</time>
      </trkpt>
      <trkpt lat="46.63966" lon="5.40164">
        <ele>215.19999694824</ele>
        <time>2021-03-08T14:22:32.000Z</time>
      </trkpt>
      <trkpt lat="46.6396" lon="5.40188">
        <ele>215</ele>
        <time>2021-03-08T14:22:34.000Z</time>
      </trkpt>
      <trkpt lat="46.63954" lon="5.40212">
        <ele>214.39999389648</ele>
        <time>2021-03-08T14:22:36.000Z</time>
      </trkpt>
      <trkpt lat="46.63948" lon="5.40237">
        <ele>213.19999694824</ele>
        <time>2021-03-08T14:22:38.000Z</time>
      </trkpt>
      <trkpt lat="46.63943" lon="5.40262">
        <ele>212.39999389648</ele>
        <time>2021-03-08T14:22:40.000Z</time>
      </trkpt>
      <trkpt lat="46.6394" lon="5.40275">
        <ele>212.19999694824</ele>
        <time>2021-03-08T14:22:41.000Z</time>
      </trkpt>
      <trkpt lat="46.63937" lon="5.40287">
        <ele>211.80000305176</ele>
        <time>2021-03-08T14:22:42.000Z</time>
      </trkpt>
      <trkpt lat="46.63931" lon="5.40312">
        <ele>211</ele>
        <time>2021-03-08T14:22:44.000Z</time>
      </trkpt>
      <trkpt lat="46.63928" lon="5.40325">
        <ele>210.60000610352</ele>
        <time>2021-03-08T14:22:45.000Z</time>
      </trkpt>
      <trkpt lat="46.63925" lon="5.40337">
        <ele>210.19999694824</ele>
        <time>2021-03-08T14:22:46.000Z</time>
      </trkpt>
      <trkpt lat="46.63922" lon="5.40349">
        <ele>209.80000305176</ele>
        <time>2021-03-08T14:22:47.000Z</time>
      </trkpt>
      <trkpt lat="46.6392" lon="5.40361">
        <ele>209.39999389648</ele>
        <time>2021-03-08T14:22:48.000Z</time>
      </trkpt>
      <trkpt lat="46.63914" lon="5.40384">
        <ele>208.80000305176</ele>
        <time>2021-03-08T14:22:50.000Z</time>
      </trkpt>
      <trkpt lat="46.63909" lon="5.40408">
        <ele>208.39999389648</ele>
        <time>2021-03-08T14:22:52.000Z</time>
      </trkpt>
      <trkpt lat="46.63906" lon="5.40419">
        <ele>208.19999694824</ele>
        <time>2021-03-08T14:22:53.000Z</time>
      </trkpt>
      <trkpt lat="46.63903" lon="5.4043">
        <ele>208.19999694824</ele>
        <time>2021-03-08T14:22:54.000Z</time>
      </trkpt>
      <trkpt lat="46.63898" lon="5.40451">
        <ele>208.19999694824</ele>
        <time>2021-03-08T14:22:56.000Z</time>
      </trkpt>
      <trkpt lat="46.63893" lon="5.40474">
        <ele>208.19999694824</ele>
        <time>2021-03-08T14:22:58.000Z</time>
      </trkpt>
      <trkpt lat="46.63887" lon="5.40494">
        <ele>208.19999694824</ele>
        <time>2021-03-08T14:23:00.000Z</time>
      </trkpt>
      <trkpt lat="46.63885" lon="5.40504">
        <ele>208.19999694824</ele>
        <time>2021-03-08T14:23:01.000Z</time>
      </trkpt>
      <trkpt lat="46.63882" lon="5.40513">
        <ele>208.19999694824</ele>
        <time>2021-03-08T14:23:02.000Z</time>
      </trkpt>
      <trkpt lat="46.63876" lon="5.40533">
        <ele>208.19999694824</ele>
        <time>2021-03-08T14:23:04.000Z</time>
      </trkpt>
      <trkpt lat="46.6387" lon="5.40552">
        <ele>208.39999389648</ele>
        <time>2021-03-08T14:23:06.000Z</time>
      </trkpt>
      <trkpt lat="46.63863" lon="5.40572">
        <ele>208.60000610352</ele>
        <time>2021-03-08T14:23:08.000Z</time>
      </trkpt>
      <trkpt lat="46.63859" lon="5.40581">
        <ele>208.60000610352</ele>
        <time>2021-03-08T14:23:09.000Z</time>
      </trkpt>
      <trkpt lat="46.63856" lon="5.4059">
        <ele>208.60000610352</ele>
        <time>2021-03-08T14:23:10.000Z</time>
      </trkpt>
      <trkpt lat="46.63848" lon="5.40609">
        <ele>208.60000610352</ele>
        <time>2021-03-08T14:23:12.000Z</time>
      </trkpt>
      <trkpt lat="46.63841" lon="5.40628">
        <ele>208.80000305176</ele>
        <time>2021-03-08T14:23:14.000Z</time>
      </trkpt>
      <trkpt lat="46.63835" lon="5.40646">
        <ele>208.80000305176</ele>
        <time>2021-03-08T14:23:16.000Z</time>
      </trkpt>
      <trkpt lat="46.63829" lon="5.40664">
        <ele>208.80000305176</ele>
        <time>2021-03-08T14:23:18.000Z</time>
      </trkpt>
      <trkpt lat="46.63823" lon="5.40682">
        <ele>208.80000305176</ele>
        <time>2021-03-08T14:23:20.000Z</time>
      </trkpt>
      <trkpt lat="46.63818" lon="5.407">
        <ele>208.80000305176</ele>
        <time>2021-03-08T14:23:22.000Z</time>
      </trkpt>
      <trkpt lat="46.63816" lon="5.40709">
        <ele>209</ele>
        <time>2021-03-08T14:23:23.000Z</time>
      </trkpt>
      <trkpt lat="46.63814" lon="5.40718">
        <ele>209</ele>
        <time>2021-03-08T14:23:24.000Z</time>
      </trkpt>
      <trkpt lat="46.63809" lon="5.40735">
        <ele>209.39999389648</ele>
        <time>2021-03-08T14:23:26.000Z</time>
      </trkpt>
      <trkpt lat="46.63804" lon="5.40752">
        <ele>209.80000305176</ele>
        <time>2021-03-08T14:23:28.000Z</time>
      </trkpt>
      <trkpt lat="46.63798" lon="5.40769">
        <ele>210.19999694824</ele>
        <time>2021-03-08T14:23:30.000Z</time>
      </trkpt>
      <trkpt lat="46.63793" lon="5.40786">
        <ele>211</ele>
        <time>2021-03-08T14:23:32.000Z</time>
      </trkpt>
      <trkpt lat="46.63788" lon="5.40803">
        <ele>211.80000305176</ele>
        <time>2021-03-08T14:23:34.000Z</time>
      </trkpt>
      <trkpt lat="46.63785" lon="5.40812">
        <ele>212.19999694824</ele>
        <time>2021-03-08T14:23:35.000Z</time>
      </trkpt>
      <trkpt lat="46.63782" lon="5.40821">
        <ele>212.60000610352</ele>
        <time>2021-03-08T14:23:36.000Z</time>
      </trkpt>
      <trkpt lat="46.63776" lon="5.4084">
        <ele>213.39999389648</ele>
        <time>2021-03-08T14:23:38.000Z</time>
      </trkpt>
      <trkpt lat="46.63771" lon="5.40859">
        <ele>214</ele>
        <time>2021-03-08T14:23:40.000Z</time>
      </trkpt>
      <trkpt lat="46.63764" lon="5.40881">
        <ele>214.19999694824</ele>
        <time>2021-03-08T14:23:42.000Z</time>
      </trkpt>
      <trkpt lat="46.63757" lon="5.40904">
        <ele>214.19999694824</ele>
        <time>2021-03-08T14:23:44.000Z</time>
      </trkpt>
      <trkpt lat="46.63749" lon="5.40928">
        <ele>214.19999694824</ele>
        <time>2021-03-08T14:23:46.000Z</time>
      </trkpt>
      <trkpt lat="46.63741" lon="5.40953">
        <ele>214.19999694824</ele>
        <time>2021-03-08T14:23:48.000Z</time>
      </trkpt>
      <trkpt lat="46.63734" lon="5.40978">
        <ele>214.19999694824</ele>
        <time>2021-03-08T14:23:50.000Z</time>
      </trkpt>
      <trkpt lat="46.63727" lon="5.41003">
        <ele>213.60000610352</ele>
        <time>2021-03-08T14:23:52.000Z</time>
      </trkpt>
      <trkpt lat="46.6372" lon="5.41026">
        <ele>212.19999694824</ele>
        <time>2021-03-08T14:23:54.000Z</time>
      </trkpt>
      <trkpt lat="46.63713" lon="5.4105">
        <ele>211.39999389648</ele>
        <time>2021-03-08T14:23:56.000Z</time>
      </trkpt>
      <trkpt lat="46.63707" lon="5.41073">
        <ele>211.19999694824</ele>
        <time>2021-03-08T14:23:58.000Z</time>
      </trkpt>
      <trkpt lat="46.637" lon="5.41094">
        <ele>211</ele>
        <time>2021-03-08T14:24:00.000Z</time>
      </trkpt>
      <trkpt lat="46.63694" lon="5.41116">
        <ele>211</ele>
        <time>2021-03-08T14:24:02.000Z</time>
      </trkpt>
      <trkpt lat="46.63688" lon="5.41139">
        <ele>211</ele>
        <time>2021-03-08T14:24:04.000Z</time>
      </trkpt>
      <trkpt lat="46.63681" lon="5.41162">
        <ele>211</ele>
        <time>2021-03-08T14:24:06.000Z</time>
      </trkpt>
      <trkpt lat="46.63674" lon="5.41186">
        <ele>211</ele>
        <time>2021-03-08T14:24:08.000Z</time>
      </trkpt>
      <trkpt lat="46.6367" lon="5.41198">
        <ele>211</ele>
        <time>2021-03-08T14:24:09.000Z</time>
      </trkpt>
      <trkpt lat="46.63667" lon="5.4121">
        <ele>211</ele>
        <time>2021-03-08T14:24:10.000Z</time>
      </trkpt>
      <trkpt lat="46.63659" lon="5.41233">
        <ele>211</ele>
        <time>2021-03-08T14:24:12.000Z</time>
      </trkpt>
      <trkpt lat="46.63652" lon="5.41257">
        <ele>210.80000305176</ele>
        <time>2021-03-08T14:24:14.000Z</time>
      </trkpt>
      <trkpt lat="46.63644" lon="5.41281">
        <ele>210</ele>
        <time>2021-03-08T14:24:16.000Z</time>
      </trkpt>
      <trkpt lat="46.63637" lon="5.41304">
        <ele>209.19999694824</ele>
        <time>2021-03-08T14:24:18.000Z</time>
      </trkpt>
      <trkpt lat="46.63633" lon="5.41316">
        <ele>209</ele>
        <time>2021-03-08T14:24:19.000Z</time>
      </trkpt>
      <trkpt lat="46.6363" lon="5.41328">
        <ele>208.80000305176</ele>
        <time>2021-03-08T14:24:20.000Z</time>
      </trkpt>
      <trkpt lat="46.63622" lon="5.41351">
        <ele>208.39999389648</ele>
        <time>2021-03-08T14:24:22.000Z</time>
      </trkpt>
      <trkpt lat="46.63615" lon="5.41373">
        <ele>208.39999389648</ele>
        <time>2021-03-08T14:24:24.000Z</time>
      </trkpt>
      <trkpt lat="46.63609" lon="5.41395">
        <ele>208.39999389648</ele>
        <time>2021-03-08T14:24:26.000Z</time>
      </trkpt>
      <trkpt lat="46.63605" lon="5.41406">
        <ele>208.39999389648</ele>
        <time>2021-03-08T14:24:27.000Z</time>
      </trkpt>
      <trkpt lat="46.63602" lon="5.41416">
        <ele>208.39999389648</ele>
        <time>2021-03-08T14:24:28.000Z</time>
      </trkpt>
      <trkpt lat="46.63596" lon="5.41436">
        <ele>208.39999389648</ele>
        <time>2021-03-08T14:24:30.000Z</time>
      </trkpt>
      <trkpt lat="46.6359" lon="5.41455">
        <ele>208.39999389648</ele>
        <time>2021-03-08T14:24:32.000Z</time>
      </trkpt>
      <trkpt lat="46.63584" lon="5.41474">
        <ele>208.60000610352</ele>
        <time>2021-03-08T14:24:34.000Z</time>
      </trkpt>
      <trkpt lat="46.63581" lon="5.41484">
        <ele>208.80000305176</ele>
        <time>2021-03-08T14:24:35.000Z</time>
      </trkpt>
      <trkpt lat="46.63578" lon="5.41493">
        <ele>209.19999694824</ele>
        <time>2021-03-08T14:24:36.000Z</time>
      </trkpt>
      <trkpt lat="46.63572" lon="5.41511">
        <ele>210</ele>
        <time>2021-03-08T14:24:38.000Z</time>
      </trkpt>
      <trkpt lat="46.6357" lon="5.4152">
        <ele>210.19999694824</ele>
        <time>2021-03-08T14:24:39.000Z</time>
      </trkpt>
      <trkpt lat="46.63567" lon="5.41529">
        <ele>210.39999389648</ele>
        <time>2021-03-08T14:24:40.000Z</time>
      </trkpt>
      <trkpt lat="46.63561" lon="5.41546">
        <ele>210.60000610352</ele>
        <time>2021-03-08T14:24:42.000Z</time>
      </trkpt>
      <trkpt lat="46.63558" lon="5.41554">
        <ele>211</ele>
        <time>2021-03-08T14:24:43.000Z</time>
      </trkpt>
      <trkpt lat="46.63556" lon="5.41563">
        <ele>211</ele>
        <time>2021-03-08T14:24:44.000Z</time>
      </trkpt>
      <trkpt lat="46.6355" lon="5.41579">
        <ele>211.19999694824</ele>
        <time>2021-03-08T14:24:46.000Z</time>
      </trkpt>
      <trkpt lat="46.63545" lon="5.41596">
        <ele>211.60000610352</ele>
        <time>2021-03-08T14:24:48.000Z</time>
      </trkpt>
      <trkpt lat="46.6354" lon="5.41612">
        <ele>211.80000305176</ele>
        <time>2021-03-08T14:24:50.000Z</time>
      </trkpt>
      <trkpt lat="46.63535" lon="5.41628">
        <ele>212.60000610352</ele>
        <time>2021-03-08T14:24:52.000Z</time>
      </trkpt>
      <trkpt lat="46.6353" lon="5.41644">
        <ele>213.39999389648</ele>
        <time>2021-03-08T14:24:54.000Z</time>
      </trkpt>
      <trkpt lat="46.63525" lon="5.41659">
        <ele>213.80000305176</ele>
        <time>2021-03-08T14:24:56.000Z</time>
      </trkpt>
      <trkpt lat="46.6352" lon="5.41674">
        <ele>214.39999389648</ele>
        <time>2021-03-08T14:24:58.000Z</time>
      </trkpt>
      <trkpt lat="46.63515" lon="5.41688">
        <ele>214.80000305176</ele>
        <time>2021-03-08T14:25:00.000Z</time>
      </trkpt>
      <trkpt lat="46.63513" lon="5.41695">
        <ele>215</ele>
        <time>2021-03-08T14:25:01.000Z</time>
      </trkpt>
      <trkpt lat="46.63511" lon="5.41702">
        <ele>215.19999694824</ele>
        <time>2021-03-08T14:25:02.000Z</time>
      </trkpt>
      <trkpt lat="46.63507" lon="5.41717">
        <ele>215.60000610352</ele>
        <time>2021-03-08T14:25:04.000Z</time>
      </trkpt>
      <trkpt lat="46.63502" lon="5.41731">
        <ele>216.19999694824</ele>
        <time>2021-03-08T14:25:06.000Z</time>
      </trkpt>
      <trkpt lat="46.63498" lon="5.41745">
        <ele>216.80000305176</ele>
        <time>2021-03-08T14:25:08.000Z</time>
      </trkpt>
      <trkpt lat="46.63495" lon="5.41751">
        <ele>216.80000305176</ele>
        <time>2021-03-08T14:25:09.000Z</time>
      </trkpt>
      <trkpt lat="46.63493" lon="5.41757">
        <ele>217</ele>
        <time>2021-03-08T14:25:10.000Z</time>
      </trkpt>
      <trkpt lat="46.63491" lon="5.41764">
        <ele>217.39999389648</ele>
        <time>2021-03-08T14:25:11.000Z</time>
      </trkpt>
      <trkpt lat="46.63489" lon="5.41771">
        <ele>217.80000305176</ele>
        <time>2021-03-08T14:25:12.000Z</time>
      </trkpt>
      <trkpt lat="46.63485" lon="5.41784">
        <ele>218.19999694824</ele>
        <time>2021-03-08T14:25:14.000Z</time>
      </trkpt>
      <trkpt lat="46.6348" lon="5.41796">
        <ele>218.19999694824</ele>
        <time>2021-03-08T14:25:16.000Z</time>
      </trkpt>
      <trkpt lat="46.63478" lon="5.41803">
        <ele>218.39999389648</ele>
        <time>2021-03-08T14:25:17.000Z</time>
      </trkpt>
      <trkpt lat="46.63476" lon="5.4181">
        <ele>218.39999389648</ele>
        <time>2021-03-08T14:25:18.000Z</time>
      </trkpt>
      <trkpt lat="46.63474" lon="5.41817">
        <ele>218.39999389648</ele>
        <time>2021-03-08T14:25:19.000Z</time>
      </trkpt>
      <trkpt lat="46.63472" lon="5.41824">
        <ele>218.60000610352</ele>
        <time>2021-03-08T14:25:20.000Z</time>
      </trkpt>
      <trkpt lat="46.63467" lon="5.41839">
        <ele>218.60000610352</ele>
        <time>2021-03-08T14:25:22.000Z</time>
      </trkpt>
      <trkpt lat="46.63463" lon="5.41853">
        <ele>218.80000305176</ele>
        <time>2021-03-08T14:25:24.000Z</time>
      </trkpt>
      <trkpt lat="46.63458" lon="5.41868">
        <ele>219.19999694824</ele>
        <time>2021-03-08T14:25:26.000Z</time>
      </trkpt>
      <trkpt lat="46.63456" lon="5.41875">
        <ele>219.39999389648</ele>
        <time>2021-03-08T14:25:27.000Z</time>
      </trkpt>
      <trkpt lat="46.63454" lon="5.41882">
        <ele>219.60000610352</ele>
        <time>2021-03-08T14:25:28.000Z</time>
      </trkpt>
      <trkpt lat="46.63449" lon="5.41896">
        <ele>219.80000305176</ele>
        <time>2021-03-08T14:25:30.000Z</time>
      </trkpt>
      <trkpt lat="46.63448" lon="5.41903">
        <ele>220</ele>
        <time>2021-03-08T14:25:31.000Z</time>
      </trkpt>
      <trkpt lat="46.63445" lon="5.41909">
        <ele>220</ele>
        <time>2021-03-08T14:25:32.000Z</time>
      </trkpt>
      <trkpt lat="46.63441" lon="5.41921">
        <ele>220.19999694824</ele>
        <time>2021-03-08T14:25:34.000Z</time>
      </trkpt>
      <trkpt lat="46.63436" lon="5.41936">
        <ele>220.19999694824</ele>
        <time>2021-03-08T14:25:36.000Z</time>
      </trkpt>
      <trkpt lat="46.63434" lon="5.41942">
        <ele>220.19999694824</ele>
        <time>2021-03-08T14:25:37.000Z</time>
      </trkpt>
      <trkpt lat="46.6343" lon="5.41947">
        <ele>220.19999694824</ele>
        <time>2021-03-08T14:25:38.000Z</time>
      </trkpt>
      <trkpt lat="46.63425" lon="5.41949">
        <ele>220.19999694824</ele>
        <time>2021-03-08T14:25:39.000Z</time>
      </trkpt>
      <trkpt lat="46.6342" lon="5.41948">
        <ele>220.19999694824</ele>
        <time>2021-03-08T14:25:40.000Z</time>
      </trkpt>
      <trkpt lat="46.63408" lon="5.41941">
        <ele>220</ele>
        <time>2021-03-08T14:25:42.000Z</time>
      </trkpt>
      <trkpt lat="46.63402" lon="5.41936">
        <ele>220</ele>
        <time>2021-03-08T14:25:43.000Z</time>
      </trkpt>
      <trkpt lat="46.63396" lon="5.4193">
        <ele>220</ele>
        <time>2021-03-08T14:25:44.000Z</time>
      </trkpt>
      <trkpt lat="46.63382" lon="5.41919">
        <ele>219.80000305176</ele>
        <time>2021-03-08T14:25:46.000Z</time>
      </trkpt>
      <trkpt lat="46.63375" lon="5.41914">
        <ele>219.80000305176</ele>
        <time>2021-03-08T14:25:47.000Z</time>
      </trkpt>
      <trkpt lat="46.63369" lon="5.41907">
        <ele>219.39999389648</ele>
        <time>2021-03-08T14:25:48.000Z</time>
      </trkpt>
      <trkpt lat="46.63355" lon="5.41893">
        <ele>219</ele>
        <time>2021-03-08T14:25:50.000Z</time>
      </trkpt>
      <trkpt lat="46.63344" lon="5.41875">
        <ele>218.80000305176</ele>
        <time>2021-03-08T14:25:52.000Z</time>
      </trkpt>
      <trkpt lat="46.63332" lon="5.41858">
        <ele>218.39999389648</ele>
        <time>2021-03-08T14:25:54.000Z</time>
      </trkpt>
      <trkpt lat="46.63321" lon="5.41842">
        <ele>217.80000305176</ele>
        <time>2021-03-08T14:25:56.000Z</time>
      </trkpt>
      <trkpt lat="46.6331" lon="5.41826">
        <ele>217.60000610352</ele>
        <time>2021-03-08T14:25:58.000Z</time>
      </trkpt>
      <trkpt lat="46.63299" lon="5.4181">
        <ele>217.39999389648</ele>
        <time>2021-03-08T14:26:00.000Z</time>
      </trkpt>
      <trkpt lat="46.63288" lon="5.41795">
        <ele>217.39999389648</ele>
        <time>2021-03-08T14:26:02.000Z</time>
      </trkpt>
      <trkpt lat="46.63283" lon="5.41788">
        <ele>217.39999389648</ele>
        <time>2021-03-08T14:26:03.000Z</time>
      </trkpt>
      <trkpt lat="46.63279" lon="5.4178">
        <ele>217.39999389648</ele>
        <time>2021-03-08T14:26:04.000Z</time>
      </trkpt>
      <trkpt lat="46.63269" lon="5.41765">
        <ele>217.60000610352</ele>
        <time>2021-03-08T14:26:06.000Z</time>
      </trkpt>
      <trkpt lat="46.63258" lon="5.41751">
        <ele>217.60000610352</ele>
        <time>2021-03-08T14:26:08.000Z</time>
      </trkpt>
      <trkpt lat="46.63246" lon="5.41738">
        <ele>217.80000305176</ele>
        <time>2021-03-08T14:26:10.000Z</time>
      </trkpt>
      <trkpt lat="46.63235" lon="5.41723">
        <ele>218.39999389648</ele>
        <time>2021-03-08T14:26:12.000Z</time>
      </trkpt>
      <trkpt lat="46.6323" lon="5.41714">
        <ele>218.39999389648</ele>
        <time>2021-03-08T14:26:13.000Z</time>
      </trkpt>
      <trkpt lat="46.63224" lon="5.41705">
        <ele>218.60000610352</ele>
        <time>2021-03-08T14:26:14.000Z</time>
      </trkpt>
      <trkpt lat="46.63214" lon="5.41686">
        <ele>218.60000610352</ele>
        <time>2021-03-08T14:26:16.000Z</time>
      </trkpt>
      <trkpt lat="46.63205" lon="5.41666">
        <ele>218.60000610352</ele>
        <time>2021-03-08T14:26:18.000Z</time>
      </trkpt>
      <trkpt lat="46.63201" lon="5.41656">
        <ele>218.60000610352</ele>
        <time>2021-03-08T14:26:19.000Z</time>
      </trkpt>
      <trkpt lat="46.63197" lon="5.41646">
        <ele>218.60000610352</ele>
        <time>2021-03-08T14:26:20.000Z</time>
      </trkpt>
      <trkpt lat="46.63188" lon="5.41627">
        <ele>218.19999694824</ele>
        <time>2021-03-08T14:26:22.000Z</time>
      </trkpt>
      <trkpt lat="46.6318" lon="5.41608">
        <ele>217.80000305176</ele>
        <time>2021-03-08T14:26:24.000Z</time>
      </trkpt>
      <trkpt lat="46.63171" lon="5.41589">
        <ele>217.19999694824</ele>
        <time>2021-03-08T14:26:26.000Z</time>
      </trkpt>
      <trkpt lat="46.63162" lon="5.41571">
        <ele>217</ele>
        <time>2021-03-08T14:26:28.000Z</time>
      </trkpt>
      <trkpt lat="46.63154" lon="5.41553">
        <ele>216.80000305176</ele>
        <time>2021-03-08T14:26:30.000Z</time>
      </trkpt>
      <trkpt lat="46.63145" lon="5.41535">
        <ele>216.80000305176</ele>
        <time>2021-03-08T14:26:32.000Z</time>
      </trkpt>
      <trkpt lat="46.63137" lon="5.41516">
        <ele>216.80000305176</ele>
        <time>2021-03-08T14:26:34.000Z</time>
      </trkpt>
      <trkpt lat="46.63129" lon="5.41498">
        <ele>216.80000305176</ele>
        <time>2021-03-08T14:26:36.000Z</time>
      </trkpt>
      <trkpt lat="46.63125" lon="5.41489">
        <ele>216.80000305176</ele>
        <time>2021-03-08T14:26:37.000Z</time>
      </trkpt>
      <trkpt lat="46.63121" lon="5.41481">
        <ele>217</ele>
        <time>2021-03-08T14:26:38.000Z</time>
      </trkpt>
      <trkpt lat="46.63111" lon="5.41465">
        <ele>217</ele>
        <time>2021-03-08T14:26:40.000Z</time>
      </trkpt>
      <trkpt lat="46.63101" lon="5.4145">
        <ele>217</ele>
        <time>2021-03-08T14:26:42.000Z</time>
      </trkpt>
      <trkpt lat="46.63091" lon="5.41436">
        <ele>217</ele>
        <time>2021-03-08T14:26:44.000Z</time>
      </trkpt>
      <trkpt lat="46.6308" lon="5.41421">
        <ele>217.19999694824</ele>
        <time>2021-03-08T14:26:46.000Z</time>
      </trkpt>
      <trkpt lat="46.63069" lon="5.41407">
        <ele>217.39999389648</ele>
        <time>2021-03-08T14:26:48.000Z</time>
      </trkpt>
      <trkpt lat="46.63057" lon="5.41393">
        <ele>217.60000610352</ele>
        <time>2021-03-08T14:26:50.000Z</time>
      </trkpt>
      <trkpt lat="46.63051" lon="5.41386">
        <ele>217.60000610352</ele>
        <time>2021-03-08T14:26:51.000Z</time>
      </trkpt>
      <trkpt lat="46.63045" lon="5.41379">
        <ele>217.60000610352</ele>
        <time>2021-03-08T14:26:52.000Z</time>
      </trkpt>
      <trkpt lat="46.63033" lon="5.41366">
        <ele>217.60000610352</ele>
        <time>2021-03-08T14:26:54.000Z</time>
      </trkpt>
      <trkpt lat="46.63018" lon="5.41356">
        <ele>217.60000610352</ele>
        <time>2021-03-08T14:26:56.000Z</time>
      </trkpt>
      <trkpt lat="46.63009" lon="5.41352">
        <ele>217.60000610352</ele>
        <time>2021-03-08T14:26:57.000Z</time>
      </trkpt>
      <trkpt lat="46.63001" lon="5.41348">
        <ele>217.60000610352</ele>
        <time>2021-03-08T14:26:58.000Z</time>
      </trkpt>
      <trkpt lat="46.62983" lon="5.41341">
        <ele>217.60000610352</ele>
        <time>2021-03-08T14:27:00.000Z</time>
      </trkpt>
      <trkpt lat="46.62964" lon="5.41333">
        <ele>217</ele>
        <time>2021-03-08T14:27:02.000Z</time>
      </trkpt>
      <trkpt lat="46.62944" lon="5.41325">
        <ele>216.80000305176</ele>
        <time>2021-03-08T14:27:04.000Z</time>
      </trkpt>
      <trkpt lat="46.62924" lon="5.41317">
        <ele>216</ele>
        <time>2021-03-08T14:27:06.000Z</time>
      </trkpt>
      <trkpt lat="46.62904" lon="5.41309">
        <ele>214.60000610352</ele>
        <time>2021-03-08T14:27:08.000Z</time>
      </trkpt>
      <trkpt lat="46.62884" lon="5.41301">
        <ele>213</ele>
        <time>2021-03-08T14:27:10.000Z</time>
      </trkpt>
      <trkpt lat="46.62863" lon="5.41292">
        <ele>211.39999389648</ele>
        <time>2021-03-08T14:27:12.000Z</time>
      </trkpt>
      <trkpt lat="46.62843" lon="5.41283">
        <ele>210</ele>
        <time>2021-03-08T14:27:14.000Z</time>
      </trkpt>
      <trkpt lat="46.62821" lon="5.41274">
        <ele>209.19999694824</ele>
        <time>2021-03-08T14:27:16.000Z</time>
      </trkpt>
      <trkpt lat="46.62811" lon="5.4127">
        <ele>208.80000305176</ele>
        <time>2021-03-08T14:27:17.000Z</time>
      </trkpt>
      <trkpt lat="46.628" lon="5.41265">
        <ele>208.19999694824</ele>
        <time>2021-03-08T14:27:18.000Z</time>
      </trkpt>
      <trkpt lat="46.62779" lon="5.41256">
        <ele>207.60000610352</ele>
        <time>2021-03-08T14:27:20.000Z</time>
      </trkpt>
      <trkpt lat="46.62758" lon="5.41247">
        <ele>206.60000610352</ele>
        <time>2021-03-08T14:27:22.000Z</time>
      </trkpt>
      <trkpt lat="46.62738" lon="5.41238">
        <ele>205.39999389648</ele>
        <time>2021-03-08T14:27:24.000Z</time>
      </trkpt>
      <trkpt lat="46.62717" lon="5.4123">
        <ele>204.60000610352</ele>
        <time>2021-03-08T14:27:26.000Z</time>
      </trkpt>
      <trkpt lat="46.62707" lon="5.41225">
        <ele>204</ele>
        <time>2021-03-08T14:27:27.000Z</time>
      </trkpt>
      <trkpt lat="46.62697" lon="5.41221">
        <ele>203.80000305176</ele>
        <time>2021-03-08T14:27:28.000Z</time>
      </trkpt>
      <trkpt lat="46.62676" lon="5.41212">
        <ele>202.80000305176</ele>
        <time>2021-03-08T14:27:30.000Z</time>
      </trkpt>
      <trkpt lat="46.62656" lon="5.41203">
        <ele>202.39999389648</ele>
        <time>2021-03-08T14:27:32.000Z</time>
      </trkpt>
      <trkpt lat="46.62636" lon="5.41195">
        <ele>202.19999694824</ele>
        <time>2021-03-08T14:27:34.000Z</time>
      </trkpt>
      <trkpt lat="46.62626" lon="5.41191">
        <ele>201.80000305176</ele>
        <time>2021-03-08T14:27:35.000Z</time>
      </trkpt>
      <trkpt lat="46.62616" lon="5.41186">
        <ele>201.60000610352</ele>
        <time>2021-03-08T14:27:36.000Z</time>
      </trkpt>
      <trkpt lat="46.62597" lon="5.41178">
        <ele>201.19999694824</ele>
        <time>2021-03-08T14:27:38.000Z</time>
      </trkpt>
      <trkpt lat="46.62577" lon="5.41169">
        <ele>200.60000610352</ele>
        <time>2021-03-08T14:27:40.000Z</time>
      </trkpt>
      <trkpt lat="46.62557" lon="5.41161">
        <ele>200.19999694824</ele>
        <time>2021-03-08T14:27:42.000Z</time>
      </trkpt>
      <trkpt lat="46.62537" lon="5.41153">
        <ele>200</ele>
        <time>2021-03-08T14:27:44.000Z</time>
      </trkpt>
      <trkpt lat="46.62517" lon="5.41144">
        <ele>199.60000610352</ele>
        <time>2021-03-08T14:27:46.000Z</time>
      </trkpt>
      <trkpt lat="46.62507" lon="5.41139">
        <ele>199.39999389648</ele>
        <time>2021-03-08T14:27:47.000Z</time>
      </trkpt>
      <trkpt lat="46.62498" lon="5.41132">
        <ele>199.39999389648</ele>
        <time>2021-03-08T14:27:48.000Z</time>
      </trkpt>
      <trkpt lat="46.6248" lon="5.41116">
        <ele>199.19999694824</ele>
        <time>2021-03-08T14:27:50.000Z</time>
      </trkpt>
      <trkpt lat="46.62465" lon="5.41095">
        <ele>198.60000610352</ele>
        <time>2021-03-08T14:27:52.000Z</time>
      </trkpt>
      <trkpt lat="46.62458" lon="5.41083">
        <ele>198.39999389648</ele>
        <time>2021-03-08T14:27:53.000Z</time>
      </trkpt>
      <trkpt lat="46.62453" lon="5.41071">
        <ele>198</ele>
        <time>2021-03-08T14:27:54.000Z</time>
      </trkpt>
      <trkpt lat="46.62447" lon="5.41058">
        <ele>197.80000305176</ele>
        <time>2021-03-08T14:27:55.000Z</time>
      </trkpt>
      <trkpt lat="46.62443" lon="5.41046">
        <ele>197.60000610352</ele>
        <time>2021-03-08T14:27:56.000Z</time>
      </trkpt>
      <trkpt lat="46.62433" lon="5.4102">
        <ele>197.39999389648</ele>
        <time>2021-03-08T14:27:58.000Z</time>
      </trkpt>
      <trkpt lat="46.62424" lon="5.40996">
        <ele>196.60000610352</ele>
        <time>2021-03-08T14:28:00.000Z</time>
      </trkpt>
      <trkpt lat="46.62414" lon="5.40972">
        <ele>196.19999694824</ele>
        <time>2021-03-08T14:28:02.000Z</time>
      </trkpt>
      <trkpt lat="46.62405" lon="5.4095">
        <ele>196</ele>
        <time>2021-03-08T14:28:04.000Z</time>
      </trkpt>
      <trkpt lat="46.62399" lon="5.40939">
        <ele>196</ele>
        <time>2021-03-08T14:28:05.000Z</time>
      </trkpt>
      <trkpt lat="46.62393" lon="5.4093">
        <ele>196</ele>
        <time>2021-03-08T14:28:06.000Z</time>
      </trkpt>
      <trkpt lat="46.62379" lon="5.40914">
        <ele>195.80000305176</ele>
        <time>2021-03-08T14:28:08.000Z</time>
      </trkpt>
      <trkpt lat="46.62364" lon="5.409">
        <ele>195.80000305176</ele>
        <time>2021-03-08T14:28:10.000Z</time>
      </trkpt>
      <trkpt lat="46.6235" lon="5.40887">
        <ele>195.80000305176</ele>
        <time>2021-03-08T14:28:12.000Z</time>
      </trkpt>
      <trkpt lat="46.62336" lon="5.40872">
        <ele>195.80000305176</ele>
        <time>2021-03-08T14:28:14.000Z</time>
      </trkpt>
      <trkpt lat="46.62329" lon="5.40864">
        <ele>195.80000305176</ele>
        <time>2021-03-08T14:28:15.000Z</time>
      </trkpt>
      <trkpt lat="46.62324" lon="5.40855">
        <ele>195.80000305176</ele>
        <time>2021-03-08T14:28:16.000Z</time>
      </trkpt>
      <trkpt lat="46.62314" lon="5.40837">
        <ele>195.80000305176</ele>
        <time>2021-03-08T14:28:18.000Z</time>
      </trkpt>
      <trkpt lat="46.62308" lon="5.40828">
        <ele>195.80000305176</ele>
        <time>2021-03-08T14:28:19.000Z</time>
      </trkpt>
      <trkpt lat="46.62303" lon="5.4082">
        <ele>196</ele>
        <time>2021-03-08T14:28:20.000Z</time>
      </trkpt>
      <trkpt lat="46.62291" lon="5.40805">
        <ele>195.80000305176</ele>
        <time>2021-03-08T14:28:22.000Z</time>
      </trkpt>
      <trkpt lat="46.62279" lon="5.40791">
        <ele>195.80000305176</ele>
        <time>2021-03-08T14:28:24.000Z</time>
      </trkpt>
      <trkpt lat="46.62273" lon="5.40784">
        <ele>195.60000610352</ele>
        <time>2021-03-08T14:28:25.000Z</time>
      </trkpt>
      <trkpt lat="46.62267" lon="5.40778">
        <ele>195.60000610352</ele>
        <time>2021-03-08T14:28:26.000Z</time>
      </trkpt>
      <trkpt lat="46.62254" lon="5.40765">
        <ele>195.60000610352</ele>
        <time>2021-03-08T14:28:28.000Z</time>
      </trkpt>
      <trkpt lat="46.62241" lon="5.40752">
        <ele>195.80000305176</ele>
        <time>2021-03-08T14:28:30.000Z</time>
      </trkpt>
      <trkpt lat="46.62228" lon="5.4074">
        <ele>195.80000305176</ele>
        <time>2021-03-08T14:28:32.000Z</time>
      </trkpt>
      <trkpt lat="46.62216" lon="5.40727">
        <ele>195.80000305176</ele>
        <time>2021-03-08T14:28:34.000Z</time>
      </trkpt>
      <trkpt lat="46.62209" lon="5.40721">
        <ele>195.80000305176</ele>
        <time>2021-03-08T14:28:35.000Z</time>
      </trkpt>
      <trkpt lat="46.62203" lon="5.40715">
        <ele>196</ele>
        <time>2021-03-08T14:28:36.000Z</time>
      </trkpt>
      <trkpt lat="46.6219" lon="5.40703">
        <ele>196</ele>
        <time>2021-03-08T14:28:38.000Z</time>
      </trkpt>
      <trkpt lat="46.62178" lon="5.40688">
        <ele>196</ele>
        <time>2021-03-08T14:28:40.000Z</time>
      </trkpt>
      <trkpt lat="46.62172" lon="5.4068">
        <ele>196</ele>
        <time>2021-03-08T14:28:41.000Z</time>
      </trkpt>
      <trkpt lat="46.62167" lon="5.40672">
        <ele>196</ele>
        <time>2021-03-08T14:28:42.000Z</time>
      </trkpt>
      <trkpt lat="46.62159" lon="5.40652">
        <ele>196</ele>
        <time>2021-03-08T14:28:44.000Z</time>
      </trkpt>
      <trkpt lat="46.62156" lon="5.40642">
        <ele>196</ele>
        <time>2021-03-08T14:28:45.000Z</time>
      </trkpt>
      <trkpt lat="46.62153" lon="5.40632">
        <ele>196</ele>
        <time>2021-03-08T14:28:46.000Z</time>
      </trkpt>
      <trkpt lat="46.62148" lon="5.40611">
        <ele>196</ele>
        <time>2021-03-08T14:28:48.000Z</time>
      </trkpt>
      <trkpt lat="46.62143" lon="5.40591">
        <ele>195.80000305176</ele>
        <time>2021-03-08T14:28:50.000Z</time>
      </trkpt>
      <trkpt lat="46.62137" lon="5.40571">
        <ele>195.60000610352</ele>
        <time>2021-03-08T14:28:52.000Z</time>
      </trkpt>
      <trkpt lat="46.6213" lon="5.40552">
        <ele>195.39999389648</ele>
        <time>2021-03-08T14:28:54.000Z</time>
      </trkpt>
      <trkpt lat="46.62122" lon="5.40535">
        <ele>195.19999694824</ele>
        <time>2021-03-08T14:28:56.000Z</time>
      </trkpt>
      <trkpt lat="46.62113" lon="5.40517">
        <ele>195.19999694824</ele>
        <time>2021-03-08T14:28:58.000Z</time>
      </trkpt>
      <trkpt lat="46.62104" lon="5.405">
        <ele>195.19999694824</ele>
        <time>2021-03-08T14:29:00.000Z</time>
      </trkpt>
      <trkpt lat="46.62095" lon="5.40483">
        <ele>195.19999694824</ele>
        <time>2021-03-08T14:29:02.000Z</time>
      </trkpt>
      <trkpt lat="46.62086" lon="5.40464">
        <ele>195.19999694824</ele>
        <time>2021-03-08T14:29:04.000Z</time>
      </trkpt>
      <trkpt lat="46.62077" lon="5.40446">
        <ele>195.19999694824</ele>
        <time>2021-03-08T14:29:06.000Z</time>
      </trkpt>
      <trkpt lat="46.62073" lon="5.40436">
        <ele>195.19999694824</ele>
        <time>2021-03-08T14:29:07.000Z</time>
      </trkpt>
      <trkpt lat="46.62069" lon="5.40426">
        <ele>195.19999694824</ele>
        <time>2021-03-08T14:29:08.000Z</time>
      </trkpt>
      <trkpt lat="46.62063" lon="5.40406">
        <ele>195.19999694824</ele>
        <time>2021-03-08T14:29:10.000Z</time>
      </trkpt>
      <trkpt lat="46.62058" lon="5.40385">
        <ele>195.19999694824</ele>
        <time>2021-03-08T14:29:12.000Z</time>
      </trkpt>
      <trkpt lat="46.62055" lon="5.40374">
        <ele>195</ele>
        <time>2021-03-08T14:29:13.000Z</time>
      </trkpt>
      <trkpt lat="46.62052" lon="5.40364">
        <ele>195</ele>
        <time>2021-03-08T14:29:14.000Z</time>
      </trkpt>
      <trkpt lat="46.62047" lon="5.40343">
        <ele>194.80000305176</ele>
        <time>2021-03-08T14:29:16.000Z</time>
      </trkpt>
      <trkpt lat="46.62042" lon="5.40322">
        <ele>194.80000305176</ele>
        <time>2021-03-08T14:29:18.000Z</time>
      </trkpt>
      <trkpt lat="46.62036" lon="5.40302">
        <ele>194.80000305176</ele>
        <time>2021-03-08T14:29:20.000Z</time>
      </trkpt>
      <trkpt lat="46.62032" lon="5.40292">
        <ele>194.80000305176</ele>
        <time>2021-03-08T14:29:21.000Z</time>
      </trkpt>
      <trkpt lat="46.62028" lon="5.40283">
        <ele>194.80000305176</ele>
        <time>2021-03-08T14:29:22.000Z</time>
      </trkpt>
      <trkpt lat="46.62019" lon="5.40265">
        <ele>194.60000610352</ele>
        <time>2021-03-08T14:29:24.000Z</time>
      </trkpt>
      <trkpt lat="46.6201" lon="5.40247">
        <ele>194.60000610352</ele>
        <time>2021-03-08T14:29:26.000Z</time>
      </trkpt>
      <trkpt lat="46.62001" lon="5.40228">
        <ele>194.60000610352</ele>
        <time>2021-03-08T14:29:28.000Z</time>
      </trkpt>
      <trkpt lat="46.61991" lon="5.4021">
        <ele>194.60000610352</ele>
        <time>2021-03-08T14:29:30.000Z</time>
      </trkpt>
      <trkpt lat="46.61982" lon="5.40192">
        <ele>194.60000610352</ele>
        <time>2021-03-08T14:29:32.000Z</time>
      </trkpt>
      <trkpt lat="46.61972" lon="5.40175">
        <ele>194.60000610352</ele>
        <time>2021-03-08T14:29:34.000Z</time>
      </trkpt>
      <trkpt lat="46.61963" lon="5.40157">
        <ele>194.60000610352</ele>
        <time>2021-03-08T14:29:36.000Z</time>
      </trkpt>
      <trkpt lat="46.61954" lon="5.40139">
        <ele>194.60000610352</ele>
        <time>2021-03-08T14:29:38.000Z</time>
      </trkpt>
      <trkpt lat="46.61945" lon="5.40121">
        <ele>194.80000305176</ele>
        <time>2021-03-08T14:29:40.000Z</time>
      </trkpt>
      <trkpt lat="46.61935" lon="5.40103">
        <ele>194.80000305176</ele>
        <time>2021-03-08T14:29:42.000Z</time>
      </trkpt>
      <trkpt lat="46.61926" lon="5.40085">
        <ele>194.80000305176</ele>
        <time>2021-03-08T14:29:44.000Z</time>
      </trkpt>
      <trkpt lat="46.61916" lon="5.40067">
        <ele>194.80000305176</ele>
        <time>2021-03-08T14:29:46.000Z</time>
      </trkpt>
      <trkpt lat="46.61907" lon="5.40049">
        <ele>194.80000305176</ele>
        <time>2021-03-08T14:29:48.000Z</time>
      </trkpt>
      <trkpt lat="46.61898" lon="5.40031">
        <ele>195</ele>
        <time>2021-03-08T14:29:50.000Z</time>
      </trkpt>
      <trkpt lat="46.61889" lon="5.40013">
        <ele>195</ele>
        <time>2021-03-08T14:29:52.000Z</time>
      </trkpt>
      <trkpt lat="46.61881" lon="5.39995">
        <ele>195.19999694824</ele>
        <time>2021-03-08T14:29:54.000Z</time>
      </trkpt>
      <trkpt lat="46.61877" lon="5.39985">
        <ele>195.19999694824</ele>
        <time>2021-03-08T14:29:55.000Z</time>
      </trkpt>
      <trkpt lat="46.61873" lon="5.39975">
        <ele>195.19999694824</ele>
        <time>2021-03-08T14:29:56.000Z</time>
      </trkpt>
      <trkpt lat="46.61866" lon="5.39955">
        <ele>195.19999694824</ele>
        <time>2021-03-08T14:29:58.000Z</time>
      </trkpt>
      <trkpt lat="46.61859" lon="5.39935">
        <ele>195.19999694824</ele>
        <time>2021-03-08T14:30:00.000Z</time>
      </trkpt>
      <trkpt lat="46.61851" lon="5.39915">
        <ele>195.19999694824</ele>
        <time>2021-03-08T14:30:02.000Z</time>
      </trkpt>
      <trkpt lat="46.61844" lon="5.39895">
        <ele>195.19999694824</ele>
        <time>2021-03-08T14:30:04.000Z</time>
      </trkpt>
      <trkpt lat="46.61841" lon="5.39885">
        <ele>195.19999694824</ele>
        <time>2021-03-08T14:30:05.000Z</time>
      </trkpt>
      <trkpt lat="46.61837" lon="5.39875">
        <ele>195.19999694824</ele>
        <time>2021-03-08T14:30:06.000Z</time>
      </trkpt>
      <trkpt lat="46.6183" lon="5.39855">
        <ele>195</ele>
        <time>2021-03-08T14:30:08.000Z</time>
      </trkpt>
      <trkpt lat="46.61823" lon="5.39835">
        <ele>195</ele>
        <time>2021-03-08T14:30:10.000Z</time>
      </trkpt>
      <trkpt lat="46.61816" lon="5.39815">
        <ele>195</ele>
        <time>2021-03-08T14:30:12.000Z</time>
      </trkpt>
      <trkpt lat="46.61809" lon="5.39795">
        <ele>195</ele>
        <time>2021-03-08T14:30:14.000Z</time>
      </trkpt>
      <trkpt lat="46.61802" lon="5.39775">
        <ele>194.80000305176</ele>
        <time>2021-03-08T14:30:16.000Z</time>
      </trkpt>
      <trkpt lat="46.61795" lon="5.39755">
        <ele>194.80000305176</ele>
        <time>2021-03-08T14:30:18.000Z</time>
      </trkpt>
      <trkpt lat="46.61788" lon="5.39736">
        <ele>194.80000305176</ele>
        <time>2021-03-08T14:30:20.000Z</time>
      </trkpt>
      <trkpt lat="46.61783" lon="5.39715">
        <ele>194.60000610352</ele>
        <time>2021-03-08T14:30:22.000Z</time>
      </trkpt>
      <trkpt lat="46.61779" lon="5.39694">
        <ele>194.60000610352</ele>
        <time>2021-03-08T14:30:24.000Z</time>
      </trkpt>
      <trkpt lat="46.61775" lon="5.39674">
        <ele>194.39999389648</ele>
        <time>2021-03-08T14:30:26.000Z</time>
      </trkpt>
      <trkpt lat="46.61772" lon="5.39653">
        <ele>194.60000610352</ele>
        <time>2021-03-08T14:30:28.000Z</time>
      </trkpt>
      <trkpt lat="46.6177" lon="5.39642">
        <ele>194.39999389648</ele>
        <time>2021-03-08T14:30:29.000Z</time>
      </trkpt>
      <trkpt lat="46.61769" lon="5.39632">
        <ele>194.39999389648</ele>
        <time>2021-03-08T14:30:30.000Z</time>
      </trkpt>
      <trkpt lat="46.61766" lon="5.39612">
        <ele>194.39999389648</ele>
        <time>2021-03-08T14:30:32.000Z</time>
      </trkpt>
      <trkpt lat="46.61764" lon="5.39592">
        <ele>194.39999389648</ele>
        <time>2021-03-08T14:30:34.000Z</time>
      </trkpt>
      <trkpt lat="46.61761" lon="5.39573">
        <ele>194.39999389648</ele>
        <time>2021-03-08T14:30:36.000Z</time>
      </trkpt>
      <trkpt lat="46.61759" lon="5.39555">
        <ele>194.60000610352</ele>
        <time>2021-03-08T14:30:38.000Z</time>
      </trkpt>
      <trkpt lat="46.61756" lon="5.39538">
        <ele>194.60000610352</ele>
        <time>2021-03-08T14:30:40.000Z</time>
      </trkpt>
      <trkpt lat="46.61754" lon="5.3953">
        <ele>194.60000610352</ele>
        <time>2021-03-08T14:30:41.000Z</time>
      </trkpt>
      <trkpt lat="46.6175" lon="5.39523">
        <ele>194.60000610352</ele>
        <time>2021-03-08T14:30:42.000Z</time>
      </trkpt>
      <trkpt lat="46.6174" lon="5.39513">
        <ele>194.80000305176</ele>
        <time>2021-03-08T14:30:44.000Z</time>
      </trkpt>
      <trkpt lat="46.6173" lon="5.39504">
        <ele>194.80000305176</ele>
        <time>2021-03-08T14:30:46.000Z</time>
      </trkpt>
      <trkpt lat="46.6172" lon="5.39493">
        <ele>195.19999694824</ele>
        <time>2021-03-08T14:30:48.000Z</time>
      </trkpt>
      <trkpt lat="46.61711" lon="5.3948">
        <ele>195.60000610352</ele>
        <time>2021-03-08T14:30:50.000Z</time>
      </trkpt>
      <trkpt lat="46.61707" lon="5.39473">
        <ele>196.39999389648</ele>
        <time>2021-03-08T14:30:51.000Z</time>
      </trkpt>
      <trkpt lat="46.61703" lon="5.39466">
        <ele>197</ele>
        <time>2021-03-08T14:30:52.000Z</time>
      </trkpt>
      <trkpt lat="46.61695" lon="5.39452">
        <ele>197.39999389648</ele>
        <time>2021-03-08T14:30:54.000Z</time>
      </trkpt>
      <trkpt lat="46.61685" lon="5.39437">
        <ele>197.60000610352</ele>
        <time>2021-03-08T14:30:56.000Z</time>
      </trkpt>
      <trkpt lat="46.61675" lon="5.39421">
        <ele>197.60000610352</ele>
        <time>2021-03-08T14:30:58.000Z</time>
      </trkpt>
      <trkpt lat="46.61665" lon="5.39404">
        <ele>197.60000610352</ele>
        <time>2021-03-08T14:31:00.000Z</time>
      </trkpt>
      <trkpt lat="46.61654" lon="5.39388">
        <ele>197.60000610352</ele>
        <time>2021-03-08T14:31:02.000Z</time>
      </trkpt>
      <trkpt lat="46.61644" lon="5.39371">
        <ele>197.39999389648</ele>
        <time>2021-03-08T14:31:04.000Z</time>
      </trkpt>
      <trkpt lat="46.61639" lon="5.39363">
        <ele>197</ele>
        <time>2021-03-08T14:31:05.000Z</time>
      </trkpt>
      <trkpt lat="46.61634" lon="5.39354">
        <ele>196.60000610352</ele>
        <time>2021-03-08T14:31:06.000Z</time>
      </trkpt>
      <trkpt lat="46.61624" lon="5.39337">
        <ele>196</ele>
        <time>2021-03-08T14:31:08.000Z</time>
      </trkpt>
      <trkpt lat="46.6162" lon="5.39328">
        <ele>195.60000610352</ele>
        <time>2021-03-08T14:31:09.000Z</time>
      </trkpt>
      <trkpt lat="46.61616" lon="5.39319">
        <ele>195.39999389648</ele>
        <time>2021-03-08T14:31:10.000Z</time>
      </trkpt>
      <trkpt lat="46.61609" lon="5.393">
        <ele>195.19999694824</ele>
        <time>2021-03-08T14:31:12.000Z</time>
      </trkpt>
      <trkpt lat="46.61602" lon="5.39281">
        <ele>195</ele>
        <time>2021-03-08T14:31:14.000Z</time>
      </trkpt>
      <trkpt lat="46.61595" lon="5.39263">
        <ele>195</ele>
        <time>2021-03-08T14:31:16.000Z</time>
      </trkpt>
      <trkpt lat="46.61587" lon="5.39244">
        <ele>194.80000305176</ele>
        <time>2021-03-08T14:31:18.000Z</time>
      </trkpt>
      <trkpt lat="46.61583" lon="5.39235">
        <ele>194.80000305176</ele>
        <time>2021-03-08T14:31:19.000Z</time>
      </trkpt>
      <trkpt lat="46.61579" lon="5.39225">
        <ele>194.80000305176</ele>
        <time>2021-03-08T14:31:20.000Z</time>
      </trkpt>
      <trkpt lat="46.61572" lon="5.39207">
        <ele>194.80000305176</ele>
        <time>2021-03-08T14:31:22.000Z</time>
      </trkpt>
      <trkpt lat="46.61565" lon="5.39188">
        <ele>194.60000610352</ele>
        <time>2021-03-08T14:31:24.000Z</time>
      </trkpt>
      <trkpt lat="46.61562" lon="5.39178">
        <ele>194.60000610352</ele>
        <time>2021-03-08T14:31:25.000Z</time>
      </trkpt>
      <trkpt lat="46.6156" lon="5.39167">
        <ele>194.60000610352</ele>
        <time>2021-03-08T14:31:26.000Z</time>
      </trkpt>
      <trkpt lat="46.61558" lon="5.39157">
        <ele>194.60000610352</ele>
        <time>2021-03-08T14:31:27.000Z</time>
      </trkpt>
      <trkpt lat="46.61556" lon="5.39147">
        <ele>194.60000610352</ele>
        <time>2021-03-08T14:31:28.000Z</time>
      </trkpt>
      <trkpt lat="46.61555" lon="5.39125">
        <ele>194.60000610352</ele>
        <time>2021-03-08T14:31:30.000Z</time>
      </trkpt>
      <trkpt lat="46.61555" lon="5.39104">
        <ele>194.39999389648</ele>
        <time>2021-03-08T14:31:32.000Z</time>
      </trkpt>
      <trkpt lat="46.61558" lon="5.39084">
        <ele>194.39999389648</ele>
        <time>2021-03-08T14:31:34.000Z</time>
      </trkpt>
      <trkpt lat="46.61562" lon="5.39064">
        <ele>194.39999389648</ele>
        <time>2021-03-08T14:31:36.000Z</time>
      </trkpt>
      <trkpt lat="46.61566" lon="5.39055">
        <ele>194.39999389648</ele>
        <time>2021-03-08T14:31:37.000Z</time>
      </trkpt>
      <trkpt lat="46.6157" lon="5.39046">
        <ele>194.19999694824</ele>
        <time>2021-03-08T14:31:38.000Z</time>
      </trkpt>
      <trkpt lat="46.61578" lon="5.3903">
        <ele>194.19999694824</ele>
        <time>2021-03-08T14:31:40.000Z</time>
      </trkpt>
      <trkpt lat="46.61587" lon="5.39015">
        <ele>194.19999694824</ele>
        <time>2021-03-08T14:31:42.000Z</time>
      </trkpt>
      <trkpt lat="46.61595" lon="5.39">
        <ele>194.19999694824</ele>
        <time>2021-03-08T14:31:44.000Z</time>
      </trkpt>
      <trkpt lat="46.61603" lon="5.38985">
        <ele>194.19999694824</ele>
        <time>2021-03-08T14:31:46.000Z</time>
      </trkpt>
      <trkpt lat="46.61611" lon="5.38971">
        <ele>194.19999694824</ele>
        <time>2021-03-08T14:31:48.000Z</time>
      </trkpt>
      <trkpt lat="46.61619" lon="5.38957">
        <ele>194.19999694824</ele>
        <time>2021-03-08T14:31:50.000Z</time>
      </trkpt>
      <trkpt lat="46.61627" lon="5.38945">
        <ele>194.39999389648</ele>
        <time>2021-03-08T14:31:52.000Z</time>
      </trkpt>
      <trkpt lat="46.61636" lon="5.38933">
        <ele>194.39999389648</ele>
        <time>2021-03-08T14:31:54.000Z</time>
      </trkpt>
      <trkpt lat="46.61644" lon="5.3892">
        <ele>194.60000610352</ele>
        <time>2021-03-08T14:31:56.000Z</time>
      </trkpt>
      <trkpt lat="46.61653" lon="5.38909">
        <ele>194.60000610352</ele>
        <time>2021-03-08T14:31:58.000Z</time>
      </trkpt>
      <trkpt lat="46.61661" lon="5.38897">
        <ele>194.60000610352</ele>
        <time>2021-03-08T14:32:00.000Z</time>
      </trkpt>
      <trkpt lat="46.6167" lon="5.38885">
        <ele>194.60000610352</ele>
        <time>2021-03-08T14:32:02.000Z</time>
      </trkpt>
      <trkpt lat="46.61678" lon="5.38873">
        <ele>194.80000305176</ele>
        <time>2021-03-08T14:32:04.000Z</time>
      </trkpt>
      <trkpt lat="46.61687" lon="5.38861">
        <ele>195</ele>
        <time>2021-03-08T14:32:06.000Z</time>
      </trkpt>
      <trkpt lat="46.61695" lon="5.38849">
        <ele>195</ele>
        <time>2021-03-08T14:32:08.000Z</time>
      </trkpt>
      <trkpt lat="46.61703" lon="5.38837">
        <ele>195</ele>
        <time>2021-03-08T14:32:10.000Z</time>
      </trkpt>
      <trkpt lat="46.61712" lon="5.38824">
        <ele>195.19999694824</ele>
        <time>2021-03-08T14:32:12.000Z</time>
      </trkpt>
      <trkpt lat="46.61721" lon="5.38812">
        <ele>195.39999389648</ele>
        <time>2021-03-08T14:32:14.000Z</time>
      </trkpt>
      <trkpt lat="46.6173" lon="5.38799">
        <ele>195.39999389648</ele>
        <time>2021-03-08T14:32:16.000Z</time>
      </trkpt>
      <trkpt lat="46.61738" lon="5.38786">
        <ele>195.39999389648</ele>
        <time>2021-03-08T14:32:18.000Z</time>
      </trkpt>
      <trkpt lat="46.61747" lon="5.38773">
        <ele>195.19999694824</ele>
        <time>2021-03-08T14:32:20.000Z</time>
      </trkpt>
      <trkpt lat="46.61751" lon="5.38766">
        <ele>195.19999694824</ele>
        <time>2021-03-08T14:32:21.000Z</time>
      </trkpt>
      <trkpt lat="46.61754" lon="5.38759">
        <ele>195.19999694824</ele>
        <time>2021-03-08T14:32:22.000Z</time>
      </trkpt>
      <trkpt lat="46.61761" lon="5.38743">
        <ele>195.19999694824</ele>
        <time>2021-03-08T14:32:24.000Z</time>
      </trkpt>
      <trkpt lat="46.61768" lon="5.38729">
        <ele>195.19999694824</ele>
        <time>2021-03-08T14:32:26.000Z</time>
      </trkpt>
      <trkpt lat="46.61776" lon="5.38715">
        <ele>195.19999694824</ele>
        <time>2021-03-08T14:32:28.000Z</time>
      </trkpt>
      <trkpt lat="46.61783" lon="5.387">
        <ele>195.19999694824</ele>
        <time>2021-03-08T14:32:30.000Z</time>
      </trkpt>
      <trkpt lat="46.61785" lon="5.38692">
        <ele>195.19999694824</ele>
        <time>2021-03-08T14:32:31.000Z</time>
      </trkpt>
      <trkpt lat="46.61785" lon="5.38683">
        <ele>195.19999694824</ele>
        <time>2021-03-08T14:32:32.000Z</time>
      </trkpt>
      <trkpt lat="46.61782" lon="5.38674">
        <ele>195.19999694824</ele>
        <time>2021-03-08T14:32:33.000Z</time>
      </trkpt>
      <trkpt lat="46.61778" lon="5.38667">
        <ele>195.19999694824</ele>
        <time>2021-03-08T14:32:34.000Z</time>
      </trkpt>
      <trkpt lat="46.61774" lon="5.38659">
        <ele>195.19999694824</ele>
        <time>2021-03-08T14:32:35.000Z</time>
      </trkpt>
      <trkpt lat="46.61769" lon="5.38652">
        <ele>195.19999694824</ele>
        <time>2021-03-08T14:32:36.000Z</time>
      </trkpt>
      <trkpt lat="46.6176" lon="5.38636">
        <ele>195.19999694824</ele>
        <time>2021-03-08T14:32:38.000Z</time>
      </trkpt>
      <trkpt lat="46.61755" lon="5.38616">
        <ele>195.19999694824</ele>
        <time>2021-03-08T14:32:40.000Z</time>
      </trkpt>
      <trkpt lat="46.61752" lon="5.38596">
        <ele>195.19999694824</ele>
        <time>2021-03-08T14:32:42.000Z</time>
      </trkpt>
      <trkpt lat="46.6175" lon="5.38576">
        <ele>195</ele>
        <time>2021-03-08T14:32:44.000Z</time>
      </trkpt>
      <trkpt lat="46.6175" lon="5.38566">
        <ele>195</ele>
        <time>2021-03-08T14:32:45.000Z</time>
      </trkpt>
      <trkpt lat="46.6175" lon="5.38556">
        <ele>195</ele>
        <time>2021-03-08T14:32:46.000Z</time>
      </trkpt>
      <trkpt lat="46.61752" lon="5.38546">
        <ele>194.80000305176</ele>
        <time>2021-03-08T14:32:47.000Z</time>
      </trkpt>
      <trkpt lat="46.61753" lon="5.38536">
        <ele>194.80000305176</ele>
        <time>2021-03-08T14:32:48.000Z</time>
      </trkpt>
      <trkpt lat="46.61755" lon="5.38527">
        <ele>194.60000610352</ele>
        <time>2021-03-08T14:32:49.000Z</time>
      </trkpt>
      <trkpt lat="46.61757" lon="5.38517">
        <ele>194.60000610352</ele>
        <time>2021-03-08T14:32:50.000Z</time>
      </trkpt>
      <trkpt lat="46.61761" lon="5.38499">
        <ele>194.39999389648</ele>
        <time>2021-03-08T14:32:52.000Z</time>
      </trkpt>
      <trkpt lat="46.61764" lon="5.38481">
        <ele>194.39999389648</ele>
        <time>2021-03-08T14:32:54.000Z</time>
      </trkpt>
      <trkpt lat="46.61768" lon="5.38464">
        <ele>194.39999389648</ele>
        <time>2021-03-08T14:32:56.000Z</time>
      </trkpt>
      <trkpt lat="46.61771" lon="5.38446">
        <ele>194.39999389648</ele>
        <time>2021-03-08T14:32:58.000Z</time>
      </trkpt>
      <trkpt lat="46.61774" lon="5.38428">
        <ele>194.39999389648</ele>
        <time>2021-03-08T14:33:00.000Z</time>
      </trkpt>
      <trkpt lat="46.61776" lon="5.38411">
        <ele>194.39999389648</ele>
        <time>2021-03-08T14:33:02.000Z</time>
      </trkpt>
      <trkpt lat="46.61778" lon="5.38393">
        <ele>194.39999389648</ele>
        <time>2021-03-08T14:33:04.000Z</time>
      </trkpt>
      <trkpt lat="46.61782" lon="5.38376">
        <ele>194.60000610352</ele>
        <time>2021-03-08T14:33:06.000Z</time>
      </trkpt>
      <trkpt lat="46.6179" lon="5.38362">
        <ele>194.80000305176</ele>
        <time>2021-03-08T14:33:08.000Z</time>
      </trkpt>
      <trkpt lat="46.618" lon="5.3835">
        <ele>194.80000305176</ele>
        <time>2021-03-08T14:33:10.000Z</time>
      </trkpt>
      <trkpt lat="46.61805" lon="5.38345">
        <ele>195</ele>
        <time>2021-03-08T14:33:11.000Z</time>
      </trkpt>
      <trkpt lat="46.6181" lon="5.38341">
        <ele>195</ele>
        <time>2021-03-08T14:33:12.000Z</time>
      </trkpt>
      <trkpt lat="46.61815" lon="5.38336">
        <ele>195</ele>
        <time>2021-03-08T14:33:13.000Z</time>
      </trkpt>
      <trkpt lat="46.6182" lon="5.3833">
        <ele>195</ele>
        <time>2021-03-08T14:33:14.000Z</time>
      </trkpt>
      <trkpt lat="46.61828" lon="5.38319">
        <ele>195.19999694824</ele>
        <time>2021-03-08T14:33:16.000Z</time>
      </trkpt>
      <trkpt lat="46.61835" lon="5.38306">
        <ele>195.19999694824</ele>
        <time>2021-03-08T14:33:18.000Z</time>
      </trkpt>
      <trkpt lat="46.61843" lon="5.38292">
        <ele>195.39999389648</ele>
        <time>2021-03-08T14:33:20.000Z</time>
      </trkpt>
      <trkpt lat="46.6185" lon="5.38279">
        <ele>195.60000610352</ele>
        <time>2021-03-08T14:33:22.000Z</time>
      </trkpt>
      <trkpt lat="46.61858" lon="5.38266">
        <ele>195.60000610352</ele>
        <time>2021-03-08T14:33:24.000Z</time>
      </trkpt>
      <trkpt lat="46.61862" lon="5.3826">
        <ele>195.80000305176</ele>
        <time>2021-03-08T14:33:25.000Z</time>
      </trkpt>
      <trkpt lat="46.61867" lon="5.38255">
        <ele>195.80000305176</ele>
        <time>2021-03-08T14:33:26.000Z</time>
      </trkpt>
      <trkpt lat="46.61879" lon="5.38249">
        <ele>195.80000305176</ele>
        <time>2021-03-08T14:33:28.000Z</time>
      </trkpt>
      <trkpt lat="46.61885" lon="5.38249">
        <ele>195.80000305176</ele>
        <time>2021-03-08T14:33:29.000Z</time>
      </trkpt>
      <trkpt lat="46.61891" lon="5.38251">
        <ele>195.80000305176</ele>
        <time>2021-03-08T14:33:30.000Z</time>
      </trkpt>
      <trkpt lat="46.61902" lon="5.38259">
        <ele>195.80000305176</ele>
        <time>2021-03-08T14:33:32.000Z</time>
      </trkpt>
      <trkpt lat="46.61907" lon="5.38263">
        <ele>196</ele>
        <time>2021-03-08T14:33:33.000Z</time>
      </trkpt>
      <trkpt lat="46.61912" lon="5.38267">
        <ele>196</ele>
        <time>2021-03-08T14:33:34.000Z</time>
      </trkpt>
      <trkpt lat="46.61922" lon="5.38277">
        <ele>196</ele>
        <time>2021-03-08T14:33:36.000Z</time>
      </trkpt>
      <trkpt lat="46.61931" lon="5.38287">
        <ele>196</ele>
        <time>2021-03-08T14:33:38.000Z</time>
      </trkpt>
      <trkpt lat="46.61941" lon="5.38295">
        <ele>196</ele>
        <time>2021-03-08T14:33:40.000Z</time>
      </trkpt>
      <trkpt lat="46.61953" lon="5.38298">
        <ele>196</ele>
        <time>2021-03-08T14:33:42.000Z</time>
      </trkpt>
      <trkpt lat="46.61958" lon="5.38296">
        <ele>196</ele>
        <time>2021-03-08T14:33:43.000Z</time>
      </trkpt>
      <trkpt lat="46.61963" lon="5.38291">
        <ele>196</ele>
        <time>2021-03-08T14:33:44.000Z</time>
      </trkpt>
      <trkpt lat="46.6197" lon="5.38277">
        <ele>196.19999694824</ele>
        <time>2021-03-08T14:33:46.000Z</time>
      </trkpt>
      <trkpt lat="46.61973" lon="5.38262">
        <ele>196.39999389648</ele>
        <time>2021-03-08T14:33:48.000Z</time>
      </trkpt>
      <trkpt lat="46.61977" lon="5.38246">
        <ele>196.60000610352</ele>
        <time>2021-03-08T14:33:50.000Z</time>
      </trkpt>
      <trkpt lat="46.61979" lon="5.38238">
        <ele>196.60000610352</ele>
        <time>2021-03-08T14:33:51.000Z</time>
      </trkpt>
      <trkpt lat="46.6198" lon="5.3823">
        <ele>196.80000305176</ele>
        <time>2021-03-08T14:33:52.000Z</time>
      </trkpt>
      <trkpt lat="46.61983" lon="5.38212">
        <ele>197.19999694824</ele>
        <time>2021-03-08T14:33:54.000Z</time>
      </trkpt>
      <trkpt lat="46.61986" lon="5.38195">
        <ele>197.60000610352</ele>
        <time>2021-03-08T14:33:56.000Z</time>
      </trkpt>
      <trkpt lat="46.61987" lon="5.38186">
        <ele>197.80000305176</ele>
        <time>2021-03-08T14:33:57.000Z</time>
      </trkpt>
      <trkpt lat="46.61989" lon="5.38177">
        <ele>197.80000305176</ele>
        <time>2021-03-08T14:33:58.000Z</time>
      </trkpt>
      <trkpt lat="46.61991" lon="5.38167">
        <ele>197.80000305176</ele>
        <time>2021-03-08T14:33:59.000Z</time>
      </trkpt>
      <trkpt lat="46.61993" lon="5.38158">
        <ele>197.80000305176</ele>
        <time>2021-03-08T14:34:00.000Z</time>
      </trkpt>
      <trkpt lat="46.61998" lon="5.3814">
        <ele>197.80000305176</ele>
        <time>2021-03-08T14:34:02.000Z</time>
      </trkpt>
      <trkpt lat="46.62003" lon="5.38122">
        <ele>197.80000305176</ele>
        <time>2021-03-08T14:34:04.000Z</time>
      </trkpt>
      <trkpt lat="46.62008" lon="5.38104">
        <ele>197.80000305176</ele>
        <time>2021-03-08T14:34:06.000Z</time>
      </trkpt>
      <trkpt lat="46.62013" lon="5.38086">
        <ele>197.80000305176</ele>
        <time>2021-03-08T14:34:08.000Z</time>
      </trkpt>
      <trkpt lat="46.62018" lon="5.38067">
        <ele>197.39999389648</ele>
        <time>2021-03-08T14:34:10.000Z</time>
      </trkpt>
      <trkpt lat="46.62023" lon="5.38049">
        <ele>197.39999389648</ele>
        <time>2021-03-08T14:34:12.000Z</time>
      </trkpt>
      <trkpt lat="46.62027" lon="5.38032">
        <ele>197.19999694824</ele>
        <time>2021-03-08T14:34:14.000Z</time>
      </trkpt>
      <trkpt lat="46.62029" lon="5.38023">
        <ele>197.19999694824</ele>
        <time>2021-03-08T14:34:15.000Z</time>
      </trkpt>
      <trkpt lat="46.62031" lon="5.38014">
        <ele>197.19999694824</ele>
        <time>2021-03-08T14:34:16.000Z</time>
      </trkpt>
      <trkpt lat="46.62034" lon="5.37998">
        <ele>197</ele>
        <time>2021-03-08T14:34:18.000Z</time>
      </trkpt>
      <trkpt lat="46.62038" lon="5.37981">
        <ele>197</ele>
        <time>2021-03-08T14:34:20.000Z</time>
      </trkpt>
      <trkpt lat="46.62041" lon="5.37965">
        <ele>197</ele>
        <time>2021-03-08T14:34:22.000Z</time>
      </trkpt>
      <trkpt lat="46.62043" lon="5.37956">
        <ele>197</ele>
        <time>2021-03-08T14:34:23.000Z</time>
      </trkpt>
      <trkpt lat="46.62045" lon="5.37948">
        <ele>197</ele>
        <time>2021-03-08T14:34:24.000Z</time>
      </trkpt>
      <trkpt lat="46.62049" lon="5.3793">
        <ele>196.80000305176</ele>
        <time>2021-03-08T14:34:26.000Z</time>
      </trkpt>
      <trkpt lat="46.62053" lon="5.37912">
        <ele>196.80000305176</ele>
        <time>2021-03-08T14:34:28.000Z</time>
      </trkpt>
      <trkpt lat="46.62058" lon="5.37894">
        <ele>196.80000305176</ele>
        <time>2021-03-08T14:34:30.000Z</time>
      </trkpt>
      <trkpt lat="46.6206" lon="5.37885">
        <ele>196.80000305176</ele>
        <time>2021-03-08T14:34:31.000Z</time>
      </trkpt>
      <trkpt lat="46.62062" lon="5.37876">
        <ele>196.80000305176</ele>
        <time>2021-03-08T14:34:32.000Z</time>
      </trkpt>
      <trkpt lat="46.62066" lon="5.37859">
        <ele>196.80000305176</ele>
        <time>2021-03-08T14:34:34.000Z</time>
      </trkpt>
      <trkpt lat="46.62071" lon="5.37843">
        <ele>196.80000305176</ele>
        <time>2021-03-08T14:34:36.000Z</time>
      </trkpt>
      <trkpt lat="46.62074" lon="5.37835">
        <ele>196.80000305176</ele>
        <time>2021-03-08T14:34:37.000Z</time>
      </trkpt>
      <trkpt lat="46.62077" lon="5.37827">
        <ele>196.80000305176</ele>
        <time>2021-03-08T14:34:38.000Z</time>
      </trkpt>
      <trkpt lat="46.62083" lon="5.37812">
        <ele>196.80000305176</ele>
        <time>2021-03-08T14:34:40.000Z</time>
      </trkpt>
      <trkpt lat="46.6209" lon="5.37798">
        <ele>196.80000305176</ele>
        <time>2021-03-08T14:34:42.000Z</time>
      </trkpt>
      <trkpt lat="46.62097" lon="5.37785">
        <ele>197</ele>
        <time>2021-03-08T14:34:44.000Z</time>
      </trkpt>
      <trkpt lat="46.62106" lon="5.37774">
        <ele>197.19999694824</ele>
        <time>2021-03-08T14:34:46.000Z</time>
      </trkpt>
      <trkpt lat="46.62114" lon="5.37762">
        <ele>197.60000610352</ele>
        <time>2021-03-08T14:34:48.000Z</time>
      </trkpt>
      <trkpt lat="46.62118" lon="5.37757">
        <ele>198</ele>
        <time>2021-03-08T14:34:49.000Z</time>
      </trkpt>
      <trkpt lat="46.62122" lon="5.37752">
        <ele>198.19999694824</ele>
        <time>2021-03-08T14:34:50.000Z</time>
      </trkpt>
      <trkpt lat="46.6213" lon="5.37741">
        <ele>198.60000610352</ele>
        <time>2021-03-08T14:34:52.000Z</time>
      </trkpt>
      <trkpt lat="46.62139" lon="5.3773">
        <ele>198.80000305176</ele>
        <time>2021-03-08T14:34:54.000Z</time>
      </trkpt>
      <trkpt lat="46.62143" lon="5.37724">
        <ele>199.19999694824</ele>
        <time>2021-03-08T14:34:55.000Z</time>
      </trkpt>
      <trkpt lat="46.62147" lon="5.37719">
        <ele>199.19999694824</ele>
        <time>2021-03-08T14:34:56.000Z</time>
      </trkpt>
      <trkpt lat="46.62151" lon="5.37714">
        <ele>199.60000610352</ele>
        <time>2021-03-08T14:34:57.000Z</time>
      </trkpt>
      <trkpt lat="46.62155" lon="5.37709">
        <ele>199.80000305176</ele>
        <time>2021-03-08T14:34:58.000Z</time>
      </trkpt>
      <trkpt lat="46.6216" lon="5.37703">
        <ele>200.19999694824</ele>
        <time>2021-03-08T14:34:59.000Z</time>
      </trkpt>
      <trkpt lat="46.62164" lon="5.37698">
        <ele>200.39999389648</ele>
        <time>2021-03-08T14:35:00.000Z</time>
      </trkpt>
      <trkpt lat="46.62173" lon="5.37686">
        <ele>200.39999389648</ele>
        <time>2021-03-08T14:35:02.000Z</time>
      </trkpt>
      <trkpt lat="46.62181" lon="5.37675">
        <ele>200.60000610352</ele>
        <time>2021-03-08T14:35:04.000Z</time>
      </trkpt>
      <trkpt lat="46.62186" lon="5.37669">
        <ele>200.60000610352</ele>
        <time>2021-03-08T14:35:05.000Z</time>
      </trkpt>
      <trkpt lat="46.62189" lon="5.37663">
        <ele>200.80000305176</ele>
        <time>2021-03-08T14:35:06.000Z</time>
      </trkpt>
      <trkpt lat="46.62196" lon="5.3765">
        <ele>201.19999694824</ele>
        <time>2021-03-08T14:35:08.000Z</time>
      </trkpt>
      <trkpt lat="46.62203" lon="5.37636">
        <ele>201.80000305176</ele>
        <time>2021-03-08T14:35:10.000Z</time>
      </trkpt>
      <trkpt lat="46.62205" lon="5.37628">
        <ele>201.80000305176</ele>
        <time>2021-03-08T14:35:11.000Z</time>
      </trkpt>
      <trkpt lat="46.62207" lon="5.3762">
        <ele>201.80000305176</ele>
        <time>2021-03-08T14:35:12.000Z</time>
      </trkpt>
      <trkpt lat="46.62209" lon="5.37612">
        <ele>202</ele>
        <time>2021-03-08T14:35:13.000Z</time>
      </trkpt>
      <trkpt lat="46.62211" lon="5.37605">
        <ele>202</ele>
        <time>2021-03-08T14:35:14.000Z</time>
      </trkpt>
      <trkpt lat="46.62212" lon="5.37589">
        <ele>202</ele>
        <time>2021-03-08T14:35:16.000Z</time>
      </trkpt>
      <trkpt lat="46.62213" lon="5.37581">
        <ele>202</ele>
        <time>2021-03-08T14:35:17.000Z</time>
      </trkpt>
      <trkpt lat="46.62214" lon="5.37573">
        <ele>202.19999694824</ele>
        <time>2021-03-08T14:35:18.000Z</time>
      </trkpt>
      <trkpt lat="46.62219" lon="5.37561">
        <ele>202.19999694824</ele>
        <time>2021-03-08T14:35:20.000Z</time>
      </trkpt>
      <trkpt lat="46.62226" lon="5.37555">
        <ele>202.39999389648</ele>
        <time>2021-03-08T14:35:22.000Z</time>
      </trkpt>
      <trkpt lat="46.62229" lon="5.37554">
        <ele>202.39999389648</ele>
        <time>2021-03-08T14:35:23.000Z</time>
      </trkpt>
      <trkpt lat="46.62232" lon="5.37554">
        <ele>202.39999389648</ele>
        <time>2021-03-08T14:35:24.000Z</time>
      </trkpt>
      <trkpt lat="46.62233" lon="5.37553">
        <ele>202.39999389648</ele>
        <time>2021-03-08T14:35:26.000Z</time>
      </trkpt>
      <trkpt lat="46.62233" lon="5.37554">
        <ele>202.39999389648</ele>
        <time>2021-03-08T14:35:27.000Z</time>
      </trkpt>
      <trkpt lat="46.62229" lon="5.37555">
        <ele>204.60000610352</ele>
        <time>2021-03-08T14:36:54.000Z</time>
      </trkpt>
      <trkpt lat="46.62227" lon="5.37555">
        <ele>204.60000610352</ele>
        <time>2021-03-08T14:36:55.000Z</time>
      </trkpt>
      <trkpt lat="46.62224" lon="5.37554">
        <ele>204.60000610352</ele>
        <time>2021-03-08T14:36:56.000Z</time>
      </trkpt>
      <trkpt lat="46.62215" lon="5.3755">
        <ele>204.60000610352</ele>
        <time>2021-03-08T14:36:58.000Z</time>
      </trkpt>
      <trkpt lat="46.62212" lon="5.37545">
        <ele>204.60000610352</ele>
        <time>2021-03-08T14:36:59.000Z</time>
      </trkpt>
      <trkpt lat="46.62209" lon="5.37538">
        <ele>204.60000610352</ele>
        <time>2021-03-08T14:37:00.000Z</time>
      </trkpt>
      <trkpt lat="46.62205" lon="5.37522">
        <ele>204.39999389648</ele>
        <time>2021-03-08T14:37:02.000Z</time>
      </trkpt>
      <trkpt lat="46.62202" lon="5.37514">
        <ele>204.19999694824</ele>
        <time>2021-03-08T14:37:03.000Z</time>
      </trkpt>
      <trkpt lat="46.622" lon="5.37506">
        <ele>204.19999694824</ele>
        <time>2021-03-08T14:37:04.000Z</time>
      </trkpt>
      <trkpt lat="46.62196" lon="5.37498">
        <ele>203.80000305176</ele>
        <time>2021-03-08T14:37:05.000Z</time>
      </trkpt>
      <trkpt lat="46.62192" lon="5.3749">
        <ele>202.80000305176</ele>
        <time>2021-03-08T14:37:06.000Z</time>
      </trkpt>
      <trkpt lat="46.62188" lon="5.37482">
        <ele>202.60000610352</ele>
        <time>2021-03-08T14:37:07.000Z</time>
      </trkpt>
      <trkpt lat="46.62183" lon="5.37475">
        <ele>202.39999389648</ele>
        <time>2021-03-08T14:37:08.000Z</time>
      </trkpt>
      <trkpt lat="46.62172" lon="5.37461">
        <ele>202</ele>
        <time>2021-03-08T14:37:10.000Z</time>
      </trkpt>
      <trkpt lat="46.62166" lon="5.37455">
        <ele>201.80000305176</ele>
        <time>2021-03-08T14:37:11.000Z</time>
      </trkpt>
      <trkpt lat="46.62161" lon="5.37448">
        <ele>201.60000610352</ele>
        <time>2021-03-08T14:37:12.000Z</time>
      </trkpt>
      <trkpt lat="46.6215" lon="5.37435">
        <ele>201.39999389648</ele>
        <time>2021-03-08T14:37:14.000Z</time>
      </trkpt>
      <trkpt lat="46.62139" lon="5.37423">
        <ele>201.19999694824</ele>
        <time>2021-03-08T14:37:16.000Z</time>
      </trkpt>
      <trkpt lat="46.62128" lon="5.3741">
        <ele>200.80000305176</ele>
        <time>2021-03-08T14:37:18.000Z</time>
      </trkpt>
      <trkpt lat="46.62117" lon="5.37397">
        <ele>200.80000305176</ele>
        <time>2021-03-08T14:37:20.000Z</time>
      </trkpt>
      <trkpt lat="46.62106" lon="5.37384">
        <ele>200.60000610352</ele>
        <time>2021-03-08T14:37:22.000Z</time>
      </trkpt>
      <trkpt lat="46.621" lon="5.37378">
        <ele>200.60000610352</ele>
        <time>2021-03-08T14:37:23.000Z</time>
      </trkpt>
      <trkpt lat="46.62094" lon="5.37371">
        <ele>200.60000610352</ele>
        <time>2021-03-08T14:37:24.000Z</time>
      </trkpt>
      <trkpt lat="46.62082" lon="5.37357">
        <ele>200.39999389648</ele>
        <time>2021-03-08T14:37:26.000Z</time>
      </trkpt>
      <trkpt lat="46.6207" lon="5.37342">
        <ele>200.39999389648</ele>
        <time>2021-03-08T14:37:28.000Z</time>
      </trkpt>
      <trkpt lat="46.62057" lon="5.37328">
        <ele>200.39999389648</ele>
        <time>2021-03-08T14:37:30.000Z</time>
      </trkpt>
      <trkpt lat="46.6205" lon="5.3732">
        <ele>200.19999694824</ele>
        <time>2021-03-08T14:37:31.000Z</time>
      </trkpt>
      <trkpt lat="46.62043" lon="5.37313">
        <ele>200</ele>
        <time>2021-03-08T14:37:32.000Z</time>
      </trkpt>
      <trkpt lat="46.6203" lon="5.37297">
        <ele>199.80000305176</ele>
        <time>2021-03-08T14:37:34.000Z</time>
      </trkpt>
      <trkpt lat="46.62023" lon="5.3729">
        <ele>199.39999389648</ele>
        <time>2021-03-08T14:37:35.000Z</time>
      </trkpt>
      <trkpt lat="46.62017" lon="5.37282">
        <ele>199</ele>
        <time>2021-03-08T14:37:36.000Z</time>
      </trkpt>
      <trkpt lat="46.6201" lon="5.37273">
        <ele>198.60000610352</ele>
        <time>2021-03-08T14:37:37.000Z</time>
      </trkpt>
      <trkpt lat="46.62004" lon="5.37265">
        <ele>198.39999389648</ele>
        <time>2021-03-08T14:37:38.000Z</time>
      </trkpt>
      <trkpt lat="46.61998" lon="5.37256">
        <ele>198.19999694824</ele>
        <time>2021-03-08T14:37:39.000Z</time>
      </trkpt>
      <trkpt lat="46.61993" lon="5.37246">
        <ele>198</ele>
        <time>2021-03-08T14:37:40.000Z</time>
      </trkpt>
      <trkpt lat="46.61983" lon="5.37226">
        <ele>197.19999694824</ele>
        <time>2021-03-08T14:37:42.000Z</time>
      </trkpt>
      <trkpt lat="46.61979" lon="5.37215">
        <ele>196.80000305176</ele>
        <time>2021-03-08T14:37:43.000Z</time>
      </trkpt>
      <trkpt lat="46.61975" lon="5.37204">
        <ele>196.39999389648</ele>
        <time>2021-03-08T14:37:44.000Z</time>
      </trkpt>
      <trkpt lat="46.61972" lon="5.37192">
        <ele>196.19999694824</ele>
        <time>2021-03-08T14:37:45.000Z</time>
      </trkpt>
      <trkpt lat="46.61968" lon="5.3718">
        <ele>196</ele>
        <time>2021-03-08T14:37:46.000Z</time>
      </trkpt>
      <trkpt lat="46.61961" lon="5.37158">
        <ele>195.39999389648</ele>
        <time>2021-03-08T14:37:48.000Z</time>
      </trkpt>
      <trkpt lat="46.61954" lon="5.37135">
        <ele>195.19999694824</ele>
        <time>2021-03-08T14:37:50.000Z</time>
      </trkpt>
      <trkpt lat="46.6195" lon="5.37124">
        <ele>195</ele>
        <time>2021-03-08T14:37:51.000Z</time>
      </trkpt>
      <trkpt lat="46.61946" lon="5.37113">
        <ele>194.80000305176</ele>
        <time>2021-03-08T14:37:52.000Z</time>
      </trkpt>
      <trkpt lat="46.61938" lon="5.37091">
        <ele>194.19999694824</ele>
        <time>2021-03-08T14:37:54.000Z</time>
      </trkpt>
      <trkpt lat="46.6193" lon="5.3707">
        <ele>193.80000305176</ele>
        <time>2021-03-08T14:37:56.000Z</time>
      </trkpt>
      <trkpt lat="46.61926" lon="5.37059">
        <ele>193.80000305176</ele>
        <time>2021-03-08T14:37:57.000Z</time>
      </trkpt>
      <trkpt lat="46.61923" lon="5.37049">
        <ele>193.80000305176</ele>
        <time>2021-03-08T14:37:58.000Z</time>
      </trkpt>
      <trkpt lat="46.61915" lon="5.37028">
        <ele>193.19999694824</ele>
        <time>2021-03-08T14:38:00.000Z</time>
      </trkpt>
      <trkpt lat="46.61908" lon="5.37007">
        <ele>192.80000305176</ele>
        <time>2021-03-08T14:38:02.000Z</time>
      </trkpt>
      <trkpt lat="46.61902" lon="5.36986">
        <ele>192.39999389648</ele>
        <time>2021-03-08T14:38:04.000Z</time>
      </trkpt>
      <trkpt lat="46.61897" lon="5.36965">
        <ele>192.19999694824</ele>
        <time>2021-03-08T14:38:06.000Z</time>
      </trkpt>
      <trkpt lat="46.61894" lon="5.36943">
        <ele>192.19999694824</ele>
        <time>2021-03-08T14:38:08.000Z</time>
      </trkpt>
      <trkpt lat="46.61894" lon="5.36932">
        <ele>192.19999694824</ele>
        <time>2021-03-08T14:38:09.000Z</time>
      </trkpt>
      <trkpt lat="46.61894" lon="5.36921">
        <ele>192.19999694824</ele>
        <time>2021-03-08T14:38:10.000Z</time>
      </trkpt>
      <trkpt lat="46.61894" lon="5.369">
        <ele>192.19999694824</ele>
        <time>2021-03-08T14:38:12.000Z</time>
      </trkpt>
      <trkpt lat="46.61896" lon="5.3688">
        <ele>192.19999694824</ele>
        <time>2021-03-08T14:38:14.000Z</time>
      </trkpt>
      <trkpt lat="46.61897" lon="5.3687">
        <ele>192.19999694824</ele>
        <time>2021-03-08T14:38:15.000Z</time>
      </trkpt>
      <trkpt lat="46.61899" lon="5.3686">
        <ele>192.19999694824</ele>
        <time>2021-03-08T14:38:16.000Z</time>
      </trkpt>
      <trkpt lat="46.61902" lon="5.36841">
        <ele>192.19999694824</ele>
        <time>2021-03-08T14:38:18.000Z</time>
      </trkpt>
      <trkpt lat="46.61906" lon="5.36822">
        <ele>192.19999694824</ele>
        <time>2021-03-08T14:38:20.000Z</time>
      </trkpt>
      <trkpt lat="46.61911" lon="5.36805">
        <ele>192.39999389648</ele>
        <time>2021-03-08T14:38:22.000Z</time>
      </trkpt>
      <trkpt lat="46.61915" lon="5.36788">
        <ele>192.60000610352</ele>
        <time>2021-03-08T14:38:24.000Z</time>
      </trkpt>
      <trkpt lat="46.6192" lon="5.36771">
        <ele>192.80000305176</ele>
        <time>2021-03-08T14:38:26.000Z</time>
      </trkpt>
      <trkpt lat="46.61924" lon="5.36755">
        <ele>193</ele>
        <time>2021-03-08T14:38:28.000Z</time>
      </trkpt>
      <trkpt lat="46.61929" lon="5.36739">
        <ele>193</ele>
        <time>2021-03-08T14:38:30.000Z</time>
      </trkpt>
      <trkpt lat="46.61934" lon="5.36723">
        <ele>193.39999389648</ele>
        <time>2021-03-08T14:38:32.000Z</time>
      </trkpt>
      <trkpt lat="46.61939" lon="5.36707">
        <ele>193.80000305176</ele>
        <time>2021-03-08T14:38:34.000Z</time>
      </trkpt>
      <trkpt lat="46.61943" lon="5.36692">
        <ele>194.19999694824</ele>
        <time>2021-03-08T14:38:36.000Z</time>
      </trkpt>
      <trkpt lat="46.61948" lon="5.36677">
        <ele>194.39999389648</ele>
        <time>2021-03-08T14:38:38.000Z</time>
      </trkpt>
      <trkpt lat="46.61953" lon="5.36663">
        <ele>194.39999389648</ele>
        <time>2021-03-08T14:38:40.000Z</time>
      </trkpt>
      <trkpt lat="46.61956" lon="5.3665">
        <ele>194.39999389648</ele>
        <time>2021-03-08T14:38:42.000Z</time>
      </trkpt>
      <trkpt lat="46.61959" lon="5.36636">
        <ele>194.39999389648</ele>
        <time>2021-03-08T14:38:44.000Z</time>
      </trkpt>
      <trkpt lat="46.6196" lon="5.36623">
        <ele>194.80000305176</ele>
        <time>2021-03-08T14:38:46.000Z</time>
      </trkpt>
      <trkpt lat="46.61959" lon="5.36612">
        <ele>195.39999389648</ele>
        <time>2021-03-08T14:38:48.000Z</time>
      </trkpt>
      <trkpt lat="46.61955" lon="5.36602">
        <ele>196.19999694824</ele>
        <time>2021-03-08T14:38:50.000Z</time>
      </trkpt>
      <trkpt lat="46.61952" lon="5.36598">
        <ele>196.39999389648</ele>
        <time>2021-03-08T14:38:51.000Z</time>
      </trkpt>
      <trkpt lat="46.61949" lon="5.36594">
        <ele>196.60000610352</ele>
        <time>2021-03-08T14:38:52.000Z</time>
      </trkpt>
      <trkpt lat="46.61943" lon="5.36585">
        <ele>197.39999389648</ele>
        <time>2021-03-08T14:38:54.000Z</time>
      </trkpt>
      <trkpt lat="46.61936" lon="5.36576">
        <ele>198</ele>
        <time>2021-03-08T14:38:56.000Z</time>
      </trkpt>
      <trkpt lat="46.61932" lon="5.36571">
        <ele>198.39999389648</ele>
        <time>2021-03-08T14:38:57.000Z</time>
      </trkpt>
      <trkpt lat="46.61928" lon="5.36567">
        <ele>199</ele>
        <time>2021-03-08T14:38:58.000Z</time>
      </trkpt>
      <trkpt lat="46.61924" lon="5.36563">
        <ele>199.60000610352</ele>
        <time>2021-03-08T14:38:59.000Z</time>
      </trkpt>
      <trkpt lat="46.6192" lon="5.36558">
        <ele>200</ele>
        <time>2021-03-08T14:39:00.000Z</time>
      </trkpt>
      <trkpt lat="46.61912" lon="5.3655">
        <ele>200.80000305176</ele>
        <time>2021-03-08T14:39:02.000Z</time>
      </trkpt>
      <trkpt lat="46.61905" lon="5.36543">
        <ele>201.19999694824</ele>
        <time>2021-03-08T14:39:04.000Z</time>
      </trkpt>
      <trkpt lat="46.61901" lon="5.36539">
        <ele>201.19999694824</ele>
        <time>2021-03-08T14:39:05.000Z</time>
      </trkpt>
      <trkpt lat="46.61896" lon="5.36535">
        <ele>201.39999389648</ele>
        <time>2021-03-08T14:39:06.000Z</time>
      </trkpt>
      <trkpt lat="46.61888" lon="5.36527">
        <ele>202</ele>
        <time>2021-03-08T14:39:08.000Z</time>
      </trkpt>
      <trkpt lat="46.6188" lon="5.3652">
        <ele>202.60000610352</ele>
        <time>2021-03-08T14:39:10.000Z</time>
      </trkpt>
      <trkpt lat="46.61871" lon="5.36512">
        <ele>203.19999694824</ele>
        <time>2021-03-08T14:39:12.000Z</time>
      </trkpt>
      <trkpt lat="46.61862" lon="5.36505">
        <ele>203.19999694824</ele>
        <time>2021-03-08T14:39:14.000Z</time>
      </trkpt>
      <trkpt lat="46.61852" lon="5.36498">
        <ele>203.39999389648</ele>
        <time>2021-03-08T14:39:16.000Z</time>
      </trkpt>
      <trkpt lat="46.61842" lon="5.36491">
        <ele>203.39999389648</ele>
        <time>2021-03-08T14:39:18.000Z</time>
      </trkpt>
      <trkpt lat="46.61833" lon="5.36484">
        <ele>203.60000610352</ele>
        <time>2021-03-08T14:39:20.000Z</time>
      </trkpt>
      <trkpt lat="46.61822" lon="5.36476">
        <ele>203.80000305176</ele>
        <time>2021-03-08T14:39:22.000Z</time>
      </trkpt>
      <trkpt lat="46.61811" lon="5.36468">
        <ele>204</ele>
        <time>2021-03-08T14:39:24.000Z</time>
      </trkpt>
      <trkpt lat="46.618" lon="5.3646">
        <ele>204.19999694824</ele>
        <time>2021-03-08T14:39:26.000Z</time>
      </trkpt>
      <trkpt lat="46.61789" lon="5.3645">
        <ele>204.39999389648</ele>
        <time>2021-03-08T14:39:28.000Z</time>
      </trkpt>
      <trkpt lat="46.61783" lon="5.36444">
        <ele>204.39999389648</ele>
        <time>2021-03-08T14:39:29.000Z</time>
      </trkpt>
      <trkpt lat="46.61778" lon="5.36438">
        <ele>204.39999389648</ele>
        <time>2021-03-08T14:39:30.000Z</time>
      </trkpt>
      <trkpt lat="46.61768" lon="5.36425">
        <ele>204.60000610352</ele>
        <time>2021-03-08T14:39:32.000Z</time>
      </trkpt>
      <trkpt lat="46.61758" lon="5.36411">
        <ele>204.60000610352</ele>
        <time>2021-03-08T14:39:34.000Z</time>
      </trkpt>
      <trkpt lat="46.61748" lon="5.36398">
        <ele>204.60000610352</ele>
        <time>2021-03-08T14:39:36.000Z</time>
      </trkpt>
      <trkpt lat="46.61742" lon="5.36393">
        <ele>204.60000610352</ele>
        <time>2021-03-08T14:39:37.000Z</time>
      </trkpt>
      <trkpt lat="46.61736" lon="5.36388">
        <ele>204.60000610352</ele>
        <time>2021-03-08T14:39:38.000Z</time>
      </trkpt>
      <trkpt lat="46.61724" lon="5.36383">
        <ele>204.60000610352</ele>
        <time>2021-03-08T14:39:40.000Z</time>
      </trkpt>
      <trkpt lat="46.61717" lon="5.36382">
        <ele>204.60000610352</ele>
        <time>2021-03-08T14:39:41.000Z</time>
      </trkpt>
      <trkpt lat="46.61711" lon="5.36381">
        <ele>204.60000610352</ele>
        <time>2021-03-08T14:39:42.000Z</time>
      </trkpt>
      <trkpt lat="46.61697" lon="5.36383">
        <ele>205</ele>
        <time>2021-03-08T14:39:44.000Z</time>
      </trkpt>
      <trkpt lat="46.6169" lon="5.36385">
        <ele>205.19999694824</ele>
        <time>2021-03-08T14:39:45.000Z</time>
      </trkpt>
      <trkpt lat="46.61683" lon="5.36388">
        <ele>205.39999389648</ele>
        <time>2021-03-08T14:39:46.000Z</time>
      </trkpt>
      <trkpt lat="46.61667" lon="5.36394">
        <ele>205.39999389648</ele>
        <time>2021-03-08T14:39:48.000Z</time>
      </trkpt>
      <trkpt lat="46.6166" lon="5.36394">
        <ele>205.39999389648</ele>
        <time>2021-03-08T14:39:49.000Z</time>
      </trkpt>
      <trkpt lat="46.61651" lon="5.36393">
        <ele>205.39999389648</ele>
        <time>2021-03-08T14:39:50.000Z</time>
      </trkpt>
      <trkpt lat="46.61639" lon="5.36382">
        <ele>205.60000610352</ele>
        <time>2021-03-08T14:39:52.000Z</time>
      </trkpt>
      <trkpt lat="46.61631" lon="5.36365">
        <ele>205.80000305176</ele>
        <time>2021-03-08T14:39:54.000Z</time>
      </trkpt>
      <trkpt lat="46.61628" lon="5.36356">
        <ele>205.80000305176</ele>
        <time>2021-03-08T14:39:55.000Z</time>
      </trkpt>
      <trkpt lat="46.61626" lon="5.36346">
        <ele>206.19999694824</ele>
        <time>2021-03-08T14:39:56.000Z</time>
      </trkpt>
      <trkpt lat="46.61624" lon="5.36337">
        <ele>206.19999694824</ele>
        <time>2021-03-08T14:39:57.000Z</time>
      </trkpt>
      <trkpt lat="46.61621" lon="5.36328">
        <ele>206.39999389648</ele>
        <time>2021-03-08T14:39:58.000Z</time>
      </trkpt>
      <trkpt lat="46.61616" lon="5.3632">
        <ele>206.39999389648</ele>
        <time>2021-03-08T14:39:59.000Z</time>
      </trkpt>
      <trkpt lat="46.61611" lon="5.36314">
        <ele>206.60000610352</ele>
        <time>2021-03-08T14:40:00.000Z</time>
      </trkpt>
      <trkpt lat="46.616" lon="5.36303">
        <ele>206.60000610352</ele>
        <time>2021-03-08T14:40:02.000Z</time>
      </trkpt>
      <trkpt lat="46.61593" lon="5.36298">
        <ele>207</ele>
        <time>2021-03-08T14:40:03.000Z</time>
      </trkpt>
      <trkpt lat="46.61586" lon="5.36294">
        <ele>207.19999694824</ele>
        <time>2021-03-08T14:40:04.000Z</time>
      </trkpt>
      <trkpt lat="46.61573" lon="5.36285">
        <ele>207.39999389648</ele>
        <time>2021-03-08T14:40:06.000Z</time>
      </trkpt>
      <trkpt lat="46.61566" lon="5.36282">
        <ele>207.60000610352</ele>
        <time>2021-03-08T14:40:07.000Z</time>
      </trkpt>
      <trkpt lat="46.61559" lon="5.36278">
        <ele>207.60000610352</ele>
        <time>2021-03-08T14:40:08.000Z</time>
      </trkpt>
      <trkpt lat="46.61545" lon="5.3627">
        <ele>207.80000305176</ele>
        <time>2021-03-08T14:40:10.000Z</time>
      </trkpt>
      <trkpt lat="46.61539" lon="5.36266">
        <ele>207.80000305176</ele>
        <time>2021-03-08T14:40:11.000Z</time>
      </trkpt>
      <trkpt lat="46.61532" lon="5.36261">
        <ele>207.80000305176</ele>
        <time>2021-03-08T14:40:12.000Z</time>
      </trkpt>
      <trkpt lat="46.61518" lon="5.36254">
        <ele>207.80000305176</ele>
        <time>2021-03-08T14:40:14.000Z</time>
      </trkpt>
      <trkpt lat="46.61503" lon="5.36248">
        <ele>207.80000305176</ele>
        <time>2021-03-08T14:40:16.000Z</time>
      </trkpt>
      <trkpt lat="46.61496" lon="5.36247">
        <ele>207.80000305176</ele>
        <time>2021-03-08T14:40:17.000Z</time>
      </trkpt>
      <trkpt lat="46.61489" lon="5.36247">
        <ele>207.80000305176</ele>
        <time>2021-03-08T14:40:18.000Z</time>
      </trkpt>
      <trkpt lat="46.61474" lon="5.36248">
        <ele>207.80000305176</ele>
        <time>2021-03-08T14:40:20.000Z</time>
      </trkpt>
      <trkpt lat="46.61467" lon="5.3625">
        <ele>207.80000305176</ele>
        <time>2021-03-08T14:40:21.000Z</time>
      </trkpt>
      <trkpt lat="46.6146" lon="5.36252">
        <ele>207.80000305176</ele>
        <time>2021-03-08T14:40:22.000Z</time>
      </trkpt>
      <trkpt lat="46.61445" lon="5.36255">
        <ele>207.80000305176</ele>
        <time>2021-03-08T14:40:24.000Z</time>
      </trkpt>
      <trkpt lat="46.6143" lon="5.36254">
        <ele>207.80000305176</ele>
        <time>2021-03-08T14:40:26.000Z</time>
      </trkpt>
      <trkpt lat="46.61423" lon="5.36253">
        <ele>207.80000305176</ele>
        <time>2021-03-08T14:40:27.000Z</time>
      </trkpt>
      <trkpt lat="46.61416" lon="5.3625">
        <ele>207.80000305176</ele>
        <time>2021-03-08T14:40:28.000Z</time>
      </trkpt>
      <trkpt lat="46.61402" lon="5.36242">
        <ele>207.80000305176</ele>
        <time>2021-03-08T14:40:30.000Z</time>
      </trkpt>
      <trkpt lat="46.61395" lon="5.36238">
        <ele>207.80000305176</ele>
        <time>2021-03-08T14:40:31.000Z</time>
      </trkpt>
      <trkpt lat="46.61388" lon="5.36233">
        <ele>207.80000305176</ele>
        <time>2021-03-08T14:40:32.000Z</time>
      </trkpt>
      <trkpt lat="46.61374" lon="5.36224">
        <ele>207.80000305176</ele>
        <time>2021-03-08T14:40:34.000Z</time>
      </trkpt>
      <trkpt lat="46.6136" lon="5.36215">
        <ele>207.80000305176</ele>
        <time>2021-03-08T14:40:36.000Z</time>
      </trkpt>
      <trkpt lat="46.61345" lon="5.36207">
        <ele>207.80000305176</ele>
        <time>2021-03-08T14:40:38.000Z</time>
      </trkpt>
      <trkpt lat="46.61329" lon="5.36201">
        <ele>207.80000305176</ele>
        <time>2021-03-08T14:40:40.000Z</time>
      </trkpt>
      <trkpt lat="46.61313" lon="5.36197">
        <ele>207.80000305176</ele>
        <time>2021-03-08T14:40:42.000Z</time>
      </trkpt>
      <trkpt lat="46.61297" lon="5.36192">
        <ele>207.60000610352</ele>
        <time>2021-03-08T14:40:44.000Z</time>
      </trkpt>
      <trkpt lat="46.61281" lon="5.36187">
        <ele>206.80000305176</ele>
        <time>2021-03-08T14:40:46.000Z</time>
      </trkpt>
      <trkpt lat="46.61273" lon="5.36183">
        <ele>206.39999389648</ele>
        <time>2021-03-08T14:40:47.000Z</time>
      </trkpt>
      <trkpt lat="46.61266" lon="5.36178">
        <ele>206.19999694824</ele>
        <time>2021-03-08T14:40:48.000Z</time>
      </trkpt>
      <trkpt lat="46.61252" lon="5.36167">
        <ele>206</ele>
        <time>2021-03-08T14:40:50.000Z</time>
      </trkpt>
      <trkpt lat="46.61246" lon="5.3616">
        <ele>205.80000305176</ele>
        <time>2021-03-08T14:40:51.000Z</time>
      </trkpt>
      <trkpt lat="46.6124" lon="5.36152">
        <ele>205.80000305176</ele>
        <time>2021-03-08T14:40:52.000Z</time>
      </trkpt>
      <trkpt lat="46.61229" lon="5.36136">
        <ele>205.80000305176</ele>
        <time>2021-03-08T14:40:54.000Z</time>
      </trkpt>
      <trkpt lat="46.61219" lon="5.36119">
        <ele>205.80000305176</ele>
        <time>2021-03-08T14:40:56.000Z</time>
      </trkpt>
      <trkpt lat="46.61211" lon="5.361">
        <ele>205.80000305176</ele>
        <time>2021-03-08T14:40:58.000Z</time>
      </trkpt>
      <trkpt lat="46.61203" lon="5.3608">
        <ele>206</ele>
        <time>2021-03-08T14:41:00.000Z</time>
      </trkpt>
      <trkpt lat="46.61193" lon="5.3606">
        <ele>206.19999694824</ele>
        <time>2021-03-08T14:41:02.000Z</time>
      </trkpt>
      <trkpt lat="46.61182" lon="5.36043">
        <ele>206.39999389648</ele>
        <time>2021-03-08T14:41:04.000Z</time>
      </trkpt>
      <trkpt lat="46.61168" lon="5.36029">
        <ele>206.39999389648</ele>
        <time>2021-03-08T14:41:06.000Z</time>
      </trkpt>
      <trkpt lat="46.61153" lon="5.36018">
        <ele>206.39999389648</ele>
        <time>2021-03-08T14:41:08.000Z</time>
      </trkpt>
      <trkpt lat="46.61138" lon="5.36007">
        <ele>206.39999389648</ele>
        <time>2021-03-08T14:41:10.000Z</time>
      </trkpt>
      <trkpt lat="46.61123" lon="5.35996">
        <ele>206.39999389648</ele>
        <time>2021-03-08T14:41:12.000Z</time>
      </trkpt>
      <trkpt lat="46.61116" lon="5.35991">
        <ele>206.39999389648</ele>
        <time>2021-03-08T14:41:13.000Z</time>
      </trkpt>
      <trkpt lat="46.61109" lon="5.35984">
        <ele>206.39999389648</ele>
        <time>2021-03-08T14:41:14.000Z</time>
      </trkpt>
      <trkpt lat="46.61096" lon="5.35971">
        <ele>206.19999694824</ele>
        <time>2021-03-08T14:41:16.000Z</time>
      </trkpt>
      <trkpt lat="46.61084" lon="5.35955">
        <ele>206</ele>
        <time>2021-03-08T14:41:18.000Z</time>
      </trkpt>
      <trkpt lat="46.61074" lon="5.35936">
        <ele>205.80000305176</ele>
        <time>2021-03-08T14:41:20.000Z</time>
      </trkpt>
      <trkpt lat="46.61065" lon="5.35918">
        <ele>205.80000305176</ele>
        <time>2021-03-08T14:41:22.000Z</time>
      </trkpt>
      <trkpt lat="46.61056" lon="5.35899">
        <ele>205.80000305176</ele>
        <time>2021-03-08T14:41:24.000Z</time>
      </trkpt>
      <trkpt lat="46.61047" lon="5.3588">
        <ele>205.80000305176</ele>
        <time>2021-03-08T14:41:26.000Z</time>
      </trkpt>
      <trkpt lat="46.61038" lon="5.35862">
        <ele>205.80000305176</ele>
        <time>2021-03-08T14:41:28.000Z</time>
      </trkpt>
      <trkpt lat="46.61029" lon="5.35844">
        <ele>205.80000305176</ele>
        <time>2021-03-08T14:41:30.000Z</time>
      </trkpt>
      <trkpt lat="46.6102" lon="5.35825">
        <ele>205.80000305176</ele>
        <time>2021-03-08T14:41:32.000Z</time>
      </trkpt>
      <trkpt lat="46.61015" lon="5.35816">
        <ele>205.80000305176</ele>
        <time>2021-03-08T14:41:33.000Z</time>
      </trkpt>
      <trkpt lat="46.61011" lon="5.35806">
        <ele>205.80000305176</ele>
        <time>2021-03-08T14:41:34.000Z</time>
      </trkpt>
      <trkpt lat="46.61001" lon="5.35788">
        <ele>205.80000305176</ele>
        <time>2021-03-08T14:41:36.000Z</time>
      </trkpt>
      <trkpt lat="46.60993" lon="5.3577">
        <ele>205.80000305176</ele>
        <time>2021-03-08T14:41:38.000Z</time>
      </trkpt>
      <trkpt lat="46.60984" lon="5.35752">
        <ele>205.80000305176</ele>
        <time>2021-03-08T14:41:40.000Z</time>
      </trkpt>
      <trkpt lat="46.60975" lon="5.35733">
        <ele>205.80000305176</ele>
        <time>2021-03-08T14:41:42.000Z</time>
      </trkpt>
      <trkpt lat="46.60972" lon="5.35724">
        <ele>205.80000305176</ele>
        <time>2021-03-08T14:41:43.000Z</time>
      </trkpt>
      <trkpt lat="46.60968" lon="5.35715">
        <ele>205.80000305176</ele>
        <time>2021-03-08T14:41:44.000Z</time>
      </trkpt>
      <trkpt lat="46.6096" lon="5.35697">
        <ele>205.80000305176</ele>
        <time>2021-03-08T14:41:46.000Z</time>
      </trkpt>
      <trkpt lat="46.60954" lon="5.35679">
        <ele>205.80000305176</ele>
        <time>2021-03-08T14:41:48.000Z</time>
      </trkpt>
      <trkpt lat="46.60947" lon="5.35662">
        <ele>205.80000305176</ele>
        <time>2021-03-08T14:41:50.000Z</time>
      </trkpt>
      <trkpt lat="46.60944" lon="5.35653">
        <ele>205.80000305176</ele>
        <time>2021-03-08T14:41:51.000Z</time>
      </trkpt>
      <trkpt lat="46.60941" lon="5.35644">
        <ele>206</ele>
        <time>2021-03-08T14:41:52.000Z</time>
      </trkpt>
      <trkpt lat="46.60939" lon="5.35626">
        <ele>206</ele>
        <time>2021-03-08T14:41:54.000Z</time>
      </trkpt>
      <trkpt lat="46.60939" lon="5.35618">
        <ele>206</ele>
        <time>2021-03-08T14:41:55.000Z</time>
      </trkpt>
      <trkpt lat="46.6094" lon="5.35609">
        <ele>206</ele>
        <time>2021-03-08T14:41:56.000Z</time>
      </trkpt>
      <trkpt lat="46.60943" lon="5.35593">
        <ele>206</ele>
        <time>2021-03-08T14:41:58.000Z</time>
      </trkpt>
      <trkpt lat="46.60947" lon="5.35578">
        <ele>206</ele>
        <time>2021-03-08T14:42:00.000Z</time>
      </trkpt>
      <trkpt lat="46.6095" lon="5.35562">
        <ele>206.19999694824</ele>
        <time>2021-03-08T14:42:02.000Z</time>
      </trkpt>
      <trkpt lat="46.60951" lon="5.35554">
        <ele>206.19999694824</ele>
        <time>2021-03-08T14:42:03.000Z</time>
      </trkpt>
      <trkpt lat="46.60952" lon="5.35546">
        <ele>206.19999694824</ele>
        <time>2021-03-08T14:42:04.000Z</time>
      </trkpt>
      <trkpt lat="46.60954" lon="5.35529">
        <ele>206.60000610352</ele>
        <time>2021-03-08T14:42:06.000Z</time>
      </trkpt>
      <trkpt lat="46.60954" lon="5.35521">
        <ele>206.80000305176</ele>
        <time>2021-03-08T14:42:07.000Z</time>
      </trkpt>
      <trkpt lat="46.60954" lon="5.35512">
        <ele>207</ele>
        <time>2021-03-08T14:42:08.000Z</time>
      </trkpt>
      <trkpt lat="46.60954" lon="5.35496">
        <ele>207.39999389648</ele>
        <time>2021-03-08T14:42:10.000Z</time>
      </trkpt>
      <trkpt lat="46.60952" lon="5.35478">
        <ele>207.60000610352</ele>
        <time>2021-03-08T14:42:12.000Z</time>
      </trkpt>
      <trkpt lat="46.6095" lon="5.35461">
        <ele>208</ele>
        <time>2021-03-08T14:42:14.000Z</time>
      </trkpt>
      <trkpt lat="46.60945" lon="5.35445">
        <ele>208.19999694824</ele>
        <time>2021-03-08T14:42:16.000Z</time>
      </trkpt>
      <trkpt lat="46.60937" lon="5.35431">
        <ele>208.39999389648</ele>
        <time>2021-03-08T14:42:18.000Z</time>
      </trkpt>
      <trkpt lat="46.60927" lon="5.35421">
        <ele>208.60000610352</ele>
        <time>2021-03-08T14:42:20.000Z</time>
      </trkpt>
      <trkpt lat="46.60922" lon="5.35416">
        <ele>208.60000610352</ele>
        <time>2021-03-08T14:42:21.000Z</time>
      </trkpt>
      <trkpt lat="46.60916" lon="5.35412">
        <ele>208.60000610352</ele>
        <time>2021-03-08T14:42:22.000Z</time>
      </trkpt>
      <trkpt lat="46.60911" lon="5.35409">
        <ele>208.60000610352</ele>
        <time>2021-03-08T14:42:23.000Z</time>
      </trkpt>
      <trkpt lat="46.60905" lon="5.35405">
        <ele>208.80000305176</ele>
        <time>2021-03-08T14:42:24.000Z</time>
      </trkpt>
      <trkpt lat="46.60893" lon="5.35398">
        <ele>208.80000305176</ele>
        <time>2021-03-08T14:42:26.000Z</time>
      </trkpt>
      <trkpt lat="46.6088" lon="5.35393">
        <ele>209</ele>
        <time>2021-03-08T14:42:28.000Z</time>
      </trkpt>
      <trkpt lat="46.60873" lon="5.35392">
        <ele>209</ele>
        <time>2021-03-08T14:42:29.000Z</time>
      </trkpt>
      <trkpt lat="46.60866" lon="5.35392">
        <ele>209</ele>
        <time>2021-03-08T14:42:30.000Z</time>
      </trkpt>
      <trkpt lat="46.60853" lon="5.35397">
        <ele>209</ele>
        <time>2021-03-08T14:42:32.000Z</time>
      </trkpt>
      <trkpt lat="46.60839" lon="5.35406">
        <ele>209.19999694824</ele>
        <time>2021-03-08T14:42:34.000Z</time>
      </trkpt>
      <trkpt lat="46.60825" lon="5.35417">
        <ele>209.19999694824</ele>
        <time>2021-03-08T14:42:36.000Z</time>
      </trkpt>
      <trkpt lat="46.60818" lon="5.35421">
        <ele>209.19999694824</ele>
        <time>2021-03-08T14:42:37.000Z</time>
      </trkpt>
      <trkpt lat="46.6081" lon="5.35424">
        <ele>209.19999694824</ele>
        <time>2021-03-08T14:42:38.000Z</time>
      </trkpt>
      <trkpt lat="46.60801" lon="5.35425">
        <ele>209.19999694824</ele>
        <time>2021-03-08T14:42:39.000Z</time>
      </trkpt>
      <trkpt lat="46.60793" lon="5.35424">
        <ele>209.19999694824</ele>
        <time>2021-03-08T14:42:40.000Z</time>
      </trkpt>
      <trkpt lat="46.60776" lon="5.3542">
        <ele>208.60000610352</ele>
        <time>2021-03-08T14:42:42.000Z</time>
      </trkpt>
      <trkpt lat="46.60768" lon="5.35416">
        <ele>208</ele>
        <time>2021-03-08T14:42:43.000Z</time>
      </trkpt>
      <trkpt lat="46.6076" lon="5.35411">
        <ele>207.80000305176</ele>
        <time>2021-03-08T14:42:44.000Z</time>
      </trkpt>
      <trkpt lat="46.60753" lon="5.35406">
        <ele>207.19999694824</ele>
        <time>2021-03-08T14:42:45.000Z</time>
      </trkpt>
      <trkpt lat="46.60746" lon="5.354">
        <ele>206.60000610352</ele>
        <time>2021-03-08T14:42:46.000Z</time>
      </trkpt>
      <trkpt lat="46.60738" lon="5.35394">
        <ele>205.80000305176</ele>
        <time>2021-03-08T14:42:47.000Z</time>
      </trkpt>
      <trkpt lat="46.60732" lon="5.35386">
        <ele>205.39999389648</ele>
        <time>2021-03-08T14:42:48.000Z</time>
      </trkpt>
      <trkpt lat="46.60719" lon="5.35368">
        <ele>205</ele>
        <time>2021-03-08T14:42:50.000Z</time>
      </trkpt>
      <trkpt lat="46.60706" lon="5.35349">
        <ele>205</ele>
        <time>2021-03-08T14:42:52.000Z</time>
      </trkpt>
      <trkpt lat="46.607" lon="5.3534">
        <ele>204.60000610352</ele>
        <time>2021-03-08T14:42:53.000Z</time>
      </trkpt>
      <trkpt lat="46.60694" lon="5.35331">
        <ele>204.39999389648</ele>
        <time>2021-03-08T14:42:54.000Z</time>
      </trkpt>
      <trkpt lat="46.60681" lon="5.35314">
        <ele>203.39999389648</ele>
        <time>2021-03-08T14:42:56.000Z</time>
      </trkpt>
      <trkpt lat="46.60673" lon="5.35307">
        <ele>202.80000305176</ele>
        <time>2021-03-08T14:42:57.000Z</time>
      </trkpt>
      <trkpt lat="46.60666" lon="5.353">
        <ele>202</ele>
        <time>2021-03-08T14:42:58.000Z</time>
      </trkpt>
      <trkpt lat="46.6065" lon="5.3529">
        <ele>200.80000305176</ele>
        <time>2021-03-08T14:43:00.000Z</time>
      </trkpt>
      <trkpt lat="46.60641" lon="5.35285">
        <ele>200.60000610352</ele>
        <time>2021-03-08T14:43:01.000Z</time>
      </trkpt>
      <trkpt lat="46.60633" lon="5.3528">
        <ele>200.39999389648</ele>
        <time>2021-03-08T14:43:02.000Z</time>
      </trkpt>
      <trkpt lat="46.60617" lon="5.35268">
        <ele>200</ele>
        <time>2021-03-08T14:43:04.000Z</time>
      </trkpt>
      <trkpt lat="46.6061" lon="5.3526">
        <ele>199.60000610352</ele>
        <time>2021-03-08T14:43:05.000Z</time>
      </trkpt>
      <trkpt lat="46.60603" lon="5.35253">
        <ele>199.39999389648</ele>
        <time>2021-03-08T14:43:06.000Z</time>
      </trkpt>
      <trkpt lat="46.60589" lon="5.35235">
        <ele>199</ele>
        <time>2021-03-08T14:43:08.000Z</time>
      </trkpt>
      <trkpt lat="46.60583" lon="5.35226">
        <ele>198.60000610352</ele>
        <time>2021-03-08T14:43:09.000Z</time>
      </trkpt>
      <trkpt lat="46.60577" lon="5.35216">
        <ele>198.19999694824</ele>
        <time>2021-03-08T14:43:10.000Z</time>
      </trkpt>
      <trkpt lat="46.60566" lon="5.35199">
        <ele>197.39999389648</ele>
        <time>2021-03-08T14:43:12.000Z</time>
      </trkpt>
      <trkpt lat="46.60558" lon="5.35186">
        <ele>197</ele>
        <time>2021-03-08T14:43:14.000Z</time>
      </trkpt>
      <trkpt lat="46.60556" lon="5.35172">
        <ele>196.39999389648</ele>
        <time>2021-03-08T14:43:16.000Z</time>
      </trkpt>
      <trkpt lat="46.60557" lon="5.35164">
        <ele>196.19999694824</ele>
        <time>2021-03-08T14:43:17.000Z</time>
      </trkpt>
      <trkpt lat="46.60558" lon="5.35156">
        <ele>196</ele>
        <time>2021-03-08T14:43:18.000Z</time>
      </trkpt>
      <trkpt lat="46.6056" lon="5.35138">
        <ele>195.80000305176</ele>
        <time>2021-03-08T14:43:20.000Z</time>
      </trkpt>
      <trkpt lat="46.60561" lon="5.35129">
        <ele>195.80000305176</ele>
        <time>2021-03-08T14:43:21.000Z</time>
      </trkpt>
      <trkpt lat="46.60562" lon="5.3512">
        <ele>195.80000305176</ele>
        <time>2021-03-08T14:43:22.000Z</time>
      </trkpt>
      <trkpt lat="46.60562" lon="5.35111">
        <ele>195.60000610352</ele>
        <time>2021-03-08T14:43:23.000Z</time>
      </trkpt>
      <trkpt lat="46.60562" lon="5.35101">
        <ele>195.60000610352</ele>
        <time>2021-03-08T14:43:24.000Z</time>
      </trkpt>
      <trkpt lat="46.60561" lon="5.35081">
        <ele>195.60000610352</ele>
        <time>2021-03-08T14:43:26.000Z</time>
      </trkpt>
      <trkpt lat="46.6056" lon="5.35061">
        <ele>195.60000610352</ele>
        <time>2021-03-08T14:43:28.000Z</time>
      </trkpt>
      <trkpt lat="46.60559" lon="5.3504">
        <ele>195.60000610352</ele>
        <time>2021-03-08T14:43:30.000Z</time>
      </trkpt>
      <trkpt lat="46.60559" lon="5.35029">
        <ele>195.60000610352</ele>
        <time>2021-03-08T14:43:31.000Z</time>
      </trkpt>
      <trkpt lat="46.60558" lon="5.35017">
        <ele>195.60000610352</ele>
        <time>2021-03-08T14:43:32.000Z</time>
      </trkpt>
      <trkpt lat="46.60557" lon="5.34993">
        <ele>195.60000610352</ele>
        <time>2021-03-08T14:43:34.000Z</time>
      </trkpt>
      <trkpt lat="46.60556" lon="5.34969">
        <ele>195.39999389648</ele>
        <time>2021-03-08T14:43:36.000Z</time>
      </trkpt>
      <trkpt lat="46.60555" lon="5.34956">
        <ele>195.19999694824</ele>
        <time>2021-03-08T14:43:37.000Z</time>
      </trkpt>
      <trkpt lat="46.60555" lon="5.34943">
        <ele>195</ele>
        <time>2021-03-08T14:43:38.000Z</time>
      </trkpt>
      <trkpt lat="46.60553" lon="5.34918">
        <ele>194.39999389648</ele>
        <time>2021-03-08T14:43:40.000Z</time>
      </trkpt>
      <trkpt lat="46.60553" lon="5.34905">
        <ele>193.80000305176</ele>
        <time>2021-03-08T14:43:41.000Z</time>
      </trkpt>
      <trkpt lat="46.60552" lon="5.34893">
        <ele>193.19999694824</ele>
        <time>2021-03-08T14:43:42.000Z</time>
      </trkpt>
      <trkpt lat="46.60551" lon="5.34869">
        <ele>192.60000610352</ele>
        <time>2021-03-08T14:43:44.000Z</time>
      </trkpt>
      <trkpt lat="46.6055" lon="5.34847">
        <ele>191.80000305176</ele>
        <time>2021-03-08T14:43:46.000Z</time>
      </trkpt>
      <trkpt lat="46.60549" lon="5.34825">
        <ele>191.39999389648</ele>
        <time>2021-03-08T14:43:48.000Z</time>
      </trkpt>
      <trkpt lat="46.60548" lon="5.34805">
        <ele>191.39999389648</ele>
        <time>2021-03-08T14:43:50.000Z</time>
      </trkpt>
      <trkpt lat="46.60547" lon="5.34786">
        <ele>191.39999389648</ele>
        <time>2021-03-08T14:43:52.000Z</time>
      </trkpt>
      <trkpt lat="46.60547" lon="5.34776">
        <ele>191.39999389648</ele>
        <time>2021-03-08T14:43:53.000Z</time>
      </trkpt>
      <trkpt lat="46.60546" lon="5.34767">
        <ele>191.39999389648</ele>
        <time>2021-03-08T14:43:54.000Z</time>
      </trkpt>
      <trkpt lat="46.60546" lon="5.34749">
        <ele>191.80000305176</ele>
        <time>2021-03-08T14:43:56.000Z</time>
      </trkpt>
      <trkpt lat="46.60545" lon="5.34732">
        <ele>192.39999389648</ele>
        <time>2021-03-08T14:43:58.000Z</time>
      </trkpt>
      <trkpt lat="46.60545" lon="5.34723">
        <ele>192.80000305176</ele>
        <time>2021-03-08T14:43:59.000Z</time>
      </trkpt>
      <trkpt lat="46.60544" lon="5.34715">
        <ele>193.19999694824</ele>
        <time>2021-03-08T14:44:00.000Z</time>
      </trkpt>
      <trkpt lat="46.60543" lon="5.34699">
        <ele>193.80000305176</ele>
        <time>2021-03-08T14:44:02.000Z</time>
      </trkpt>
      <trkpt lat="46.60543" lon="5.3469">
        <ele>193.80000305176</ele>
        <time>2021-03-08T14:44:03.000Z</time>
      </trkpt>
      <trkpt lat="46.60543" lon="5.34683">
        <ele>194</ele>
        <time>2021-03-08T14:44:04.000Z</time>
      </trkpt>
      <trkpt lat="46.60542" lon="5.34667">
        <ele>194.39999389648</ele>
        <time>2021-03-08T14:44:06.000Z</time>
      </trkpt>
      <trkpt lat="46.60541" lon="5.34651">
        <ele>194.60000610352</ele>
        <time>2021-03-08T14:44:08.000Z</time>
      </trkpt>
      <trkpt lat="46.6054" lon="5.34636">
        <ele>195</ele>
        <time>2021-03-08T14:44:10.000Z</time>
      </trkpt>
      <trkpt lat="46.6054" lon="5.34628">
        <ele>195</ele>
        <time>2021-03-08T14:44:11.000Z</time>
      </trkpt>
      <trkpt lat="46.60539" lon="5.3462">
        <ele>195.19999694824</ele>
        <time>2021-03-08T14:44:12.000Z</time>
      </trkpt>
      <trkpt lat="46.60538" lon="5.34604">
        <ele>195.60000610352</ele>
        <time>2021-03-08T14:44:14.000Z</time>
      </trkpt>
      <trkpt lat="46.60537" lon="5.34586">
        <ele>195.80000305176</ele>
        <time>2021-03-08T14:44:16.000Z</time>
      </trkpt>
      <trkpt lat="46.60537" lon="5.34568">
        <ele>195.80000305176</ele>
        <time>2021-03-08T14:44:18.000Z</time>
      </trkpt>
      <trkpt lat="46.60536" lon="5.34559">
        <ele>195.80000305176</ele>
        <time>2021-03-08T14:44:19.000Z</time>
      </trkpt>
      <trkpt lat="46.60536" lon="5.3455">
        <ele>195.80000305176</ele>
        <time>2021-03-08T14:44:20.000Z</time>
      </trkpt>
      <trkpt lat="46.60535" lon="5.34532">
        <ele>195.80000305176</ele>
        <time>2021-03-08T14:44:22.000Z</time>
      </trkpt>
      <trkpt lat="46.60534" lon="5.34514">
        <ele>195.80000305176</ele>
        <time>2021-03-08T14:44:24.000Z</time>
      </trkpt>
      <trkpt lat="46.60533" lon="5.34497">
        <ele>195.80000305176</ele>
        <time>2021-03-08T14:44:26.000Z</time>
      </trkpt>
      <trkpt lat="46.60532" lon="5.3448">
        <ele>195.80000305176</ele>
        <time>2021-03-08T14:44:28.000Z</time>
      </trkpt>
      <trkpt lat="46.60532" lon="5.34463">
        <ele>195.80000305176</ele>
        <time>2021-03-08T14:44:30.000Z</time>
      </trkpt>
      <trkpt lat="46.60531" lon="5.34448">
        <ele>195.80000305176</ele>
        <time>2021-03-08T14:44:32.000Z</time>
      </trkpt>
      <trkpt lat="46.6053" lon="5.34432">
        <ele>195.80000305176</ele>
        <time>2021-03-08T14:44:34.000Z</time>
      </trkpt>
      <trkpt lat="46.60529" lon="5.34417">
        <ele>196.19999694824</ele>
        <time>2021-03-08T14:44:36.000Z</time>
      </trkpt>
      <trkpt lat="46.60529" lon="5.34402">
        <ele>196.60000610352</ele>
        <time>2021-03-08T14:44:38.000Z</time>
      </trkpt>
      <trkpt lat="46.60528" lon="5.34388">
        <ele>196.80000305176</ele>
        <time>2021-03-08T14:44:40.000Z</time>
      </trkpt>
      <trkpt lat="46.60527" lon="5.34374">
        <ele>197.19999694824</ele>
        <time>2021-03-08T14:44:42.000Z</time>
      </trkpt>
      <trkpt lat="46.60527" lon="5.34367">
        <ele>197.39999389648</ele>
        <time>2021-03-08T14:44:43.000Z</time>
      </trkpt>
      <trkpt lat="46.60527" lon="5.3436">
        <ele>197.39999389648</ele>
        <time>2021-03-08T14:44:44.000Z</time>
      </trkpt>
      <trkpt lat="46.60526" lon="5.34347">
        <ele>198</ele>
        <time>2021-03-08T14:44:46.000Z</time>
      </trkpt>
      <trkpt lat="46.60526" lon="5.3434">
        <ele>198.39999389648</ele>
        <time>2021-03-08T14:44:47.000Z</time>
      </trkpt>
      <trkpt lat="46.60526" lon="5.34334">
        <ele>198.80000305176</ele>
        <time>2021-03-08T14:44:48.000Z</time>
      </trkpt>
      <trkpt lat="46.60525" lon="5.34322">
        <ele>199.60000610352</ele>
        <time>2021-03-08T14:44:50.000Z</time>
      </trkpt>
      <trkpt lat="46.60524" lon="5.34309">
        <ele>200.19999694824</ele>
        <time>2021-03-08T14:44:52.000Z</time>
      </trkpt>
      <trkpt lat="46.60524" lon="5.34297">
        <ele>200.60000610352</ele>
        <time>2021-03-08T14:44:54.000Z</time>
      </trkpt>
      <trkpt lat="46.60524" lon="5.34291">
        <ele>200.80000305176</ele>
        <time>2021-03-08T14:44:55.000Z</time>
      </trkpt>
      <trkpt lat="46.60523" lon="5.34285">
        <ele>200.80000305176</ele>
        <time>2021-03-08T14:44:56.000Z</time>
      </trkpt>
      <trkpt lat="46.60523" lon="5.34273">
        <ele>201.60000610352</ele>
        <time>2021-03-08T14:44:58.000Z</time>
      </trkpt>
      <trkpt lat="46.60522" lon="5.34268">
        <ele>202</ele>
        <time>2021-03-08T14:44:59.000Z</time>
      </trkpt>
      <trkpt lat="46.60522" lon="5.34262">
        <ele>202.19999694824</ele>
        <time>2021-03-08T14:45:00.000Z</time>
      </trkpt>
      <trkpt lat="46.60522" lon="5.34256">
        <ele>202.39999389648</ele>
        <time>2021-03-08T14:45:01.000Z</time>
      </trkpt>
      <trkpt lat="46.60521" lon="5.3425">
        <ele>202.60000610352</ele>
        <time>2021-03-08T14:45:02.000Z</time>
      </trkpt>
      <trkpt lat="46.60521" lon="5.34244">
        <ele>202.80000305176</ele>
        <time>2021-03-08T14:45:03.000Z</time>
      </trkpt>
      <trkpt lat="46.60521" lon="5.34238">
        <ele>203.19999694824</ele>
        <time>2021-03-08T14:45:04.000Z</time>
      </trkpt>
      <trkpt lat="46.60521" lon="5.34227">
        <ele>203.60000610352</ele>
        <time>2021-03-08T14:45:06.000Z</time>
      </trkpt>
      <trkpt lat="46.6052" lon="5.34217">
        <ele>204</ele>
        <time>2021-03-08T14:45:08.000Z</time>
      </trkpt>
      <trkpt lat="46.6052" lon="5.34211">
        <ele>204.19999694824</ele>
        <time>2021-03-08T14:45:09.000Z</time>
      </trkpt>
      <trkpt lat="46.60519" lon="5.34206">
        <ele>204.19999694824</ele>
        <time>2021-03-08T14:45:10.000Z</time>
      </trkpt>
      <trkpt lat="46.60518" lon="5.34194">
        <ele>204.60000610352</ele>
        <time>2021-03-08T14:45:12.000Z</time>
      </trkpt>
      <trkpt lat="46.60517" lon="5.34189">
        <ele>204.80000305176</ele>
        <time>2021-03-08T14:45:13.000Z</time>
      </trkpt>
      <trkpt lat="46.60515" lon="5.34183">
        <ele>204.80000305176</ele>
        <time>2021-03-08T14:45:14.000Z</time>
      </trkpt>
      <trkpt lat="46.60514" lon="5.34177">
        <ele>205.19999694824</ele>
        <time>2021-03-08T14:45:15.000Z</time>
      </trkpt>
      <trkpt lat="46.60512" lon="5.34172">
        <ele>205.80000305176</ele>
        <time>2021-03-08T14:45:16.000Z</time>
      </trkpt>
      <trkpt lat="46.60507" lon="5.34161">
        <ele>206.80000305176</ele>
        <time>2021-03-08T14:45:18.000Z</time>
      </trkpt>
      <trkpt lat="46.60501" lon="5.3415">
        <ele>207.19999694824</ele>
        <time>2021-03-08T14:45:20.000Z</time>
      </trkpt>
      <trkpt lat="46.60495" lon="5.3414">
        <ele>207.60000610352</ele>
        <time>2021-03-08T14:45:22.000Z</time>
      </trkpt>
      <trkpt lat="46.60489" lon="5.34129">
        <ele>208</ele>
        <time>2021-03-08T14:45:24.000Z</time>
      </trkpt>
      <trkpt lat="46.60482" lon="5.34119">
        <ele>208.39999389648</ele>
        <time>2021-03-08T14:45:26.000Z</time>
      </trkpt>
      <trkpt lat="46.60476" lon="5.34109">
        <ele>208.39999389648</ele>
        <time>2021-03-08T14:45:28.000Z</time>
      </trkpt>
      <trkpt lat="46.60469" lon="5.34098">
        <ele>208.60000610352</ele>
        <time>2021-03-08T14:45:30.000Z</time>
      </trkpt>
      <trkpt lat="46.60466" lon="5.34093">
        <ele>208.60000610352</ele>
        <time>2021-03-08T14:45:31.000Z</time>
      </trkpt>
      <trkpt lat="46.60462" lon="5.34087">
        <ele>208.60000610352</ele>
        <time>2021-03-08T14:45:32.000Z</time>
      </trkpt>
      <trkpt lat="46.60456" lon="5.34075">
        <ele>209</ele>
        <time>2021-03-08T14:45:34.000Z</time>
      </trkpt>
      <trkpt lat="46.60451" lon="5.34062">
        <ele>209</ele>
        <time>2021-03-08T14:45:36.000Z</time>
      </trkpt>
      <trkpt lat="46.60446" lon="5.34049">
        <ele>209</ele>
        <time>2021-03-08T14:45:38.000Z</time>
      </trkpt>
      <trkpt lat="46.60442" lon="5.34035">
        <ele>209</ele>
        <time>2021-03-08T14:45:40.000Z</time>
      </trkpt>
      <trkpt lat="46.60439" lon="5.3402">
        <ele>209</ele>
        <time>2021-03-08T14:45:42.000Z</time>
      </trkpt>
      <trkpt lat="46.60436" lon="5.34005">
        <ele>209</ele>
        <time>2021-03-08T14:45:44.000Z</time>
      </trkpt>
      <trkpt lat="46.60435" lon="5.33998">
        <ele>209</ele>
        <time>2021-03-08T14:45:45.000Z</time>
      </trkpt>
      <trkpt lat="46.60434" lon="5.3399">
        <ele>209</ele>
        <time>2021-03-08T14:45:46.000Z</time>
      </trkpt>
      <trkpt lat="46.60432" lon="5.33974">
        <ele>208.80000305176</ele>
        <time>2021-03-08T14:45:48.000Z</time>
      </trkpt>
      <trkpt lat="46.60429" lon="5.33958">
        <ele>208.80000305176</ele>
        <time>2021-03-08T14:45:50.000Z</time>
      </trkpt>
      <trkpt lat="46.60427" lon="5.33941">
        <ele>208.80000305176</ele>
        <time>2021-03-08T14:45:52.000Z</time>
      </trkpt>
      <trkpt lat="46.60424" lon="5.33924">
        <ele>208.80000305176</ele>
        <time>2021-03-08T14:45:54.000Z</time>
      </trkpt>
      <trkpt lat="46.60423" lon="5.33907">
        <ele>208.80000305176</ele>
        <time>2021-03-08T14:45:56.000Z</time>
      </trkpt>
      <trkpt lat="46.60422" lon="5.33889">
        <ele>208.80000305176</ele>
        <time>2021-03-08T14:45:58.000Z</time>
      </trkpt>
      <trkpt lat="46.60422" lon="5.33872">
        <ele>208.60000610352</ele>
        <time>2021-03-08T14:46:00.000Z</time>
      </trkpt>
      <trkpt lat="46.60423" lon="5.33854">
        <ele>208.39999389648</ele>
        <time>2021-03-08T14:46:02.000Z</time>
      </trkpt>
      <trkpt lat="46.60424" lon="5.33836">
        <ele>208.39999389648</ele>
        <time>2021-03-08T14:46:04.000Z</time>
      </trkpt>
      <trkpt lat="46.60426" lon="5.33819">
        <ele>208.19999694824</ele>
        <time>2021-03-08T14:46:06.000Z</time>
      </trkpt>
      <trkpt lat="46.60427" lon="5.33801">
        <ele>207.80000305176</ele>
        <time>2021-03-08T14:46:08.000Z</time>
      </trkpt>
      <trkpt lat="46.60428" lon="5.33782">
        <ele>207.80000305176</ele>
        <time>2021-03-08T14:46:10.000Z</time>
      </trkpt>
      <trkpt lat="46.6043" lon="5.33765">
        <ele>207.60000610352</ele>
        <time>2021-03-08T14:46:12.000Z</time>
      </trkpt>
      <trkpt lat="46.60432" lon="5.33747">
        <ele>207.60000610352</ele>
        <time>2021-03-08T14:46:14.000Z</time>
      </trkpt>
      <trkpt lat="46.60434" lon="5.33728">
        <ele>207.60000610352</ele>
        <time>2021-03-08T14:46:16.000Z</time>
      </trkpt>
      <trkpt lat="46.60436" lon="5.3371">
        <ele>207.80000305176</ele>
        <time>2021-03-08T14:46:18.000Z</time>
      </trkpt>
      <trkpt lat="46.60436" lon="5.33701">
        <ele>207.80000305176</ele>
        <time>2021-03-08T14:46:19.000Z</time>
      </trkpt>
      <trkpt lat="46.60437" lon="5.33691">
        <ele>207.80000305176</ele>
        <time>2021-03-08T14:46:20.000Z</time>
      </trkpt>
      <trkpt lat="46.60439" lon="5.33673">
        <ele>208</ele>
        <time>2021-03-08T14:46:22.000Z</time>
      </trkpt>
      <trkpt lat="46.60441" lon="5.33654">
        <ele>208</ele>
        <time>2021-03-08T14:46:24.000Z</time>
      </trkpt>
      <trkpt lat="46.60444" lon="5.33635">
        <ele>208.19999694824</ele>
        <time>2021-03-08T14:46:26.000Z</time>
      </trkpt>
      <trkpt lat="46.60447" lon="5.33616">
        <ele>208.19999694824</ele>
        <time>2021-03-08T14:46:28.000Z</time>
      </trkpt>
      <trkpt lat="46.6045" lon="5.33597">
        <ele>208.19999694824</ele>
        <time>2021-03-08T14:46:30.000Z</time>
      </trkpt>
      <trkpt lat="46.60454" lon="5.33579">
        <ele>208.39999389648</ele>
        <time>2021-03-08T14:46:32.000Z</time>
      </trkpt>
      <trkpt lat="46.60458" lon="5.3356">
        <ele>208.39999389648</ele>
        <time>2021-03-08T14:46:34.000Z</time>
      </trkpt>
      <trkpt lat="46.60463" lon="5.33542">
        <ele>208.39999389648</ele>
        <time>2021-03-08T14:46:36.000Z</time>
      </trkpt>
      <trkpt lat="46.60467" lon="5.33523">
        <ele>208.39999389648</ele>
        <time>2021-03-08T14:46:38.000Z</time>
      </trkpt>
      <trkpt lat="46.60469" lon="5.33514">
        <ele>208.39999389648</ele>
        <time>2021-03-08T14:46:39.000Z</time>
      </trkpt>
      <trkpt lat="46.60471" lon="5.33505">
        <ele>208.39999389648</ele>
        <time>2021-03-08T14:46:40.000Z</time>
      </trkpt>
      <trkpt lat="46.60476" lon="5.33487">
        <ele>208.39999389648</ele>
        <time>2021-03-08T14:46:42.000Z</time>
      </trkpt>
      <trkpt lat="46.6048" lon="5.33468">
        <ele>208.39999389648</ele>
        <time>2021-03-08T14:46:44.000Z</time>
      </trkpt>
      <trkpt lat="46.60485" lon="5.33449">
        <ele>208</ele>
        <time>2021-03-08T14:46:46.000Z</time>
      </trkpt>
      <trkpt lat="46.6049" lon="5.3343">
        <ele>208</ele>
        <time>2021-03-08T14:46:48.000Z</time>
      </trkpt>
      <trkpt lat="46.60494" lon="5.3341">
        <ele>208</ele>
        <time>2021-03-08T14:46:50.000Z</time>
      </trkpt>
      <trkpt lat="46.60499" lon="5.33391">
        <ele>207.80000305176</ele>
        <time>2021-03-08T14:46:52.000Z</time>
      </trkpt>
      <trkpt lat="46.60504" lon="5.33371">
        <ele>207.60000610352</ele>
        <time>2021-03-08T14:46:54.000Z</time>
      </trkpt>
      <trkpt lat="46.60509" lon="5.3335">
        <ele>207.39999389648</ele>
        <time>2021-03-08T14:46:56.000Z</time>
      </trkpt>
      <trkpt lat="46.60512" lon="5.3334">
        <ele>207.19999694824</ele>
        <time>2021-03-08T14:46:57.000Z</time>
      </trkpt>
      <trkpt lat="46.60514" lon="5.33329">
        <ele>207</ele>
        <time>2021-03-08T14:46:58.000Z</time>
      </trkpt>
      <trkpt lat="46.60519" lon="5.33308">
        <ele>206.80000305176</ele>
        <time>2021-03-08T14:47:00.000Z</time>
      </trkpt>
      <trkpt lat="46.60525" lon="5.33286">
        <ele>206.60000610352</ele>
        <time>2021-03-08T14:47:02.000Z</time>
      </trkpt>
      <trkpt lat="46.6053" lon="5.33265">
        <ele>206.19999694824</ele>
        <time>2021-03-08T14:47:04.000Z</time>
      </trkpt>
      <trkpt lat="46.60536" lon="5.33244">
        <ele>205.60000610352</ele>
        <time>2021-03-08T14:47:06.000Z</time>
      </trkpt>
      <trkpt lat="46.60541" lon="5.33223">
        <ele>205.39999389648</ele>
        <time>2021-03-08T14:47:08.000Z</time>
      </trkpt>
      <trkpt lat="46.60546" lon="5.33204">
        <ele>205.19999694824</ele>
        <time>2021-03-08T14:47:10.000Z</time>
      </trkpt>
      <trkpt lat="46.60551" lon="5.33185">
        <ele>205.19999694824</ele>
        <time>2021-03-08T14:47:12.000Z</time>
      </trkpt>
      <trkpt lat="46.60553" lon="5.33176">
        <ele>205.19999694824</ele>
        <time>2021-03-08T14:47:13.000Z</time>
      </trkpt>
      <trkpt lat="46.60555" lon="5.33166">
        <ele>205.19999694824</ele>
        <time>2021-03-08T14:47:14.000Z</time>
      </trkpt>
      <trkpt lat="46.60557" lon="5.33148">
        <ele>205.39999389648</ele>
        <time>2021-03-08T14:47:16.000Z</time>
      </trkpt>
      <trkpt lat="46.60558" lon="5.33129">
        <ele>206</ele>
        <time>2021-03-08T14:47:18.000Z</time>
      </trkpt>
      <trkpt lat="46.60558" lon="5.33119">
        <ele>206.39999389648</ele>
        <time>2021-03-08T14:47:19.000Z</time>
      </trkpt>
      <trkpt lat="46.60559" lon="5.33108">
        <ele>206.60000610352</ele>
        <time>2021-03-08T14:47:20.000Z</time>
      </trkpt>
      <trkpt lat="46.60558" lon="5.33086">
        <ele>206.80000305176</ele>
        <time>2021-03-08T14:47:22.000Z</time>
      </trkpt>
      <trkpt lat="46.60558" lon="5.33063">
        <ele>206.80000305176</ele>
        <time>2021-03-08T14:47:24.000Z</time>
      </trkpt>
      <trkpt lat="46.60558" lon="5.33052">
        <ele>206.80000305176</ele>
        <time>2021-03-08T14:47:25.000Z</time>
      </trkpt>
      <trkpt lat="46.60558" lon="5.3304">
        <ele>206.80000305176</ele>
        <time>2021-03-08T14:47:26.000Z</time>
      </trkpt>
      <trkpt lat="46.60558" lon="5.33016">
        <ele>206.80000305176</ele>
        <time>2021-03-08T14:47:28.000Z</time>
      </trkpt>
      <trkpt lat="46.60558" lon="5.32992">
        <ele>206.39999389648</ele>
        <time>2021-03-08T14:47:30.000Z</time>
      </trkpt>
      <trkpt lat="46.60558" lon="5.32968">
        <ele>205.60000610352</ele>
        <time>2021-03-08T14:47:32.000Z</time>
      </trkpt>
      <trkpt lat="46.60558" lon="5.32944">
        <ele>204.60000610352</ele>
        <time>2021-03-08T14:47:34.000Z</time>
      </trkpt>
      <trkpt lat="46.60557" lon="5.3292">
        <ele>204</ele>
        <time>2021-03-08T14:47:36.000Z</time>
      </trkpt>
      <trkpt lat="46.60558" lon="5.32896">
        <ele>203.60000610352</ele>
        <time>2021-03-08T14:47:38.000Z</time>
      </trkpt>
      <trkpt lat="46.60558" lon="5.32873">
        <ele>203.19999694824</ele>
        <time>2021-03-08T14:47:40.000Z</time>
      </trkpt>
      <trkpt lat="46.60558" lon="5.32862">
        <ele>203</ele>
        <time>2021-03-08T14:47:41.000Z</time>
      </trkpt>
      <trkpt lat="46.60558" lon="5.32851">
        <ele>202.80000305176</ele>
        <time>2021-03-08T14:47:42.000Z</time>
      </trkpt>
      <trkpt lat="46.60557" lon="5.32829">
        <ele>202.60000610352</ele>
        <time>2021-03-08T14:47:44.000Z</time>
      </trkpt>
      <trkpt lat="46.60557" lon="5.32808">
        <ele>202.60000610352</ele>
        <time>2021-03-08T14:47:46.000Z</time>
      </trkpt>
      <trkpt lat="46.60557" lon="5.32788">
        <ele>202.39999389648</ele>
        <time>2021-03-08T14:47:48.000Z</time>
      </trkpt>
      <trkpt lat="46.60557" lon="5.32778">
        <ele>202.39999389648</ele>
        <time>2021-03-08T14:47:49.000Z</time>
      </trkpt>
      <trkpt lat="46.60558" lon="5.32768">
        <ele>202.39999389648</ele>
        <time>2021-03-08T14:47:50.000Z</time>
      </trkpt>
      <trkpt lat="46.60558" lon="5.32749">
        <ele>203</ele>
        <time>2021-03-08T14:47:52.000Z</time>
      </trkpt>
      <trkpt lat="46.60558" lon="5.32731">
        <ele>203.19999694824</ele>
        <time>2021-03-08T14:47:54.000Z</time>
      </trkpt>
      <trkpt lat="46.60558" lon="5.32714">
        <ele>203.39999389648</ele>
        <time>2021-03-08T14:47:56.000Z</time>
      </trkpt>
      <trkpt lat="46.60558" lon="5.32706">
        <ele>203.60000610352</ele>
        <time>2021-03-08T14:47:57.000Z</time>
      </trkpt>
      <trkpt lat="46.60558" lon="5.32698">
        <ele>203.60000610352</ele>
        <time>2021-03-08T14:47:58.000Z</time>
      </trkpt>
      <trkpt lat="46.60558" lon="5.32681">
        <ele>204.19999694824</ele>
        <time>2021-03-08T14:48:00.000Z</time>
      </trkpt>
      <trkpt lat="46.60558" lon="5.32664">
        <ele>204.19999694824</ele>
        <time>2021-03-08T14:48:02.000Z</time>
      </trkpt>
      <trkpt lat="46.60558" lon="5.32646">
        <ele>204.60000610352</ele>
        <time>2021-03-08T14:48:04.000Z</time>
      </trkpt>
      <trkpt lat="46.60558" lon="5.32629">
        <ele>205.19999694824</ele>
        <time>2021-03-08T14:48:06.000Z</time>
      </trkpt>
      <trkpt lat="46.60557" lon="5.32621">
        <ele>205.80000305176</ele>
        <time>2021-03-08T14:48:07.000Z</time>
      </trkpt>
      <trkpt lat="46.60557" lon="5.32612">
        <ele>205.80000305176</ele>
        <time>2021-03-08T14:48:08.000Z</time>
      </trkpt>
      <trkpt lat="46.60555" lon="5.32595">
        <ele>206.39999389648</ele>
        <time>2021-03-08T14:48:10.000Z</time>
      </trkpt>
      <trkpt lat="46.60554" lon="5.32587">
        <ele>206.39999389648</ele>
        <time>2021-03-08T14:48:11.000Z</time>
      </trkpt>
      <trkpt lat="46.60553" lon="5.32578">
        <ele>206.80000305176</ele>
        <time>2021-03-08T14:48:12.000Z</time>
      </trkpt>
      <trkpt lat="46.60551" lon="5.3257">
        <ele>207</ele>
        <time>2021-03-08T14:48:13.000Z</time>
      </trkpt>
      <trkpt lat="46.60548" lon="5.32562">
        <ele>207.19999694824</ele>
        <time>2021-03-08T14:48:14.000Z</time>
      </trkpt>
      <trkpt lat="46.60544" lon="5.32545">
        <ele>207.39999389648</ele>
        <time>2021-03-08T14:48:16.000Z</time>
      </trkpt>
      <trkpt lat="46.60538" lon="5.32529">
        <ele>207.60000610352</ele>
        <time>2021-03-08T14:48:18.000Z</time>
      </trkpt>
      <trkpt lat="46.60533" lon="5.32512">
        <ele>207.60000610352</ele>
        <time>2021-03-08T14:48:20.000Z</time>
      </trkpt>
      <trkpt lat="46.60527" lon="5.32494">
        <ele>207.60000610352</ele>
        <time>2021-03-08T14:48:22.000Z</time>
      </trkpt>
      <trkpt lat="46.60522" lon="5.32477">
        <ele>207.60000610352</ele>
        <time>2021-03-08T14:48:24.000Z</time>
      </trkpt>
      <trkpt lat="46.60516" lon="5.32459">
        <ele>207.60000610352</ele>
        <time>2021-03-08T14:48:26.000Z</time>
      </trkpt>
      <trkpt lat="46.60513" lon="5.3245">
        <ele>207.60000610352</ele>
        <time>2021-03-08T14:48:27.000Z</time>
      </trkpt>
      <trkpt lat="46.60509" lon="5.3244">
        <ele>207.60000610352</ele>
        <time>2021-03-08T14:48:28.000Z</time>
      </trkpt>
      <trkpt lat="46.60503" lon="5.32422">
        <ele>207.39999389648</ele>
        <time>2021-03-08T14:48:30.000Z</time>
      </trkpt>
      <trkpt lat="46.60497" lon="5.32403">
        <ele>207.39999389648</ele>
        <time>2021-03-08T14:48:32.000Z</time>
      </trkpt>
      <trkpt lat="46.60491" lon="5.32384">
        <ele>207.39999389648</ele>
        <time>2021-03-08T14:48:34.000Z</time>
      </trkpt>
      <trkpt lat="46.60485" lon="5.32364">
        <ele>207.39999389648</ele>
        <time>2021-03-08T14:48:36.000Z</time>
      </trkpt>
      <trkpt lat="46.60478" lon="5.32345">
        <ele>207.19999694824</ele>
        <time>2021-03-08T14:48:38.000Z</time>
      </trkpt>
      <trkpt lat="46.60472" lon="5.32326">
        <ele>207.19999694824</ele>
        <time>2021-03-08T14:48:40.000Z</time>
      </trkpt>
      <trkpt lat="46.60465" lon="5.32306">
        <ele>207.19999694824</ele>
        <time>2021-03-08T14:48:42.000Z</time>
      </trkpt>
      <trkpt lat="46.60458" lon="5.32288">
        <ele>207.19999694824</ele>
        <time>2021-03-08T14:48:44.000Z</time>
      </trkpt>
      <trkpt lat="46.6045" lon="5.32269">
        <ele>207</ele>
        <time>2021-03-08T14:48:46.000Z</time>
      </trkpt>
      <trkpt lat="46.60446" lon="5.3226">
        <ele>207</ele>
        <time>2021-03-08T14:48:47.000Z</time>
      </trkpt>
      <trkpt lat="46.60441" lon="5.3225">
        <ele>206.80000305176</ele>
        <time>2021-03-08T14:48:48.000Z</time>
      </trkpt>
      <trkpt lat="46.60433" lon="5.32232">
        <ele>206.60000610352</ele>
        <time>2021-03-08T14:48:50.000Z</time>
      </trkpt>
      <trkpt lat="46.60424" lon="5.32214">
        <ele>206.60000610352</ele>
        <time>2021-03-08T14:48:52.000Z</time>
      </trkpt>
      <trkpt lat="46.60415" lon="5.32196">
        <ele>206.39999389648</ele>
        <time>2021-03-08T14:48:54.000Z</time>
      </trkpt>
      <trkpt lat="46.60405" lon="5.32178">
        <ele>206.39999389648</ele>
        <time>2021-03-08T14:48:56.000Z</time>
      </trkpt>
      <trkpt lat="46.60396" lon="5.3216">
        <ele>206.19999694824</ele>
        <time>2021-03-08T14:48:58.000Z</time>
      </trkpt>
      <trkpt lat="46.60387" lon="5.32142">
        <ele>206</ele>
        <time>2021-03-08T14:49:00.000Z</time>
      </trkpt>
      <trkpt lat="46.60378" lon="5.32124">
        <ele>205.80000305176</ele>
        <time>2021-03-08T14:49:02.000Z</time>
      </trkpt>
      <trkpt lat="46.60369" lon="5.32106">
        <ele>205.80000305176</ele>
        <time>2021-03-08T14:49:04.000Z</time>
      </trkpt>
      <trkpt lat="46.6036" lon="5.32088">
        <ele>205.80000305176</ele>
        <time>2021-03-08T14:49:06.000Z</time>
      </trkpt>
      <trkpt lat="46.60352" lon="5.32071">
        <ele>205.80000305176</ele>
        <time>2021-03-08T14:49:08.000Z</time>
      </trkpt>
      <trkpt lat="46.60343" lon="5.32054">
        <ele>205.80000305176</ele>
        <time>2021-03-08T14:49:10.000Z</time>
      </trkpt>
      <trkpt lat="46.60335" lon="5.32037">
        <ele>205.80000305176</ele>
        <time>2021-03-08T14:49:12.000Z</time>
      </trkpt>
      <trkpt lat="46.60326" lon="5.3202">
        <ele>206</ele>
        <time>2021-03-08T14:49:14.000Z</time>
      </trkpt>
      <trkpt lat="46.60318" lon="5.32003">
        <ele>206</ele>
        <time>2021-03-08T14:49:16.000Z</time>
      </trkpt>
      <trkpt lat="46.60309" lon="5.31986">
        <ele>206</ele>
        <time>2021-03-08T14:49:18.000Z</time>
      </trkpt>
      <trkpt lat="46.603" lon="5.31969">
        <ele>206.19999694824</ele>
        <time>2021-03-08T14:49:20.000Z</time>
      </trkpt>
      <trkpt lat="46.60291" lon="5.31951">
        <ele>206.19999694824</ele>
        <time>2021-03-08T14:49:22.000Z</time>
      </trkpt>
      <trkpt lat="46.60283" lon="5.31933">
        <ele>206.19999694824</ele>
        <time>2021-03-08T14:49:24.000Z</time>
      </trkpt>
      <trkpt lat="46.60274" lon="5.31915">
        <ele>206.19999694824</ele>
        <time>2021-03-08T14:49:26.000Z</time>
      </trkpt>
      <trkpt lat="46.60265" lon="5.31897">
        <ele>206.19999694824</ele>
        <time>2021-03-08T14:49:28.000Z</time>
      </trkpt>
      <trkpt lat="46.6026" lon="5.31888">
        <ele>206</ele>
        <time>2021-03-08T14:49:29.000Z</time>
      </trkpt>
      <trkpt lat="46.60256" lon="5.31879">
        <ele>206</ele>
        <time>2021-03-08T14:49:30.000Z</time>
      </trkpt>
      <trkpt lat="46.60247" lon="5.31861">
        <ele>205.80000305176</ele>
        <time>2021-03-08T14:49:32.000Z</time>
      </trkpt>
      <trkpt lat="46.60238" lon="5.31844">
        <ele>205.80000305176</ele>
        <time>2021-03-08T14:49:34.000Z</time>
      </trkpt>
      <trkpt lat="46.60229" lon="5.31826">
        <ele>205.80000305176</ele>
        <time>2021-03-08T14:49:36.000Z</time>
      </trkpt>
      <trkpt lat="46.6022" lon="5.31808">
        <ele>205.60000610352</ele>
        <time>2021-03-08T14:49:38.000Z</time>
      </trkpt>
      <trkpt lat="46.60216" lon="5.318">
        <ele>205.60000610352</ele>
        <time>2021-03-08T14:49:39.000Z</time>
      </trkpt>
      <trkpt lat="46.60211" lon="5.31791">
        <ele>205.60000610352</ele>
        <time>2021-03-08T14:49:40.000Z</time>
      </trkpt>
      <trkpt lat="46.60202" lon="5.31773">
        <ele>205.39999389648</ele>
        <time>2021-03-08T14:49:42.000Z</time>
      </trkpt>
      <trkpt lat="46.60193" lon="5.31754">
        <ele>205</ele>
        <time>2021-03-08T14:49:44.000Z</time>
      </trkpt>
      <trkpt lat="46.60184" lon="5.31735">
        <ele>204.80000305176</ele>
        <time>2021-03-08T14:49:46.000Z</time>
      </trkpt>
      <trkpt lat="46.60179" lon="5.31725">
        <ele>204.80000305176</ele>
        <time>2021-03-08T14:49:47.000Z</time>
      </trkpt>
      <trkpt lat="46.60174" lon="5.31716">
        <ele>204.80000305176</ele>
        <time>2021-03-08T14:49:48.000Z</time>
      </trkpt>
      <trkpt lat="46.60164" lon="5.31696">
        <ele>204.60000610352</ele>
        <time>2021-03-08T14:49:50.000Z</time>
      </trkpt>
      <trkpt lat="46.60154" lon="5.31675">
        <ele>204.19999694824</ele>
        <time>2021-03-08T14:49:52.000Z</time>
      </trkpt>
      <trkpt lat="46.60143" lon="5.31655">
        <ele>203.80000305176</ele>
        <time>2021-03-08T14:49:54.000Z</time>
      </trkpt>
      <trkpt lat="46.60138" lon="5.31645">
        <ele>203.60000610352</ele>
        <time>2021-03-08T14:49:55.000Z</time>
      </trkpt>
      <trkpt lat="46.60133" lon="5.31634">
        <ele>203.19999694824</ele>
        <time>2021-03-08T14:49:56.000Z</time>
      </trkpt>
      <trkpt lat="46.60127" lon="5.31624">
        <ele>203</ele>
        <time>2021-03-08T14:49:57.000Z</time>
      </trkpt>
      <trkpt lat="46.60122" lon="5.31614">
        <ele>202.80000305176</ele>
        <time>2021-03-08T14:49:58.000Z</time>
      </trkpt>
      <trkpt lat="46.60112" lon="5.31593">
        <ele>202.19999694824</ele>
        <time>2021-03-08T14:50:00.000Z</time>
      </trkpt>
      <trkpt lat="46.60101" lon="5.31573">
        <ele>201.60000610352</ele>
        <time>2021-03-08T14:50:02.000Z</time>
      </trkpt>
      <trkpt lat="46.60091" lon="5.31554">
        <ele>201.39999389648</ele>
        <time>2021-03-08T14:50:04.000Z</time>
      </trkpt>
      <trkpt lat="46.60082" lon="5.31535">
        <ele>201.19999694824</ele>
        <time>2021-03-08T14:50:06.000Z</time>
      </trkpt>
      <trkpt lat="46.60077" lon="5.31526">
        <ele>201.19999694824</ele>
        <time>2021-03-08T14:50:07.000Z</time>
      </trkpt>
      <trkpt lat="46.60073" lon="5.31517">
        <ele>201.19999694824</ele>
        <time>2021-03-08T14:50:08.000Z</time>
      </trkpt>
      <trkpt lat="46.60065" lon="5.31497">
        <ele>201.19999694824</ele>
        <time>2021-03-08T14:50:10.000Z</time>
      </trkpt>
      <trkpt lat="46.60059" lon="5.31477">
        <ele>201.19999694824</ele>
        <time>2021-03-08T14:50:12.000Z</time>
      </trkpt>
      <trkpt lat="46.60055" lon="5.31456">
        <ele>201.39999389648</ele>
        <time>2021-03-08T14:50:14.000Z</time>
      </trkpt>
      <trkpt lat="46.60053" lon="5.31435">
        <ele>201.39999389648</ele>
        <time>2021-03-08T14:50:16.000Z</time>
      </trkpt>
      <trkpt lat="46.60052" lon="5.31425">
        <ele>201.39999389648</ele>
        <time>2021-03-08T14:50:17.000Z</time>
      </trkpt>
      <trkpt lat="46.60052" lon="5.31415">
        <ele>201.60000610352</ele>
        <time>2021-03-08T14:50:18.000Z</time>
      </trkpt>
      <trkpt lat="46.60053" lon="5.31394">
        <ele>201.80000305176</ele>
        <time>2021-03-08T14:50:20.000Z</time>
      </trkpt>
      <trkpt lat="46.60055" lon="5.31374">
        <ele>202</ele>
        <time>2021-03-08T14:50:22.000Z</time>
      </trkpt>
      <trkpt lat="46.60055" lon="5.31365">
        <ele>202</ele>
        <time>2021-03-08T14:50:23.000Z</time>
      </trkpt>
      <trkpt lat="46.60056" lon="5.31355">
        <ele>202</ele>
        <time>2021-03-08T14:50:24.000Z</time>
      </trkpt>
      <trkpt lat="46.60057" lon="5.31336">
        <ele>202.39999389648</ele>
        <time>2021-03-08T14:50:26.000Z</time>
      </trkpt>
      <trkpt lat="46.60058" lon="5.31316">
        <ele>202.60000610352</ele>
        <time>2021-03-08T14:50:28.000Z</time>
      </trkpt>
      <trkpt lat="46.6006" lon="5.31297">
        <ele>202.80000305176</ele>
        <time>2021-03-08T14:50:30.000Z</time>
      </trkpt>
      <trkpt lat="46.60061" lon="5.31278">
        <ele>203</ele>
        <time>2021-03-08T14:50:32.000Z</time>
      </trkpt>
      <trkpt lat="46.60062" lon="5.3126">
        <ele>203</ele>
        <time>2021-03-08T14:50:34.000Z</time>
      </trkpt>
      <trkpt lat="46.60063" lon="5.31241">
        <ele>203.19999694824</ele>
        <time>2021-03-08T14:50:36.000Z</time>
      </trkpt>
      <trkpt lat="46.60063" lon="5.31231">
        <ele>203.39999389648</ele>
        <time>2021-03-08T14:50:37.000Z</time>
      </trkpt>
      <trkpt lat="46.60064" lon="5.31222">
        <ele>203.39999389648</ele>
        <time>2021-03-08T14:50:38.000Z</time>
      </trkpt>
      <trkpt lat="46.60065" lon="5.31203">
        <ele>203.39999389648</ele>
        <time>2021-03-08T14:50:40.000Z</time>
      </trkpt>
      <trkpt lat="46.60066" lon="5.31185">
        <ele>203.60000610352</ele>
        <time>2021-03-08T14:50:42.000Z</time>
      </trkpt>
      <trkpt lat="46.60067" lon="5.31167">
        <ele>203.60000610352</ele>
        <time>2021-03-08T14:50:44.000Z</time>
      </trkpt>
      <trkpt lat="46.60068" lon="5.31149">
        <ele>203.80000305176</ele>
        <time>2021-03-08T14:50:46.000Z</time>
      </trkpt>
      <trkpt lat="46.6007" lon="5.31131">
        <ele>204</ele>
        <time>2021-03-08T14:50:48.000Z</time>
      </trkpt>
      <trkpt lat="46.60071" lon="5.31113">
        <ele>204.19999694824</ele>
        <time>2021-03-08T14:50:50.000Z</time>
      </trkpt>
      <trkpt lat="46.60072" lon="5.31104">
        <ele>204.19999694824</ele>
        <time>2021-03-08T14:50:51.000Z</time>
      </trkpt>
      <trkpt lat="46.60073" lon="5.31094">
        <ele>204.19999694824</ele>
        <time>2021-03-08T14:50:52.000Z</time>
      </trkpt>
      <trkpt lat="46.60076" lon="5.31076">
        <ele>204.19999694824</ele>
        <time>2021-03-08T14:50:54.000Z</time>
      </trkpt>
      <trkpt lat="46.60082" lon="5.31059">
        <ele>204.19999694824</ele>
        <time>2021-03-08T14:50:56.000Z</time>
      </trkpt>
      <trkpt lat="46.60085" lon="5.31052">
        <ele>204.19999694824</ele>
        <time>2021-03-08T14:50:57.000Z</time>
      </trkpt>
      <trkpt lat="46.60089" lon="5.31044">
        <ele>204.19999694824</ele>
        <time>2021-03-08T14:50:58.000Z</time>
      </trkpt>
      <trkpt lat="46.60097" lon="5.31029">
        <ele>204.19999694824</ele>
        <time>2021-03-08T14:51:00.000Z</time>
      </trkpt>
      <trkpt lat="46.60103" lon="5.31016">
        <ele>204.19999694824</ele>
        <time>2021-03-08T14:51:02.000Z</time>
      </trkpt>
      <trkpt lat="46.60108" lon="5.31007">
        <ele>204</ele>
        <time>2021-03-08T14:51:04.000Z</time>
      </trkpt>
      <trkpt lat="46.60109" lon="5.31002">
        <ele>204</ele>
        <time>2021-03-08T14:51:05.000Z</time>
      </trkpt>
      <trkpt lat="46.60108" lon="5.30997">
        <ele>204</ele>
        <time>2021-03-08T14:51:06.000Z</time>
      </trkpt>
      <trkpt lat="46.60101" lon="5.30991">
        <ele>204</ele>
        <time>2021-03-08T14:51:08.000Z</time>
      </trkpt>
      <trkpt lat="46.60097" lon="5.30986">
        <ele>204</ele>
        <time>2021-03-08T14:51:09.000Z</time>
      </trkpt>
      <trkpt lat="46.60093" lon="5.30981">
        <ele>204</ele>
        <time>2021-03-08T14:51:10.000Z</time>
      </trkpt>
      <trkpt lat="46.60083" lon="5.3097">
        <ele>204</ele>
        <time>2021-03-08T14:51:12.000Z</time>
      </trkpt>
      <trkpt lat="46.60072" lon="5.30958">
        <ele>204.19999694824</ele>
        <time>2021-03-08T14:51:14.000Z</time>
      </trkpt>
      <trkpt lat="46.60061" lon="5.30945">
        <ele>204.19999694824</ele>
        <time>2021-03-08T14:51:16.000Z</time>
      </trkpt>
      <trkpt lat="46.60049" lon="5.30931">
        <ele>204.19999694824</ele>
        <time>2021-03-08T14:51:18.000Z</time>
      </trkpt>
      <trkpt lat="46.60037" lon="5.30918">
        <ele>204.19999694824</ele>
        <time>2021-03-08T14:51:20.000Z</time>
      </trkpt>
      <trkpt lat="46.60025" lon="5.30904">
        <ele>204.19999694824</ele>
        <time>2021-03-08T14:51:22.000Z</time>
      </trkpt>
      <trkpt lat="46.60013" lon="5.3089">
        <ele>204</ele>
        <time>2021-03-08T14:51:24.000Z</time>
      </trkpt>
      <trkpt lat="46.6" lon="5.30876">
        <ele>202.80000305176</ele>
        <time>2021-03-08T14:51:26.000Z</time>
      </trkpt>
      <trkpt lat="46.59987" lon="5.30861">
        <ele>202.19999694824</ele>
        <time>2021-03-08T14:51:28.000Z</time>
      </trkpt>
      <trkpt lat="46.59974" lon="5.30847">
        <ele>201.60000610352</ele>
        <time>2021-03-08T14:51:30.000Z</time>
      </trkpt>
      <trkpt lat="46.59958" lon="5.30834">
        <ele>201.39999389648</ele>
        <time>2021-03-08T14:51:32.000Z</time>
      </trkpt>
      <trkpt lat="46.5995" lon="5.3083">
        <ele>201.39999389648</ele>
        <time>2021-03-08T14:51:33.000Z</time>
      </trkpt>
      <trkpt lat="46.59942" lon="5.30828">
        <ele>201</ele>
        <time>2021-03-08T14:51:34.000Z</time>
      </trkpt>
      <trkpt lat="46.59924" lon="5.30825">
        <ele>200.80000305176</ele>
        <time>2021-03-08T14:51:36.000Z</time>
      </trkpt>
      <trkpt lat="46.59906" lon="5.30821">
        <ele>200.60000610352</ele>
        <time>2021-03-08T14:51:38.000Z</time>
      </trkpt>
      <trkpt lat="46.59888" lon="5.30818">
        <ele>200</ele>
        <time>2021-03-08T14:51:40.000Z</time>
      </trkpt>
      <trkpt lat="46.59869" lon="5.30815">
        <ele>199.39999389648</ele>
        <time>2021-03-08T14:51:42.000Z</time>
      </trkpt>
      <trkpt lat="46.59851" lon="5.30809">
        <ele>198.80000305176</ele>
        <time>2021-03-08T14:51:44.000Z</time>
      </trkpt>
      <trkpt lat="46.59833" lon="5.30804">
        <ele>198.60000610352</ele>
        <time>2021-03-08T14:51:46.000Z</time>
      </trkpt>
      <trkpt lat="46.59815" lon="5.30797">
        <ele>198.19999694824</ele>
        <time>2021-03-08T14:51:48.000Z</time>
      </trkpt>
      <trkpt lat="46.59797" lon="5.30789">
        <ele>198</ele>
        <time>2021-03-08T14:51:50.000Z</time>
      </trkpt>
      <trkpt lat="46.59787" lon="5.30785">
        <ele>197.39999389648</ele>
        <time>2021-03-08T14:51:51.000Z</time>
      </trkpt>
      <trkpt lat="46.59778" lon="5.30783">
        <ele>197</ele>
        <time>2021-03-08T14:51:52.000Z</time>
      </trkpt>
      <trkpt lat="46.59757" lon="5.30782">
        <ele>196.60000610352</ele>
        <time>2021-03-08T14:51:54.000Z</time>
      </trkpt>
      <trkpt lat="46.59747" lon="5.30783">
        <ele>196.19999694824</ele>
        <time>2021-03-08T14:51:55.000Z</time>
      </trkpt>
      <trkpt lat="46.59736" lon="5.30783">
        <ele>196</ele>
        <time>2021-03-08T14:51:56.000Z</time>
      </trkpt>
      <trkpt lat="46.59713" lon="5.30785">
        <ele>195.60000610352</ele>
        <time>2021-03-08T14:51:58.000Z</time>
      </trkpt>
      <trkpt lat="46.5969" lon="5.30786">
        <ele>195.19999694824</ele>
        <time>2021-03-08T14:52:00.000Z</time>
      </trkpt>
      <trkpt lat="46.59679" lon="5.30787">
        <ele>195</ele>
        <time>2021-03-08T14:52:01.000Z</time>
      </trkpt>
      <trkpt lat="46.59667" lon="5.30788">
        <ele>194.60000610352</ele>
        <time>2021-03-08T14:52:02.000Z</time>
      </trkpt>
      <trkpt lat="46.59655" lon="5.30789">
        <ele>193.39999389648</ele>
        <time>2021-03-08T14:52:03.000Z</time>
      </trkpt>
      <trkpt lat="46.59643" lon="5.3079">
        <ele>192.60000610352</ele>
        <time>2021-03-08T14:52:04.000Z</time>
      </trkpt>
      <trkpt lat="46.59631" lon="5.30791">
        <ele>191.60000610352</ele>
        <time>2021-03-08T14:52:05.000Z</time>
      </trkpt>
      <trkpt lat="46.5962" lon="5.30793">
        <ele>191</ele>
        <time>2021-03-08T14:52:06.000Z</time>
      </trkpt>
      <trkpt lat="46.59608" lon="5.30795">
        <ele>190.19999694824</ele>
        <time>2021-03-08T14:52:07.000Z</time>
      </trkpt>
      <trkpt lat="46.59597" lon="5.30796">
        <ele>189.80000305176</ele>
        <time>2021-03-08T14:52:08.000Z</time>
      </trkpt>
      <trkpt lat="46.59586" lon="5.30798">
        <ele>189.19999694824</ele>
        <time>2021-03-08T14:52:09.000Z</time>
      </trkpt>
      <trkpt lat="46.59575" lon="5.30799">
        <ele>188.19999694824</ele>
        <time>2021-03-08T14:52:10.000Z</time>
      </trkpt>
      <trkpt lat="46.59565" lon="5.30801">
        <ele>187.39999389648</ele>
        <time>2021-03-08T14:52:11.000Z</time>
      </trkpt>
      <trkpt lat="46.59554" lon="5.30802">
        <ele>187</ele>
        <time>2021-03-08T14:52:12.000Z</time>
      </trkpt>
      <trkpt lat="46.59534" lon="5.30805">
        <ele>186.60000610352</ele>
        <time>2021-03-08T14:52:14.000Z</time>
      </trkpt>
      <trkpt lat="46.59514" lon="5.30808">
        <ele>186.60000610352</ele>
        <time>2021-03-08T14:52:16.000Z</time>
      </trkpt>
      <trkpt lat="46.59494" lon="5.30811">
        <ele>186.60000610352</ele>
        <time>2021-03-08T14:52:18.000Z</time>
      </trkpt>
      <trkpt lat="46.59475" lon="5.30814">
        <ele>186.60000610352</ele>
        <time>2021-03-08T14:52:20.000Z</time>
      </trkpt>
      <trkpt lat="46.59455" lon="5.30816">
        <ele>186.80000305176</ele>
        <time>2021-03-08T14:52:22.000Z</time>
      </trkpt>
      <trkpt lat="46.59437" lon="5.30818">
        <ele>186.80000305176</ele>
        <time>2021-03-08T14:52:24.000Z</time>
      </trkpt>
      <trkpt lat="46.59427" lon="5.30819">
        <ele>186.80000305176</ele>
        <time>2021-03-08T14:52:25.000Z</time>
      </trkpt>
      <trkpt lat="46.59418" lon="5.30821">
        <ele>187</ele>
        <time>2021-03-08T14:52:26.000Z</time>
      </trkpt>
      <trkpt lat="46.59401" lon="5.30824">
        <ele>187</ele>
        <time>2021-03-08T14:52:28.000Z</time>
      </trkpt>
      <trkpt lat="46.59384" lon="5.30826">
        <ele>187.19999694824</ele>
        <time>2021-03-08T14:52:30.000Z</time>
      </trkpt>
      <trkpt lat="46.59367" lon="5.30829">
        <ele>187.60000610352</ele>
        <time>2021-03-08T14:52:32.000Z</time>
      </trkpt>
      <trkpt lat="46.59359" lon="5.3083">
        <ele>187.80000305176</ele>
        <time>2021-03-08T14:52:33.000Z</time>
      </trkpt>
      <trkpt lat="46.59351" lon="5.30831">
        <ele>187.80000305176</ele>
        <time>2021-03-08T14:52:34.000Z</time>
      </trkpt>
      <trkpt lat="46.59335" lon="5.30833">
        <ele>188.19999694824</ele>
        <time>2021-03-08T14:52:36.000Z</time>
      </trkpt>
      <trkpt lat="46.59327" lon="5.30834">
        <ele>188.60000610352</ele>
        <time>2021-03-08T14:52:37.000Z</time>
      </trkpt>
      <trkpt lat="46.5932" lon="5.30835">
        <ele>189.19999694824</ele>
        <time>2021-03-08T14:52:38.000Z</time>
      </trkpt>
      <trkpt lat="46.59305" lon="5.30837">
        <ele>189.60000610352</ele>
        <time>2021-03-08T14:52:40.000Z</time>
      </trkpt>
      <trkpt lat="46.59297" lon="5.30838">
        <ele>189.80000305176</ele>
        <time>2021-03-08T14:52:41.000Z</time>
      </trkpt>
      <trkpt lat="46.5929" lon="5.30839">
        <ele>190</ele>
        <time>2021-03-08T14:52:42.000Z</time>
      </trkpt>
      <trkpt lat="46.59276" lon="5.30841">
        <ele>190.39999389648</ele>
        <time>2021-03-08T14:52:44.000Z</time>
      </trkpt>
      <trkpt lat="46.59262" lon="5.30843">
        <ele>191</ele>
        <time>2021-03-08T14:52:46.000Z</time>
      </trkpt>
      <trkpt lat="46.59248" lon="5.30845">
        <ele>192</ele>
        <time>2021-03-08T14:52:48.000Z</time>
      </trkpt>
      <trkpt lat="46.59241" lon="5.30845">
        <ele>192.39999389648</ele>
        <time>2021-03-08T14:52:49.000Z</time>
      </trkpt>
      <trkpt lat="46.59234" lon="5.30846">
        <ele>192.60000610352</ele>
        <time>2021-03-08T14:52:50.000Z</time>
      </trkpt>
      <trkpt lat="46.59227" lon="5.30847">
        <ele>192.80000305176</ele>
        <time>2021-03-08T14:52:51.000Z</time>
      </trkpt>
      <trkpt lat="46.59221" lon="5.30848">
        <ele>193.19999694824</ele>
        <time>2021-03-08T14:52:52.000Z</time>
      </trkpt>
      <trkpt lat="46.59214" lon="5.30849">
        <ele>193.39999389648</ele>
        <time>2021-03-08T14:52:53.000Z</time>
      </trkpt>
      <trkpt lat="46.59207" lon="5.30849">
        <ele>193.60000610352</ele>
        <time>2021-03-08T14:52:54.000Z</time>
      </trkpt>
      <trkpt lat="46.59194" lon="5.30851">
        <ele>194.19999694824</ele>
        <time>2021-03-08T14:52:56.000Z</time>
      </trkpt>
      <trkpt lat="46.59188" lon="5.30852">
        <ele>194.60000610352</ele>
        <time>2021-03-08T14:52:57.000Z</time>
      </trkpt>
      <trkpt lat="46.59182" lon="5.30853">
        <ele>194.80000305176</ele>
        <time>2021-03-08T14:52:58.000Z</time>
      </trkpt>
      <trkpt lat="46.5917" lon="5.30855">
        <ele>195.39999389648</ele>
        <time>2021-03-08T14:53:00.000Z</time>
      </trkpt>
      <trkpt lat="46.59164" lon="5.30855">
        <ele>195.80000305176</ele>
        <time>2021-03-08T14:53:01.000Z</time>
      </trkpt>
      <trkpt lat="46.59158" lon="5.30856">
        <ele>196.39999389648</ele>
        <time>2021-03-08T14:53:02.000Z</time>
      </trkpt>
      <trkpt lat="46.59147" lon="5.30857">
        <ele>196.60000610352</ele>
        <time>2021-03-08T14:53:04.000Z</time>
      </trkpt>
      <trkpt lat="46.59135" lon="5.30858">
        <ele>197</ele>
        <time>2021-03-08T14:53:06.000Z</time>
      </trkpt>
      <trkpt lat="46.59129" lon="5.30859">
        <ele>197.19999694824</ele>
        <time>2021-03-08T14:53:07.000Z</time>
      </trkpt>
      <trkpt lat="46.59124" lon="5.3086">
        <ele>197.39999389648</ele>
        <time>2021-03-08T14:53:08.000Z</time>
      </trkpt>
      <trkpt lat="46.59112" lon="5.30861">
        <ele>198</ele>
        <time>2021-03-08T14:53:10.000Z</time>
      </trkpt>
      <trkpt lat="46.59107" lon="5.30862">
        <ele>198.39999389648</ele>
        <time>2021-03-08T14:53:11.000Z</time>
      </trkpt>
      <trkpt lat="46.59101" lon="5.30863">
        <ele>198.39999389648</ele>
        <time>2021-03-08T14:53:12.000Z</time>
      </trkpt>
      <trkpt lat="46.59091" lon="5.30864">
        <ele>198.80000305176</ele>
        <time>2021-03-08T14:53:14.000Z</time>
      </trkpt>
      <trkpt lat="46.5908" lon="5.30866">
        <ele>199.39999389648</ele>
        <time>2021-03-08T14:53:16.000Z</time>
      </trkpt>
      <trkpt lat="46.5907" lon="5.30867">
        <ele>199.80000305176</ele>
        <time>2021-03-08T14:53:18.000Z</time>
      </trkpt>
      <trkpt lat="46.59059" lon="5.30869">
        <ele>200.19999694824</ele>
        <time>2021-03-08T14:53:20.000Z</time>
      </trkpt>
      <trkpt lat="46.59049" lon="5.3087">
        <ele>200.80000305176</ele>
        <time>2021-03-08T14:53:22.000Z</time>
      </trkpt>
      <trkpt lat="46.59038" lon="5.30871">
        <ele>201.60000610352</ele>
        <time>2021-03-08T14:53:24.000Z</time>
      </trkpt>
      <trkpt lat="46.59033" lon="5.30871">
        <ele>201.80000305176</ele>
        <time>2021-03-08T14:53:25.000Z</time>
      </trkpt>
      <trkpt lat="46.59028" lon="5.30872">
        <ele>202</ele>
        <time>2021-03-08T14:53:26.000Z</time>
      </trkpt>
      <trkpt lat="46.59018" lon="5.30874">
        <ele>202.60000610352</ele>
        <time>2021-03-08T14:53:28.000Z</time>
      </trkpt>
      <trkpt lat="46.59013" lon="5.30874">
        <ele>202.80000305176</ele>
        <time>2021-03-08T14:53:29.000Z</time>
      </trkpt>
      <trkpt lat="46.59008" lon="5.30875">
        <ele>203</ele>
        <time>2021-03-08T14:53:30.000Z</time>
      </trkpt>
      <trkpt lat="46.58998" lon="5.30877">
        <ele>204</ele>
        <time>2021-03-08T14:53:32.000Z</time>
      </trkpt>
      <trkpt lat="46.58987" lon="5.30878">
        <ele>204.60000610352</ele>
        <time>2021-03-08T14:53:34.000Z</time>
      </trkpt>
      <trkpt lat="46.58977" lon="5.30879">
        <ele>205</ele>
        <time>2021-03-08T14:53:36.000Z</time>
      </trkpt>
      <trkpt lat="46.58967" lon="5.30881">
        <ele>205.60000610352</ele>
        <time>2021-03-08T14:53:38.000Z</time>
      </trkpt>
      <trkpt lat="46.58956" lon="5.30882">
        <ele>206</ele>
        <time>2021-03-08T14:53:40.000Z</time>
      </trkpt>
      <trkpt lat="46.58945" lon="5.30883">
        <ele>206.60000610352</ele>
        <time>2021-03-08T14:53:42.000Z</time>
      </trkpt>
      <trkpt lat="46.58935" lon="5.30884">
        <ele>207</ele>
        <time>2021-03-08T14:53:44.000Z</time>
      </trkpt>
      <trkpt lat="46.58924" lon="5.30886">
        <ele>207.39999389648</ele>
        <time>2021-03-08T14:53:46.000Z</time>
      </trkpt>
      <trkpt lat="46.58918" lon="5.30887">
        <ele>207.60000610352</ele>
        <time>2021-03-08T14:53:47.000Z</time>
      </trkpt>
      <trkpt lat="46.58912" lon="5.30887">
        <ele>207.80000305176</ele>
        <time>2021-03-08T14:53:48.000Z</time>
      </trkpt>
      <trkpt lat="46.58901" lon="5.30889">
        <ele>208.19999694824</ele>
        <time>2021-03-08T14:53:50.000Z</time>
      </trkpt>
      <trkpt lat="46.58889" lon="5.3089">
        <ele>208.39999389648</ele>
        <time>2021-03-08T14:53:52.000Z</time>
      </trkpt>
      <trkpt lat="46.58877" lon="5.30892">
        <ele>208.60000610352</ele>
        <time>2021-03-08T14:53:54.000Z</time>
      </trkpt>
      <trkpt lat="46.58864" lon="5.30894">
        <ele>208.80000305176</ele>
        <time>2021-03-08T14:53:56.000Z</time>
      </trkpt>
      <trkpt lat="46.58858" lon="5.30895">
        <ele>209</ele>
        <time>2021-03-08T14:53:57.000Z</time>
      </trkpt>
      <trkpt lat="46.58851" lon="5.30896">
        <ele>209.19999694824</ele>
        <time>2021-03-08T14:53:58.000Z</time>
      </trkpt>
      <trkpt lat="46.58844" lon="5.30897">
        <ele>209.19999694824</ele>
        <time>2021-03-08T14:53:59.000Z</time>
      </trkpt>
      <trkpt lat="46.58837" lon="5.30899">
        <ele>209.19999694824</ele>
        <time>2021-03-08T14:54:00.000Z</time>
      </trkpt>
      <trkpt lat="46.58824" lon="5.30902">
        <ele>209.39999389648</ele>
        <time>2021-03-08T14:54:02.000Z</time>
      </trkpt>
      <trkpt lat="46.58809" lon="5.30907">
        <ele>209.39999389648</ele>
        <time>2021-03-08T14:54:04.000Z</time>
      </trkpt>
      <trkpt lat="46.58802" lon="5.30912">
        <ele>209.39999389648</ele>
        <time>2021-03-08T14:54:05.000Z</time>
      </trkpt>
      <trkpt lat="46.58795" lon="5.30917">
        <ele>209.39999389648</ele>
        <time>2021-03-08T14:54:06.000Z</time>
      </trkpt>
      <trkpt lat="46.58782" lon="5.3093">
        <ele>209.39999389648</ele>
        <time>2021-03-08T14:54:08.000Z</time>
      </trkpt>
      <trkpt lat="46.58768" lon="5.30945">
        <ele>209.39999389648</ele>
        <time>2021-03-08T14:54:10.000Z</time>
      </trkpt>
      <trkpt lat="46.58753" lon="5.30961">
        <ele>209.39999389648</ele>
        <time>2021-03-08T14:54:12.000Z</time>
      </trkpt>
      <trkpt lat="46.58738" lon="5.30977">
        <ele>209.19999694824</ele>
        <time>2021-03-08T14:54:14.000Z</time>
      </trkpt>
      <trkpt lat="46.58722" lon="5.30993">
        <ele>209</ele>
        <time>2021-03-08T14:54:16.000Z</time>
      </trkpt>
      <trkpt lat="46.58706" lon="5.3101">
        <ele>208.19999694824</ele>
        <time>2021-03-08T14:54:18.000Z</time>
      </trkpt>
      <trkpt lat="46.58698" lon="5.31019">
        <ele>207.80000305176</ele>
        <time>2021-03-08T14:54:19.000Z</time>
      </trkpt>
      <trkpt lat="46.5869" lon="5.31027">
        <ele>207.60000610352</ele>
        <time>2021-03-08T14:54:20.000Z</time>
      </trkpt>
      <trkpt lat="46.58675" lon="5.31043">
        <ele>206.80000305176</ele>
        <time>2021-03-08T14:54:22.000Z</time>
      </trkpt>
      <trkpt lat="46.58667" lon="5.31052">
        <ele>206.39999389648</ele>
        <time>2021-03-08T14:54:23.000Z</time>
      </trkpt>
      <trkpt lat="46.58659" lon="5.3106">
        <ele>205.60000610352</ele>
        <time>2021-03-08T14:54:24.000Z</time>
      </trkpt>
      <trkpt lat="46.58652" lon="5.31068">
        <ele>205.19999694824</ele>
        <time>2021-03-08T14:54:25.000Z</time>
      </trkpt>
      <trkpt lat="46.58644" lon="5.31076">
        <ele>204.80000305176</ele>
        <time>2021-03-08T14:54:26.000Z</time>
      </trkpt>
      <trkpt lat="46.58636" lon="5.31084">
        <ele>204.60000610352</ele>
        <time>2021-03-08T14:54:27.000Z</time>
      </trkpt>
      <trkpt lat="46.58629" lon="5.31092">
        <ele>204.60000610352</ele>
        <time>2021-03-08T14:54:28.000Z</time>
      </trkpt>
      <trkpt lat="46.58614" lon="5.31107">
        <ele>204.19999694824</ele>
        <time>2021-03-08T14:54:30.000Z</time>
      </trkpt>
      <trkpt lat="46.58599" lon="5.31122">
        <ele>204.19999694824</ele>
        <time>2021-03-08T14:54:32.000Z</time>
      </trkpt>
      <trkpt lat="46.58585" lon="5.31136">
        <ele>204.19999694824</ele>
        <time>2021-03-08T14:54:34.000Z</time>
      </trkpt>
      <trkpt lat="46.5857" lon="5.3115">
        <ele>204.19999694824</ele>
        <time>2021-03-08T14:54:36.000Z</time>
      </trkpt>
      <trkpt lat="46.58563" lon="5.31157">
        <ele>204.19999694824</ele>
        <time>2021-03-08T14:54:37.000Z</time>
      </trkpt>
      <trkpt lat="46.58556" lon="5.31163">
        <ele>204.19999694824</ele>
        <time>2021-03-08T14:54:38.000Z</time>
      </trkpt>
      <trkpt lat="46.58542" lon="5.31175">
        <ele>204.39999389648</ele>
        <time>2021-03-08T14:54:40.000Z</time>
      </trkpt>
      <trkpt lat="46.58527" lon="5.31185">
        <ele>204.60000610352</ele>
        <time>2021-03-08T14:54:42.000Z</time>
      </trkpt>
      <trkpt lat="46.58519" lon="5.31189">
        <ele>205</ele>
        <time>2021-03-08T14:54:43.000Z</time>
      </trkpt>
      <trkpt lat="46.58511" lon="5.31193">
        <ele>205.19999694824</ele>
        <time>2021-03-08T14:54:44.000Z</time>
      </trkpt>
      <trkpt lat="46.58502" lon="5.31197">
        <ele>205.19999694824</ele>
        <time>2021-03-08T14:54:45.000Z</time>
      </trkpt>
      <trkpt lat="46.58494" lon="5.31201">
        <ele>205.39999389648</ele>
        <time>2021-03-08T14:54:46.000Z</time>
      </trkpt>
      <trkpt lat="46.58478" lon="5.31207">
        <ele>205.39999389648</ele>
        <time>2021-03-08T14:54:48.000Z</time>
      </trkpt>
      <trkpt lat="46.58462" lon="5.31214">
        <ele>205.60000610352</ele>
        <time>2021-03-08T14:54:50.000Z</time>
      </trkpt>
      <trkpt lat="46.58445" lon="5.31221">
        <ele>205.60000610352</ele>
        <time>2021-03-08T14:54:52.000Z</time>
      </trkpt>
      <trkpt lat="46.58437" lon="5.31224">
        <ele>205.60000610352</ele>
        <time>2021-03-08T14:54:53.000Z</time>
      </trkpt>
      <trkpt lat="46.58429" lon="5.31228">
        <ele>205.60000610352</ele>
        <time>2021-03-08T14:54:54.000Z</time>
      </trkpt>
      <trkpt lat="46.58412" lon="5.31235">
        <ele>205.60000610352</ele>
        <time>2021-03-08T14:54:56.000Z</time>
      </trkpt>
      <trkpt lat="46.58396" lon="5.31242">
        <ele>205.60000610352</ele>
        <time>2021-03-08T14:54:58.000Z</time>
      </trkpt>
      <trkpt lat="46.58379" lon="5.31249">
        <ele>205.80000305176</ele>
        <time>2021-03-08T14:55:00.000Z</time>
      </trkpt>
      <trkpt lat="46.58362" lon="5.31257">
        <ele>205.60000610352</ele>
        <time>2021-03-08T14:55:02.000Z</time>
      </trkpt>
      <trkpt lat="46.58346" lon="5.31265">
        <ele>205.60000610352</ele>
        <time>2021-03-08T14:55:04.000Z</time>
      </trkpt>
      <trkpt lat="46.5833" lon="5.31274">
        <ele>205.60000610352</ele>
        <time>2021-03-08T14:55:06.000Z</time>
      </trkpt>
      <trkpt lat="46.58315" lon="5.31284">
        <ele>205.60000610352</ele>
        <time>2021-03-08T14:55:08.000Z</time>
      </trkpt>
      <trkpt lat="46.58308" lon="5.3129">
        <ele>205.60000610352</ele>
        <time>2021-03-08T14:55:09.000Z</time>
      </trkpt>
      <trkpt lat="46.583" lon="5.31295">
        <ele>205.80000305176</ele>
        <time>2021-03-08T14:55:10.000Z</time>
      </trkpt>
      <trkpt lat="46.58286" lon="5.31307">
        <ele>205.60000610352</ele>
        <time>2021-03-08T14:55:12.000Z</time>
      </trkpt>
      <trkpt lat="46.58272" lon="5.31319">
        <ele>205.60000610352</ele>
        <time>2021-03-08T14:55:14.000Z</time>
      </trkpt>
      <trkpt lat="46.58258" lon="5.3133">
        <ele>205.60000610352</ele>
        <time>2021-03-08T14:55:16.000Z</time>
      </trkpt>
      <trkpt lat="46.58244" lon="5.31341">
        <ele>205.60000610352</ele>
        <time>2021-03-08T14:55:18.000Z</time>
      </trkpt>
      <trkpt lat="46.5823" lon="5.31352">
        <ele>205.80000305176</ele>
        <time>2021-03-08T14:55:20.000Z</time>
      </trkpt>
      <trkpt lat="46.58217" lon="5.31363">
        <ele>206.39999389648</ele>
        <time>2021-03-08T14:55:22.000Z</time>
      </trkpt>
      <trkpt lat="46.58204" lon="5.31374">
        <ele>206.80000305176</ele>
        <time>2021-03-08T14:55:24.000Z</time>
      </trkpt>
      <trkpt lat="46.5819" lon="5.31384">
        <ele>207</ele>
        <time>2021-03-08T14:55:26.000Z</time>
      </trkpt>
      <trkpt lat="46.58176" lon="5.31395">
        <ele>207.19999694824</ele>
        <time>2021-03-08T14:55:28.000Z</time>
      </trkpt>
      <trkpt lat="46.5817" lon="5.31401">
        <ele>207.39999389648</ele>
        <time>2021-03-08T14:55:29.000Z</time>
      </trkpt>
      <trkpt lat="46.58163" lon="5.31406">
        <ele>207.60000610352</ele>
        <time>2021-03-08T14:55:30.000Z</time>
      </trkpt>
      <trkpt lat="46.58149" lon="5.31417">
        <ele>208</ele>
        <time>2021-03-08T14:55:32.000Z</time>
      </trkpt>
      <trkpt lat="46.58135" lon="5.31426">
        <ele>208.39999389648</ele>
        <time>2021-03-08T14:55:34.000Z</time>
      </trkpt>
      <trkpt lat="46.58127" lon="5.31429">
        <ele>208.60000610352</ele>
        <time>2021-03-08T14:55:35.000Z</time>
      </trkpt>
      <trkpt lat="46.5812" lon="5.31431">
        <ele>208.60000610352</ele>
        <time>2021-03-08T14:55:36.000Z</time>
      </trkpt>
      <trkpt lat="46.58112" lon="5.31432">
        <ele>209</ele>
        <time>2021-03-08T14:55:37.000Z</time>
      </trkpt>
      <trkpt lat="46.58104" lon="5.31432">
        <ele>209.39999389648</ele>
        <time>2021-03-08T14:55:38.000Z</time>
      </trkpt>
      <trkpt lat="46.58096" lon="5.31431">
        <ele>209.60000610352</ele>
        <time>2021-03-08T14:55:39.000Z</time>
      </trkpt>
      <trkpt lat="46.58088" lon="5.3143">
        <ele>209.60000610352</ele>
        <time>2021-03-08T14:55:40.000Z</time>
      </trkpt>
      <trkpt lat="46.58072" lon="5.31428">
        <ele>210</ele>
        <time>2021-03-08T14:55:42.000Z</time>
      </trkpt>
      <trkpt lat="46.58064" lon="5.31427">
        <ele>210</ele>
        <time>2021-03-08T14:55:43.000Z</time>
      </trkpt>
      <trkpt lat="46.58056" lon="5.31427">
        <ele>210</ele>
        <time>2021-03-08T14:55:44.000Z</time>
      </trkpt>
      <trkpt lat="46.5804" lon="5.31427">
        <ele>210.39999389648</ele>
        <time>2021-03-08T14:55:46.000Z</time>
      </trkpt>
      <trkpt lat="46.58023" lon="5.31429">
        <ele>210.39999389648</ele>
        <time>2021-03-08T14:55:48.000Z</time>
      </trkpt>
      <trkpt lat="46.58015" lon="5.31431">
        <ele>210.39999389648</ele>
        <time>2021-03-08T14:55:49.000Z</time>
      </trkpt>
      <trkpt lat="46.58007" lon="5.31433">
        <ele>210.39999389648</ele>
        <time>2021-03-08T14:55:50.000Z</time>
      </trkpt>
      <trkpt lat="46.5799" lon="5.31438">
        <ele>210.39999389648</ele>
        <time>2021-03-08T14:55:52.000Z</time>
      </trkpt>
      <trkpt lat="46.57974" lon="5.31443">
        <ele>210.39999389648</ele>
        <time>2021-03-08T14:55:54.000Z</time>
      </trkpt>
      <trkpt lat="46.57957" lon="5.31448">
        <ele>210.39999389648</ele>
        <time>2021-03-08T14:55:56.000Z</time>
      </trkpt>
      <trkpt lat="46.57941" lon="5.31453">
        <ele>210.39999389648</ele>
        <time>2021-03-08T14:55:58.000Z</time>
      </trkpt>
      <trkpt lat="46.57925" lon="5.31457">
        <ele>210.39999389648</ele>
        <time>2021-03-08T14:56:00.000Z</time>
      </trkpt>
      <trkpt lat="46.57909" lon="5.31462">
        <ele>210.39999389648</ele>
        <time>2021-03-08T14:56:02.000Z</time>
      </trkpt>
      <trkpt lat="46.57894" lon="5.31467">
        <ele>210.60000610352</ele>
        <time>2021-03-08T14:56:04.000Z</time>
      </trkpt>
      <trkpt lat="46.57878" lon="5.31472">
        <ele>210.60000610352</ele>
        <time>2021-03-08T14:56:06.000Z</time>
      </trkpt>
      <trkpt lat="46.57863" lon="5.31476">
        <ele>210.60000610352</ele>
        <time>2021-03-08T14:56:08.000Z</time>
      </trkpt>
      <trkpt lat="46.57847" lon="5.31481">
        <ele>210.80000305176</ele>
        <time>2021-03-08T14:56:10.000Z</time>
      </trkpt>
      <trkpt lat="46.57832" lon="5.31487">
        <ele>210.80000305176</ele>
        <time>2021-03-08T14:56:12.000Z</time>
      </trkpt>
      <trkpt lat="46.57824" lon="5.3149">
        <ele>211</ele>
        <time>2021-03-08T14:56:13.000Z</time>
      </trkpt>
      <trkpt lat="46.57817" lon="5.31494">
        <ele>211</ele>
        <time>2021-03-08T14:56:14.000Z</time>
      </trkpt>
      <trkpt lat="46.57802" lon="5.31502">
        <ele>211.19999694824</ele>
        <time>2021-03-08T14:56:16.000Z</time>
      </trkpt>
      <trkpt lat="46.57788" lon="5.31512">
        <ele>211.39999389648</ele>
        <time>2021-03-08T14:56:18.000Z</time>
      </trkpt>
      <trkpt lat="46.57781" lon="5.31517">
        <ele>211.60000610352</ele>
        <time>2021-03-08T14:56:19.000Z</time>
      </trkpt>
      <trkpt lat="46.57774" lon="5.31523">
        <ele>211.60000610352</ele>
        <time>2021-03-08T14:56:20.000Z</time>
      </trkpt>
      <trkpt lat="46.57768" lon="5.31528">
        <ele>211.80000305176</ele>
        <time>2021-03-08T14:56:21.000Z</time>
      </trkpt>
      <trkpt lat="46.57761" lon="5.31534">
        <ele>212</ele>
        <time>2021-03-08T14:56:22.000Z</time>
      </trkpt>
      <trkpt lat="46.57748" lon="5.31544">
        <ele>212.39999389648</ele>
        <time>2021-03-08T14:56:24.000Z</time>
      </trkpt>
      <trkpt lat="46.57742" lon="5.31549">
        <ele>212.60000610352</ele>
        <time>2021-03-08T14:56:25.000Z</time>
      </trkpt>
      <trkpt lat="46.57735" lon="5.31554">
        <ele>212.80000305176</ele>
        <time>2021-03-08T14:56:26.000Z</time>
      </trkpt>
      <trkpt lat="46.57721" lon="5.31563">
        <ele>213</ele>
        <time>2021-03-08T14:56:28.000Z</time>
      </trkpt>
      <trkpt lat="46.57707" lon="5.31572">
        <ele>213</ele>
        <time>2021-03-08T14:56:30.000Z</time>
      </trkpt>
      <trkpt lat="46.57692" lon="5.31578">
        <ele>213.19999694824</ele>
        <time>2021-03-08T14:56:32.000Z</time>
      </trkpt>
      <trkpt lat="46.57677" lon="5.31582">
        <ele>213.39999389648</ele>
        <time>2021-03-08T14:56:34.000Z</time>
      </trkpt>
      <trkpt lat="46.57662" lon="5.31585">
        <ele>213.60000610352</ele>
        <time>2021-03-08T14:56:36.000Z</time>
      </trkpt>
      <trkpt lat="46.57647" lon="5.31587">
        <ele>213.80000305176</ele>
        <time>2021-03-08T14:56:38.000Z</time>
      </trkpt>
      <trkpt lat="46.57639" lon="5.31588">
        <ele>213.80000305176</ele>
        <time>2021-03-08T14:56:39.000Z</time>
      </trkpt>
      <trkpt lat="46.57631" lon="5.31589">
        <ele>213.80000305176</ele>
        <time>2021-03-08T14:56:40.000Z</time>
      </trkpt>
      <trkpt lat="46.57616" lon="5.31592">
        <ele>214</ele>
        <time>2021-03-08T14:56:42.000Z</time>
      </trkpt>
      <trkpt lat="46.576" lon="5.31593">
        <ele>214</ele>
        <time>2021-03-08T14:56:44.000Z</time>
      </trkpt>
      <trkpt lat="46.57585" lon="5.31595">
        <ele>214</ele>
        <time>2021-03-08T14:56:46.000Z</time>
      </trkpt>
      <trkpt lat="46.57569" lon="5.31598">
        <ele>214.19999694824</ele>
        <time>2021-03-08T14:56:48.000Z</time>
      </trkpt>
      <trkpt lat="46.57553" lon="5.316">
        <ele>214.19999694824</ele>
        <time>2021-03-08T14:56:50.000Z</time>
      </trkpt>
      <trkpt lat="46.57538" lon="5.31602">
        <ele>214.19999694824</ele>
        <time>2021-03-08T14:56:52.000Z</time>
      </trkpt>
      <trkpt lat="46.57523" lon="5.31605">
        <ele>214.39999389648</ele>
        <time>2021-03-08T14:56:54.000Z</time>
      </trkpt>
      <trkpt lat="46.57507" lon="5.31607">
        <ele>214.60000610352</ele>
        <time>2021-03-08T14:56:56.000Z</time>
      </trkpt>
      <trkpt lat="46.57492" lon="5.31609">
        <ele>214.60000610352</ele>
        <time>2021-03-08T14:56:58.000Z</time>
      </trkpt>
      <trkpt lat="46.57477" lon="5.3161">
        <ele>214.80000305176</ele>
        <time>2021-03-08T14:57:00.000Z</time>
      </trkpt>
      <trkpt lat="46.57469" lon="5.31611">
        <ele>214.80000305176</ele>
        <time>2021-03-08T14:57:01.000Z</time>
      </trkpt>
      <trkpt lat="46.57461" lon="5.31611">
        <ele>214.80000305176</ele>
        <time>2021-03-08T14:57:02.000Z</time>
      </trkpt>
      <trkpt lat="46.57445" lon="5.31612">
        <ele>214.80000305176</ele>
        <time>2021-03-08T14:57:04.000Z</time>
      </trkpt>
      <trkpt lat="46.5743" lon="5.31612">
        <ele>214.80000305176</ele>
        <time>2021-03-08T14:57:06.000Z</time>
      </trkpt>
      <trkpt lat="46.57422" lon="5.31612">
        <ele>214.60000610352</ele>
        <time>2021-03-08T14:57:07.000Z</time>
      </trkpt>
      <trkpt lat="46.57414" lon="5.31612">
        <ele>214.60000610352</ele>
        <time>2021-03-08T14:57:08.000Z</time>
      </trkpt>
      <trkpt lat="46.57399" lon="5.31612">
        <ele>214.60000610352</ele>
        <time>2021-03-08T14:57:10.000Z</time>
      </trkpt>
      <trkpt lat="46.57383" lon="5.31613">
        <ele>214.60000610352</ele>
        <time>2021-03-08T14:57:12.000Z</time>
      </trkpt>
      <trkpt lat="46.57368" lon="5.31611">
        <ele>214.60000610352</ele>
        <time>2021-03-08T14:57:14.000Z</time>
      </trkpt>
      <trkpt lat="46.57352" lon="5.31606">
        <ele>214.60000610352</ele>
        <time>2021-03-08T14:57:16.000Z</time>
      </trkpt>
      <trkpt lat="46.57345" lon="5.31602">
        <ele>214.60000610352</ele>
        <time>2021-03-08T14:57:17.000Z</time>
      </trkpt>
      <trkpt lat="46.57331" lon="5.31589">
        <ele>214.39999389648</ele>
        <time>2021-03-08T14:57:19.000Z</time>
      </trkpt>
      <trkpt lat="46.57325" lon="5.31582">
        <ele>214.39999389648</ele>
        <time>2021-03-08T14:57:20.000Z</time>
      </trkpt>
      <trkpt lat="46.57319" lon="5.31575">
        <ele>214.39999389648</ele>
        <time>2021-03-08T14:57:21.000Z</time>
      </trkpt>
      <trkpt lat="46.57313" lon="5.31566">
        <ele>214.39999389648</ele>
        <time>2021-03-08T14:57:22.000Z</time>
      </trkpt>
      <trkpt lat="46.57302" lon="5.3155">
        <ele>214.60000610352</ele>
        <time>2021-03-08T14:57:24.000Z</time>
      </trkpt>
      <trkpt lat="46.57297" lon="5.31541">
        <ele>214.60000610352</ele>
        <time>2021-03-08T14:57:25.000Z</time>
      </trkpt>
      <trkpt lat="46.57292" lon="5.31532">
        <ele>214.80000305176</ele>
        <time>2021-03-08T14:57:26.000Z</time>
      </trkpt>
      <trkpt lat="46.57281" lon="5.31515">
        <ele>214.80000305176</ele>
        <time>2021-03-08T14:57:28.000Z</time>
      </trkpt>
      <trkpt lat="46.5727" lon="5.31499">
        <ele>214.80000305176</ele>
        <time>2021-03-08T14:57:30.000Z</time>
      </trkpt>
      <trkpt lat="46.5726" lon="5.31482">
        <ele>214.80000305176</ele>
        <time>2021-03-08T14:57:32.000Z</time>
      </trkpt>
      <trkpt lat="46.57254" lon="5.31474">
        <ele>214.80000305176</ele>
        <time>2021-03-08T14:57:33.000Z</time>
      </trkpt>
      <trkpt lat="46.5725" lon="5.31465">
        <ele>214.80000305176</ele>
        <time>2021-03-08T14:57:34.000Z</time>
      </trkpt>
      <trkpt lat="46.57245" lon="5.31455">
        <ele>214.80000305176</ele>
        <time>2021-03-08T14:57:35.000Z</time>
      </trkpt>
      <trkpt lat="46.57241" lon="5.31444">
        <ele>214.80000305176</ele>
        <time>2021-03-08T14:57:36.000Z</time>
      </trkpt>
      <trkpt lat="46.57238" lon="5.31434">
        <ele>214.80000305176</ele>
        <time>2021-03-08T14:57:37.000Z</time>
      </trkpt>
      <trkpt lat="46.57235" lon="5.31422">
        <ele>214.80000305176</ele>
        <time>2021-03-08T14:57:38.000Z</time>
      </trkpt>
      <trkpt lat="46.57233" lon="5.31411">
        <ele>214.60000610352</ele>
        <time>2021-03-08T14:57:39.000Z</time>
      </trkpt>
      <trkpt lat="46.5723" lon="5.314">
        <ele>214.60000610352</ele>
        <time>2021-03-08T14:57:40.000Z</time>
      </trkpt>
      <trkpt lat="46.57224" lon="5.31377">
        <ele>214.19999694824</ele>
        <time>2021-03-08T14:57:42.000Z</time>
      </trkpt>
      <trkpt lat="46.5722" lon="5.31367">
        <ele>214</ele>
        <time>2021-03-08T14:57:43.000Z</time>
      </trkpt>
      <trkpt lat="46.57215" lon="5.31357">
        <ele>213.80000305176</ele>
        <time>2021-03-08T14:57:44.000Z</time>
      </trkpt>
      <trkpt lat="46.57204" lon="5.31339">
        <ele>213.60000610352</ele>
        <time>2021-03-08T14:57:46.000Z</time>
      </trkpt>
      <trkpt lat="46.57198" lon="5.3133">
        <ele>213.39999389648</ele>
        <time>2021-03-08T14:57:47.000Z</time>
      </trkpt>
      <trkpt lat="46.57192" lon="5.31321">
        <ele>213.39999389648</ele>
        <time>2021-03-08T14:57:48.000Z</time>
      </trkpt>
      <trkpt lat="46.57177" lon="5.31306">
        <ele>213</ele>
        <time>2021-03-08T14:57:50.000Z</time>
      </trkpt>
      <trkpt lat="46.57169" lon="5.31301">
        <ele>213</ele>
        <time>2021-03-08T14:57:51.000Z</time>
      </trkpt>
      <trkpt lat="46.5716" lon="5.31297">
        <ele>213</ele>
        <time>2021-03-08T14:57:52.000Z</time>
      </trkpt>
      <trkpt lat="46.57141" lon="5.31294">
        <ele>212.80000305176</ele>
        <time>2021-03-08T14:57:54.000Z</time>
      </trkpt>
      <trkpt lat="46.57132" lon="5.31293">
        <ele>212.39999389648</ele>
        <time>2021-03-08T14:57:55.000Z</time>
      </trkpt>
      <trkpt lat="46.57122" lon="5.31293">
        <ele>212.19999694824</ele>
        <time>2021-03-08T14:57:56.000Z</time>
      </trkpt>
      <trkpt lat="46.57101" lon="5.31292">
        <ele>212</ele>
        <time>2021-03-08T14:57:58.000Z</time>
      </trkpt>
      <trkpt lat="46.57091" lon="5.3129">
        <ele>212</ele>
        <time>2021-03-08T14:57:59.000Z</time>
      </trkpt>
      <trkpt lat="46.57081" lon="5.31286">
        <ele>211.80000305176</ele>
        <time>2021-03-08T14:58:00.000Z</time>
      </trkpt>
      <trkpt lat="46.57071" lon="5.31281">
        <ele>211.60000610352</ele>
        <time>2021-03-08T14:58:01.000Z</time>
      </trkpt>
      <trkpt lat="46.57062" lon="5.31274">
        <ele>211.39999389648</ele>
        <time>2021-03-08T14:58:02.000Z</time>
      </trkpt>
      <trkpt lat="46.57044" lon="5.31259">
        <ele>210.39999389648</ele>
        <time>2021-03-08T14:58:04.000Z</time>
      </trkpt>
      <trkpt lat="46.57027" lon="5.31244">
        <ele>209.80000305176</ele>
        <time>2021-03-08T14:58:06.000Z</time>
      </trkpt>
      <trkpt lat="46.5701" lon="5.31229">
        <ele>209</ele>
        <time>2021-03-08T14:58:08.000Z</time>
      </trkpt>
      <trkpt lat="46.57002" lon="5.31221">
        <ele>208.60000610352</ele>
        <time>2021-03-08T14:58:09.000Z</time>
      </trkpt>
      <trkpt lat="46.56993" lon="5.31214">
        <ele>208.39999389648</ele>
        <time>2021-03-08T14:58:10.000Z</time>
      </trkpt>
      <trkpt lat="46.56985" lon="5.31206">
        <ele>208</ele>
        <time>2021-03-08T14:58:11.000Z</time>
      </trkpt>
      <trkpt lat="46.56977" lon="5.31199">
        <ele>207.80000305176</ele>
        <time>2021-03-08T14:58:12.000Z</time>
      </trkpt>
      <trkpt lat="46.5696" lon="5.31184">
        <ele>207.39999389648</ele>
        <time>2021-03-08T14:58:14.000Z</time>
      </trkpt>
      <trkpt lat="46.56943" lon="5.31169">
        <ele>207.19999694824</ele>
        <time>2021-03-08T14:58:16.000Z</time>
      </trkpt>
      <trkpt lat="46.56935" lon="5.31163">
        <ele>207.19999694824</ele>
        <time>2021-03-08T14:58:17.000Z</time>
      </trkpt>
      <trkpt lat="46.56926" lon="5.31159">
        <ele>207</ele>
        <time>2021-03-08T14:58:18.000Z</time>
      </trkpt>
      <trkpt lat="46.56907" lon="5.31154">
        <ele>206.80000305176</ele>
        <time>2021-03-08T14:58:20.000Z</time>
      </trkpt>
      <trkpt lat="46.56897" lon="5.31153">
        <ele>206.80000305176</ele>
        <time>2021-03-08T14:58:21.000Z</time>
      </trkpt>
      <trkpt lat="46.56887" lon="5.31152">
        <ele>206.80000305176</ele>
        <time>2021-03-08T14:58:22.000Z</time>
      </trkpt>
      <trkpt lat="46.56868" lon="5.31146">
        <ele>206.60000610352</ele>
        <time>2021-03-08T14:58:24.000Z</time>
      </trkpt>
      <trkpt lat="46.56849" lon="5.31135">
        <ele>206.60000610352</ele>
        <time>2021-03-08T14:58:26.000Z</time>
      </trkpt>
      <trkpt lat="46.56833" lon="5.31117">
        <ele>206.60000610352</ele>
        <time>2021-03-08T14:58:28.000Z</time>
      </trkpt>
      <trkpt lat="46.56826" lon="5.31107">
        <ele>206.60000610352</ele>
        <time>2021-03-08T14:58:29.000Z</time>
      </trkpt>
      <trkpt lat="46.5682" lon="5.31095">
        <ele>206.60000610352</ele>
        <time>2021-03-08T14:58:30.000Z</time>
      </trkpt>
      <trkpt lat="46.56812" lon="5.3107">
        <ele>206.39999389648</ele>
        <time>2021-03-08T14:58:32.000Z</time>
      </trkpt>
      <trkpt lat="46.56809" lon="5.31057">
        <ele>206</ele>
        <time>2021-03-08T14:58:33.000Z</time>
      </trkpt>
      <trkpt lat="46.56807" lon="5.31044">
        <ele>205.60000610352</ele>
        <time>2021-03-08T14:58:34.000Z</time>
      </trkpt>
      <trkpt lat="46.56806" lon="5.31031">
        <ele>205.19999694824</ele>
        <time>2021-03-08T14:58:35.000Z</time>
      </trkpt>
      <trkpt lat="46.56806" lon="5.31018">
        <ele>204.80000305176</ele>
        <time>2021-03-08T14:58:36.000Z</time>
      </trkpt>
      <trkpt lat="46.56806" lon="5.31005">
        <ele>204.60000610352</ele>
        <time>2021-03-08T14:58:37.000Z</time>
      </trkpt>
      <trkpt lat="46.56807" lon="5.30992">
        <ele>204.60000610352</ele>
        <time>2021-03-08T14:58:38.000Z</time>
      </trkpt>
      <trkpt lat="46.56808" lon="5.30966">
        <ele>204.39999389648</ele>
        <time>2021-03-08T14:58:40.000Z</time>
      </trkpt>
      <trkpt lat="46.56809" lon="5.30941">
        <ele>204.19999694824</ele>
        <time>2021-03-08T14:58:42.000Z</time>
      </trkpt>
      <trkpt lat="46.56808" lon="5.30916">
        <ele>204.19999694824</ele>
        <time>2021-03-08T14:58:44.000Z</time>
      </trkpt>
      <trkpt lat="46.56806" lon="5.30892">
        <ele>204</ele>
        <time>2021-03-08T14:58:46.000Z</time>
      </trkpt>
      <trkpt lat="46.56802" lon="5.30869">
        <ele>204</ele>
        <time>2021-03-08T14:58:48.000Z</time>
      </trkpt>
      <trkpt lat="46.56799" lon="5.30847">
        <ele>204.19999694824</ele>
        <time>2021-03-08T14:58:50.000Z</time>
      </trkpt>
      <trkpt lat="46.56794" lon="5.30826">
        <ele>204.19999694824</ele>
        <time>2021-03-08T14:58:52.000Z</time>
      </trkpt>
      <trkpt lat="46.56792" lon="5.30815">
        <ele>204.19999694824</ele>
        <time>2021-03-08T14:58:53.000Z</time>
      </trkpt>
      <trkpt lat="46.56789" lon="5.30806">
        <ele>204.19999694824</ele>
        <time>2021-03-08T14:58:54.000Z</time>
      </trkpt>
      <trkpt lat="46.56782" lon="5.30787">
        <ele>204.19999694824</ele>
        <time>2021-03-08T14:58:56.000Z</time>
      </trkpt>
      <trkpt lat="46.56778" lon="5.30779">
        <ele>204.39999389648</ele>
        <time>2021-03-08T14:58:57.000Z</time>
      </trkpt>
      <trkpt lat="46.56771" lon="5.30762">
        <ele>204.39999389648</ele>
        <time>2021-03-08T14:58:59.000Z</time>
      </trkpt>
      <trkpt lat="46.56763" lon="5.30746">
        <ele>204.60000610352</ele>
        <time>2021-03-08T14:59:01.000Z</time>
      </trkpt>
      <trkpt lat="46.56759" lon="5.30738">
        <ele>204.60000610352</ele>
        <time>2021-03-08T14:59:02.000Z</time>
      </trkpt>
      <trkpt lat="46.56751" lon="5.30722">
        <ele>205.39999389648</ele>
        <time>2021-03-08T14:59:04.000Z</time>
      </trkpt>
      <trkpt lat="46.56743" lon="5.30707">
        <ele>206.19999694824</ele>
        <time>2021-03-08T14:59:06.000Z</time>
      </trkpt>
      <trkpt lat="46.56735" lon="5.30691">
        <ele>206.60000610352</ele>
        <time>2021-03-08T14:59:08.000Z</time>
      </trkpt>
      <trkpt lat="46.56727" lon="5.30677">
        <ele>207</ele>
        <time>2021-03-08T14:59:10.000Z</time>
      </trkpt>
      <trkpt lat="46.56722" lon="5.3067">
        <ele>207.19999694824</ele>
        <time>2021-03-08T14:59:11.000Z</time>
      </trkpt>
      <trkpt lat="46.56717" lon="5.30663">
        <ele>207.39999389648</ele>
        <time>2021-03-08T14:59:12.000Z</time>
      </trkpt>
      <trkpt lat="46.56706" lon="5.30651">
        <ele>208</ele>
        <time>2021-03-08T14:59:14.000Z</time>
      </trkpt>
      <trkpt lat="46.56696" lon="5.3064">
        <ele>208.19999694824</ele>
        <time>2021-03-08T14:59:16.000Z</time>
      </trkpt>
      <trkpt lat="46.5669" lon="5.30635">
        <ele>208.39999389648</ele>
        <time>2021-03-08T14:59:17.000Z</time>
      </trkpt>
      <trkpt lat="46.56685" lon="5.3063">
        <ele>208.80000305176</ele>
        <time>2021-03-08T14:59:18.000Z</time>
      </trkpt>
      <trkpt lat="46.56679" lon="5.30625">
        <ele>209</ele>
        <time>2021-03-08T14:59:19.000Z</time>
      </trkpt>
      <trkpt lat="46.56674" lon="5.3062">
        <ele>209.19999694824</ele>
        <time>2021-03-08T14:59:20.000Z</time>
      </trkpt>
      <trkpt lat="46.56662" lon="5.30613">
        <ele>209.39999389648</ele>
        <time>2021-03-08T14:59:22.000Z</time>
      </trkpt>
      <trkpt lat="46.56649" lon="5.30606">
        <ele>209.60000610352</ele>
        <time>2021-03-08T14:59:24.000Z</time>
      </trkpt>
      <trkpt lat="46.56637" lon="5.30602">
        <ele>209.80000305176</ele>
        <time>2021-03-08T14:59:26.000Z</time>
      </trkpt>
      <trkpt lat="46.56623" lon="5.30598">
        <ele>210</ele>
        <time>2021-03-08T14:59:28.000Z</time>
      </trkpt>
      <trkpt lat="46.5661" lon="5.30596">
        <ele>210.60000610352</ele>
        <time>2021-03-08T14:59:30.000Z</time>
      </trkpt>
      <trkpt lat="46.56596" lon="5.30594">
        <ele>210.80000305176</ele>
        <time>2021-03-08T14:59:32.000Z</time>
      </trkpt>
      <trkpt lat="46.56582" lon="5.30593">
        <ele>210.80000305176</ele>
        <time>2021-03-08T14:59:34.000Z</time>
      </trkpt>
      <trkpt lat="46.56575" lon="5.30594">
        <ele>210.80000305176</ele>
        <time>2021-03-08T14:59:35.000Z</time>
      </trkpt>
      <trkpt lat="46.56561" lon="5.30594">
        <ele>210.80000305176</ele>
        <time>2021-03-08T14:59:37.000Z</time>
      </trkpt>
      <trkpt lat="46.56547" lon="5.30596">
        <ele>210.80000305176</ele>
        <time>2021-03-08T14:59:39.000Z</time>
      </trkpt>
      <trkpt lat="46.56532" lon="5.30599">
        <ele>210.80000305176</ele>
        <time>2021-03-08T14:59:41.000Z</time>
      </trkpt>
      <trkpt lat="46.56518" lon="5.30601">
        <ele>210.60000610352</ele>
        <time>2021-03-08T14:59:43.000Z</time>
      </trkpt>
      <trkpt lat="46.56503" lon="5.30604">
        <ele>210.39999389648</ele>
        <time>2021-03-08T14:59:45.000Z</time>
      </trkpt>
      <trkpt lat="46.56488" lon="5.30607">
        <ele>210.19999694824</ele>
        <time>2021-03-08T14:59:47.000Z</time>
      </trkpt>
      <trkpt lat="46.56474" lon="5.3061">
        <ele>210.19999694824</ele>
        <time>2021-03-08T14:59:49.000Z</time>
      </trkpt>
      <trkpt lat="46.5646" lon="5.30614">
        <ele>210.19999694824</ele>
        <time>2021-03-08T14:59:51.000Z</time>
      </trkpt>
      <trkpt lat="46.56447" lon="5.30618">
        <ele>210.19999694824</ele>
        <time>2021-03-08T14:59:53.000Z</time>
      </trkpt>
      <trkpt lat="46.56441" lon="5.30619">
        <ele>210.19999694824</ele>
        <time>2021-03-08T14:59:54.000Z</time>
      </trkpt>
      <trkpt lat="46.56435" lon="5.30619">
        <ele>210.19999694824</ele>
        <time>2021-03-08T14:59:55.000Z</time>
      </trkpt>
      <trkpt lat="46.56432" lon="5.30617">
        <ele>210.19999694824</ele>
        <time>2021-03-08T14:59:56.000Z</time>
      </trkpt>
      <trkpt lat="46.5643" lon="5.30613">
        <ele>210.39999389648</ele>
        <time>2021-03-08T14:59:57.000Z</time>
      </trkpt>
      <trkpt lat="46.56425" lon="5.30608">
        <ele>210.80000305176</ele>
        <time>2021-03-08T14:59:59.000Z</time>
      </trkpt>
      <trkpt lat="46.56416" lon="5.30611">
        <ele>211</ele>
        <time>2021-03-08T15:00:01.000Z</time>
      </trkpt>
      <trkpt lat="46.56411" lon="5.3061">
        <ele>211.19999694824</ele>
        <time>2021-03-08T15:00:02.000Z</time>
      </trkpt>
      <trkpt lat="46.56407" lon="5.30606">
        <ele>211.39999389648</ele>
        <time>2021-03-08T15:00:03.000Z</time>
      </trkpt>
      <trkpt lat="46.56398" lon="5.30595">
        <ele>211.39999389648</ele>
        <time>2021-03-08T15:00:05.000Z</time>
      </trkpt>
      <trkpt lat="46.56389" lon="5.30581">
        <ele>211.39999389648</ele>
        <time>2021-03-08T15:00:07.000Z</time>
      </trkpt>
      <trkpt lat="46.56379" lon="5.30567">
        <ele>211.39999389648</ele>
        <time>2021-03-08T15:00:09.000Z</time>
      </trkpt>
      <trkpt lat="46.56374" lon="5.30561">
        <ele>211.39999389648</ele>
        <time>2021-03-08T15:00:10.000Z</time>
      </trkpt>
      <trkpt lat="46.56369" lon="5.30554">
        <ele>211.39999389648</ele>
        <time>2021-03-08T15:00:11.000Z</time>
      </trkpt>
      <trkpt lat="46.56359" lon="5.3054">
        <ele>211.39999389648</ele>
        <time>2021-03-08T15:00:13.000Z</time>
      </trkpt>
      <trkpt lat="46.56349" lon="5.30526">
        <ele>211.60000610352</ele>
        <time>2021-03-08T15:00:15.000Z</time>
      </trkpt>
      <trkpt lat="46.56338" lon="5.30511">
        <ele>211.60000610352</ele>
        <time>2021-03-08T15:00:17.000Z</time>
      </trkpt>
      <trkpt lat="46.56328" lon="5.30497">
        <ele>211.60000610352</ele>
        <time>2021-03-08T15:00:19.000Z</time>
      </trkpt>
      <trkpt lat="46.56322" lon="5.3049">
        <ele>211.60000610352</ele>
        <time>2021-03-08T15:00:20.000Z</time>
      </trkpt>
      <trkpt lat="46.56317" lon="5.30482">
        <ele>211.60000610352</ele>
        <time>2021-03-08T15:00:21.000Z</time>
      </trkpt>
      <trkpt lat="46.56306" lon="5.30467">
        <ele>211.60000610352</ele>
        <time>2021-03-08T15:00:23.000Z</time>
      </trkpt>
      <trkpt lat="46.56295" lon="5.30452">
        <ele>211.60000610352</ele>
        <time>2021-03-08T15:00:25.000Z</time>
      </trkpt>
      <trkpt lat="46.56284" lon="5.30437">
        <ele>211.60000610352</ele>
        <time>2021-03-08T15:00:27.000Z</time>
      </trkpt>
      <trkpt lat="46.56272" lon="5.30422">
        <ele>211.60000610352</ele>
        <time>2021-03-08T15:00:29.000Z</time>
      </trkpt>
      <trkpt lat="46.56267" lon="5.30415">
        <ele>211.60000610352</ele>
        <time>2021-03-08T15:00:30.000Z</time>
      </trkpt>
      <trkpt lat="46.56261" lon="5.30407">
        <ele>211.80000305176</ele>
        <time>2021-03-08T15:00:31.000Z</time>
      </trkpt>
      <trkpt lat="46.5625" lon="5.30392">
        <ele>211.60000610352</ele>
        <time>2021-03-08T15:00:33.000Z</time>
      </trkpt>
      <trkpt lat="46.56239" lon="5.30376">
        <ele>211.60000610352</ele>
        <time>2021-03-08T15:00:35.000Z</time>
      </trkpt>
      <trkpt lat="46.56229" lon="5.30359">
        <ele>211.60000610352</ele>
        <time>2021-03-08T15:00:37.000Z</time>
      </trkpt>
      <trkpt lat="46.5622" lon="5.30342">
        <ele>211.39999389648</ele>
        <time>2021-03-08T15:00:39.000Z</time>
      </trkpt>
      <trkpt lat="46.56211" lon="5.30324">
        <ele>211.19999694824</ele>
        <time>2021-03-08T15:00:41.000Z</time>
      </trkpt>
      <trkpt lat="46.56201" lon="5.30307">
        <ele>211.19999694824</ele>
        <time>2021-03-08T15:00:43.000Z</time>
      </trkpt>
      <trkpt lat="46.56196" lon="5.30299">
        <ele>211</ele>
        <time>2021-03-08T15:00:44.000Z</time>
      </trkpt>
      <trkpt lat="46.5619" lon="5.30291">
        <ele>211</ele>
        <time>2021-03-08T15:00:45.000Z</time>
      </trkpt>
      <trkpt lat="46.56179" lon="5.30276">
        <ele>210.80000305176</ele>
        <time>2021-03-08T15:00:47.000Z</time>
      </trkpt>
      <trkpt lat="46.56168" lon="5.30261">
        <ele>210.80000305176</ele>
        <time>2021-03-08T15:00:49.000Z</time>
      </trkpt>
      <trkpt lat="46.56156" lon="5.30246">
        <ele>210.80000305176</ele>
        <time>2021-03-08T15:00:51.000Z</time>
      </trkpt>
      <trkpt lat="46.56151" lon="5.30238">
        <ele>210.80000305176</ele>
        <time>2021-03-08T15:00:52.000Z</time>
      </trkpt>
      <trkpt lat="46.56145" lon="5.30231">
        <ele>210.80000305176</ele>
        <time>2021-03-08T15:00:53.000Z</time>
      </trkpt>
      <trkpt lat="46.56134" lon="5.30216">
        <ele>210.80000305176</ele>
        <time>2021-03-08T15:00:55.000Z</time>
      </trkpt>
      <trkpt lat="46.56123" lon="5.30201">
        <ele>210.80000305176</ele>
        <time>2021-03-08T15:00:57.000Z</time>
      </trkpt>
      <trkpt lat="46.56111" lon="5.30185">
        <ele>211</ele>
        <time>2021-03-08T15:00:59.000Z</time>
      </trkpt>
      <trkpt lat="46.561" lon="5.3017">
        <ele>210.80000305176</ele>
        <time>2021-03-08T15:01:01.000Z</time>
      </trkpt>
      <trkpt lat="46.56094" lon="5.30162">
        <ele>210.80000305176</ele>
        <time>2021-03-08T15:01:02.000Z</time>
      </trkpt>
      <trkpt lat="46.56088" lon="5.30154">
        <ele>210.80000305176</ele>
        <time>2021-03-08T15:01:03.000Z</time>
      </trkpt>
      <trkpt lat="46.56077" lon="5.30139">
        <ele>210.80000305176</ele>
        <time>2021-03-08T15:01:05.000Z</time>
      </trkpt>
      <trkpt lat="46.56065" lon="5.30124">
        <ele>210.80000305176</ele>
        <time>2021-03-08T15:01:07.000Z</time>
      </trkpt>
      <trkpt lat="46.56054" lon="5.30108">
        <ele>210.80000305176</ele>
        <time>2021-03-08T15:01:09.000Z</time>
      </trkpt>
      <trkpt lat="46.56042" lon="5.30091">
        <ele>210.80000305176</ele>
        <time>2021-03-08T15:01:11.000Z</time>
      </trkpt>
      <trkpt lat="46.56036" lon="5.30083">
        <ele>210.80000305176</ele>
        <time>2021-03-08T15:01:12.000Z</time>
      </trkpt>
      <trkpt lat="46.56029" lon="5.30074">
        <ele>210.60000610352</ele>
        <time>2021-03-08T15:01:13.000Z</time>
      </trkpt>
      <trkpt lat="46.56016" lon="5.30057">
        <ele>210.60000610352</ele>
        <time>2021-03-08T15:01:15.000Z</time>
      </trkpt>
      <trkpt lat="46.56003" lon="5.30039">
        <ele>210.19999694824</ele>
        <time>2021-03-08T15:01:17.000Z</time>
      </trkpt>
      <trkpt lat="46.55989" lon="5.30021">
        <ele>209.80000305176</ele>
        <time>2021-03-08T15:01:19.000Z</time>
      </trkpt>
      <trkpt lat="46.55982" lon="5.30012">
        <ele>209</ele>
        <time>2021-03-08T15:01:20.000Z</time>
      </trkpt>
      <trkpt lat="46.55975" lon="5.30002">
        <ele>208.39999389648</ele>
        <time>2021-03-08T15:01:21.000Z</time>
      </trkpt>
      <trkpt lat="46.55968" lon="5.29993">
        <ele>207.80000305176</ele>
        <time>2021-03-08T15:01:22.000Z</time>
      </trkpt>
      <trkpt lat="46.55961" lon="5.29984">
        <ele>207.60000610352</ele>
        <time>2021-03-08T15:01:23.000Z</time>
      </trkpt>
      <trkpt lat="46.55947" lon="5.29965">
        <ele>207</ele>
        <time>2021-03-08T15:01:25.000Z</time>
      </trkpt>
      <trkpt lat="46.5594" lon="5.29956">
        <ele>206.80000305176</ele>
        <time>2021-03-08T15:01:26.000Z</time>
      </trkpt>
      <trkpt lat="46.55933" lon="5.29947">
        <ele>206.19999694824</ele>
        <time>2021-03-08T15:01:27.000Z</time>
      </trkpt>
      <trkpt lat="46.55927" lon="5.29938">
        <ele>205.80000305176</ele>
        <time>2021-03-08T15:01:28.000Z</time>
      </trkpt>
      <trkpt lat="46.55921" lon="5.2993">
        <ele>205.39999389648</ele>
        <time>2021-03-08T15:01:29.000Z</time>
      </trkpt>
      <trkpt lat="46.55909" lon="5.29914">
        <ele>205.19999694824</ele>
        <time>2021-03-08T15:01:31.000Z</time>
      </trkpt>
      <trkpt lat="46.55898" lon="5.299">
        <ele>205</ele>
        <time>2021-03-08T15:01:33.000Z</time>
      </trkpt>
      <trkpt lat="46.55893" lon="5.29892">
        <ele>205</ele>
        <time>2021-03-08T15:01:34.000Z</time>
      </trkpt>
      <trkpt lat="46.55888" lon="5.29885">
        <ele>205</ele>
        <time>2021-03-08T15:01:35.000Z</time>
      </trkpt>
      <trkpt lat="46.55877" lon="5.29872">
        <ele>205</ele>
        <time>2021-03-08T15:01:37.000Z</time>
      </trkpt>
      <trkpt lat="46.55867" lon="5.29859">
        <ele>205.39999389648</ele>
        <time>2021-03-08T15:01:39.000Z</time>
      </trkpt>
      <trkpt lat="46.55858" lon="5.29846">
        <ele>206</ele>
        <time>2021-03-08T15:01:41.000Z</time>
      </trkpt>
      <trkpt lat="46.55854" lon="5.2984">
        <ele>206.80000305176</ele>
        <time>2021-03-08T15:01:42.000Z</time>
      </trkpt>
      <trkpt lat="46.55849" lon="5.29834">
        <ele>207.39999389648</ele>
        <time>2021-03-08T15:01:43.000Z</time>
      </trkpt>
      <trkpt lat="46.55845" lon="5.29828">
        <ele>207.80000305176</ele>
        <time>2021-03-08T15:01:44.000Z</time>
      </trkpt>
      <trkpt lat="46.5584" lon="5.29822">
        <ele>208.19999694824</ele>
        <time>2021-03-08T15:01:45.000Z</time>
      </trkpt>
      <trkpt lat="46.55831" lon="5.2981">
        <ele>209</ele>
        <time>2021-03-08T15:01:47.000Z</time>
      </trkpt>
      <trkpt lat="46.55821" lon="5.29797">
        <ele>209.39999389648</ele>
        <time>2021-03-08T15:01:49.000Z</time>
      </trkpt>
      <trkpt lat="46.55811" lon="5.29783">
        <ele>209.60000610352</ele>
        <time>2021-03-08T15:01:51.000Z</time>
      </trkpt>
      <trkpt lat="46.55801" lon="5.29769">
        <ele>209.80000305176</ele>
        <time>2021-03-08T15:01:53.000Z</time>
      </trkpt>
      <trkpt lat="46.5579" lon="5.29755">
        <ele>210</ele>
        <time>2021-03-08T15:01:55.000Z</time>
      </trkpt>
      <trkpt lat="46.55786" lon="5.29748">
        <ele>210</ele>
        <time>2021-03-08T15:01:56.000Z</time>
      </trkpt>
      <trkpt lat="46.55781" lon="5.29742">
        <ele>210.19999694824</ele>
        <time>2021-03-08T15:01:57.000Z</time>
      </trkpt>
      <trkpt lat="46.55772" lon="5.29728">
        <ele>210.19999694824</ele>
        <time>2021-03-08T15:01:59.000Z</time>
      </trkpt>
      <trkpt lat="46.55762" lon="5.29716">
        <ele>210.19999694824</ele>
        <time>2021-03-08T15:02:01.000Z</time>
      </trkpt>
      <trkpt lat="46.55756" lon="5.2971">
        <ele>210.19999694824</ele>
        <time>2021-03-08T15:02:02.000Z</time>
      </trkpt>
      <trkpt lat="46.55749" lon="5.29705">
        <ele>210.19999694824</ele>
        <time>2021-03-08T15:02:03.000Z</time>
      </trkpt>
      <trkpt lat="46.55734" lon="5.29697">
        <ele>210.19999694824</ele>
        <time>2021-03-08T15:02:05.000Z</time>
      </trkpt>
      <trkpt lat="46.55717" lon="5.2969">
        <ele>210.19999694824</ele>
        <time>2021-03-08T15:02:07.000Z</time>
      </trkpt>
      <trkpt lat="46.55699" lon="5.29687">
        <ele>210</ele>
        <time>2021-03-08T15:02:09.000Z</time>
      </trkpt>
      <trkpt lat="46.55679" lon="5.29687">
        <ele>208.80000305176</ele>
        <time>2021-03-08T15:02:11.000Z</time>
      </trkpt>
      <trkpt lat="46.55658" lon="5.29685">
        <ele>208.39999389648</ele>
        <time>2021-03-08T15:02:13.000Z</time>
      </trkpt>
      <trkpt lat="46.55648" lon="5.29683">
        <ele>208</ele>
        <time>2021-03-08T15:02:14.000Z</time>
      </trkpt>
      <trkpt lat="46.55638" lon="5.29679">
        <ele>207.39999389648</ele>
        <time>2021-03-08T15:02:15.000Z</time>
      </trkpt>
      <trkpt lat="46.55618" lon="5.29669">
        <ele>206</ele>
        <time>2021-03-08T15:02:17.000Z</time>
      </trkpt>
      <trkpt lat="46.55599" lon="5.29659">
        <ele>205</ele>
        <time>2021-03-08T15:02:19.000Z</time>
      </trkpt>
      <trkpt lat="46.5558" lon="5.29648">
        <ele>204.19999694824</ele>
        <time>2021-03-08T15:02:21.000Z</time>
      </trkpt>
      <trkpt lat="46.55571" lon="5.29643">
        <ele>203.80000305176</ele>
        <time>2021-03-08T15:02:22.000Z</time>
      </trkpt>
      <trkpt lat="46.55562" lon="5.29637">
        <ele>203.39999389648</ele>
        <time>2021-03-08T15:02:23.000Z</time>
      </trkpt>
      <trkpt lat="46.55544" lon="5.29624">
        <ele>202.60000610352</ele>
        <time>2021-03-08T15:02:25.000Z</time>
      </trkpt>
      <trkpt lat="46.55526" lon="5.29612">
        <ele>202.19999694824</ele>
        <time>2021-03-08T15:02:27.000Z</time>
      </trkpt>
      <trkpt lat="46.55518" lon="5.29606">
        <ele>202.19999694824</ele>
        <time>2021-03-08T15:02:28.000Z</time>
      </trkpt>
      <trkpt lat="46.55509" lon="5.29599">
        <ele>202</ele>
        <time>2021-03-08T15:02:29.000Z</time>
      </trkpt>
      <trkpt lat="46.55493" lon="5.29586">
        <ele>201.80000305176</ele>
        <time>2021-03-08T15:02:31.000Z</time>
      </trkpt>
      <trkpt lat="46.55485" lon="5.2958">
        <ele>201.60000610352</ele>
        <time>2021-03-08T15:02:32.000Z</time>
      </trkpt>
      <trkpt lat="46.55477" lon="5.29574">
        <ele>201.60000610352</ele>
        <time>2021-03-08T15:02:33.000Z</time>
      </trkpt>
      <trkpt lat="46.55461" lon="5.29563">
        <ele>201</ele>
        <time>2021-03-08T15:02:35.000Z</time>
      </trkpt>
      <trkpt lat="46.55453" lon="5.29557">
        <ele>201</ele>
        <time>2021-03-08T15:02:36.000Z</time>
      </trkpt>
      <trkpt lat="46.55445" lon="5.29551">
        <ele>201</ele>
        <time>2021-03-08T15:02:37.000Z</time>
      </trkpt>
      <trkpt lat="46.5543" lon="5.2954">
        <ele>200.80000305176</ele>
        <time>2021-03-08T15:02:39.000Z</time>
      </trkpt>
      <trkpt lat="46.55414" lon="5.2953">
        <ele>200.80000305176</ele>
        <time>2021-03-08T15:02:41.000Z</time>
      </trkpt>
      <trkpt lat="46.55398" lon="5.29521">
        <ele>200.80000305176</ele>
        <time>2021-03-08T15:02:43.000Z</time>
      </trkpt>
      <trkpt lat="46.5539" lon="5.29518">
        <ele>200.80000305176</ele>
        <time>2021-03-08T15:02:44.000Z</time>
      </trkpt>
      <trkpt lat="46.55382" lon="5.29514">
        <ele>200.80000305176</ele>
        <time>2021-03-08T15:02:45.000Z</time>
      </trkpt>
      <trkpt lat="46.55366" lon="5.29509">
        <ele>201</ele>
        <time>2021-03-08T15:02:47.000Z</time>
      </trkpt>
      <trkpt lat="46.55349" lon="5.29504">
        <ele>201</ele>
        <time>2021-03-08T15:02:49.000Z</time>
      </trkpt>
      <trkpt lat="46.55341" lon="5.29503">
        <ele>201.19999694824</ele>
        <time>2021-03-08T15:02:50.000Z</time>
      </trkpt>
      <trkpt lat="46.55332" lon="5.29502">
        <ele>201.19999694824</ele>
        <time>2021-03-08T15:02:51.000Z</time>
      </trkpt>
      <trkpt lat="46.55316" lon="5.295">
        <ele>201.19999694824</ele>
        <time>2021-03-08T15:02:53.000Z</time>
      </trkpt>
      <trkpt lat="46.55301" lon="5.29495">
        <ele>201.39999389648</ele>
        <time>2021-03-08T15:02:55.000Z</time>
      </trkpt>
      <trkpt lat="46.55293" lon="5.29491">
        <ele>201.39999389648</ele>
        <time>2021-03-08T15:02:56.000Z</time>
      </trkpt>
      <trkpt lat="46.55286" lon="5.29486">
        <ele>201.39999389648</ele>
        <time>2021-03-08T15:02:57.000Z</time>
      </trkpt>
      <trkpt lat="46.55275" lon="5.29472">
        <ele>201.60000610352</ele>
        <time>2021-03-08T15:02:59.000Z</time>
      </trkpt>
      <trkpt lat="46.55269" lon="5.29453">
        <ele>201.60000610352</ele>
        <time>2021-03-08T15:03:01.000Z</time>
      </trkpt>
      <trkpt lat="46.55267" lon="5.29444">
        <ele>201.80000305176</ele>
        <time>2021-03-08T15:03:02.000Z</time>
      </trkpt>
      <trkpt lat="46.55262" lon="5.29425">
        <ele>202.19999694824</ele>
        <time>2021-03-08T15:03:04.000Z</time>
      </trkpt>
      <trkpt lat="46.55257" lon="5.29409">
        <ele>202.80000305176</ele>
        <time>2021-03-08T15:03:06.000Z</time>
      </trkpt>
      <trkpt lat="46.55255" lon="5.29401">
        <ele>203</ele>
        <time>2021-03-08T15:03:07.000Z</time>
      </trkpt>
      <trkpt lat="46.55254" lon="5.29394">
        <ele>203.80000305176</ele>
        <time>2021-03-08T15:03:08.000Z</time>
      </trkpt>
      <trkpt lat="46.55252" lon="5.29387">
        <ele>204</ele>
        <time>2021-03-08T15:03:09.000Z</time>
      </trkpt>
      <trkpt lat="46.55251" lon="5.29381">
        <ele>204.39999389648</ele>
        <time>2021-03-08T15:03:10.000Z</time>
      </trkpt>
      <trkpt lat="46.5525" lon="5.29374">
        <ele>204.80000305176</ele>
        <time>2021-03-08T15:03:11.000Z</time>
      </trkpt>
      <trkpt lat="46.55249" lon="5.29367">
        <ele>204.80000305176</ele>
        <time>2021-03-08T15:03:12.000Z</time>
      </trkpt>
      <trkpt lat="46.5525" lon="5.29359">
        <ele>205</ele>
        <time>2021-03-08T15:03:13.000Z</time>
      </trkpt>
      <trkpt lat="46.5525" lon="5.29351">
        <ele>205.19999694824</ele>
        <time>2021-03-08T15:03:14.000Z</time>
      </trkpt>
      <trkpt lat="46.55255" lon="5.29334">
        <ele>206.39999389648</ele>
        <time>2021-03-08T15:03:16.000Z</time>
      </trkpt>
      <trkpt lat="46.55257" lon="5.29324">
        <ele>206.39999389648</ele>
        <time>2021-03-08T15:03:17.000Z</time>
      </trkpt>
      <trkpt lat="46.5526" lon="5.29315">
        <ele>206.39999389648</ele>
        <time>2021-03-08T15:03:18.000Z</time>
      </trkpt>
      <trkpt lat="46.55266" lon="5.29294">
        <ele>206.80000305176</ele>
        <time>2021-03-08T15:03:20.000Z</time>
      </trkpt>
      <trkpt lat="46.5527" lon="5.29283">
        <ele>206.80000305176</ele>
        <time>2021-03-08T15:03:21.000Z</time>
      </trkpt>
      <trkpt lat="46.55273" lon="5.29272">
        <ele>206.80000305176</ele>
        <time>2021-03-08T15:03:22.000Z</time>
      </trkpt>
      <trkpt lat="46.5528" lon="5.29248">
        <ele>206.80000305176</ele>
        <time>2021-03-08T15:03:24.000Z</time>
      </trkpt>
      <trkpt lat="46.55286" lon="5.29225">
        <ele>205.80000305176</ele>
        <time>2021-03-08T15:03:26.000Z</time>
      </trkpt>
      <trkpt lat="46.55288" lon="5.29213">
        <ele>205</ele>
        <time>2021-03-08T15:03:27.000Z</time>
      </trkpt>
      <trkpt lat="46.55289" lon="5.292">
        <ele>204.19999694824</ele>
        <time>2021-03-08T15:03:28.000Z</time>
      </trkpt>
      <trkpt lat="46.55289" lon="5.29188">
        <ele>203.39999389648</ele>
        <time>2021-03-08T15:03:29.000Z</time>
      </trkpt>
      <trkpt lat="46.55288" lon="5.29176">
        <ele>202.60000610352</ele>
        <time>2021-03-08T15:03:30.000Z</time>
      </trkpt>
      <trkpt lat="46.55283" lon="5.29166">
        <ele>202</ele>
        <time>2021-03-08T15:03:31.000Z</time>
      </trkpt>
      <trkpt lat="46.55278" lon="5.29156">
        <ele>201.19999694824</ele>
        <time>2021-03-08T15:03:32.000Z</time>
      </trkpt>
      <trkpt lat="46.55271" lon="5.29147">
        <ele>201</ele>
        <time>2021-03-08T15:03:33.000Z</time>
      </trkpt>
      <trkpt lat="46.55265" lon="5.29139">
        <ele>200.60000610352</ele>
        <time>2021-03-08T15:03:34.000Z</time>
      </trkpt>
      <trkpt lat="46.5525" lon="5.29121">
        <ele>200</ele>
        <time>2021-03-08T15:03:36.000Z</time>
      </trkpt>
      <trkpt lat="46.55244" lon="5.29111">
        <ele>199.80000305176</ele>
        <time>2021-03-08T15:03:37.000Z</time>
      </trkpt>
      <trkpt lat="46.55237" lon="5.29101">
        <ele>199.60000610352</ele>
        <time>2021-03-08T15:03:38.000Z</time>
      </trkpt>
      <trkpt lat="46.5523" lon="5.2909">
        <ele>199.39999389648</ele>
        <time>2021-03-08T15:03:39.000Z</time>
      </trkpt>
      <trkpt lat="46.55224" lon="5.29079">
        <ele>199.19999694824</ele>
        <time>2021-03-08T15:03:40.000Z</time>
      </trkpt>
      <trkpt lat="46.55211" lon="5.29055">
        <ele>198.80000305176</ele>
        <time>2021-03-08T15:03:42.000Z</time>
      </trkpt>
      <trkpt lat="46.55204" lon="5.29043">
        <ele>198.19999694824</ele>
        <time>2021-03-08T15:03:43.000Z</time>
      </trkpt>
      <trkpt lat="46.55197" lon="5.29031">
        <ele>197.19999694824</ele>
        <time>2021-03-08T15:03:44.000Z</time>
      </trkpt>
      <trkpt lat="46.5519" lon="5.29018">
        <ele>196.19999694824</ele>
        <time>2021-03-08T15:03:45.000Z</time>
      </trkpt>
      <trkpt lat="46.55183" lon="5.29005">
        <ele>195.39999389648</ele>
        <time>2021-03-08T15:03:46.000Z</time>
      </trkpt>
      <trkpt lat="46.55176" lon="5.28992">
        <ele>194.80000305176</ele>
        <time>2021-03-08T15:03:47.000Z</time>
      </trkpt>
      <trkpt lat="46.55169" lon="5.28979">
        <ele>194.39999389648</ele>
        <time>2021-03-08T15:03:48.000Z</time>
      </trkpt>
      <trkpt lat="46.55155" lon="5.28952">
        <ele>193.19999694824</ele>
        <time>2021-03-08T15:03:50.000Z</time>
      </trkpt>
      <trkpt lat="46.55151" lon="5.28938">
        <ele>192.19999694824</ele>
        <time>2021-03-08T15:03:51.000Z</time>
      </trkpt>
      <trkpt lat="46.55148" lon="5.28923">
        <ele>191.60000610352</ele>
        <time>2021-03-08T15:03:52.000Z</time>
      </trkpt>
      <trkpt lat="46.55147" lon="5.28908">
        <ele>190.80000305176</ele>
        <time>2021-03-08T15:03:53.000Z</time>
      </trkpt>
      <trkpt lat="46.55147" lon="5.28893">
        <ele>189.80000305176</ele>
        <time>2021-03-08T15:03:54.000Z</time>
      </trkpt>
      <trkpt lat="46.55148" lon="5.28878">
        <ele>188.80000305176</ele>
        <time>2021-03-08T15:03:55.000Z</time>
      </trkpt>
      <trkpt lat="46.55149" lon="5.28864">
        <ele>187.80000305176</ele>
        <time>2021-03-08T15:03:56.000Z</time>
      </trkpt>
      <trkpt lat="46.55152" lon="5.28836">
        <ele>186.19999694824</ele>
        <time>2021-03-08T15:03:58.000Z</time>
      </trkpt>
      <trkpt lat="46.55154" lon="5.28809">
        <ele>185.60000610352</ele>
        <time>2021-03-08T15:04:00.000Z</time>
      </trkpt>
      <trkpt lat="46.55154" lon="5.28796">
        <ele>185.60000610352</ele>
        <time>2021-03-08T15:04:01.000Z</time>
      </trkpt>
      <trkpt lat="46.55152" lon="5.28784">
        <ele>185.60000610352</ele>
        <time>2021-03-08T15:04:02.000Z</time>
      </trkpt>
      <trkpt lat="46.55145" lon="5.28762">
        <ele>185.60000610352</ele>
        <time>2021-03-08T15:04:04.000Z</time>
      </trkpt>
      <trkpt lat="46.55133" lon="5.28744">
        <ele>185.39999389648</ele>
        <time>2021-03-08T15:04:06.000Z</time>
      </trkpt>
      <trkpt lat="46.55127" lon="5.28736">
        <ele>185.60000610352</ele>
        <time>2021-03-08T15:04:07.000Z</time>
      </trkpt>
      <trkpt lat="46.55121" lon="5.28728">
        <ele>185.80000305176</ele>
        <time>2021-03-08T15:04:08.000Z</time>
      </trkpt>
      <trkpt lat="46.5511" lon="5.28711">
        <ele>186.19999694824</ele>
        <time>2021-03-08T15:04:10.000Z</time>
      </trkpt>
      <trkpt lat="46.551" lon="5.28692">
        <ele>186.39999389648</ele>
        <time>2021-03-08T15:04:12.000Z</time>
      </trkpt>
      <trkpt lat="46.55095" lon="5.28683">
        <ele>186.60000610352</ele>
        <time>2021-03-08T15:04:13.000Z</time>
      </trkpt>
      <trkpt lat="46.5509" lon="5.28674">
        <ele>186.80000305176</ele>
        <time>2021-03-08T15:04:14.000Z</time>
      </trkpt>
      <trkpt lat="46.5508" lon="5.28656">
        <ele>186.80000305176</ele>
        <time>2021-03-08T15:04:16.000Z</time>
      </trkpt>
      <trkpt lat="46.5507" lon="5.28638">
        <ele>187</ele>
        <time>2021-03-08T15:04:18.000Z</time>
      </trkpt>
      <trkpt lat="46.5506" lon="5.28621">
        <ele>187</ele>
        <time>2021-03-08T15:04:20.000Z</time>
      </trkpt>
      <trkpt lat="46.55051" lon="5.28604">
        <ele>187.19999694824</ele>
        <time>2021-03-08T15:04:22.000Z</time>
      </trkpt>
      <trkpt lat="46.55046" lon="5.28596">
        <ele>187.19999694824</ele>
        <time>2021-03-08T15:04:23.000Z</time>
      </trkpt>
      <trkpt lat="46.55042" lon="5.28588">
        <ele>187.39999389648</ele>
        <time>2021-03-08T15:04:24.000Z</time>
      </trkpt>
      <trkpt lat="46.55033" lon="5.28572">
        <ele>187.39999389648</ele>
        <time>2021-03-08T15:04:26.000Z</time>
      </trkpt>
      <trkpt lat="46.55025" lon="5.28557">
        <ele>187.80000305176</ele>
        <time>2021-03-08T15:04:28.000Z</time>
      </trkpt>
      <trkpt lat="46.55017" lon="5.28543">
        <ele>188.39999389648</ele>
        <time>2021-03-08T15:04:30.000Z</time>
      </trkpt>
      <trkpt lat="46.55009" lon="5.28529">
        <ele>188.60000610352</ele>
        <time>2021-03-08T15:04:32.000Z</time>
      </trkpt>
      <trkpt lat="46.55001" lon="5.28515">
        <ele>189.19999694824</ele>
        <time>2021-03-08T15:04:34.000Z</time>
      </trkpt>
      <trkpt lat="46.54993" lon="5.28501">
        <ele>189.39999389648</ele>
        <time>2021-03-08T15:04:36.000Z</time>
      </trkpt>
      <trkpt lat="46.54986" lon="5.28487">
        <ele>189.80000305176</ele>
        <time>2021-03-08T15:04:38.000Z</time>
      </trkpt>
      <trkpt lat="46.54982" lon="5.28481">
        <ele>190.19999694824</ele>
        <time>2021-03-08T15:04:39.000Z</time>
      </trkpt>
      <trkpt lat="46.54978" lon="5.28475">
        <ele>190.39999389648</ele>
        <time>2021-03-08T15:04:40.000Z</time>
      </trkpt>
      <trkpt lat="46.54974" lon="5.28469">
        <ele>190.39999389648</ele>
        <time>2021-03-08T15:04:41.000Z</time>
      </trkpt>
      <trkpt lat="46.54969" lon="5.28464">
        <ele>190.60000610352</ele>
        <time>2021-03-08T15:04:42.000Z</time>
      </trkpt>
      <trkpt lat="46.54959" lon="5.28456">
        <ele>191</ele>
        <time>2021-03-08T15:04:44.000Z</time>
      </trkpt>
      <trkpt lat="46.54949" lon="5.2845">
        <ele>191.39999389648</ele>
        <time>2021-03-08T15:04:46.000Z</time>
      </trkpt>
      <trkpt lat="46.54944" lon="5.28448">
        <ele>191.60000610352</ele>
        <time>2021-03-08T15:04:47.000Z</time>
      </trkpt>
      <trkpt lat="46.54939" lon="5.28445">
        <ele>191.80000305176</ele>
        <time>2021-03-08T15:04:48.000Z</time>
      </trkpt>
      <trkpt lat="46.54933" lon="5.28443">
        <ele>192.19999694824</ele>
        <time>2021-03-08T15:04:49.000Z</time>
      </trkpt>
      <trkpt lat="46.54928" lon="5.28441">
        <ele>192.39999389648</ele>
        <time>2021-03-08T15:04:50.000Z</time>
      </trkpt>
      <trkpt lat="46.54923" lon="5.28439">
        <ele>192.60000610352</ele>
        <time>2021-03-08T15:04:51.000Z</time>
      </trkpt>
      <trkpt lat="46.54917" lon="5.28436">
        <ele>193</ele>
        <time>2021-03-08T15:04:52.000Z</time>
      </trkpt>
      <trkpt lat="46.54907" lon="5.2843">
        <ele>193.60000610352</ele>
        <time>2021-03-08T15:04:54.000Z</time>
      </trkpt>
      <trkpt lat="46.54903" lon="5.28426">
        <ele>193.80000305176</ele>
        <time>2021-03-08T15:04:55.000Z</time>
      </trkpt>
      <trkpt lat="46.54898" lon="5.28422">
        <ele>194.19999694824</ele>
        <time>2021-03-08T15:04:56.000Z</time>
      </trkpt>
      <trkpt lat="46.54888" lon="5.28414">
        <ele>194.80000305176</ele>
        <time>2021-03-08T15:04:58.000Z</time>
      </trkpt>
      <trkpt lat="46.54878" lon="5.28406">
        <ele>194.80000305176</ele>
        <time>2021-03-08T15:05:00.000Z</time>
      </trkpt>
      <trkpt lat="46.54868" lon="5.28398">
        <ele>195</ele>
        <time>2021-03-08T15:05:02.000Z</time>
      </trkpt>
      <trkpt lat="46.54863" lon="5.28395">
        <ele>195</ele>
        <time>2021-03-08T15:05:03.000Z</time>
      </trkpt>
      <trkpt lat="46.54858" lon="5.28391">
        <ele>195</ele>
        <time>2021-03-08T15:05:04.000Z</time>
      </trkpt>
      <trkpt lat="46.54848" lon="5.28386">
        <ele>195.39999389648</ele>
        <time>2021-03-08T15:05:06.000Z</time>
      </trkpt>
      <trkpt lat="46.54839" lon="5.2838">
        <ele>195.80000305176</ele>
        <time>2021-03-08T15:05:08.000Z</time>
      </trkpt>
      <trkpt lat="46.54829" lon="5.28374">
        <ele>196.19999694824</ele>
        <time>2021-03-08T15:05:10.000Z</time>
      </trkpt>
      <trkpt lat="46.5482" lon="5.28369">
        <ele>196.39999389648</ele>
        <time>2021-03-08T15:05:12.000Z</time>
      </trkpt>
      <trkpt lat="46.54816" lon="5.28366">
        <ele>197</ele>
        <time>2021-03-08T15:05:13.000Z</time>
      </trkpt>
      <trkpt lat="46.54811" lon="5.28364">
        <ele>197.19999694824</ele>
        <time>2021-03-08T15:05:14.000Z</time>
      </trkpt>
      <trkpt lat="46.54802" lon="5.28358">
        <ele>197.60000610352</ele>
        <time>2021-03-08T15:05:16.000Z</time>
      </trkpt>
      <trkpt lat="46.54797" lon="5.28356">
        <ele>198</ele>
        <time>2021-03-08T15:05:17.000Z</time>
      </trkpt>
      <trkpt lat="46.54791" lon="5.28355">
        <ele>198.39999389648</ele>
        <time>2021-03-08T15:05:18.000Z</time>
      </trkpt>
      <trkpt lat="46.54785" lon="5.28355">
        <ele>198.80000305176</ele>
        <time>2021-03-08T15:05:19.000Z</time>
      </trkpt>
      <trkpt lat="46.5478" lon="5.28358">
        <ele>199.19999694824</ele>
        <time>2021-03-08T15:05:20.000Z</time>
      </trkpt>
      <trkpt lat="46.54775" lon="5.28363">
        <ele>199.60000610352</ele>
        <time>2021-03-08T15:05:21.000Z</time>
      </trkpt>
      <trkpt lat="46.5477" lon="5.28369">
        <ele>199.80000305176</ele>
        <time>2021-03-08T15:05:22.000Z</time>
      </trkpt>
      <trkpt lat="46.54765" lon="5.28375">
        <ele>200</ele>
        <time>2021-03-08T15:05:23.000Z</time>
      </trkpt>
      <trkpt lat="46.5476" lon="5.28381">
        <ele>200</ele>
        <time>2021-03-08T15:05:24.000Z</time>
      </trkpt>
      <trkpt lat="46.54754" lon="5.28387">
        <ele>200</ele>
        <time>2021-03-08T15:05:25.000Z</time>
      </trkpt>
      <trkpt lat="46.54748" lon="5.28392">
        <ele>200</ele>
        <time>2021-03-08T15:05:26.000Z</time>
      </trkpt>
      <trkpt lat="46.54741" lon="5.28397">
        <ele>200</ele>
        <time>2021-03-08T15:05:27.000Z</time>
      </trkpt>
      <trkpt lat="46.54733" lon="5.28401">
        <ele>200</ele>
        <time>2021-03-08T15:05:28.000Z</time>
      </trkpt>
      <trkpt lat="46.54725" lon="5.28404">
        <ele>200</ele>
        <time>2021-03-08T15:05:29.000Z</time>
      </trkpt>
      <trkpt lat="46.54717" lon="5.28407">
        <ele>200</ele>
        <time>2021-03-08T15:05:30.000Z</time>
      </trkpt>
      <trkpt lat="46.54701" lon="5.28415">
        <ele>200</ele>
        <time>2021-03-08T15:05:32.000Z</time>
      </trkpt>
      <trkpt lat="46.54684" lon="5.28424">
        <ele>199.60000610352</ele>
        <time>2021-03-08T15:05:34.000Z</time>
      </trkpt>
      <trkpt lat="46.54667" lon="5.28435">
        <ele>199</ele>
        <time>2021-03-08T15:05:36.000Z</time>
      </trkpt>
      <trkpt lat="46.54658" lon="5.2844">
        <ele>198.39999389648</ele>
        <time>2021-03-08T15:05:37.000Z</time>
      </trkpt>
      <trkpt lat="46.54648" lon="5.28444">
        <ele>197.80000305176</ele>
        <time>2021-03-08T15:05:38.000Z</time>
      </trkpt>
      <trkpt lat="46.54639" lon="5.28446">
        <ele>197.19999694824</ele>
        <time>2021-03-08T15:05:39.000Z</time>
      </trkpt>
      <trkpt lat="46.54629" lon="5.28449">
        <ele>196.80000305176</ele>
        <time>2021-03-08T15:05:40.000Z</time>
      </trkpt>
      <trkpt lat="46.5461" lon="5.28452">
        <ele>196</ele>
        <time>2021-03-08T15:05:42.000Z</time>
      </trkpt>
      <trkpt lat="46.546" lon="5.28453">
        <ele>195.80000305176</ele>
        <time>2021-03-08T15:05:43.000Z</time>
      </trkpt>
      <trkpt lat="46.5459" lon="5.28453">
        <ele>195.19999694824</ele>
        <time>2021-03-08T15:05:44.000Z</time>
      </trkpt>
      <trkpt lat="46.5458" lon="5.28452">
        <ele>194.80000305176</ele>
        <time>2021-03-08T15:05:45.000Z</time>
      </trkpt>
      <trkpt lat="46.5457" lon="5.2845">
        <ele>194.19999694824</ele>
        <time>2021-03-08T15:05:46.000Z</time>
      </trkpt>
      <trkpt lat="46.5456" lon="5.28448">
        <ele>193.80000305176</ele>
        <time>2021-03-08T15:05:47.000Z</time>
      </trkpt>
      <trkpt lat="46.5455" lon="5.28446">
        <ele>193.39999389648</ele>
        <time>2021-03-08T15:05:48.000Z</time>
      </trkpt>
      <trkpt lat="46.5454" lon="5.28445">
        <ele>193.19999694824</ele>
        <time>2021-03-08T15:05:49.000Z</time>
      </trkpt>
      <trkpt lat="46.5453" lon="5.28445">
        <ele>193</ele>
        <time>2021-03-08T15:05:50.000Z</time>
      </trkpt>
      <trkpt lat="46.5452" lon="5.28446">
        <ele>193</ele>
        <time>2021-03-08T15:05:51.000Z</time>
      </trkpt>
      <trkpt lat="46.54511" lon="5.28447">
        <ele>192.80000305176</ele>
        <time>2021-03-08T15:05:52.000Z</time>
      </trkpt>
      <trkpt lat="46.54491" lon="5.28449">
        <ele>192.19999694824</ele>
        <time>2021-03-08T15:05:54.000Z</time>
      </trkpt>
      <trkpt lat="46.54472" lon="5.28447">
        <ele>192</ele>
        <time>2021-03-08T15:05:56.000Z</time>
      </trkpt>
      <trkpt lat="46.54463" lon="5.28447">
        <ele>191.80000305176</ele>
        <time>2021-03-08T15:05:57.000Z</time>
      </trkpt>
      <trkpt lat="46.54454" lon="5.28446">
        <ele>191.80000305176</ele>
        <time>2021-03-08T15:05:58.000Z</time>
      </trkpt>
      <trkpt lat="46.54445" lon="5.28447">
        <ele>191.80000305176</ele>
        <time>2021-03-08T15:05:59.000Z</time>
      </trkpt>
      <trkpt lat="46.54436" lon="5.28449">
        <ele>191.80000305176</ele>
        <time>2021-03-08T15:06:00.000Z</time>
      </trkpt>
      <trkpt lat="46.54427" lon="5.28452">
        <ele>191.80000305176</ele>
        <time>2021-03-08T15:06:01.000Z</time>
      </trkpt>
      <trkpt lat="46.54419" lon="5.28457">
        <ele>191.80000305176</ele>
        <time>2021-03-08T15:06:02.000Z</time>
      </trkpt>
      <trkpt lat="46.54405" lon="5.2847">
        <ele>191.80000305176</ele>
        <time>2021-03-08T15:06:04.000Z</time>
      </trkpt>
      <trkpt lat="46.54398" lon="5.28477">
        <ele>191.80000305176</ele>
        <time>2021-03-08T15:06:05.000Z</time>
      </trkpt>
      <trkpt lat="46.54391" lon="5.28483">
        <ele>191.80000305176</ele>
        <time>2021-03-08T15:06:06.000Z</time>
      </trkpt>
      <trkpt lat="46.54376" lon="5.28495">
        <ele>192</ele>
        <time>2021-03-08T15:06:08.000Z</time>
      </trkpt>
      <trkpt lat="46.54362" lon="5.28507">
        <ele>192.19999694824</ele>
        <time>2021-03-08T15:06:10.000Z</time>
      </trkpt>
      <trkpt lat="46.54349" lon="5.28517">
        <ele>192.60000610352</ele>
        <time>2021-03-08T15:06:12.000Z</time>
      </trkpt>
      <trkpt lat="46.54336" lon="5.28527">
        <ele>192.80000305176</ele>
        <time>2021-03-08T15:06:14.000Z</time>
      </trkpt>
      <trkpt lat="46.54324" lon="5.28537">
        <ele>193.39999389648</ele>
        <time>2021-03-08T15:06:16.000Z</time>
      </trkpt>
      <trkpt lat="46.54313" lon="5.28546">
        <ele>193.80000305176</ele>
        <time>2021-03-08T15:06:18.000Z</time>
      </trkpt>
      <trkpt lat="46.54308" lon="5.2855">
        <ele>194</ele>
        <time>2021-03-08T15:06:19.000Z</time>
      </trkpt>
      <trkpt lat="46.54302" lon="5.28553">
        <ele>194.19999694824</ele>
        <time>2021-03-08T15:06:20.000Z</time>
      </trkpt>
      <trkpt lat="46.54292" lon="5.28562">
        <ele>194.60000610352</ele>
        <time>2021-03-08T15:06:22.000Z</time>
      </trkpt>
      <trkpt lat="46.54281" lon="5.28569">
        <ele>195</ele>
        <time>2021-03-08T15:06:24.000Z</time>
      </trkpt>
      <trkpt lat="46.54272" lon="5.28578">
        <ele>195.80000305176</ele>
        <time>2021-03-08T15:06:26.000Z</time>
      </trkpt>
      <trkpt lat="46.54267" lon="5.28581">
        <ele>196.19999694824</ele>
        <time>2021-03-08T15:06:27.000Z</time>
      </trkpt>
      <trkpt lat="46.54261" lon="5.28585">
        <ele>196.60000610352</ele>
        <time>2021-03-08T15:06:28.000Z</time>
      </trkpt>
      <trkpt lat="46.54256" lon="5.28588">
        <ele>197</ele>
        <time>2021-03-08T15:06:29.000Z</time>
      </trkpt>
      <trkpt lat="46.54251" lon="5.28592">
        <ele>197.39999389648</ele>
        <time>2021-03-08T15:06:30.000Z</time>
      </trkpt>
      <trkpt lat="46.54241" lon="5.28599">
        <ele>198.19999694824</ele>
        <time>2021-03-08T15:06:32.000Z</time>
      </trkpt>
      <trkpt lat="46.54231" lon="5.28606">
        <ele>198.80000305176</ele>
        <time>2021-03-08T15:06:34.000Z</time>
      </trkpt>
      <trkpt lat="46.54221" lon="5.28612">
        <ele>199.39999389648</ele>
        <time>2021-03-08T15:06:36.000Z</time>
      </trkpt>
      <trkpt lat="46.54211" lon="5.28618">
        <ele>200</ele>
        <time>2021-03-08T15:06:38.000Z</time>
      </trkpt>
      <trkpt lat="46.54201" lon="5.28623">
        <ele>200.60000610352</ele>
        <time>2021-03-08T15:06:40.000Z</time>
      </trkpt>
      <trkpt lat="46.54197" lon="5.28625">
        <ele>200.80000305176</ele>
        <time>2021-03-08T15:06:41.000Z</time>
      </trkpt>
      <trkpt lat="46.54192" lon="5.28628">
        <ele>201</ele>
        <time>2021-03-08T15:06:42.000Z</time>
      </trkpt>
      <trkpt lat="46.54182" lon="5.28632">
        <ele>201.60000610352</ele>
        <time>2021-03-08T15:06:44.000Z</time>
      </trkpt>
      <trkpt lat="46.54177" lon="5.28634">
        <ele>201.80000305176</ele>
        <time>2021-03-08T15:06:45.000Z</time>
      </trkpt>
      <trkpt lat="46.54172" lon="5.28636">
        <ele>202</ele>
        <time>2021-03-08T15:06:46.000Z</time>
      </trkpt>
      <trkpt lat="46.54162" lon="5.28639">
        <ele>202.60000610352</ele>
        <time>2021-03-08T15:06:48.000Z</time>
      </trkpt>
      <trkpt lat="46.54157" lon="5.2864">
        <ele>203</ele>
        <time>2021-03-08T15:06:49.000Z</time>
      </trkpt>
      <trkpt lat="46.54152" lon="5.2864">
        <ele>203.39999389648</ele>
        <time>2021-03-08T15:06:50.000Z</time>
      </trkpt>
      <trkpt lat="46.54142" lon="5.28641">
        <ele>204.19999694824</ele>
        <time>2021-03-08T15:06:52.000Z</time>
      </trkpt>
      <trkpt lat="46.54131" lon="5.28642">
        <ele>204.80000305176</ele>
        <time>2021-03-08T15:06:54.000Z</time>
      </trkpt>
      <trkpt lat="46.54126" lon="5.28642">
        <ele>205.19999694824</ele>
        <time>2021-03-08T15:06:55.000Z</time>
      </trkpt>
      <trkpt lat="46.5412" lon="5.28642">
        <ele>205.60000610352</ele>
        <time>2021-03-08T15:06:56.000Z</time>
      </trkpt>
      <trkpt lat="46.54115" lon="5.28642">
        <ele>205.80000305176</ele>
        <time>2021-03-08T15:06:57.000Z</time>
      </trkpt>
      <trkpt lat="46.54109" lon="5.28641">
        <ele>206.19999694824</ele>
        <time>2021-03-08T15:06:58.000Z</time>
      </trkpt>
      <trkpt lat="46.54103" lon="5.2864">
        <ele>206.39999389648</ele>
        <time>2021-03-08T15:06:59.000Z</time>
      </trkpt>
      <trkpt lat="46.54097" lon="5.2864">
        <ele>207</ele>
        <time>2021-03-08T15:07:00.000Z</time>
      </trkpt>
      <trkpt lat="46.54086" lon="5.28639">
        <ele>207.60000610352</ele>
        <time>2021-03-08T15:07:02.000Z</time>
      </trkpt>
      <trkpt lat="46.54074" lon="5.28638">
        <ele>207.80000305176</ele>
        <time>2021-03-08T15:07:04.000Z</time>
      </trkpt>
      <trkpt lat="46.54062" lon="5.28637">
        <ele>208</ele>
        <time>2021-03-08T15:07:06.000Z</time>
      </trkpt>
      <trkpt lat="46.54056" lon="5.28636">
        <ele>208.19999694824</ele>
        <time>2021-03-08T15:07:07.000Z</time>
      </trkpt>
      <trkpt lat="46.54044" lon="5.28635">
        <ele>208.19999694824</ele>
        <time>2021-03-08T15:07:09.000Z</time>
      </trkpt>
      <trkpt lat="46.54031" lon="5.28633">
        <ele>208.19999694824</ele>
        <time>2021-03-08T15:07:11.000Z</time>
      </trkpt>
      <trkpt lat="46.54025" lon="5.28633">
        <ele>208.39999389648</ele>
        <time>2021-03-08T15:07:12.000Z</time>
      </trkpt>
      <trkpt lat="46.54012" lon="5.28632">
        <ele>208.39999389648</ele>
        <time>2021-03-08T15:07:14.000Z</time>
      </trkpt>
      <trkpt lat="46.54" lon="5.28631">
        <ele>208.39999389648</ele>
        <time>2021-03-08T15:07:16.000Z</time>
      </trkpt>
      <trkpt lat="46.53993" lon="5.28631">
        <ele>208.60000610352</ele>
        <time>2021-03-08T15:07:17.000Z</time>
      </trkpt>
      <trkpt lat="46.53987" lon="5.2863">
        <ele>208.60000610352</ele>
        <time>2021-03-08T15:07:18.000Z</time>
      </trkpt>
      <trkpt lat="46.53974" lon="5.28629">
        <ele>208.80000305176</ele>
        <time>2021-03-08T15:07:20.000Z</time>
      </trkpt>
      <trkpt lat="46.53962" lon="5.28629">
        <ele>209</ele>
        <time>2021-03-08T15:07:22.000Z</time>
      </trkpt>
      <trkpt lat="46.53949" lon="5.28628">
        <ele>209</ele>
        <time>2021-03-08T15:07:24.000Z</time>
      </trkpt>
      <trkpt lat="46.53936" lon="5.28627">
        <ele>209.19999694824</ele>
        <time>2021-03-08T15:07:26.000Z</time>
      </trkpt>
      <trkpt lat="46.5393" lon="5.28626">
        <ele>209.19999694824</ele>
        <time>2021-03-08T15:07:27.000Z</time>
      </trkpt>
      <trkpt lat="46.53923" lon="5.28626">
        <ele>209.39999389648</ele>
        <time>2021-03-08T15:07:28.000Z</time>
      </trkpt>
      <trkpt lat="46.53917" lon="5.28626">
        <ele>209.80000305176</ele>
        <time>2021-03-08T15:07:29.000Z</time>
      </trkpt>
      <trkpt lat="46.53911" lon="5.28626">
        <ele>210</ele>
        <time>2021-03-08T15:07:30.000Z</time>
      </trkpt>
      <trkpt lat="46.53899" lon="5.28625">
        <ele>210.19999694824</ele>
        <time>2021-03-08T15:07:32.000Z</time>
      </trkpt>
      <trkpt lat="46.53887" lon="5.28623">
        <ele>210.39999389648</ele>
        <time>2021-03-08T15:07:34.000Z</time>
      </trkpt>
      <trkpt lat="46.53881" lon="5.28623">
        <ele>210.60000610352</ele>
        <time>2021-03-08T15:07:35.000Z</time>
      </trkpt>
      <trkpt lat="46.53874" lon="5.28622">
        <ele>210.60000610352</ele>
        <time>2021-03-08T15:07:36.000Z</time>
      </trkpt>
      <trkpt lat="46.53862" lon="5.28621">
        <ele>210.80000305176</ele>
        <time>2021-03-08T15:07:38.000Z</time>
      </trkpt>
      <trkpt lat="46.53849" lon="5.2862">
        <ele>211</ele>
        <time>2021-03-08T15:07:40.000Z</time>
      </trkpt>
      <trkpt lat="46.53836" lon="5.28619">
        <ele>211.39999389648</ele>
        <time>2021-03-08T15:07:42.000Z</time>
      </trkpt>
      <trkpt lat="46.53822" lon="5.28618">
        <ele>211.39999389648</ele>
        <time>2021-03-08T15:07:44.000Z</time>
      </trkpt>
      <trkpt lat="46.53808" lon="5.28617">
        <ele>211.60000610352</ele>
        <time>2021-03-08T15:07:46.000Z</time>
      </trkpt>
      <trkpt lat="46.53794" lon="5.28616">
        <ele>211.60000610352</ele>
        <time>2021-03-08T15:07:48.000Z</time>
      </trkpt>
      <trkpt lat="46.53779" lon="5.28615">
        <ele>211.60000610352</ele>
        <time>2021-03-08T15:07:50.000Z</time>
      </trkpt>
      <trkpt lat="46.53765" lon="5.28614">
        <ele>211.60000610352</ele>
        <time>2021-03-08T15:07:52.000Z</time>
      </trkpt>
      <trkpt lat="46.5375" lon="5.28612">
        <ele>211.39999389648</ele>
        <time>2021-03-08T15:07:54.000Z</time>
      </trkpt>
      <trkpt lat="46.53735" lon="5.28611">
        <ele>211.39999389648</ele>
        <time>2021-03-08T15:07:56.000Z</time>
      </trkpt>
      <trkpt lat="46.5372" lon="5.28609">
        <ele>211.39999389648</ele>
        <time>2021-03-08T15:07:58.000Z</time>
      </trkpt>
      <trkpt lat="46.53705" lon="5.28608">
        <ele>211.19999694824</ele>
        <time>2021-03-08T15:08:00.000Z</time>
      </trkpt>
      <trkpt lat="46.53691" lon="5.28607">
        <ele>211</ele>
        <time>2021-03-08T15:08:02.000Z</time>
      </trkpt>
      <trkpt lat="46.53676" lon="5.28606">
        <ele>210.80000305176</ele>
        <time>2021-03-08T15:08:04.000Z</time>
      </trkpt>
      <trkpt lat="46.53661" lon="5.28605">
        <ele>210.39999389648</ele>
        <time>2021-03-08T15:08:06.000Z</time>
      </trkpt>
      <trkpt lat="46.53646" lon="5.28604">
        <ele>210.39999389648</ele>
        <time>2021-03-08T15:08:08.000Z</time>
      </trkpt>
      <trkpt lat="46.53631" lon="5.28603">
        <ele>210.39999389648</ele>
        <time>2021-03-08T15:08:10.000Z</time>
      </trkpt>
      <trkpt lat="46.53616" lon="5.28602">
        <ele>210.19999694824</ele>
        <time>2021-03-08T15:08:12.000Z</time>
      </trkpt>
      <trkpt lat="46.53599" lon="5.28601">
        <ele>210</ele>
        <time>2021-03-08T15:08:14.000Z</time>
      </trkpt>
      <trkpt lat="46.53583" lon="5.286">
        <ele>209.80000305176</ele>
        <time>2021-03-08T15:08:16.000Z</time>
      </trkpt>
      <trkpt lat="46.53575" lon="5.286">
        <ele>209.80000305176</ele>
        <time>2021-03-08T15:08:17.000Z</time>
      </trkpt>
      <trkpt lat="46.53568" lon="5.28599">
        <ele>209.60000610352</ele>
        <time>2021-03-08T15:08:18.000Z</time>
      </trkpt>
      <trkpt lat="46.53552" lon="5.28597">
        <ele>209.60000610352</ele>
        <time>2021-03-08T15:08:20.000Z</time>
      </trkpt>
      <trkpt lat="46.53536" lon="5.28596">
        <ele>209.39999389648</ele>
        <time>2021-03-08T15:08:22.000Z</time>
      </trkpt>
      <trkpt lat="46.53521" lon="5.28595">
        <ele>209.19999694824</ele>
        <time>2021-03-08T15:08:24.000Z</time>
      </trkpt>
      <trkpt lat="46.53504" lon="5.28594">
        <ele>209</ele>
        <time>2021-03-08T15:08:26.000Z</time>
      </trkpt>
      <trkpt lat="46.53487" lon="5.28593">
        <ele>208.80000305176</ele>
        <time>2021-03-08T15:08:28.000Z</time>
      </trkpt>
      <trkpt lat="46.53468" lon="5.28591">
        <ele>208.60000610352</ele>
        <time>2021-03-08T15:08:30.000Z</time>
      </trkpt>
      <trkpt lat="46.53449" lon="5.28586">
        <ele>208.19999694824</ele>
        <time>2021-03-08T15:08:32.000Z</time>
      </trkpt>
      <trkpt lat="46.53429" lon="5.28578">
        <ele>207.80000305176</ele>
        <time>2021-03-08T15:08:34.000Z</time>
      </trkpt>
      <trkpt lat="46.53419" lon="5.28573">
        <ele>207.39999389648</ele>
        <time>2021-03-08T15:08:35.000Z</time>
      </trkpt>
      <trkpt lat="46.53409" lon="5.28567">
        <ele>207</ele>
        <time>2021-03-08T15:08:36.000Z</time>
      </trkpt>
      <trkpt lat="46.53399" lon="5.28561">
        <ele>206.39999389648</ele>
        <time>2021-03-08T15:08:37.000Z</time>
      </trkpt>
      <trkpt lat="46.5339" lon="5.28555">
        <ele>205.80000305176</ele>
        <time>2021-03-08T15:08:38.000Z</time>
      </trkpt>
      <trkpt lat="46.53379" lon="5.28548">
        <ele>205.39999389648</ele>
        <time>2021-03-08T15:08:39.000Z</time>
      </trkpt>
      <trkpt lat="46.53369" lon="5.28542">
        <ele>204.60000610352</ele>
        <time>2021-03-08T15:08:40.000Z</time>
      </trkpt>
      <trkpt lat="46.53359" lon="5.28535">
        <ele>203.60000610352</ele>
        <time>2021-03-08T15:08:41.000Z</time>
      </trkpt>
      <trkpt lat="46.53349" lon="5.28528">
        <ele>202.60000610352</ele>
        <time>2021-03-08T15:08:42.000Z</time>
      </trkpt>
      <trkpt lat="46.53339" lon="5.28523">
        <ele>201.80000305176</ele>
        <time>2021-03-08T15:08:43.000Z</time>
      </trkpt>
      <trkpt lat="46.53329" lon="5.28518">
        <ele>201</ele>
        <time>2021-03-08T15:08:44.000Z</time>
      </trkpt>
      <trkpt lat="46.53318" lon="5.28514">
        <ele>200</ele>
        <time>2021-03-08T15:08:45.000Z</time>
      </trkpt>
      <trkpt lat="46.53307" lon="5.28512">
        <ele>199.39999389648</ele>
        <time>2021-03-08T15:08:46.000Z</time>
      </trkpt>
      <trkpt lat="46.53296" lon="5.28511">
        <ele>198.60000610352</ele>
        <time>2021-03-08T15:08:47.000Z</time>
      </trkpt>
      <trkpt lat="46.53285" lon="5.28511">
        <ele>198.19999694824</ele>
        <time>2021-03-08T15:08:48.000Z</time>
      </trkpt>
      <trkpt lat="46.53275" lon="5.28511">
        <ele>197.60000610352</ele>
        <time>2021-03-08T15:08:49.000Z</time>
      </trkpt>
      <trkpt lat="46.53265" lon="5.28511">
        <ele>197.19999694824</ele>
        <time>2021-03-08T15:08:50.000Z</time>
      </trkpt>
      <trkpt lat="46.53247" lon="5.28512">
        <ele>196.80000305176</ele>
        <time>2021-03-08T15:08:52.000Z</time>
      </trkpt>
      <trkpt lat="46.53231" lon="5.28512">
        <ele>196.80000305176</ele>
        <time>2021-03-08T15:08:54.000Z</time>
      </trkpt>
      <trkpt lat="46.53216" lon="5.28513">
        <ele>196.60000610352</ele>
        <time>2021-03-08T15:08:56.000Z</time>
      </trkpt>
      <trkpt lat="46.53202" lon="5.28515">
        <ele>196.60000610352</ele>
        <time>2021-03-08T15:08:58.000Z</time>
      </trkpt>
      <trkpt lat="46.53188" lon="5.28518">
        <ele>197.39999389648</ele>
        <time>2021-03-08T15:09:00.000Z</time>
      </trkpt>
      <trkpt lat="46.53181" lon="5.28519">
        <ele>197.80000305176</ele>
        <time>2021-03-08T15:09:01.000Z</time>
      </trkpt>
      <trkpt lat="46.53174" lon="5.28519">
        <ele>198.39999389648</ele>
        <time>2021-03-08T15:09:02.000Z</time>
      </trkpt>
      <trkpt lat="46.53168" lon="5.2852">
        <ele>199</ele>
        <time>2021-03-08T15:09:03.000Z</time>
      </trkpt>
      <trkpt lat="46.53162" lon="5.28521">
        <ele>199.60000610352</ele>
        <time>2021-03-08T15:09:04.000Z</time>
      </trkpt>
      <trkpt lat="46.53155" lon="5.28523">
        <ele>200.19999694824</ele>
        <time>2021-03-08T15:09:05.000Z</time>
      </trkpt>
      <trkpt lat="46.53149" lon="5.28524">
        <ele>201</ele>
        <time>2021-03-08T15:09:06.000Z</time>
      </trkpt>
      <trkpt lat="46.53142" lon="5.28526">
        <ele>201.39999389648</ele>
        <time>2021-03-08T15:09:07.000Z</time>
      </trkpt>
      <trkpt lat="46.53136" lon="5.28527">
        <ele>201.80000305176</ele>
        <time>2021-03-08T15:09:08.000Z</time>
      </trkpt>
      <trkpt lat="46.53123" lon="5.28529">
        <ele>202.80000305176</ele>
        <time>2021-03-08T15:09:10.000Z</time>
      </trkpt>
      <trkpt lat="46.53111" lon="5.28532">
        <ele>203.60000610352</ele>
        <time>2021-03-08T15:09:12.000Z</time>
      </trkpt>
      <trkpt lat="46.53099" lon="5.28535">
        <ele>204</ele>
        <time>2021-03-08T15:09:14.000Z</time>
      </trkpt>
      <trkpt lat="46.53087" lon="5.28538">
        <ele>204.39999389648</ele>
        <time>2021-03-08T15:09:16.000Z</time>
      </trkpt>
      <trkpt lat="46.53075" lon="5.28541">
        <ele>204.60000610352</ele>
        <time>2021-03-08T15:09:18.000Z</time>
      </trkpt>
      <trkpt lat="46.53063" lon="5.28543">
        <ele>205.19999694824</ele>
        <time>2021-03-08T15:09:20.000Z</time>
      </trkpt>
      <trkpt lat="46.53058" lon="5.28544">
        <ele>205.60000610352</ele>
        <time>2021-03-08T15:09:21.000Z</time>
      </trkpt>
      <trkpt lat="46.53052" lon="5.28545">
        <ele>206</ele>
        <time>2021-03-08T15:09:22.000Z</time>
      </trkpt>
      <trkpt lat="46.53041" lon="5.28548">
        <ele>206</ele>
        <time>2021-03-08T15:09:24.000Z</time>
      </trkpt>
      <trkpt lat="46.5303" lon="5.2855">
        <ele>206.39999389648</ele>
        <time>2021-03-08T15:09:26.000Z</time>
      </trkpt>
      <trkpt lat="46.53019" lon="5.28552">
        <ele>206.60000610352</ele>
        <time>2021-03-08T15:09:28.000Z</time>
      </trkpt>
      <trkpt lat="46.53007" lon="5.28554">
        <ele>206.80000305176</ele>
        <time>2021-03-08T15:09:30.000Z</time>
      </trkpt>
      <trkpt lat="46.52996" lon="5.28556">
        <ele>207.19999694824</ele>
        <time>2021-03-08T15:09:32.000Z</time>
      </trkpt>
      <trkpt lat="46.52984" lon="5.28558">
        <ele>207.60000610352</ele>
        <time>2021-03-08T15:09:34.000Z</time>
      </trkpt>
      <trkpt lat="46.52973" lon="5.2856">
        <ele>208</ele>
        <time>2021-03-08T15:09:36.000Z</time>
      </trkpt>
      <trkpt lat="46.52967" lon="5.28561">
        <ele>208.19999694824</ele>
        <time>2021-03-08T15:09:37.000Z</time>
      </trkpt>
      <trkpt lat="46.52962" lon="5.28562">
        <ele>208.39999389648</ele>
        <time>2021-03-08T15:09:38.000Z</time>
      </trkpt>
      <trkpt lat="46.5295" lon="5.28564">
        <ele>208.80000305176</ele>
        <time>2021-03-08T15:09:40.000Z</time>
      </trkpt>
      <trkpt lat="46.5294" lon="5.28566">
        <ele>209.19999694824</ele>
        <time>2021-03-08T15:09:42.000Z</time>
      </trkpt>
      <trkpt lat="46.52934" lon="5.28567">
        <ele>209.39999389648</ele>
        <time>2021-03-08T15:09:43.000Z</time>
      </trkpt>
      <trkpt lat="46.52929" lon="5.28568">
        <ele>209.39999389648</ele>
        <time>2021-03-08T15:09:44.000Z</time>
      </trkpt>
      <trkpt lat="46.52916" lon="5.2857">
        <ele>209.60000610352</ele>
        <time>2021-03-08T15:09:46.000Z</time>
      </trkpt>
      <trkpt lat="46.52904" lon="5.28572">
        <ele>209.80000305176</ele>
        <time>2021-03-08T15:09:48.000Z</time>
      </trkpt>
      <trkpt lat="46.52892" lon="5.28575">
        <ele>209.80000305176</ele>
        <time>2021-03-08T15:09:50.000Z</time>
      </trkpt>
      <trkpt lat="46.5288" lon="5.28577">
        <ele>209.80000305176</ele>
        <time>2021-03-08T15:09:52.000Z</time>
      </trkpt>
      <trkpt lat="46.52874" lon="5.28579">
        <ele>209.80000305176</ele>
        <time>2021-03-08T15:09:53.000Z</time>
      </trkpt>
      <trkpt lat="46.52867" lon="5.2858">
        <ele>209.80000305176</ele>
        <time>2021-03-08T15:09:54.000Z</time>
      </trkpt>
      <trkpt lat="46.52855" lon="5.28583">
        <ele>209.80000305176</ele>
        <time>2021-03-08T15:09:56.000Z</time>
      </trkpt>
      <trkpt lat="46.52842" lon="5.28586">
        <ele>209.80000305176</ele>
        <time>2021-03-08T15:09:58.000Z</time>
      </trkpt>
      <trkpt lat="46.52829" lon="5.28588">
        <ele>209.80000305176</ele>
        <time>2021-03-08T15:10:00.000Z</time>
      </trkpt>
      <trkpt lat="46.52816" lon="5.2859">
        <ele>209.60000610352</ele>
        <time>2021-03-08T15:10:02.000Z</time>
      </trkpt>
      <trkpt lat="46.52809" lon="5.28591">
        <ele>209.60000610352</ele>
        <time>2021-03-08T15:10:03.000Z</time>
      </trkpt>
      <trkpt lat="46.52802" lon="5.28591">
        <ele>209.60000610352</ele>
        <time>2021-03-08T15:10:04.000Z</time>
      </trkpt>
      <trkpt lat="46.52788" lon="5.28594">
        <ele>209.39999389648</ele>
        <time>2021-03-08T15:10:06.000Z</time>
      </trkpt>
      <trkpt lat="46.52772" lon="5.28597">
        <ele>209.19999694824</ele>
        <time>2021-03-08T15:10:08.000Z</time>
      </trkpt>
      <trkpt lat="46.52757" lon="5.28599">
        <ele>209</ele>
        <time>2021-03-08T15:10:10.000Z</time>
      </trkpt>
      <trkpt lat="46.52749" lon="5.286">
        <ele>209</ele>
        <time>2021-03-08T15:10:11.000Z</time>
      </trkpt>
      <trkpt lat="46.5274" lon="5.28602">
        <ele>208.80000305176</ele>
        <time>2021-03-08T15:10:12.000Z</time>
      </trkpt>
      <trkpt lat="46.52721" lon="5.28605">
        <ele>208.60000610352</ele>
        <time>2021-03-08T15:10:14.000Z</time>
      </trkpt>
      <trkpt lat="46.52701" lon="5.28609">
        <ele>208.39999389648</ele>
        <time>2021-03-08T15:10:16.000Z</time>
      </trkpt>
      <trkpt lat="46.52691" lon="5.2861">
        <ele>208</ele>
        <time>2021-03-08T15:10:17.000Z</time>
      </trkpt>
      <trkpt lat="46.52682" lon="5.2861">
        <ele>208</ele>
        <time>2021-03-08T15:10:18.000Z</time>
      </trkpt>
      <trkpt lat="46.52672" lon="5.28611">
        <ele>207.60000610352</ele>
        <time>2021-03-08T15:10:19.000Z</time>
      </trkpt>
      <trkpt lat="46.52664" lon="5.2861">
        <ele>207.39999389648</ele>
        <time>2021-03-08T15:10:20.000Z</time>
      </trkpt>
      <trkpt lat="46.52647" lon="5.28607">
        <ele>207</ele>
        <time>2021-03-08T15:10:22.000Z</time>
      </trkpt>
      <trkpt lat="46.5263" lon="5.28603">
        <ele>207</ele>
        <time>2021-03-08T15:10:24.000Z</time>
      </trkpt>
      <trkpt lat="46.52613" lon="5.28599">
        <ele>206.80000305176</ele>
        <time>2021-03-08T15:10:26.000Z</time>
      </trkpt>
      <trkpt lat="46.52604" lon="5.28598">
        <ele>206.80000305176</ele>
        <time>2021-03-08T15:10:27.000Z</time>
      </trkpt>
      <trkpt lat="46.52595" lon="5.28597">
        <ele>206.80000305176</ele>
        <time>2021-03-08T15:10:28.000Z</time>
      </trkpt>
      <trkpt lat="46.52578" lon="5.286">
        <ele>206.80000305176</ele>
        <time>2021-03-08T15:10:30.000Z</time>
      </trkpt>
      <trkpt lat="46.52569" lon="5.28601">
        <ele>206.80000305176</ele>
        <time>2021-03-08T15:10:31.000Z</time>
      </trkpt>
      <trkpt lat="46.5256" lon="5.28603">
        <ele>206.80000305176</ele>
        <time>2021-03-08T15:10:32.000Z</time>
      </trkpt>
      <trkpt lat="46.52541" lon="5.28607">
        <ele>206.60000610352</ele>
        <time>2021-03-08T15:10:34.000Z</time>
      </trkpt>
      <trkpt lat="46.52522" lon="5.2861">
        <ele>206.19999694824</ele>
        <time>2021-03-08T15:10:36.000Z</time>
      </trkpt>
      <trkpt lat="46.52513" lon="5.28612">
        <ele>206</ele>
        <time>2021-03-08T15:10:37.000Z</time>
      </trkpt>
      <trkpt lat="46.52503" lon="5.28614">
        <ele>205.60000610352</ele>
        <time>2021-03-08T15:10:38.000Z</time>
      </trkpt>
      <trkpt lat="46.52484" lon="5.28616">
        <ele>204.80000305176</ele>
        <time>2021-03-08T15:10:40.000Z</time>
      </trkpt>
      <trkpt lat="46.52463" lon="5.2862">
        <ele>204</ele>
        <time>2021-03-08T15:10:42.000Z</time>
      </trkpt>
      <trkpt lat="46.52453" lon="5.28622">
        <ele>203.60000610352</ele>
        <time>2021-03-08T15:10:43.000Z</time>
      </trkpt>
      <trkpt lat="46.52442" lon="5.28624">
        <ele>203</ele>
        <time>2021-03-08T15:10:44.000Z</time>
      </trkpt>
      <trkpt lat="46.52432" lon="5.28626">
        <ele>202.39999389648</ele>
        <time>2021-03-08T15:10:45.000Z</time>
      </trkpt>
      <trkpt lat="46.52421" lon="5.28628">
        <ele>201.80000305176</ele>
        <time>2021-03-08T15:10:46.000Z</time>
      </trkpt>
      <trkpt lat="46.5241" lon="5.2863">
        <ele>201.39999389648</ele>
        <time>2021-03-08T15:10:47.000Z</time>
      </trkpt>
      <trkpt lat="46.52399" lon="5.28633">
        <ele>200.80000305176</ele>
        <time>2021-03-08T15:10:48.000Z</time>
      </trkpt>
      <trkpt lat="46.52377" lon="5.28638">
        <ele>200</ele>
        <time>2021-03-08T15:10:50.000Z</time>
      </trkpt>
      <trkpt lat="46.52354" lon="5.28642">
        <ele>198.19999694824</ele>
        <time>2021-03-08T15:10:52.000Z</time>
      </trkpt>
      <trkpt lat="46.52331" lon="5.28646">
        <ele>196.60000610352</ele>
        <time>2021-03-08T15:10:54.000Z</time>
      </trkpt>
      <trkpt lat="46.52308" lon="5.28648">
        <ele>195.39999389648</ele>
        <time>2021-03-08T15:10:56.000Z</time>
      </trkpt>
      <trkpt lat="46.52286" lon="5.28649">
        <ele>194.19999694824</ele>
        <time>2021-03-08T15:10:58.000Z</time>
      </trkpt>
      <trkpt lat="46.52263" lon="5.28651">
        <ele>192.80000305176</ele>
        <time>2021-03-08T15:11:00.000Z</time>
      </trkpt>
      <trkpt lat="46.5224" lon="5.28653">
        <ele>191.60000610352</ele>
        <time>2021-03-08T15:11:02.000Z</time>
      </trkpt>
      <trkpt lat="46.52218" lon="5.28657">
        <ele>190.80000305176</ele>
        <time>2021-03-08T15:11:04.000Z</time>
      </trkpt>
      <trkpt lat="46.52207" lon="5.28661">
        <ele>190.60000610352</ele>
        <time>2021-03-08T15:11:05.000Z</time>
      </trkpt>
      <trkpt lat="46.52196" lon="5.28664">
        <ele>190.39999389648</ele>
        <time>2021-03-08T15:11:06.000Z</time>
      </trkpt>
      <trkpt lat="46.52175" lon="5.28673">
        <ele>190</ele>
        <time>2021-03-08T15:11:08.000Z</time>
      </trkpt>
      <trkpt lat="46.52154" lon="5.28681">
        <ele>189.39999389648</ele>
        <time>2021-03-08T15:11:10.000Z</time>
      </trkpt>
      <trkpt lat="46.52145" lon="5.28685">
        <ele>189</ele>
        <time>2021-03-08T15:11:11.000Z</time>
      </trkpt>
      <trkpt lat="46.52135" lon="5.28689">
        <ele>188.60000610352</ele>
        <time>2021-03-08T15:11:12.000Z</time>
      </trkpt>
      <trkpt lat="46.52125" lon="5.28692">
        <ele>188.39999389648</ele>
        <time>2021-03-08T15:11:13.000Z</time>
      </trkpt>
      <trkpt lat="46.52116" lon="5.28695">
        <ele>188.19999694824</ele>
        <time>2021-03-08T15:11:14.000Z</time>
      </trkpt>
      <trkpt lat="46.52097" lon="5.28701">
        <ele>188.19999694824</ele>
        <time>2021-03-08T15:11:16.000Z</time>
      </trkpt>
      <trkpt lat="46.52079" lon="5.28705">
        <ele>188.19999694824</ele>
        <time>2021-03-08T15:11:18.000Z</time>
      </trkpt>
      <trkpt lat="46.52061" lon="5.28709">
        <ele>188.19999694824</ele>
        <time>2021-03-08T15:11:20.000Z</time>
      </trkpt>
      <trkpt lat="46.52044" lon="5.28712">
        <ele>188.39999389648</ele>
        <time>2021-03-08T15:11:22.000Z</time>
      </trkpt>
      <trkpt lat="46.52027" lon="5.28718">
        <ele>189</ele>
        <time>2021-03-08T15:11:24.000Z</time>
      </trkpt>
      <trkpt lat="46.52018" lon="5.28722">
        <ele>189.19999694824</ele>
        <time>2021-03-08T15:11:25.000Z</time>
      </trkpt>
      <trkpt lat="46.5201" lon="5.28727">
        <ele>189.19999694824</ele>
        <time>2021-03-08T15:11:26.000Z</time>
      </trkpt>
      <trkpt lat="46.51994" lon="5.28736">
        <ele>189.60000610352</ele>
        <time>2021-03-08T15:11:28.000Z</time>
      </trkpt>
      <trkpt lat="46.51978" lon="5.28742">
        <ele>190</ele>
        <time>2021-03-08T15:11:30.000Z</time>
      </trkpt>
      <trkpt lat="46.5197" lon="5.28744">
        <ele>190</ele>
        <time>2021-03-08T15:11:31.000Z</time>
      </trkpt>
      <trkpt lat="46.51962" lon="5.28744">
        <ele>190.19999694824</ele>
        <time>2021-03-08T15:11:32.000Z</time>
      </trkpt>
      <trkpt lat="46.51946" lon="5.28743">
        <ele>190.60000610352</ele>
        <time>2021-03-08T15:11:34.000Z</time>
      </trkpt>
      <trkpt lat="46.51938" lon="5.28742">
        <ele>190.60000610352</ele>
        <time>2021-03-08T15:11:35.000Z</time>
      </trkpt>
      <trkpt lat="46.5193" lon="5.28742">
        <ele>190.80000305176</ele>
        <time>2021-03-08T15:11:36.000Z</time>
      </trkpt>
      <trkpt lat="46.51914" lon="5.28739">
        <ele>191.19999694824</ele>
        <time>2021-03-08T15:11:38.000Z</time>
      </trkpt>
      <trkpt lat="46.51898" lon="5.28734">
        <ele>191.60000610352</ele>
        <time>2021-03-08T15:11:40.000Z</time>
      </trkpt>
      <trkpt lat="46.5189" lon="5.28729">
        <ele>192</ele>
        <time>2021-03-08T15:11:41.000Z</time>
      </trkpt>
      <trkpt lat="46.51883" lon="5.28724">
        <ele>192.19999694824</ele>
        <time>2021-03-08T15:11:42.000Z</time>
      </trkpt>
      <trkpt lat="46.5187" lon="5.28711">
        <ele>192.80000305176</ele>
        <time>2021-03-08T15:11:44.000Z</time>
      </trkpt>
      <trkpt lat="46.51863" lon="5.28705">
        <ele>193</ele>
        <time>2021-03-08T15:11:45.000Z</time>
      </trkpt>
      <trkpt lat="46.51856" lon="5.287">
        <ele>193.19999694824</ele>
        <time>2021-03-08T15:11:46.000Z</time>
      </trkpt>
      <trkpt lat="46.51841" lon="5.28693">
        <ele>193.39999389648</ele>
        <time>2021-03-08T15:11:48.000Z</time>
      </trkpt>
      <trkpt lat="46.51826" lon="5.28687">
        <ele>193.60000610352</ele>
        <time>2021-03-08T15:11:50.000Z</time>
      </trkpt>
      <trkpt lat="46.51819" lon="5.28684">
        <ele>193.60000610352</ele>
        <time>2021-03-08T15:11:51.000Z</time>
      </trkpt>
      <trkpt lat="46.51812" lon="5.28683">
        <ele>193.80000305176</ele>
        <time>2021-03-08T15:11:52.000Z</time>
      </trkpt>
      <trkpt lat="46.51797" lon="5.28684">
        <ele>193.80000305176</ele>
        <time>2021-03-08T15:11:54.000Z</time>
      </trkpt>
      <trkpt lat="46.5179" lon="5.28683">
        <ele>194</ele>
        <time>2021-03-08T15:11:55.000Z</time>
      </trkpt>
      <trkpt lat="46.51783" lon="5.28682">
        <ele>194</ele>
        <time>2021-03-08T15:11:56.000Z</time>
      </trkpt>
      <trkpt lat="46.51776" lon="5.28679">
        <ele>194.19999694824</ele>
        <time>2021-03-08T15:11:57.000Z</time>
      </trkpt>
      <trkpt lat="46.51769" lon="5.28675">
        <ele>194.39999389648</ele>
        <time>2021-03-08T15:11:58.000Z</time>
      </trkpt>
      <trkpt lat="46.51756" lon="5.28665">
        <ele>194.80000305176</ele>
        <time>2021-03-08T15:12:00.000Z</time>
      </trkpt>
      <trkpt lat="46.51744" lon="5.28655">
        <ele>195</ele>
        <time>2021-03-08T15:12:02.000Z</time>
      </trkpt>
      <trkpt lat="46.51731" lon="5.28645">
        <ele>195.19999694824</ele>
        <time>2021-03-08T15:12:04.000Z</time>
      </trkpt>
      <trkpt lat="46.51724" lon="5.28641">
        <ele>195.19999694824</ele>
        <time>2021-03-08T15:12:05.000Z</time>
      </trkpt>
      <trkpt lat="46.51717" lon="5.28638">
        <ele>195.19999694824</ele>
        <time>2021-03-08T15:12:06.000Z</time>
      </trkpt>
      <trkpt lat="46.51709" lon="5.28637">
        <ele>195.19999694824</ele>
        <time>2021-03-08T15:12:07.000Z</time>
      </trkpt>
      <trkpt lat="46.51702" lon="5.28637">
        <ele>195.39999389648</ele>
        <time>2021-03-08T15:12:08.000Z</time>
      </trkpt>
      <trkpt lat="46.51694" lon="5.28637">
        <ele>195.39999389648</ele>
        <time>2021-03-08T15:12:09.000Z</time>
      </trkpt>
      <trkpt lat="46.51687" lon="5.28638">
        <ele>195.39999389648</ele>
        <time>2021-03-08T15:12:10.000Z</time>
      </trkpt>
      <trkpt lat="46.51671" lon="5.2864">
        <ele>195.39999389648</ele>
        <time>2021-03-08T15:12:12.000Z</time>
      </trkpt>
      <trkpt lat="46.51655" lon="5.28643">
        <ele>195.39999389648</ele>
        <time>2021-03-08T15:12:14.000Z</time>
      </trkpt>
      <trkpt lat="46.51638" lon="5.28645">
        <ele>195.39999389648</ele>
        <time>2021-03-08T15:12:16.000Z</time>
      </trkpt>
      <trkpt lat="46.5163" lon="5.28646">
        <ele>195.39999389648</ele>
        <time>2021-03-08T15:12:17.000Z</time>
      </trkpt>
      <trkpt lat="46.51621" lon="5.28648">
        <ele>195.39999389648</ele>
        <time>2021-03-08T15:12:18.000Z</time>
      </trkpt>
      <trkpt lat="46.51604" lon="5.28653">
        <ele>195.19999694824</ele>
        <time>2021-03-08T15:12:20.000Z</time>
      </trkpt>
      <trkpt lat="46.51596" lon="5.28659">
        <ele>195</ele>
        <time>2021-03-08T15:12:21.000Z</time>
      </trkpt>
      <trkpt lat="46.51588" lon="5.28666">
        <ele>194.80000305176</ele>
        <time>2021-03-08T15:12:22.000Z</time>
      </trkpt>
      <trkpt lat="46.51576" lon="5.28685">
        <ele>194</ele>
        <time>2021-03-08T15:12:24.000Z</time>
      </trkpt>
      <trkpt lat="46.5157" lon="5.28696">
        <ele>193.80000305176</ele>
        <time>2021-03-08T15:12:25.000Z</time>
      </trkpt>
      <trkpt lat="46.51565" lon="5.28707">
        <ele>193.39999389648</ele>
        <time>2021-03-08T15:12:26.000Z</time>
      </trkpt>
      <trkpt lat="46.51559" lon="5.28718">
        <ele>193</ele>
        <time>2021-03-08T15:12:27.000Z</time>
      </trkpt>
      <trkpt lat="46.51554" lon="5.28729">
        <ele>192.80000305176</ele>
        <time>2021-03-08T15:12:28.000Z</time>
      </trkpt>
      <trkpt lat="46.51543" lon="5.2875">
        <ele>192</ele>
        <time>2021-03-08T15:12:30.000Z</time>
      </trkpt>
      <trkpt lat="46.51537" lon="5.28761">
        <ele>191.60000610352</ele>
        <time>2021-03-08T15:12:31.000Z</time>
      </trkpt>
      <trkpt lat="46.51532" lon="5.28771">
        <ele>191.19999694824</ele>
        <time>2021-03-08T15:12:32.000Z</time>
      </trkpt>
      <trkpt lat="46.5152" lon="5.28792">
        <ele>190.60000610352</ele>
        <time>2021-03-08T15:12:34.000Z</time>
      </trkpt>
      <trkpt lat="46.51515" lon="5.28803">
        <ele>190.39999389648</ele>
        <time>2021-03-08T15:12:35.000Z</time>
      </trkpt>
      <trkpt lat="46.5151" lon="5.28814">
        <ele>190.39999389648</ele>
        <time>2021-03-08T15:12:36.000Z</time>
      </trkpt>
      <trkpt lat="46.51503" lon="5.28839">
        <ele>190.19999694824</ele>
        <time>2021-03-08T15:12:38.000Z</time>
      </trkpt>
      <trkpt lat="46.515" lon="5.28852">
        <ele>190.19999694824</ele>
        <time>2021-03-08T15:12:39.000Z</time>
      </trkpt>
      <trkpt lat="46.51498" lon="5.28865">
        <ele>190</ele>
        <time>2021-03-08T15:12:40.000Z</time>
      </trkpt>
      <trkpt lat="46.51494" lon="5.28891">
        <ele>190</ele>
        <time>2021-03-08T15:12:42.000Z</time>
      </trkpt>
      <trkpt lat="46.51489" lon="5.28917">
        <ele>190</ele>
        <time>2021-03-08T15:12:44.000Z</time>
      </trkpt>
      <trkpt lat="46.51485" lon="5.28942">
        <ele>189.60000610352</ele>
        <time>2021-03-08T15:12:46.000Z</time>
      </trkpt>
      <trkpt lat="46.51483" lon="5.28954">
        <ele>189.19999694824</ele>
        <time>2021-03-08T15:12:47.000Z</time>
      </trkpt>
      <trkpt lat="46.51481" lon="5.28966">
        <ele>189</ele>
        <time>2021-03-08T15:12:48.000Z</time>
      </trkpt>
      <trkpt lat="46.51477" lon="5.28989">
        <ele>188.80000305176</ele>
        <time>2021-03-08T15:12:50.000Z</time>
      </trkpt>
      <trkpt lat="46.51473" lon="5.29011">
        <ele>188.80000305176</ele>
        <time>2021-03-08T15:12:52.000Z</time>
      </trkpt>
      <trkpt lat="46.51469" lon="5.29033">
        <ele>188.80000305176</ele>
        <time>2021-03-08T15:12:54.000Z</time>
      </trkpt>
      <trkpt lat="46.51466" lon="5.29054">
        <ele>189</ele>
        <time>2021-03-08T15:12:56.000Z</time>
      </trkpt>
      <trkpt lat="46.51462" lon="5.29075">
        <ele>189.39999389648</ele>
        <time>2021-03-08T15:12:58.000Z</time>
      </trkpt>
      <trkpt lat="46.51458" lon="5.29096">
        <ele>189.60000610352</ele>
        <time>2021-03-08T15:13:00.000Z</time>
      </trkpt>
      <trkpt lat="46.51455" lon="5.29117">
        <ele>189.80000305176</ele>
        <time>2021-03-08T15:13:02.000Z</time>
      </trkpt>
      <trkpt lat="46.51451" lon="5.29136">
        <ele>190</ele>
        <time>2021-03-08T15:13:04.000Z</time>
      </trkpt>
      <trkpt lat="46.51449" lon="5.29147">
        <ele>190.19999694824</ele>
        <time>2021-03-08T15:13:05.000Z</time>
      </trkpt>
      <trkpt lat="46.51447" lon="5.29156">
        <ele>190.39999389648</ele>
        <time>2021-03-08T15:13:06.000Z</time>
      </trkpt>
      <trkpt lat="46.51443" lon="5.29176">
        <ele>190.80000305176</ele>
        <time>2021-03-08T15:13:08.000Z</time>
      </trkpt>
      <trkpt lat="46.51438" lon="5.29195">
        <ele>191.19999694824</ele>
        <time>2021-03-08T15:13:10.000Z</time>
      </trkpt>
      <trkpt lat="46.51435" lon="5.29204">
        <ele>191.39999389648</ele>
        <time>2021-03-08T15:13:11.000Z</time>
      </trkpt>
      <trkpt lat="46.51431" lon="5.29213">
        <ele>191.39999389648</ele>
        <time>2021-03-08T15:13:12.000Z</time>
      </trkpt>
      <trkpt lat="46.51427" lon="5.29221">
        <ele>191.39999389648</ele>
        <time>2021-03-08T15:13:13.000Z</time>
      </trkpt>
      <trkpt lat="46.51422" lon="5.29229">
        <ele>191.60000610352</ele>
        <time>2021-03-08T15:13:14.000Z</time>
      </trkpt>
      <trkpt lat="46.51412" lon="5.29244">
        <ele>191.60000610352</ele>
        <time>2021-03-08T15:13:16.000Z</time>
      </trkpt>
      <trkpt lat="46.51402" lon="5.29258">
        <ele>191.80000305176</ele>
        <time>2021-03-08T15:13:18.000Z</time>
      </trkpt>
      <trkpt lat="46.51393" lon="5.29274">
        <ele>191.80000305176</ele>
        <time>2021-03-08T15:13:20.000Z</time>
      </trkpt>
      <trkpt lat="46.51384" lon="5.29291">
        <ele>191.80000305176</ele>
        <time>2021-03-08T15:13:22.000Z</time>
      </trkpt>
      <trkpt lat="46.5138" lon="5.293">
        <ele>191.80000305176</ele>
        <time>2021-03-08T15:13:23.000Z</time>
      </trkpt>
      <trkpt lat="46.51375" lon="5.29308">
        <ele>191.80000305176</ele>
        <time>2021-03-08T15:13:24.000Z</time>
      </trkpt>
      <trkpt lat="46.51365" lon="5.29324">
        <ele>191.80000305176</ele>
        <time>2021-03-08T15:13:26.000Z</time>
      </trkpt>
      <trkpt lat="46.51353" lon="5.29338">
        <ele>191.80000305176</ele>
        <time>2021-03-08T15:13:28.000Z</time>
      </trkpt>
      <trkpt lat="46.51347" lon="5.29344">
        <ele>191.80000305176</ele>
        <time>2021-03-08T15:13:29.000Z</time>
      </trkpt>
      <trkpt lat="46.5134" lon="5.29349">
        <ele>191.80000305176</ele>
        <time>2021-03-08T15:13:30.000Z</time>
      </trkpt>
      <trkpt lat="46.51326" lon="5.29356">
        <ele>191.80000305176</ele>
        <time>2021-03-08T15:13:32.000Z</time>
      </trkpt>
      <trkpt lat="46.51311" lon="5.29364">
        <ele>191.80000305176</ele>
        <time>2021-03-08T15:13:34.000Z</time>
      </trkpt>
      <trkpt lat="46.51297" lon="5.29372">
        <ele>191.80000305176</ele>
        <time>2021-03-08T15:13:36.000Z</time>
      </trkpt>
      <trkpt lat="46.51283" lon="5.2938">
        <ele>191.80000305176</ele>
        <time>2021-03-08T15:13:38.000Z</time>
      </trkpt>
      <trkpt lat="46.51268" lon="5.29387">
        <ele>191.80000305176</ele>
        <time>2021-03-08T15:13:40.000Z</time>
      </trkpt>
      <trkpt lat="46.51253" lon="5.29392">
        <ele>191.80000305176</ele>
        <time>2021-03-08T15:13:42.000Z</time>
      </trkpt>
      <trkpt lat="46.51238" lon="5.29395">
        <ele>191.80000305176</ele>
        <time>2021-03-08T15:13:44.000Z</time>
      </trkpt>
      <trkpt lat="46.51223" lon="5.29399">
        <ele>191.80000305176</ele>
        <time>2021-03-08T15:13:46.000Z</time>
      </trkpt>
      <trkpt lat="46.51216" lon="5.294">
        <ele>191.80000305176</ele>
        <time>2021-03-08T15:13:47.000Z</time>
      </trkpt>
      <trkpt lat="46.51209" lon="5.29402">
        <ele>191.80000305176</ele>
        <time>2021-03-08T15:13:48.000Z</time>
      </trkpt>
      <trkpt lat="46.51194" lon="5.29406">
        <ele>192</ele>
        <time>2021-03-08T15:13:50.000Z</time>
      </trkpt>
      <trkpt lat="46.51179" lon="5.29409">
        <ele>192</ele>
        <time>2021-03-08T15:13:52.000Z</time>
      </trkpt>
      <trkpt lat="46.51165" lon="5.29413">
        <ele>192.19999694824</ele>
        <time>2021-03-08T15:13:54.000Z</time>
      </trkpt>
      <trkpt lat="46.5115" lon="5.29417">
        <ele>192.39999389648</ele>
        <time>2021-03-08T15:13:56.000Z</time>
      </trkpt>
      <trkpt lat="46.51136" lon="5.29421">
        <ele>192.80000305176</ele>
        <time>2021-03-08T15:13:58.000Z</time>
      </trkpt>
      <trkpt lat="46.51121" lon="5.29426">
        <ele>193</ele>
        <time>2021-03-08T15:14:00.000Z</time>
      </trkpt>
      <trkpt lat="46.51107" lon="5.2943">
        <ele>193.19999694824</ele>
        <time>2021-03-08T15:14:02.000Z</time>
      </trkpt>
      <trkpt lat="46.51092" lon="5.29435">
        <ele>193.19999694824</ele>
        <time>2021-03-08T15:14:04.000Z</time>
      </trkpt>
      <trkpt lat="46.51077" lon="5.2944">
        <ele>193.19999694824</ele>
        <time>2021-03-08T15:14:06.000Z</time>
      </trkpt>
      <trkpt lat="46.51063" lon="5.29446">
        <ele>193.39999389648</ele>
        <time>2021-03-08T15:14:08.000Z</time>
      </trkpt>
      <trkpt lat="46.51049" lon="5.29454">
        <ele>193.39999389648</ele>
        <time>2021-03-08T15:14:10.000Z</time>
      </trkpt>
      <trkpt lat="46.51037" lon="5.29462">
        <ele>193.39999389648</ele>
        <time>2021-03-08T15:14:12.000Z</time>
      </trkpt>
      <trkpt lat="46.51025" lon="5.29471">
        <ele>193.60000610352</ele>
        <time>2021-03-08T15:14:14.000Z</time>
      </trkpt>
      <trkpt lat="46.51014" lon="5.2948">
        <ele>193.80000305176</ele>
        <time>2021-03-08T15:14:16.000Z</time>
      </trkpt>
      <trkpt lat="46.51003" lon="5.29489">
        <ele>194</ele>
        <time>2021-03-08T15:14:18.000Z</time>
      </trkpt>
      <trkpt lat="46.50992" lon="5.29497">
        <ele>194.39999389648</ele>
        <time>2021-03-08T15:14:20.000Z</time>
      </trkpt>
      <trkpt lat="46.50987" lon="5.29501">
        <ele>194.60000610352</ele>
        <time>2021-03-08T15:14:21.000Z</time>
      </trkpt>
      <trkpt lat="46.50982" lon="5.29505">
        <ele>195</ele>
        <time>2021-03-08T15:14:22.000Z</time>
      </trkpt>
      <trkpt lat="46.50977" lon="5.29509">
        <ele>195.39999389648</ele>
        <time>2021-03-08T15:14:23.000Z</time>
      </trkpt>
      <trkpt lat="46.50973" lon="5.29513">
        <ele>195.60000610352</ele>
        <time>2021-03-08T15:14:24.000Z</time>
      </trkpt>
      <trkpt lat="46.50968" lon="5.29516">
        <ele>195.80000305176</ele>
        <time>2021-03-08T15:14:25.000Z</time>
      </trkpt>
      <trkpt lat="46.50963" lon="5.2952">
        <ele>196</ele>
        <time>2021-03-08T15:14:26.000Z</time>
      </trkpt>
      <trkpt lat="46.50954" lon="5.29527">
        <ele>196.60000610352</ele>
        <time>2021-03-08T15:14:28.000Z</time>
      </trkpt>
      <trkpt lat="46.5095" lon="5.29531">
        <ele>197</ele>
        <time>2021-03-08T15:14:29.000Z</time>
      </trkpt>
      <trkpt lat="46.50946" lon="5.29534">
        <ele>197.19999694824</ele>
        <time>2021-03-08T15:14:30.000Z</time>
      </trkpt>
      <trkpt lat="46.50937" lon="5.2954">
        <ele>198</ele>
        <time>2021-03-08T15:14:32.000Z</time>
      </trkpt>
      <trkpt lat="46.5093" lon="5.29547">
        <ele>198.60000610352</ele>
        <time>2021-03-08T15:14:34.000Z</time>
      </trkpt>
      <trkpt lat="46.50922" lon="5.29552">
        <ele>199.39999389648</ele>
        <time>2021-03-08T15:14:36.000Z</time>
      </trkpt>
      <trkpt lat="46.50915" lon="5.29558">
        <ele>200</ele>
        <time>2021-03-08T15:14:38.000Z</time>
      </trkpt>
      <trkpt lat="46.50907" lon="5.29562">
        <ele>200.60000610352</ele>
        <time>2021-03-08T15:14:40.000Z</time>
      </trkpt>
      <trkpt lat="46.509" lon="5.29565">
        <ele>201.39999389648</ele>
        <time>2021-03-08T15:14:42.000Z</time>
      </trkpt>
      <trkpt lat="46.50896" lon="5.29567">
        <ele>201.80000305176</ele>
        <time>2021-03-08T15:14:43.000Z</time>
      </trkpt>
      <trkpt lat="46.50891" lon="5.29567">
        <ele>202</ele>
        <time>2021-03-08T15:14:44.000Z</time>
      </trkpt>
      <trkpt lat="46.50883" lon="5.29568">
        <ele>202.80000305176</ele>
        <time>2021-03-08T15:14:46.000Z</time>
      </trkpt>
      <trkpt lat="46.50875" lon="5.29567">
        <ele>203.60000610352</ele>
        <time>2021-03-08T15:14:48.000Z</time>
      </trkpt>
      <trkpt lat="46.5087" lon="5.29567">
        <ele>204</ele>
        <time>2021-03-08T15:14:49.000Z</time>
      </trkpt>
      <trkpt lat="46.50866" lon="5.29567">
        <ele>204.19999694824</ele>
        <time>2021-03-08T15:14:50.000Z</time>
      </trkpt>
      <trkpt lat="46.50857" lon="5.29565">
        <ele>205</ele>
        <time>2021-03-08T15:14:52.000Z</time>
      </trkpt>
      <trkpt lat="46.50853" lon="5.29565">
        <ele>205.19999694824</ele>
        <time>2021-03-08T15:14:53.000Z</time>
      </trkpt>
      <trkpt lat="46.50849" lon="5.29564">
        <ele>205.39999389648</ele>
        <time>2021-03-08T15:14:54.000Z</time>
      </trkpt>
      <trkpt lat="46.5084" lon="5.29563">
        <ele>206</ele>
        <time>2021-03-08T15:14:56.000Z</time>
      </trkpt>
      <trkpt lat="46.50836" lon="5.29563">
        <ele>206.39999389648</ele>
        <time>2021-03-08T15:14:57.000Z</time>
      </trkpt>
      <trkpt lat="46.50831" lon="5.29562">
        <ele>206.80000305176</ele>
        <time>2021-03-08T15:14:58.000Z</time>
      </trkpt>
      <trkpt lat="46.50823" lon="5.29561">
        <ele>207.39999389648</ele>
        <time>2021-03-08T15:15:00.000Z</time>
      </trkpt>
      <trkpt lat="46.50818" lon="5.29561">
        <ele>207.60000610352</ele>
        <time>2021-03-08T15:15:01.000Z</time>
      </trkpt>
      <trkpt lat="46.50814" lon="5.2956">
        <ele>208</ele>
        <time>2021-03-08T15:15:02.000Z</time>
      </trkpt>
      <trkpt lat="46.50806" lon="5.2956">
        <ele>208.19999694824</ele>
        <time>2021-03-08T15:15:04.000Z</time>
      </trkpt>
      <trkpt lat="46.50801" lon="5.29559">
        <ele>208.39999389648</ele>
        <time>2021-03-08T15:15:05.000Z</time>
      </trkpt>
      <trkpt lat="46.50797" lon="5.29559">
        <ele>208.80000305176</ele>
        <time>2021-03-08T15:15:06.000Z</time>
      </trkpt>
      <trkpt lat="46.50788" lon="5.29559">
        <ele>209.39999389648</ele>
        <time>2021-03-08T15:15:08.000Z</time>
      </trkpt>
      <trkpt lat="46.5078" lon="5.29559">
        <ele>209.60000610352</ele>
        <time>2021-03-08T15:15:10.000Z</time>
      </trkpt>
      <trkpt lat="46.50775" lon="5.29558">
        <ele>209.80000305176</ele>
        <time>2021-03-08T15:15:11.000Z</time>
      </trkpt>
      <trkpt lat="46.50771" lon="5.29558">
        <ele>210</ele>
        <time>2021-03-08T15:15:12.000Z</time>
      </trkpt>
      <trkpt lat="46.50762" lon="5.29556">
        <ele>210.39999389648</ele>
        <time>2021-03-08T15:15:14.000Z</time>
      </trkpt>
      <trkpt lat="46.50753" lon="5.29554">
        <ele>211</ele>
        <time>2021-03-08T15:15:16.000Z</time>
      </trkpt>
      <trkpt lat="46.50745" lon="5.29552">
        <ele>211.39999389648</ele>
        <time>2021-03-08T15:15:18.000Z</time>
      </trkpt>
      <trkpt lat="46.50736" lon="5.29549">
        <ele>211.80000305176</ele>
        <time>2021-03-08T15:15:20.000Z</time>
      </trkpt>
      <trkpt lat="46.50732" lon="5.29547">
        <ele>212</ele>
        <time>2021-03-08T15:15:21.000Z</time>
      </trkpt>
      <trkpt lat="46.50727" lon="5.29545">
        <ele>212.39999389648</ele>
        <time>2021-03-08T15:15:22.000Z</time>
      </trkpt>
      <trkpt lat="46.50719" lon="5.29541">
        <ele>213</ele>
        <time>2021-03-08T15:15:24.000Z</time>
      </trkpt>
      <trkpt lat="46.50714" lon="5.29539">
        <ele>213.19999694824</ele>
        <time>2021-03-08T15:15:25.000Z</time>
      </trkpt>
      <trkpt lat="46.5071" lon="5.29537">
        <ele>213.39999389648</ele>
        <time>2021-03-08T15:15:26.000Z</time>
      </trkpt>
      <trkpt lat="46.50701" lon="5.29533">
        <ele>213.80000305176</ele>
        <time>2021-03-08T15:15:28.000Z</time>
      </trkpt>
      <trkpt lat="46.50692" lon="5.29529">
        <ele>214</ele>
        <time>2021-03-08T15:15:30.000Z</time>
      </trkpt>
      <trkpt lat="46.50683" lon="5.29525">
        <ele>214.19999694824</ele>
        <time>2021-03-08T15:15:32.000Z</time>
      </trkpt>
      <trkpt lat="46.50678" lon="5.29523">
        <ele>214.39999389648</ele>
        <time>2021-03-08T15:15:33.000Z</time>
      </trkpt>
      <trkpt lat="46.50673" lon="5.29521">
        <ele>214.60000610352</ele>
        <time>2021-03-08T15:15:34.000Z</time>
      </trkpt>
      <trkpt lat="46.50668" lon="5.2952">
        <ele>214.80000305176</ele>
        <time>2021-03-08T15:15:35.000Z</time>
      </trkpt>
      <trkpt lat="46.50663" lon="5.29519">
        <ele>215</ele>
        <time>2021-03-08T15:15:36.000Z</time>
      </trkpt>
      <trkpt lat="46.50653" lon="5.29519">
        <ele>215.19999694824</ele>
        <time>2021-03-08T15:15:38.000Z</time>
      </trkpt>
      <trkpt lat="46.50644" lon="5.29521">
        <ele>215.39999389648</ele>
        <time>2021-03-08T15:15:40.000Z</time>
      </trkpt>
      <trkpt lat="46.50639" lon="5.29523">
        <ele>215.60000610352</ele>
        <time>2021-03-08T15:15:41.000Z</time>
      </trkpt>
      <trkpt lat="46.50634" lon="5.29526">
        <ele>215.80000305176</ele>
        <time>2021-03-08T15:15:42.000Z</time>
      </trkpt>
      <trkpt lat="46.50629" lon="5.29529">
        <ele>216</ele>
        <time>2021-03-08T15:15:43.000Z</time>
      </trkpt>
      <trkpt lat="46.50624" lon="5.29532">
        <ele>216.39999389648</ele>
        <time>2021-03-08T15:15:44.000Z</time>
      </trkpt>
      <trkpt lat="46.50619" lon="5.29536">
        <ele>216.80000305176</ele>
        <time>2021-03-08T15:15:45.000Z</time>
      </trkpt>
      <trkpt lat="46.50614" lon="5.2954">
        <ele>216.80000305176</ele>
        <time>2021-03-08T15:15:46.000Z</time>
      </trkpt>
      <trkpt lat="46.50604" lon="5.29548">
        <ele>217</ele>
        <time>2021-03-08T15:15:48.000Z</time>
      </trkpt>
      <trkpt lat="46.50593" lon="5.29556">
        <ele>217.19999694824</ele>
        <time>2021-03-08T15:15:50.000Z</time>
      </trkpt>
      <trkpt lat="46.50583" lon="5.29564">
        <ele>217.19999694824</ele>
        <time>2021-03-08T15:15:52.000Z</time>
      </trkpt>
      <trkpt lat="46.50572" lon="5.29573">
        <ele>217.19999694824</ele>
        <time>2021-03-08T15:15:54.000Z</time>
      </trkpt>
      <trkpt lat="46.50567" lon="5.29577">
        <ele>217.19999694824</ele>
        <time>2021-03-08T15:15:55.000Z</time>
      </trkpt>
      <trkpt lat="46.50561" lon="5.29582">
        <ele>217.19999694824</ele>
        <time>2021-03-08T15:15:56.000Z</time>
      </trkpt>
      <trkpt lat="46.5055" lon="5.29591">
        <ele>217.19999694824</ele>
        <time>2021-03-08T15:15:58.000Z</time>
      </trkpt>
      <trkpt lat="46.50538" lon="5.296">
        <ele>217.39999389648</ele>
        <time>2021-03-08T15:16:00.000Z</time>
      </trkpt>
      <trkpt lat="46.50525" lon="5.29609">
        <ele>217.39999389648</ele>
        <time>2021-03-08T15:16:02.000Z</time>
      </trkpt>
      <trkpt lat="46.50512" lon="5.29619">
        <ele>217.39999389648</ele>
        <time>2021-03-08T15:16:04.000Z</time>
      </trkpt>
      <trkpt lat="46.50498" lon="5.29628">
        <ele>217.39999389648</ele>
        <time>2021-03-08T15:16:06.000Z</time>
      </trkpt>
      <trkpt lat="46.50485" lon="5.29638">
        <ele>217.39999389648</ele>
        <time>2021-03-08T15:16:08.000Z</time>
      </trkpt>
      <trkpt lat="46.50471" lon="5.29647">
        <ele>217.39999389648</ele>
        <time>2021-03-08T15:16:10.000Z</time>
      </trkpt>
      <trkpt lat="46.50464" lon="5.29652">
        <ele>217.39999389648</ele>
        <time>2021-03-08T15:16:11.000Z</time>
      </trkpt>
      <trkpt lat="46.50457" lon="5.29656">
        <ele>217.39999389648</ele>
        <time>2021-03-08T15:16:12.000Z</time>
      </trkpt>
      <trkpt lat="46.50444" lon="5.29666">
        <ele>217.39999389648</ele>
        <time>2021-03-08T15:16:14.000Z</time>
      </trkpt>
      <trkpt lat="46.5043" lon="5.29675">
        <ele>217.39999389648</ele>
        <time>2021-03-08T15:16:16.000Z</time>
      </trkpt>
      <trkpt lat="46.50416" lon="5.29684">
        <ele>217.39999389648</ele>
        <time>2021-03-08T15:16:18.000Z</time>
      </trkpt>
      <trkpt lat="46.50403" lon="5.29693">
        <ele>217.39999389648</ele>
        <time>2021-03-08T15:16:20.000Z</time>
      </trkpt>
      <trkpt lat="46.50389" lon="5.29702">
        <ele>217.39999389648</ele>
        <time>2021-03-08T15:16:22.000Z</time>
      </trkpt>
      <trkpt lat="46.50375" lon="5.29711">
        <ele>217.60000610352</ele>
        <time>2021-03-08T15:16:24.000Z</time>
      </trkpt>
      <trkpt lat="46.5036" lon="5.29718">
        <ele>217.80000305176</ele>
        <time>2021-03-08T15:16:26.000Z</time>
      </trkpt>
      <trkpt lat="46.50353" lon="5.29721">
        <ele>217.80000305176</ele>
        <time>2021-03-08T15:16:27.000Z</time>
      </trkpt>
      <trkpt lat="46.50345" lon="5.29725">
        <ele>217.80000305176</ele>
        <time>2021-03-08T15:16:28.000Z</time>
      </trkpt>
      <trkpt lat="46.5033" lon="5.29731">
        <ele>217.80000305176</ele>
        <time>2021-03-08T15:16:30.000Z</time>
      </trkpt>
      <trkpt lat="46.50315" lon="5.29737">
        <ele>217.80000305176</ele>
        <time>2021-03-08T15:16:32.000Z</time>
      </trkpt>
      <trkpt lat="46.50299" lon="5.29744">
        <ele>217.80000305176</ele>
        <time>2021-03-08T15:16:34.000Z</time>
      </trkpt>
      <trkpt lat="46.50291" lon="5.29748">
        <ele>217.80000305176</ele>
        <time>2021-03-08T15:16:35.000Z</time>
      </trkpt>
      <trkpt lat="46.50282" lon="5.29751">
        <ele>217.80000305176</ele>
        <time>2021-03-08T15:16:36.000Z</time>
      </trkpt>
      <trkpt lat="46.50266" lon="5.29757">
        <ele>217.60000610352</ele>
        <time>2021-03-08T15:16:38.000Z</time>
      </trkpt>
      <trkpt lat="46.5025" lon="5.29763">
        <ele>217.60000610352</ele>
        <time>2021-03-08T15:16:40.000Z</time>
      </trkpt>
      <trkpt lat="46.50241" lon="5.29765">
        <ele>217.60000610352</ele>
        <time>2021-03-08T15:16:41.000Z</time>
      </trkpt>
      <trkpt lat="46.50233" lon="5.29766">
        <ele>217.39999389648</ele>
        <time>2021-03-08T15:16:42.000Z</time>
      </trkpt>
      <trkpt lat="46.50225" lon="5.29766">
        <ele>217.19999694824</ele>
        <time>2021-03-08T15:16:43.000Z</time>
      </trkpt>
      <trkpt lat="46.50216" lon="5.29766">
        <ele>217</ele>
        <time>2021-03-08T15:16:44.000Z</time>
      </trkpt>
      <trkpt lat="46.502" lon="5.29765">
        <ele>216.60000610352</ele>
        <time>2021-03-08T15:16:46.000Z</time>
      </trkpt>
      <trkpt lat="46.50183" lon="5.29765">
        <ele>216.39999389648</ele>
        <time>2021-03-08T15:16:48.000Z</time>
      </trkpt>
      <trkpt lat="46.50167" lon="5.29765">
        <ele>216.19999694824</ele>
        <time>2021-03-08T15:16:50.000Z</time>
      </trkpt>
      <trkpt lat="46.50158" lon="5.29766">
        <ele>216.19999694824</ele>
        <time>2021-03-08T15:16:51.000Z</time>
      </trkpt>
      <trkpt lat="46.5015" lon="5.29767">
        <ele>216.19999694824</ele>
        <time>2021-03-08T15:16:52.000Z</time>
      </trkpt>
      <trkpt lat="46.50132" lon="5.29771">
        <ele>216</ele>
        <time>2021-03-08T15:16:54.000Z</time>
      </trkpt>
      <trkpt lat="46.50114" lon="5.29776">
        <ele>216</ele>
        <time>2021-03-08T15:16:56.000Z</time>
      </trkpt>
      <trkpt lat="46.50105" lon="5.29779">
        <ele>215.80000305176</ele>
        <time>2021-03-08T15:16:57.000Z</time>
      </trkpt>
      <trkpt lat="46.50096" lon="5.29783">
        <ele>215.60000610352</ele>
        <time>2021-03-08T15:16:58.000Z</time>
      </trkpt>
      <trkpt lat="46.50077" lon="5.29789">
        <ele>215.39999389648</ele>
        <time>2021-03-08T15:17:00.000Z</time>
      </trkpt>
      <trkpt lat="46.50058" lon="5.29798">
        <ele>215</ele>
        <time>2021-03-08T15:17:02.000Z</time>
      </trkpt>
      <trkpt lat="46.50049" lon="5.29804">
        <ele>214.60000610352</ele>
        <time>2021-03-08T15:17:03.000Z</time>
      </trkpt>
      <trkpt lat="46.50041" lon="5.29812">
        <ele>214.39999389648</ele>
        <time>2021-03-08T15:17:04.000Z</time>
      </trkpt>
      <trkpt lat="46.50028" lon="5.2983">
        <ele>213.39999389648</ele>
        <time>2021-03-08T15:17:06.000Z</time>
      </trkpt>
      <trkpt lat="46.50022" lon="5.29839">
        <ele>212.80000305176</ele>
        <time>2021-03-08T15:17:07.000Z</time>
      </trkpt>
      <trkpt lat="46.50018" lon="5.29847">
        <ele>212.19999694824</ele>
        <time>2021-03-08T15:17:08.000Z</time>
      </trkpt>
      <trkpt lat="46.50016" lon="5.29863">
        <ele>211.80000305176</ele>
        <time>2021-03-08T15:17:10.000Z</time>
      </trkpt>
      <trkpt lat="46.50023" lon="5.29877">
        <ele>211.19999694824</ele>
        <time>2021-03-08T15:17:12.000Z</time>
      </trkpt>
      <trkpt lat="46.50028" lon="5.29883">
        <ele>211</ele>
        <time>2021-03-08T15:17:13.000Z</time>
      </trkpt>
      <trkpt lat="46.50033" lon="5.29889">
        <ele>210.80000305176</ele>
        <time>2021-03-08T15:17:14.000Z</time>
      </trkpt>
      <trkpt lat="46.50044" lon="5.29902">
        <ele>210.60000610352</ele>
        <time>2021-03-08T15:17:16.000Z</time>
      </trkpt>
      <trkpt lat="46.50053" lon="5.29917">
        <ele>210.60000610352</ele>
        <time>2021-03-08T15:17:18.000Z</time>
      </trkpt>
      <trkpt lat="46.50058" lon="5.29925">
        <ele>210.60000610352</ele>
        <time>2021-03-08T15:17:19.000Z</time>
      </trkpt>
      <trkpt lat="46.50062" lon="5.29933">
        <ele>210.60000610352</ele>
        <time>2021-03-08T15:17:20.000Z</time>
      </trkpt>
      <trkpt lat="46.50069" lon="5.29951">
        <ele>210.80000305176</ele>
        <time>2021-03-08T15:17:22.000Z</time>
      </trkpt>
      <trkpt lat="46.50075" lon="5.29969">
        <ele>211</ele>
        <time>2021-03-08T15:17:24.000Z</time>
      </trkpt>
      <trkpt lat="46.50079" lon="5.29988">
        <ele>211</ele>
        <time>2021-03-08T15:17:26.000Z</time>
      </trkpt>
      <trkpt lat="46.50081" lon="5.30008">
        <ele>211</ele>
        <time>2021-03-08T15:17:28.000Z</time>
      </trkpt>
      <trkpt lat="46.50083" lon="5.30029">
        <ele>211</ele>
        <time>2021-03-08T15:17:30.000Z</time>
      </trkpt>
      <trkpt lat="46.50084" lon="5.30049">
        <ele>211.19999694824</ele>
        <time>2021-03-08T15:17:32.000Z</time>
      </trkpt>
      <trkpt lat="46.50084" lon="5.30069">
        <ele>211.19999694824</ele>
        <time>2021-03-08T15:17:34.000Z</time>
      </trkpt>
      <trkpt lat="46.50084" lon="5.3009">
        <ele>211.60000610352</ele>
        <time>2021-03-08T15:17:36.000Z</time>
      </trkpt>
      <trkpt lat="46.50084" lon="5.3011">
        <ele>211.60000610352</ele>
        <time>2021-03-08T15:17:38.000Z</time>
      </trkpt>
      <trkpt lat="46.50084" lon="5.30121">
        <ele>211.80000305176</ele>
        <time>2021-03-08T15:17:39.000Z</time>
      </trkpt>
      <trkpt lat="46.50084" lon="5.30132">
        <ele>212</ele>
        <time>2021-03-08T15:17:40.000Z</time>
      </trkpt>
      <trkpt lat="46.50084" lon="5.30153">
        <ele>212</ele>
        <time>2021-03-08T15:17:42.000Z</time>
      </trkpt>
      <trkpt lat="46.50084" lon="5.30175">
        <ele>212</ele>
        <time>2021-03-08T15:17:44.000Z</time>
      </trkpt>
      <trkpt lat="46.50084" lon="5.30186">
        <ele>212</ele>
        <time>2021-03-08T15:17:45.000Z</time>
      </trkpt>
      <trkpt lat="46.50084" lon="5.30197">
        <ele>212</ele>
        <time>2021-03-08T15:17:46.000Z</time>
      </trkpt>
      <trkpt lat="46.50085" lon="5.30219">
        <ele>212</ele>
        <time>2021-03-08T15:17:48.000Z</time>
      </trkpt>
      <trkpt lat="46.50085" lon="5.30241">
        <ele>211.80000305176</ele>
        <time>2021-03-08T15:17:50.000Z</time>
      </trkpt>
      <trkpt lat="46.50083" lon="5.30263">
        <ele>211.80000305176</ele>
        <time>2021-03-08T15:17:52.000Z</time>
      </trkpt>
      <trkpt lat="46.50081" lon="5.30284">
        <ele>211.60000610352</ele>
        <time>2021-03-08T15:17:54.000Z</time>
      </trkpt>
      <trkpt lat="46.50077" lon="5.30307">
        <ele>211.39999389648</ele>
        <time>2021-03-08T15:17:56.000Z</time>
      </trkpt>
      <trkpt lat="46.50071" lon="5.3033">
        <ele>211</ele>
        <time>2021-03-08T15:17:58.000Z</time>
      </trkpt>
      <trkpt lat="46.50062" lon="5.30352">
        <ele>210.60000610352</ele>
        <time>2021-03-08T15:18:00.000Z</time>
      </trkpt>
      <trkpt lat="46.50057" lon="5.30362">
        <ele>210.39999389648</ele>
        <time>2021-03-08T15:18:01.000Z</time>
      </trkpt>
      <trkpt lat="46.50051" lon="5.30372">
        <ele>210.19999694824</ele>
        <time>2021-03-08T15:18:02.000Z</time>
      </trkpt>
      <trkpt lat="46.50038" lon="5.30389">
        <ele>209.80000305176</ele>
        <time>2021-03-08T15:18:04.000Z</time>
      </trkpt>
      <trkpt lat="46.50031" lon="5.30397">
        <ele>209.60000610352</ele>
        <time>2021-03-08T15:18:05.000Z</time>
      </trkpt>
      <trkpt lat="46.50023" lon="5.30403">
        <ele>209.39999389648</ele>
        <time>2021-03-08T15:18:06.000Z</time>
      </trkpt>
      <trkpt lat="46.50008" lon="5.30415">
        <ele>208.80000305176</ele>
        <time>2021-03-08T15:18:08.000Z</time>
      </trkpt>
      <trkpt lat="46.50001" lon="5.3042">
        <ele>208.60000610352</ele>
        <time>2021-03-08T15:18:09.000Z</time>
      </trkpt>
      <trkpt lat="46.49994" lon="5.30426">
        <ele>208.60000610352</ele>
        <time>2021-03-08T15:18:10.000Z</time>
      </trkpt>
      <trkpt lat="46.49981" lon="5.30436">
        <ele>208.60000610352</ele>
        <time>2021-03-08T15:18:12.000Z</time>
      </trkpt>
      <trkpt lat="46.4997" lon="5.30448">
        <ele>208.60000610352</ele>
        <time>2021-03-08T15:18:14.000Z</time>
      </trkpt>
      <trkpt lat="46.49959" lon="5.30462">
        <ele>208.60000610352</ele>
        <time>2021-03-08T15:18:16.000Z</time>
      </trkpt>
      <trkpt lat="46.4995" lon="5.30477">
        <ele>209</ele>
        <time>2021-03-08T15:18:18.000Z</time>
      </trkpt>
      <trkpt lat="46.49943" lon="5.30494">
        <ele>209.60000610352</ele>
        <time>2021-03-08T15:18:20.000Z</time>
      </trkpt>
      <trkpt lat="46.4994" lon="5.30503">
        <ele>210</ele>
        <time>2021-03-08T15:18:21.000Z</time>
      </trkpt>
      <trkpt lat="46.49937" lon="5.30512">
        <ele>210.19999694824</ele>
        <time>2021-03-08T15:18:22.000Z</time>
      </trkpt>
      <trkpt lat="46.49932" lon="5.30529">
        <ele>210.80000305176</ele>
        <time>2021-03-08T15:18:24.000Z</time>
      </trkpt>
      <trkpt lat="46.49929" lon="5.30547">
        <ele>211.39999389648</ele>
        <time>2021-03-08T15:18:26.000Z</time>
      </trkpt>
      <trkpt lat="46.49928" lon="5.30564">
        <ele>211.80000305176</ele>
        <time>2021-03-08T15:18:28.000Z</time>
      </trkpt>
      <trkpt lat="46.49928" lon="5.30573">
        <ele>212</ele>
        <time>2021-03-08T15:18:29.000Z</time>
      </trkpt>
      <trkpt lat="46.49928" lon="5.30581">
        <ele>212</ele>
        <time>2021-03-08T15:18:30.000Z</time>
      </trkpt>
      <trkpt lat="46.49928" lon="5.3059">
        <ele>212.39999389648</ele>
        <time>2021-03-08T15:18:31.000Z</time>
      </trkpt>
      <trkpt lat="46.49929" lon="5.30598">
        <ele>212.60000610352</ele>
        <time>2021-03-08T15:18:32.000Z</time>
      </trkpt>
      <trkpt lat="46.49931" lon="5.30615">
        <ele>212.80000305176</ele>
        <time>2021-03-08T15:18:34.000Z</time>
      </trkpt>
      <trkpt lat="46.49932" lon="5.30623">
        <ele>213.19999694824</ele>
        <time>2021-03-08T15:18:35.000Z</time>
      </trkpt>
      <trkpt lat="46.49933" lon="5.30631">
        <ele>213.60000610352</ele>
        <time>2021-03-08T15:18:36.000Z</time>
      </trkpt>
      <trkpt lat="46.49935" lon="5.30639">
        <ele>214</ele>
        <time>2021-03-08T15:18:37.000Z</time>
      </trkpt>
      <trkpt lat="46.49936" lon="5.30646">
        <ele>214.60000610352</ele>
        <time>2021-03-08T15:18:38.000Z</time>
      </trkpt>
      <trkpt lat="46.49939" lon="5.30662">
        <ele>215</ele>
        <time>2021-03-08T15:18:40.000Z</time>
      </trkpt>
      <trkpt lat="46.49942" lon="5.30678">
        <ele>215.39999389648</ele>
        <time>2021-03-08T15:18:42.000Z</time>
      </trkpt>
      <trkpt lat="46.49945" lon="5.30693">
        <ele>215.60000610352</ele>
        <time>2021-03-08T15:18:44.000Z</time>
      </trkpt>
      <trkpt lat="46.49947" lon="5.30701">
        <ele>215.80000305176</ele>
        <time>2021-03-08T15:18:45.000Z</time>
      </trkpt>
      <trkpt lat="46.49949" lon="5.30709">
        <ele>216</ele>
        <time>2021-03-08T15:18:46.000Z</time>
      </trkpt>
      <trkpt lat="46.4995" lon="5.30717">
        <ele>216.19999694824</ele>
        <time>2021-03-08T15:18:47.000Z</time>
      </trkpt>
      <trkpt lat="46.49952" lon="5.30725">
        <ele>216.39999389648</ele>
        <time>2021-03-08T15:18:48.000Z</time>
      </trkpt>
      <trkpt lat="46.49955" lon="5.30741">
        <ele>217</ele>
        <time>2021-03-08T15:18:50.000Z</time>
      </trkpt>
      <trkpt lat="46.49957" lon="5.30758">
        <ele>217.80000305176</ele>
        <time>2021-03-08T15:18:52.000Z</time>
      </trkpt>
      <trkpt lat="46.49959" lon="5.30766">
        <ele>218</ele>
        <time>2021-03-08T15:18:53.000Z</time>
      </trkpt>
      <trkpt lat="46.49961" lon="5.30775">
        <ele>218.19999694824</ele>
        <time>2021-03-08T15:18:54.000Z</time>
      </trkpt>
      <trkpt lat="46.49965" lon="5.30793">
        <ele>218.19999694824</ele>
        <time>2021-03-08T15:18:56.000Z</time>
      </trkpt>
      <trkpt lat="46.49969" lon="5.30812">
        <ele>218.19999694824</ele>
        <time>2021-03-08T15:18:58.000Z</time>
      </trkpt>
      <trkpt lat="46.49975" lon="5.3083">
        <ele>218.19999694824</ele>
        <time>2021-03-08T15:19:00.000Z</time>
      </trkpt>
      <trkpt lat="46.49981" lon="5.30848">
        <ele>218.19999694824</ele>
        <time>2021-03-08T15:19:02.000Z</time>
      </trkpt>
      <trkpt lat="46.49988" lon="5.30867">
        <ele>217.80000305176</ele>
        <time>2021-03-08T15:19:04.000Z</time>
      </trkpt>
      <trkpt lat="46.49996" lon="5.30886">
        <ele>217.19999694824</ele>
        <time>2021-03-08T15:19:06.000Z</time>
      </trkpt>
      <trkpt lat="46.5" lon="5.30897">
        <ele>216.80000305176</ele>
        <time>2021-03-08T15:19:07.000Z</time>
      </trkpt>
      <trkpt lat="46.50003" lon="5.30907">
        <ele>216.60000610352</ele>
        <time>2021-03-08T15:19:08.000Z</time>
      </trkpt>
      <trkpt lat="46.50007" lon="5.30918">
        <ele>216.39999389648</ele>
        <time>2021-03-08T15:19:09.000Z</time>
      </trkpt>
      <trkpt lat="46.50011" lon="5.30929">
        <ele>216.39999389648</ele>
        <time>2021-03-08T15:19:10.000Z</time>
      </trkpt>
      <trkpt lat="46.50019" lon="5.30951">
        <ele>215.80000305176</ele>
        <time>2021-03-08T15:19:12.000Z</time>
      </trkpt>
      <trkpt lat="46.50023" lon="5.30962">
        <ele>215.19999694824</ele>
        <time>2021-03-08T15:19:13.000Z</time>
      </trkpt>
      <trkpt lat="46.50027" lon="5.30974">
        <ele>214.80000305176</ele>
        <time>2021-03-08T15:19:14.000Z</time>
      </trkpt>
      <trkpt lat="46.50032" lon="5.30986">
        <ele>213.80000305176</ele>
        <time>2021-03-08T15:19:15.000Z</time>
      </trkpt>
      <trkpt lat="46.50036" lon="5.30998">
        <ele>213.19999694824</ele>
        <time>2021-03-08T15:19:16.000Z</time>
      </trkpt>
      <trkpt lat="46.5004" lon="5.3101">
        <ele>212.39999389648</ele>
        <time>2021-03-08T15:19:17.000Z</time>
      </trkpt>
      <trkpt lat="46.50045" lon="5.31023">
        <ele>211.80000305176</ele>
        <time>2021-03-08T15:19:18.000Z</time>
      </trkpt>
      <trkpt lat="46.50049" lon="5.31035">
        <ele>211.19999694824</ele>
        <time>2021-03-08T15:19:19.000Z</time>
      </trkpt>
      <trkpt lat="46.50053" lon="5.31048">
        <ele>210.60000610352</ele>
        <time>2021-03-08T15:19:20.000Z</time>
      </trkpt>
      <trkpt lat="46.50062" lon="5.31074">
        <ele>210.19999694824</ele>
        <time>2021-03-08T15:19:22.000Z</time>
      </trkpt>
      <trkpt lat="46.50071" lon="5.311">
        <ele>209.60000610352</ele>
        <time>2021-03-08T15:19:24.000Z</time>
      </trkpt>
      <trkpt lat="46.50076" lon="5.31114">
        <ele>208.80000305176</ele>
        <time>2021-03-08T15:19:25.000Z</time>
      </trkpt>
      <trkpt lat="46.5008" lon="5.31127">
        <ele>208</ele>
        <time>2021-03-08T15:19:26.000Z</time>
      </trkpt>
      <trkpt lat="46.50084" lon="5.3114">
        <ele>207.39999389648</ele>
        <time>2021-03-08T15:19:27.000Z</time>
      </trkpt>
      <trkpt lat="46.50089" lon="5.31153">
        <ele>206.60000610352</ele>
        <time>2021-03-08T15:19:28.000Z</time>
      </trkpt>
      <trkpt lat="46.50093" lon="5.31165">
        <ele>206</ele>
        <time>2021-03-08T15:19:29.000Z</time>
      </trkpt>
      <trkpt lat="46.50097" lon="5.31177">
        <ele>205.39999389648</ele>
        <time>2021-03-08T15:19:30.000Z</time>
      </trkpt>
      <trkpt lat="46.50101" lon="5.31189">
        <ele>204.60000610352</ele>
        <time>2021-03-08T15:19:31.000Z</time>
      </trkpt>
      <trkpt lat="46.50105" lon="5.312">
        <ele>204.19999694824</ele>
        <time>2021-03-08T15:19:32.000Z</time>
      </trkpt>
      <trkpt lat="46.50112" lon="5.31222">
        <ele>204</ele>
        <time>2021-03-08T15:19:34.000Z</time>
      </trkpt>
      <trkpt lat="46.50119" lon="5.31243">
        <ele>203.80000305176</ele>
        <time>2021-03-08T15:19:36.000Z</time>
      </trkpt>
      <trkpt lat="46.50126" lon="5.31263">
        <ele>203.80000305176</ele>
        <time>2021-03-08T15:19:38.000Z</time>
      </trkpt>
      <trkpt lat="46.50134" lon="5.31283">
        <ele>204.19999694824</ele>
        <time>2021-03-08T15:19:40.000Z</time>
      </trkpt>
      <trkpt lat="46.50141" lon="5.31303">
        <ele>205.19999694824</ele>
        <time>2021-03-08T15:19:42.000Z</time>
      </trkpt>
      <trkpt lat="46.50147" lon="5.31324">
        <ele>205.80000305176</ele>
        <time>2021-03-08T15:19:44.000Z</time>
      </trkpt>
      <trkpt lat="46.50155" lon="5.31345">
        <ele>206.19999694824</ele>
        <time>2021-03-08T15:19:46.000Z</time>
      </trkpt>
      <trkpt lat="46.50162" lon="5.31367">
        <ele>206.19999694824</ele>
        <time>2021-03-08T15:19:48.000Z</time>
      </trkpt>
      <trkpt lat="46.50165" lon="5.31378">
        <ele>206.39999389648</ele>
        <time>2021-03-08T15:19:49.000Z</time>
      </trkpt>
      <trkpt lat="46.50169" lon="5.31388">
        <ele>206.39999389648</ele>
        <time>2021-03-08T15:19:50.000Z</time>
      </trkpt>
      <trkpt lat="46.50177" lon="5.3141">
        <ele>206.39999389648</ele>
        <time>2021-03-08T15:19:52.000Z</time>
      </trkpt>
      <trkpt lat="46.50184" lon="5.31433">
        <ele>206.39999389648</ele>
        <time>2021-03-08T15:19:54.000Z</time>
      </trkpt>
      <trkpt lat="46.50192" lon="5.31455">
        <ele>206.19999694824</ele>
        <time>2021-03-08T15:19:56.000Z</time>
      </trkpt>
      <trkpt lat="46.50196" lon="5.31467">
        <ele>205.80000305176</ele>
        <time>2021-03-08T15:19:57.000Z</time>
      </trkpt>
      <trkpt lat="46.502" lon="5.31479">
        <ele>205.39999389648</ele>
        <time>2021-03-08T15:19:58.000Z</time>
      </trkpt>
      <trkpt lat="46.50208" lon="5.31503">
        <ele>204.80000305176</ele>
        <time>2021-03-08T15:20:00.000Z</time>
      </trkpt>
      <trkpt lat="46.50218" lon="5.31527">
        <ele>204.19999694824</ele>
        <time>2021-03-08T15:20:02.000Z</time>
      </trkpt>
      <trkpt lat="46.50223" lon="5.31538">
        <ele>204</ele>
        <time>2021-03-08T15:20:03.000Z</time>
      </trkpt>
      <trkpt lat="46.50229" lon="5.31548">
        <ele>203.39999389648</ele>
        <time>2021-03-08T15:20:04.000Z</time>
      </trkpt>
      <trkpt lat="46.50242" lon="5.31566">
        <ele>201.80000305176</ele>
        <time>2021-03-08T15:20:06.000Z</time>
      </trkpt>
      <trkpt lat="46.50256" lon="5.31582">
        <ele>200.60000610352</ele>
        <time>2021-03-08T15:20:08.000Z</time>
      </trkpt>
      <trkpt lat="46.50269" lon="5.31596">
        <ele>199.19999694824</ele>
        <time>2021-03-08T15:20:10.000Z</time>
      </trkpt>
      <trkpt lat="46.50282" lon="5.31607">
        <ele>197.80000305176</ele>
        <time>2021-03-08T15:20:12.000Z</time>
      </trkpt>
      <trkpt lat="46.50289" lon="5.31612">
        <ele>197.39999389648</ele>
        <time>2021-03-08T15:20:13.000Z</time>
      </trkpt>
      <trkpt lat="46.50295" lon="5.31618">
        <ele>197.19999694824</ele>
        <time>2021-03-08T15:20:14.000Z</time>
      </trkpt>
      <trkpt lat="46.50308" lon="5.31628">
        <ele>197.19999694824</ele>
        <time>2021-03-08T15:20:16.000Z</time>
      </trkpt>
      <trkpt lat="46.50321" lon="5.31637">
        <ele>197.19999694824</ele>
        <time>2021-03-08T15:20:18.000Z</time>
      </trkpt>
      <trkpt lat="46.50334" lon="5.31646">
        <ele>197.19999694824</ele>
        <time>2021-03-08T15:20:20.000Z</time>
      </trkpt>
      <trkpt lat="46.5034" lon="5.3165">
        <ele>197.19999694824</ele>
        <time>2021-03-08T15:20:21.000Z</time>
      </trkpt>
      <trkpt lat="46.50346" lon="5.31655">
        <ele>197.19999694824</ele>
        <time>2021-03-08T15:20:22.000Z</time>
      </trkpt>
      <trkpt lat="46.50357" lon="5.31665">
        <ele>197.19999694824</ele>
        <time>2021-03-08T15:20:24.000Z</time>
      </trkpt>
      <trkpt lat="46.50368" lon="5.31677">
        <ele>197.60000610352</ele>
        <time>2021-03-08T15:20:26.000Z</time>
      </trkpt>
      <trkpt lat="46.50373" lon="5.31683">
        <ele>197.80000305176</ele>
        <time>2021-03-08T15:20:27.000Z</time>
      </trkpt>
      <trkpt lat="46.50377" lon="5.3169">
        <ele>197.80000305176</ele>
        <time>2021-03-08T15:20:28.000Z</time>
      </trkpt>
      <trkpt lat="46.50385" lon="5.31704">
        <ele>198</ele>
        <time>2021-03-08T15:20:30.000Z</time>
      </trkpt>
      <trkpt lat="46.50393" lon="5.31719">
        <ele>198</ele>
        <time>2021-03-08T15:20:32.000Z</time>
      </trkpt>
      <trkpt lat="46.50396" lon="5.31726">
        <ele>198.19999694824</ele>
        <time>2021-03-08T15:20:33.000Z</time>
      </trkpt>
      <trkpt lat="46.504" lon="5.31734">
        <ele>198.19999694824</ele>
        <time>2021-03-08T15:20:34.000Z</time>
      </trkpt>
      <trkpt lat="46.50407" lon="5.31751">
        <ele>199.19999694824</ele>
        <time>2021-03-08T15:20:36.000Z</time>
      </trkpt>
      <trkpt lat="46.50412" lon="5.31768">
        <ele>199.80000305176</ele>
        <time>2021-03-08T15:20:38.000Z</time>
      </trkpt>
      <trkpt lat="46.50417" lon="5.31785">
        <ele>199.80000305176</ele>
        <time>2021-03-08T15:20:40.000Z</time>
      </trkpt>
      <trkpt lat="46.50421" lon="5.31803">
        <ele>200</ele>
        <time>2021-03-08T15:20:42.000Z</time>
      </trkpt>
      <trkpt lat="46.50426" lon="5.3182">
        <ele>200</ele>
        <time>2021-03-08T15:20:44.000Z</time>
      </trkpt>
      <trkpt lat="46.50429" lon="5.31838">
        <ele>200</ele>
        <time>2021-03-08T15:20:46.000Z</time>
      </trkpt>
      <trkpt lat="46.50433" lon="5.31856">
        <ele>200.19999694824</ele>
        <time>2021-03-08T15:20:48.000Z</time>
      </trkpt>
      <trkpt lat="46.50434" lon="5.31865">
        <ele>200.19999694824</ele>
        <time>2021-03-08T15:20:49.000Z</time>
      </trkpt>
      <trkpt lat="46.50435" lon="5.31874">
        <ele>200.19999694824</ele>
        <time>2021-03-08T15:20:50.000Z</time>
      </trkpt>
      <trkpt lat="46.50436" lon="5.31893">
        <ele>200.19999694824</ele>
        <time>2021-03-08T15:20:52.000Z</time>
      </trkpt>
      <trkpt lat="46.50437" lon="5.31911">
        <ele>200.39999389648</ele>
        <time>2021-03-08T15:20:54.000Z</time>
      </trkpt>
      <trkpt lat="46.50437" lon="5.31921">
        <ele>200.39999389648</ele>
        <time>2021-03-08T15:20:55.000Z</time>
      </trkpt>
      <trkpt lat="46.50436" lon="5.3193">
        <ele>200.60000610352</ele>
        <time>2021-03-08T15:20:56.000Z</time>
      </trkpt>
      <trkpt lat="46.50436" lon="5.31949">
        <ele>200.60000610352</ele>
        <time>2021-03-08T15:20:58.000Z</time>
      </trkpt>
      <trkpt lat="46.50436" lon="5.31967">
        <ele>200.80000305176</ele>
        <time>2021-03-08T15:21:00.000Z</time>
      </trkpt>
      <trkpt lat="46.50435" lon="5.31986">
        <ele>201</ele>
        <time>2021-03-08T15:21:02.000Z</time>
      </trkpt>
      <trkpt lat="46.50435" lon="5.31995">
        <ele>201.19999694824</ele>
        <time>2021-03-08T15:21:03.000Z</time>
      </trkpt>
      <trkpt lat="46.50435" lon="5.32005">
        <ele>201.39999389648</ele>
        <time>2021-03-08T15:21:04.000Z</time>
      </trkpt>
      <trkpt lat="46.50434" lon="5.32023">
        <ele>201.60000610352</ele>
        <time>2021-03-08T15:21:06.000Z</time>
      </trkpt>
      <trkpt lat="46.50434" lon="5.32042">
        <ele>201.60000610352</ele>
        <time>2021-03-08T15:21:08.000Z</time>
      </trkpt>
      <trkpt lat="46.50433" lon="5.3206">
        <ele>201.80000305176</ele>
        <time>2021-03-08T15:21:10.000Z</time>
      </trkpt>
      <trkpt lat="46.50433" lon="5.32078">
        <ele>201.80000305176</ele>
        <time>2021-03-08T15:21:12.000Z</time>
      </trkpt>
      <trkpt lat="46.50432" lon="5.32095">
        <ele>201.80000305176</ele>
        <time>2021-03-08T15:21:14.000Z</time>
      </trkpt>
      <trkpt lat="46.50432" lon="5.32113">
        <ele>201.80000305176</ele>
        <time>2021-03-08T15:21:16.000Z</time>
      </trkpt>
      <trkpt lat="46.50431" lon="5.32131">
        <ele>202</ele>
        <time>2021-03-08T15:21:18.000Z</time>
      </trkpt>
      <trkpt lat="46.50431" lon="5.32148">
        <ele>202.19999694824</ele>
        <time>2021-03-08T15:21:20.000Z</time>
      </trkpt>
      <trkpt lat="46.50431" lon="5.32157">
        <ele>202.39999389648</ele>
        <time>2021-03-08T15:21:21.000Z</time>
      </trkpt>
      <trkpt lat="46.50431" lon="5.32165">
        <ele>202.60000610352</ele>
        <time>2021-03-08T15:21:22.000Z</time>
      </trkpt>
      <trkpt lat="46.5043" lon="5.32183">
        <ele>202.80000305176</ele>
        <time>2021-03-08T15:21:24.000Z</time>
      </trkpt>
      <trkpt lat="46.5043" lon="5.32201">
        <ele>203.19999694824</ele>
        <time>2021-03-08T15:21:26.000Z</time>
      </trkpt>
      <trkpt lat="46.5043" lon="5.32218">
        <ele>203.60000610352</ele>
        <time>2021-03-08T15:21:28.000Z</time>
      </trkpt>
      <trkpt lat="46.5043" lon="5.32236">
        <ele>204</ele>
        <time>2021-03-08T15:21:30.000Z</time>
      </trkpt>
      <trkpt lat="46.5043" lon="5.32254">
        <ele>204.19999694824</ele>
        <time>2021-03-08T15:21:32.000Z</time>
      </trkpt>
      <trkpt lat="46.50431" lon="5.32271">
        <ele>204.19999694824</ele>
        <time>2021-03-08T15:21:34.000Z</time>
      </trkpt>
      <trkpt lat="46.50433" lon="5.32288">
        <ele>204.39999389648</ele>
        <time>2021-03-08T15:21:36.000Z</time>
      </trkpt>
      <trkpt lat="46.50435" lon="5.32306">
        <ele>204.39999389648</ele>
        <time>2021-03-08T15:21:38.000Z</time>
      </trkpt>
      <trkpt lat="46.50439" lon="5.32323">
        <ele>204.39999389648</ele>
        <time>2021-03-08T15:21:40.000Z</time>
      </trkpt>
      <trkpt lat="46.50441" lon="5.32332">
        <ele>204.60000610352</ele>
        <time>2021-03-08T15:21:41.000Z</time>
      </trkpt>
      <trkpt lat="46.50443" lon="5.32342">
        <ele>204.60000610352</ele>
        <time>2021-03-08T15:21:42.000Z</time>
      </trkpt>
      <trkpt lat="46.50447" lon="5.32361">
        <ele>204.80000305176</ele>
        <time>2021-03-08T15:21:44.000Z</time>
      </trkpt>
      <trkpt lat="46.50451" lon="5.3238">
        <ele>204.80000305176</ele>
        <time>2021-03-08T15:21:46.000Z</time>
      </trkpt>
      <trkpt lat="46.50455" lon="5.32399">
        <ele>204.80000305176</ele>
        <time>2021-03-08T15:21:48.000Z</time>
      </trkpt>
      <trkpt lat="46.50457" lon="5.32409">
        <ele>204.80000305176</ele>
        <time>2021-03-08T15:21:49.000Z</time>
      </trkpt>
      <trkpt lat="46.50459" lon="5.32418">
        <ele>204.80000305176</ele>
        <time>2021-03-08T15:21:50.000Z</time>
      </trkpt>
      <trkpt lat="46.50463" lon="5.32437">
        <ele>204.80000305176</ele>
        <time>2021-03-08T15:21:52.000Z</time>
      </trkpt>
      <trkpt lat="46.50465" lon="5.32457">
        <ele>204.60000610352</ele>
        <time>2021-03-08T15:21:54.000Z</time>
      </trkpt>
      <trkpt lat="46.50467" lon="5.32476">
        <ele>204.60000610352</ele>
        <time>2021-03-08T15:21:56.000Z</time>
      </trkpt>
      <trkpt lat="46.50468" lon="5.32485">
        <ele>204.60000610352</ele>
        <time>2021-03-08T15:21:57.000Z</time>
      </trkpt>
      <trkpt lat="46.50469" lon="5.32494">
        <ele>204.60000610352</ele>
        <time>2021-03-08T15:21:58.000Z</time>
      </trkpt>
      <trkpt lat="46.5047" lon="5.32513">
        <ele>204.60000610352</ele>
        <time>2021-03-08T15:22:00.000Z</time>
      </trkpt>
      <trkpt lat="46.50471" lon="5.32531">
        <ele>204.60000610352</ele>
        <time>2021-03-08T15:22:02.000Z</time>
      </trkpt>
      <trkpt lat="46.50472" lon="5.32549">
        <ele>205</ele>
        <time>2021-03-08T15:22:04.000Z</time>
      </trkpt>
      <trkpt lat="46.50473" lon="5.32567">
        <ele>205.19999694824</ele>
        <time>2021-03-08T15:22:06.000Z</time>
      </trkpt>
      <trkpt lat="46.50474" lon="5.32585">
        <ele>205.39999389648</ele>
        <time>2021-03-08T15:22:08.000Z</time>
      </trkpt>
      <trkpt lat="46.50475" lon="5.32604">
        <ele>205.60000610352</ele>
        <time>2021-03-08T15:22:10.000Z</time>
      </trkpt>
      <trkpt lat="46.50475" lon="5.32613">
        <ele>205.80000305176</ele>
        <time>2021-03-08T15:22:11.000Z</time>
      </trkpt>
      <trkpt lat="46.50475" lon="5.32622">
        <ele>206.19999694824</ele>
        <time>2021-03-08T15:22:12.000Z</time>
      </trkpt>
      <trkpt lat="46.50475" lon="5.3264">
        <ele>206.39999389648</ele>
        <time>2021-03-08T15:22:14.000Z</time>
      </trkpt>
      <trkpt lat="46.50475" lon="5.32657">
        <ele>206.80000305176</ele>
        <time>2021-03-08T15:22:16.000Z</time>
      </trkpt>
      <trkpt lat="46.50475" lon="5.32675">
        <ele>207</ele>
        <time>2021-03-08T15:22:18.000Z</time>
      </trkpt>
      <trkpt lat="46.50474" lon="5.32694">
        <ele>207</ele>
        <time>2021-03-08T15:22:20.000Z</time>
      </trkpt>
      <trkpt lat="46.50474" lon="5.32703">
        <ele>207.19999694824</ele>
        <time>2021-03-08T15:22:21.000Z</time>
      </trkpt>
      <trkpt lat="46.50474" lon="5.32712">
        <ele>207.19999694824</ele>
        <time>2021-03-08T15:22:22.000Z</time>
      </trkpt>
      <trkpt lat="46.50474" lon="5.3273">
        <ele>207.60000610352</ele>
        <time>2021-03-08T15:22:24.000Z</time>
      </trkpt>
      <trkpt lat="46.50474" lon="5.32748">
        <ele>208</ele>
        <time>2021-03-08T15:22:26.000Z</time>
      </trkpt>
      <trkpt lat="46.50473" lon="5.32767">
        <ele>208.19999694824</ele>
        <time>2021-03-08T15:22:28.000Z</time>
      </trkpt>
      <trkpt lat="46.50473" lon="5.32786">
        <ele>208.39999389648</ele>
        <time>2021-03-08T15:22:30.000Z</time>
      </trkpt>
      <trkpt lat="46.50472" lon="5.32795">
        <ele>208.39999389648</ele>
        <time>2021-03-08T15:22:31.000Z</time>
      </trkpt>
      <trkpt lat="46.50472" lon="5.32805">
        <ele>208.39999389648</ele>
        <time>2021-03-08T15:22:32.000Z</time>
      </trkpt>
      <trkpt lat="46.50472" lon="5.32824">
        <ele>208.39999389648</ele>
        <time>2021-03-08T15:22:34.000Z</time>
      </trkpt>
      <trkpt lat="46.50471" lon="5.32843">
        <ele>208.39999389648</ele>
        <time>2021-03-08T15:22:36.000Z</time>
      </trkpt>
      <trkpt lat="46.50471" lon="5.32861">
        <ele>208.60000610352</ele>
        <time>2021-03-08T15:22:38.000Z</time>
      </trkpt>
      <trkpt lat="46.50471" lon="5.32879">
        <ele>208.60000610352</ele>
        <time>2021-03-08T15:22:40.000Z</time>
      </trkpt>
      <trkpt lat="46.5047" lon="5.32895">
        <ele>208.60000610352</ele>
        <time>2021-03-08T15:22:42.000Z</time>
      </trkpt>
      <trkpt lat="46.5047" lon="5.32911">
        <ele>208.60000610352</ele>
        <time>2021-03-08T15:22:44.000Z</time>
      </trkpt>
      <trkpt lat="46.5047" lon="5.32927">
        <ele>209.19999694824</ele>
        <time>2021-03-08T15:22:46.000Z</time>
      </trkpt>
      <trkpt lat="46.5047" lon="5.32934">
        <ele>209.39999389648</ele>
        <time>2021-03-08T15:22:47.000Z</time>
      </trkpt>
      <trkpt lat="46.5047" lon="5.32942">
        <ele>210</ele>
        <time>2021-03-08T15:22:48.000Z</time>
      </trkpt>
      <trkpt lat="46.5047" lon="5.32949">
        <ele>210.60000610352</ele>
        <time>2021-03-08T15:22:49.000Z</time>
      </trkpt>
      <trkpt lat="46.5047" lon="5.32957">
        <ele>211</ele>
        <time>2021-03-08T15:22:50.000Z</time>
      </trkpt>
      <trkpt lat="46.50469" lon="5.32971">
        <ele>211.39999389648</ele>
        <time>2021-03-08T15:22:52.000Z</time>
      </trkpt>
      <trkpt lat="46.50469" lon="5.32979">
        <ele>211.60000610352</ele>
        <time>2021-03-08T15:22:53.000Z</time>
      </trkpt>
      <trkpt lat="46.50469" lon="5.32986">
        <ele>212</ele>
        <time>2021-03-08T15:22:54.000Z</time>
      </trkpt>
      <trkpt lat="46.50468" lon="5.33001">
        <ele>212.60000610352</ele>
        <time>2021-03-08T15:22:56.000Z</time>
      </trkpt>
      <trkpt lat="46.50468" lon="5.33008">
        <ele>213</ele>
        <time>2021-03-08T15:22:57.000Z</time>
      </trkpt>
      <trkpt lat="46.50468" lon="5.33016">
        <ele>213.39999389648</ele>
        <time>2021-03-08T15:22:58.000Z</time>
      </trkpt>
      <trkpt lat="46.50468" lon="5.33023">
        <ele>213.80000305176</ele>
        <time>2021-03-08T15:22:59.000Z</time>
      </trkpt>
      <trkpt lat="46.50468" lon="5.3303">
        <ele>214</ele>
        <time>2021-03-08T15:23:00.000Z</time>
      </trkpt>
      <trkpt lat="46.50467" lon="5.33044">
        <ele>214.80000305176</ele>
        <time>2021-03-08T15:23:02.000Z</time>
      </trkpt>
      <trkpt lat="46.50467" lon="5.33058">
        <ele>215.19999694824</ele>
        <time>2021-03-08T15:23:04.000Z</time>
      </trkpt>
      <trkpt lat="46.50466" lon="5.33065">
        <ele>215.39999389648</ele>
        <time>2021-03-08T15:23:05.000Z</time>
      </trkpt>
      <trkpt lat="46.50466" lon="5.33071">
        <ele>215.60000610352</ele>
        <time>2021-03-08T15:23:06.000Z</time>
      </trkpt>
      <trkpt lat="46.50466" lon="5.33078">
        <ele>215.80000305176</ele>
        <time>2021-03-08T15:23:07.000Z</time>
      </trkpt>
      <trkpt lat="46.50466" lon="5.33084">
        <ele>216</ele>
        <time>2021-03-08T15:23:08.000Z</time>
      </trkpt>
      <trkpt lat="46.50465" lon="5.33097">
        <ele>216.60000610352</ele>
        <time>2021-03-08T15:23:10.000Z</time>
      </trkpt>
      <trkpt lat="46.50464" lon="5.33109">
        <ele>217</ele>
        <time>2021-03-08T15:23:12.000Z</time>
      </trkpt>
      <trkpt lat="46.50463" lon="5.33115">
        <ele>217.19999694824</ele>
        <time>2021-03-08T15:23:13.000Z</time>
      </trkpt>
      <trkpt lat="46.50462" lon="5.33121">
        <ele>217.60000610352</ele>
        <time>2021-03-08T15:23:14.000Z</time>
      </trkpt>
      <trkpt lat="46.50461" lon="5.33127">
        <ele>217.80000305176</ele>
        <time>2021-03-08T15:23:15.000Z</time>
      </trkpt>
      <trkpt lat="46.5046" lon="5.33133">
        <ele>218</ele>
        <time>2021-03-08T15:23:16.000Z</time>
      </trkpt>
      <trkpt lat="46.50459" lon="5.33139">
        <ele>218.39999389648</ele>
        <time>2021-03-08T15:23:17.000Z</time>
      </trkpt>
      <trkpt lat="46.50459" lon="5.33146">
        <ele>218.60000610352</ele>
        <time>2021-03-08T15:23:18.000Z</time>
      </trkpt>
      <trkpt lat="46.50458" lon="5.33152">
        <ele>219</ele>
        <time>2021-03-08T15:23:19.000Z</time>
      </trkpt>
      <trkpt lat="46.50458" lon="5.33159">
        <ele>219.19999694824</ele>
        <time>2021-03-08T15:23:20.000Z</time>
      </trkpt>
      <trkpt lat="46.50457" lon="5.33165">
        <ele>219.60000610352</ele>
        <time>2021-03-08T15:23:21.000Z</time>
      </trkpt>
      <trkpt lat="46.50457" lon="5.33172">
        <ele>219.80000305176</ele>
        <time>2021-03-08T15:23:22.000Z</time>
      </trkpt>
      <trkpt lat="46.50456" lon="5.33184">
        <ele>220.39999389648</ele>
        <time>2021-03-08T15:23:24.000Z</time>
      </trkpt>
      <trkpt lat="46.50456" lon="5.3319">
        <ele>220.80000305176</ele>
        <time>2021-03-08T15:23:25.000Z</time>
      </trkpt>
      <trkpt lat="46.50455" lon="5.33197">
        <ele>221</ele>
        <time>2021-03-08T15:23:26.000Z</time>
      </trkpt>
      <trkpt lat="46.50455" lon="5.33203">
        <ele>221.39999389648</ele>
        <time>2021-03-08T15:23:27.000Z</time>
      </trkpt>
      <trkpt lat="46.50455" lon="5.3321">
        <ele>221.39999389648</ele>
        <time>2021-03-08T15:23:28.000Z</time>
      </trkpt>
      <trkpt lat="46.50455" lon="5.33224">
        <ele>221.80000305176</ele>
        <time>2021-03-08T15:23:30.000Z</time>
      </trkpt>
      <trkpt lat="46.50455" lon="5.33232">
        <ele>221.80000305176</ele>
        <time>2021-03-08T15:23:31.000Z</time>
      </trkpt>
      <trkpt lat="46.50455" lon="5.33239">
        <ele>221.80000305176</ele>
        <time>2021-03-08T15:23:32.000Z</time>
      </trkpt>
      <trkpt lat="46.50455" lon="5.33247">
        <ele>221.80000305176</ele>
        <time>2021-03-08T15:23:33.000Z</time>
      </trkpt>
      <trkpt lat="46.50454" lon="5.33255">
        <ele>221.80000305176</ele>
        <time>2021-03-08T15:23:34.000Z</time>
      </trkpt>
      <trkpt lat="46.50454" lon="5.33271">
        <ele>221.80000305176</ele>
        <time>2021-03-08T15:23:36.000Z</time>
      </trkpt>
      <trkpt lat="46.50454" lon="5.33288">
        <ele>221.80000305176</ele>
        <time>2021-03-08T15:23:38.000Z</time>
      </trkpt>
      <trkpt lat="46.50453" lon="5.33307">
        <ele>221.80000305176</ele>
        <time>2021-03-08T15:23:40.000Z</time>
      </trkpt>
      <trkpt lat="46.50453" lon="5.33326">
        <ele>221.80000305176</ele>
        <time>2021-03-08T15:23:42.000Z</time>
      </trkpt>
      <trkpt lat="46.50451" lon="5.33345">
        <ele>221.60000610352</ele>
        <time>2021-03-08T15:23:44.000Z</time>
      </trkpt>
      <trkpt lat="46.50449" lon="5.33365">
        <ele>221.39999389648</ele>
        <time>2021-03-08T15:23:46.000Z</time>
      </trkpt>
      <trkpt lat="46.50447" lon="5.33374">
        <ele>221.19999694824</ele>
        <time>2021-03-08T15:23:47.000Z</time>
      </trkpt>
      <trkpt lat="46.50445" lon="5.33382">
        <ele>221.19999694824</ele>
        <time>2021-03-08T15:23:48.000Z</time>
      </trkpt>
      <trkpt lat="46.5044" lon="5.33398">
        <ele>220.80000305176</ele>
        <time>2021-03-08T15:23:50.000Z</time>
      </trkpt>
      <trkpt lat="46.50436" lon="5.33406">
        <ele>220.80000305176</ele>
        <time>2021-03-08T15:23:51.000Z</time>
      </trkpt>
      <trkpt lat="46.50432" lon="5.33413">
        <ele>220.80000305176</ele>
        <time>2021-03-08T15:23:52.000Z</time>
      </trkpt>
      <trkpt lat="46.50425" lon="5.33428">
        <ele>220.80000305176</ele>
        <time>2021-03-08T15:23:54.000Z</time>
      </trkpt>
      <trkpt lat="46.50417" lon="5.33441">
        <ele>220.80000305176</ele>
        <time>2021-03-08T15:23:56.000Z</time>
      </trkpt>
      <trkpt lat="46.50412" lon="5.33446">
        <ele>220.80000305176</ele>
        <time>2021-03-08T15:23:57.000Z</time>
      </trkpt>
      <trkpt lat="46.50408" lon="5.33451">
        <ele>220.80000305176</ele>
        <time>2021-03-08T15:23:58.000Z</time>
      </trkpt>
      <trkpt lat="46.50399" lon="5.33462">
        <ele>220.80000305176</ele>
        <time>2021-03-08T15:24:00.000Z</time>
      </trkpt>
      <trkpt lat="46.50391" lon="5.33472">
        <ele>221</ele>
        <time>2021-03-08T15:24:02.000Z</time>
      </trkpt>
      <trkpt lat="46.50383" lon="5.33482">
        <ele>221.19999694824</ele>
        <time>2021-03-08T15:24:04.000Z</time>
      </trkpt>
      <trkpt lat="46.50379" lon="5.33487">
        <ele>221.39999389648</ele>
        <time>2021-03-08T15:24:05.000Z</time>
      </trkpt>
      <trkpt lat="46.50374" lon="5.33492">
        <ele>221.80000305176</ele>
        <time>2021-03-08T15:24:06.000Z</time>
      </trkpt>
      <trkpt lat="46.50365" lon="5.33502">
        <ele>222</ele>
        <time>2021-03-08T15:24:08.000Z</time>
      </trkpt>
      <trkpt lat="46.50356" lon="5.33511">
        <ele>222.39999389648</ele>
        <time>2021-03-08T15:24:10.000Z</time>
      </trkpt>
      <trkpt lat="46.50351" lon="5.33516">
        <ele>222.60000610352</ele>
        <time>2021-03-08T15:24:11.000Z</time>
      </trkpt>
      <trkpt lat="46.50346" lon="5.33521">
        <ele>222.80000305176</ele>
        <time>2021-03-08T15:24:12.000Z</time>
      </trkpt>
      <trkpt lat="46.50342" lon="5.33527">
        <ele>223</ele>
        <time>2021-03-08T15:24:13.000Z</time>
      </trkpt>
      <trkpt lat="46.50337" lon="5.33532">
        <ele>223.19999694824</ele>
        <time>2021-03-08T15:24:14.000Z</time>
      </trkpt>
      <trkpt lat="46.50328" lon="5.33542">
        <ele>223.19999694824</ele>
        <time>2021-03-08T15:24:16.000Z</time>
      </trkpt>
      <trkpt lat="46.50319" lon="5.33552">
        <ele>223.39999389648</ele>
        <time>2021-03-08T15:24:18.000Z</time>
      </trkpt>
      <trkpt lat="46.50309" lon="5.33563">
        <ele>223.39999389648</ele>
        <time>2021-03-08T15:24:20.000Z</time>
      </trkpt>
      <trkpt lat="46.503" lon="5.33573">
        <ele>223.60000610352</ele>
        <time>2021-03-08T15:24:22.000Z</time>
      </trkpt>
      <trkpt lat="46.50291" lon="5.33583">
        <ele>223.80000305176</ele>
        <time>2021-03-08T15:24:24.000Z</time>
      </trkpt>
      <trkpt lat="46.50281" lon="5.33594">
        <ele>224</ele>
        <time>2021-03-08T15:24:26.000Z</time>
      </trkpt>
      <trkpt lat="46.50272" lon="5.33604">
        <ele>224.19999694824</ele>
        <time>2021-03-08T15:24:28.000Z</time>
      </trkpt>
      <trkpt lat="46.50262" lon="5.33615">
        <ele>224.19999694824</ele>
        <time>2021-03-08T15:24:30.000Z</time>
      </trkpt>
      <trkpt lat="46.50258" lon="5.3362">
        <ele>224.19999694824</ele>
        <time>2021-03-08T15:24:31.000Z</time>
      </trkpt>
      <trkpt lat="46.50253" lon="5.33626">
        <ele>224.19999694824</ele>
        <time>2021-03-08T15:24:32.000Z</time>
      </trkpt>
      <trkpt lat="46.50243" lon="5.33636">
        <ele>224.19999694824</ele>
        <time>2021-03-08T15:24:34.000Z</time>
      </trkpt>
      <trkpt lat="46.50234" lon="5.33646">
        <ele>224.39999389648</ele>
        <time>2021-03-08T15:24:36.000Z</time>
      </trkpt>
      <trkpt lat="46.50225" lon="5.33657">
        <ele>224.39999389648</ele>
        <time>2021-03-08T15:24:38.000Z</time>
      </trkpt>
      <trkpt lat="46.50216" lon="5.33667">
        <ele>224.39999389648</ele>
        <time>2021-03-08T15:24:40.000Z</time>
      </trkpt>
      <trkpt lat="46.50211" lon="5.33672">
        <ele>224.39999389648</ele>
        <time>2021-03-08T15:24:41.000Z</time>
      </trkpt>
      <trkpt lat="46.50206" lon="5.33677">
        <ele>224.39999389648</ele>
        <time>2021-03-08T15:24:42.000Z</time>
      </trkpt>
      <trkpt lat="46.50196" lon="5.33688">
        <ele>224.60000610352</ele>
        <time>2021-03-08T15:24:44.000Z</time>
      </trkpt>
      <trkpt lat="46.50186" lon="5.33699">
        <ele>225</ele>
        <time>2021-03-08T15:24:46.000Z</time>
      </trkpt>
      <trkpt lat="46.50175" lon="5.3371">
        <ele>225.19999694824</ele>
        <time>2021-03-08T15:24:48.000Z</time>
      </trkpt>
      <trkpt lat="46.50164" lon="5.33721">
        <ele>225.39999389648</ele>
        <time>2021-03-08T15:24:50.000Z</time>
      </trkpt>
      <trkpt lat="46.50153" lon="5.33733">
        <ele>225.39999389648</ele>
        <time>2021-03-08T15:24:52.000Z</time>
      </trkpt>
      <trkpt lat="46.50141" lon="5.33745">
        <ele>225.39999389648</ele>
        <time>2021-03-08T15:24:54.000Z</time>
      </trkpt>
      <trkpt lat="46.50129" lon="5.33758">
        <ele>225.39999389648</ele>
        <time>2021-03-08T15:24:56.000Z</time>
      </trkpt>
      <trkpt lat="46.50123" lon="5.33765">
        <ele>225.39999389648</ele>
        <time>2021-03-08T15:24:57.000Z</time>
      </trkpt>
      <trkpt lat="46.50116" lon="5.33771">
        <ele>225.39999389648</ele>
        <time>2021-03-08T15:24:58.000Z</time>
      </trkpt>
      <trkpt lat="46.50104" lon="5.33784">
        <ele>225.39999389648</ele>
        <time>2021-03-08T15:25:00.000Z</time>
      </trkpt>
      <trkpt lat="46.50092" lon="5.33797">
        <ele>225.19999694824</ele>
        <time>2021-03-08T15:25:02.000Z</time>
      </trkpt>
      <trkpt lat="46.50081" lon="5.33809">
        <ele>225.19999694824</ele>
        <time>2021-03-08T15:25:04.000Z</time>
      </trkpt>
      <trkpt lat="46.5007" lon="5.33821">
        <ele>225</ele>
        <time>2021-03-08T15:25:06.000Z</time>
      </trkpt>
      <trkpt lat="46.50059" lon="5.33833">
        <ele>225</ele>
        <time>2021-03-08T15:25:08.000Z</time>
      </trkpt>
      <trkpt lat="46.50049" lon="5.33844">
        <ele>225</ele>
        <time>2021-03-08T15:25:10.000Z</time>
      </trkpt>
      <trkpt lat="46.50038" lon="5.33855">
        <ele>225.19999694824</ele>
        <time>2021-03-08T15:25:12.000Z</time>
      </trkpt>
      <trkpt lat="46.50029" lon="5.33865">
        <ele>225.39999389648</ele>
        <time>2021-03-08T15:25:14.000Z</time>
      </trkpt>
      <trkpt lat="46.50019" lon="5.33876">
        <ele>225.80000305176</ele>
        <time>2021-03-08T15:25:16.000Z</time>
      </trkpt>
      <trkpt lat="46.50014" lon="5.33882">
        <ele>226.19999694824</ele>
        <time>2021-03-08T15:25:17.000Z</time>
      </trkpt>
      <trkpt lat="46.50008" lon="5.33888">
        <ele>226.19999694824</ele>
        <time>2021-03-08T15:25:18.000Z</time>
      </trkpt>
      <trkpt lat="46.49998" lon="5.33899">
        <ele>226.60000610352</ele>
        <time>2021-03-08T15:25:20.000Z</time>
      </trkpt>
      <trkpt lat="46.49993" lon="5.33905">
        <ele>226.80000305176</ele>
        <time>2021-03-08T15:25:21.000Z</time>
      </trkpt>
      <trkpt lat="46.49987" lon="5.3391">
        <ele>227.19999694824</ele>
        <time>2021-03-08T15:25:22.000Z</time>
      </trkpt>
      <trkpt lat="46.49976" lon="5.33921">
        <ele>227.60000610352</ele>
        <time>2021-03-08T15:25:24.000Z</time>
      </trkpt>
      <trkpt lat="46.49965" lon="5.33933">
        <ele>227.80000305176</ele>
        <time>2021-03-08T15:25:26.000Z</time>
      </trkpt>
      <trkpt lat="46.49954" lon="5.33946">
        <ele>227.80000305176</ele>
        <time>2021-03-08T15:25:28.000Z</time>
      </trkpt>
      <trkpt lat="46.49948" lon="5.33953">
        <ele>227.80000305176</ele>
        <time>2021-03-08T15:25:29.000Z</time>
      </trkpt>
      <trkpt lat="46.49942" lon="5.33959">
        <ele>227.80000305176</ele>
        <time>2021-03-08T15:25:30.000Z</time>
      </trkpt>
      <trkpt lat="46.49929" lon="5.33974">
        <ele>227.80000305176</ele>
        <time>2021-03-08T15:25:32.000Z</time>
      </trkpt>
      <trkpt lat="46.49916" lon="5.33988">
        <ele>227.80000305176</ele>
        <time>2021-03-08T15:25:34.000Z</time>
      </trkpt>
      <trkpt lat="46.49902" lon="5.34003">
        <ele>227.60000610352</ele>
        <time>2021-03-08T15:25:36.000Z</time>
      </trkpt>
      <trkpt lat="46.49888" lon="5.34019">
        <ele>227.19999694824</ele>
        <time>2021-03-08T15:25:38.000Z</time>
      </trkpt>
      <trkpt lat="46.49875" lon="5.34034">
        <ele>226.60000610352</ele>
        <time>2021-03-08T15:25:40.000Z</time>
      </trkpt>
      <trkpt lat="46.49861" lon="5.34052">
        <ele>226.19999694824</ele>
        <time>2021-03-08T15:25:42.000Z</time>
      </trkpt>
      <trkpt lat="46.49855" lon="5.3406">
        <ele>225.80000305176</ele>
        <time>2021-03-08T15:25:43.000Z</time>
      </trkpt>
      <trkpt lat="46.49849" lon="5.34069">
        <ele>225.60000610352</ele>
        <time>2021-03-08T15:25:44.000Z</time>
      </trkpt>
      <trkpt lat="46.49843" lon="5.34077">
        <ele>225.39999389648</ele>
        <time>2021-03-08T15:25:45.000Z</time>
      </trkpt>
      <trkpt lat="46.49838" lon="5.34086">
        <ele>225</ele>
        <time>2021-03-08T15:25:46.000Z</time>
      </trkpt>
      <trkpt lat="46.49827" lon="5.34103">
        <ele>224.80000305176</ele>
        <time>2021-03-08T15:25:48.000Z</time>
      </trkpt>
      <trkpt lat="46.49817" lon="5.3412">
        <ele>224.80000305176</ele>
        <time>2021-03-08T15:25:50.000Z</time>
      </trkpt>
      <trkpt lat="46.49806" lon="5.34137">
        <ele>224.60000610352</ele>
        <time>2021-03-08T15:25:52.000Z</time>
      </trkpt>
      <trkpt lat="46.49796" lon="5.34154">
        <ele>224.60000610352</ele>
        <time>2021-03-08T15:25:54.000Z</time>
      </trkpt>
      <trkpt lat="46.49786" lon="5.34172">
        <ele>224.39999389648</ele>
        <time>2021-03-08T15:25:56.000Z</time>
      </trkpt>
      <trkpt lat="46.49775" lon="5.3419">
        <ele>224.19999694824</ele>
        <time>2021-03-08T15:25:58.000Z</time>
      </trkpt>
      <trkpt lat="46.49764" lon="5.34207">
        <ele>224.19999694824</ele>
        <time>2021-03-08T15:26:00.000Z</time>
      </trkpt>
      <trkpt lat="46.49753" lon="5.34225">
        <ele>224.19999694824</ele>
        <time>2021-03-08T15:26:02.000Z</time>
      </trkpt>
      <trkpt lat="46.49742" lon="5.34243">
        <ele>224.19999694824</ele>
        <time>2021-03-08T15:26:04.000Z</time>
      </trkpt>
      <trkpt lat="46.49731" lon="5.34261">
        <ele>224</ele>
        <time>2021-03-08T15:26:06.000Z</time>
      </trkpt>
      <trkpt lat="46.49721" lon="5.34279">
        <ele>224</ele>
        <time>2021-03-08T15:26:08.000Z</time>
      </trkpt>
      <trkpt lat="46.49716" lon="5.34287">
        <ele>224</ele>
        <time>2021-03-08T15:26:09.000Z</time>
      </trkpt>
      <trkpt lat="46.49712" lon="5.34296">
        <ele>224</ele>
        <time>2021-03-08T15:26:10.000Z</time>
      </trkpt>
      <trkpt lat="46.49705" lon="5.34315">
        <ele>224</ele>
        <time>2021-03-08T15:26:12.000Z</time>
      </trkpt>
      <trkpt lat="46.49699" lon="5.34335">
        <ele>224</ele>
        <time>2021-03-08T15:26:14.000Z</time>
      </trkpt>
      <trkpt lat="46.49693" lon="5.34355">
        <ele>224</ele>
        <time>2021-03-08T15:26:16.000Z</time>
      </trkpt>
      <trkpt lat="46.49687" lon="5.34377">
        <ele>224</ele>
        <time>2021-03-08T15:26:18.000Z</time>
      </trkpt>
      <trkpt lat="46.4968" lon="5.34399">
        <ele>224</ele>
        <time>2021-03-08T15:26:20.000Z</time>
      </trkpt>
      <trkpt lat="46.49675" lon="5.34421">
        <ele>224</ele>
        <time>2021-03-08T15:26:22.000Z</time>
      </trkpt>
      <trkpt lat="46.49669" lon="5.34443">
        <ele>224</ele>
        <time>2021-03-08T15:26:24.000Z</time>
      </trkpt>
      <trkpt lat="46.49666" lon="5.34453">
        <ele>223.19999694824</ele>
        <time>2021-03-08T15:26:25.000Z</time>
      </trkpt>
      <trkpt lat="46.49663" lon="5.34463">
        <ele>222.80000305176</ele>
        <time>2021-03-08T15:26:26.000Z</time>
      </trkpt>
      <trkpt lat="46.49657" lon="5.34484">
        <ele>222</ele>
        <time>2021-03-08T15:26:28.000Z</time>
      </trkpt>
      <trkpt lat="46.49654" lon="5.34494">
        <ele>221.60000610352</ele>
        <time>2021-03-08T15:26:29.000Z</time>
      </trkpt>
      <trkpt lat="46.49651" lon="5.34504">
        <ele>221.19999694824</ele>
        <time>2021-03-08T15:26:30.000Z</time>
      </trkpt>
      <trkpt lat="46.49647" lon="5.34514">
        <ele>221.19999694824</ele>
        <time>2021-03-08T15:26:31.000Z</time>
      </trkpt>
      <trkpt lat="46.49642" lon="5.34523">
        <ele>221</ele>
        <time>2021-03-08T15:26:32.000Z</time>
      </trkpt>
      <trkpt lat="46.49636" lon="5.34531">
        <ele>221</ele>
        <time>2021-03-08T15:26:33.000Z</time>
      </trkpt>
      <trkpt lat="46.4963" lon="5.34538">
        <ele>220.80000305176</ele>
        <time>2021-03-08T15:26:34.000Z</time>
      </trkpt>
      <trkpt lat="46.49623" lon="5.34545">
        <ele>220.39999389648</ele>
        <time>2021-03-08T15:26:35.000Z</time>
      </trkpt>
      <trkpt lat="46.49617" lon="5.34552">
        <ele>220.19999694824</ele>
        <time>2021-03-08T15:26:36.000Z</time>
      </trkpt>
      <trkpt lat="46.49606" lon="5.34567">
        <ele>219.80000305176</ele>
        <time>2021-03-08T15:26:38.000Z</time>
      </trkpt>
      <trkpt lat="46.49595" lon="5.34583">
        <ele>219.60000610352</ele>
        <time>2021-03-08T15:26:40.000Z</time>
      </trkpt>
      <trkpt lat="46.49585" lon="5.34598">
        <ele>219.39999389648</ele>
        <time>2021-03-08T15:26:42.000Z</time>
      </trkpt>
      <trkpt lat="46.49574" lon="5.34613">
        <ele>219.39999389648</ele>
        <time>2021-03-08T15:26:44.000Z</time>
      </trkpt>
      <trkpt lat="46.49569" lon="5.3462">
        <ele>219.39999389648</ele>
        <time>2021-03-08T15:26:45.000Z</time>
      </trkpt>
      <trkpt lat="46.49564" lon="5.34627">
        <ele>219.39999389648</ele>
        <time>2021-03-08T15:26:46.000Z</time>
      </trkpt>
      <trkpt lat="46.49554" lon="5.3464">
        <ele>219.39999389648</ele>
        <time>2021-03-08T15:26:48.000Z</time>
      </trkpt>
      <trkpt lat="46.49545" lon="5.34651">
        <ele>219.60000610352</ele>
        <time>2021-03-08T15:26:50.000Z</time>
      </trkpt>
      <trkpt lat="46.49536" lon="5.34662">
        <ele>220.39999389648</ele>
        <time>2021-03-08T15:26:52.000Z</time>
      </trkpt>
      <trkpt lat="46.49532" lon="5.34666">
        <ele>220.60000610352</ele>
        <time>2021-03-08T15:26:53.000Z</time>
      </trkpt>
      <trkpt lat="46.49528" lon="5.34671">
        <ele>220.80000305176</ele>
        <time>2021-03-08T15:26:54.000Z</time>
      </trkpt>
      <trkpt lat="46.49524" lon="5.34676">
        <ele>221</ele>
        <time>2021-03-08T15:26:55.000Z</time>
      </trkpt>
      <trkpt lat="46.4952" lon="5.3468">
        <ele>221.19999694824</ele>
        <time>2021-03-08T15:26:56.000Z</time>
      </trkpt>
      <trkpt lat="46.49513" lon="5.34689">
        <ele>222</ele>
        <time>2021-03-08T15:26:58.000Z</time>
      </trkpt>
      <trkpt lat="46.49505" lon="5.34697">
        <ele>222.60000610352</ele>
        <time>2021-03-08T15:27:00.000Z</time>
      </trkpt>
      <trkpt lat="46.49501" lon="5.34701">
        <ele>223.19999694824</ele>
        <time>2021-03-08T15:27:01.000Z</time>
      </trkpt>
      <trkpt lat="46.49497" lon="5.34704">
        <ele>223.80000305176</ele>
        <time>2021-03-08T15:27:02.000Z</time>
      </trkpt>
      <trkpt lat="46.49491" lon="5.34711">
        <ele>224.60000610352</ele>
        <time>2021-03-08T15:27:04.000Z</time>
      </trkpt>
      <trkpt lat="46.49486" lon="5.34718">
        <ele>225</ele>
        <time>2021-03-08T15:27:06.000Z</time>
      </trkpt>
      <trkpt lat="46.49481" lon="5.34725">
        <ele>225.60000610352</ele>
        <time>2021-03-08T15:27:08.000Z</time>
      </trkpt>
      <trkpt lat="46.49478" lon="5.34728">
        <ele>225.80000305176</ele>
        <time>2021-03-08T15:27:09.000Z</time>
      </trkpt>
      <trkpt lat="46.49475" lon="5.34731">
        <ele>226</ele>
        <time>2021-03-08T15:27:10.000Z</time>
      </trkpt>
      <trkpt lat="46.4947" lon="5.34737">
        <ele>226.39999389648</ele>
        <time>2021-03-08T15:27:12.000Z</time>
      </trkpt>
      <trkpt lat="46.49464" lon="5.34742">
        <ele>227</ele>
        <time>2021-03-08T15:27:14.000Z</time>
      </trkpt>
      <trkpt lat="46.49459" lon="5.34746">
        <ele>227.60000610352</ele>
        <time>2021-03-08T15:27:16.000Z</time>
      </trkpt>
      <trkpt lat="46.49454" lon="5.34747">
        <ele>228.19999694824</ele>
        <time>2021-03-08T15:27:18.000Z</time>
      </trkpt>
      <trkpt lat="46.49451" lon="5.34747">
        <ele>228.60000610352</ele>
        <time>2021-03-08T15:27:19.000Z</time>
      </trkpt>
      <trkpt lat="46.49449" lon="5.34748">
        <ele>228.60000610352</ele>
        <time>2021-03-08T15:27:20.000Z</time>
      </trkpt>
      <trkpt lat="46.49444" lon="5.34754">
        <ele>229.19999694824</ele>
        <time>2021-03-08T15:27:22.000Z</time>
      </trkpt>
      <trkpt lat="46.49438" lon="5.34758">
        <ele>230.19999694824</ele>
        <time>2021-03-08T15:27:24.000Z</time>
      </trkpt>
      <trkpt lat="46.49435" lon="5.34761">
        <ele>230.39999389648</ele>
        <time>2021-03-08T15:27:25.000Z</time>
      </trkpt>
      <trkpt lat="46.49431" lon="5.34763">
        <ele>230.60000610352</ele>
        <time>2021-03-08T15:27:26.000Z</time>
      </trkpt>
      <trkpt lat="46.49423" lon="5.34771">
        <ele>231</ele>
        <time>2021-03-08T15:27:28.000Z</time>
      </trkpt>
      <trkpt lat="46.49418" lon="5.34774">
        <ele>231.19999694824</ele>
        <time>2021-03-08T15:27:29.000Z</time>
      </trkpt>
      <trkpt lat="46.49413" lon="5.34776">
        <ele>231.60000610352</ele>
        <time>2021-03-08T15:27:30.000Z</time>
      </trkpt>
      <trkpt lat="46.49403" lon="5.34783">
        <ele>232</ele>
        <time>2021-03-08T15:27:32.000Z</time>
      </trkpt>
      <trkpt lat="46.49391" lon="5.34787">
        <ele>232</ele>
        <time>2021-03-08T15:27:34.000Z</time>
      </trkpt>
      <trkpt lat="46.49385" lon="5.34789">
        <ele>232.19999694824</ele>
        <time>2021-03-08T15:27:35.000Z</time>
      </trkpt>
      <trkpt lat="46.49379" lon="5.34791">
        <ele>232.19999694824</ele>
        <time>2021-03-08T15:27:36.000Z</time>
      </trkpt>
      <trkpt lat="46.49366" lon="5.34796">
        <ele>232.19999694824</ele>
        <time>2021-03-08T15:27:38.000Z</time>
      </trkpt>
      <trkpt lat="46.49353" lon="5.34799">
        <ele>232.19999694824</ele>
        <time>2021-03-08T15:27:40.000Z</time>
      </trkpt>
      <trkpt lat="46.4934" lon="5.34803">
        <ele>232.19999694824</ele>
        <time>2021-03-08T15:27:42.000Z</time>
      </trkpt>
      <trkpt lat="46.49327" lon="5.34808">
        <ele>232</ele>
        <time>2021-03-08T15:27:44.000Z</time>
      </trkpt>
      <trkpt lat="46.49314" lon="5.34813">
        <ele>231.80000305176</ele>
        <time>2021-03-08T15:27:46.000Z</time>
      </trkpt>
      <trkpt lat="46.49302" lon="5.34821">
        <ele>231.60000610352</ele>
        <time>2021-03-08T15:27:48.000Z</time>
      </trkpt>
      <trkpt lat="46.49291" lon="5.34832">
        <ele>231.39999389648</ele>
        <time>2021-03-08T15:27:50.000Z</time>
      </trkpt>
      <trkpt lat="46.49278" lon="5.34848">
        <ele>231.39999389648</ele>
        <time>2021-03-08T15:27:52.000Z</time>
      </trkpt>
      <trkpt lat="46.49273" lon="5.34856">
        <ele>231.39999389648</ele>
        <time>2021-03-08T15:27:53.000Z</time>
      </trkpt>
      <trkpt lat="46.49267" lon="5.34864">
        <ele>231.39999389648</ele>
        <time>2021-03-08T15:27:54.000Z</time>
      </trkpt>
      <trkpt lat="46.49256" lon="5.3488">
        <ele>231.39999389648</ele>
        <time>2021-03-08T15:27:56.000Z</time>
      </trkpt>
      <trkpt lat="46.49246" lon="5.34895">
        <ele>231.39999389648</ele>
        <time>2021-03-08T15:27:58.000Z</time>
      </trkpt>
      <trkpt lat="46.49236" lon="5.3491">
        <ele>231.39999389648</ele>
        <time>2021-03-08T15:28:00.000Z</time>
      </trkpt>
      <trkpt lat="46.49231" lon="5.34918">
        <ele>231.39999389648</ele>
        <time>2021-03-08T15:28:01.000Z</time>
      </trkpt>
      <trkpt lat="46.49226" lon="5.34926">
        <ele>231.39999389648</ele>
        <time>2021-03-08T15:28:02.000Z</time>
      </trkpt>
      <trkpt lat="46.49216" lon="5.34941">
        <ele>231.39999389648</ele>
        <time>2021-03-08T15:28:04.000Z</time>
      </trkpt>
      <trkpt lat="46.49206" lon="5.34955">
        <ele>231.39999389648</ele>
        <time>2021-03-08T15:28:06.000Z</time>
      </trkpt>
      <trkpt lat="46.49195" lon="5.34968">
        <ele>231.39999389648</ele>
        <time>2021-03-08T15:28:08.000Z</time>
      </trkpt>
      <trkpt lat="46.49184" lon="5.3498">
        <ele>231.60000610352</ele>
        <time>2021-03-08T15:28:10.000Z</time>
      </trkpt>
      <trkpt lat="46.49172" lon="5.3499">
        <ele>231.60000610352</ele>
        <time>2021-03-08T15:28:12.000Z</time>
      </trkpt>
      <trkpt lat="46.49166" lon="5.34996">
        <ele>231.60000610352</ele>
        <time>2021-03-08T15:28:13.000Z</time>
      </trkpt>
      <trkpt lat="46.4916" lon="5.35002">
        <ele>231.60000610352</ele>
        <time>2021-03-08T15:28:14.000Z</time>
      </trkpt>
      <trkpt lat="46.49149" lon="5.35013">
        <ele>231.80000305176</ele>
        <time>2021-03-08T15:28:16.000Z</time>
      </trkpt>
      <trkpt lat="46.49137" lon="5.35022">
        <ele>232</ele>
        <time>2021-03-08T15:28:18.000Z</time>
      </trkpt>
      <trkpt lat="46.49126" lon="5.35032">
        <ele>232</ele>
        <time>2021-03-08T15:28:20.000Z</time>
      </trkpt>
      <trkpt lat="46.49114" lon="5.3504">
        <ele>232.39999389648</ele>
        <time>2021-03-08T15:28:22.000Z</time>
      </trkpt>
      <trkpt lat="46.49104" lon="5.3505">
        <ele>232.39999389648</ele>
        <time>2021-03-08T15:28:24.000Z</time>
      </trkpt>
      <trkpt lat="46.49093" lon="5.35058">
        <ele>232.60000610352</ele>
        <time>2021-03-08T15:28:26.000Z</time>
      </trkpt>
      <trkpt lat="46.49088" lon="5.35063">
        <ele>232.60000610352</ele>
        <time>2021-03-08T15:28:27.000Z</time>
      </trkpt>
      <trkpt lat="46.49083" lon="5.35067">
        <ele>232.60000610352</ele>
        <time>2021-03-08T15:28:28.000Z</time>
      </trkpt>
      <trkpt lat="46.49073" lon="5.35074">
        <ele>232.80000305176</ele>
        <time>2021-03-08T15:28:30.000Z</time>
      </trkpt>
      <trkpt lat="46.49063" lon="5.35082">
        <ele>233</ele>
        <time>2021-03-08T15:28:32.000Z</time>
      </trkpt>
      <trkpt lat="46.49058" lon="5.35086">
        <ele>233.19999694824</ele>
        <time>2021-03-08T15:28:33.000Z</time>
      </trkpt>
      <trkpt lat="46.49053" lon="5.35091">
        <ele>233.39999389648</ele>
        <time>2021-03-08T15:28:34.000Z</time>
      </trkpt>
      <trkpt lat="46.49048" lon="5.35096">
        <ele>233.80000305176</ele>
        <time>2021-03-08T15:28:35.000Z</time>
      </trkpt>
      <trkpt lat="46.49043" lon="5.35102">
        <ele>234</ele>
        <time>2021-03-08T15:28:36.000Z</time>
      </trkpt>
      <trkpt lat="46.49035" lon="5.35118">
        <ele>234.19999694824</ele>
        <time>2021-03-08T15:28:38.000Z</time>
      </trkpt>
      <trkpt lat="46.49027" lon="5.35135">
        <ele>234.19999694824</ele>
        <time>2021-03-08T15:28:40.000Z</time>
      </trkpt>
      <trkpt lat="46.4902" lon="5.35152">
        <ele>234.39999389648</ele>
        <time>2021-03-08T15:28:42.000Z</time>
      </trkpt>
      <trkpt lat="46.49011" lon="5.35168">
        <ele>234.39999389648</ele>
        <time>2021-03-08T15:28:44.000Z</time>
      </trkpt>
      <trkpt lat="46.49007" lon="5.35177">
        <ele>234.39999389648</ele>
        <time>2021-03-08T15:28:45.000Z</time>
      </trkpt>
      <trkpt lat="46.49002" lon="5.35185">
        <ele>234.39999389648</ele>
        <time>2021-03-08T15:28:46.000Z</time>
      </trkpt>
      <trkpt lat="46.48994" lon="5.35203">
        <ele>234.39999389648</ele>
        <time>2021-03-08T15:28:48.000Z</time>
      </trkpt>
      <trkpt lat="46.48986" lon="5.35222">
        <ele>234.19999694824</ele>
        <time>2021-03-08T15:28:50.000Z</time>
      </trkpt>
      <trkpt lat="46.48977" lon="5.35241">
        <ele>233.60000610352</ele>
        <time>2021-03-08T15:28:52.000Z</time>
      </trkpt>
      <trkpt lat="46.48972" lon="5.35252">
        <ele>233.39999389648</ele>
        <time>2021-03-08T15:28:53.000Z</time>
      </trkpt>
      <trkpt lat="46.48968" lon="5.35262">
        <ele>233.39999389648</ele>
        <time>2021-03-08T15:28:54.000Z</time>
      </trkpt>
      <trkpt lat="46.48959" lon="5.35282">
        <ele>233</ele>
        <time>2021-03-08T15:28:56.000Z</time>
      </trkpt>
      <trkpt lat="46.4895" lon="5.35302">
        <ele>232.80000305176</ele>
        <time>2021-03-08T15:28:58.000Z</time>
      </trkpt>
      <trkpt lat="46.48946" lon="5.35312">
        <ele>232.60000610352</ele>
        <time>2021-03-08T15:28:59.000Z</time>
      </trkpt>
      <trkpt lat="46.48941" lon="5.35322">
        <ele>232.60000610352</ele>
        <time>2021-03-08T15:29:00.000Z</time>
      </trkpt>
      <trkpt lat="46.48937" lon="5.35332">
        <ele>232.39999389648</ele>
        <time>2021-03-08T15:29:01.000Z</time>
      </trkpt>
      <trkpt lat="46.48932" lon="5.35342">
        <ele>232.39999389648</ele>
        <time>2021-03-08T15:29:02.000Z</time>
      </trkpt>
      <trkpt lat="46.48923" lon="5.3536">
        <ele>232.19999694824</ele>
        <time>2021-03-08T15:29:04.000Z</time>
      </trkpt>
      <trkpt lat="46.48915" lon="5.35378">
        <ele>232</ele>
        <time>2021-03-08T15:29:06.000Z</time>
      </trkpt>
      <trkpt lat="46.48911" lon="5.35387">
        <ele>232</ele>
        <time>2021-03-08T15:29:07.000Z</time>
      </trkpt>
      <trkpt lat="46.48907" lon="5.35396">
        <ele>232</ele>
        <time>2021-03-08T15:29:08.000Z</time>
      </trkpt>
      <trkpt lat="46.48899" lon="5.35413">
        <ele>232</ele>
        <time>2021-03-08T15:29:10.000Z</time>
      </trkpt>
      <trkpt lat="46.48892" lon="5.3543">
        <ele>232</ele>
        <time>2021-03-08T15:29:12.000Z</time>
      </trkpt>
      <trkpt lat="46.48885" lon="5.35447">
        <ele>232</ele>
        <time>2021-03-08T15:29:14.000Z</time>
      </trkpt>
      <trkpt lat="46.48878" lon="5.35464">
        <ele>232.19999694824</ele>
        <time>2021-03-08T15:29:16.000Z</time>
      </trkpt>
      <trkpt lat="46.4887" lon="5.35479">
        <ele>232.39999389648</ele>
        <time>2021-03-08T15:29:18.000Z</time>
      </trkpt>
      <trkpt lat="46.48863" lon="5.35495">
        <ele>232.60000610352</ele>
        <time>2021-03-08T15:29:20.000Z</time>
      </trkpt>
      <trkpt lat="46.48856" lon="5.35512">
        <ele>232.80000305176</ele>
        <time>2021-03-08T15:29:22.000Z</time>
      </trkpt>
      <trkpt lat="46.4885" lon="5.35528">
        <ele>233</ele>
        <time>2021-03-08T15:29:24.000Z</time>
      </trkpt>
      <trkpt lat="46.48843" lon="5.35545">
        <ele>233.39999389648</ele>
        <time>2021-03-08T15:29:26.000Z</time>
      </trkpt>
      <trkpt lat="46.48839" lon="5.35553">
        <ele>233.60000610352</ele>
        <time>2021-03-08T15:29:27.000Z</time>
      </trkpt>
      <trkpt lat="46.48835" lon="5.35561">
        <ele>233.80000305176</ele>
        <time>2021-03-08T15:29:28.000Z</time>
      </trkpt>
      <trkpt lat="46.48831" lon="5.35569">
        <ele>233.80000305176</ele>
        <time>2021-03-08T15:29:29.000Z</time>
      </trkpt>
      <trkpt lat="46.48828" lon="5.35577">
        <ele>233.80000305176</ele>
        <time>2021-03-08T15:29:30.000Z</time>
      </trkpt>
      <trkpt lat="46.4882" lon="5.35594">
        <ele>234</ele>
        <time>2021-03-08T15:29:32.000Z</time>
      </trkpt>
      <trkpt lat="46.48812" lon="5.35612">
        <ele>234</ele>
        <time>2021-03-08T15:29:34.000Z</time>
      </trkpt>
      <trkpt lat="46.48805" lon="5.3563">
        <ele>234</ele>
        <time>2021-03-08T15:29:36.000Z</time>
      </trkpt>
      <trkpt lat="46.48801" lon="5.35639">
        <ele>234.19999694824</ele>
        <time>2021-03-08T15:29:37.000Z</time>
      </trkpt>
      <trkpt lat="46.48798" lon="5.35648">
        <ele>234.19999694824</ele>
        <time>2021-03-08T15:29:38.000Z</time>
      </trkpt>
      <trkpt lat="46.4879" lon="5.35666">
        <ele>234</ele>
        <time>2021-03-08T15:29:40.000Z</time>
      </trkpt>
      <trkpt lat="46.48782" lon="5.35683">
        <ele>234</ele>
        <time>2021-03-08T15:29:42.000Z</time>
      </trkpt>
      <trkpt lat="46.48774" lon="5.35702">
        <ele>234</ele>
        <time>2021-03-08T15:29:44.000Z</time>
      </trkpt>
      <trkpt lat="46.4877" lon="5.35711">
        <ele>234</ele>
        <time>2021-03-08T15:29:45.000Z</time>
      </trkpt>
      <trkpt lat="46.48766" lon="5.3572">
        <ele>234</ele>
        <time>2021-03-08T15:29:46.000Z</time>
      </trkpt>
      <trkpt lat="46.48758" lon="5.35738">
        <ele>234</ele>
        <time>2021-03-08T15:29:48.000Z</time>
      </trkpt>
      <trkpt lat="46.4875" lon="5.35756">
        <ele>233.60000610352</ele>
        <time>2021-03-08T15:29:50.000Z</time>
      </trkpt>
      <trkpt lat="46.48743" lon="5.35773">
        <ele>233.60000610352</ele>
        <time>2021-03-08T15:29:52.000Z</time>
      </trkpt>
      <trkpt lat="46.48739" lon="5.35781">
        <ele>233.60000610352</ele>
        <time>2021-03-08T15:29:53.000Z</time>
      </trkpt>
      <trkpt lat="46.48736" lon="5.3579">
        <ele>233.60000610352</ele>
        <time>2021-03-08T15:29:54.000Z</time>
      </trkpt>
      <trkpt lat="46.48729" lon="5.35807">
        <ele>233.60000610352</ele>
        <time>2021-03-08T15:29:56.000Z</time>
      </trkpt>
      <trkpt lat="46.48722" lon="5.35824">
        <ele>233.60000610352</ele>
        <time>2021-03-08T15:29:58.000Z</time>
      </trkpt>
      <trkpt lat="46.48715" lon="5.35841">
        <ele>233.80000305176</ele>
        <time>2021-03-08T15:30:00.000Z</time>
      </trkpt>
      <trkpt lat="46.48707" lon="5.35857">
        <ele>234</ele>
        <time>2021-03-08T15:30:02.000Z</time>
      </trkpt>
      <trkpt lat="46.48704" lon="5.35865">
        <ele>234</ele>
        <time>2021-03-08T15:30:03.000Z</time>
      </trkpt>
      <trkpt lat="46.48701" lon="5.35874">
        <ele>234</ele>
        <time>2021-03-08T15:30:04.000Z</time>
      </trkpt>
      <trkpt lat="46.48695" lon="5.3589">
        <ele>234.19999694824</ele>
        <time>2021-03-08T15:30:06.000Z</time>
      </trkpt>
      <trkpt lat="46.4869" lon="5.35906">
        <ele>234.19999694824</ele>
        <time>2021-03-08T15:30:08.000Z</time>
      </trkpt>
      <trkpt lat="46.48686" lon="5.35924">
        <ele>234.80000305176</ele>
        <time>2021-03-08T15:30:10.000Z</time>
      </trkpt>
      <trkpt lat="46.48683" lon="5.35942">
        <ele>235.19999694824</ele>
        <time>2021-03-08T15:30:12.000Z</time>
      </trkpt>
      <trkpt lat="46.4868" lon="5.3596">
        <ele>235.80000305176</ele>
        <time>2021-03-08T15:30:14.000Z</time>
      </trkpt>
      <trkpt lat="46.48679" lon="5.35969">
        <ele>236</ele>
        <time>2021-03-08T15:30:15.000Z</time>
      </trkpt>
      <trkpt lat="46.48677" lon="5.35977">
        <ele>236.19999694824</ele>
        <time>2021-03-08T15:30:16.000Z</time>
      </trkpt>
      <trkpt lat="46.48676" lon="5.35986">
        <ele>236.60000610352</ele>
        <time>2021-03-08T15:30:17.000Z</time>
      </trkpt>
      <trkpt lat="46.48674" lon="5.35995">
        <ele>237</ele>
        <time>2021-03-08T15:30:18.000Z</time>
      </trkpt>
      <trkpt lat="46.48672" lon="5.36003">
        <ele>237</ele>
        <time>2021-03-08T15:30:19.000Z</time>
      </trkpt>
      <trkpt lat="46.48671" lon="5.36012">
        <ele>237</ele>
        <time>2021-03-08T15:30:20.000Z</time>
      </trkpt>
      <trkpt lat="46.48667" lon="5.36031">
        <ele>237.19999694824</ele>
        <time>2021-03-08T15:30:22.000Z</time>
      </trkpt>
      <trkpt lat="46.48664" lon="5.36041">
        <ele>237.19999694824</ele>
        <time>2021-03-08T15:30:23.000Z</time>
      </trkpt>
      <trkpt lat="46.48662" lon="5.36051">
        <ele>237.19999694824</ele>
        <time>2021-03-08T15:30:24.000Z</time>
      </trkpt>
      <trkpt lat="46.48657" lon="5.36073">
        <ele>237.19999694824</ele>
        <time>2021-03-08T15:30:26.000Z</time>
      </trkpt>
      <trkpt lat="46.48652" lon="5.36096">
        <ele>237</ele>
        <time>2021-03-08T15:30:28.000Z</time>
      </trkpt>
      <trkpt lat="46.48647" lon="5.36119">
        <ele>236.60000610352</ele>
        <time>2021-03-08T15:30:30.000Z</time>
      </trkpt>
      <trkpt lat="46.48645" lon="5.3613">
        <ele>236.19999694824</ele>
        <time>2021-03-08T15:30:31.000Z</time>
      </trkpt>
      <trkpt lat="46.48644" lon="5.36141">
        <ele>235.80000305176</ele>
        <time>2021-03-08T15:30:32.000Z</time>
      </trkpt>
      <trkpt lat="46.48642" lon="5.36163">
        <ele>235</ele>
        <time>2021-03-08T15:30:34.000Z</time>
      </trkpt>
      <trkpt lat="46.4864" lon="5.36184">
        <ele>234.80000305176</ele>
        <time>2021-03-08T15:30:36.000Z</time>
      </trkpt>
      <trkpt lat="46.48638" lon="5.36205">
        <ele>234.80000305176</ele>
        <time>2021-03-08T15:30:38.000Z</time>
      </trkpt>
      <trkpt lat="46.48637" lon="5.36225">
        <ele>234.80000305176</ele>
        <time>2021-03-08T15:30:40.000Z</time>
      </trkpt>
      <trkpt lat="46.48635" lon="5.36244">
        <ele>234.80000305176</ele>
        <time>2021-03-08T15:30:42.000Z</time>
      </trkpt>
      <trkpt lat="46.48633" lon="5.36262">
        <ele>234.80000305176</ele>
        <time>2021-03-08T15:30:44.000Z</time>
      </trkpt>
      <trkpt lat="46.4863" lon="5.36279">
        <ele>235</ele>
        <time>2021-03-08T15:30:46.000Z</time>
      </trkpt>
      <trkpt lat="46.48626" lon="5.36296">
        <ele>235.19999694824</ele>
        <time>2021-03-08T15:30:48.000Z</time>
      </trkpt>
      <trkpt lat="46.48623" lon="5.36303">
        <ele>235.60000610352</ele>
        <time>2021-03-08T15:30:49.000Z</time>
      </trkpt>
      <trkpt lat="46.48619" lon="5.36308">
        <ele>235.80000305176</ele>
        <time>2021-03-08T15:30:50.000Z</time>
      </trkpt>
      <trkpt lat="46.4861" lon="5.36315">
        <ele>236.39999389648</ele>
        <time>2021-03-08T15:30:52.000Z</time>
      </trkpt>
      <trkpt lat="46.486" lon="5.36318">
        <ele>236.80000305176</ele>
        <time>2021-03-08T15:30:54.000Z</time>
      </trkpt>
      <trkpt lat="46.48595" lon="5.36319">
        <ele>237</ele>
        <time>2021-03-08T15:30:55.000Z</time>
      </trkpt>
      <trkpt lat="46.4859" lon="5.36319">
        <ele>237.39999389648</ele>
        <time>2021-03-08T15:30:56.000Z</time>
      </trkpt>
      <trkpt lat="46.48585" lon="5.3632">
        <ele>237.80000305176</ele>
        <time>2021-03-08T15:30:57.000Z</time>
      </trkpt>
      <trkpt lat="46.4858" lon="5.3632">
        <ele>238.39999389648</ele>
        <time>2021-03-08T15:30:58.000Z</time>
      </trkpt>
      <trkpt lat="46.48569" lon="5.36322">
        <ele>239.19999694824</ele>
        <time>2021-03-08T15:31:00.000Z</time>
      </trkpt>
      <trkpt lat="46.48564" lon="5.36322">
        <ele>239.60000610352</ele>
        <time>2021-03-08T15:31:01.000Z</time>
      </trkpt>
      <trkpt lat="46.48559" lon="5.36323">
        <ele>239.80000305176</ele>
        <time>2021-03-08T15:31:02.000Z</time>
      </trkpt>
      <trkpt lat="46.48548" lon="5.36325">
        <ele>240.39999389648</ele>
        <time>2021-03-08T15:31:04.000Z</time>
      </trkpt>
      <trkpt lat="46.48543" lon="5.36325">
        <ele>240.80000305176</ele>
        <time>2021-03-08T15:31:05.000Z</time>
      </trkpt>
      <trkpt lat="46.48538" lon="5.36326">
        <ele>241</ele>
        <time>2021-03-08T15:31:06.000Z</time>
      </trkpt>
      <trkpt lat="46.48527" lon="5.36328">
        <ele>241.60000610352</ele>
        <time>2021-03-08T15:31:08.000Z</time>
      </trkpt>
      <trkpt lat="46.48515" lon="5.3633">
        <ele>242</ele>
        <time>2021-03-08T15:31:10.000Z</time>
      </trkpt>
      <trkpt lat="46.48504" lon="5.36332">
        <ele>242.39999389648</ele>
        <time>2021-03-08T15:31:12.000Z</time>
      </trkpt>
      <trkpt lat="46.48492" lon="5.36334">
        <ele>242.80000305176</ele>
        <time>2021-03-08T15:31:14.000Z</time>
      </trkpt>
      <trkpt lat="46.4848" lon="5.36336">
        <ele>243</ele>
        <time>2021-03-08T15:31:16.000Z</time>
      </trkpt>
      <trkpt lat="46.48468" lon="5.36338">
        <ele>243</ele>
        <time>2021-03-08T15:31:18.000Z</time>
      </trkpt>
      <trkpt lat="46.48455" lon="5.3634">
        <ele>243.19999694824</ele>
        <time>2021-03-08T15:31:20.000Z</time>
      </trkpt>
      <trkpt lat="46.48442" lon="5.36342">
        <ele>243.39999389648</ele>
        <time>2021-03-08T15:31:22.000Z</time>
      </trkpt>
      <trkpt lat="46.48436" lon="5.36343">
        <ele>243.39999389648</ele>
        <time>2021-03-08T15:31:23.000Z</time>
      </trkpt>
      <trkpt lat="46.48429" lon="5.36345">
        <ele>243.39999389648</ele>
        <time>2021-03-08T15:31:24.000Z</time>
      </trkpt>
      <trkpt lat="46.48417" lon="5.3635">
        <ele>243.39999389648</ele>
        <time>2021-03-08T15:31:26.000Z</time>
      </trkpt>
      <trkpt lat="46.48405" lon="5.36358">
        <ele>243.39999389648</ele>
        <time>2021-03-08T15:31:28.000Z</time>
      </trkpt>
      <trkpt lat="46.48394" lon="5.36368">
        <ele>243.39999389648</ele>
        <time>2021-03-08T15:31:30.000Z</time>
      </trkpt>
      <trkpt lat="46.48383" lon="5.36379">
        <ele>243.39999389648</ele>
        <time>2021-03-08T15:31:32.000Z</time>
      </trkpt>
      <trkpt lat="46.48373" lon="5.3639">
        <ele>243.60000610352</ele>
        <time>2021-03-08T15:31:34.000Z</time>
      </trkpt>
      <trkpt lat="46.48367" lon="5.36396">
        <ele>243.60000610352</ele>
        <time>2021-03-08T15:31:35.000Z</time>
      </trkpt>
      <trkpt lat="46.48362" lon="5.36402">
        <ele>243.60000610352</ele>
        <time>2021-03-08T15:31:36.000Z</time>
      </trkpt>
      <trkpt lat="46.48352" lon="5.36413">
        <ele>243.60000610352</ele>
        <time>2021-03-08T15:31:38.000Z</time>
      </trkpt>
      <trkpt lat="46.48342" lon="5.36424">
        <ele>243.80000305176</ele>
        <time>2021-03-08T15:31:40.000Z</time>
      </trkpt>
      <trkpt lat="46.48332" lon="5.36435">
        <ele>244</ele>
        <time>2021-03-08T15:31:42.000Z</time>
      </trkpt>
      <trkpt lat="46.48327" lon="5.3644">
        <ele>244</ele>
        <time>2021-03-08T15:31:43.000Z</time>
      </trkpt>
      <trkpt lat="46.48322" lon="5.36446">
        <ele>244</ele>
        <time>2021-03-08T15:31:44.000Z</time>
      </trkpt>
      <trkpt lat="46.48312" lon="5.36456">
        <ele>244.39999389648</ele>
        <time>2021-03-08T15:31:46.000Z</time>
      </trkpt>
      <trkpt lat="46.48303" lon="5.36467">
        <ele>244.80000305176</ele>
        <time>2021-03-08T15:31:48.000Z</time>
      </trkpt>
      <trkpt lat="46.48298" lon="5.36473">
        <ele>245.19999694824</ele>
        <time>2021-03-08T15:31:49.000Z</time>
      </trkpt>
      <trkpt lat="46.48294" lon="5.36478">
        <ele>245.80000305176</ele>
        <time>2021-03-08T15:31:50.000Z</time>
      </trkpt>
      <trkpt lat="46.48284" lon="5.36488">
        <ele>246.19999694824</ele>
        <time>2021-03-08T15:31:52.000Z</time>
      </trkpt>
      <trkpt lat="46.48279" lon="5.36493">
        <ele>246.60000610352</ele>
        <time>2021-03-08T15:31:53.000Z</time>
      </trkpt>
      <trkpt lat="46.48275" lon="5.36498">
        <ele>246.80000305176</ele>
        <time>2021-03-08T15:31:54.000Z</time>
      </trkpt>
      <trkpt lat="46.48266" lon="5.36509">
        <ele>247</ele>
        <time>2021-03-08T15:31:56.000Z</time>
      </trkpt>
      <trkpt lat="46.48256" lon="5.36519">
        <ele>247.19999694824</ele>
        <time>2021-03-08T15:31:58.000Z</time>
      </trkpt>
      <trkpt lat="46.48247" lon="5.36529">
        <ele>247.39999389648</ele>
        <time>2021-03-08T15:32:00.000Z</time>
      </trkpt>
      <trkpt lat="46.48242" lon="5.36535">
        <ele>247.60000610352</ele>
        <time>2021-03-08T15:32:01.000Z</time>
      </trkpt>
      <trkpt lat="46.48238" lon="5.3654">
        <ele>247.80000305176</ele>
        <time>2021-03-08T15:32:02.000Z</time>
      </trkpt>
      <trkpt lat="46.48228" lon="5.36549">
        <ele>248.39999389648</ele>
        <time>2021-03-08T15:32:04.000Z</time>
      </trkpt>
      <trkpt lat="46.48223" lon="5.36553">
        <ele>248.80000305176</ele>
        <time>2021-03-08T15:32:05.000Z</time>
      </trkpt>
      <trkpt lat="46.48218" lon="5.36555">
        <ele>249</ele>
        <time>2021-03-08T15:32:06.000Z</time>
      </trkpt>
      <trkpt lat="46.48206" lon="5.36556">
        <ele>249.19999694824</ele>
        <time>2021-03-08T15:32:08.000Z</time>
      </trkpt>
      <trkpt lat="46.48201" lon="5.36557">
        <ele>249.19999694824</ele>
        <time>2021-03-08T15:32:09.000Z</time>
      </trkpt>
      <trkpt lat="46.48196" lon="5.3656">
        <ele>249.19999694824</ele>
        <time>2021-03-08T15:32:10.000Z</time>
      </trkpt>
      <trkpt lat="46.48189" lon="5.36572">
        <ele>249.60000610352</ele>
        <time>2021-03-08T15:32:12.000Z</time>
      </trkpt>
      <trkpt lat="46.48186" lon="5.3658">
        <ele>249.80000305176</ele>
        <time>2021-03-08T15:32:13.000Z</time>
      </trkpt>
      <trkpt lat="46.48184" lon="5.36588">
        <ele>250</ele>
        <time>2021-03-08T15:32:14.000Z</time>
      </trkpt>
      <trkpt lat="46.48178" lon="5.36602">
        <ele>250.19999694824</ele>
        <time>2021-03-08T15:32:16.000Z</time>
      </trkpt>
      <trkpt lat="46.48174" lon="5.36608">
        <ele>250.19999694824</ele>
        <time>2021-03-08T15:32:17.000Z</time>
      </trkpt>
      <trkpt lat="46.48169" lon="5.36613">
        <ele>250.19999694824</ele>
        <time>2021-03-08T15:32:18.000Z</time>
      </trkpt>
      <trkpt lat="46.48164" lon="5.36617">
        <ele>250.39999389648</ele>
        <time>2021-03-08T15:32:19.000Z</time>
      </trkpt>
      <trkpt lat="46.4816" lon="5.36622">
        <ele>250.39999389648</ele>
        <time>2021-03-08T15:32:20.000Z</time>
      </trkpt>
      <trkpt lat="46.48151" lon="5.36633">
        <ele>250.60000610352</ele>
        <time>2021-03-08T15:32:22.000Z</time>
      </trkpt>
      <trkpt lat="46.48142" lon="5.36643">
        <ele>250.80000305176</ele>
        <time>2021-03-08T15:32:24.000Z</time>
      </trkpt>
      <trkpt lat="46.48137" lon="5.36648">
        <ele>250.80000305176</ele>
        <time>2021-03-08T15:32:25.000Z</time>
      </trkpt>
      <trkpt lat="46.48132" lon="5.36653">
        <ele>251</ele>
        <time>2021-03-08T15:32:26.000Z</time>
      </trkpt>
      <trkpt lat="46.48124" lon="5.36661">
        <ele>251</ele>
        <time>2021-03-08T15:32:28.000Z</time>
      </trkpt>
      <trkpt lat="46.48121" lon="5.36665">
        <ele>251.19999694824</ele>
        <time>2021-03-08T15:32:29.000Z</time>
      </trkpt>
      <trkpt lat="46.48117" lon="5.36669">
        <ele>251.19999694824</ele>
        <time>2021-03-08T15:32:30.000Z</time>
      </trkpt>
      <trkpt lat="46.4811" lon="5.36677">
        <ele>251.39999389648</ele>
        <time>2021-03-08T15:32:32.000Z</time>
      </trkpt>
      <trkpt lat="46.48107" lon="5.36685">
        <ele>251.60000610352</ele>
        <time>2021-03-08T15:32:34.000Z</time>
      </trkpt>
      <trkpt lat="46.4811" lon="5.36695">
        <ele>251.60000610352</ele>
        <time>2021-03-08T15:32:36.000Z</time>
      </trkpt>
      <trkpt lat="46.48113" lon="5.367">
        <ele>251.80000305176</ele>
        <time>2021-03-08T15:32:37.000Z</time>
      </trkpt>
      <trkpt lat="46.48116" lon="5.36704">
        <ele>251.80000305176</ele>
        <time>2021-03-08T15:32:38.000Z</time>
      </trkpt>
      <trkpt lat="46.48119" lon="5.36708">
        <ele>252</ele>
        <time>2021-03-08T15:32:39.000Z</time>
      </trkpt>
      <trkpt lat="46.48123" lon="5.36711">
        <ele>252.19999694824</ele>
        <time>2021-03-08T15:32:40.000Z</time>
      </trkpt>
      <trkpt lat="46.4813" lon="5.36718">
        <ele>252.39999389648</ele>
        <time>2021-03-08T15:32:42.000Z</time>
      </trkpt>
      <trkpt lat="46.48138" lon="5.36725">
        <ele>252.60000610352</ele>
        <time>2021-03-08T15:32:44.000Z</time>
      </trkpt>
      <trkpt lat="46.48141" lon="5.36729">
        <ele>252.80000305176</ele>
        <time>2021-03-08T15:32:45.000Z</time>
      </trkpt>
      <trkpt lat="46.48145" lon="5.36732">
        <ele>252.80000305176</ele>
        <time>2021-03-08T15:32:46.000Z</time>
      </trkpt>
      <trkpt lat="46.48152" lon="5.36739">
        <ele>253</ele>
        <time>2021-03-08T15:32:48.000Z</time>
      </trkpt>
      <trkpt lat="46.48159" lon="5.36745">
        <ele>253.19999694824</ele>
        <time>2021-03-08T15:32:50.000Z</time>
      </trkpt>
      <trkpt lat="46.48165" lon="5.36751">
        <ele>253.60000610352</ele>
        <time>2021-03-08T15:32:52.000Z</time>
      </trkpt>
      <trkpt lat="46.48172" lon="5.36757">
        <ele>254</ele>
        <time>2021-03-08T15:32:54.000Z</time>
      </trkpt>
      <trkpt lat="46.48178" lon="5.36762">
        <ele>254.39999389648</ele>
        <time>2021-03-08T15:32:56.000Z</time>
      </trkpt>
      <trkpt lat="46.48184" lon="5.36767">
        <ele>254.80000305176</ele>
        <time>2021-03-08T15:32:58.000Z</time>
      </trkpt>
      <trkpt lat="46.48187" lon="5.3677">
        <ele>255.19999694824</ele>
        <time>2021-03-08T15:32:59.000Z</time>
      </trkpt>
      <trkpt lat="46.4819" lon="5.36773">
        <ele>255.39999389648</ele>
        <time>2021-03-08T15:33:00.000Z</time>
      </trkpt>
      <trkpt lat="46.48197" lon="5.36778">
        <ele>255.80000305176</ele>
        <time>2021-03-08T15:33:02.000Z</time>
      </trkpt>
      <trkpt lat="46.48203" lon="5.36783">
        <ele>256.39999389648</ele>
        <time>2021-03-08T15:33:04.000Z</time>
      </trkpt>
      <trkpt lat="46.48208" lon="5.36788">
        <ele>256.79998779297</ele>
        <time>2021-03-08T15:33:06.000Z</time>
      </trkpt>
      <trkpt lat="46.48214" lon="5.36793">
        <ele>257.39999389648</ele>
        <time>2021-03-08T15:33:08.000Z</time>
      </trkpt>
      <trkpt lat="46.48217" lon="5.36796">
        <ele>257.39999389648</ele>
        <time>2021-03-08T15:33:09.000Z</time>
      </trkpt>
      <trkpt lat="46.4822" lon="5.36798">
        <ele>257.60000610352</ele>
        <time>2021-03-08T15:33:10.000Z</time>
      </trkpt>
      <trkpt lat="46.48227" lon="5.36803">
        <ele>258</ele>
        <time>2021-03-08T15:33:12.000Z</time>
      </trkpt>
      <trkpt lat="46.48233" lon="5.36808">
        <ele>258.39999389648</ele>
        <time>2021-03-08T15:33:14.000Z</time>
      </trkpt>
      <trkpt lat="46.48236" lon="5.36811">
        <ele>258.60000610352</ele>
        <time>2021-03-08T15:33:15.000Z</time>
      </trkpt>
      <trkpt lat="46.48239" lon="5.36814">
        <ele>258.60000610352</ele>
        <time>2021-03-08T15:33:16.000Z</time>
      </trkpt>
      <trkpt lat="46.48244" lon="5.36819">
        <ele>259</ele>
        <time>2021-03-08T15:33:18.000Z</time>
      </trkpt>
      <trkpt lat="46.4825" lon="5.36824">
        <ele>259.39999389648</ele>
        <time>2021-03-08T15:33:20.000Z</time>
      </trkpt>
      <trkpt lat="46.48253" lon="5.36827">
        <ele>259.60000610352</ele>
        <time>2021-03-08T15:33:21.000Z</time>
      </trkpt>
      <trkpt lat="46.48256" lon="5.36829">
        <ele>259.79998779297</ele>
        <time>2021-03-08T15:33:22.000Z</time>
      </trkpt>
      <trkpt lat="46.48261" lon="5.36835">
        <ele>260.39999389648</ele>
        <time>2021-03-08T15:33:24.000Z</time>
      </trkpt>
    </trkseg>
  </trk>
</gpx>